<?xml version="1.0" encoding="UTF-8" standalone="no" ?>
<gpx xmlns="http://www.topografix.com/GPX/1/1" xmlns:xsi="http://www.w3.org/2001/XMLSchema-instance" xsi:schemaLocation="http://www.topografix.com/GPX/1/1 http://www.topografix.com/GPX/1/1/gpx.xsd" version="1.1" creator="VisuGPX - https://www.visugpx.com">
  <metadata>
    <name>French-divide 2021</name>
  </metadata>
  <trk>
    <name><![CDATA[03 FD]]></name>
    <trkseg>
      <trkpt lat="49.52863" lon="3.6759">
        <ele>147.22</ele>
        <time>2021-08-09T03:58:12Z</time>
      </trkpt>
      <trkpt lat="49.52869" lon="3.67598">
        <ele>148.18</ele>
        <time>2021-08-09T03:58:21Z</time>
      </trkpt>
      <trkpt lat="49.52869" lon="3.676">
        <ele>148.18</ele>
        <time>2021-08-09T03:58:22Z</time>
      </trkpt>
      <trkpt lat="49.52875" lon="3.67604">
        <ele>149.14</ele>
        <time>2021-08-09T03:58:29Z</time>
      </trkpt>
      <trkpt lat="49.52879" lon="3.67606">
        <ele>149.62</ele>
        <time>2021-08-09T03:58:40Z</time>
      </trkpt>
      <trkpt lat="49.5288" lon="3.67611">
        <ele>150.58</ele>
        <time>2021-08-09T03:58:46Z</time>
      </trkpt>
      <trkpt lat="49.52884" lon="3.67615">
        <ele>151.54</ele>
        <time>2021-08-09T03:58:53Z</time>
      </trkpt>
      <trkpt lat="49.52888" lon="3.67621">
        <ele>152.51</ele>
        <time>2021-08-09T03:59:01Z</time>
      </trkpt>
      <trkpt lat="49.52891" lon="3.67627">
        <ele>154.43</ele>
        <time>2021-08-09T03:59:11Z</time>
      </trkpt>
      <trkpt lat="49.52895" lon="3.67634">
        <ele>155.87</ele>
        <time>2021-08-09T03:59:19Z</time>
      </trkpt>
      <trkpt lat="49.529" lon="3.67641">
        <ele>156.83</ele>
        <time>2021-08-09T03:59:27Z</time>
      </trkpt>
      <trkpt lat="49.52904" lon="3.67647">
        <ele>157.79</ele>
        <time>2021-08-09T03:59:34Z</time>
      </trkpt>
      <trkpt lat="49.52911" lon="3.67652">
        <ele>159.24</ele>
        <time>2021-08-09T03:59:43Z</time>
      </trkpt>
      <trkpt lat="49.52916" lon="3.67659">
        <ele>159.72</ele>
        <time>2021-08-09T03:59:50Z</time>
      </trkpt>
      <trkpt lat="49.52924" lon="3.67668">
        <ele>160.2</ele>
        <time>2021-08-09T03:59:57Z</time>
      </trkpt>
      <trkpt lat="49.5293" lon="3.67676">
        <ele>161.64</ele>
        <time>2021-08-09T04:00:05Z</time>
      </trkpt>
      <trkpt lat="49.52936" lon="3.67683">
        <ele>162.12</ele>
        <time>2021-08-09T04:00:12Z</time>
      </trkpt>
      <trkpt lat="49.52942" lon="3.67692">
        <ele>163.08</ele>
        <time>2021-08-09T04:00:19Z</time>
      </trkpt>
      <trkpt lat="49.52946" lon="3.67701">
        <ele>163.56</ele>
        <time>2021-08-09T04:00:27Z</time>
      </trkpt>
      <trkpt lat="49.5295" lon="3.67709">
        <ele>164.04</ele>
        <time>2021-08-09T04:00:33Z</time>
      </trkpt>
      <trkpt lat="49.52957" lon="3.67724">
        <ele>166.45</ele>
        <time>2021-08-09T04:00:42Z</time>
      </trkpt>
      <trkpt lat="49.52962" lon="3.67737">
        <ele>166.93</ele>
        <time>2021-08-09T04:00:48Z</time>
      </trkpt>
      <trkpt lat="49.52971" lon="3.67756">
        <ele>166.93</ele>
        <time>2021-08-09T04:00:56Z</time>
      </trkpt>
      <trkpt lat="49.52978" lon="3.67789">
        <ele>168.37</ele>
        <time>2021-08-09T04:01:07Z</time>
      </trkpt>
      <trkpt lat="49.52985" lon="3.67824">
        <ele>168.85</ele>
        <time>2021-08-09T04:01:18Z</time>
      </trkpt>
      <trkpt lat="49.5299" lon="3.6785">
        <ele>168.85</ele>
        <time>2021-08-09T04:01:26Z</time>
      </trkpt>
      <trkpt lat="49.52995" lon="3.67883">
        <ele>168.85</ele>
        <time>2021-08-09T04:01:34Z</time>
      </trkpt>
      <trkpt lat="49.53004" lon="3.6793">
        <ele>168.85</ele>
        <time>2021-08-09T04:01:43Z</time>
      </trkpt>
      <trkpt lat="49.53009" lon="3.67977">
        <ele>167.89</ele>
        <time>2021-08-09T04:01:53Z</time>
      </trkpt>
      <trkpt lat="49.53011" lon="3.68023">
        <ele>167.89</ele>
        <time>2021-08-09T04:02:05Z</time>
      </trkpt>
      <trkpt lat="49.53011" lon="3.68068">
        <ele>167.89</ele>
        <time>2021-08-09T04:02:15Z</time>
      </trkpt>
      <trkpt lat="49.53009" lon="3.68118">
        <ele>166.93</ele>
        <time>2021-08-09T04:02:25Z</time>
      </trkpt>
      <trkpt lat="49.52997" lon="3.68173">
        <ele>166.93</ele>
        <time>2021-08-09T04:02:36Z</time>
      </trkpt>
      <trkpt lat="49.52989" lon="3.68206">
        <ele>166.93</ele>
        <time>2021-08-09T04:02:43Z</time>
      </trkpt>
      <trkpt lat="49.52976" lon="3.68252">
        <ele>166.93</ele>
        <time>2021-08-09T04:02:53Z</time>
      </trkpt>
      <trkpt lat="49.52971" lon="3.68274">
        <ele>166.93</ele>
        <time>2021-08-09T04:02:59Z</time>
      </trkpt>
      <trkpt lat="49.52955" lon="3.68295">
        <ele>166.45</ele>
        <time>2021-08-09T04:03:06Z</time>
      </trkpt>
      <trkpt lat="49.52938" lon="3.68313">
        <ele>166.45</ele>
        <time>2021-08-09T04:03:13Z</time>
      </trkpt>
      <trkpt lat="49.52926" lon="3.68326">
        <ele>167.89</ele>
        <time>2021-08-09T04:03:20Z</time>
      </trkpt>
      <trkpt lat="49.52914" lon="3.68337">
        <ele>167.89</ele>
        <time>2021-08-09T04:03:25Z</time>
      </trkpt>
      <trkpt lat="49.52892" lon="3.68352">
        <ele>167.89</ele>
        <time>2021-08-09T04:03:32Z</time>
      </trkpt>
      <trkpt lat="49.52864" lon="3.68365">
        <ele>166.45</ele>
        <time>2021-08-09T04:03:41Z</time>
      </trkpt>
      <trkpt lat="49.52832" lon="3.68369">
        <ele>165.96</ele>
        <time>2021-08-09T04:03:50Z</time>
      </trkpt>
      <trkpt lat="49.52799" lon="3.68363">
        <ele>165.96</ele>
        <time>2021-08-09T04:03:59Z</time>
      </trkpt>
      <trkpt lat="49.52764" lon="3.68359">
        <ele>165.96</ele>
        <time>2021-08-09T04:04:09Z</time>
      </trkpt>
      <trkpt lat="49.5272" lon="3.68359">
        <ele>167.41</ele>
        <time>2021-08-09T04:04:21Z</time>
      </trkpt>
      <trkpt lat="49.52684" lon="3.68362">
        <ele>167.89</ele>
        <time>2021-08-09T04:04:31Z</time>
      </trkpt>
      <trkpt lat="49.52641" lon="3.68368">
        <ele>167.89</ele>
        <time>2021-08-09T04:04:42Z</time>
      </trkpt>
      <trkpt lat="49.52604" lon="3.68373">
        <ele>167.89</ele>
        <time>2021-08-09T04:04:52Z</time>
      </trkpt>
      <trkpt lat="49.5257" lon="3.68372">
        <ele>167.89</ele>
        <time>2021-08-09T04:05:01Z</time>
      </trkpt>
      <trkpt lat="49.52548" lon="3.68357">
        <ele>167.89</ele>
        <time>2021-08-09T04:05:08Z</time>
      </trkpt>
      <trkpt lat="49.52523" lon="3.68342">
        <ele>167.89</ele>
        <time>2021-08-09T04:05:16Z</time>
      </trkpt>
      <trkpt lat="49.52503" lon="3.68332">
        <ele>167.89</ele>
        <time>2021-08-09T04:05:22Z</time>
      </trkpt>
      <trkpt lat="49.52472" lon="3.68324">
        <ele>167.89</ele>
        <time>2021-08-09T04:05:31Z</time>
      </trkpt>
      <trkpt lat="49.52435" lon="3.68326">
        <ele>167.89</ele>
        <time>2021-08-09T04:05:42Z</time>
      </trkpt>
      <trkpt lat="49.52394" lon="3.68335">
        <ele>167.89</ele>
        <time>2021-08-09T04:05:54Z</time>
      </trkpt>
      <trkpt lat="49.52357" lon="3.68354">
        <ele>165.96</ele>
        <time>2021-08-09T04:06:04Z</time>
      </trkpt>
      <trkpt lat="49.5233" lon="3.68371">
        <ele>164.04</ele>
        <time>2021-08-09T04:06:10Z</time>
      </trkpt>
      <trkpt lat="49.52321" lon="3.68373">
        <ele>163.56</ele>
        <time>2021-08-09T04:06:12Z</time>
      </trkpt>
      <trkpt lat="49.52317" lon="3.68374">
        <ele>163.56</ele>
        <time>2021-08-09T04:06:13Z</time>
      </trkpt>
      <trkpt lat="49.52286" lon="3.68366">
        <ele>163.56</ele>
        <time>2021-08-09T04:06:21Z</time>
      </trkpt>
      <trkpt lat="49.52252" lon="3.68353">
        <ele>165.48</ele>
        <time>2021-08-09T04:06:32Z</time>
      </trkpt>
      <trkpt lat="49.52222" lon="3.68339">
        <ele>165.96</ele>
        <time>2021-08-09T04:06:44Z</time>
      </trkpt>
      <trkpt lat="49.52191" lon="3.68325">
        <ele>166.45</ele>
        <time>2021-08-09T04:06:55Z</time>
      </trkpt>
      <trkpt lat="49.52161" lon="3.68316">
        <ele>166.45</ele>
        <time>2021-08-09T04:07:06Z</time>
      </trkpt>
      <trkpt lat="49.52135" lon="3.6831">
        <ele>166.93</ele>
        <time>2021-08-09T04:07:15Z</time>
      </trkpt>
      <trkpt lat="49.52126" lon="3.68306">
        <ele>166.93</ele>
        <time>2021-08-09T04:07:18Z</time>
      </trkpt>
      <trkpt lat="49.52086" lon="3.68297">
        <ele>166.93</ele>
        <time>2021-08-09T04:07:31Z</time>
      </trkpt>
      <trkpt lat="49.52073" lon="3.68294">
        <ele>167.89</ele>
        <time>2021-08-09T04:07:38Z</time>
      </trkpt>
      <trkpt lat="49.52073" lon="3.68296">
        <ele>167.89</ele>
        <time>2021-08-09T04:07:39Z</time>
      </trkpt>
      <trkpt lat="49.52074" lon="3.68297">
        <ele>167.89</ele>
        <time>2021-08-09T04:07:40Z</time>
      </trkpt>
      <trkpt lat="49.52075" lon="3.683">
        <ele>167.89</ele>
        <time>2021-08-09T04:07:41Z</time>
      </trkpt>
      <trkpt lat="49.52075" lon="3.68303">
        <ele>167.89</ele>
        <time>2021-08-09T04:07:42Z</time>
      </trkpt>
      <trkpt lat="49.52076" lon="3.68306">
        <ele>167.89</ele>
        <time>2021-08-09T04:07:43Z</time>
      </trkpt>
      <trkpt lat="49.52076" lon="3.68312">
        <ele>167.89</ele>
        <time>2021-08-09T04:07:45Z</time>
      </trkpt>
      <trkpt lat="49.52076" lon="3.68315">
        <ele>167.89</ele>
        <time>2021-08-09T04:07:46Z</time>
      </trkpt>
      <trkpt lat="49.52075" lon="3.68317">
        <ele>167.89</ele>
        <time>2021-08-09T04:07:47Z</time>
      </trkpt>
      <trkpt lat="49.52075" lon="3.6832">
        <ele>167.89</ele>
        <time>2021-08-09T04:07:48Z</time>
      </trkpt>
      <trkpt lat="49.52074" lon="3.68323">
        <ele>167.89</ele>
        <time>2021-08-09T04:07:49Z</time>
      </trkpt>
      <trkpt lat="49.52074" lon="3.68326">
        <ele>167.89</ele>
        <time>2021-08-09T04:07:50Z</time>
      </trkpt>
      <trkpt lat="49.52073" lon="3.68328">
        <ele>167.89</ele>
        <time>2021-08-09T04:07:51Z</time>
      </trkpt>
      <trkpt lat="49.52073" lon="3.68331">
        <ele>168.37</ele>
        <time>2021-08-09T04:07:52Z</time>
      </trkpt>
      <trkpt lat="49.52072" lon="3.68333">
        <ele>168.37</ele>
        <time>2021-08-09T04:07:53Z</time>
      </trkpt>
      <trkpt lat="49.52072" lon="3.68336">
        <ele>168.37</ele>
        <time>2021-08-09T04:07:54Z</time>
      </trkpt>
      <trkpt lat="49.52071" lon="3.68339">
        <ele>168.37</ele>
        <time>2021-08-09T04:07:55Z</time>
      </trkpt>
      <trkpt lat="49.52067" lon="3.6837">
        <ele>168.85</ele>
        <time>2021-08-09T04:08:04Z</time>
      </trkpt>
      <trkpt lat="49.52061" lon="3.68417">
        <ele>169.81</ele>
        <time>2021-08-09T04:08:16Z</time>
      </trkpt>
      <trkpt lat="49.52054" lon="3.6847">
        <ele>170.77</ele>
        <time>2021-08-09T04:08:29Z</time>
      </trkpt>
      <trkpt lat="49.52049" lon="3.68508">
        <ele>171.25</ele>
        <time>2021-08-09T04:08:38Z</time>
      </trkpt>
      <trkpt lat="49.52042" lon="3.6855">
        <ele>171.25</ele>
        <time>2021-08-09T04:08:48Z</time>
      </trkpt>
      <trkpt lat="49.52034" lon="3.68587">
        <ele>171.25</ele>
        <time>2021-08-09T04:08:57Z</time>
      </trkpt>
      <trkpt lat="49.52027" lon="3.68623">
        <ele>171.25</ele>
        <time>2021-08-09T04:09:06Z</time>
      </trkpt>
      <trkpt lat="49.52019" lon="3.68655">
        <ele>169.81</ele>
        <time>2021-08-09T04:09:14Z</time>
      </trkpt>
      <trkpt lat="49.52009" lon="3.6869">
        <ele>169.33</ele>
        <time>2021-08-09T04:09:22Z</time>
      </trkpt>
      <trkpt lat="49.51993" lon="3.68739">
        <ele>168.37</ele>
        <time>2021-08-09T04:09:32Z</time>
      </trkpt>
      <trkpt lat="49.51978" lon="3.68788">
        <ele>166.93</ele>
        <time>2021-08-09T04:09:41Z</time>
      </trkpt>
      <trkpt lat="49.51964" lon="3.68851">
        <ele>166.45</ele>
        <time>2021-08-09T04:09:52Z</time>
      </trkpt>
      <trkpt lat="49.51956" lon="3.68891">
        <ele>165.96</ele>
        <time>2021-08-09T04:10:00Z</time>
      </trkpt>
      <trkpt lat="49.51951" lon="3.68905">
        <ele>165.96</ele>
        <time>2021-08-09T04:10:04Z</time>
      </trkpt>
      <trkpt lat="49.51948" lon="3.68906">
        <ele>165.48</ele>
        <time>2021-08-09T04:10:05Z</time>
      </trkpt>
      <trkpt lat="49.51946" lon="3.68904">
        <ele>165.48</ele>
        <time>2021-08-09T04:10:06Z</time>
      </trkpt>
      <trkpt lat="49.51946" lon="3.68901">
        <ele>165.48</ele>
        <time>2021-08-09T04:10:07Z</time>
      </trkpt>
      <trkpt lat="49.51946" lon="3.68898">
        <ele>165.48</ele>
        <time>2021-08-09T04:10:08Z</time>
      </trkpt>
      <trkpt lat="49.51947" lon="3.68878">
        <ele>163.56</ele>
        <time>2021-08-09T04:10:13Z</time>
      </trkpt>
      <trkpt lat="49.51938" lon="3.68846">
        <ele>161.16</ele>
        <time>2021-08-09T04:10:20Z</time>
      </trkpt>
      <trkpt lat="49.51922" lon="3.68824">
        <ele>157.31</ele>
        <time>2021-08-09T04:10:26Z</time>
      </trkpt>
      <trkpt lat="49.51907" lon="3.68805">
        <ele>154.43</ele>
        <time>2021-08-09T04:10:30Z</time>
      </trkpt>
      <trkpt lat="49.51903" lon="3.68801">
        <ele>152.99</ele>
        <time>2021-08-09T04:10:31Z</time>
      </trkpt>
      <trkpt lat="49.51899" lon="3.68797">
        <ele>152.51</ele>
        <time>2021-08-09T04:10:32Z</time>
      </trkpt>
      <trkpt lat="49.51891" lon="3.68789">
        <ele>151.06</ele>
        <time>2021-08-09T04:10:34Z</time>
      </trkpt>
      <trkpt lat="49.51887" lon="3.68785">
        <ele>150.1</ele>
        <time>2021-08-09T04:10:35Z</time>
      </trkpt>
      <trkpt lat="49.51879" lon="3.68777">
        <ele>149.14</ele>
        <time>2021-08-09T04:10:37Z</time>
      </trkpt>
      <trkpt lat="49.51874" lon="3.68772">
        <ele>148.18</ele>
        <time>2021-08-09T04:10:38Z</time>
      </trkpt>
      <trkpt lat="49.51871" lon="3.68766">
        <ele>147.22</ele>
        <time>2021-08-09T04:10:39Z</time>
      </trkpt>
      <trkpt lat="49.51867" lon="3.68761">
        <ele>146.26</ele>
        <time>2021-08-09T04:10:40Z</time>
      </trkpt>
      <trkpt lat="49.51864" lon="3.68756">
        <ele>146.26</ele>
        <time>2021-08-09T04:10:41Z</time>
      </trkpt>
      <trkpt lat="49.51857" lon="3.68746">
        <ele>145.3</ele>
        <time>2021-08-09T04:10:44Z</time>
      </trkpt>
      <trkpt lat="49.51847" lon="3.68729">
        <ele>141.45</ele>
        <time>2021-08-09T04:10:48Z</time>
      </trkpt>
      <trkpt lat="49.51844" lon="3.68725">
        <ele>140.97</ele>
        <time>2021-08-09T04:10:49Z</time>
      </trkpt>
      <trkpt lat="49.51839" lon="3.68721">
        <ele>140.01</ele>
        <time>2021-08-09T04:10:50Z</time>
      </trkpt>
      <trkpt lat="49.51829" lon="3.68711">
        <ele>139.05</ele>
        <time>2021-08-09T04:10:52Z</time>
      </trkpt>
      <trkpt lat="49.51817" lon="3.687">
        <ele>137.13</ele>
        <time>2021-08-09T04:10:54Z</time>
      </trkpt>
      <trkpt lat="49.51805" lon="3.6869">
        <ele>136.64</ele>
        <time>2021-08-09T04:10:56Z</time>
      </trkpt>
      <trkpt lat="49.51799" lon="3.68684">
        <ele>134.72</ele>
        <time>2021-08-09T04:10:57Z</time>
      </trkpt>
      <trkpt lat="49.51779" lon="3.68668">
        <ele>133.28</ele>
        <time>2021-08-09T04:11:00Z</time>
      </trkpt>
      <trkpt lat="49.51744" lon="3.68646">
        <ele>130.4</ele>
        <time>2021-08-09T04:11:05Z</time>
      </trkpt>
      <trkpt lat="49.51731" lon="3.68639">
        <ele>129.43</ele>
        <time>2021-08-09T04:11:07Z</time>
      </trkpt>
      <trkpt lat="49.51721" lon="3.68635">
        <ele>128.95</ele>
        <time>2021-08-09T04:11:09Z</time>
      </trkpt>
      <trkpt lat="49.51698" lon="3.68622">
        <ele>127.99</ele>
        <time>2021-08-09T04:11:13Z</time>
      </trkpt>
      <trkpt lat="49.51678" lon="3.68611">
        <ele>125.59</ele>
        <time>2021-08-09T04:11:16Z</time>
      </trkpt>
      <trkpt lat="49.5166" lon="3.68605">
        <ele>124.15</ele>
        <time>2021-08-09T04:11:19Z</time>
      </trkpt>
      <trkpt lat="49.51639" lon="3.68599">
        <ele>122.71</ele>
        <time>2021-08-09T04:11:22Z</time>
      </trkpt>
      <trkpt lat="49.51592" lon="3.68576">
        <ele>119.82</ele>
        <time>2021-08-09T04:11:29Z</time>
      </trkpt>
      <trkpt lat="49.51549" lon="3.68551">
        <ele>118.38</ele>
        <time>2021-08-09T04:11:36Z</time>
      </trkpt>
      <trkpt lat="49.51527" lon="3.68535">
        <ele>117.9</ele>
        <time>2021-08-09T04:11:42Z</time>
      </trkpt>
      <trkpt lat="49.51502" lon="3.68521">
        <ele>117.42</ele>
        <time>2021-08-09T04:11:48Z</time>
      </trkpt>
      <trkpt lat="49.51485" lon="3.68509">
        <ele>116.46</ele>
        <time>2021-08-09T04:11:53Z</time>
      </trkpt>
      <trkpt lat="49.51485" lon="3.68504">
        <ele>116.46</ele>
        <time>2021-08-09T04:11:54Z</time>
      </trkpt>
      <trkpt lat="49.51484" lon="3.68497">
        <ele>115.98</ele>
        <time>2021-08-09T04:11:55Z</time>
      </trkpt>
      <trkpt lat="49.51485" lon="3.68492">
        <ele>115.98</ele>
        <time>2021-08-09T04:11:56Z</time>
      </trkpt>
      <trkpt lat="49.51485" lon="3.68486">
        <ele>115.98</ele>
        <time>2021-08-09T04:11:57Z</time>
      </trkpt>
      <trkpt lat="49.51488" lon="3.68435">
        <ele>115.5</ele>
        <time>2021-08-09T04:12:06Z</time>
      </trkpt>
      <trkpt lat="49.51493" lon="3.68386">
        <ele>115.5</ele>
        <time>2021-08-09T04:12:15Z</time>
      </trkpt>
      <trkpt lat="49.51495" lon="3.68358">
        <ele>115.5</ele>
        <time>2021-08-09T04:12:21Z</time>
      </trkpt>
      <trkpt lat="49.51492" lon="3.68357">
        <ele>115.5</ele>
        <time>2021-08-09T04:12:22Z</time>
      </trkpt>
      <trkpt lat="49.51489" lon="3.68356">
        <ele>115.5</ele>
        <time>2021-08-09T04:12:23Z</time>
      </trkpt>
      <trkpt lat="49.51485" lon="3.68357">
        <ele>115.5</ele>
        <time>2021-08-09T04:12:24Z</time>
      </trkpt>
      <trkpt lat="49.51481" lon="3.68357">
        <ele>114.53</ele>
        <time>2021-08-09T04:12:25Z</time>
      </trkpt>
      <trkpt lat="49.51477" lon="3.68357">
        <ele>114.53</ele>
        <time>2021-08-09T04:12:26Z</time>
      </trkpt>
      <trkpt lat="49.51443" lon="3.68359">
        <ele>114.05</ele>
        <time>2021-08-09T04:12:34Z</time>
      </trkpt>
      <trkpt lat="49.51437" lon="3.68358">
        <ele>114.05</ele>
        <time>2021-08-09T04:12:36Z</time>
      </trkpt>
      <trkpt lat="49.51434" lon="3.68355">
        <ele>114.05</ele>
        <time>2021-08-09T04:12:37Z</time>
      </trkpt>
      <trkpt lat="49.51432" lon="3.6835">
        <ele>114.05</ele>
        <time>2021-08-09T04:12:38Z</time>
      </trkpt>
      <trkpt lat="49.51432" lon="3.68346">
        <ele>114.05</ele>
        <time>2021-08-09T04:12:39Z</time>
      </trkpt>
      <trkpt lat="49.5143" lon="3.68341">
        <ele>114.05</ele>
        <time>2021-08-09T04:12:40Z</time>
      </trkpt>
      <trkpt lat="49.51429" lon="3.68335">
        <ele>114.05</ele>
        <time>2021-08-09T04:12:41Z</time>
      </trkpt>
      <trkpt lat="49.51424" lon="3.68314">
        <ele>115.5</ele>
        <time>2021-08-09T04:12:45Z</time>
      </trkpt>
      <trkpt lat="49.51416" lon="3.68287">
        <ele>115.98</ele>
        <time>2021-08-09T04:12:51Z</time>
      </trkpt>
      <trkpt lat="49.51404" lon="3.68268">
        <ele>115.98</ele>
        <time>2021-08-09T04:12:56Z</time>
      </trkpt>
      <trkpt lat="49.51377" lon="3.68245">
        <ele>115.98</ele>
        <time>2021-08-09T04:13:04Z</time>
      </trkpt>
      <trkpt lat="49.51372" lon="3.68242">
        <ele>114.53</ele>
        <time>2021-08-09T04:13:05Z</time>
      </trkpt>
      <trkpt lat="49.51368" lon="3.6824">
        <ele>114.53</ele>
        <time>2021-08-09T04:13:06Z</time>
      </trkpt>
      <trkpt lat="49.51323" lon="3.68204">
        <ele>113.57</ele>
        <time>2021-08-09T04:13:16Z</time>
      </trkpt>
      <trkpt lat="49.51292" lon="3.68158">
        <ele>113.09</ele>
        <time>2021-08-09T04:13:25Z</time>
      </trkpt>
      <trkpt lat="49.51281" lon="3.68147">
        <ele>113.09</ele>
        <time>2021-08-09T04:13:28Z</time>
      </trkpt>
      <trkpt lat="49.51277" lon="3.68144">
        <ele>113.09</ele>
        <time>2021-08-09T04:13:29Z</time>
      </trkpt>
      <trkpt lat="49.51273" lon="3.68142">
        <ele>113.09</ele>
        <time>2021-08-09T04:13:30Z</time>
      </trkpt>
      <trkpt lat="49.51269" lon="3.6814">
        <ele>113.09</ele>
        <time>2021-08-09T04:13:31Z</time>
      </trkpt>
      <trkpt lat="49.51264" lon="3.68138">
        <ele>113.09</ele>
        <time>2021-08-09T04:13:32Z</time>
      </trkpt>
      <trkpt lat="49.51218" lon="3.68124">
        <ele>113.09</ele>
        <time>2021-08-09T04:13:42Z</time>
      </trkpt>
      <trkpt lat="49.51188" lon="3.68111">
        <ele>113.09</ele>
        <time>2021-08-09T04:13:49Z</time>
      </trkpt>
      <trkpt lat="49.51158" lon="3.68095">
        <ele>113.09</ele>
        <time>2021-08-09T04:13:57Z</time>
      </trkpt>
      <trkpt lat="49.51151" lon="3.68089">
        <ele>113.09</ele>
        <time>2021-08-09T04:13:59Z</time>
      </trkpt>
      <trkpt lat="49.51149" lon="3.68085">
        <ele>113.09</ele>
        <time>2021-08-09T04:14:00Z</time>
      </trkpt>
      <trkpt lat="49.51147" lon="3.68079">
        <ele>113.09</ele>
        <time>2021-08-09T04:14:01Z</time>
      </trkpt>
      <trkpt lat="49.51146" lon="3.68072">
        <ele>113.09</ele>
        <time>2021-08-09T04:14:02Z</time>
      </trkpt>
      <trkpt lat="49.51146" lon="3.68066">
        <ele>113.09</ele>
        <time>2021-08-09T04:14:03Z</time>
      </trkpt>
      <trkpt lat="49.51146" lon="3.6806">
        <ele>113.09</ele>
        <time>2021-08-09T04:14:04Z</time>
      </trkpt>
      <trkpt lat="49.51155" lon="3.68">
        <ele>112.61</ele>
        <time>2021-08-09T04:14:13Z</time>
      </trkpt>
      <trkpt lat="49.51157" lon="3.67966">
        <ele>112.61</ele>
        <time>2021-08-09T04:14:19Z</time>
      </trkpt>
      <trkpt lat="49.51153" lon="3.67928">
        <ele>112.61</ele>
        <time>2021-08-09T04:14:27Z</time>
      </trkpt>
      <trkpt lat="49.51149" lon="3.6791">
        <ele>114.05</ele>
        <time>2021-08-09T04:14:32Z</time>
      </trkpt>
      <trkpt lat="49.51145" lon="3.67883">
        <ele>114.53</ele>
        <time>2021-08-09T04:14:41Z</time>
      </trkpt>
      <trkpt lat="49.5114" lon="3.67857">
        <ele>116.46</ele>
        <time>2021-08-09T04:14:51Z</time>
      </trkpt>
      <trkpt lat="49.51138" lon="3.67848">
        <ele>116.46</ele>
        <time>2021-08-09T04:14:55Z</time>
      </trkpt>
      <trkpt lat="49.51138" lon="3.67846">
        <ele>116.94</ele>
        <time>2021-08-09T04:14:56Z</time>
      </trkpt>
      <trkpt lat="49.51135" lon="3.67834">
        <ele>118.38</ele>
        <time>2021-08-09T04:15:02Z</time>
      </trkpt>
      <trkpt lat="49.51135" lon="3.67832">
        <ele>118.38</ele>
        <time>2021-08-09T04:15:03Z</time>
      </trkpt>
      <trkpt lat="49.51134" lon="3.6783">
        <ele>118.38</ele>
        <time>2021-08-09T04:15:04Z</time>
      </trkpt>
      <trkpt lat="49.51134" lon="3.67828">
        <ele>118.86</ele>
        <time>2021-08-09T04:15:05Z</time>
      </trkpt>
      <trkpt lat="49.51133" lon="3.67827">
        <ele>118.86</ele>
        <time>2021-08-09T04:15:06Z</time>
      </trkpt>
      <trkpt lat="49.51133" lon="3.67825">
        <ele>119.34</ele>
        <time>2021-08-09T04:15:07Z</time>
      </trkpt>
      <trkpt lat="49.51132" lon="3.67823">
        <ele>119.34</ele>
        <time>2021-08-09T04:15:08Z</time>
      </trkpt>
      <trkpt lat="49.51132" lon="3.67821">
        <ele>119.34</ele>
        <time>2021-08-09T04:15:09Z</time>
      </trkpt>
      <trkpt lat="49.51126" lon="3.67802">
        <ele>119.82</ele>
        <time>2021-08-09T04:15:17Z</time>
      </trkpt>
      <trkpt lat="49.51121" lon="3.67786">
        <ele>121.26</ele>
        <time>2021-08-09T04:15:25Z</time>
      </trkpt>
      <trkpt lat="49.51116" lon="3.67769">
        <ele>122.22</ele>
        <time>2021-08-09T04:15:34Z</time>
      </trkpt>
      <trkpt lat="49.51111" lon="3.6775">
        <ele>123.67</ele>
        <time>2021-08-09T04:15:45Z</time>
      </trkpt>
      <trkpt lat="49.51109" lon="3.67747">
        <ele>123.67</ele>
        <time>2021-08-09T04:15:52Z</time>
      </trkpt>
      <trkpt lat="49.51111" lon="3.67749">
        <ele>123.67</ele>
        <time>2021-08-09T04:16:05Z</time>
      </trkpt>
      <trkpt lat="49.5111" lon="3.67747">
        <ele>123.67</ele>
        <time>2021-08-09T04:16:18Z</time>
      </trkpt>
      <trkpt lat="49.51109" lon="3.67746">
        <ele>123.67</ele>
        <time>2021-08-09T04:16:29Z</time>
      </trkpt>
      <trkpt lat="49.51108" lon="3.67747">
        <ele>123.67</ele>
        <time>2021-08-09T04:16:38Z</time>
      </trkpt>
      <trkpt lat="49.5111" lon="3.67747">
        <ele>123.67</ele>
        <time>2021-08-09T04:16:56Z</time>
      </trkpt>
      <trkpt lat="49.51111" lon="3.67747">
        <ele>123.67</ele>
        <time>2021-08-09T04:17:06Z</time>
      </trkpt>
      <trkpt lat="49.5111" lon="3.67749">
        <ele>123.67</ele>
        <time>2021-08-09T04:17:20Z</time>
      </trkpt>
      <trkpt lat="49.5111" lon="3.67748">
        <ele>123.67</ele>
        <time>2021-08-09T04:17:27Z</time>
      </trkpt>
      <trkpt lat="49.5111" lon="3.67753">
        <ele>123.67</ele>
        <time>2021-08-09T04:17:32Z</time>
      </trkpt>
      <trkpt lat="49.51109" lon="3.67752">
        <ele>123.67</ele>
        <time>2021-08-09T04:17:37Z</time>
      </trkpt>
      <trkpt lat="49.51109" lon="3.67747">
        <ele>123.67</ele>
        <time>2021-08-09T04:17:41Z</time>
      </trkpt>
      <trkpt lat="49.51108" lon="3.67748">
        <ele>123.67</ele>
        <time>2021-08-09T04:17:56Z</time>
      </trkpt>
      <trkpt lat="49.51111" lon="3.67749">
        <ele>123.67</ele>
        <time>2021-08-09T04:18:12Z</time>
      </trkpt>
      <trkpt lat="49.51109" lon="3.67746">
        <ele>123.67</ele>
        <time>2021-08-09T04:18:24Z</time>
      </trkpt>
      <trkpt lat="49.51108" lon="3.67746">
        <ele>123.67</ele>
        <time>2021-08-09T04:18:32Z</time>
      </trkpt>
      <trkpt lat="49.5111" lon="3.67749">
        <ele>123.67</ele>
        <time>2021-08-09T04:18:47Z</time>
      </trkpt>
      <trkpt lat="49.51109" lon="3.67748">
        <ele>123.67</ele>
        <time>2021-08-09T04:18:58Z</time>
      </trkpt>
      <trkpt lat="49.5111" lon="3.67749">
        <ele>123.67</ele>
        <time>2021-08-09T04:19:13Z</time>
      </trkpt>
      <trkpt lat="49.51109" lon="3.6775">
        <ele>123.67</ele>
        <time>2021-08-09T04:19:31Z</time>
      </trkpt>
      <trkpt lat="49.51107" lon="3.67751">
        <ele>123.67</ele>
        <time>2021-08-09T04:19:33Z</time>
      </trkpt>
      <trkpt lat="49.51105" lon="3.67751">
        <ele>123.67</ele>
        <time>2021-08-09T04:19:34Z</time>
      </trkpt>
      <trkpt lat="49.51088" lon="3.67761">
        <ele>123.67</ele>
        <time>2021-08-09T04:19:41Z</time>
      </trkpt>
      <trkpt lat="49.51075" lon="3.67773">
        <ele>123.67</ele>
        <time>2021-08-09T04:19:48Z</time>
      </trkpt>
      <trkpt lat="49.51056" lon="3.67793">
        <ele>122.22</ele>
        <time>2021-08-09T04:19:57Z</time>
      </trkpt>
      <trkpt lat="49.5104" lon="3.67792">
        <ele>122.22</ele>
        <time>2021-08-09T04:20:04Z</time>
      </trkpt>
      <trkpt lat="49.51036" lon="3.6779">
        <ele>123.67</ele>
        <time>2021-08-09T04:20:06Z</time>
      </trkpt>
      <trkpt lat="49.5102" lon="3.67785">
        <ele>125.11</ele>
        <time>2021-08-09T04:20:15Z</time>
      </trkpt>
      <trkpt lat="49.51" lon="3.67788">
        <ele>125.11</ele>
        <time>2021-08-09T04:20:24Z</time>
      </trkpt>
      <trkpt lat="49.50988" lon="3.67789">
        <ele>125.59</ele>
        <time>2021-08-09T04:20:30Z</time>
      </trkpt>
      <trkpt lat="49.50973" lon="3.67786">
        <ele>126.55</ele>
        <time>2021-08-09T04:20:38Z</time>
      </trkpt>
      <trkpt lat="49.50961" lon="3.67784">
        <ele>127.99</ele>
        <time>2021-08-09T04:20:46Z</time>
      </trkpt>
      <trkpt lat="49.50954" lon="3.67783">
        <ele>128.95</ele>
        <time>2021-08-09T04:20:52Z</time>
      </trkpt>
      <trkpt lat="49.50944" lon="3.67782">
        <ele>130.88</ele>
        <time>2021-08-09T04:21:02Z</time>
      </trkpt>
      <trkpt lat="49.50938" lon="3.67782">
        <ele>132.8</ele>
        <time>2021-08-09T04:21:09Z</time>
      </trkpt>
      <trkpt lat="49.5093" lon="3.67786">
        <ele>134.24</ele>
        <time>2021-08-09T04:21:16Z</time>
      </trkpt>
      <trkpt lat="49.50923" lon="3.67788">
        <ele>135.68</ele>
        <time>2021-08-09T04:21:22Z</time>
      </trkpt>
      <trkpt lat="49.50914" lon="3.67791">
        <ele>137.61</ele>
        <time>2021-08-09T04:21:29Z</time>
      </trkpt>
      <trkpt lat="49.50906" lon="3.67792">
        <ele>138.57</ele>
        <time>2021-08-09T04:21:37Z</time>
      </trkpt>
      <trkpt lat="49.50904" lon="3.67792">
        <ele>138.57</ele>
        <time>2021-08-09T04:21:38Z</time>
      </trkpt>
      <trkpt lat="49.50897" lon="3.67789">
        <ele>140.01</ele>
        <time>2021-08-09T04:21:46Z</time>
      </trkpt>
      <trkpt lat="49.50887" lon="3.67789">
        <ele>141.45</ele>
        <time>2021-08-09T04:21:53Z</time>
      </trkpt>
      <trkpt lat="49.50875" lon="3.67786">
        <ele>143.37</ele>
        <time>2021-08-09T04:22:01Z</time>
      </trkpt>
      <trkpt lat="49.50862" lon="3.67783">
        <ele>144.82</ele>
        <time>2021-08-09T04:22:09Z</time>
      </trkpt>
      <trkpt lat="49.50848" lon="3.67779">
        <ele>146.26</ele>
        <time>2021-08-09T04:22:16Z</time>
      </trkpt>
      <trkpt lat="49.50835" lon="3.67779">
        <ele>147.7</ele>
        <time>2021-08-09T04:22:25Z</time>
      </trkpt>
      <trkpt lat="49.50829" lon="3.67775">
        <ele>149.62</ele>
        <time>2021-08-09T04:22:33Z</time>
      </trkpt>
      <trkpt lat="49.50826" lon="3.67776">
        <ele>151.06</ele>
        <time>2021-08-09T04:22:39Z</time>
      </trkpt>
      <trkpt lat="49.5082" lon="3.67782">
        <ele>152.51</ele>
        <time>2021-08-09T04:22:45Z</time>
      </trkpt>
      <trkpt lat="49.50814" lon="3.67786">
        <ele>153.95</ele>
        <time>2021-08-09T04:22:52Z</time>
      </trkpt>
      <trkpt lat="49.5081" lon="3.6779">
        <ele>155.87</ele>
        <time>2021-08-09T04:22:58Z</time>
      </trkpt>
      <trkpt lat="49.50804" lon="3.67798">
        <ele>157.31</ele>
        <time>2021-08-09T04:23:05Z</time>
      </trkpt>
      <trkpt lat="49.508" lon="3.67811">
        <ele>157.79</ele>
        <time>2021-08-09T04:23:12Z</time>
      </trkpt>
      <trkpt lat="49.50794" lon="3.67819">
        <ele>159.24</ele>
        <time>2021-08-09T04:23:18Z</time>
      </trkpt>
      <trkpt lat="49.50787" lon="3.67827">
        <ele>161.16</ele>
        <time>2021-08-09T04:23:24Z</time>
      </trkpt>
      <trkpt lat="49.50778" lon="3.67838">
        <ele>162.6</ele>
        <time>2021-08-09T04:23:31Z</time>
      </trkpt>
      <trkpt lat="49.50773" lon="3.67849">
        <ele>163.08</ele>
        <time>2021-08-09T04:23:37Z</time>
      </trkpt>
      <trkpt lat="49.50759" lon="3.67868">
        <ele>164.04</ele>
        <time>2021-08-09T04:23:45Z</time>
      </trkpt>
      <trkpt lat="49.5075" lon="3.67888">
        <ele>164.52</ele>
        <time>2021-08-09T04:23:53Z</time>
      </trkpt>
      <trkpt lat="49.5074" lon="3.67903">
        <ele>165</ele>
        <time>2021-08-09T04:23:59Z</time>
      </trkpt>
      <trkpt lat="49.50731" lon="3.67914">
        <ele>165.96</ele>
        <time>2021-08-09T04:24:05Z</time>
      </trkpt>
      <trkpt lat="49.50722" lon="3.67922">
        <ele>167.41</ele>
        <time>2021-08-09T04:24:12Z</time>
      </trkpt>
      <trkpt lat="49.50711" lon="3.67928">
        <ele>168.37</ele>
        <time>2021-08-09T04:24:20Z</time>
      </trkpt>
      <trkpt lat="49.50698" lon="3.67931">
        <ele>168.85</ele>
        <time>2021-08-09T04:24:28Z</time>
      </trkpt>
      <trkpt lat="49.50689" lon="3.6793">
        <ele>169.81</ele>
        <time>2021-08-09T04:24:33Z</time>
      </trkpt>
      <trkpt lat="49.50673" lon="3.67931">
        <ele>170.29</ele>
        <time>2021-08-09T04:24:41Z</time>
      </trkpt>
      <trkpt lat="49.5067" lon="3.67929">
        <ele>171.25</ele>
        <time>2021-08-09T04:24:45Z</time>
      </trkpt>
      <trkpt lat="49.50662" lon="3.6792">
        <ele>171.25</ele>
        <time>2021-08-09T04:24:50Z</time>
      </trkpt>
      <trkpt lat="49.50654" lon="3.67916">
        <ele>171.73</ele>
        <time>2021-08-09T04:24:54Z</time>
      </trkpt>
      <trkpt lat="49.5065" lon="3.67917">
        <ele>171.73</ele>
        <time>2021-08-09T04:24:56Z</time>
      </trkpt>
      <trkpt lat="49.50643" lon="3.67918">
        <ele>171.73</ele>
        <time>2021-08-09T04:25:02Z</time>
      </trkpt>
      <trkpt lat="49.50627" lon="3.67917">
        <ele>170.77</ele>
        <time>2021-08-09T04:25:09Z</time>
      </trkpt>
      <trkpt lat="49.50605" lon="3.67915">
        <ele>170.77</ele>
        <time>2021-08-09T04:25:18Z</time>
      </trkpt>
      <trkpt lat="49.5059" lon="3.67911">
        <ele>171.73</ele>
        <time>2021-08-09T04:25:25Z</time>
      </trkpt>
      <trkpt lat="49.50572" lon="3.67903">
        <ele>172.69</ele>
        <time>2021-08-09T04:25:32Z</time>
      </trkpt>
      <trkpt lat="49.50562" lon="3.67895">
        <ele>173.66</ele>
        <time>2021-08-09T04:25:38Z</time>
      </trkpt>
      <trkpt lat="49.5055" lon="3.67885">
        <ele>174.62</ele>
        <time>2021-08-09T04:25:45Z</time>
      </trkpt>
      <trkpt lat="49.50549" lon="3.67884">
        <ele>174.62</ele>
        <time>2021-08-09T04:25:46Z</time>
      </trkpt>
      <trkpt lat="49.50547" lon="3.67882">
        <ele>175.1</ele>
        <time>2021-08-09T04:25:47Z</time>
      </trkpt>
      <trkpt lat="49.50535" lon="3.67875">
        <ele>175.58</ele>
        <time>2021-08-09T04:25:54Z</time>
      </trkpt>
      <trkpt lat="49.50519" lon="3.67866">
        <ele>177.02</ele>
        <time>2021-08-09T04:26:01Z</time>
      </trkpt>
      <trkpt lat="49.50503" lon="3.67855">
        <ele>177.5</ele>
        <time>2021-08-09T04:26:07Z</time>
      </trkpt>
      <trkpt lat="49.5049" lon="3.67837">
        <ele>177.98</ele>
        <time>2021-08-09T04:26:13Z</time>
      </trkpt>
      <trkpt lat="49.5049" lon="3.67827">
        <ele>178.46</ele>
        <time>2021-08-09T04:26:16Z</time>
      </trkpt>
      <trkpt lat="49.50494" lon="3.67812">
        <ele>178.94</ele>
        <time>2021-08-09T04:26:23Z</time>
      </trkpt>
      <trkpt lat="49.50494" lon="3.678">
        <ele>179.9</ele>
        <time>2021-08-09T04:26:29Z</time>
      </trkpt>
      <trkpt lat="49.50513" lon="3.67784">
        <ele>180.87</ele>
        <time>2021-08-09T04:26:39Z</time>
      </trkpt>
      <trkpt lat="49.50533" lon="3.67767">
        <ele>182.31</ele>
        <time>2021-08-09T04:26:49Z</time>
      </trkpt>
      <trkpt lat="49.50553" lon="3.67745">
        <ele>182.79</ele>
        <time>2021-08-09T04:26:59Z</time>
      </trkpt>
      <trkpt lat="49.50579" lon="3.67713">
        <ele>181.35</ele>
        <time>2021-08-09T04:27:09Z</time>
      </trkpt>
      <trkpt lat="49.50582" lon="3.6771">
        <ele>181.35</ele>
        <time>2021-08-09T04:27:10Z</time>
      </trkpt>
      <trkpt lat="49.50611" lon="3.67673">
        <ele>179.9</ele>
        <time>2021-08-09T04:27:19Z</time>
      </trkpt>
      <trkpt lat="49.50643" lon="3.67633">
        <ele>178.46</ele>
        <time>2021-08-09T04:27:28Z</time>
      </trkpt>
      <trkpt lat="49.50665" lon="3.67605">
        <ele>177.98</ele>
        <time>2021-08-09T04:27:35Z</time>
      </trkpt>
      <trkpt lat="49.50675" lon="3.67587">
        <ele>176.54</ele>
        <time>2021-08-09T04:27:39Z</time>
      </trkpt>
      <trkpt lat="49.50677" lon="3.67581">
        <ele>176.54</ele>
        <time>2021-08-09T04:27:40Z</time>
      </trkpt>
      <trkpt lat="49.50677" lon="3.67575">
        <ele>176.54</ele>
        <time>2021-08-09T04:27:41Z</time>
      </trkpt>
      <trkpt lat="49.50675" lon="3.67568">
        <ele>176.54</ele>
        <time>2021-08-09T04:27:42Z</time>
      </trkpt>
      <trkpt lat="49.50673" lon="3.67563">
        <ele>175.58</ele>
        <time>2021-08-09T04:27:43Z</time>
      </trkpt>
      <trkpt lat="49.50671" lon="3.67559">
        <ele>175.58</ele>
        <time>2021-08-09T04:27:44Z</time>
      </trkpt>
      <trkpt lat="49.50651" lon="3.67516">
        <ele>177.02</ele>
        <time>2021-08-09T04:27:54Z</time>
      </trkpt>
      <trkpt lat="49.50633" lon="3.67481">
        <ele>177.98</ele>
        <time>2021-08-09T04:28:03Z</time>
      </trkpt>
      <trkpt lat="49.50614" lon="3.67447">
        <ele>177.98</ele>
        <time>2021-08-09T04:28:11Z</time>
      </trkpt>
      <trkpt lat="49.50594" lon="3.67416">
        <ele>177.98</ele>
        <time>2021-08-09T04:28:18Z</time>
      </trkpt>
      <trkpt lat="49.5058" lon="3.67385">
        <ele>177.98</ele>
        <time>2021-08-09T04:28:25Z</time>
      </trkpt>
      <trkpt lat="49.50581" lon="3.67381">
        <ele>178.46</ele>
        <time>2021-08-09T04:28:26Z</time>
      </trkpt>
      <trkpt lat="49.50584" lon="3.67378">
        <ele>178.46</ele>
        <time>2021-08-09T04:28:27Z</time>
      </trkpt>
      <trkpt lat="49.50618" lon="3.67357">
        <ele>178.46</ele>
        <time>2021-08-09T04:28:36Z</time>
      </trkpt>
      <trkpt lat="49.50643" lon="3.67338">
        <ele>177.98</ele>
        <time>2021-08-09T04:28:43Z</time>
      </trkpt>
      <trkpt lat="49.50655" lon="3.67326">
        <ele>177.02</ele>
        <time>2021-08-09T04:28:46Z</time>
      </trkpt>
      <trkpt lat="49.50665" lon="3.67318">
        <ele>177.02</ele>
        <time>2021-08-09T04:28:49Z</time>
      </trkpt>
      <trkpt lat="49.50669" lon="3.67316">
        <ele>177.02</ele>
        <time>2021-08-09T04:28:50Z</time>
      </trkpt>
      <trkpt lat="49.50673" lon="3.67313">
        <ele>177.02</ele>
        <time>2021-08-09T04:28:51Z</time>
      </trkpt>
      <trkpt lat="49.50681" lon="3.67309">
        <ele>176.54</ele>
        <time>2021-08-09T04:28:53Z</time>
      </trkpt>
      <trkpt lat="49.50684" lon="3.67307">
        <ele>176.54</ele>
        <time>2021-08-09T04:28:54Z</time>
      </trkpt>
      <trkpt lat="49.50692" lon="3.67302">
        <ele>176.54</ele>
        <time>2021-08-09T04:28:56Z</time>
      </trkpt>
      <trkpt lat="49.50701" lon="3.67298">
        <ele>176.54</ele>
        <time>2021-08-09T04:28:58Z</time>
      </trkpt>
      <trkpt lat="49.50705" lon="3.67295">
        <ele>176.54</ele>
        <time>2021-08-09T04:28:59Z</time>
      </trkpt>
      <trkpt lat="49.50733" lon="3.67279">
        <ele>176.06</ele>
        <time>2021-08-09T04:29:06Z</time>
      </trkpt>
      <trkpt lat="49.50737" lon="3.67277">
        <ele>176.06</ele>
        <time>2021-08-09T04:29:07Z</time>
      </trkpt>
      <trkpt lat="49.50781" lon="3.67258">
        <ele>175.58</ele>
        <time>2021-08-09T04:29:17Z</time>
      </trkpt>
      <trkpt lat="49.50798" lon="3.67249">
        <ele>175.1</ele>
        <time>2021-08-09T04:29:21Z</time>
      </trkpt>
      <trkpt lat="49.508" lon="3.67245">
        <ele>175.1</ele>
        <time>2021-08-09T04:29:22Z</time>
      </trkpt>
      <trkpt lat="49.50802" lon="3.67238">
        <ele>175.1</ele>
        <time>2021-08-09T04:29:23Z</time>
      </trkpt>
      <trkpt lat="49.50802" lon="3.67234">
        <ele>175.1</ele>
        <time>2021-08-09T04:29:24Z</time>
      </trkpt>
      <trkpt lat="49.50801" lon="3.67229">
        <ele>175.1</ele>
        <time>2021-08-09T04:29:25Z</time>
      </trkpt>
      <trkpt lat="49.50799" lon="3.67223">
        <ele>174.62</ele>
        <time>2021-08-09T04:29:26Z</time>
      </trkpt>
      <trkpt lat="49.50775" lon="3.67155">
        <ele>174.62</ele>
        <time>2021-08-09T04:29:37Z</time>
      </trkpt>
      <trkpt lat="49.50753" lon="3.67087">
        <ele>173.17</ele>
        <time>2021-08-09T04:29:47Z</time>
      </trkpt>
      <trkpt lat="49.5073" lon="3.6702">
        <ele>171.73</ele>
        <time>2021-08-09T04:29:56Z</time>
      </trkpt>
      <trkpt lat="49.50704" lon="3.66941">
        <ele>168.85</ele>
        <time>2021-08-09T04:30:05Z</time>
      </trkpt>
      <trkpt lat="49.507" lon="3.66927">
        <ele>168.85</ele>
        <time>2021-08-09T04:30:07Z</time>
      </trkpt>
      <trkpt lat="49.50697" lon="3.66923">
        <ele>168.85</ele>
        <time>2021-08-09T04:30:08Z</time>
      </trkpt>
      <trkpt lat="49.50693" lon="3.6692">
        <ele>168.85</ele>
        <time>2021-08-09T04:30:09Z</time>
      </trkpt>
      <trkpt lat="49.5069" lon="3.6692">
        <ele>168.37</ele>
        <time>2021-08-09T04:30:10Z</time>
      </trkpt>
      <trkpt lat="49.50686" lon="3.66921">
        <ele>168.37</ele>
        <time>2021-08-09T04:30:11Z</time>
      </trkpt>
      <trkpt lat="49.50683" lon="3.66923">
        <ele>168.37</ele>
        <time>2021-08-09T04:30:12Z</time>
      </trkpt>
      <trkpt lat="49.50679" lon="3.66925">
        <ele>168.37</ele>
        <time>2021-08-09T04:30:13Z</time>
      </trkpt>
      <trkpt lat="49.50675" lon="3.66927">
        <ele>168.37</ele>
        <time>2021-08-09T04:30:14Z</time>
      </trkpt>
      <trkpt lat="49.50638" lon="3.66948">
        <ele>167.89</ele>
        <time>2021-08-09T04:30:23Z</time>
      </trkpt>
      <trkpt lat="49.50599" lon="3.66958">
        <ele>167.89</ele>
        <time>2021-08-09T04:30:33Z</time>
      </trkpt>
      <trkpt lat="49.50571" lon="3.66958">
        <ele>169.33</ele>
        <time>2021-08-09T04:30:42Z</time>
      </trkpt>
      <trkpt lat="49.50547" lon="3.66954">
        <ele>169.81</ele>
        <time>2021-08-09T04:30:50Z</time>
      </trkpt>
      <trkpt lat="49.50511" lon="3.66946">
        <ele>169.33</ele>
        <time>2021-08-09T04:30:59Z</time>
      </trkpt>
      <trkpt lat="49.50473" lon="3.66943">
        <ele>169.33</ele>
        <time>2021-08-09T04:31:09Z</time>
      </trkpt>
      <trkpt lat="49.50458" lon="3.66944">
        <ele>170.77</ele>
        <time>2021-08-09T04:31:15Z</time>
      </trkpt>
      <trkpt lat="49.50428" lon="3.6695">
        <ele>170.77</ele>
        <time>2021-08-09T04:31:24Z</time>
      </trkpt>
      <trkpt lat="49.50392" lon="3.66955">
        <ele>171.25</ele>
        <time>2021-08-09T04:31:34Z</time>
      </trkpt>
      <trkpt lat="49.50358" lon="3.66961">
        <ele>169.81</ele>
        <time>2021-08-09T04:31:42Z</time>
      </trkpt>
      <trkpt lat="49.50329" lon="3.66954">
        <ele>169.81</ele>
        <time>2021-08-09T04:31:50Z</time>
      </trkpt>
      <trkpt lat="49.50304" lon="3.6694">
        <ele>169.81</ele>
        <time>2021-08-09T04:31:58Z</time>
      </trkpt>
      <trkpt lat="49.5027" lon="3.66922">
        <ele>171.25</ele>
        <time>2021-08-09T04:32:09Z</time>
      </trkpt>
      <trkpt lat="49.50246" lon="3.66909">
        <ele>172.21</ele>
        <time>2021-08-09T04:32:18Z</time>
      </trkpt>
      <trkpt lat="49.50227" lon="3.66895">
        <ele>173.17</ele>
        <time>2021-08-09T04:32:26Z</time>
      </trkpt>
      <trkpt lat="49.50212" lon="3.66879">
        <ele>174.62</ele>
        <time>2021-08-09T04:32:35Z</time>
      </trkpt>
      <trkpt lat="49.50199" lon="3.66866">
        <ele>175.58</ele>
        <time>2021-08-09T04:32:42Z</time>
      </trkpt>
      <trkpt lat="49.50187" lon="3.66848">
        <ele>177.02</ele>
        <time>2021-08-09T04:32:51Z</time>
      </trkpt>
      <trkpt lat="49.5018" lon="3.6684">
        <ele>177.98</ele>
        <time>2021-08-09T04:32:56Z</time>
      </trkpt>
      <trkpt lat="49.50165" lon="3.6682">
        <ele>178.94</ele>
        <time>2021-08-09T04:33:06Z</time>
      </trkpt>
      <trkpt lat="49.50156" lon="3.66808">
        <ele>179.9</ele>
        <time>2021-08-09T04:33:12Z</time>
      </trkpt>
      <trkpt lat="49.50148" lon="3.66798">
        <ele>180.87</ele>
        <time>2021-08-09T04:33:18Z</time>
      </trkpt>
      <trkpt lat="49.50136" lon="3.66783">
        <ele>181.83</ele>
        <time>2021-08-09T04:33:27Z</time>
      </trkpt>
      <trkpt lat="49.5012" lon="3.66767">
        <ele>183.27</ele>
        <time>2021-08-09T04:33:37Z</time>
      </trkpt>
      <trkpt lat="49.50107" lon="3.66754">
        <ele>184.23</ele>
        <time>2021-08-09T04:33:45Z</time>
      </trkpt>
      <trkpt lat="49.50095" lon="3.66748">
        <ele>184.71</ele>
        <time>2021-08-09T04:33:52Z</time>
      </trkpt>
      <trkpt lat="49.50094" lon="3.66747">
        <ele>184.71</ele>
        <time>2021-08-09T04:33:53Z</time>
      </trkpt>
      <trkpt lat="49.50093" lon="3.66746">
        <ele>184.71</ele>
        <time>2021-08-09T04:33:54Z</time>
      </trkpt>
      <trkpt lat="49.50087" lon="3.66742">
        <ele>184.71</ele>
        <time>2021-08-09T04:34:01Z</time>
      </trkpt>
      <trkpt lat="49.50086" lon="3.66742">
        <ele>184.71</ele>
        <time>2021-08-09T04:34:15Z</time>
      </trkpt>
      <trkpt lat="49.50087" lon="3.66742">
        <ele>184.71</ele>
        <time>2021-08-09T04:34:31Z</time>
      </trkpt>
      <trkpt lat="49.50088" lon="3.66742">
        <ele>184.71</ele>
        <time>2021-08-09T04:34:47Z</time>
      </trkpt>
      <trkpt lat="49.50087" lon="3.66742">
        <ele>184.71</ele>
        <time>2021-08-09T04:35:04Z</time>
      </trkpt>
      <trkpt lat="49.50086" lon="3.66742">
        <ele>184.71</ele>
        <time>2021-08-09T04:35:20Z</time>
      </trkpt>
      <trkpt lat="49.50085" lon="3.66743">
        <ele>184.71</ele>
        <time>2021-08-09T04:35:37Z</time>
      </trkpt>
      <trkpt lat="49.50084" lon="3.66742">
        <ele>184.71</ele>
        <time>2021-08-09T04:35:53Z</time>
      </trkpt>
      <trkpt lat="49.50082" lon="3.66743">
        <ele>184.71</ele>
        <time>2021-08-09T04:35:56Z</time>
      </trkpt>
      <trkpt lat="49.5008" lon="3.66743">
        <ele>184.71</ele>
        <time>2021-08-09T04:35:58Z</time>
      </trkpt>
      <trkpt lat="49.50078" lon="3.66743">
        <ele>184.71</ele>
        <time>2021-08-09T04:35:59Z</time>
      </trkpt>
      <trkpt lat="49.50077" lon="3.66742">
        <ele>184.71</ele>
        <time>2021-08-09T04:36:00Z</time>
      </trkpt>
      <trkpt lat="49.50075" lon="3.66742">
        <ele>184.71</ele>
        <time>2021-08-09T04:36:01Z</time>
      </trkpt>
      <trkpt lat="49.50074" lon="3.66741">
        <ele>184.71</ele>
        <time>2021-08-09T04:36:02Z</time>
      </trkpt>
      <trkpt lat="49.50072" lon="3.6674">
        <ele>184.71</ele>
        <time>2021-08-09T04:36:03Z</time>
      </trkpt>
      <trkpt lat="49.50052" lon="3.66735">
        <ele>185.67</ele>
        <time>2021-08-09T04:36:13Z</time>
      </trkpt>
      <trkpt lat="49.50035" lon="3.66737">
        <ele>186.15</ele>
        <time>2021-08-09T04:36:22Z</time>
      </trkpt>
      <trkpt lat="49.50015" lon="3.66748">
        <ele>186.63</ele>
        <time>2021-08-09T04:36:32Z</time>
      </trkpt>
      <trkpt lat="49.49997" lon="3.6676">
        <ele>188.08</ele>
        <time>2021-08-09T04:36:41Z</time>
      </trkpt>
      <trkpt lat="49.49977" lon="3.66766">
        <ele>188.08</ele>
        <time>2021-08-09T04:36:49Z</time>
      </trkpt>
      <trkpt lat="49.49953" lon="3.66775">
        <ele>189.04</ele>
        <time>2021-08-09T04:36:59Z</time>
      </trkpt>
      <trkpt lat="49.49931" lon="3.66783">
        <ele>189.04</ele>
        <time>2021-08-09T04:37:08Z</time>
      </trkpt>
      <trkpt lat="49.49924" lon="3.66793">
        <ele>189.52</ele>
        <time>2021-08-09T04:37:13Z</time>
      </trkpt>
      <trkpt lat="49.49922" lon="3.66795">
        <ele>189.52</ele>
        <time>2021-08-09T04:37:14Z</time>
      </trkpt>
      <trkpt lat="49.49919" lon="3.66796">
        <ele>189.52</ele>
        <time>2021-08-09T04:37:15Z</time>
      </trkpt>
      <trkpt lat="49.49902" lon="3.66802">
        <ele>190</ele>
        <time>2021-08-09T04:37:22Z</time>
      </trkpt>
      <trkpt lat="49.49886" lon="3.66805">
        <ele>190.96</ele>
        <time>2021-08-09T04:37:29Z</time>
      </trkpt>
      <trkpt lat="49.49867" lon="3.66794">
        <ele>191.44</ele>
        <time>2021-08-09T04:37:35Z</time>
      </trkpt>
      <trkpt lat="49.49863" lon="3.66791">
        <ele>191.44</ele>
        <time>2021-08-09T04:37:36Z</time>
      </trkpt>
      <trkpt lat="49.49859" lon="3.66789">
        <ele>190.48</ele>
        <time>2021-08-09T04:37:37Z</time>
      </trkpt>
      <trkpt lat="49.49855" lon="3.66787">
        <ele>190.48</ele>
        <time>2021-08-09T04:37:38Z</time>
      </trkpt>
      <trkpt lat="49.49826" lon="3.6678">
        <ele>190.48</ele>
        <time>2021-08-09T04:37:45Z</time>
      </trkpt>
      <trkpt lat="49.49822" lon="3.6678">
        <ele>190.48</ele>
        <time>2021-08-09T04:37:46Z</time>
      </trkpt>
      <trkpt lat="49.49814" lon="3.66781">
        <ele>190</ele>
        <time>2021-08-09T04:37:48Z</time>
      </trkpt>
      <trkpt lat="49.49782" lon="3.66795">
        <ele>190</ele>
        <time>2021-08-09T04:37:56Z</time>
      </trkpt>
      <trkpt lat="49.49748" lon="3.6681">
        <ele>190</ele>
        <time>2021-08-09T04:38:06Z</time>
      </trkpt>
      <trkpt lat="49.49718" lon="3.66822">
        <ele>190.96</ele>
        <time>2021-08-09T04:38:16Z</time>
      </trkpt>
      <trkpt lat="49.49687" lon="3.66834">
        <ele>191.92</ele>
        <time>2021-08-09T04:38:26Z</time>
      </trkpt>
      <trkpt lat="49.49661" lon="3.66842">
        <ele>192.88</ele>
        <time>2021-08-09T04:38:36Z</time>
      </trkpt>
      <trkpt lat="49.49638" lon="3.66849">
        <ele>192.88</ele>
        <time>2021-08-09T04:38:44Z</time>
      </trkpt>
      <trkpt lat="49.49613" lon="3.66854">
        <ele>193.84</ele>
        <time>2021-08-09T04:38:54Z</time>
      </trkpt>
      <trkpt lat="49.49596" lon="3.66845">
        <ele>194.32</ele>
        <time>2021-08-09T04:39:01Z</time>
      </trkpt>
      <trkpt lat="49.49575" lon="3.66835">
        <ele>194.8</ele>
        <time>2021-08-09T04:39:09Z</time>
      </trkpt>
      <trkpt lat="49.49554" lon="3.66824">
        <ele>195.77</ele>
        <time>2021-08-09T04:39:18Z</time>
      </trkpt>
      <trkpt lat="49.49535" lon="3.66814">
        <ele>197.21</ele>
        <time>2021-08-09T04:39:27Z</time>
      </trkpt>
      <trkpt lat="49.49519" lon="3.66807">
        <ele>198.17</ele>
        <time>2021-08-09T04:39:35Z</time>
      </trkpt>
      <trkpt lat="49.49496" lon="3.668">
        <ele>199.13</ele>
        <time>2021-08-09T04:39:44Z</time>
      </trkpt>
      <trkpt lat="49.49476" lon="3.66791">
        <ele>200.09</ele>
        <time>2021-08-09T04:39:52Z</time>
      </trkpt>
      <trkpt lat="49.49455" lon="3.66783">
        <ele>200.57</ele>
        <time>2021-08-09T04:40:01Z</time>
      </trkpt>
      <trkpt lat="49.49434" lon="3.66777">
        <ele>200.57</ele>
        <time>2021-08-09T04:40:09Z</time>
      </trkpt>
      <trkpt lat="49.49411" lon="3.66773">
        <ele>198.65</ele>
        <time>2021-08-09T04:40:15Z</time>
      </trkpt>
      <trkpt lat="49.49375" lon="3.66764">
        <ele>197.69</ele>
        <time>2021-08-09T04:40:24Z</time>
      </trkpt>
      <trkpt lat="49.49343" lon="3.6675">
        <ele>196.73</ele>
        <time>2021-08-09T04:40:32Z</time>
      </trkpt>
      <trkpt lat="49.4934" lon="3.66745">
        <ele>196.73</ele>
        <time>2021-08-09T04:40:33Z</time>
      </trkpt>
      <trkpt lat="49.49339" lon="3.6674">
        <ele>196.73</ele>
        <time>2021-08-09T04:40:34Z</time>
      </trkpt>
      <trkpt lat="49.49329" lon="3.66687">
        <ele>194.32</ele>
        <time>2021-08-09T04:40:41Z</time>
      </trkpt>
      <trkpt lat="49.49317" lon="3.6663">
        <ele>192.4</ele>
        <time>2021-08-09T04:40:47Z</time>
      </trkpt>
      <trkpt lat="49.49297" lon="3.66527">
        <ele>190.96</ele>
        <time>2021-08-09T04:40:58Z</time>
      </trkpt>
      <trkpt lat="49.49283" lon="3.66456">
        <ele>190</ele>
        <time>2021-08-09T04:41:07Z</time>
      </trkpt>
      <trkpt lat="49.4927" lon="3.6639">
        <ele>189.04</ele>
        <time>2021-08-09T04:41:15Z</time>
      </trkpt>
      <trkpt lat="49.49248" lon="3.66309">
        <ele>187.11</ele>
        <time>2021-08-09T04:41:25Z</time>
      </trkpt>
      <trkpt lat="49.49224" lon="3.66233">
        <ele>185.19</ele>
        <time>2021-08-09T04:41:34Z</time>
      </trkpt>
      <trkpt lat="49.49211" lon="3.66195">
        <ele>184.23</ele>
        <time>2021-08-09T04:41:39Z</time>
      </trkpt>
      <trkpt lat="49.49206" lon="3.66192">
        <ele>184.23</ele>
        <time>2021-08-09T04:41:40Z</time>
      </trkpt>
      <trkpt lat="49.49201" lon="3.66192">
        <ele>184.23</ele>
        <time>2021-08-09T04:41:41Z</time>
      </trkpt>
      <trkpt lat="49.49197" lon="3.66193">
        <ele>183.27</ele>
        <time>2021-08-09T04:41:42Z</time>
      </trkpt>
      <trkpt lat="49.49192" lon="3.66196">
        <ele>182.79</ele>
        <time>2021-08-09T04:41:43Z</time>
      </trkpt>
      <trkpt lat="49.49186" lon="3.66199">
        <ele>181.83</ele>
        <time>2021-08-09T04:41:44Z</time>
      </trkpt>
      <trkpt lat="49.4918" lon="3.66204">
        <ele>181.83</ele>
        <time>2021-08-09T04:41:45Z</time>
      </trkpt>
      <trkpt lat="49.49157" lon="3.66228">
        <ele>180.38</ele>
        <time>2021-08-09T04:41:49Z</time>
      </trkpt>
      <trkpt lat="49.49152" lon="3.66235">
        <ele>179.9</ele>
        <time>2021-08-09T04:41:50Z</time>
      </trkpt>
      <trkpt lat="49.49142" lon="3.66251">
        <ele>179.42</ele>
        <time>2021-08-09T04:41:52Z</time>
      </trkpt>
      <trkpt lat="49.49127" lon="3.66274">
        <ele>178.46</ele>
        <time>2021-08-09T04:41:56Z</time>
      </trkpt>
      <trkpt lat="49.4911" lon="3.66298">
        <ele>177.98</ele>
        <time>2021-08-09T04:42:02Z</time>
      </trkpt>
      <trkpt lat="49.49089" lon="3.66346">
        <ele>177.5</ele>
        <time>2021-08-09T04:42:10Z</time>
      </trkpt>
      <trkpt lat="49.49082" lon="3.66356">
        <ele>177.5</ele>
        <time>2021-08-09T04:42:12Z</time>
      </trkpt>
      <trkpt lat="49.49051" lon="3.66392">
        <ele>178.46</ele>
        <time>2021-08-09T04:42:21Z</time>
      </trkpt>
      <trkpt lat="49.49044" lon="3.66399">
        <ele>178.46</ele>
        <time>2021-08-09T04:42:23Z</time>
      </trkpt>
      <trkpt lat="49.49041" lon="3.66402">
        <ele>178.94</ele>
        <time>2021-08-09T04:42:24Z</time>
      </trkpt>
      <trkpt lat="49.49018" lon="3.66426">
        <ele>179.9</ele>
        <time>2021-08-09T04:42:33Z</time>
      </trkpt>
      <trkpt lat="49.48993" lon="3.66455">
        <ele>181.83</ele>
        <time>2021-08-09T04:42:44Z</time>
      </trkpt>
      <trkpt lat="49.48978" lon="3.66483">
        <ele>181.83</ele>
        <time>2021-08-09T04:42:52Z</time>
      </trkpt>
      <trkpt lat="49.48957" lon="3.66515">
        <ele>182.31</ele>
        <time>2021-08-09T04:43:02Z</time>
      </trkpt>
      <trkpt lat="49.48933" lon="3.66544">
        <ele>182.79</ele>
        <time>2021-08-09T04:43:11Z</time>
      </trkpt>
      <trkpt lat="49.48902" lon="3.66568">
        <ele>182.79</ele>
        <time>2021-08-09T04:43:21Z</time>
      </trkpt>
      <trkpt lat="49.48871" lon="3.66589">
        <ele>183.75</ele>
        <time>2021-08-09T04:43:31Z</time>
      </trkpt>
      <trkpt lat="49.48837" lon="3.66606">
        <ele>184.23</ele>
        <time>2021-08-09T04:43:40Z</time>
      </trkpt>
      <trkpt lat="49.48791" lon="3.66621">
        <ele>181.83</ele>
        <time>2021-08-09T04:43:50Z</time>
      </trkpt>
      <trkpt lat="49.48766" lon="3.66627">
        <ele>181.35</ele>
        <time>2021-08-09T04:43:56Z</time>
      </trkpt>
      <trkpt lat="49.48753" lon="3.66631">
        <ele>181.35</ele>
        <time>2021-08-09T04:43:59Z</time>
      </trkpt>
      <trkpt lat="49.48729" lon="3.66639">
        <ele>180.87</ele>
        <time>2021-08-09T04:44:04Z</time>
      </trkpt>
      <trkpt lat="49.48686" lon="3.66659">
        <ele>180.38</ele>
        <time>2021-08-09T04:44:13Z</time>
      </trkpt>
      <trkpt lat="49.48645" lon="3.66682">
        <ele>179.9</ele>
        <time>2021-08-09T04:44:22Z</time>
      </trkpt>
      <trkpt lat="49.48622" lon="3.66695">
        <ele>178.94</ele>
        <time>2021-08-09T04:44:27Z</time>
      </trkpt>
      <trkpt lat="49.48594" lon="3.66711">
        <ele>176.54</ele>
        <time>2021-08-09T04:44:32Z</time>
      </trkpt>
      <trkpt lat="49.48567" lon="3.66748">
        <ele>171.73</ele>
        <time>2021-08-09T04:44:37Z</time>
      </trkpt>
      <trkpt lat="49.48561" lon="3.66757">
        <ele>171.25</ele>
        <time>2021-08-09T04:44:38Z</time>
      </trkpt>
      <trkpt lat="49.48555" lon="3.66767">
        <ele>170.29</ele>
        <time>2021-08-09T04:44:39Z</time>
      </trkpt>
      <trkpt lat="49.4855" lon="3.66773">
        <ele>168.85</ele>
        <time>2021-08-09T04:44:40Z</time>
      </trkpt>
      <trkpt lat="49.48543" lon="3.66779">
        <ele>168.85</ele>
        <time>2021-08-09T04:44:41Z</time>
      </trkpt>
      <trkpt lat="49.48538" lon="3.66781">
        <ele>168.37</ele>
        <time>2021-08-09T04:44:42Z</time>
      </trkpt>
      <trkpt lat="49.48531" lon="3.66783">
        <ele>166.93</ele>
        <time>2021-08-09T04:44:43Z</time>
      </trkpt>
      <trkpt lat="49.48525" lon="3.66785">
        <ele>165.96</ele>
        <time>2021-08-09T04:44:44Z</time>
      </trkpt>
      <trkpt lat="49.48519" lon="3.66787">
        <ele>164.52</ele>
        <time>2021-08-09T04:44:45Z</time>
      </trkpt>
      <trkpt lat="49.48498" lon="3.66791">
        <ele>162.12</ele>
        <time>2021-08-09T04:44:48Z</time>
      </trkpt>
      <trkpt lat="49.48493" lon="3.66791">
        <ele>161.16</ele>
        <time>2021-08-09T04:44:49Z</time>
      </trkpt>
      <trkpt lat="49.48486" lon="3.6679">
        <ele>161.64</ele>
        <time>2021-08-09T04:44:50Z</time>
      </trkpt>
      <trkpt lat="49.48481" lon="3.6679">
        <ele>160.68</ele>
        <time>2021-08-09T04:44:51Z</time>
      </trkpt>
      <trkpt lat="49.48476" lon="3.66789">
        <ele>159.72</ele>
        <time>2021-08-09T04:44:52Z</time>
      </trkpt>
      <trkpt lat="49.48452" lon="3.66783">
        <ele>156.35</ele>
        <time>2021-08-09T04:44:57Z</time>
      </trkpt>
      <trkpt lat="49.48444" lon="3.66781">
        <ele>154.91</ele>
        <time>2021-08-09T04:44:59Z</time>
      </trkpt>
      <trkpt lat="49.4844" lon="3.66782">
        <ele>153.95</ele>
        <time>2021-08-09T04:45:00Z</time>
      </trkpt>
      <trkpt lat="49.48435" lon="3.66786">
        <ele>152.51</ele>
        <time>2021-08-09T04:45:01Z</time>
      </trkpt>
      <trkpt lat="49.48418" lon="3.66797">
        <ele>149.14</ele>
        <time>2021-08-09T04:45:04Z</time>
      </trkpt>
      <trkpt lat="49.48399" lon="3.66809">
        <ele>145.3</ele>
        <time>2021-08-09T04:45:07Z</time>
      </trkpt>
      <trkpt lat="49.4838" lon="3.66822">
        <ele>141.93</ele>
        <time>2021-08-09T04:45:10Z</time>
      </trkpt>
      <trkpt lat="49.4836" lon="3.66836">
        <ele>138.57</ele>
        <time>2021-08-09T04:45:13Z</time>
      </trkpt>
      <trkpt lat="49.48354" lon="3.66841">
        <ele>137.61</ele>
        <time>2021-08-09T04:45:14Z</time>
      </trkpt>
      <trkpt lat="49.48347" lon="3.66846">
        <ele>137.13</ele>
        <time>2021-08-09T04:45:15Z</time>
      </trkpt>
      <trkpt lat="49.48341" lon="3.66849">
        <ele>137.13</ele>
        <time>2021-08-09T04:45:16Z</time>
      </trkpt>
      <trkpt lat="49.48326" lon="3.66859">
        <ele>133.76</ele>
        <time>2021-08-09T04:45:19Z</time>
      </trkpt>
      <trkpt lat="49.48316" lon="3.66865">
        <ele>131.84</ele>
        <time>2021-08-09T04:45:21Z</time>
      </trkpt>
      <trkpt lat="49.48311" lon="3.66868">
        <ele>131.36</ele>
        <time>2021-08-09T04:45:22Z</time>
      </trkpt>
      <trkpt lat="49.48307" lon="3.66871">
        <ele>130.88</ele>
        <time>2021-08-09T04:45:23Z</time>
      </trkpt>
      <trkpt lat="49.48293" lon="3.66878">
        <ele>129.92</ele>
        <time>2021-08-09T04:45:28Z</time>
      </trkpt>
      <trkpt lat="49.48284" lon="3.66882">
        <ele>130.4</ele>
        <time>2021-08-09T04:45:33Z</time>
      </trkpt>
      <trkpt lat="49.48282" lon="3.66882">
        <ele>129.43</ele>
        <time>2021-08-09T04:45:34Z</time>
      </trkpt>
      <trkpt lat="49.4828" lon="3.66883">
        <ele>128.95</ele>
        <time>2021-08-09T04:45:35Z</time>
      </trkpt>
      <trkpt lat="49.48279" lon="3.66883">
        <ele>128.95</ele>
        <time>2021-08-09T04:45:36Z</time>
      </trkpt>
      <trkpt lat="49.48273" lon="3.66887">
        <ele>127.99</ele>
        <time>2021-08-09T04:45:41Z</time>
      </trkpt>
      <trkpt lat="49.48269" lon="3.66889">
        <ele>127.99</ele>
        <time>2021-08-09T04:45:46Z</time>
      </trkpt>
      <trkpt lat="49.48264" lon="3.66892">
        <ele>127.51</ele>
        <time>2021-08-09T04:45:54Z</time>
      </trkpt>
      <trkpt lat="49.48255" lon="3.66898">
        <ele>126.55</ele>
        <time>2021-08-09T04:46:00Z</time>
      </trkpt>
      <trkpt lat="49.48237" lon="3.66909">
        <ele>124.63</ele>
        <time>2021-08-09T04:46:05Z</time>
      </trkpt>
      <trkpt lat="49.48232" lon="3.66913">
        <ele>124.15</ele>
        <time>2021-08-09T04:46:06Z</time>
      </trkpt>
      <trkpt lat="49.48229" lon="3.66917">
        <ele>123.67</ele>
        <time>2021-08-09T04:46:07Z</time>
      </trkpt>
      <trkpt lat="49.48224" lon="3.66925">
        <ele>123.67</ele>
        <time>2021-08-09T04:46:08Z</time>
      </trkpt>
      <trkpt lat="49.482" lon="3.6697">
        <ele>120.3</ele>
        <time>2021-08-09T04:46:14Z</time>
      </trkpt>
      <trkpt lat="49.48187" lon="3.66992">
        <ele>118.86</ele>
        <time>2021-08-09T04:46:17Z</time>
      </trkpt>
      <trkpt lat="49.4818" lon="3.67008">
        <ele>117.9</ele>
        <time>2021-08-09T04:46:19Z</time>
      </trkpt>
      <trkpt lat="49.48175" lon="3.67027">
        <ele>116.94</ele>
        <time>2021-08-09T04:46:21Z</time>
      </trkpt>
      <trkpt lat="49.4816" lon="3.67097">
        <ele>114.53</ele>
        <time>2021-08-09T04:46:28Z</time>
      </trkpt>
      <trkpt lat="49.48149" lon="3.67187">
        <ele>112.61</ele>
        <time>2021-08-09T04:46:37Z</time>
      </trkpt>
      <trkpt lat="49.4813" lon="3.6728">
        <ele>109.73</ele>
        <time>2021-08-09T04:46:47Z</time>
      </trkpt>
      <trkpt lat="49.48113" lon="3.6734">
        <ele>107.81</ele>
        <time>2021-08-09T04:46:54Z</time>
      </trkpt>
      <trkpt lat="49.48093" lon="3.67397">
        <ele>106.84</ele>
        <time>2021-08-09T04:47:01Z</time>
      </trkpt>
      <trkpt lat="49.4807" lon="3.67458">
        <ele>105.4</ele>
        <time>2021-08-09T04:47:09Z</time>
      </trkpt>
      <trkpt lat="49.48049" lon="3.67511">
        <ele>103.96</ele>
        <time>2021-08-09T04:47:17Z</time>
      </trkpt>
      <trkpt lat="49.48029" lon="3.67566">
        <ele>103</ele>
        <time>2021-08-09T04:47:25Z</time>
      </trkpt>
      <trkpt lat="49.48021" lon="3.67587">
        <ele>101.56</ele>
        <time>2021-08-09T04:47:28Z</time>
      </trkpt>
      <trkpt lat="49.48019" lon="3.67595">
        <ele>101.08</ele>
        <time>2021-08-09T04:47:29Z</time>
      </trkpt>
      <trkpt lat="49.48018" lon="3.67604">
        <ele>101.08</ele>
        <time>2021-08-09T04:47:30Z</time>
      </trkpt>
      <trkpt lat="49.48008" lon="3.67681">
        <ele>98.19</ele>
        <time>2021-08-09T04:47:38Z</time>
      </trkpt>
      <trkpt lat="49.48" lon="3.67761">
        <ele>96.27</ele>
        <time>2021-08-09T04:47:46Z</time>
      </trkpt>
      <trkpt lat="49.47995" lon="3.67796">
        <ele>96.27</ele>
        <time>2021-08-09T04:47:50Z</time>
      </trkpt>
      <trkpt lat="49.47976" lon="3.67866">
        <ele>95.79</ele>
        <time>2021-08-09T04:47:59Z</time>
      </trkpt>
      <trkpt lat="49.4796" lon="3.67915">
        <ele>95.79</ele>
        <time>2021-08-09T04:48:07Z</time>
      </trkpt>
      <trkpt lat="49.47947" lon="3.67972">
        <ele>95.79</ele>
        <time>2021-08-09T04:48:17Z</time>
      </trkpt>
      <trkpt lat="49.47939" lon="3.68029">
        <ele>95.79</ele>
        <time>2021-08-09T04:48:26Z</time>
      </trkpt>
      <trkpt lat="49.4793" lon="3.68086">
        <ele>94.83</ele>
        <time>2021-08-09T04:48:35Z</time>
      </trkpt>
      <trkpt lat="49.47928" lon="3.6809">
        <ele>94.35</ele>
        <time>2021-08-09T04:48:36Z</time>
      </trkpt>
      <trkpt lat="49.47925" lon="3.68092">
        <ele>94.35</ele>
        <time>2021-08-09T04:48:37Z</time>
      </trkpt>
      <trkpt lat="49.4792" lon="3.68093">
        <ele>94.35</ele>
        <time>2021-08-09T04:48:38Z</time>
      </trkpt>
      <trkpt lat="49.47918" lon="3.68092">
        <ele>93.87</ele>
        <time>2021-08-09T04:48:39Z</time>
      </trkpt>
      <trkpt lat="49.47913" lon="3.68091">
        <ele>93.39</ele>
        <time>2021-08-09T04:48:40Z</time>
      </trkpt>
      <trkpt lat="49.47881" lon="3.68076">
        <ele>90.98</ele>
        <time>2021-08-09T04:48:46Z</time>
      </trkpt>
      <trkpt lat="49.4784" lon="3.68046">
        <ele>89.06</ele>
        <time>2021-08-09T04:48:52Z</time>
      </trkpt>
      <trkpt lat="49.47788" lon="3.67993">
        <ele>85.21</ele>
        <time>2021-08-09T04:48:59Z</time>
      </trkpt>
      <trkpt lat="49.47738" lon="3.67947">
        <ele>85.69</ele>
        <time>2021-08-09T04:49:06Z</time>
      </trkpt>
      <trkpt lat="49.47726" lon="3.67934">
        <ele>85.69</ele>
        <time>2021-08-09T04:49:08Z</time>
      </trkpt>
      <trkpt lat="49.47722" lon="3.67928">
        <ele>85.69</ele>
        <time>2021-08-09T04:49:09Z</time>
      </trkpt>
      <trkpt lat="49.47706" lon="3.67899">
        <ele>86.66</ele>
        <time>2021-08-09T04:49:13Z</time>
      </trkpt>
      <trkpt lat="49.4768" lon="3.67848">
        <ele>88.1</ele>
        <time>2021-08-09T04:49:21Z</time>
      </trkpt>
      <trkpt lat="49.47658" lon="3.67805">
        <ele>89.54</ele>
        <time>2021-08-09T04:49:30Z</time>
      </trkpt>
      <trkpt lat="49.47639" lon="3.67768">
        <ele>90.98</ele>
        <time>2021-08-09T04:49:39Z</time>
      </trkpt>
      <trkpt lat="49.47616" lon="3.67724">
        <ele>93.39</ele>
        <time>2021-08-09T04:49:50Z</time>
      </trkpt>
      <trkpt lat="49.47602" lon="3.67697">
        <ele>94.35</ele>
        <time>2021-08-09T04:49:57Z</time>
      </trkpt>
      <trkpt lat="49.47586" lon="3.67665">
        <ele>95.31</ele>
        <time>2021-08-09T04:50:05Z</time>
      </trkpt>
      <trkpt lat="49.47562" lon="3.67618">
        <ele>96.27</ele>
        <time>2021-08-09T04:50:16Z</time>
      </trkpt>
      <trkpt lat="49.47551" lon="3.67598">
        <ele>96.27</ele>
        <time>2021-08-09T04:50:20Z</time>
      </trkpt>
      <trkpt lat="49.47548" lon="3.67594">
        <ele>96.27</ele>
        <time>2021-08-09T04:50:21Z</time>
      </trkpt>
      <trkpt lat="49.47544" lon="3.6759">
        <ele>96.27</ele>
        <time>2021-08-09T04:50:22Z</time>
      </trkpt>
      <trkpt lat="49.4754" lon="3.67586">
        <ele>96.27</ele>
        <time>2021-08-09T04:50:23Z</time>
      </trkpt>
      <trkpt lat="49.47536" lon="3.67583">
        <ele>94.83</ele>
        <time>2021-08-09T04:50:24Z</time>
      </trkpt>
      <trkpt lat="49.47531" lon="3.6758">
        <ele>94.83</ele>
        <time>2021-08-09T04:50:25Z</time>
      </trkpt>
      <trkpt lat="49.47522" lon="3.67576">
        <ele>94.35</ele>
        <time>2021-08-09T04:50:27Z</time>
      </trkpt>
      <trkpt lat="49.47518" lon="3.67577">
        <ele>94.35</ele>
        <time>2021-08-09T04:50:28Z</time>
      </trkpt>
      <trkpt lat="49.47513" lon="3.67581">
        <ele>93.39</ele>
        <time>2021-08-09T04:50:29Z</time>
      </trkpt>
      <trkpt lat="49.47511" lon="3.67588">
        <ele>93.39</ele>
        <time>2021-08-09T04:50:30Z</time>
      </trkpt>
      <trkpt lat="49.4751" lon="3.67594">
        <ele>92.9</ele>
        <time>2021-08-09T04:50:31Z</time>
      </trkpt>
      <trkpt lat="49.47509" lon="3.67602">
        <ele>92.9</ele>
        <time>2021-08-09T04:50:32Z</time>
      </trkpt>
      <trkpt lat="49.475" lon="3.67664">
        <ele>90.02</ele>
        <time>2021-08-09T04:50:39Z</time>
      </trkpt>
      <trkpt lat="49.4749" lon="3.67702">
        <ele>89.06</ele>
        <time>2021-08-09T04:50:43Z</time>
      </trkpt>
      <trkpt lat="49.47485" lon="3.67718">
        <ele>89.06</ele>
        <time>2021-08-09T04:50:45Z</time>
      </trkpt>
      <trkpt lat="49.47482" lon="3.67722">
        <ele>88.58</ele>
        <time>2021-08-09T04:50:46Z</time>
      </trkpt>
      <trkpt lat="49.4748" lon="3.67724">
        <ele>88.58</ele>
        <time>2021-08-09T04:50:47Z</time>
      </trkpt>
      <trkpt lat="49.47476" lon="3.67724">
        <ele>88.1</ele>
        <time>2021-08-09T04:50:48Z</time>
      </trkpt>
      <trkpt lat="49.47472" lon="3.67722">
        <ele>87.62</ele>
        <time>2021-08-09T04:50:49Z</time>
      </trkpt>
      <trkpt lat="49.47468" lon="3.67721">
        <ele>87.62</ele>
        <time>2021-08-09T04:50:50Z</time>
      </trkpt>
      <trkpt lat="49.47464" lon="3.6772">
        <ele>86.66</ele>
        <time>2021-08-09T04:50:51Z</time>
      </trkpt>
      <trkpt lat="49.47455" lon="3.67717">
        <ele>86.18</ele>
        <time>2021-08-09T04:50:53Z</time>
      </trkpt>
      <trkpt lat="49.47449" lon="3.67717">
        <ele>85.21</ele>
        <time>2021-08-09T04:50:54Z</time>
      </trkpt>
      <trkpt lat="49.47445" lon="3.67721">
        <ele>84.73</ele>
        <time>2021-08-09T04:50:55Z</time>
      </trkpt>
      <trkpt lat="49.47443" lon="3.67726">
        <ele>84.73</ele>
        <time>2021-08-09T04:50:56Z</time>
      </trkpt>
      <trkpt lat="49.47442" lon="3.67732">
        <ele>84.25</ele>
        <time>2021-08-09T04:50:57Z</time>
      </trkpt>
      <trkpt lat="49.47442" lon="3.67738">
        <ele>84.25</ele>
        <time>2021-08-09T04:50:58Z</time>
      </trkpt>
      <trkpt lat="49.47441" lon="3.67745">
        <ele>84.25</ele>
        <time>2021-08-09T04:50:59Z</time>
      </trkpt>
      <trkpt lat="49.4744" lon="3.6775">
        <ele>84.25</ele>
        <time>2021-08-09T04:51:00Z</time>
      </trkpt>
      <trkpt lat="49.47436" lon="3.67762">
        <ele>84.25</ele>
        <time>2021-08-09T04:51:02Z</time>
      </trkpt>
      <trkpt lat="49.47434" lon="3.67768">
        <ele>84.25</ele>
        <time>2021-08-09T04:51:03Z</time>
      </trkpt>
      <trkpt lat="49.47426" lon="3.6779">
        <ele>83.77</ele>
        <time>2021-08-09T04:51:07Z</time>
      </trkpt>
      <trkpt lat="49.47412" lon="3.67831">
        <ele>84.25</ele>
        <time>2021-08-09T04:51:15Z</time>
      </trkpt>
      <trkpt lat="49.47412" lon="3.67835">
        <ele>84.25</ele>
        <time>2021-08-09T04:51:16Z</time>
      </trkpt>
      <trkpt lat="49.47413" lon="3.67837">
        <ele>84.25</ele>
        <time>2021-08-09T04:51:17Z</time>
      </trkpt>
      <trkpt lat="49.47415" lon="3.67838">
        <ele>84.25</ele>
        <time>2021-08-09T04:51:18Z</time>
      </trkpt>
      <trkpt lat="49.47417" lon="3.6784">
        <ele>84.25</ele>
        <time>2021-08-09T04:51:19Z</time>
      </trkpt>
      <trkpt lat="49.47419" lon="3.67843">
        <ele>84.25</ele>
        <time>2021-08-09T04:51:20Z</time>
      </trkpt>
      <trkpt lat="49.47421" lon="3.67845">
        <ele>83.77</ele>
        <time>2021-08-09T04:51:21Z</time>
      </trkpt>
      <trkpt lat="49.47424" lon="3.67848">
        <ele>83.77</ele>
        <time>2021-08-09T04:51:22Z</time>
      </trkpt>
      <trkpt lat="49.47434" lon="3.67861">
        <ele>83.77</ele>
        <time>2021-08-09T04:51:28Z</time>
      </trkpt>
      <trkpt lat="49.47434" lon="3.67864">
        <ele>83.77</ele>
        <time>2021-08-09T04:51:29Z</time>
      </trkpt>
      <trkpt lat="49.47433" lon="3.67867">
        <ele>83.77</ele>
        <time>2021-08-09T04:51:30Z</time>
      </trkpt>
      <trkpt lat="49.47431" lon="3.6787">
        <ele>83.77</ele>
        <time>2021-08-09T04:51:31Z</time>
      </trkpt>
      <trkpt lat="49.4743" lon="3.67874">
        <ele>83.77</ele>
        <time>2021-08-09T04:51:32Z</time>
      </trkpt>
      <trkpt lat="49.47428" lon="3.67879">
        <ele>83.77</ele>
        <time>2021-08-09T04:51:33Z</time>
      </trkpt>
      <trkpt lat="49.47426" lon="3.67883">
        <ele>83.77</ele>
        <time>2021-08-09T04:51:34Z</time>
      </trkpt>
      <trkpt lat="49.47425" lon="3.67888">
        <ele>83.77</ele>
        <time>2021-08-09T04:51:35Z</time>
      </trkpt>
      <trkpt lat="49.47422" lon="3.67923">
        <ele>83.77</ele>
        <time>2021-08-09T04:51:42Z</time>
      </trkpt>
      <trkpt lat="49.47422" lon="3.67951">
        <ele>83.77</ele>
        <time>2021-08-09T04:51:48Z</time>
      </trkpt>
      <trkpt lat="49.4742" lon="3.67954">
        <ele>83.77</ele>
        <time>2021-08-09T04:51:49Z</time>
      </trkpt>
      <trkpt lat="49.47417" lon="3.67956">
        <ele>84.73</ele>
        <time>2021-08-09T04:51:50Z</time>
      </trkpt>
      <trkpt lat="49.47415" lon="3.67957">
        <ele>84.73</ele>
        <time>2021-08-09T04:51:51Z</time>
      </trkpt>
      <trkpt lat="49.47413" lon="3.67958">
        <ele>84.73</ele>
        <time>2021-08-09T04:51:52Z</time>
      </trkpt>
      <trkpt lat="49.47411" lon="3.67957">
        <ele>85.21</ele>
        <time>2021-08-09T04:51:53Z</time>
      </trkpt>
      <trkpt lat="49.47409" lon="3.67957">
        <ele>85.21</ele>
        <time>2021-08-09T04:51:54Z</time>
      </trkpt>
      <trkpt lat="49.47407" lon="3.67956">
        <ele>85.69</ele>
        <time>2021-08-09T04:51:55Z</time>
      </trkpt>
      <trkpt lat="49.47391" lon="3.6796">
        <ele>86.66</ele>
        <time>2021-08-09T04:52:03Z</time>
      </trkpt>
      <trkpt lat="49.47382" lon="3.67968">
        <ele>88.1</ele>
        <time>2021-08-09T04:52:10Z</time>
      </trkpt>
      <trkpt lat="49.47378" lon="3.67976">
        <ele>89.06</ele>
        <time>2021-08-09T04:52:18Z</time>
      </trkpt>
      <trkpt lat="49.47377" lon="3.6798">
        <ele>89.54</ele>
        <time>2021-08-09T04:52:31Z</time>
      </trkpt>
      <trkpt lat="49.47379" lon="3.6798">
        <ele>89.54</ele>
        <time>2021-08-09T04:52:50Z</time>
      </trkpt>
      <trkpt lat="49.4738" lon="3.67978">
        <ele>89.54</ele>
        <time>2021-08-09T04:53:09Z</time>
      </trkpt>
      <trkpt lat="49.47378" lon="3.6798">
        <ele>89.54</ele>
        <time>2021-08-09T04:53:20Z</time>
      </trkpt>
      <trkpt lat="49.47372" lon="3.67988">
        <ele>90.02</ele>
        <time>2021-08-09T04:53:27Z</time>
      </trkpt>
      <trkpt lat="49.47367" lon="3.67993">
        <ele>90.98</ele>
        <time>2021-08-09T04:53:32Z</time>
      </trkpt>
      <trkpt lat="49.47366" lon="3.67995">
        <ele>90.98</ele>
        <time>2021-08-09T04:53:33Z</time>
      </trkpt>
      <trkpt lat="49.47365" lon="3.67997">
        <ele>90.98</ele>
        <time>2021-08-09T04:53:34Z</time>
      </trkpt>
      <trkpt lat="49.47364" lon="3.67998">
        <ele>91.46</ele>
        <time>2021-08-09T04:53:35Z</time>
      </trkpt>
      <trkpt lat="49.47363" lon="3.68">
        <ele>91.46</ele>
        <time>2021-08-09T04:53:36Z</time>
      </trkpt>
      <trkpt lat="49.47361" lon="3.68001">
        <ele>91.46</ele>
        <time>2021-08-09T04:53:37Z</time>
      </trkpt>
      <trkpt lat="49.4736" lon="3.68005">
        <ele>91.94</ele>
        <time>2021-08-09T04:53:39Z</time>
      </trkpt>
      <trkpt lat="49.47359" lon="3.68007">
        <ele>92.42</ele>
        <time>2021-08-09T04:53:40Z</time>
      </trkpt>
      <trkpt lat="49.47358" lon="3.6801">
        <ele>92.42</ele>
        <time>2021-08-09T04:53:41Z</time>
      </trkpt>
      <trkpt lat="49.47357" lon="3.68013">
        <ele>92.9</ele>
        <time>2021-08-09T04:53:42Z</time>
      </trkpt>
      <trkpt lat="49.47356" lon="3.68015">
        <ele>92.9</ele>
        <time>2021-08-09T04:53:43Z</time>
      </trkpt>
      <trkpt lat="49.47354" lon="3.68018">
        <ele>93.39</ele>
        <time>2021-08-09T04:53:44Z</time>
      </trkpt>
      <trkpt lat="49.47353" lon="3.6802">
        <ele>93.39</ele>
        <time>2021-08-09T04:53:45Z</time>
      </trkpt>
      <trkpt lat="49.47352" lon="3.68022">
        <ele>93.87</ele>
        <time>2021-08-09T04:53:46Z</time>
      </trkpt>
      <trkpt lat="49.47348" lon="3.68026">
        <ele>93.87</ele>
        <time>2021-08-09T04:53:52Z</time>
      </trkpt>
      <trkpt lat="49.47345" lon="3.68033">
        <ele>93.87</ele>
        <time>2021-08-09T04:54:05Z</time>
      </trkpt>
      <trkpt lat="49.47344" lon="3.68035">
        <ele>93.87</ele>
        <time>2021-08-09T04:54:06Z</time>
      </trkpt>
      <trkpt lat="49.47344" lon="3.68036">
        <ele>93.87</ele>
        <time>2021-08-09T04:54:07Z</time>
      </trkpt>
      <trkpt lat="49.47343" lon="3.68038">
        <ele>93.87</ele>
        <time>2021-08-09T04:54:08Z</time>
      </trkpt>
      <trkpt lat="49.47341" lon="3.68041">
        <ele>94.35</ele>
        <time>2021-08-09T04:54:09Z</time>
      </trkpt>
      <trkpt lat="49.4734" lon="3.68043">
        <ele>94.35</ele>
        <time>2021-08-09T04:54:10Z</time>
      </trkpt>
      <trkpt lat="49.47339" lon="3.68046">
        <ele>94.35</ele>
        <time>2021-08-09T04:54:11Z</time>
      </trkpt>
      <trkpt lat="49.47338" lon="3.68049">
        <ele>94.35</ele>
        <time>2021-08-09T04:54:12Z</time>
      </trkpt>
      <trkpt lat="49.47329" lon="3.68068">
        <ele>94.35</ele>
        <time>2021-08-09T04:54:18Z</time>
      </trkpt>
      <trkpt lat="49.47316" lon="3.68094">
        <ele>94.35</ele>
        <time>2021-08-09T04:54:26Z</time>
      </trkpt>
      <trkpt lat="49.47299" lon="3.68132">
        <ele>94.35</ele>
        <time>2021-08-09T04:54:33Z</time>
      </trkpt>
      <trkpt lat="49.47299" lon="3.68171">
        <ele>94.83</ele>
        <time>2021-08-09T04:54:40Z</time>
      </trkpt>
      <trkpt lat="49.4729" lon="3.68204">
        <ele>96.27</ele>
        <time>2021-08-09T04:54:49Z</time>
      </trkpt>
      <trkpt lat="49.47281" lon="3.68224">
        <ele>96.75</ele>
        <time>2021-08-09T04:54:55Z</time>
      </trkpt>
      <trkpt lat="49.47259" lon="3.68246">
        <ele>98.19</ele>
        <time>2021-08-09T04:55:04Z</time>
      </trkpt>
      <trkpt lat="49.47243" lon="3.68247">
        <ele>99.15</ele>
        <time>2021-08-09T04:55:11Z</time>
      </trkpt>
      <trkpt lat="49.47233" lon="3.68248">
        <ele>99.63</ele>
        <time>2021-08-09T04:55:16Z</time>
      </trkpt>
      <trkpt lat="49.47231" lon="3.68249">
        <ele>100.11</ele>
        <time>2021-08-09T04:55:17Z</time>
      </trkpt>
      <trkpt lat="49.4723" lon="3.68251">
        <ele>100.11</ele>
        <time>2021-08-09T04:55:18Z</time>
      </trkpt>
      <trkpt lat="49.47228" lon="3.68253">
        <ele>100.11</ele>
        <time>2021-08-09T04:55:19Z</time>
      </trkpt>
      <trkpt lat="49.47227" lon="3.68255">
        <ele>100.11</ele>
        <time>2021-08-09T04:55:20Z</time>
      </trkpt>
      <trkpt lat="49.47226" lon="3.68258">
        <ele>100.11</ele>
        <time>2021-08-09T04:55:21Z</time>
      </trkpt>
      <trkpt lat="49.47225" lon="3.68261">
        <ele>100.6</ele>
        <time>2021-08-09T04:55:22Z</time>
      </trkpt>
      <trkpt lat="49.47224" lon="3.68263">
        <ele>100.6</ele>
        <time>2021-08-09T04:55:23Z</time>
      </trkpt>
      <trkpt lat="49.47223" lon="3.68265">
        <ele>100.6</ele>
        <time>2021-08-09T04:55:24Z</time>
      </trkpt>
      <trkpt lat="49.47222" lon="3.68267">
        <ele>101.08</ele>
        <time>2021-08-09T04:55:25Z</time>
      </trkpt>
      <trkpt lat="49.47221" lon="3.68269">
        <ele>101.08</ele>
        <time>2021-08-09T04:55:26Z</time>
      </trkpt>
      <trkpt lat="49.47219" lon="3.6827">
        <ele>101.08</ele>
        <time>2021-08-09T04:55:27Z</time>
      </trkpt>
      <trkpt lat="49.47217" lon="3.68272">
        <ele>101.08</ele>
        <time>2021-08-09T04:55:28Z</time>
      </trkpt>
      <trkpt lat="49.47216" lon="3.68273">
        <ele>101.08</ele>
        <time>2021-08-09T04:55:29Z</time>
      </trkpt>
      <trkpt lat="49.47214" lon="3.68274">
        <ele>101.08</ele>
        <time>2021-08-09T04:55:30Z</time>
      </trkpt>
      <trkpt lat="49.47213" lon="3.68275">
        <ele>102.04</ele>
        <time>2021-08-09T04:55:31Z</time>
      </trkpt>
      <trkpt lat="49.47197" lon="3.68284">
        <ele>103</ele>
        <time>2021-08-09T04:55:41Z</time>
      </trkpt>
      <trkpt lat="49.47181" lon="3.68296">
        <ele>104.92</ele>
        <time>2021-08-09T04:55:52Z</time>
      </trkpt>
      <trkpt lat="49.47168" lon="3.68303">
        <ele>106.84</ele>
        <time>2021-08-09T04:56:01Z</time>
      </trkpt>
      <trkpt lat="49.47153" lon="3.68303">
        <ele>108.29</ele>
        <time>2021-08-09T04:56:11Z</time>
      </trkpt>
      <trkpt lat="49.47138" lon="3.68299">
        <ele>110.21</ele>
        <time>2021-08-09T04:56:20Z</time>
      </trkpt>
      <trkpt lat="49.47122" lon="3.68291">
        <ele>111.65</ele>
        <time>2021-08-09T04:56:30Z</time>
      </trkpt>
      <trkpt lat="49.47103" lon="3.68282">
        <ele>112.61</ele>
        <time>2021-08-09T04:56:39Z</time>
      </trkpt>
      <trkpt lat="49.47075" lon="3.68271">
        <ele>111.17</ele>
        <time>2021-08-09T04:56:47Z</time>
      </trkpt>
      <trkpt lat="49.4707" lon="3.68269">
        <ele>111.17</ele>
        <time>2021-08-09T04:56:48Z</time>
      </trkpt>
      <trkpt lat="49.47061" lon="3.68267">
        <ele>110.69</ele>
        <time>2021-08-09T04:56:50Z</time>
      </trkpt>
      <trkpt lat="49.47036" lon="3.68264">
        <ele>110.69</ele>
        <time>2021-08-09T04:56:56Z</time>
      </trkpt>
      <trkpt lat="49.47007" lon="3.68272">
        <ele>110.69</ele>
        <time>2021-08-09T04:57:04Z</time>
      </trkpt>
      <trkpt lat="49.46978" lon="3.68289">
        <ele>110.69</ele>
        <time>2021-08-09T04:57:13Z</time>
      </trkpt>
      <trkpt lat="49.4697" lon="3.68296">
        <ele>109.73</ele>
        <time>2021-08-09T04:57:15Z</time>
      </trkpt>
      <trkpt lat="49.46953" lon="3.68306">
        <ele>107.81</ele>
        <time>2021-08-09T04:57:18Z</time>
      </trkpt>
      <trkpt lat="49.46947" lon="3.68308">
        <ele>106.84</ele>
        <time>2021-08-09T04:57:19Z</time>
      </trkpt>
      <trkpt lat="49.4694" lon="3.6831">
        <ele>106.36</ele>
        <time>2021-08-09T04:57:20Z</time>
      </trkpt>
      <trkpt lat="49.46933" lon="3.68311">
        <ele>105.88</ele>
        <time>2021-08-09T04:57:21Z</time>
      </trkpt>
      <trkpt lat="49.46926" lon="3.68312">
        <ele>105.88</ele>
        <time>2021-08-09T04:57:22Z</time>
      </trkpt>
      <trkpt lat="49.46887" lon="3.68313">
        <ele>103.48</ele>
        <time>2021-08-09T04:57:28Z</time>
      </trkpt>
      <trkpt lat="49.46877" lon="3.68313">
        <ele>103.48</ele>
        <time>2021-08-09T04:57:30Z</time>
      </trkpt>
      <trkpt lat="49.46855" lon="3.68314">
        <ele>103</ele>
        <time>2021-08-09T04:57:35Z</time>
      </trkpt>
      <trkpt lat="49.4682" lon="3.68316">
        <ele>101.08</ele>
        <time>2021-08-09T04:57:42Z</time>
      </trkpt>
      <trkpt lat="49.4681" lon="3.6832">
        <ele>100.6</ele>
        <time>2021-08-09T04:57:44Z</time>
      </trkpt>
      <trkpt lat="49.46801" lon="3.68325">
        <ele>100.6</ele>
        <time>2021-08-09T04:57:46Z</time>
      </trkpt>
      <trkpt lat="49.46797" lon="3.68329">
        <ele>100.6</ele>
        <time>2021-08-09T04:57:47Z</time>
      </trkpt>
      <trkpt lat="49.46784" lon="3.68342">
        <ele>100.6</ele>
        <time>2021-08-09T04:57:52Z</time>
      </trkpt>
      <trkpt lat="49.4677" lon="3.68358">
        <ele>101.56</ele>
        <time>2021-08-09T04:57:58Z</time>
      </trkpt>
      <trkpt lat="49.46755" lon="3.68385">
        <ele>102.04</ele>
        <time>2021-08-09T04:58:05Z</time>
      </trkpt>
      <trkpt lat="49.46753" lon="3.68406">
        <ele>103</ele>
        <time>2021-08-09T04:58:10Z</time>
      </trkpt>
      <trkpt lat="49.46752" lon="3.68424">
        <ele>104.44</ele>
        <time>2021-08-09T04:58:17Z</time>
      </trkpt>
      <trkpt lat="49.46751" lon="3.68433">
        <ele>104.92</ele>
        <time>2021-08-09T04:58:21Z</time>
      </trkpt>
      <trkpt lat="49.4675" lon="3.68435">
        <ele>105.4</ele>
        <time>2021-08-09T04:58:22Z</time>
      </trkpt>
      <trkpt lat="49.4675" lon="3.68437">
        <ele>105.4</ele>
        <time>2021-08-09T04:58:23Z</time>
      </trkpt>
      <trkpt lat="49.4675" lon="3.68439">
        <ele>105.88</ele>
        <time>2021-08-09T04:58:24Z</time>
      </trkpt>
      <trkpt lat="49.46746" lon="3.68455">
        <ele>107.32</ele>
        <time>2021-08-09T04:58:32Z</time>
      </trkpt>
      <trkpt lat="49.46741" lon="3.68463">
        <ele>108.77</ele>
        <time>2021-08-09T04:58:38Z</time>
      </trkpt>
      <trkpt lat="49.46733" lon="3.68472">
        <ele>110.69</ele>
        <time>2021-08-09T04:58:45Z</time>
      </trkpt>
      <trkpt lat="49.46725" lon="3.6848">
        <ele>113.09</ele>
        <time>2021-08-09T04:58:52Z</time>
      </trkpt>
      <trkpt lat="49.46715" lon="3.68487">
        <ele>115.5</ele>
        <time>2021-08-09T04:59:00Z</time>
      </trkpt>
      <trkpt lat="49.46711" lon="3.68489">
        <ele>115.98</ele>
        <time>2021-08-09T04:59:03Z</time>
      </trkpt>
      <trkpt lat="49.467" lon="3.68488">
        <ele>116.94</ele>
        <time>2021-08-09T04:59:09Z</time>
      </trkpt>
      <trkpt lat="49.46692" lon="3.68491">
        <ele>116.94</ele>
        <time>2021-08-09T04:59:12Z</time>
      </trkpt>
      <trkpt lat="49.4669" lon="3.68493">
        <ele>116.94</ele>
        <time>2021-08-09T04:59:13Z</time>
      </trkpt>
      <trkpt lat="49.46689" lon="3.68495">
        <ele>116.94</ele>
        <time>2021-08-09T04:59:14Z</time>
      </trkpt>
      <trkpt lat="49.46674" lon="3.68518">
        <ele>117.9</ele>
        <time>2021-08-09T04:59:23Z</time>
      </trkpt>
      <trkpt lat="49.46661" lon="3.68539">
        <ele>118.86</ele>
        <time>2021-08-09T04:59:31Z</time>
      </trkpt>
      <trkpt lat="49.46654" lon="3.68554">
        <ele>119.34</ele>
        <time>2021-08-09T04:59:36Z</time>
      </trkpt>
      <trkpt lat="49.46653" lon="3.68559">
        <ele>119.34</ele>
        <time>2021-08-09T04:59:38Z</time>
      </trkpt>
      <trkpt lat="49.46652" lon="3.68561">
        <ele>119.82</ele>
        <time>2021-08-09T04:59:39Z</time>
      </trkpt>
      <trkpt lat="49.46643" lon="3.6858">
        <ele>121.74</ele>
        <time>2021-08-09T04:59:47Z</time>
      </trkpt>
      <trkpt lat="49.46628" lon="3.68604">
        <ele>123.19</ele>
        <time>2021-08-09T04:59:56Z</time>
      </trkpt>
      <trkpt lat="49.46627" lon="3.68607">
        <ele>123.19</ele>
        <time>2021-08-09T04:59:57Z</time>
      </trkpt>
      <trkpt lat="49.46626" lon="3.6861">
        <ele>123.19</ele>
        <time>2021-08-09T04:59:58Z</time>
      </trkpt>
      <trkpt lat="49.46624" lon="3.68613">
        <ele>123.19</ele>
        <time>2021-08-09T04:59:59Z</time>
      </trkpt>
      <trkpt lat="49.46623" lon="3.68615">
        <ele>124.15</ele>
        <time>2021-08-09T05:00:00Z</time>
      </trkpt>
      <trkpt lat="49.46621" lon="3.68619">
        <ele>123.67</ele>
        <time>2021-08-09T05:00:01Z</time>
      </trkpt>
      <trkpt lat="49.46607" lon="3.68656">
        <ele>123.67</ele>
        <time>2021-08-09T05:00:11Z</time>
      </trkpt>
      <trkpt lat="49.46602" lon="3.68674">
        <ele>124.15</ele>
        <time>2021-08-09T05:00:16Z</time>
      </trkpt>
      <trkpt lat="49.46603" lon="3.68675">
        <ele>124.15</ele>
        <time>2021-08-09T05:00:17Z</time>
      </trkpt>
      <trkpt lat="49.46604" lon="3.68677">
        <ele>124.15</ele>
        <time>2021-08-09T05:00:18Z</time>
      </trkpt>
      <trkpt lat="49.46605" lon="3.6868">
        <ele>124.15</ele>
        <time>2021-08-09T05:00:19Z</time>
      </trkpt>
      <trkpt lat="49.46605" lon="3.68683">
        <ele>125.11</ele>
        <time>2021-08-09T05:00:20Z</time>
      </trkpt>
      <trkpt lat="49.46605" lon="3.68685">
        <ele>125.11</ele>
        <time>2021-08-09T05:00:21Z</time>
      </trkpt>
      <trkpt lat="49.46604" lon="3.68687">
        <ele>125.11</ele>
        <time>2021-08-09T05:00:22Z</time>
      </trkpt>
      <trkpt lat="49.46603" lon="3.6869">
        <ele>125.11</ele>
        <time>2021-08-09T05:00:23Z</time>
      </trkpt>
      <trkpt lat="49.46601" lon="3.68693">
        <ele>125.11</ele>
        <time>2021-08-09T05:00:24Z</time>
      </trkpt>
      <trkpt lat="49.46592" lon="3.68722">
        <ele>123.67</ele>
        <time>2021-08-09T05:00:30Z</time>
      </trkpt>
      <trkpt lat="49.46589" lon="3.68735">
        <ele>122.22</ele>
        <time>2021-08-09T05:00:32Z</time>
      </trkpt>
      <trkpt lat="49.46582" lon="3.68761">
        <ele>120.3</ele>
        <time>2021-08-09T05:00:35Z</time>
      </trkpt>
      <trkpt lat="49.46574" lon="3.68792">
        <ele>116.46</ele>
        <time>2021-08-09T05:00:38Z</time>
      </trkpt>
      <trkpt lat="49.46569" lon="3.68826">
        <ele>115.01</ele>
        <time>2021-08-09T05:00:41Z</time>
      </trkpt>
      <trkpt lat="49.46567" lon="3.68846">
        <ele>113.57</ele>
        <time>2021-08-09T05:00:43Z</time>
      </trkpt>
      <trkpt lat="49.46567" lon="3.68882">
        <ele>110.69</ele>
        <time>2021-08-09T05:00:46Z</time>
      </trkpt>
      <trkpt lat="49.46568" lon="3.68894">
        <ele>109.73</ele>
        <time>2021-08-09T05:00:47Z</time>
      </trkpt>
      <trkpt lat="49.46572" lon="3.68934">
        <ele>106.36</ele>
        <time>2021-08-09T05:00:50Z</time>
      </trkpt>
      <trkpt lat="49.46578" lon="3.68975">
        <ele>103.48</ele>
        <time>2021-08-09T05:00:53Z</time>
      </trkpt>
      <trkpt lat="49.46584" lon="3.69001">
        <ele>102.04</ele>
        <time>2021-08-09T05:00:55Z</time>
      </trkpt>
      <trkpt lat="49.46597" lon="3.69075">
        <ele>100.6</ele>
        <time>2021-08-09T05:01:01Z</time>
      </trkpt>
      <trkpt lat="49.466" lon="3.69095">
        <ele>100.6</ele>
        <time>2021-08-09T05:01:03Z</time>
      </trkpt>
      <trkpt lat="49.46599" lon="3.69102">
        <ele>101.08</ele>
        <time>2021-08-09T05:01:04Z</time>
      </trkpt>
      <trkpt lat="49.46598" lon="3.69109">
        <ele>101.08</ele>
        <time>2021-08-09T05:01:05Z</time>
      </trkpt>
      <trkpt lat="49.46597" lon="3.69115">
        <ele>101.08</ele>
        <time>2021-08-09T05:01:06Z</time>
      </trkpt>
      <trkpt lat="49.46596" lon="3.69121">
        <ele>101.08</ele>
        <time>2021-08-09T05:01:07Z</time>
      </trkpt>
      <trkpt lat="49.46594" lon="3.69126">
        <ele>101.08</ele>
        <time>2021-08-09T05:01:08Z</time>
      </trkpt>
      <trkpt lat="49.46592" lon="3.69131">
        <ele>101.08</ele>
        <time>2021-08-09T05:01:09Z</time>
      </trkpt>
      <trkpt lat="49.46592" lon="3.69136">
        <ele>100.6</ele>
        <time>2021-08-09T05:01:10Z</time>
      </trkpt>
      <trkpt lat="49.46592" lon="3.69141">
        <ele>100.6</ele>
        <time>2021-08-09T05:01:11Z</time>
      </trkpt>
      <trkpt lat="49.46593" lon="3.69146">
        <ele>100.6</ele>
        <time>2021-08-09T05:01:12Z</time>
      </trkpt>
      <trkpt lat="49.46606" lon="3.69198">
        <ele>100.6</ele>
        <time>2021-08-09T05:01:22Z</time>
      </trkpt>
      <trkpt lat="49.46608" lon="3.6925">
        <ele>100.6</ele>
        <time>2021-08-09T05:01:31Z</time>
      </trkpt>
      <trkpt lat="49.46606" lon="3.69291">
        <ele>102.52</ele>
        <time>2021-08-09T05:01:39Z</time>
      </trkpt>
      <trkpt lat="49.46599" lon="3.69331">
        <ele>103.48</ele>
        <time>2021-08-09T05:01:47Z</time>
      </trkpt>
      <trkpt lat="49.46592" lon="3.69379">
        <ele>104.44</ele>
        <time>2021-08-09T05:01:57Z</time>
      </trkpt>
      <trkpt lat="49.46589" lon="3.6939">
        <ele>104.44</ele>
        <time>2021-08-09T05:02:01Z</time>
      </trkpt>
      <trkpt lat="49.46587" lon="3.69393">
        <ele>104.44</ele>
        <time>2021-08-09T05:02:02Z</time>
      </trkpt>
      <trkpt lat="49.46585" lon="3.69393">
        <ele>104.44</ele>
        <time>2021-08-09T05:02:03Z</time>
      </trkpt>
      <trkpt lat="49.46582" lon="3.69394">
        <ele>104.44</ele>
        <time>2021-08-09T05:02:04Z</time>
      </trkpt>
      <trkpt lat="49.46579" lon="3.69395">
        <ele>104.44</ele>
        <time>2021-08-09T05:02:05Z</time>
      </trkpt>
      <trkpt lat="49.46575" lon="3.69398">
        <ele>104.44</ele>
        <time>2021-08-09T05:02:06Z</time>
      </trkpt>
      <trkpt lat="49.46571" lon="3.69402">
        <ele>102.52</ele>
        <time>2021-08-09T05:02:07Z</time>
      </trkpt>
      <trkpt lat="49.46567" lon="3.69405">
        <ele>101.56</ele>
        <time>2021-08-09T05:02:08Z</time>
      </trkpt>
      <trkpt lat="49.46563" lon="3.69411">
        <ele>101.08</ele>
        <time>2021-08-09T05:02:09Z</time>
      </trkpt>
      <trkpt lat="49.46558" lon="3.69418">
        <ele>100.6</ele>
        <time>2021-08-09T05:02:10Z</time>
      </trkpt>
      <trkpt lat="49.4653" lon="3.6947">
        <ele>97.23</ele>
        <time>2021-08-09T05:02:16Z</time>
      </trkpt>
      <trkpt lat="49.4649" lon="3.6956">
        <ele>94.83</ele>
        <time>2021-08-09T05:02:25Z</time>
      </trkpt>
      <trkpt lat="49.46475" lon="3.69632">
        <ele>94.83</ele>
        <time>2021-08-09T05:02:32Z</time>
      </trkpt>
      <trkpt lat="49.46471" lon="3.69658">
        <ele>94.83</ele>
        <time>2021-08-09T05:02:35Z</time>
      </trkpt>
      <trkpt lat="49.46464" lon="3.69689">
        <ele>94.83</ele>
        <time>2021-08-09T05:02:39Z</time>
      </trkpt>
      <trkpt lat="49.46461" lon="3.69696">
        <ele>94.35</ele>
        <time>2021-08-09T05:02:40Z</time>
      </trkpt>
      <trkpt lat="49.46456" lon="3.69701">
        <ele>94.35</ele>
        <time>2021-08-09T05:02:41Z</time>
      </trkpt>
      <trkpt lat="49.46451" lon="3.69705">
        <ele>94.35</ele>
        <time>2021-08-09T05:02:42Z</time>
      </trkpt>
      <trkpt lat="49.46446" lon="3.69709">
        <ele>94.35</ele>
        <time>2021-08-09T05:02:43Z</time>
      </trkpt>
      <trkpt lat="49.46397" lon="3.6974">
        <ele>92.42</ele>
        <time>2021-08-09T05:02:52Z</time>
      </trkpt>
      <trkpt lat="49.46382" lon="3.6975">
        <ele>91.46</ele>
        <time>2021-08-09T05:02:55Z</time>
      </trkpt>
      <trkpt lat="49.46378" lon="3.6975">
        <ele>91.94</ele>
        <time>2021-08-09T05:02:56Z</time>
      </trkpt>
      <trkpt lat="49.46374" lon="3.69747">
        <ele>91.94</ele>
        <time>2021-08-09T05:02:57Z</time>
      </trkpt>
      <trkpt lat="49.46372" lon="3.69743">
        <ele>91.94</ele>
        <time>2021-08-09T05:02:58Z</time>
      </trkpt>
      <trkpt lat="49.4637" lon="3.69738">
        <ele>91.94</ele>
        <time>2021-08-09T05:02:59Z</time>
      </trkpt>
      <trkpt lat="49.46369" lon="3.69731">
        <ele>90.98</ele>
        <time>2021-08-09T05:03:00Z</time>
      </trkpt>
      <trkpt lat="49.46368" lon="3.69725">
        <ele>90.98</ele>
        <time>2021-08-09T05:03:01Z</time>
      </trkpt>
      <trkpt lat="49.46368" lon="3.69718">
        <ele>90.98</ele>
        <time>2021-08-09T05:03:02Z</time>
      </trkpt>
      <trkpt lat="49.46368" lon="3.69711">
        <ele>90.98</ele>
        <time>2021-08-09T05:03:03Z</time>
      </trkpt>
      <trkpt lat="49.46367" lon="3.69705">
        <ele>90.98</ele>
        <time>2021-08-09T05:03:04Z</time>
      </trkpt>
      <trkpt lat="49.46363" lon="3.69686">
        <ele>90.98</ele>
        <time>2021-08-09T05:03:07Z</time>
      </trkpt>
      <trkpt lat="49.46363" lon="3.6968">
        <ele>90.98</ele>
        <time>2021-08-09T05:03:08Z</time>
      </trkpt>
      <trkpt lat="49.46361" lon="3.69656">
        <ele>90.98</ele>
        <time>2021-08-09T05:03:12Z</time>
      </trkpt>
      <trkpt lat="49.46358" lon="3.69653">
        <ele>90.98</ele>
        <time>2021-08-09T05:03:13Z</time>
      </trkpt>
      <trkpt lat="49.46354" lon="3.69652">
        <ele>90.02</ele>
        <time>2021-08-09T05:03:14Z</time>
      </trkpt>
      <trkpt lat="49.46349" lon="3.69651">
        <ele>90.02</ele>
        <time>2021-08-09T05:03:15Z</time>
      </trkpt>
      <trkpt lat="49.46344" lon="3.69652">
        <ele>89.54</ele>
        <time>2021-08-09T05:03:16Z</time>
      </trkpt>
      <trkpt lat="49.46339" lon="3.69653">
        <ele>89.54</ele>
        <time>2021-08-09T05:03:17Z</time>
      </trkpt>
      <trkpt lat="49.463" lon="3.69656">
        <ele>86.66</ele>
        <time>2021-08-09T05:03:23Z</time>
      </trkpt>
      <trkpt lat="49.46279" lon="3.69657">
        <ele>85.21</ele>
        <time>2021-08-09T05:03:26Z</time>
      </trkpt>
      <trkpt lat="49.46213" lon="3.69665">
        <ele>83.29</ele>
        <time>2021-08-09T05:03:35Z</time>
      </trkpt>
      <trkpt lat="49.46163" lon="3.69672">
        <ele>83.29</ele>
        <time>2021-08-09T05:03:43Z</time>
      </trkpt>
      <trkpt lat="49.46115" lon="3.69676">
        <ele>83.29</ele>
        <time>2021-08-09T05:03:52Z</time>
      </trkpt>
      <trkpt lat="49.46109" lon="3.69677">
        <ele>83.29</ele>
        <time>2021-08-09T05:03:53Z</time>
      </trkpt>
      <trkpt lat="49.46089" lon="3.69684">
        <ele>83.29</ele>
        <time>2021-08-09T05:03:57Z</time>
      </trkpt>
      <trkpt lat="49.46079" lon="3.69685">
        <ele>83.29</ele>
        <time>2021-08-09T05:03:59Z</time>
      </trkpt>
      <trkpt lat="49.46074" lon="3.69684">
        <ele>83.29</ele>
        <time>2021-08-09T05:04:00Z</time>
      </trkpt>
      <trkpt lat="49.4606" lon="3.69677">
        <ele>83.29</ele>
        <time>2021-08-09T05:04:03Z</time>
      </trkpt>
      <trkpt lat="49.46044" lon="3.69665">
        <ele>84.25</ele>
        <time>2021-08-09T05:04:07Z</time>
      </trkpt>
      <trkpt lat="49.46018" lon="3.69646">
        <ele>84.25</ele>
        <time>2021-08-09T05:04:14Z</time>
      </trkpt>
      <trkpt lat="49.46002" lon="3.69633">
        <ele>84.25</ele>
        <time>2021-08-09T05:04:18Z</time>
      </trkpt>
      <trkpt lat="49.45985" lon="3.69612">
        <ele>84.73</ele>
        <time>2021-08-09T05:04:24Z</time>
      </trkpt>
      <trkpt lat="49.4596" lon="3.69586">
        <ele>84.73</ele>
        <time>2021-08-09T05:04:31Z</time>
      </trkpt>
      <trkpt lat="49.45931" lon="3.69561">
        <ele>85.69</ele>
        <time>2021-08-09T05:04:38Z</time>
      </trkpt>
      <trkpt lat="49.4591" lon="3.69543">
        <ele>85.69</ele>
        <time>2021-08-09T05:04:43Z</time>
      </trkpt>
      <trkpt lat="49.45881" lon="3.69522">
        <ele>84.73</ele>
        <time>2021-08-09T05:04:49Z</time>
      </trkpt>
      <trkpt lat="49.45872" lon="3.69515">
        <ele>84.25</ele>
        <time>2021-08-09T05:04:51Z</time>
      </trkpt>
      <trkpt lat="49.45838" lon="3.69493">
        <ele>83.77</ele>
        <time>2021-08-09T05:04:58Z</time>
      </trkpt>
      <trkpt lat="49.45834" lon="3.69491">
        <ele>83.77</ele>
        <time>2021-08-09T05:04:59Z</time>
      </trkpt>
      <trkpt lat="49.45825" lon="3.69486">
        <ele>83.77</ele>
        <time>2021-08-09T05:05:01Z</time>
      </trkpt>
      <trkpt lat="49.4582" lon="3.69484">
        <ele>83.77</ele>
        <time>2021-08-09T05:05:02Z</time>
      </trkpt>
      <trkpt lat="49.45815" lon="3.69482">
        <ele>83.77</ele>
        <time>2021-08-09T05:05:03Z</time>
      </trkpt>
      <trkpt lat="49.45806" lon="3.69478">
        <ele>83.77</ele>
        <time>2021-08-09T05:05:05Z</time>
      </trkpt>
      <trkpt lat="49.45801" lon="3.69475">
        <ele>83.77</ele>
        <time>2021-08-09T05:05:06Z</time>
      </trkpt>
      <trkpt lat="49.45798" lon="3.69472">
        <ele>83.77</ele>
        <time>2021-08-09T05:05:07Z</time>
      </trkpt>
      <trkpt lat="49.45794" lon="3.6947">
        <ele>83.77</ele>
        <time>2021-08-09T05:05:08Z</time>
      </trkpt>
      <trkpt lat="49.4579" lon="3.69468">
        <ele>83.77</ele>
        <time>2021-08-09T05:05:09Z</time>
      </trkpt>
      <trkpt lat="49.45786" lon="3.69466">
        <ele>84.25</ele>
        <time>2021-08-09T05:05:10Z</time>
      </trkpt>
      <trkpt lat="49.45764" lon="3.69456">
        <ele>84.25</ele>
        <time>2021-08-09T05:05:16Z</time>
      </trkpt>
      <trkpt lat="49.45757" lon="3.69452">
        <ele>85.21</ele>
        <time>2021-08-09T05:05:18Z</time>
      </trkpt>
      <trkpt lat="49.45731" lon="3.6944">
        <ele>85.69</ele>
        <time>2021-08-09T05:05:25Z</time>
      </trkpt>
      <trkpt lat="49.45706" lon="3.6943">
        <ele>86.18</ele>
        <time>2021-08-09T05:05:32Z</time>
      </trkpt>
      <trkpt lat="49.45687" lon="3.69422">
        <ele>87.14</ele>
        <time>2021-08-09T05:05:39Z</time>
      </trkpt>
      <trkpt lat="49.45664" lon="3.69415">
        <ele>88.1</ele>
        <time>2021-08-09T05:05:46Z</time>
      </trkpt>
      <trkpt lat="49.45639" lon="3.69404">
        <ele>89.06</ele>
        <time>2021-08-09T05:05:54Z</time>
      </trkpt>
      <trkpt lat="49.45617" lon="3.69393">
        <ele>90.02</ele>
        <time>2021-08-09T05:06:02Z</time>
      </trkpt>
      <trkpt lat="49.4559" lon="3.6938">
        <ele>90.98</ele>
        <time>2021-08-09T05:06:11Z</time>
      </trkpt>
      <trkpt lat="49.45569" lon="3.69372">
        <ele>92.42</ele>
        <time>2021-08-09T05:06:19Z</time>
      </trkpt>
      <trkpt lat="49.45547" lon="3.69365">
        <ele>93.87</ele>
        <time>2021-08-09T05:06:28Z</time>
      </trkpt>
      <trkpt lat="49.45534" lon="3.69365">
        <ele>95.31</ele>
        <time>2021-08-09T05:06:35Z</time>
      </trkpt>
      <trkpt lat="49.45521" lon="3.69369">
        <ele>96.27</ele>
        <time>2021-08-09T05:06:41Z</time>
      </trkpt>
      <trkpt lat="49.4551" lon="3.69378">
        <ele>96.75</ele>
        <time>2021-08-09T05:06:47Z</time>
      </trkpt>
      <trkpt lat="49.45488" lon="3.69406">
        <ele>98.19</ele>
        <time>2021-08-09T05:06:57Z</time>
      </trkpt>
      <trkpt lat="49.4547" lon="3.6944">
        <ele>99.63</ele>
        <time>2021-08-09T05:07:07Z</time>
      </trkpt>
      <trkpt lat="49.4546" lon="3.69467">
        <ele>101.08</ele>
        <time>2021-08-09T05:07:15Z</time>
      </trkpt>
      <trkpt lat="49.45452" lon="3.69502">
        <ele>101.56</ele>
        <time>2021-08-09T05:07:25Z</time>
      </trkpt>
      <trkpt lat="49.45444" lon="3.69521">
        <ele>102.52</ele>
        <time>2021-08-09T05:07:32Z</time>
      </trkpt>
      <trkpt lat="49.45433" lon="3.69542">
        <ele>103.48</ele>
        <time>2021-08-09T05:07:40Z</time>
      </trkpt>
      <trkpt lat="49.45419" lon="3.69568">
        <ele>104.92</ele>
        <time>2021-08-09T05:07:50Z</time>
      </trkpt>
      <trkpt lat="49.45411" lon="3.69591">
        <ele>105.88</ele>
        <time>2021-08-09T05:07:58Z</time>
      </trkpt>
      <trkpt lat="49.45405" lon="3.69611">
        <ele>107.32</ele>
        <time>2021-08-09T05:08:06Z</time>
      </trkpt>
      <trkpt lat="49.45401" lon="3.69632">
        <ele>108.29</ele>
        <time>2021-08-09T05:08:14Z</time>
      </trkpt>
      <trkpt lat="49.45396" lon="3.69655">
        <ele>109.73</ele>
        <time>2021-08-09T05:08:22Z</time>
      </trkpt>
      <trkpt lat="49.45392" lon="3.69676">
        <ele>110.21</ele>
        <time>2021-08-09T05:08:29Z</time>
      </trkpt>
      <trkpt lat="49.45385" lon="3.69705">
        <ele>112.13</ele>
        <time>2021-08-09T05:08:38Z</time>
      </trkpt>
      <trkpt lat="49.45374" lon="3.69728">
        <ele>112.61</ele>
        <time>2021-08-09T05:08:46Z</time>
      </trkpt>
      <trkpt lat="49.45359" lon="3.69755">
        <ele>114.05</ele>
        <time>2021-08-09T05:08:56Z</time>
      </trkpt>
      <trkpt lat="49.45341" lon="3.69778">
        <ele>114.53</ele>
        <time>2021-08-09T05:09:06Z</time>
      </trkpt>
      <trkpt lat="49.4532" lon="3.69791">
        <ele>115.5</ele>
        <time>2021-08-09T05:09:16Z</time>
      </trkpt>
      <trkpt lat="49.45302" lon="3.69798">
        <ele>116.46</ele>
        <time>2021-08-09T05:09:24Z</time>
      </trkpt>
      <trkpt lat="49.45279" lon="3.69796">
        <ele>116.94</ele>
        <time>2021-08-09T05:09:33Z</time>
      </trkpt>
      <trkpt lat="49.4525" lon="3.69788">
        <ele>117.9</ele>
        <time>2021-08-09T05:09:43Z</time>
      </trkpt>
      <trkpt lat="49.45222" lon="3.69781">
        <ele>117.9</ele>
        <time>2021-08-09T05:09:52Z</time>
      </trkpt>
      <trkpt lat="49.45203" lon="3.69775">
        <ele>117.42</ele>
        <time>2021-08-09T05:09:57Z</time>
      </trkpt>
      <trkpt lat="49.45174" lon="3.69769">
        <ele>117.42</ele>
        <time>2021-08-09T05:10:05Z</time>
      </trkpt>
      <trkpt lat="49.45139" lon="3.6976">
        <ele>117.9</ele>
        <time>2021-08-09T05:10:16Z</time>
      </trkpt>
      <trkpt lat="49.45107" lon="3.69749">
        <ele>117.9</ele>
        <time>2021-08-09T05:10:26Z</time>
      </trkpt>
      <trkpt lat="49.45104" lon="3.69747">
        <ele>118.38</ele>
        <time>2021-08-09T05:10:27Z</time>
      </trkpt>
      <trkpt lat="49.45101" lon="3.69747">
        <ele>118.38</ele>
        <time>2021-08-09T05:10:28Z</time>
      </trkpt>
      <trkpt lat="49.45097" lon="3.69747">
        <ele>118.38</ele>
        <time>2021-08-09T05:10:29Z</time>
      </trkpt>
      <trkpt lat="49.45067" lon="3.6974">
        <ele>118.38</ele>
        <time>2021-08-09T05:10:38Z</time>
      </trkpt>
      <trkpt lat="49.45035" lon="3.69732">
        <ele>118.86</ele>
        <time>2021-08-09T05:10:47Z</time>
      </trkpt>
      <trkpt lat="49.4501" lon="3.69721">
        <ele>120.3</ele>
        <time>2021-08-09T05:10:56Z</time>
      </trkpt>
      <trkpt lat="49.44999" lon="3.69709">
        <ele>121.26</ele>
        <time>2021-08-09T05:11:03Z</time>
      </trkpt>
      <trkpt lat="49.44993" lon="3.69698">
        <ele>122.22</ele>
        <time>2021-08-09T05:11:08Z</time>
      </trkpt>
      <trkpt lat="49.44991" lon="3.69695">
        <ele>122.22</ele>
        <time>2021-08-09T05:11:09Z</time>
      </trkpt>
      <trkpt lat="49.4499" lon="3.69692">
        <ele>122.22</ele>
        <time>2021-08-09T05:11:10Z</time>
      </trkpt>
      <trkpt lat="49.44988" lon="3.6969">
        <ele>122.71</ele>
        <time>2021-08-09T05:11:11Z</time>
      </trkpt>
      <trkpt lat="49.44986" lon="3.69689">
        <ele>122.71</ele>
        <time>2021-08-09T05:11:12Z</time>
      </trkpt>
      <trkpt lat="49.44984" lon="3.69688">
        <ele>122.71</ele>
        <time>2021-08-09T05:11:13Z</time>
      </trkpt>
      <trkpt lat="49.44982" lon="3.69688">
        <ele>122.71</ele>
        <time>2021-08-09T05:11:14Z</time>
      </trkpt>
      <trkpt lat="49.4498" lon="3.69688">
        <ele>123.19</ele>
        <time>2021-08-09T05:11:15Z</time>
      </trkpt>
      <trkpt lat="49.44978" lon="3.69689">
        <ele>123.19</ele>
        <time>2021-08-09T05:11:16Z</time>
      </trkpt>
      <trkpt lat="49.44975" lon="3.69691">
        <ele>123.67</ele>
        <time>2021-08-09T05:11:17Z</time>
      </trkpt>
      <trkpt lat="49.44973" lon="3.69692">
        <ele>123.67</ele>
        <time>2021-08-09T05:11:18Z</time>
      </trkpt>
      <trkpt lat="49.44949" lon="3.69717">
        <ele>124.63</ele>
        <time>2021-08-09T05:11:29Z</time>
      </trkpt>
      <trkpt lat="49.44931" lon="3.6972">
        <ele>125.11</ele>
        <time>2021-08-09T05:11:35Z</time>
      </trkpt>
      <trkpt lat="49.44912" lon="3.6971">
        <ele>125.59</ele>
        <time>2021-08-09T05:11:42Z</time>
      </trkpt>
      <trkpt lat="49.44883" lon="3.69705">
        <ele>126.07</ele>
        <time>2021-08-09T05:11:52Z</time>
      </trkpt>
      <trkpt lat="49.44856" lon="3.69711">
        <ele>126.07</ele>
        <time>2021-08-09T05:12:00Z</time>
      </trkpt>
      <trkpt lat="49.44827" lon="3.69721">
        <ele>126.07</ele>
        <time>2021-08-09T05:12:08Z</time>
      </trkpt>
      <trkpt lat="49.44822" lon="3.69723">
        <ele>126.07</ele>
        <time>2021-08-09T05:12:09Z</time>
      </trkpt>
      <trkpt lat="49.44801" lon="3.6973">
        <ele>126.55</ele>
        <time>2021-08-09T05:12:16Z</time>
      </trkpt>
      <trkpt lat="49.44771" lon="3.69739">
        <ele>127.99</ele>
        <time>2021-08-09T05:12:27Z</time>
      </trkpt>
      <trkpt lat="49.44743" lon="3.69756">
        <ele>128.47</ele>
        <time>2021-08-09T05:12:37Z</time>
      </trkpt>
      <trkpt lat="49.44718" lon="3.69774">
        <ele>128.95</ele>
        <time>2021-08-09T05:12:46Z</time>
      </trkpt>
      <trkpt lat="49.44695" lon="3.69793">
        <ele>130.4</ele>
        <time>2021-08-09T05:12:55Z</time>
      </trkpt>
      <trkpt lat="49.44672" lon="3.69812">
        <ele>131.36</ele>
        <time>2021-08-09T05:13:04Z</time>
      </trkpt>
      <trkpt lat="49.44655" lon="3.6983">
        <ele>132.32</ele>
        <time>2021-08-09T05:13:12Z</time>
      </trkpt>
      <trkpt lat="49.44639" lon="3.6985">
        <ele>133.28</ele>
        <time>2021-08-09T05:13:22Z</time>
      </trkpt>
      <trkpt lat="49.44626" lon="3.69865">
        <ele>135.2</ele>
        <time>2021-08-09T05:13:30Z</time>
      </trkpt>
      <trkpt lat="49.44613" lon="3.69881">
        <ele>136.16</ele>
        <time>2021-08-09T05:13:38Z</time>
      </trkpt>
      <trkpt lat="49.44601" lon="3.699">
        <ele>137.13</ele>
        <time>2021-08-09T05:13:47Z</time>
      </trkpt>
      <trkpt lat="49.44599" lon="3.69905">
        <ele>138.09</ele>
        <time>2021-08-09T05:13:50Z</time>
      </trkpt>
      <trkpt lat="49.44598" lon="3.69908">
        <ele>138.09</ele>
        <time>2021-08-09T05:13:51Z</time>
      </trkpt>
      <trkpt lat="49.44598" lon="3.6991">
        <ele>138.09</ele>
        <time>2021-08-09T05:13:52Z</time>
      </trkpt>
      <trkpt lat="49.4459" lon="3.69935">
        <ele>139.53</ele>
        <time>2021-08-09T05:14:02Z</time>
      </trkpt>
      <trkpt lat="49.44584" lon="3.69962">
        <ele>140.97</ele>
        <time>2021-08-09T05:14:11Z</time>
      </trkpt>
      <trkpt lat="49.4458" lon="3.69991">
        <ele>142.41</ele>
        <time>2021-08-09T05:14:21Z</time>
      </trkpt>
      <trkpt lat="49.44577" lon="3.70012">
        <ele>143.37</ele>
        <time>2021-08-09T05:14:28Z</time>
      </trkpt>
      <trkpt lat="49.44579" lon="3.70035">
        <ele>143.85</ele>
        <time>2021-08-09T05:14:37Z</time>
      </trkpt>
      <trkpt lat="49.4458" lon="3.70051">
        <ele>145.3</ele>
        <time>2021-08-09T05:14:43Z</time>
      </trkpt>
      <trkpt lat="49.44585" lon="3.70075">
        <ele>146.26</ele>
        <time>2021-08-09T05:14:51Z</time>
      </trkpt>
      <trkpt lat="49.44587" lon="3.7009">
        <ele>147.7</ele>
        <time>2021-08-09T05:14:56Z</time>
      </trkpt>
      <trkpt lat="49.44586" lon="3.70092">
        <ele>147.7</ele>
        <time>2021-08-09T05:14:57Z</time>
      </trkpt>
      <trkpt lat="49.44586" lon="3.70095">
        <ele>147.7</ele>
        <time>2021-08-09T05:14:58Z</time>
      </trkpt>
      <trkpt lat="49.44581" lon="3.70122">
        <ele>149.14</ele>
        <time>2021-08-09T05:15:07Z</time>
      </trkpt>
      <trkpt lat="49.44574" lon="3.70142">
        <ele>151.06</ele>
        <time>2021-08-09T05:15:15Z</time>
      </trkpt>
      <trkpt lat="49.44573" lon="3.70145">
        <ele>151.06</ele>
        <time>2021-08-09T05:15:16Z</time>
      </trkpt>
      <trkpt lat="49.44573" lon="3.70147">
        <ele>151.06</ele>
        <time>2021-08-09T05:15:17Z</time>
      </trkpt>
      <trkpt lat="49.4457" lon="3.70166">
        <ele>152.51</ele>
        <time>2021-08-09T05:15:26Z</time>
      </trkpt>
      <trkpt lat="49.44566" lon="3.70188">
        <ele>154.43</ele>
        <time>2021-08-09T05:15:36Z</time>
      </trkpt>
      <trkpt lat="49.44564" lon="3.70206">
        <ele>155.87</ele>
        <time>2021-08-09T05:15:44Z</time>
      </trkpt>
      <trkpt lat="49.44563" lon="3.70215">
        <ele>156.35</ele>
        <time>2021-08-09T05:15:48Z</time>
      </trkpt>
      <trkpt lat="49.4456" lon="3.70242">
        <ele>157.79</ele>
        <time>2021-08-09T05:15:58Z</time>
      </trkpt>
      <trkpt lat="49.44564" lon="3.70261">
        <ele>159.24</ele>
        <time>2021-08-09T05:16:06Z</time>
      </trkpt>
      <trkpt lat="49.44566" lon="3.70267">
        <ele>160.2</ele>
        <time>2021-08-09T05:16:09Z</time>
      </trkpt>
      <trkpt lat="49.44567" lon="3.70269">
        <ele>160.68</ele>
        <time>2021-08-09T05:16:10Z</time>
      </trkpt>
      <trkpt lat="49.44567" lon="3.70271">
        <ele>160.68</ele>
        <time>2021-08-09T05:16:11Z</time>
      </trkpt>
      <trkpt lat="49.44567" lon="3.70286">
        <ele>161.64</ele>
        <time>2021-08-09T05:16:18Z</time>
      </trkpt>
      <trkpt lat="49.44567" lon="3.70287">
        <ele>162.12</ele>
        <time>2021-08-09T05:16:19Z</time>
      </trkpt>
      <trkpt lat="49.44566" lon="3.70289">
        <ele>162.12</ele>
        <time>2021-08-09T05:16:20Z</time>
      </trkpt>
      <trkpt lat="49.44566" lon="3.70291">
        <ele>162.6</ele>
        <time>2021-08-09T05:16:21Z</time>
      </trkpt>
      <trkpt lat="49.44566" lon="3.70294">
        <ele>162.6</ele>
        <time>2021-08-09T05:16:22Z</time>
      </trkpt>
      <trkpt lat="49.44566" lon="3.70296">
        <ele>163.08</ele>
        <time>2021-08-09T05:16:23Z</time>
      </trkpt>
      <trkpt lat="49.44566" lon="3.70299">
        <ele>163.08</ele>
        <time>2021-08-09T05:16:24Z</time>
      </trkpt>
      <trkpt lat="49.44567" lon="3.70301">
        <ele>163.08</ele>
        <time>2021-08-09T05:16:25Z</time>
      </trkpt>
      <trkpt lat="49.44572" lon="3.70322">
        <ele>165.48</ele>
        <time>2021-08-09T05:16:33Z</time>
      </trkpt>
      <trkpt lat="49.44572" lon="3.70341">
        <ele>166.45</ele>
        <time>2021-08-09T05:16:41Z</time>
      </trkpt>
      <trkpt lat="49.44571" lon="3.70343">
        <ele>166.45</ele>
        <time>2021-08-09T05:16:42Z</time>
      </trkpt>
      <trkpt lat="49.44571" lon="3.70346">
        <ele>166.45</ele>
        <time>2021-08-09T05:16:43Z</time>
      </trkpt>
      <trkpt lat="49.44571" lon="3.70349">
        <ele>166.45</ele>
        <time>2021-08-09T05:16:44Z</time>
      </trkpt>
      <trkpt lat="49.4457" lon="3.70351">
        <ele>167.41</ele>
        <time>2021-08-09T05:16:45Z</time>
      </trkpt>
      <trkpt lat="49.4457" lon="3.70354">
        <ele>167.41</ele>
        <time>2021-08-09T05:16:46Z</time>
      </trkpt>
      <trkpt lat="49.44569" lon="3.70357">
        <ele>167.41</ele>
        <time>2021-08-09T05:16:47Z</time>
      </trkpt>
      <trkpt lat="49.44568" lon="3.70359">
        <ele>167.41</ele>
        <time>2021-08-09T05:16:48Z</time>
      </trkpt>
      <trkpt lat="49.44568" lon="3.70361">
        <ele>167.41</ele>
        <time>2021-08-09T05:16:49Z</time>
      </trkpt>
      <trkpt lat="49.44567" lon="3.70364">
        <ele>167.89</ele>
        <time>2021-08-09T05:16:50Z</time>
      </trkpt>
      <trkpt lat="49.44566" lon="3.70366">
        <ele>167.89</ele>
        <time>2021-08-09T05:16:51Z</time>
      </trkpt>
      <trkpt lat="49.44566" lon="3.70368">
        <ele>168.37</ele>
        <time>2021-08-09T05:16:52Z</time>
      </trkpt>
      <trkpt lat="49.44565" lon="3.7037">
        <ele>168.37</ele>
        <time>2021-08-09T05:16:53Z</time>
      </trkpt>
      <trkpt lat="49.4456" lon="3.70391">
        <ele>169.33</ele>
        <time>2021-08-09T05:17:01Z</time>
      </trkpt>
      <trkpt lat="49.44554" lon="3.70405">
        <ele>170.29</ele>
        <time>2021-08-09T05:17:07Z</time>
      </trkpt>
      <trkpt lat="49.44554" lon="3.7041">
        <ele>170.77</ele>
        <time>2021-08-09T05:17:09Z</time>
      </trkpt>
      <trkpt lat="49.44554" lon="3.70413">
        <ele>170.77</ele>
        <time>2021-08-09T05:17:10Z</time>
      </trkpt>
      <trkpt lat="49.44554" lon="3.70416">
        <ele>170.77</ele>
        <time>2021-08-09T05:17:11Z</time>
      </trkpt>
      <trkpt lat="49.44553" lon="3.70418">
        <ele>171.73</ele>
        <time>2021-08-09T05:17:12Z</time>
      </trkpt>
      <trkpt lat="49.44552" lon="3.70421">
        <ele>171.73</ele>
        <time>2021-08-09T05:17:13Z</time>
      </trkpt>
      <trkpt lat="49.44552" lon="3.70424">
        <ele>171.73</ele>
        <time>2021-08-09T05:17:14Z</time>
      </trkpt>
      <trkpt lat="49.44551" lon="3.70427">
        <ele>172.21</ele>
        <time>2021-08-09T05:17:15Z</time>
      </trkpt>
      <trkpt lat="49.44551" lon="3.7043">
        <ele>172.21</ele>
        <time>2021-08-09T05:17:16Z</time>
      </trkpt>
      <trkpt lat="49.4455" lon="3.70433">
        <ele>172.21</ele>
        <time>2021-08-09T05:17:17Z</time>
      </trkpt>
      <trkpt lat="49.44549" lon="3.70435">
        <ele>172.21</ele>
        <time>2021-08-09T05:17:18Z</time>
      </trkpt>
      <trkpt lat="49.44548" lon="3.70438">
        <ele>172.21</ele>
        <time>2021-08-09T05:17:19Z</time>
      </trkpt>
      <trkpt lat="49.44547" lon="3.7044">
        <ele>172.69</ele>
        <time>2021-08-09T05:17:20Z</time>
      </trkpt>
      <trkpt lat="49.44539" lon="3.70456">
        <ele>174.14</ele>
        <time>2021-08-09T05:17:28Z</time>
      </trkpt>
      <trkpt lat="49.44534" lon="3.70477">
        <ele>175.1</ele>
        <time>2021-08-09T05:17:36Z</time>
      </trkpt>
      <trkpt lat="49.44531" lon="3.70499">
        <ele>176.06</ele>
        <time>2021-08-09T05:17:44Z</time>
      </trkpt>
      <trkpt lat="49.4453" lon="3.7051">
        <ele>176.54</ele>
        <time>2021-08-09T05:17:48Z</time>
      </trkpt>
      <trkpt lat="49.44529" lon="3.70513">
        <ele>177.02</ele>
        <time>2021-08-09T05:17:49Z</time>
      </trkpt>
      <trkpt lat="49.44527" lon="3.70539">
        <ele>178.94</ele>
        <time>2021-08-09T05:17:59Z</time>
      </trkpt>
      <trkpt lat="49.44525" lon="3.70561">
        <ele>179.9</ele>
        <time>2021-08-09T05:18:06Z</time>
      </trkpt>
      <trkpt lat="49.44517" lon="3.70585">
        <ele>180.87</ele>
        <time>2021-08-09T05:18:15Z</time>
      </trkpt>
      <trkpt lat="49.44514" lon="3.70586">
        <ele>180.87</ele>
        <time>2021-08-09T05:18:16Z</time>
      </trkpt>
      <trkpt lat="49.44501" lon="3.70586">
        <ele>181.35</ele>
        <time>2021-08-09T05:18:22Z</time>
      </trkpt>
      <trkpt lat="49.44473" lon="3.70583">
        <ele>182.31</ele>
        <time>2021-08-09T05:18:33Z</time>
      </trkpt>
      <trkpt lat="49.44452" lon="3.7058">
        <ele>182.79</ele>
        <time>2021-08-09T05:18:41Z</time>
      </trkpt>
      <trkpt lat="49.4442" lon="3.70579">
        <ele>184.23</ele>
        <time>2021-08-09T05:18:53Z</time>
      </trkpt>
      <trkpt lat="49.44388" lon="3.7058">
        <ele>185.67</ele>
        <time>2021-08-09T05:19:05Z</time>
      </trkpt>
      <trkpt lat="49.44359" lon="3.70589">
        <ele>186.63</ele>
        <time>2021-08-09T05:19:16Z</time>
      </trkpt>
      <trkpt lat="49.44331" lon="3.70598">
        <ele>188.56</ele>
        <time>2021-08-09T05:19:27Z</time>
      </trkpt>
      <trkpt lat="49.44305" lon="3.70607">
        <ele>189.52</ele>
        <time>2021-08-09T05:19:37Z</time>
      </trkpt>
      <trkpt lat="49.44283" lon="3.70615">
        <ele>190.96</ele>
        <time>2021-08-09T05:19:46Z</time>
      </trkpt>
      <trkpt lat="49.44252" lon="3.70626">
        <ele>193.36</ele>
        <time>2021-08-09T05:19:58Z</time>
      </trkpt>
      <trkpt lat="49.44218" lon="3.70638">
        <ele>194.8</ele>
        <time>2021-08-09T05:20:11Z</time>
      </trkpt>
      <trkpt lat="49.44187" lon="3.70647">
        <ele>196.25</ele>
        <time>2021-08-09T05:20:22Z</time>
      </trkpt>
      <trkpt lat="49.44154" lon="3.70659">
        <ele>197.69</ele>
        <time>2021-08-09T05:20:33Z</time>
      </trkpt>
      <trkpt lat="49.44121" lon="3.70669">
        <ele>198.65</ele>
        <time>2021-08-09T05:20:44Z</time>
      </trkpt>
      <trkpt lat="49.44084" lon="3.7068">
        <ele>199.61</ele>
        <time>2021-08-09T05:20:56Z</time>
      </trkpt>
      <trkpt lat="49.4405" lon="3.70687">
        <ele>200.09</ele>
        <time>2021-08-09T05:21:06Z</time>
      </trkpt>
      <trkpt lat="49.4402" lon="3.70694">
        <ele>200.09</ele>
        <time>2021-08-09T05:21:14Z</time>
      </trkpt>
      <trkpt lat="49.43992" lon="3.70702">
        <ele>200.09</ele>
        <time>2021-08-09T05:21:21Z</time>
      </trkpt>
      <trkpt lat="49.43967" lon="3.70707">
        <ele>200.09</ele>
        <time>2021-08-09T05:21:27Z</time>
      </trkpt>
      <trkpt lat="49.43928" lon="3.70716">
        <ele>198.65</ele>
        <time>2021-08-09T05:21:36Z</time>
      </trkpt>
      <trkpt lat="49.43887" lon="3.70725">
        <ele>195.77</ele>
        <time>2021-08-09T05:21:43Z</time>
      </trkpt>
      <trkpt lat="49.43852" lon="3.70733">
        <ele>194.32</ele>
        <time>2021-08-09T05:21:48Z</time>
      </trkpt>
      <trkpt lat="49.43829" lon="3.70739">
        <ele>192.88</ele>
        <time>2021-08-09T05:21:51Z</time>
      </trkpt>
      <trkpt lat="49.43787" lon="3.70749">
        <ele>189.52</ele>
        <time>2021-08-09T05:21:56Z</time>
      </trkpt>
      <trkpt lat="49.43723" lon="3.70771">
        <ele>186.63</ele>
        <time>2021-08-09T05:22:03Z</time>
      </trkpt>
      <trkpt lat="49.43694" lon="3.70786">
        <ele>185.67</ele>
        <time>2021-08-09T05:22:07Z</time>
      </trkpt>
      <trkpt lat="49.43688" lon="3.70786">
        <ele>185.19</ele>
        <time>2021-08-09T05:22:08Z</time>
      </trkpt>
      <trkpt lat="49.43683" lon="3.70781">
        <ele>185.19</ele>
        <time>2021-08-09T05:22:09Z</time>
      </trkpt>
      <trkpt lat="49.43681" lon="3.70776">
        <ele>184.23</ele>
        <time>2021-08-09T05:22:10Z</time>
      </trkpt>
      <trkpt lat="49.43679" lon="3.70768">
        <ele>184.23</ele>
        <time>2021-08-09T05:22:11Z</time>
      </trkpt>
      <trkpt lat="49.43677" lon="3.7076">
        <ele>184.23</ele>
        <time>2021-08-09T05:22:12Z</time>
      </trkpt>
      <trkpt lat="49.43676" lon="3.70751">
        <ele>184.23</ele>
        <time>2021-08-09T05:22:13Z</time>
      </trkpt>
      <trkpt lat="49.43668" lon="3.70685">
        <ele>182.79</ele>
        <time>2021-08-09T05:22:20Z</time>
      </trkpt>
      <trkpt lat="49.43663" lon="3.70658">
        <ele>182.31</ele>
        <time>2021-08-09T05:22:23Z</time>
      </trkpt>
      <trkpt lat="49.4366" lon="3.7065">
        <ele>182.31</ele>
        <time>2021-08-09T05:22:24Z</time>
      </trkpt>
      <trkpt lat="49.43657" lon="3.70642">
        <ele>182.31</ele>
        <time>2021-08-09T05:22:25Z</time>
      </trkpt>
      <trkpt lat="49.43651" lon="3.70627">
        <ele>182.31</ele>
        <time>2021-08-09T05:22:27Z</time>
      </trkpt>
      <trkpt lat="49.43634" lon="3.70572">
        <ele>184.23</ele>
        <time>2021-08-09T05:22:35Z</time>
      </trkpt>
      <trkpt lat="49.43616" lon="3.70504">
        <ele>186.63</ele>
        <time>2021-08-09T05:22:46Z</time>
      </trkpt>
      <trkpt lat="49.43612" lon="3.70478">
        <ele>186.15</ele>
        <time>2021-08-09T05:22:50Z</time>
      </trkpt>
      <trkpt lat="49.43608" lon="3.70405">
        <ele>187.11</ele>
        <time>2021-08-09T05:23:00Z</time>
      </trkpt>
      <trkpt lat="49.43606" lon="3.70339">
        <ele>187.11</ele>
        <time>2021-08-09T05:23:09Z</time>
      </trkpt>
      <trkpt lat="49.43605" lon="3.70283">
        <ele>187.11</ele>
        <time>2021-08-09T05:23:16Z</time>
      </trkpt>
      <trkpt lat="49.43604" lon="3.70275">
        <ele>187.11</ele>
        <time>2021-08-09T05:23:17Z</time>
      </trkpt>
      <trkpt lat="49.43604" lon="3.70266">
        <ele>186.15</ele>
        <time>2021-08-09T05:23:18Z</time>
      </trkpt>
      <trkpt lat="49.43603" lon="3.70258">
        <ele>186.15</ele>
        <time>2021-08-09T05:23:19Z</time>
      </trkpt>
      <trkpt lat="49.436" lon="3.70186">
        <ele>187.59</ele>
        <time>2021-08-09T05:23:28Z</time>
      </trkpt>
      <trkpt lat="49.43599" lon="3.70135">
        <ele>188.56</ele>
        <time>2021-08-09T05:23:35Z</time>
      </trkpt>
      <trkpt lat="49.43596" lon="3.7006">
        <ele>189.04</ele>
        <time>2021-08-09T05:23:46Z</time>
      </trkpt>
      <trkpt lat="49.43595" lon="3.70027">
        <ele>189.04</ele>
        <time>2021-08-09T05:23:51Z</time>
      </trkpt>
      <trkpt lat="49.43594" lon="3.7002">
        <ele>189.04</ele>
        <time>2021-08-09T05:23:52Z</time>
      </trkpt>
      <trkpt lat="49.43594" lon="3.70014">
        <ele>189.04</ele>
        <time>2021-08-09T05:23:53Z</time>
      </trkpt>
      <trkpt lat="49.43594" lon="3.70007">
        <ele>189.04</ele>
        <time>2021-08-09T05:23:54Z</time>
      </trkpt>
      <trkpt lat="49.43594" lon="3.70001">
        <ele>189.04</ele>
        <time>2021-08-09T05:23:55Z</time>
      </trkpt>
      <trkpt lat="49.43593" lon="3.69994">
        <ele>189.04</ele>
        <time>2021-08-09T05:23:56Z</time>
      </trkpt>
      <trkpt lat="49.43591" lon="3.69935">
        <ele>190</ele>
        <time>2021-08-09T05:24:05Z</time>
      </trkpt>
      <trkpt lat="49.43587" lon="3.6986">
        <ele>190.96</ele>
        <time>2021-08-09T05:24:17Z</time>
      </trkpt>
      <trkpt lat="49.43585" lon="3.69855">
        <ele>190.96</ele>
        <time>2021-08-09T05:24:18Z</time>
      </trkpt>
      <trkpt lat="49.43582" lon="3.69853">
        <ele>190.96</ele>
        <time>2021-08-09T05:24:19Z</time>
      </trkpt>
      <trkpt lat="49.43578" lon="3.69853">
        <ele>190.96</ele>
        <time>2021-08-09T05:24:20Z</time>
      </trkpt>
      <trkpt lat="49.43574" lon="3.69853">
        <ele>190.96</ele>
        <time>2021-08-09T05:24:21Z</time>
      </trkpt>
      <trkpt lat="49.43569" lon="3.69853">
        <ele>190.96</ele>
        <time>2021-08-09T05:24:22Z</time>
      </trkpt>
      <trkpt lat="49.43564" lon="3.69854">
        <ele>189.04</ele>
        <time>2021-08-09T05:24:23Z</time>
      </trkpt>
      <trkpt lat="49.43559" lon="3.69854">
        <ele>189.04</ele>
        <time>2021-08-09T05:24:24Z</time>
      </trkpt>
      <trkpt lat="49.43522" lon="3.69856">
        <ele>186.15</ele>
        <time>2021-08-09T05:24:30Z</time>
      </trkpt>
      <trkpt lat="49.43471" lon="3.69857">
        <ele>182.31</ele>
        <time>2021-08-09T05:24:37Z</time>
      </trkpt>
      <trkpt lat="49.43439" lon="3.69856">
        <ele>179.9</ele>
        <time>2021-08-09T05:24:41Z</time>
      </trkpt>
      <trkpt lat="49.43397" lon="3.69857">
        <ele>176.54</ele>
        <time>2021-08-09T05:24:46Z</time>
      </trkpt>
      <trkpt lat="49.43381" lon="3.69856">
        <ele>175.1</ele>
        <time>2021-08-09T05:24:48Z</time>
      </trkpt>
      <trkpt lat="49.43375" lon="3.69852">
        <ele>175.1</ele>
        <time>2021-08-09T05:24:49Z</time>
      </trkpt>
      <trkpt lat="49.43371" lon="3.69846">
        <ele>175.1</ele>
        <time>2021-08-09T05:24:50Z</time>
      </trkpt>
      <trkpt lat="49.43368" lon="3.6984">
        <ele>175.1</ele>
        <time>2021-08-09T05:24:51Z</time>
      </trkpt>
      <trkpt lat="49.43366" lon="3.69835">
        <ele>175.1</ele>
        <time>2021-08-09T05:24:52Z</time>
      </trkpt>
      <trkpt lat="49.43364" lon="3.69828">
        <ele>175.1</ele>
        <time>2021-08-09T05:24:53Z</time>
      </trkpt>
      <trkpt lat="49.43362" lon="3.69821">
        <ele>175.58</ele>
        <time>2021-08-09T05:24:54Z</time>
      </trkpt>
      <trkpt lat="49.43361" lon="3.69815">
        <ele>175.58</ele>
        <time>2021-08-09T05:24:55Z</time>
      </trkpt>
      <trkpt lat="49.4336" lon="3.69807">
        <ele>175.58</ele>
        <time>2021-08-09T05:24:56Z</time>
      </trkpt>
      <trkpt lat="49.43349" lon="3.69755">
        <ele>177.02</ele>
        <time>2021-08-09T05:25:04Z</time>
      </trkpt>
      <trkpt lat="49.4334" lon="3.69705">
        <ele>178.46</ele>
        <time>2021-08-09T05:25:13Z</time>
      </trkpt>
      <trkpt lat="49.43334" lon="3.69673">
        <ele>178.46</ele>
        <time>2021-08-09T05:25:18Z</time>
      </trkpt>
      <trkpt lat="49.43333" lon="3.69661">
        <ele>177.02</ele>
        <time>2021-08-09T05:25:20Z</time>
      </trkpt>
      <trkpt lat="49.43331" lon="3.69655">
        <ele>177.02</ele>
        <time>2021-08-09T05:25:21Z</time>
      </trkpt>
      <trkpt lat="49.43331" lon="3.69648">
        <ele>177.02</ele>
        <time>2021-08-09T05:25:22Z</time>
      </trkpt>
      <trkpt lat="49.43331" lon="3.69642">
        <ele>177.02</ele>
        <time>2021-08-09T05:25:23Z</time>
      </trkpt>
      <trkpt lat="49.4333" lon="3.69635">
        <ele>177.02</ele>
        <time>2021-08-09T05:25:24Z</time>
      </trkpt>
      <trkpt lat="49.43319" lon="3.69581">
        <ele>177.02</ele>
        <time>2021-08-09T05:25:33Z</time>
      </trkpt>
      <trkpt lat="49.43307" lon="3.6953">
        <ele>176.54</ele>
        <time>2021-08-09T05:25:41Z</time>
      </trkpt>
      <trkpt lat="49.43297" lon="3.69492">
        <ele>177.98</ele>
        <time>2021-08-09T05:25:48Z</time>
      </trkpt>
      <trkpt lat="49.43284" lon="3.6944">
        <ele>177.98</ele>
        <time>2021-08-09T05:25:57Z</time>
      </trkpt>
      <trkpt lat="49.43272" lon="3.6938">
        <ele>177.98</ele>
        <time>2021-08-09T05:26:07Z</time>
      </trkpt>
      <trkpt lat="49.43266" lon="3.69357">
        <ele>177.98</ele>
        <time>2021-08-09T05:26:11Z</time>
      </trkpt>
      <trkpt lat="49.43265" lon="3.6935">
        <ele>177.98</ele>
        <time>2021-08-09T05:26:12Z</time>
      </trkpt>
      <trkpt lat="49.43263" lon="3.69344">
        <ele>177.98</ele>
        <time>2021-08-09T05:26:13Z</time>
      </trkpt>
      <trkpt lat="49.43253" lon="3.69296">
        <ele>176.54</ele>
        <time>2021-08-09T05:26:20Z</time>
      </trkpt>
      <trkpt lat="49.43247" lon="3.69272">
        <ele>176.54</ele>
        <time>2021-08-09T05:26:23Z</time>
      </trkpt>
      <trkpt lat="49.43225" lon="3.69224">
        <ele>174.14</ele>
        <time>2021-08-09T05:26:30Z</time>
      </trkpt>
      <trkpt lat="49.43202" lon="3.69174">
        <ele>170.29</ele>
        <time>2021-08-09T05:26:36Z</time>
      </trkpt>
      <trkpt lat="49.43199" lon="3.69166">
        <ele>170.29</ele>
        <time>2021-08-09T05:26:37Z</time>
      </trkpt>
      <trkpt lat="49.43182" lon="3.69116">
        <ele>167.41</ele>
        <time>2021-08-09T05:26:42Z</time>
      </trkpt>
      <trkpt lat="49.43178" lon="3.69106">
        <ele>165.48</ele>
        <time>2021-08-09T05:26:43Z</time>
      </trkpt>
      <trkpt lat="49.43173" lon="3.69095">
        <ele>165</ele>
        <time>2021-08-09T05:26:44Z</time>
      </trkpt>
      <trkpt lat="49.4315" lon="3.69035">
        <ele>161.64</ele>
        <time>2021-08-09T05:26:49Z</time>
      </trkpt>
      <trkpt lat="49.43134" lon="3.69001">
        <ele>159.24</ele>
        <time>2021-08-09T05:26:52Z</time>
      </trkpt>
      <trkpt lat="49.43112" lon="3.68963">
        <ele>154.91</ele>
        <time>2021-08-09T05:26:56Z</time>
      </trkpt>
      <trkpt lat="49.43106" lon="3.68954">
        <ele>153.95</ele>
        <time>2021-08-09T05:26:57Z</time>
      </trkpt>
      <trkpt lat="49.43085" lon="3.68931">
        <ele>150.58</ele>
        <time>2021-08-09T05:27:00Z</time>
      </trkpt>
      <trkpt lat="49.43064" lon="3.68905">
        <ele>147.7</ele>
        <time>2021-08-09T05:27:03Z</time>
      </trkpt>
      <trkpt lat="49.4305" lon="3.68891">
        <ele>145.78</ele>
        <time>2021-08-09T05:27:05Z</time>
      </trkpt>
      <trkpt lat="49.43039" lon="3.68876">
        <ele>143.85</ele>
        <time>2021-08-09T05:27:07Z</time>
      </trkpt>
      <trkpt lat="49.4302" lon="3.68852">
        <ele>142.41</ele>
        <time>2021-08-09T05:27:12Z</time>
      </trkpt>
      <trkpt lat="49.43017" lon="3.68852">
        <ele>142.41</ele>
        <time>2021-08-09T05:27:13Z</time>
      </trkpt>
      <trkpt lat="49.43015" lon="3.68852">
        <ele>141.93</ele>
        <time>2021-08-09T05:27:14Z</time>
      </trkpt>
      <trkpt lat="49.43013" lon="3.68851">
        <ele>141.45</ele>
        <time>2021-08-09T05:27:15Z</time>
      </trkpt>
      <trkpt lat="49.43011" lon="3.68849">
        <ele>140.97</ele>
        <time>2021-08-09T05:27:16Z</time>
      </trkpt>
      <trkpt lat="49.43012" lon="3.68845">
        <ele>141.45</ele>
        <time>2021-08-09T05:27:19Z</time>
      </trkpt>
      <trkpt lat="49.43012" lon="3.68843">
        <ele>141.45</ele>
        <time>2021-08-09T05:27:20Z</time>
      </trkpt>
      <trkpt lat="49.43012" lon="3.68839">
        <ele>141.45</ele>
        <time>2021-08-09T05:27:23Z</time>
      </trkpt>
      <trkpt lat="49.43011" lon="3.68838">
        <ele>141.45</ele>
        <time>2021-08-09T05:27:24Z</time>
      </trkpt>
      <trkpt lat="49.43009" lon="3.68835">
        <ele>141.45</ele>
        <time>2021-08-09T05:27:25Z</time>
      </trkpt>
      <trkpt lat="49.42991" lon="3.6882">
        <ele>140.97</ele>
        <time>2021-08-09T05:27:30Z</time>
      </trkpt>
      <trkpt lat="49.42963" lon="3.68797">
        <ele>139.05</ele>
        <time>2021-08-09T05:27:36Z</time>
      </trkpt>
      <trkpt lat="49.42953" lon="3.68787">
        <ele>139.05</ele>
        <time>2021-08-09T05:27:38Z</time>
      </trkpt>
      <trkpt lat="49.42948" lon="3.68782">
        <ele>138.57</ele>
        <time>2021-08-09T05:27:39Z</time>
      </trkpt>
      <trkpt lat="49.42899" lon="3.68734">
        <ele>136.16</ele>
        <time>2021-08-09T05:27:49Z</time>
      </trkpt>
      <trkpt lat="49.42849" lon="3.68701">
        <ele>134.72</ele>
        <time>2021-08-09T05:27:58Z</time>
      </trkpt>
      <trkpt lat="49.42802" lon="3.68689">
        <ele>132.8</ele>
        <time>2021-08-09T05:28:06Z</time>
      </trkpt>
      <trkpt lat="49.42753" lon="3.68675">
        <ele>131.36</ele>
        <time>2021-08-09T05:28:15Z</time>
      </trkpt>
      <trkpt lat="49.42711" lon="3.68643">
        <ele>130.4</ele>
        <time>2021-08-09T05:28:23Z</time>
      </trkpt>
      <trkpt lat="49.42672" lon="3.6861">
        <ele>130.4</ele>
        <time>2021-08-09T05:28:31Z</time>
      </trkpt>
      <trkpt lat="49.42668" lon="3.68606">
        <ele>130.4</ele>
        <time>2021-08-09T05:28:32Z</time>
      </trkpt>
      <trkpt lat="49.4263" lon="3.68576">
        <ele>129.43</ele>
        <time>2021-08-09T05:28:40Z</time>
      </trkpt>
      <trkpt lat="49.4262" lon="3.6857">
        <ele>127.99</ele>
        <time>2021-08-09T05:28:42Z</time>
      </trkpt>
      <trkpt lat="49.42615" lon="3.68566">
        <ele>127.99</ele>
        <time>2021-08-09T05:28:43Z</time>
      </trkpt>
      <trkpt lat="49.42603" lon="3.68557">
        <ele>126.07</ele>
        <time>2021-08-09T05:28:45Z</time>
      </trkpt>
      <trkpt lat="49.42562" lon="3.68519">
        <ele>122.71</ele>
        <time>2021-08-09T05:28:52Z</time>
      </trkpt>
      <trkpt lat="49.42525" lon="3.68499">
        <ele>120.3</ele>
        <time>2021-08-09T05:28:57Z</time>
      </trkpt>
      <trkpt lat="49.42504" lon="3.68488">
        <ele>117.9</ele>
        <time>2021-08-09T05:29:00Z</time>
      </trkpt>
      <trkpt lat="49.42497" lon="3.68486">
        <ele>117.42</ele>
        <time>2021-08-09T05:29:01Z</time>
      </trkpt>
      <trkpt lat="49.42489" lon="3.68486">
        <ele>116.46</ele>
        <time>2021-08-09T05:29:02Z</time>
      </trkpt>
      <trkpt lat="49.42482" lon="3.68486">
        <ele>115.98</ele>
        <time>2021-08-09T05:29:03Z</time>
      </trkpt>
      <trkpt lat="49.42474" lon="3.68487">
        <ele>115.5</ele>
        <time>2021-08-09T05:29:04Z</time>
      </trkpt>
      <trkpt lat="49.42451" lon="3.68487">
        <ele>114.05</ele>
        <time>2021-08-09T05:29:07Z</time>
      </trkpt>
      <trkpt lat="49.42419" lon="3.68478">
        <ele>110.21</ele>
        <time>2021-08-09T05:29:11Z</time>
      </trkpt>
      <trkpt lat="49.42372" lon="3.68443">
        <ele>106.84</ele>
        <time>2021-08-09T05:29:17Z</time>
      </trkpt>
      <trkpt lat="49.42335" lon="3.68415">
        <ele>103.48</ele>
        <time>2021-08-09T05:29:23Z</time>
      </trkpt>
      <trkpt lat="49.42329" lon="3.68406">
        <ele>102.52</ele>
        <time>2021-08-09T05:29:26Z</time>
      </trkpt>
      <trkpt lat="49.42329" lon="3.68403">
        <ele>103</ele>
        <time>2021-08-09T05:29:30Z</time>
      </trkpt>
      <trkpt lat="49.4233" lon="3.68403">
        <ele>102.04</ele>
        <time>2021-08-09T05:29:39Z</time>
      </trkpt>
      <trkpt lat="49.4233" lon="3.68402">
        <ele>102.52</ele>
        <time>2021-08-09T05:29:56Z</time>
      </trkpt>
      <trkpt lat="49.42331" lon="3.68403">
        <ele>102.52</ele>
        <time>2021-08-09T05:30:11Z</time>
      </trkpt>
      <trkpt lat="49.4233" lon="3.68403">
        <ele>102.04</ele>
        <time>2021-08-09T05:30:26Z</time>
      </trkpt>
      <trkpt lat="49.42329" lon="3.68403">
        <ele>102.04</ele>
        <time>2021-08-09T05:30:28Z</time>
      </trkpt>
      <trkpt lat="49.42328" lon="3.68403">
        <ele>102.04</ele>
        <time>2021-08-09T05:30:29Z</time>
      </trkpt>
      <trkpt lat="49.42312" lon="3.68402">
        <ele>100.6</ele>
        <time>2021-08-09T05:30:35Z</time>
      </trkpt>
      <trkpt lat="49.42283" lon="3.68409">
        <ele>100.11</ele>
        <time>2021-08-09T05:30:41Z</time>
      </trkpt>
      <trkpt lat="49.42264" lon="3.68423">
        <ele>99.63</ele>
        <time>2021-08-09T05:30:45Z</time>
      </trkpt>
      <trkpt lat="49.4226" lon="3.68427">
        <ele>99.63</ele>
        <time>2021-08-09T05:30:46Z</time>
      </trkpt>
      <trkpt lat="49.42226" lon="3.68469">
        <ele>97.71</ele>
        <time>2021-08-09T05:30:54Z</time>
      </trkpt>
      <trkpt lat="49.42185" lon="3.68504">
        <ele>95.31</ele>
        <time>2021-08-09T05:31:01Z</time>
      </trkpt>
      <trkpt lat="49.42148" lon="3.68531">
        <ele>92.42</ele>
        <time>2021-08-09T05:31:06Z</time>
      </trkpt>
      <trkpt lat="49.42111" lon="3.68557">
        <ele>90.02</ele>
        <time>2021-08-09T05:31:12Z</time>
      </trkpt>
      <trkpt lat="49.42108" lon="3.68562">
        <ele>90.02</ele>
        <time>2021-08-09T05:31:13Z</time>
      </trkpt>
      <trkpt lat="49.42106" lon="3.68567">
        <ele>90.02</ele>
        <time>2021-08-09T05:31:14Z</time>
      </trkpt>
      <trkpt lat="49.42105" lon="3.68572">
        <ele>90.02</ele>
        <time>2021-08-09T05:31:15Z</time>
      </trkpt>
      <trkpt lat="49.42106" lon="3.68577">
        <ele>90.02</ele>
        <time>2021-08-09T05:31:16Z</time>
      </trkpt>
      <trkpt lat="49.42108" lon="3.68582">
        <ele>90.02</ele>
        <time>2021-08-09T05:31:17Z</time>
      </trkpt>
      <trkpt lat="49.42109" lon="3.68586">
        <ele>90.02</ele>
        <time>2021-08-09T05:31:18Z</time>
      </trkpt>
      <trkpt lat="49.42111" lon="3.68589">
        <ele>90.02</ele>
        <time>2021-08-09T05:31:19Z</time>
      </trkpt>
      <trkpt lat="49.42135" lon="3.68636">
        <ele>92.9</ele>
        <time>2021-08-09T05:31:30Z</time>
      </trkpt>
      <trkpt lat="49.4216" lon="3.68684">
        <ele>93.87</ele>
        <time>2021-08-09T05:31:40Z</time>
      </trkpt>
      <trkpt lat="49.42184" lon="3.68727">
        <ele>93.87</ele>
        <time>2021-08-09T05:31:48Z</time>
      </trkpt>
      <trkpt lat="49.42195" lon="3.68744">
        <ele>92.42</ele>
        <time>2021-08-09T05:31:51Z</time>
      </trkpt>
      <trkpt lat="49.42206" lon="3.68758">
        <ele>91.94</ele>
        <time>2021-08-09T05:31:54Z</time>
      </trkpt>
      <trkpt lat="49.42217" lon="3.68767">
        <ele>91.46</ele>
        <time>2021-08-09T05:31:58Z</time>
      </trkpt>
      <trkpt lat="49.42222" lon="3.68768">
        <ele>91.46</ele>
        <time>2021-08-09T05:32:05Z</time>
      </trkpt>
      <trkpt lat="49.42244" lon="3.68777">
        <ele>91.46</ele>
        <time>2021-08-09T05:32:12Z</time>
      </trkpt>
      <trkpt lat="49.42268" lon="3.68787">
        <ele>91.46</ele>
        <time>2021-08-09T05:32:20Z</time>
      </trkpt>
      <trkpt lat="49.42288" lon="3.68785">
        <ele>91.46</ele>
        <time>2021-08-09T05:32:26Z</time>
      </trkpt>
      <trkpt lat="49.42304" lon="3.68788">
        <ele>91.46</ele>
        <time>2021-08-09T05:32:31Z</time>
      </trkpt>
      <trkpt lat="49.4231" lon="3.68788">
        <ele>92.9</ele>
        <time>2021-08-09T05:32:33Z</time>
      </trkpt>
      <trkpt lat="49.42337" lon="3.68795">
        <ele>92.9</ele>
        <time>2021-08-09T05:32:41Z</time>
      </trkpt>
      <trkpt lat="49.42373" lon="3.68815">
        <ele>93.87</ele>
        <time>2021-08-09T05:32:52Z</time>
      </trkpt>
      <trkpt lat="49.42406" lon="3.68851">
        <ele>94.35</ele>
        <time>2021-08-09T05:33:03Z</time>
      </trkpt>
      <trkpt lat="49.42436" lon="3.68884">
        <ele>94.83</ele>
        <time>2021-08-09T05:33:13Z</time>
      </trkpt>
      <trkpt lat="49.42466" lon="3.68916">
        <ele>95.31</ele>
        <time>2021-08-09T05:33:23Z</time>
      </trkpt>
      <trkpt lat="49.42488" lon="3.68933">
        <ele>95.79</ele>
        <time>2021-08-09T05:33:30Z</time>
      </trkpt>
      <trkpt lat="49.42512" lon="3.68954">
        <ele>96.75</ele>
        <time>2021-08-09T05:33:39Z</time>
      </trkpt>
      <trkpt lat="49.42529" lon="3.68968">
        <ele>97.23</ele>
        <time>2021-08-09T05:33:46Z</time>
      </trkpt>
      <trkpt lat="49.42555" lon="3.68988">
        <ele>97.71</ele>
        <time>2021-08-09T05:33:56Z</time>
      </trkpt>
      <trkpt lat="49.42584" lon="3.6901">
        <ele>98.67</ele>
        <time>2021-08-09T05:34:07Z</time>
      </trkpt>
      <trkpt lat="49.42614" lon="3.69025">
        <ele>98.67</ele>
        <time>2021-08-09T05:34:16Z</time>
      </trkpt>
      <trkpt lat="49.42649" lon="3.69034">
        <ele>98.67</ele>
        <time>2021-08-09T05:34:25Z</time>
      </trkpt>
      <trkpt lat="49.42661" lon="3.69046">
        <ele>98.67</ele>
        <time>2021-08-09T05:34:30Z</time>
      </trkpt>
      <trkpt lat="49.4266" lon="3.69052">
        <ele>97.23</ele>
        <time>2021-08-09T05:34:31Z</time>
      </trkpt>
      <trkpt lat="49.42658" lon="3.69056">
        <ele>97.23</ele>
        <time>2021-08-09T05:34:32Z</time>
      </trkpt>
      <trkpt lat="49.42648" lon="3.6907">
        <ele>96.27</ele>
        <time>2021-08-09T05:34:35Z</time>
      </trkpt>
      <trkpt lat="49.42645" lon="3.69075">
        <ele>96.27</ele>
        <time>2021-08-09T05:34:36Z</time>
      </trkpt>
      <trkpt lat="49.42623" lon="3.69115">
        <ele>95.79</ele>
        <time>2021-08-09T05:34:43Z</time>
      </trkpt>
      <trkpt lat="49.42619" lon="3.6912">
        <ele>95.31</ele>
        <time>2021-08-09T05:34:44Z</time>
      </trkpt>
      <trkpt lat="49.42585" lon="3.69162">
        <ele>92.42</ele>
        <time>2021-08-09T05:34:51Z</time>
      </trkpt>
      <trkpt lat="49.42557" lon="3.69212">
        <ele>91.94</ele>
        <time>2021-08-09T05:34:58Z</time>
      </trkpt>
      <trkpt lat="49.42548" lon="3.69233">
        <ele>94.35</ele>
        <time>2021-08-09T05:35:03Z</time>
      </trkpt>
      <trkpt lat="49.42542" lon="3.69247">
        <ele>96.27</ele>
        <time>2021-08-09T05:35:10Z</time>
      </trkpt>
      <trkpt lat="49.42531" lon="3.69256">
        <ele>97.71</ele>
        <time>2021-08-09T05:35:17Z</time>
      </trkpt>
      <trkpt lat="49.4252" lon="3.69264">
        <ele>98.67</ele>
        <time>2021-08-09T05:35:24Z</time>
      </trkpt>
      <trkpt lat="49.42504" lon="3.69275">
        <ele>99.15</ele>
        <time>2021-08-09T05:35:33Z</time>
      </trkpt>
      <trkpt lat="49.42486" lon="3.69293">
        <ele>99.15</ele>
        <time>2021-08-09T05:35:41Z</time>
      </trkpt>
      <trkpt lat="49.42466" lon="3.69314">
        <ele>99.15</ele>
        <time>2021-08-09T05:35:48Z</time>
      </trkpt>
      <trkpt lat="49.42455" lon="3.69324">
        <ele>98.19</ele>
        <time>2021-08-09T05:35:51Z</time>
      </trkpt>
      <trkpt lat="49.42451" lon="3.69328">
        <ele>98.19</ele>
        <time>2021-08-09T05:35:52Z</time>
      </trkpt>
      <trkpt lat="49.42448" lon="3.69332">
        <ele>98.19</ele>
        <time>2021-08-09T05:35:53Z</time>
      </trkpt>
      <trkpt lat="49.42444" lon="3.69335">
        <ele>97.71</ele>
        <time>2021-08-09T05:35:54Z</time>
      </trkpt>
      <trkpt lat="49.4244" lon="3.69339">
        <ele>97.71</ele>
        <time>2021-08-09T05:35:55Z</time>
      </trkpt>
      <trkpt lat="49.42436" lon="3.69342">
        <ele>97.71</ele>
        <time>2021-08-09T05:35:56Z</time>
      </trkpt>
      <trkpt lat="49.42407" lon="3.69374">
        <ele>97.23</ele>
        <time>2021-08-09T05:36:05Z</time>
      </trkpt>
      <trkpt lat="49.4239" lon="3.69393">
        <ele>96.75</ele>
        <time>2021-08-09T05:36:10Z</time>
      </trkpt>
      <trkpt lat="49.42386" lon="3.69397">
        <ele>96.27</ele>
        <time>2021-08-09T05:36:11Z</time>
      </trkpt>
      <trkpt lat="49.42348" lon="3.6943">
        <ele>95.79</ele>
        <time>2021-08-09T05:36:20Z</time>
      </trkpt>
      <trkpt lat="49.42343" lon="3.69433">
        <ele>95.79</ele>
        <time>2021-08-09T05:36:21Z</time>
      </trkpt>
      <trkpt lat="49.42304" lon="3.69457">
        <ele>95.79</ele>
        <time>2021-08-09T05:36:30Z</time>
      </trkpt>
      <trkpt lat="49.42287" lon="3.69468">
        <ele>95.79</ele>
        <time>2021-08-09T05:36:34Z</time>
      </trkpt>
      <trkpt lat="49.42283" lon="3.69472">
        <ele>95.79</ele>
        <time>2021-08-09T05:36:35Z</time>
      </trkpt>
      <trkpt lat="49.42252" lon="3.69519">
        <ele>95.79</ele>
        <time>2021-08-09T05:36:44Z</time>
      </trkpt>
      <trkpt lat="49.42248" lon="3.69523">
        <ele>95.79</ele>
        <time>2021-08-09T05:36:45Z</time>
      </trkpt>
      <trkpt lat="49.42244" lon="3.69527">
        <ele>95.79</ele>
        <time>2021-08-09T05:36:46Z</time>
      </trkpt>
      <trkpt lat="49.4224" lon="3.6953">
        <ele>95.79</ele>
        <time>2021-08-09T05:36:47Z</time>
      </trkpt>
      <trkpt lat="49.42236" lon="3.69532">
        <ele>95.79</ele>
        <time>2021-08-09T05:36:48Z</time>
      </trkpt>
      <trkpt lat="49.42231" lon="3.69534">
        <ele>95.79</ele>
        <time>2021-08-09T05:36:49Z</time>
      </trkpt>
      <trkpt lat="49.42227" lon="3.69536">
        <ele>95.79</ele>
        <time>2021-08-09T05:36:50Z</time>
      </trkpt>
      <trkpt lat="49.4222" lon="3.6954">
        <ele>95.79</ele>
        <time>2021-08-09T05:36:52Z</time>
      </trkpt>
      <trkpt lat="49.42217" lon="3.69544">
        <ele>95.79</ele>
        <time>2021-08-09T05:36:53Z</time>
      </trkpt>
      <trkpt lat="49.42217" lon="3.69548">
        <ele>95.79</ele>
        <time>2021-08-09T05:36:54Z</time>
      </trkpt>
      <trkpt lat="49.42217" lon="3.69554">
        <ele>95.79</ele>
        <time>2021-08-09T05:36:55Z</time>
      </trkpt>
      <trkpt lat="49.42218" lon="3.69559">
        <ele>95.79</ele>
        <time>2021-08-09T05:36:56Z</time>
      </trkpt>
      <trkpt lat="49.42218" lon="3.69565">
        <ele>95.79</ele>
        <time>2021-08-09T05:36:57Z</time>
      </trkpt>
      <trkpt lat="49.42219" lon="3.6957">
        <ele>97.23</ele>
        <time>2021-08-09T05:36:58Z</time>
      </trkpt>
      <trkpt lat="49.42221" lon="3.69575">
        <ele>97.23</ele>
        <time>2021-08-09T05:36:59Z</time>
      </trkpt>
      <trkpt lat="49.42238" lon="3.69628">
        <ele>98.19</ele>
        <time>2021-08-09T05:37:09Z</time>
      </trkpt>
      <trkpt lat="49.42256" lon="3.69663">
        <ele>98.67</ele>
        <time>2021-08-09T05:37:17Z</time>
      </trkpt>
      <trkpt lat="49.4227" lon="3.6969">
        <ele>99.63</ele>
        <time>2021-08-09T05:37:24Z</time>
      </trkpt>
      <trkpt lat="49.42269" lon="3.69699">
        <ele>99.63</ele>
        <time>2021-08-09T05:37:26Z</time>
      </trkpt>
      <trkpt lat="49.42267" lon="3.69702">
        <ele>99.63</ele>
        <time>2021-08-09T05:37:27Z</time>
      </trkpt>
      <trkpt lat="49.42265" lon="3.69705">
        <ele>99.63</ele>
        <time>2021-08-09T05:37:28Z</time>
      </trkpt>
      <trkpt lat="49.42262" lon="3.69708">
        <ele>99.63</ele>
        <time>2021-08-09T05:37:29Z</time>
      </trkpt>
      <trkpt lat="49.42259" lon="3.6971">
        <ele>99.63</ele>
        <time>2021-08-09T05:37:30Z</time>
      </trkpt>
      <trkpt lat="49.42255" lon="3.69712">
        <ele>99.63</ele>
        <time>2021-08-09T05:37:31Z</time>
      </trkpt>
      <trkpt lat="49.42251" lon="3.69714">
        <ele>99.63</ele>
        <time>2021-08-09T05:37:32Z</time>
      </trkpt>
      <trkpt lat="49.42247" lon="3.69716">
        <ele>99.63</ele>
        <time>2021-08-09T05:37:33Z</time>
      </trkpt>
      <trkpt lat="49.42243" lon="3.69719">
        <ele>99.63</ele>
        <time>2021-08-09T05:37:34Z</time>
      </trkpt>
      <trkpt lat="49.4224" lon="3.69721">
        <ele>99.63</ele>
        <time>2021-08-09T05:37:35Z</time>
      </trkpt>
      <trkpt lat="49.42228" lon="3.69734">
        <ele>99.63</ele>
        <time>2021-08-09T05:37:39Z</time>
      </trkpt>
      <trkpt lat="49.42227" lon="3.69739">
        <ele>99.63</ele>
        <time>2021-08-09T05:37:40Z</time>
      </trkpt>
      <trkpt lat="49.42227" lon="3.69744">
        <ele>100.11</ele>
        <time>2021-08-09T05:37:41Z</time>
      </trkpt>
      <trkpt lat="49.42227" lon="3.69749">
        <ele>100.11</ele>
        <time>2021-08-09T05:37:42Z</time>
      </trkpt>
      <trkpt lat="49.42228" lon="3.69753">
        <ele>100.11</ele>
        <time>2021-08-09T05:37:43Z</time>
      </trkpt>
      <trkpt lat="49.42232" lon="3.6978">
        <ele>101.08</ele>
        <time>2021-08-09T05:37:50Z</time>
      </trkpt>
      <trkpt lat="49.42234" lon="3.6981">
        <ele>103</ele>
        <time>2021-08-09T05:38:00Z</time>
      </trkpt>
      <trkpt lat="49.42238" lon="3.6985">
        <ele>104.92</ele>
        <time>2021-08-09T05:38:14Z</time>
      </trkpt>
      <trkpt lat="49.42243" lon="3.69889">
        <ele>105.4</ele>
        <time>2021-08-09T05:38:23Z</time>
      </trkpt>
      <trkpt lat="49.42249" lon="3.69938">
        <ele>105.88</ele>
        <time>2021-08-09T05:38:34Z</time>
      </trkpt>
      <trkpt lat="49.42257" lon="3.69994">
        <ele>106.84</ele>
        <time>2021-08-09T05:38:46Z</time>
      </trkpt>
      <trkpt lat="49.42268" lon="3.70038">
        <ele>107.32</ele>
        <time>2021-08-09T05:38:56Z</time>
      </trkpt>
      <trkpt lat="49.42282" lon="3.70073">
        <ele>108.77</ele>
        <time>2021-08-09T05:39:06Z</time>
      </trkpt>
      <trkpt lat="49.42295" lon="3.70108">
        <ele>110.21</ele>
        <time>2021-08-09T05:39:17Z</time>
      </trkpt>
      <trkpt lat="49.42303" lon="3.70137">
        <ele>112.61</ele>
        <time>2021-08-09T05:39:27Z</time>
      </trkpt>
      <trkpt lat="49.42306" lon="3.70156">
        <ele>114.05</ele>
        <time>2021-08-09T05:39:33Z</time>
      </trkpt>
      <trkpt lat="49.42307" lon="3.70159">
        <ele>114.05</ele>
        <time>2021-08-09T05:39:34Z</time>
      </trkpt>
      <trkpt lat="49.42307" lon="3.70162">
        <ele>114.53</ele>
        <time>2021-08-09T05:39:35Z</time>
      </trkpt>
      <trkpt lat="49.42307" lon="3.70165">
        <ele>114.53</ele>
        <time>2021-08-09T05:39:36Z</time>
      </trkpt>
      <trkpt lat="49.42307" lon="3.70168">
        <ele>114.53</ele>
        <time>2021-08-09T05:39:37Z</time>
      </trkpt>
      <trkpt lat="49.42308" lon="3.70171">
        <ele>114.53</ele>
        <time>2021-08-09T05:39:38Z</time>
      </trkpt>
      <trkpt lat="49.42308" lon="3.70173">
        <ele>114.53</ele>
        <time>2021-08-09T05:39:39Z</time>
      </trkpt>
      <trkpt lat="49.42308" lon="3.70176">
        <ele>115.01</ele>
        <time>2021-08-09T05:39:40Z</time>
      </trkpt>
      <trkpt lat="49.42308" lon="3.70179">
        <ele>115.01</ele>
        <time>2021-08-09T05:39:41Z</time>
      </trkpt>
      <trkpt lat="49.42308" lon="3.70182">
        <ele>115.01</ele>
        <time>2021-08-09T05:39:42Z</time>
      </trkpt>
      <trkpt lat="49.42309" lon="3.70206">
        <ele>115.98</ele>
        <time>2021-08-09T05:39:50Z</time>
      </trkpt>
      <trkpt lat="49.42308" lon="3.70235">
        <ele>116.94</ele>
        <time>2021-08-09T05:39:59Z</time>
      </trkpt>
      <trkpt lat="49.42306" lon="3.70271">
        <ele>116.94</ele>
        <time>2021-08-09T05:40:09Z</time>
      </trkpt>
      <trkpt lat="49.42307" lon="3.70312">
        <ele>117.42</ele>
        <time>2021-08-09T05:40:18Z</time>
      </trkpt>
      <trkpt lat="49.42306" lon="3.70363">
        <ele>117.9</ele>
        <time>2021-08-09T05:40:29Z</time>
      </trkpt>
      <trkpt lat="49.42304" lon="3.70398">
        <ele>118.38</ele>
        <time>2021-08-09T05:40:38Z</time>
      </trkpt>
      <trkpt lat="49.42301" lon="3.70433">
        <ele>119.34</ele>
        <time>2021-08-09T05:40:49Z</time>
      </trkpt>
      <trkpt lat="49.42297" lon="3.70453">
        <ele>120.78</ele>
        <time>2021-08-09T05:40:57Z</time>
      </trkpt>
      <trkpt lat="49.42294" lon="3.70456">
        <ele>121.26</ele>
        <time>2021-08-09T05:40:59Z</time>
      </trkpt>
      <trkpt lat="49.42293" lon="3.70457">
        <ele>121.26</ele>
        <time>2021-08-09T05:41:00Z</time>
      </trkpt>
      <trkpt lat="49.42292" lon="3.70457">
        <ele>121.26</ele>
        <time>2021-08-09T05:41:01Z</time>
      </trkpt>
      <trkpt lat="49.42291" lon="3.70458">
        <ele>121.26</ele>
        <time>2021-08-09T05:41:02Z</time>
      </trkpt>
      <trkpt lat="49.4229" lon="3.70459">
        <ele>121.74</ele>
        <time>2021-08-09T05:41:03Z</time>
      </trkpt>
      <trkpt lat="49.42288" lon="3.70459">
        <ele>121.74</ele>
        <time>2021-08-09T05:41:04Z</time>
      </trkpt>
      <trkpt lat="49.42287" lon="3.70459">
        <ele>121.74</ele>
        <time>2021-08-09T05:41:05Z</time>
      </trkpt>
      <trkpt lat="49.42285" lon="3.70459">
        <ele>121.74</ele>
        <time>2021-08-09T05:41:06Z</time>
      </trkpt>
      <trkpt lat="49.42278" lon="3.70459">
        <ele>122.22</ele>
        <time>2021-08-09T05:41:11Z</time>
      </trkpt>
      <trkpt lat="49.42277" lon="3.7046">
        <ele>122.22</ele>
        <time>2021-08-09T05:41:12Z</time>
      </trkpt>
      <trkpt lat="49.42275" lon="3.7046">
        <ele>122.22</ele>
        <time>2021-08-09T05:41:13Z</time>
      </trkpt>
      <trkpt lat="49.42274" lon="3.70461">
        <ele>122.22</ele>
        <time>2021-08-09T05:41:14Z</time>
      </trkpt>
      <trkpt lat="49.42272" lon="3.70461">
        <ele>122.71</ele>
        <time>2021-08-09T05:41:15Z</time>
      </trkpt>
      <trkpt lat="49.42271" lon="3.70461">
        <ele>123.19</ele>
        <time>2021-08-09T05:41:16Z</time>
      </trkpt>
      <trkpt lat="49.4227" lon="3.70461">
        <ele>123.19</ele>
        <time>2021-08-09T05:41:17Z</time>
      </trkpt>
      <trkpt lat="49.42268" lon="3.70461">
        <ele>123.19</ele>
        <time>2021-08-09T05:41:18Z</time>
      </trkpt>
      <trkpt lat="49.42267" lon="3.70461">
        <ele>123.67</ele>
        <time>2021-08-09T05:41:19Z</time>
      </trkpt>
      <trkpt lat="49.42265" lon="3.70461">
        <ele>123.67</ele>
        <time>2021-08-09T05:41:20Z</time>
      </trkpt>
      <trkpt lat="49.42252" lon="3.70461">
        <ele>125.11</ele>
        <time>2021-08-09T05:41:30Z</time>
      </trkpt>
      <trkpt lat="49.42242" lon="3.70463">
        <ele>126.55</ele>
        <time>2021-08-09T05:41:38Z</time>
      </trkpt>
      <trkpt lat="49.42241" lon="3.70463">
        <ele>127.51</ele>
        <time>2021-08-09T05:41:39Z</time>
      </trkpt>
      <trkpt lat="49.42228" lon="3.70464">
        <ele>129.92</ele>
        <time>2021-08-09T05:41:49Z</time>
      </trkpt>
      <trkpt lat="49.42225" lon="3.70462">
        <ele>130.4</ele>
        <time>2021-08-09T05:41:51Z</time>
      </trkpt>
      <trkpt lat="49.42224" lon="3.70461">
        <ele>130.88</ele>
        <time>2021-08-09T05:41:52Z</time>
      </trkpt>
      <trkpt lat="49.42222" lon="3.7046">
        <ele>131.36</ele>
        <time>2021-08-09T05:41:54Z</time>
      </trkpt>
      <trkpt lat="49.42218" lon="3.70459">
        <ele>131.84</ele>
        <time>2021-08-09T05:41:59Z</time>
      </trkpt>
      <trkpt lat="49.4221" lon="3.70461">
        <ele>133.76</ele>
        <time>2021-08-09T05:42:08Z</time>
      </trkpt>
      <trkpt lat="49.42208" lon="3.70464">
        <ele>134.24</ele>
        <time>2021-08-09T05:42:11Z</time>
      </trkpt>
      <trkpt lat="49.42207" lon="3.70465">
        <ele>134.24</ele>
        <time>2021-08-09T05:42:12Z</time>
      </trkpt>
      <trkpt lat="49.42206" lon="3.70471">
        <ele>135.2</ele>
        <time>2021-08-09T05:42:17Z</time>
      </trkpt>
      <trkpt lat="49.42206" lon="3.70477">
        <ele>135.68</ele>
        <time>2021-08-09T05:42:23Z</time>
      </trkpt>
      <trkpt lat="49.42208" lon="3.70494">
        <ele>136.16</ele>
        <time>2021-08-09T05:42:30Z</time>
      </trkpt>
      <trkpt lat="49.4221" lon="3.70512">
        <ele>136.64</ele>
        <time>2021-08-09T05:42:36Z</time>
      </trkpt>
      <trkpt lat="49.42213" lon="3.70534">
        <ele>137.13</ele>
        <time>2021-08-09T05:42:44Z</time>
      </trkpt>
      <trkpt lat="49.42215" lon="3.7055">
        <ele>138.57</ele>
        <time>2021-08-09T05:42:51Z</time>
      </trkpt>
      <trkpt lat="49.42219" lon="3.7057">
        <ele>140.01</ele>
        <time>2021-08-09T05:43:00Z</time>
      </trkpt>
      <trkpt lat="49.42221" lon="3.70592">
        <ele>141.93</ele>
        <time>2021-08-09T05:43:10Z</time>
      </trkpt>
      <trkpt lat="49.42222" lon="3.70614">
        <ele>143.37</ele>
        <time>2021-08-09T05:43:19Z</time>
      </trkpt>
      <trkpt lat="49.42222" lon="3.7063">
        <ele>144.82</ele>
        <time>2021-08-09T05:43:26Z</time>
      </trkpt>
      <trkpt lat="49.42223" lon="3.70648">
        <ele>145.78</ele>
        <time>2021-08-09T05:43:33Z</time>
      </trkpt>
      <trkpt lat="49.42226" lon="3.70667">
        <ele>147.22</ele>
        <time>2021-08-09T05:43:41Z</time>
      </trkpt>
      <trkpt lat="49.42228" lon="3.70685">
        <ele>148.18</ele>
        <time>2021-08-09T05:43:48Z</time>
      </trkpt>
      <trkpt lat="49.42234" lon="3.70709">
        <ele>148.66</ele>
        <time>2021-08-09T05:43:55Z</time>
      </trkpt>
      <trkpt lat="49.4225" lon="3.70756">
        <ele>148.66</ele>
        <time>2021-08-09T05:44:05Z</time>
      </trkpt>
      <trkpt lat="49.42266" lon="3.70777">
        <ele>148.66</ele>
        <time>2021-08-09T05:44:12Z</time>
      </trkpt>
      <trkpt lat="49.42285" lon="3.70783">
        <ele>149.14</ele>
        <time>2021-08-09T05:44:19Z</time>
      </trkpt>
      <trkpt lat="49.42308" lon="3.70792">
        <ele>149.62</ele>
        <time>2021-08-09T05:44:27Z</time>
      </trkpt>
      <trkpt lat="49.42334" lon="3.70805">
        <ele>150.58</ele>
        <time>2021-08-09T05:44:36Z</time>
      </trkpt>
      <trkpt lat="49.42366" lon="3.70822">
        <ele>151.06</ele>
        <time>2021-08-09T05:44:46Z</time>
      </trkpt>
      <trkpt lat="49.42399" lon="3.70836">
        <ele>152.03</ele>
        <time>2021-08-09T05:44:56Z</time>
      </trkpt>
      <trkpt lat="49.42415" lon="3.70846">
        <ele>153.47</ele>
        <time>2021-08-09T05:45:04Z</time>
      </trkpt>
      <trkpt lat="49.42416" lon="3.70848">
        <ele>153.95</ele>
        <time>2021-08-09T05:45:05Z</time>
      </trkpt>
      <trkpt lat="49.42417" lon="3.70851">
        <ele>153.95</ele>
        <time>2021-08-09T05:45:06Z</time>
      </trkpt>
      <trkpt lat="49.42417" lon="3.70854">
        <ele>153.95</ele>
        <time>2021-08-09T05:45:07Z</time>
      </trkpt>
      <trkpt lat="49.42418" lon="3.70857">
        <ele>154.91</ele>
        <time>2021-08-09T05:45:08Z</time>
      </trkpt>
      <trkpt lat="49.42418" lon="3.7086">
        <ele>154.91</ele>
        <time>2021-08-09T05:45:09Z</time>
      </trkpt>
      <trkpt lat="49.42418" lon="3.70862">
        <ele>154.91</ele>
        <time>2021-08-09T05:45:10Z</time>
      </trkpt>
      <trkpt lat="49.42419" lon="3.70865">
        <ele>155.39</ele>
        <time>2021-08-09T05:45:11Z</time>
      </trkpt>
      <trkpt lat="49.42422" lon="3.7089">
        <ele>156.83</ele>
        <time>2021-08-09T05:45:20Z</time>
      </trkpt>
      <trkpt lat="49.4242" lon="3.70915">
        <ele>158.75</ele>
        <time>2021-08-09T05:45:29Z</time>
      </trkpt>
      <trkpt lat="49.42408" lon="3.70918">
        <ele>160.2</ele>
        <time>2021-08-09T05:45:36Z</time>
      </trkpt>
      <trkpt lat="49.42398" lon="3.70903">
        <ele>161.16</ele>
        <time>2021-08-09T05:45:44Z</time>
      </trkpt>
      <trkpt lat="49.42381" lon="3.70887">
        <ele>162.6</ele>
        <time>2021-08-09T05:45:54Z</time>
      </trkpt>
      <trkpt lat="49.42367" lon="3.7088">
        <ele>163.56</ele>
        <time>2021-08-09T05:46:02Z</time>
      </trkpt>
      <trkpt lat="49.42353" lon="3.70875">
        <ele>165</ele>
        <time>2021-08-09T05:46:10Z</time>
      </trkpt>
      <trkpt lat="49.42335" lon="3.70871">
        <ele>165.96</ele>
        <time>2021-08-09T05:46:19Z</time>
      </trkpt>
      <trkpt lat="49.42316" lon="3.7087">
        <ele>167.89</ele>
        <time>2021-08-09T05:46:28Z</time>
      </trkpt>
      <trkpt lat="49.42295" lon="3.70867">
        <ele>169.33</ele>
        <time>2021-08-09T05:46:37Z</time>
      </trkpt>
      <trkpt lat="49.42273" lon="3.70869">
        <ele>171.73</ele>
        <time>2021-08-09T05:46:46Z</time>
      </trkpt>
      <trkpt lat="49.4227" lon="3.70871">
        <ele>171.73</ele>
        <time>2021-08-09T05:46:47Z</time>
      </trkpt>
      <trkpt lat="49.42267" lon="3.70872">
        <ele>171.73</ele>
        <time>2021-08-09T05:46:48Z</time>
      </trkpt>
      <trkpt lat="49.42264" lon="3.70873">
        <ele>172.21</ele>
        <time>2021-08-09T05:46:49Z</time>
      </trkpt>
      <trkpt lat="49.42254" lon="3.70876">
        <ele>172.21</ele>
        <time>2021-08-09T05:46:53Z</time>
      </trkpt>
      <trkpt lat="49.4225" lon="3.70877">
        <ele>172.69</ele>
        <time>2021-08-09T05:46:54Z</time>
      </trkpt>
      <trkpt lat="49.42248" lon="3.70878">
        <ele>172.69</ele>
        <time>2021-08-09T05:46:55Z</time>
      </trkpt>
      <trkpt lat="49.42222" lon="3.70897">
        <ele>175.1</ele>
        <time>2021-08-09T05:47:06Z</time>
      </trkpt>
      <trkpt lat="49.42213" lon="3.709">
        <ele>175.58</ele>
        <time>2021-08-09T05:47:10Z</time>
      </trkpt>
      <trkpt lat="49.4221" lon="3.70899">
        <ele>175.58</ele>
        <time>2021-08-09T05:47:11Z</time>
      </trkpt>
      <trkpt lat="49.42208" lon="3.70897">
        <ele>175.58</ele>
        <time>2021-08-09T05:47:12Z</time>
      </trkpt>
      <trkpt lat="49.42195" lon="3.70875">
        <ele>175.58</ele>
        <time>2021-08-09T05:47:19Z</time>
      </trkpt>
      <trkpt lat="49.42183" lon="3.70853">
        <ele>175.58</ele>
        <time>2021-08-09T05:47:26Z</time>
      </trkpt>
      <trkpt lat="49.42172" lon="3.70823">
        <ele>175.58</ele>
        <time>2021-08-09T05:47:34Z</time>
      </trkpt>
      <trkpt lat="49.42167" lon="3.70782">
        <ele>175.58</ele>
        <time>2021-08-09T05:47:42Z</time>
      </trkpt>
      <trkpt lat="49.42161" lon="3.70722">
        <ele>174.14</ele>
        <time>2021-08-09T05:47:52Z</time>
      </trkpt>
      <trkpt lat="49.42159" lon="3.70709">
        <ele>174.14</ele>
        <time>2021-08-09T05:47:54Z</time>
      </trkpt>
      <trkpt lat="49.42157" lon="3.70703">
        <ele>174.14</ele>
        <time>2021-08-09T05:47:55Z</time>
      </trkpt>
      <trkpt lat="49.42156" lon="3.70698">
        <ele>174.14</ele>
        <time>2021-08-09T05:47:56Z</time>
      </trkpt>
      <trkpt lat="49.42154" lon="3.70691">
        <ele>173.66</ele>
        <time>2021-08-09T05:47:57Z</time>
      </trkpt>
      <trkpt lat="49.42152" lon="3.70687">
        <ele>173.66</ele>
        <time>2021-08-09T05:47:58Z</time>
      </trkpt>
      <trkpt lat="49.4213" lon="3.7064">
        <ele>173.17</ele>
        <time>2021-08-09T05:48:07Z</time>
      </trkpt>
      <trkpt lat="49.42111" lon="3.70603">
        <ele>173.17</ele>
        <time>2021-08-09T05:48:15Z</time>
      </trkpt>
      <trkpt lat="49.42086" lon="3.70567">
        <ele>174.14</ele>
        <time>2021-08-09T05:48:25Z</time>
      </trkpt>
      <trkpt lat="49.4206" lon="3.70527">
        <ele>175.1</ele>
        <time>2021-08-09T05:48:36Z</time>
      </trkpt>
      <trkpt lat="49.42035" lon="3.70491">
        <ele>175.58</ele>
        <time>2021-08-09T05:48:47Z</time>
      </trkpt>
      <trkpt lat="49.42003" lon="3.70463">
        <ele>176.54</ele>
        <time>2021-08-09T05:48:59Z</time>
      </trkpt>
      <trkpt lat="49.41971" lon="3.70446">
        <ele>177.02</ele>
        <time>2021-08-09T05:49:10Z</time>
      </trkpt>
      <trkpt lat="49.41949" lon="3.70426">
        <ele>177.5</ele>
        <time>2021-08-09T05:49:18Z</time>
      </trkpt>
      <trkpt lat="49.41926" lon="3.70401">
        <ele>177.98</ele>
        <time>2021-08-09T05:49:26Z</time>
      </trkpt>
      <trkpt lat="49.41906" lon="3.70376">
        <ele>178.94</ele>
        <time>2021-08-09T05:49:35Z</time>
      </trkpt>
      <trkpt lat="49.41889" lon="3.70346">
        <ele>179.9</ele>
        <time>2021-08-09T05:49:45Z</time>
      </trkpt>
      <trkpt lat="49.41875" lon="3.70314">
        <ele>179.9</ele>
        <time>2021-08-09T05:49:53Z</time>
      </trkpt>
      <trkpt lat="49.41853" lon="3.70273">
        <ele>179.9</ele>
        <time>2021-08-09T05:50:03Z</time>
      </trkpt>
      <trkpt lat="49.41828" lon="3.70239">
        <ele>178.94</ele>
        <time>2021-08-09T05:50:12Z</time>
      </trkpt>
      <trkpt lat="49.41807" lon="3.70214">
        <ele>178.94</ele>
        <time>2021-08-09T05:50:20Z</time>
      </trkpt>
      <trkpt lat="49.41778" lon="3.70187">
        <ele>178.94</ele>
        <time>2021-08-09T05:50:30Z</time>
      </trkpt>
      <trkpt lat="49.41759" lon="3.70174">
        <ele>178.94</ele>
        <time>2021-08-09T05:50:36Z</time>
      </trkpt>
      <trkpt lat="49.41732" lon="3.70148">
        <ele>178.94</ele>
        <time>2021-08-09T05:50:45Z</time>
      </trkpt>
      <trkpt lat="49.41712" lon="3.70131">
        <ele>179.9</ele>
        <time>2021-08-09T05:50:52Z</time>
      </trkpt>
      <trkpt lat="49.41687" lon="3.70117">
        <ele>180.87</ele>
        <time>2021-08-09T05:51:01Z</time>
      </trkpt>
      <trkpt lat="49.41659" lon="3.70104">
        <ele>181.83</ele>
        <time>2021-08-09T05:51:12Z</time>
      </trkpt>
      <trkpt lat="49.41632" lon="3.70087">
        <ele>182.79</ele>
        <time>2021-08-09T05:51:23Z</time>
      </trkpt>
      <trkpt lat="49.41612" lon="3.70069">
        <ele>183.27</ele>
        <time>2021-08-09T05:51:31Z</time>
      </trkpt>
      <trkpt lat="49.41585" lon="3.70046">
        <ele>183.27</ele>
        <time>2021-08-09T05:51:40Z</time>
      </trkpt>
      <trkpt lat="49.41554" lon="3.7002">
        <ele>181.35</ele>
        <time>2021-08-09T05:51:49Z</time>
      </trkpt>
      <trkpt lat="49.41543" lon="3.70012">
        <ele>181.35</ele>
        <time>2021-08-09T05:51:52Z</time>
      </trkpt>
      <trkpt lat="49.4154" lon="3.70009">
        <ele>181.35</ele>
        <time>2021-08-09T05:51:53Z</time>
      </trkpt>
      <trkpt lat="49.41502" lon="3.69984">
        <ele>180.38</ele>
        <time>2021-08-09T05:52:03Z</time>
      </trkpt>
      <trkpt lat="49.41467" lon="3.69968">
        <ele>178.46</ele>
        <time>2021-08-09T05:52:12Z</time>
      </trkpt>
      <trkpt lat="49.41441" lon="3.69962">
        <ele>178.46</ele>
        <time>2021-08-09T05:52:19Z</time>
      </trkpt>
      <trkpt lat="49.41421" lon="3.69955">
        <ele>177.98</ele>
        <time>2021-08-09T05:52:24Z</time>
      </trkpt>
      <trkpt lat="49.41396" lon="3.69944">
        <ele>177.98</ele>
        <time>2021-08-09T05:52:31Z</time>
      </trkpt>
      <trkpt lat="49.41353" lon="3.69929">
        <ele>176.54</ele>
        <time>2021-08-09T05:52:43Z</time>
      </trkpt>
      <trkpt lat="49.41331" lon="3.69921">
        <ele>175.1</ele>
        <time>2021-08-09T05:52:48Z</time>
      </trkpt>
      <trkpt lat="49.41308" lon="3.69914">
        <ele>171.25</ele>
        <time>2021-08-09T05:52:52Z</time>
      </trkpt>
      <trkpt lat="49.41288" lon="3.69906">
        <ele>168.37</ele>
        <time>2021-08-09T05:52:55Z</time>
      </trkpt>
      <trkpt lat="49.41267" lon="3.69897">
        <ele>165.48</ele>
        <time>2021-08-09T05:52:59Z</time>
      </trkpt>
      <trkpt lat="49.41262" lon="3.69895">
        <ele>164.52</ele>
        <time>2021-08-09T05:53:00Z</time>
      </trkpt>
      <trkpt lat="49.41245" lon="3.69887">
        <ele>161.16</ele>
        <time>2021-08-09T05:53:03Z</time>
      </trkpt>
      <trkpt lat="49.41232" lon="3.69883">
        <ele>159.72</ele>
        <time>2021-08-09T05:53:05Z</time>
      </trkpt>
      <trkpt lat="49.41226" lon="3.69883">
        <ele>159.72</ele>
        <time>2021-08-09T05:53:06Z</time>
      </trkpt>
      <trkpt lat="49.41221" lon="3.69887">
        <ele>158.75</ele>
        <time>2021-08-09T05:53:07Z</time>
      </trkpt>
      <trkpt lat="49.41218" lon="3.69893">
        <ele>158.27</ele>
        <time>2021-08-09T05:53:08Z</time>
      </trkpt>
      <trkpt lat="49.41215" lon="3.69901">
        <ele>158.27</ele>
        <time>2021-08-09T05:53:09Z</time>
      </trkpt>
      <trkpt lat="49.41213" lon="3.69909">
        <ele>158.27</ele>
        <time>2021-08-09T05:53:10Z</time>
      </trkpt>
      <trkpt lat="49.4119" lon="3.69986">
        <ele>157.31</ele>
        <time>2021-08-09T05:53:20Z</time>
      </trkpt>
      <trkpt lat="49.41167" lon="3.70039">
        <ele>156.83</ele>
        <time>2021-08-09T05:53:30Z</time>
      </trkpt>
      <trkpt lat="49.41141" lon="3.70077">
        <ele>156.83</ele>
        <time>2021-08-09T05:53:39Z</time>
      </trkpt>
      <trkpt lat="49.41107" lon="3.701">
        <ele>154.91</ele>
        <time>2021-08-09T05:53:47Z</time>
      </trkpt>
      <trkpt lat="49.41103" lon="3.70103">
        <ele>154.91</ele>
        <time>2021-08-09T05:53:48Z</time>
      </trkpt>
      <trkpt lat="49.411" lon="3.70107">
        <ele>154.91</ele>
        <time>2021-08-09T05:53:49Z</time>
      </trkpt>
      <trkpt lat="49.41096" lon="3.7011">
        <ele>154.43</ele>
        <time>2021-08-09T05:53:50Z</time>
      </trkpt>
      <trkpt lat="49.41092" lon="3.70114">
        <ele>153.95</ele>
        <time>2021-08-09T05:53:51Z</time>
      </trkpt>
      <trkpt lat="49.41087" lon="3.70117">
        <ele>153.47</ele>
        <time>2021-08-09T05:53:52Z</time>
      </trkpt>
      <trkpt lat="49.41082" lon="3.70122">
        <ele>152.03</ele>
        <time>2021-08-09T05:53:53Z</time>
      </trkpt>
      <trkpt lat="49.41077" lon="3.70129">
        <ele>151.06</ele>
        <time>2021-08-09T05:53:54Z</time>
      </trkpt>
      <trkpt lat="49.41071" lon="3.70137">
        <ele>150.1</ele>
        <time>2021-08-09T05:53:55Z</time>
      </trkpt>
      <trkpt lat="49.41052" lon="3.70162">
        <ele>147.7</ele>
        <time>2021-08-09T05:53:58Z</time>
      </trkpt>
      <trkpt lat="49.41036" lon="3.70176">
        <ele>146.26</ele>
        <time>2021-08-09T05:54:00Z</time>
      </trkpt>
      <trkpt lat="49.41028" lon="3.70182">
        <ele>146.26</ele>
        <time>2021-08-09T05:54:01Z</time>
      </trkpt>
      <trkpt lat="49.41019" lon="3.70187">
        <ele>146.26</ele>
        <time>2021-08-09T05:54:02Z</time>
      </trkpt>
      <trkpt lat="49.41011" lon="3.70189">
        <ele>146.26</ele>
        <time>2021-08-09T05:54:03Z</time>
      </trkpt>
      <trkpt lat="49.41002" lon="3.70188">
        <ele>145.3</ele>
        <time>2021-08-09T05:54:04Z</time>
      </trkpt>
      <trkpt lat="49.40994" lon="3.70186">
        <ele>145.3</ele>
        <time>2021-08-09T05:54:05Z</time>
      </trkpt>
      <trkpt lat="49.40986" lon="3.70182">
        <ele>145.3</ele>
        <time>2021-08-09T05:54:06Z</time>
      </trkpt>
      <trkpt lat="49.40979" lon="3.70178">
        <ele>145.3</ele>
        <time>2021-08-09T05:54:07Z</time>
      </trkpt>
      <trkpt lat="49.40973" lon="3.70172">
        <ele>145.3</ele>
        <time>2021-08-09T05:54:08Z</time>
      </trkpt>
      <trkpt lat="49.40966" lon="3.70166">
        <ele>145.3</ele>
        <time>2021-08-09T05:54:09Z</time>
      </trkpt>
      <trkpt lat="49.40932" lon="3.70137">
        <ele>145.78</ele>
        <time>2021-08-09T05:54:15Z</time>
      </trkpt>
      <trkpt lat="49.40926" lon="3.70136">
        <ele>145.78</ele>
        <time>2021-08-09T05:54:16Z</time>
      </trkpt>
      <trkpt lat="49.40921" lon="3.70137">
        <ele>145.78</ele>
        <time>2021-08-09T05:54:17Z</time>
      </trkpt>
      <trkpt lat="49.40917" lon="3.7014">
        <ele>145.78</ele>
        <time>2021-08-09T05:54:18Z</time>
      </trkpt>
      <trkpt lat="49.40914" lon="3.70146">
        <ele>145.78</ele>
        <time>2021-08-09T05:54:19Z</time>
      </trkpt>
      <trkpt lat="49.40911" lon="3.70152">
        <ele>145.78</ele>
        <time>2021-08-09T05:54:20Z</time>
      </trkpt>
      <trkpt lat="49.4091" lon="3.7016">
        <ele>145.78</ele>
        <time>2021-08-09T05:54:21Z</time>
      </trkpt>
      <trkpt lat="49.40909" lon="3.70167">
        <ele>145.78</ele>
        <time>2021-08-09T05:54:22Z</time>
      </trkpt>
      <trkpt lat="49.40908" lon="3.70175">
        <ele>145.78</ele>
        <time>2021-08-09T05:54:23Z</time>
      </trkpt>
      <trkpt lat="49.40908" lon="3.70182">
        <ele>145.78</ele>
        <time>2021-08-09T05:54:24Z</time>
      </trkpt>
      <trkpt lat="49.40907" lon="3.7019">
        <ele>145.78</ele>
        <time>2021-08-09T05:54:25Z</time>
      </trkpt>
      <trkpt lat="49.40905" lon="3.70225">
        <ele>145.78</ele>
        <time>2021-08-09T05:54:30Z</time>
      </trkpt>
      <trkpt lat="49.40904" lon="3.70232">
        <ele>145.78</ele>
        <time>2021-08-09T05:54:31Z</time>
      </trkpt>
      <trkpt lat="49.40902" lon="3.70239">
        <ele>145.78</ele>
        <time>2021-08-09T05:54:32Z</time>
      </trkpt>
      <trkpt lat="49.40893" lon="3.70274">
        <ele>143.85</ele>
        <time>2021-08-09T05:54:36Z</time>
      </trkpt>
      <trkpt lat="49.40891" lon="3.70285">
        <ele>142.89</ele>
        <time>2021-08-09T05:54:37Z</time>
      </trkpt>
      <trkpt lat="49.40889" lon="3.70295">
        <ele>142.41</ele>
        <time>2021-08-09T05:54:38Z</time>
      </trkpt>
      <trkpt lat="49.40886" lon="3.70304">
        <ele>141.45</ele>
        <time>2021-08-09T05:54:39Z</time>
      </trkpt>
      <trkpt lat="49.40881" lon="3.70313">
        <ele>140.97</ele>
        <time>2021-08-09T05:54:40Z</time>
      </trkpt>
      <trkpt lat="49.40876" lon="3.70321">
        <ele>140.97</ele>
        <time>2021-08-09T05:54:41Z</time>
      </trkpt>
      <trkpt lat="49.40863" lon="3.70339">
        <ele>143.37</ele>
        <time>2021-08-09T05:54:44Z</time>
      </trkpt>
      <trkpt lat="49.40859" lon="3.70342">
        <ele>143.37</ele>
        <time>2021-08-09T05:54:45Z</time>
      </trkpt>
      <trkpt lat="49.40856" lon="3.70344">
        <ele>143.85</ele>
        <time>2021-08-09T05:54:46Z</time>
      </trkpt>
      <trkpt lat="49.40852" lon="3.70345">
        <ele>143.85</ele>
        <time>2021-08-09T05:54:47Z</time>
      </trkpt>
      <trkpt lat="49.40849" lon="3.70346">
        <ele>143.85</ele>
        <time>2021-08-09T05:54:48Z</time>
      </trkpt>
      <trkpt lat="49.40829" lon="3.7034">
        <ele>144.82</ele>
        <time>2021-08-09T05:54:54Z</time>
      </trkpt>
      <trkpt lat="49.40798" lon="3.70315">
        <ele>144.82</ele>
        <time>2021-08-09T05:55:03Z</time>
      </trkpt>
      <trkpt lat="49.40767" lon="3.70283">
        <ele>146.26</ele>
        <time>2021-08-09T05:55:13Z</time>
      </trkpt>
      <trkpt lat="49.40742" lon="3.70249">
        <ele>146.74</ele>
        <time>2021-08-09T05:55:23Z</time>
      </trkpt>
      <trkpt lat="49.40714" lon="3.70211">
        <ele>146.74</ele>
        <time>2021-08-09T05:55:33Z</time>
      </trkpt>
      <trkpt lat="49.40684" lon="3.70166">
        <ele>147.22</ele>
        <time>2021-08-09T05:55:44Z</time>
      </trkpt>
      <trkpt lat="49.40671" lon="3.70147">
        <ele>145.78</ele>
        <time>2021-08-09T05:55:48Z</time>
      </trkpt>
      <trkpt lat="49.40668" lon="3.70141">
        <ele>145.78</ele>
        <time>2021-08-09T05:55:49Z</time>
      </trkpt>
      <trkpt lat="49.40662" lon="3.70126">
        <ele>144.82</ele>
        <time>2021-08-09T05:55:51Z</time>
      </trkpt>
      <trkpt lat="49.40645" lon="3.70076">
        <ele>141.45</ele>
        <time>2021-08-09T05:55:56Z</time>
      </trkpt>
      <trkpt lat="49.40641" lon="3.70064">
        <ele>140.01</ele>
        <time>2021-08-09T05:55:57Z</time>
      </trkpt>
      <trkpt lat="49.40636" lon="3.70054">
        <ele>139.53</ele>
        <time>2021-08-09T05:55:58Z</time>
      </trkpt>
      <trkpt lat="49.4063" lon="3.70043">
        <ele>138.57</ele>
        <time>2021-08-09T05:55:59Z</time>
      </trkpt>
      <trkpt lat="49.40623" lon="3.70033">
        <ele>138.57</ele>
        <time>2021-08-09T05:56:00Z</time>
      </trkpt>
      <trkpt lat="49.40593" lon="3.69984">
        <ele>136.64</ele>
        <time>2021-08-09T05:56:05Z</time>
      </trkpt>
      <trkpt lat="49.40589" lon="3.69973">
        <ele>136.64</ele>
        <time>2021-08-09T05:56:06Z</time>
      </trkpt>
      <trkpt lat="49.40587" lon="3.69962">
        <ele>136.64</ele>
        <time>2021-08-09T05:56:07Z</time>
      </trkpt>
      <trkpt lat="49.40585" lon="3.69951">
        <ele>136.64</ele>
        <time>2021-08-09T05:56:08Z</time>
      </trkpt>
      <trkpt lat="49.40583" lon="3.6994">
        <ele>136.64</ele>
        <time>2021-08-09T05:56:09Z</time>
      </trkpt>
      <trkpt lat="49.40583" lon="3.6993">
        <ele>136.64</ele>
        <time>2021-08-09T05:56:10Z</time>
      </trkpt>
      <trkpt lat="49.4058" lon="3.69899">
        <ele>138.09</ele>
        <time>2021-08-09T05:56:14Z</time>
      </trkpt>
      <trkpt lat="49.40578" lon="3.69883">
        <ele>140.01</ele>
        <time>2021-08-09T05:56:19Z</time>
      </trkpt>
      <trkpt lat="49.40577" lon="3.69866">
        <ele>140.97</ele>
        <time>2021-08-09T05:56:25Z</time>
      </trkpt>
      <trkpt lat="49.40576" lon="3.69863">
        <ele>140.97</ele>
        <time>2021-08-09T05:56:26Z</time>
      </trkpt>
      <trkpt lat="49.40574" lon="3.69861">
        <ele>140.97</ele>
        <time>2021-08-09T05:56:27Z</time>
      </trkpt>
      <trkpt lat="49.40559" lon="3.6984">
        <ele>140.97</ele>
        <time>2021-08-09T05:56:34Z</time>
      </trkpt>
      <trkpt lat="49.40556" lon="3.69836">
        <ele>140.97</ele>
        <time>2021-08-09T05:56:35Z</time>
      </trkpt>
      <trkpt lat="49.40543" lon="3.69816">
        <ele>139.53</ele>
        <time>2021-08-09T05:56:39Z</time>
      </trkpt>
      <trkpt lat="49.40525" lon="3.69781">
        <ele>138.09</ele>
        <time>2021-08-09T05:56:45Z</time>
      </trkpt>
      <trkpt lat="49.40506" lon="3.69731">
        <ele>138.09</ele>
        <time>2021-08-09T05:56:54Z</time>
      </trkpt>
      <trkpt lat="49.40492" lon="3.69693">
        <ele>139.53</ele>
        <time>2021-08-09T05:57:02Z</time>
      </trkpt>
      <trkpt lat="49.40491" lon="3.69688">
        <ele>139.53</ele>
        <time>2021-08-09T05:57:03Z</time>
      </trkpt>
      <trkpt lat="49.4048" lon="3.69658">
        <ele>140.49</ele>
        <time>2021-08-09T05:57:11Z</time>
      </trkpt>
      <trkpt lat="49.40463" lon="3.69635">
        <ele>140.97</ele>
        <time>2021-08-09T05:57:19Z</time>
      </trkpt>
      <trkpt lat="49.40429" lon="3.69602">
        <ele>139.53</ele>
        <time>2021-08-09T05:57:29Z</time>
      </trkpt>
      <trkpt lat="49.40411" lon="3.69572">
        <ele>139.53</ele>
        <time>2021-08-09T05:57:36Z</time>
      </trkpt>
      <trkpt lat="49.40388" lon="3.6954">
        <ele>139.53</ele>
        <time>2021-08-09T05:57:45Z</time>
      </trkpt>
      <trkpt lat="49.4038" lon="3.69531">
        <ele>140.49</ele>
        <time>2021-08-09T05:57:48Z</time>
      </trkpt>
      <trkpt lat="49.40359" lon="3.69512">
        <ele>140.97</ele>
        <time>2021-08-09T05:57:56Z</time>
      </trkpt>
      <trkpt lat="49.4034" lon="3.69495">
        <ele>141.93</ele>
        <time>2021-08-09T05:58:04Z</time>
      </trkpt>
      <trkpt lat="49.40319" lon="3.69478">
        <ele>142.89</ele>
        <time>2021-08-09T05:58:13Z</time>
      </trkpt>
      <trkpt lat="49.40297" lon="3.69467">
        <ele>143.85</ele>
        <time>2021-08-09T05:58:23Z</time>
      </trkpt>
      <trkpt lat="49.4028" lon="3.69452">
        <ele>146.26</ele>
        <time>2021-08-09T05:58:33Z</time>
      </trkpt>
      <trkpt lat="49.40269" lon="3.69438">
        <ele>146.74</ele>
        <time>2021-08-09T05:58:41Z</time>
      </trkpt>
      <trkpt lat="49.40259" lon="3.6942">
        <ele>147.7</ele>
        <time>2021-08-09T05:58:49Z</time>
      </trkpt>
      <trkpt lat="49.40246" lon="3.69397">
        <ele>148.66</ele>
        <time>2021-08-09T05:58:59Z</time>
      </trkpt>
      <trkpt lat="49.40235" lon="3.69379">
        <ele>150.58</ele>
        <time>2021-08-09T05:59:09Z</time>
      </trkpt>
      <trkpt lat="49.40232" lon="3.69361">
        <ele>151.06</ele>
        <time>2021-08-09T05:59:16Z</time>
      </trkpt>
      <trkpt lat="49.40234" lon="3.69336">
        <ele>149.62</ele>
        <time>2021-08-09T05:59:21Z</time>
      </trkpt>
      <trkpt lat="49.40233" lon="3.69322">
        <ele>149.62</ele>
        <time>2021-08-09T05:59:23Z</time>
      </trkpt>
      <trkpt lat="49.40231" lon="3.69302">
        <ele>149.62</ele>
        <time>2021-08-09T05:59:26Z</time>
      </trkpt>
      <trkpt lat="49.40221" lon="3.6926">
        <ele>149.62</ele>
        <time>2021-08-09T05:59:33Z</time>
      </trkpt>
      <trkpt lat="49.40208" lon="3.69206">
        <ele>149.62</ele>
        <time>2021-08-09T05:59:43Z</time>
      </trkpt>
      <trkpt lat="49.40204" lon="3.69175">
        <ele>148.66</ele>
        <time>2021-08-09T05:59:48Z</time>
      </trkpt>
      <trkpt lat="49.40188" lon="3.69145">
        <ele>148.18</ele>
        <time>2021-08-09T05:59:53Z</time>
      </trkpt>
      <trkpt lat="49.40183" lon="3.6914">
        <ele>148.18</ele>
        <time>2021-08-09T05:59:54Z</time>
      </trkpt>
      <trkpt lat="49.40178" lon="3.69136">
        <ele>147.7</ele>
        <time>2021-08-09T05:59:55Z</time>
      </trkpt>
      <trkpt lat="49.40173" lon="3.69132">
        <ele>147.7</ele>
        <time>2021-08-09T05:59:56Z</time>
      </trkpt>
      <trkpt lat="49.4017" lon="3.6913">
        <ele>147.7</ele>
        <time>2021-08-09T05:59:57Z</time>
      </trkpt>
      <trkpt lat="49.40164" lon="3.69124">
        <ele>149.14</ele>
        <time>2021-08-09T05:59:59Z</time>
      </trkpt>
      <trkpt lat="49.40151" lon="3.69097">
        <ele>149.62</ele>
        <time>2021-08-09T06:00:05Z</time>
      </trkpt>
      <trkpt lat="49.40144" lon="3.69066">
        <ele>149.62</ele>
        <time>2021-08-09T06:00:10Z</time>
      </trkpt>
      <trkpt lat="49.40136" lon="3.69041">
        <ele>149.62</ele>
        <time>2021-08-09T06:00:14Z</time>
      </trkpt>
      <trkpt lat="49.40133" lon="3.69038">
        <ele>149.62</ele>
        <time>2021-08-09T06:00:15Z</time>
      </trkpt>
      <trkpt lat="49.4013" lon="3.69038">
        <ele>150.1</ele>
        <time>2021-08-09T06:00:16Z</time>
      </trkpt>
      <trkpt lat="49.40127" lon="3.69039">
        <ele>150.1</ele>
        <time>2021-08-09T06:00:17Z</time>
      </trkpt>
      <trkpt lat="49.40123" lon="3.69041">
        <ele>150.1</ele>
        <time>2021-08-09T06:00:18Z</time>
      </trkpt>
      <trkpt lat="49.40097" lon="3.69055">
        <ele>150.1</ele>
        <time>2021-08-09T06:00:26Z</time>
      </trkpt>
      <trkpt lat="49.4009" lon="3.69058">
        <ele>150.1</ele>
        <time>2021-08-09T06:00:28Z</time>
      </trkpt>
      <trkpt lat="49.40086" lon="3.6906">
        <ele>149.14</ele>
        <time>2021-08-09T06:00:29Z</time>
      </trkpt>
      <trkpt lat="49.40078" lon="3.69063">
        <ele>148.18</ele>
        <time>2021-08-09T06:00:31Z</time>
      </trkpt>
      <trkpt lat="49.40068" lon="3.69067">
        <ele>147.7</ele>
        <time>2021-08-09T06:00:33Z</time>
      </trkpt>
      <trkpt lat="49.40064" lon="3.69067">
        <ele>147.22</ele>
        <time>2021-08-09T06:00:34Z</time>
      </trkpt>
      <trkpt lat="49.40056" lon="3.69068">
        <ele>146.74</ele>
        <time>2021-08-09T06:00:36Z</time>
      </trkpt>
      <trkpt lat="49.40053" lon="3.69071">
        <ele>146.26</ele>
        <time>2021-08-09T06:00:37Z</time>
      </trkpt>
      <trkpt lat="49.4005" lon="3.69073">
        <ele>145.78</ele>
        <time>2021-08-09T06:00:38Z</time>
      </trkpt>
      <trkpt lat="49.40035" lon="3.6908">
        <ele>141.93</ele>
        <time>2021-08-09T06:00:42Z</time>
      </trkpt>
      <trkpt lat="49.40022" lon="3.69087">
        <ele>138.57</ele>
        <time>2021-08-09T06:00:45Z</time>
      </trkpt>
      <trkpt lat="49.40014" lon="3.6909">
        <ele>136.64</ele>
        <time>2021-08-09T06:00:48Z</time>
      </trkpt>
      <trkpt lat="49.40013" lon="3.6909">
        <ele>136.64</ele>
        <time>2021-08-09T06:00:49Z</time>
      </trkpt>
      <trkpt lat="49.40012" lon="3.69089">
        <ele>136.16</ele>
        <time>2021-08-09T06:00:50Z</time>
      </trkpt>
      <trkpt lat="49.4001" lon="3.69087">
        <ele>136.16</ele>
        <time>2021-08-09T06:00:51Z</time>
      </trkpt>
      <trkpt lat="49.40009" lon="3.69086">
        <ele>136.16</ele>
        <time>2021-08-09T06:00:52Z</time>
      </trkpt>
      <trkpt lat="49.40007" lon="3.69083">
        <ele>136.16</ele>
        <time>2021-08-09T06:00:57Z</time>
      </trkpt>
      <trkpt lat="49.40007" lon="3.69082">
        <ele>136.64</ele>
        <time>2021-08-09T06:01:06Z</time>
      </trkpt>
      <trkpt lat="49.40006" lon="3.69082">
        <ele>136.64</ele>
        <time>2021-08-09T06:01:25Z</time>
      </trkpt>
      <trkpt lat="49.40006" lon="3.69082">
        <ele>136.64</ele>
        <time>2021-08-09T06:01:49Z</time>
      </trkpt>
      <trkpt lat="49.40006" lon="3.69083">
        <ele>136.16</ele>
        <time>2021-08-09T06:02:05Z</time>
      </trkpt>
      <trkpt lat="49.40006" lon="3.6908">
        <ele>136.16</ele>
        <time>2021-08-09T06:02:26Z</time>
      </trkpt>
      <trkpt lat="49.40007" lon="3.69082">
        <ele>136.16</ele>
        <time>2021-08-09T06:02:50Z</time>
      </trkpt>
      <trkpt lat="49.40007" lon="3.69082">
        <ele>136.16</ele>
        <time>2021-08-09T06:03:08Z</time>
      </trkpt>
      <trkpt lat="49.40009" lon="3.69081">
        <ele>136.16</ele>
        <time>2021-08-09T06:03:23Z</time>
      </trkpt>
      <trkpt lat="49.4001" lon="3.69082">
        <ele>136.16</ele>
        <time>2021-08-09T06:03:28Z</time>
      </trkpt>
      <trkpt lat="49.40011" lon="3.69082">
        <ele>136.16</ele>
        <time>2021-08-09T06:03:29Z</time>
      </trkpt>
      <trkpt lat="49.40012" lon="3.69079">
        <ele>136.16</ele>
        <time>2021-08-09T06:03:31Z</time>
      </trkpt>
      <trkpt lat="49.40011" lon="3.69077">
        <ele>136.16</ele>
        <time>2021-08-09T06:03:32Z</time>
      </trkpt>
      <trkpt lat="49.40011" lon="3.69075">
        <ele>136.16</ele>
        <time>2021-08-09T06:03:33Z</time>
      </trkpt>
      <trkpt lat="49.40006" lon="3.69053">
        <ele>135.68</ele>
        <time>2021-08-09T06:03:39Z</time>
      </trkpt>
      <trkpt lat="49.40004" lon="3.69031">
        <ele>135.68</ele>
        <time>2021-08-09T06:03:43Z</time>
      </trkpt>
      <trkpt lat="49.39995" lon="3.6897">
        <ele>135.2</ele>
        <time>2021-08-09T06:03:52Z</time>
      </trkpt>
      <trkpt lat="49.39983" lon="3.68904">
        <ele>135.2</ele>
        <time>2021-08-09T06:04:02Z</time>
      </trkpt>
      <trkpt lat="49.39968" lon="3.6883">
        <ele>135.2</ele>
        <time>2021-08-09T06:04:13Z</time>
      </trkpt>
      <trkpt lat="49.39965" lon="3.68817">
        <ele>134.72</ele>
        <time>2021-08-09T06:04:15Z</time>
      </trkpt>
      <trkpt lat="49.39963" lon="3.68811">
        <ele>134.72</ele>
        <time>2021-08-09T06:04:16Z</time>
      </trkpt>
      <trkpt lat="49.3996" lon="3.68805">
        <ele>134.72</ele>
        <time>2021-08-09T06:04:17Z</time>
      </trkpt>
      <trkpt lat="49.39943" lon="3.68753">
        <ele>134.72</ele>
        <time>2021-08-09T06:04:25Z</time>
      </trkpt>
      <trkpt lat="49.39939" lon="3.68721">
        <ele>136.16</ele>
        <time>2021-08-09T06:04:30Z</time>
      </trkpt>
      <trkpt lat="49.39937" lon="3.68695">
        <ele>137.61</ele>
        <time>2021-08-09T06:04:37Z</time>
      </trkpt>
      <trkpt lat="49.39933" lon="3.68675">
        <ele>139.05</ele>
        <time>2021-08-09T06:04:44Z</time>
      </trkpt>
      <trkpt lat="49.39926" lon="3.68647">
        <ele>140.49</ele>
        <time>2021-08-09T06:04:53Z</time>
      </trkpt>
      <trkpt lat="49.39915" lon="3.68619">
        <ele>140.97</ele>
        <time>2021-08-09T06:05:02Z</time>
      </trkpt>
      <trkpt lat="49.39906" lon="3.68598">
        <ele>141.45</ele>
        <time>2021-08-09T06:05:08Z</time>
      </trkpt>
      <trkpt lat="49.3989" lon="3.68566">
        <ele>141.45</ele>
        <time>2021-08-09T06:05:16Z</time>
      </trkpt>
      <trkpt lat="49.3987" lon="3.68529">
        <ele>141.93</ele>
        <time>2021-08-09T06:05:25Z</time>
      </trkpt>
      <trkpt lat="49.39848" lon="3.68491">
        <ele>142.41</ele>
        <time>2021-08-09T06:05:34Z</time>
      </trkpt>
      <trkpt lat="49.39838" lon="3.68476">
        <ele>142.41</ele>
        <time>2021-08-09T06:05:37Z</time>
      </trkpt>
      <trkpt lat="49.39831" lon="3.68467">
        <ele>140.97</ele>
        <time>2021-08-09T06:05:39Z</time>
      </trkpt>
      <trkpt lat="49.39824" lon="3.6846">
        <ele>140.97</ele>
        <time>2021-08-09T06:05:41Z</time>
      </trkpt>
      <trkpt lat="49.39814" lon="3.68448">
        <ele>140.49</ele>
        <time>2021-08-09T06:05:44Z</time>
      </trkpt>
      <trkpt lat="49.39779" lon="3.68405">
        <ele>139.05</ele>
        <time>2021-08-09T06:05:53Z</time>
      </trkpt>
      <trkpt lat="49.39774" lon="3.68401">
        <ele>138.57</ele>
        <time>2021-08-09T06:05:54Z</time>
      </trkpt>
      <trkpt lat="49.39769" lon="3.68397">
        <ele>138.57</ele>
        <time>2021-08-09T06:05:55Z</time>
      </trkpt>
      <trkpt lat="49.39764" lon="3.68395">
        <ele>138.57</ele>
        <time>2021-08-09T06:05:56Z</time>
      </trkpt>
      <trkpt lat="49.3976" lon="3.68393">
        <ele>138.57</ele>
        <time>2021-08-09T06:05:57Z</time>
      </trkpt>
      <trkpt lat="49.3972" lon="3.68383">
        <ele>136.64</ele>
        <time>2021-08-09T06:06:04Z</time>
      </trkpt>
      <trkpt lat="49.39715" lon="3.68382">
        <ele>136.64</ele>
        <time>2021-08-09T06:06:05Z</time>
      </trkpt>
      <trkpt lat="49.39692" lon="3.6838">
        <ele>136.16</ele>
        <time>2021-08-09T06:06:09Z</time>
      </trkpt>
      <trkpt lat="49.39687" lon="3.6838">
        <ele>135.2</ele>
        <time>2021-08-09T06:06:10Z</time>
      </trkpt>
      <trkpt lat="49.39684" lon="3.68381">
        <ele>135.2</ele>
        <time>2021-08-09T06:06:11Z</time>
      </trkpt>
      <trkpt lat="49.39682" lon="3.68382">
        <ele>135.2</ele>
        <time>2021-08-09T06:06:12Z</time>
      </trkpt>
      <trkpt lat="49.39678" lon="3.68381">
        <ele>134.72</ele>
        <time>2021-08-09T06:06:16Z</time>
      </trkpt>
      <trkpt lat="49.39677" lon="3.68381">
        <ele>134.72</ele>
        <time>2021-08-09T06:06:17Z</time>
      </trkpt>
      <trkpt lat="49.39661" lon="3.68379">
        <ele>133.76</ele>
        <time>2021-08-09T06:06:23Z</time>
      </trkpt>
      <trkpt lat="49.39642" lon="3.68379">
        <ele>132.32</ele>
        <time>2021-08-09T06:06:28Z</time>
      </trkpt>
      <trkpt lat="49.39638" lon="3.68379">
        <ele>132.32</ele>
        <time>2021-08-09T06:06:29Z</time>
      </trkpt>
      <trkpt lat="49.39633" lon="3.68377">
        <ele>131.84</ele>
        <time>2021-08-09T06:06:30Z</time>
      </trkpt>
      <trkpt lat="49.39628" lon="3.68377">
        <ele>130.88</ele>
        <time>2021-08-09T06:06:31Z</time>
      </trkpt>
      <trkpt lat="49.39623" lon="3.68377">
        <ele>130.4</ele>
        <time>2021-08-09T06:06:32Z</time>
      </trkpt>
      <trkpt lat="49.39617" lon="3.68377">
        <ele>129.43</ele>
        <time>2021-08-09T06:06:33Z</time>
      </trkpt>
      <trkpt lat="49.39611" lon="3.68378">
        <ele>128.95</ele>
        <time>2021-08-09T06:06:34Z</time>
      </trkpt>
      <trkpt lat="49.39601" lon="3.68379">
        <ele>127.99</ele>
        <time>2021-08-09T06:06:36Z</time>
      </trkpt>
      <trkpt lat="49.39591" lon="3.6838">
        <ele>127.03</ele>
        <time>2021-08-09T06:06:38Z</time>
      </trkpt>
      <trkpt lat="49.39564" lon="3.68374">
        <ele>123.67</ele>
        <time>2021-08-09T06:06:43Z</time>
      </trkpt>
      <trkpt lat="49.39547" lon="3.68371">
        <ele>120.3</ele>
        <time>2021-08-09T06:06:46Z</time>
      </trkpt>
      <trkpt lat="49.3954" lon="3.68372">
        <ele>119.34</ele>
        <time>2021-08-09T06:06:47Z</time>
      </trkpt>
      <trkpt lat="49.39533" lon="3.68375">
        <ele>117.9</ele>
        <time>2021-08-09T06:06:48Z</time>
      </trkpt>
      <trkpt lat="49.39528" lon="3.68379">
        <ele>116.46</ele>
        <time>2021-08-09T06:06:49Z</time>
      </trkpt>
      <trkpt lat="49.39524" lon="3.68386">
        <ele>115.5</ele>
        <time>2021-08-09T06:06:50Z</time>
      </trkpt>
      <trkpt lat="49.39519" lon="3.68394">
        <ele>114.05</ele>
        <time>2021-08-09T06:06:51Z</time>
      </trkpt>
      <trkpt lat="49.39514" lon="3.68401">
        <ele>114.05</ele>
        <time>2021-08-09T06:06:52Z</time>
      </trkpt>
      <trkpt lat="49.3951" lon="3.6841">
        <ele>113.09</ele>
        <time>2021-08-09T06:06:53Z</time>
      </trkpt>
      <trkpt lat="49.39504" lon="3.68425">
        <ele>111.17</ele>
        <time>2021-08-09T06:06:55Z</time>
      </trkpt>
      <trkpt lat="49.39499" lon="3.6843">
        <ele>109.73</ele>
        <time>2021-08-09T06:06:56Z</time>
      </trkpt>
      <trkpt lat="49.39494" lon="3.68433">
        <ele>108.77</ele>
        <time>2021-08-09T06:06:57Z</time>
      </trkpt>
      <trkpt lat="49.39488" lon="3.68436">
        <ele>107.81</ele>
        <time>2021-08-09T06:06:58Z</time>
      </trkpt>
      <trkpt lat="49.39483" lon="3.68437">
        <ele>106.84</ele>
        <time>2021-08-09T06:06:59Z</time>
      </trkpt>
      <trkpt lat="49.39477" lon="3.68439">
        <ele>105.88</ele>
        <time>2021-08-09T06:07:00Z</time>
      </trkpt>
      <trkpt lat="49.39474" lon="3.68441">
        <ele>105.4</ele>
        <time>2021-08-09T06:07:01Z</time>
      </trkpt>
      <trkpt lat="49.39471" lon="3.68443">
        <ele>104.92</ele>
        <time>2021-08-09T06:07:02Z</time>
      </trkpt>
      <trkpt lat="49.39469" lon="3.68445">
        <ele>103.96</ele>
        <time>2021-08-09T06:07:03Z</time>
      </trkpt>
      <trkpt lat="49.39467" lon="3.68446">
        <ele>103.48</ele>
        <time>2021-08-09T06:07:04Z</time>
      </trkpt>
      <trkpt lat="49.39465" lon="3.68446">
        <ele>102.52</ele>
        <time>2021-08-09T06:07:05Z</time>
      </trkpt>
      <trkpt lat="49.39457" lon="3.68445">
        <ele>99.15</ele>
        <time>2021-08-09T06:07:09Z</time>
      </trkpt>
      <trkpt lat="49.39447" lon="3.68441">
        <ele>95.79</ele>
        <time>2021-08-09T06:07:12Z</time>
      </trkpt>
      <trkpt lat="49.39443" lon="3.68439">
        <ele>94.83</ele>
        <time>2021-08-09T06:07:13Z</time>
      </trkpt>
      <trkpt lat="49.39439" lon="3.68439">
        <ele>94.35</ele>
        <time>2021-08-09T06:07:14Z</time>
      </trkpt>
      <trkpt lat="49.39434" lon="3.6844">
        <ele>93.87</ele>
        <time>2021-08-09T06:07:15Z</time>
      </trkpt>
      <trkpt lat="49.39421" lon="3.68444">
        <ele>90.98</ele>
        <time>2021-08-09T06:07:18Z</time>
      </trkpt>
      <trkpt lat="49.39416" lon="3.68448">
        <ele>90.02</ele>
        <time>2021-08-09T06:07:19Z</time>
      </trkpt>
      <trkpt lat="49.39411" lon="3.68452">
        <ele>88.58</ele>
        <time>2021-08-09T06:07:20Z</time>
      </trkpt>
      <trkpt lat="49.39407" lon="3.68457">
        <ele>87.62</ele>
        <time>2021-08-09T06:07:21Z</time>
      </trkpt>
      <trkpt lat="49.39402" lon="3.68462">
        <ele>87.14</ele>
        <time>2021-08-09T06:07:22Z</time>
      </trkpt>
      <trkpt lat="49.39397" lon="3.68466">
        <ele>87.14</ele>
        <time>2021-08-09T06:07:23Z</time>
      </trkpt>
      <trkpt lat="49.39391" lon="3.68481">
        <ele>85.69</ele>
        <time>2021-08-09T06:07:26Z</time>
      </trkpt>
      <trkpt lat="49.39391" lon="3.68487">
        <ele>85.21</ele>
        <time>2021-08-09T06:07:27Z</time>
      </trkpt>
      <trkpt lat="49.39394" lon="3.68513">
        <ele>81.85</ele>
        <time>2021-08-09T06:07:30Z</time>
      </trkpt>
      <trkpt lat="49.39395" lon="3.68521">
        <ele>81.37</ele>
        <time>2021-08-09T06:07:31Z</time>
      </trkpt>
      <trkpt lat="49.39396" lon="3.68528">
        <ele>80.89</ele>
        <time>2021-08-09T06:07:32Z</time>
      </trkpt>
      <trkpt lat="49.39396" lon="3.68545">
        <ele>78.97</ele>
        <time>2021-08-09T06:07:35Z</time>
      </trkpt>
      <trkpt lat="49.39394" lon="3.68554">
        <ele>78.97</ele>
        <time>2021-08-09T06:07:36Z</time>
      </trkpt>
      <trkpt lat="49.39393" lon="3.6856">
        <ele>78.48</ele>
        <time>2021-08-09T06:07:37Z</time>
      </trkpt>
      <trkpt lat="49.3939" lon="3.68567">
        <ele>77.52</ele>
        <time>2021-08-09T06:07:38Z</time>
      </trkpt>
      <trkpt lat="49.39386" lon="3.68574">
        <ele>77.04</ele>
        <time>2021-08-09T06:07:39Z</time>
      </trkpt>
      <trkpt lat="49.39382" lon="3.6858">
        <ele>76.56</ele>
        <time>2021-08-09T06:07:40Z</time>
      </trkpt>
      <trkpt lat="49.39364" lon="3.68602">
        <ele>73.2</ele>
        <time>2021-08-09T06:07:44Z</time>
      </trkpt>
      <trkpt lat="49.39359" lon="3.68607">
        <ele>72.72</ele>
        <time>2021-08-09T06:07:45Z</time>
      </trkpt>
      <trkpt lat="49.39322" lon="3.68644">
        <ele>69.35</ele>
        <time>2021-08-09T06:07:51Z</time>
      </trkpt>
      <trkpt lat="49.39309" lon="3.6866">
        <ele>68.39</ele>
        <time>2021-08-09T06:07:53Z</time>
      </trkpt>
      <trkpt lat="49.39271" lon="3.68709">
        <ele>65.51</ele>
        <time>2021-08-09T06:08:00Z</time>
      </trkpt>
      <trkpt lat="49.39266" lon="3.68711">
        <ele>65.51</ele>
        <time>2021-08-09T06:08:01Z</time>
      </trkpt>
      <trkpt lat="49.39261" lon="3.6871">
        <ele>64.55</ele>
        <time>2021-08-09T06:08:02Z</time>
      </trkpt>
      <trkpt lat="49.39256" lon="3.68708">
        <ele>64.55</ele>
        <time>2021-08-09T06:08:03Z</time>
      </trkpt>
      <trkpt lat="49.39252" lon="3.68705">
        <ele>64.07</ele>
        <time>2021-08-09T06:08:04Z</time>
      </trkpt>
      <trkpt lat="49.3922" lon="3.68684">
        <ele>62.62</ele>
        <time>2021-08-09T06:08:10Z</time>
      </trkpt>
      <trkpt lat="49.39214" lon="3.68684">
        <ele>61.66</ele>
        <time>2021-08-09T06:08:11Z</time>
      </trkpt>
      <trkpt lat="49.39207" lon="3.68684">
        <ele>60.7</ele>
        <time>2021-08-09T06:08:12Z</time>
      </trkpt>
      <trkpt lat="49.39201" lon="3.68686">
        <ele>60.7</ele>
        <time>2021-08-09T06:08:13Z</time>
      </trkpt>
      <trkpt lat="49.39175" lon="3.68694">
        <ele>59.74</ele>
        <time>2021-08-09T06:08:17Z</time>
      </trkpt>
      <trkpt lat="49.3917" lon="3.68693">
        <ele>59.74</ele>
        <time>2021-08-09T06:08:18Z</time>
      </trkpt>
      <trkpt lat="49.39165" lon="3.68689">
        <ele>59.26</ele>
        <time>2021-08-09T06:08:19Z</time>
      </trkpt>
      <trkpt lat="49.3916" lon="3.68684">
        <ele>59.26</ele>
        <time>2021-08-09T06:08:20Z</time>
      </trkpt>
      <trkpt lat="49.39157" lon="3.68677">
        <ele>59.26</ele>
        <time>2021-08-09T06:08:21Z</time>
      </trkpt>
      <trkpt lat="49.39154" lon="3.68671">
        <ele>58.78</ele>
        <time>2021-08-09T06:08:22Z</time>
      </trkpt>
      <trkpt lat="49.3915" lon="3.68664">
        <ele>58.78</ele>
        <time>2021-08-09T06:08:23Z</time>
      </trkpt>
      <trkpt lat="49.39146" lon="3.68658">
        <ele>58.78</ele>
        <time>2021-08-09T06:08:24Z</time>
      </trkpt>
      <trkpt lat="49.39142" lon="3.68654">
        <ele>58.78</ele>
        <time>2021-08-09T06:08:25Z</time>
      </trkpt>
      <trkpt lat="49.39138" lon="3.6865">
        <ele>58.78</ele>
        <time>2021-08-09T06:08:26Z</time>
      </trkpt>
      <trkpt lat="49.39134" lon="3.68649">
        <ele>58.3</ele>
        <time>2021-08-09T06:08:27Z</time>
      </trkpt>
      <trkpt lat="49.39131" lon="3.6865">
        <ele>58.3</ele>
        <time>2021-08-09T06:08:28Z</time>
      </trkpt>
      <trkpt lat="49.39128" lon="3.68651">
        <ele>58.3</ele>
        <time>2021-08-09T06:08:29Z</time>
      </trkpt>
      <trkpt lat="49.39112" lon="3.68667">
        <ele>57.34</ele>
        <time>2021-08-09T06:08:34Z</time>
      </trkpt>
      <trkpt lat="49.39108" lon="3.6867">
        <ele>57.34</ele>
        <time>2021-08-09T06:08:35Z</time>
      </trkpt>
      <trkpt lat="49.39104" lon="3.68673">
        <ele>56.86</ele>
        <time>2021-08-09T06:08:36Z</time>
      </trkpt>
      <trkpt lat="49.39072" lon="3.6869">
        <ele>55.41</ele>
        <time>2021-08-09T06:08:43Z</time>
      </trkpt>
      <trkpt lat="49.39071" lon="3.68693">
        <ele>55.41</ele>
        <time>2021-08-09T06:08:44Z</time>
      </trkpt>
      <trkpt lat="49.39072" lon="3.68696">
        <ele>55.41</ele>
        <time>2021-08-09T06:08:45Z</time>
      </trkpt>
      <trkpt lat="49.39075" lon="3.68696">
        <ele>55.41</ele>
        <time>2021-08-09T06:08:46Z</time>
      </trkpt>
      <trkpt lat="49.39077" lon="3.68695">
        <ele>55.41</ele>
        <time>2021-08-09T06:08:47Z</time>
      </trkpt>
      <trkpt lat="49.39079" lon="3.68692">
        <ele>55.41</ele>
        <time>2021-08-09T06:08:48Z</time>
      </trkpt>
      <trkpt lat="49.39081" lon="3.6869">
        <ele>55.41</ele>
        <time>2021-08-09T06:08:49Z</time>
      </trkpt>
      <trkpt lat="49.39084" lon="3.68688">
        <ele>55.41</ele>
        <time>2021-08-09T06:08:50Z</time>
      </trkpt>
      <trkpt lat="49.39086" lon="3.68686">
        <ele>55.41</ele>
        <time>2021-08-09T06:08:51Z</time>
      </trkpt>
      <trkpt lat="49.39101" lon="3.68674">
        <ele>56.86</ele>
        <time>2021-08-09T06:08:58Z</time>
      </trkpt>
      <trkpt lat="49.39121" lon="3.68646">
        <ele>57.34</ele>
        <time>2021-08-09T06:09:06Z</time>
      </trkpt>
      <trkpt lat="49.39121" lon="3.68639">
        <ele>57.82</ele>
        <time>2021-08-09T06:09:07Z</time>
      </trkpt>
      <trkpt lat="49.3912" lon="3.68634">
        <ele>57.82</ele>
        <time>2021-08-09T06:09:08Z</time>
      </trkpt>
      <trkpt lat="49.39118" lon="3.68631">
        <ele>57.82</ele>
        <time>2021-08-09T06:09:09Z</time>
      </trkpt>
      <trkpt lat="49.39115" lon="3.68627">
        <ele>57.82</ele>
        <time>2021-08-09T06:09:10Z</time>
      </trkpt>
      <trkpt lat="49.39112" lon="3.68622">
        <ele>57.82</ele>
        <time>2021-08-09T06:09:11Z</time>
      </trkpt>
      <trkpt lat="49.39109" lon="3.68619">
        <ele>57.82</ele>
        <time>2021-08-09T06:09:12Z</time>
      </trkpt>
      <trkpt lat="49.39105" lon="3.68616">
        <ele>57.82</ele>
        <time>2021-08-09T06:09:13Z</time>
      </trkpt>
      <trkpt lat="49.39102" lon="3.68614">
        <ele>57.82</ele>
        <time>2021-08-09T06:09:14Z</time>
      </trkpt>
      <trkpt lat="49.39097" lon="3.68613">
        <ele>57.82</ele>
        <time>2021-08-09T06:09:15Z</time>
      </trkpt>
      <trkpt lat="49.39092" lon="3.68613">
        <ele>57.82</ele>
        <time>2021-08-09T06:09:16Z</time>
      </trkpt>
      <trkpt lat="49.39087" lon="3.68613">
        <ele>57.82</ele>
        <time>2021-08-09T06:09:17Z</time>
      </trkpt>
      <trkpt lat="49.39075" lon="3.68616">
        <ele>55.89</ele>
        <time>2021-08-09T06:09:19Z</time>
      </trkpt>
      <trkpt lat="49.39058" lon="3.68617">
        <ele>54.45</ele>
        <time>2021-08-09T06:09:22Z</time>
      </trkpt>
      <trkpt lat="49.39047" lon="3.68616">
        <ele>54.45</ele>
        <time>2021-08-09T06:09:24Z</time>
      </trkpt>
      <trkpt lat="49.39041" lon="3.68612">
        <ele>54.45</ele>
        <time>2021-08-09T06:09:25Z</time>
      </trkpt>
      <trkpt lat="49.39037" lon="3.68608">
        <ele>54.45</ele>
        <time>2021-08-09T06:09:26Z</time>
      </trkpt>
      <trkpt lat="49.39034" lon="3.68604">
        <ele>53.97</ele>
        <time>2021-08-09T06:09:27Z</time>
      </trkpt>
      <trkpt lat="49.3903" lon="3.686">
        <ele>53.97</ele>
        <time>2021-08-09T06:09:28Z</time>
      </trkpt>
      <trkpt lat="49.39022" lon="3.68591">
        <ele>53.49</ele>
        <time>2021-08-09T06:09:30Z</time>
      </trkpt>
      <trkpt lat="49.39005" lon="3.68574">
        <ele>53.49</ele>
        <time>2021-08-09T06:09:36Z</time>
      </trkpt>
      <trkpt lat="49.39008" lon="3.68575">
        <ele>53.49</ele>
        <time>2021-08-09T06:09:52Z</time>
      </trkpt>
      <trkpt lat="49.39006" lon="3.68575">
        <ele>53.49</ele>
        <time>2021-08-09T06:09:53Z</time>
      </trkpt>
      <trkpt lat="49.39005" lon="3.68574">
        <ele>53.49</ele>
        <time>2021-08-09T06:09:54Z</time>
      </trkpt>
      <trkpt lat="49.39003" lon="3.68573">
        <ele>53.49</ele>
        <time>2021-08-09T06:09:55Z</time>
      </trkpt>
      <trkpt lat="49.39" lon="3.68571">
        <ele>53.49</ele>
        <time>2021-08-09T06:09:56Z</time>
      </trkpt>
      <trkpt lat="49.38997" lon="3.68569">
        <ele>53.01</ele>
        <time>2021-08-09T06:09:57Z</time>
      </trkpt>
      <trkpt lat="49.38993" lon="3.68567">
        <ele>53.01</ele>
        <time>2021-08-09T06:09:58Z</time>
      </trkpt>
      <trkpt lat="49.38961" lon="3.68542">
        <ele>52.05</ele>
        <time>2021-08-09T06:10:07Z</time>
      </trkpt>
      <trkpt lat="49.38949" lon="3.68533">
        <ele>51.57</ele>
        <time>2021-08-09T06:10:10Z</time>
      </trkpt>
      <trkpt lat="49.38946" lon="3.68531">
        <ele>51.57</ele>
        <time>2021-08-09T06:10:11Z</time>
      </trkpt>
      <trkpt lat="49.38941" lon="3.68531">
        <ele>51.57</ele>
        <time>2021-08-09T06:10:12Z</time>
      </trkpt>
      <trkpt lat="49.38937" lon="3.68531">
        <ele>51.57</ele>
        <time>2021-08-09T06:10:13Z</time>
      </trkpt>
      <trkpt lat="49.38931" lon="3.68531">
        <ele>51.57</ele>
        <time>2021-08-09T06:10:14Z</time>
      </trkpt>
      <trkpt lat="49.38891" lon="3.68531">
        <ele>50.61</ele>
        <time>2021-08-09T06:10:23Z</time>
      </trkpt>
      <trkpt lat="49.38841" lon="3.68526">
        <ele>50.61</ele>
        <time>2021-08-09T06:10:35Z</time>
      </trkpt>
      <trkpt lat="49.38799" lon="3.68522">
        <ele>50.61</ele>
        <time>2021-08-09T06:10:45Z</time>
      </trkpt>
      <trkpt lat="49.38773" lon="3.6852">
        <ele>50.61</ele>
        <time>2021-08-09T06:10:51Z</time>
      </trkpt>
      <trkpt lat="49.38769" lon="3.68522">
        <ele>49.65</ele>
        <time>2021-08-09T06:10:52Z</time>
      </trkpt>
      <trkpt lat="49.38766" lon="3.68527">
        <ele>49.65</ele>
        <time>2021-08-09T06:10:53Z</time>
      </trkpt>
      <trkpt lat="49.38766" lon="3.68533">
        <ele>49.65</ele>
        <time>2021-08-09T06:10:54Z</time>
      </trkpt>
      <trkpt lat="49.38766" lon="3.68537">
        <ele>49.65</ele>
        <time>2021-08-09T06:10:55Z</time>
      </trkpt>
      <trkpt lat="49.38766" lon="3.68543">
        <ele>49.65</ele>
        <time>2021-08-09T06:10:56Z</time>
      </trkpt>
      <trkpt lat="49.38767" lon="3.68548">
        <ele>49.65</ele>
        <time>2021-08-09T06:10:57Z</time>
      </trkpt>
      <trkpt lat="49.38768" lon="3.68554">
        <ele>49.65</ele>
        <time>2021-08-09T06:10:58Z</time>
      </trkpt>
      <trkpt lat="49.38768" lon="3.6856">
        <ele>49.65</ele>
        <time>2021-08-09T06:10:59Z</time>
      </trkpt>
      <trkpt lat="49.38768" lon="3.68566">
        <ele>50.13</ele>
        <time>2021-08-09T06:11:00Z</time>
      </trkpt>
      <trkpt lat="49.3877" lon="3.6863">
        <ele>49.65</ele>
        <time>2021-08-09T06:11:10Z</time>
      </trkpt>
      <trkpt lat="49.38771" lon="3.68705">
        <ele>51.09</ele>
        <time>2021-08-09T06:11:22Z</time>
      </trkpt>
      <trkpt lat="49.3877" lon="3.68762">
        <ele>51.09</ele>
        <time>2021-08-09T06:11:31Z</time>
      </trkpt>
      <trkpt lat="49.38766" lon="3.68776">
        <ele>51.09</ele>
        <time>2021-08-09T06:11:34Z</time>
      </trkpt>
      <trkpt lat="49.38763" lon="3.68778">
        <ele>51.09</ele>
        <time>2021-08-09T06:11:35Z</time>
      </trkpt>
      <trkpt lat="49.3876" lon="3.68779">
        <ele>51.09</ele>
        <time>2021-08-09T06:11:36Z</time>
      </trkpt>
      <trkpt lat="49.38757" lon="3.68779">
        <ele>51.09</ele>
        <time>2021-08-09T06:11:37Z</time>
      </trkpt>
      <trkpt lat="49.38754" lon="3.68778">
        <ele>51.09</ele>
        <time>2021-08-09T06:11:38Z</time>
      </trkpt>
      <trkpt lat="49.3875" lon="3.68778">
        <ele>51.09</ele>
        <time>2021-08-09T06:11:39Z</time>
      </trkpt>
      <trkpt lat="49.38738" lon="3.68778">
        <ele>51.09</ele>
        <time>2021-08-09T06:11:42Z</time>
      </trkpt>
      <trkpt lat="49.38734" lon="3.68779">
        <ele>51.09</ele>
        <time>2021-08-09T06:11:43Z</time>
      </trkpt>
      <trkpt lat="49.38729" lon="3.68778">
        <ele>49.65</ele>
        <time>2021-08-09T06:11:44Z</time>
      </trkpt>
      <trkpt lat="49.38724" lon="3.68779">
        <ele>49.65</ele>
        <time>2021-08-09T06:11:45Z</time>
      </trkpt>
      <trkpt lat="49.38719" lon="3.68779">
        <ele>49.65</ele>
        <time>2021-08-09T06:11:46Z</time>
      </trkpt>
      <trkpt lat="49.38691" lon="3.6878">
        <ele>49.65</ele>
        <time>2021-08-09T06:11:52Z</time>
      </trkpt>
      <trkpt lat="49.38656" lon="3.68787">
        <ele>51.09</ele>
        <time>2021-08-09T06:12:00Z</time>
      </trkpt>
      <trkpt lat="49.38613" lon="3.68803">
        <ele>51.57</ele>
        <time>2021-08-09T06:12:10Z</time>
      </trkpt>
      <trkpt lat="49.38584" lon="3.68813">
        <ele>50.13</ele>
        <time>2021-08-09T06:12:16Z</time>
      </trkpt>
      <trkpt lat="49.38568" lon="3.68816">
        <ele>48.68</ele>
        <time>2021-08-09T06:12:19Z</time>
      </trkpt>
      <trkpt lat="49.38562" lon="3.68815">
        <ele>48.68</ele>
        <time>2021-08-09T06:12:20Z</time>
      </trkpt>
      <trkpt lat="49.38556" lon="3.68814">
        <ele>48.68</ele>
        <time>2021-08-09T06:12:21Z</time>
      </trkpt>
      <trkpt lat="49.38503" lon="3.68791">
        <ele>48.2</ele>
        <time>2021-08-09T06:12:30Z</time>
      </trkpt>
      <trkpt lat="49.38453" lon="3.68765">
        <ele>48.2</ele>
        <time>2021-08-09T06:12:39Z</time>
      </trkpt>
      <trkpt lat="49.38405" lon="3.68738">
        <ele>49.65</ele>
        <time>2021-08-09T06:12:49Z</time>
      </trkpt>
      <trkpt lat="49.38363" lon="3.68715">
        <ele>49.65</ele>
        <time>2021-08-09T06:12:58Z</time>
      </trkpt>
      <trkpt lat="49.38351" lon="3.68708">
        <ele>50.13</ele>
        <time>2021-08-09T06:13:01Z</time>
      </trkpt>
      <trkpt lat="49.38326" lon="3.68696">
        <ele>50.61</ele>
        <time>2021-08-09T06:13:07Z</time>
      </trkpt>
      <trkpt lat="49.38322" lon="3.68693">
        <ele>50.61</ele>
        <time>2021-08-09T06:13:08Z</time>
      </trkpt>
      <trkpt lat="49.38273" lon="3.68668">
        <ele>51.09</ele>
        <time>2021-08-09T06:13:20Z</time>
      </trkpt>
      <trkpt lat="49.38231" lon="3.68649">
        <ele>52.05</ele>
        <time>2021-08-09T06:13:31Z</time>
      </trkpt>
      <trkpt lat="49.38185" lon="3.68628">
        <ele>52.53</ele>
        <time>2021-08-09T06:13:43Z</time>
      </trkpt>
      <trkpt lat="49.38129" lon="3.68604">
        <ele>53.49</ele>
        <time>2021-08-09T06:13:57Z</time>
      </trkpt>
      <trkpt lat="49.38107" lon="3.68597">
        <ele>54.93</ele>
        <time>2021-08-09T06:14:04Z</time>
      </trkpt>
      <trkpt lat="49.38084" lon="3.6859">
        <ele>55.89</ele>
        <time>2021-08-09T06:14:12Z</time>
      </trkpt>
      <trkpt lat="49.38049" lon="3.68581">
        <ele>56.86</ele>
        <time>2021-08-09T06:14:22Z</time>
      </trkpt>
      <trkpt lat="49.38014" lon="3.68575">
        <ele>57.82</ele>
        <time>2021-08-09T06:14:32Z</time>
      </trkpt>
      <trkpt lat="49.37984" lon="3.68568">
        <ele>57.82</ele>
        <time>2021-08-09T06:14:39Z</time>
      </trkpt>
      <trkpt lat="49.37973" lon="3.68566">
        <ele>56.37</ele>
        <time>2021-08-09T06:14:41Z</time>
      </trkpt>
      <trkpt lat="49.37944" lon="3.6856">
        <ele>53.97</ele>
        <time>2021-08-09T06:14:46Z</time>
      </trkpt>
      <trkpt lat="49.37887" lon="3.6855">
        <ele>53.97</ele>
        <time>2021-08-09T06:14:56Z</time>
      </trkpt>
      <trkpt lat="49.37819" lon="3.68538">
        <ele>53.97</ele>
        <time>2021-08-09T06:15:09Z</time>
      </trkpt>
      <trkpt lat="49.37791" lon="3.68527">
        <ele>53.97</ele>
        <time>2021-08-09T06:15:15Z</time>
      </trkpt>
      <trkpt lat="49.37786" lon="3.68524">
        <ele>53.97</ele>
        <time>2021-08-09T06:15:16Z</time>
      </trkpt>
      <trkpt lat="49.37765" lon="3.68503">
        <ele>55.89</ele>
        <time>2021-08-09T06:15:22Z</time>
      </trkpt>
      <trkpt lat="49.37762" lon="3.68498">
        <ele>55.89</ele>
        <time>2021-08-09T06:15:23Z</time>
      </trkpt>
      <trkpt lat="49.37754" lon="3.68483">
        <ele>55.89</ele>
        <time>2021-08-09T06:15:26Z</time>
      </trkpt>
      <trkpt lat="49.3773" lon="3.68415">
        <ele>56.86</ele>
        <time>2021-08-09T06:15:37Z</time>
      </trkpt>
      <trkpt lat="49.3771" lon="3.68359">
        <ele>56.86</ele>
        <time>2021-08-09T06:15:47Z</time>
      </trkpt>
      <trkpt lat="49.37711" lon="3.68354">
        <ele>57.82</ele>
        <time>2021-08-09T06:15:48Z</time>
      </trkpt>
      <trkpt lat="49.37713" lon="3.6835">
        <ele>58.3</ele>
        <time>2021-08-09T06:15:49Z</time>
      </trkpt>
      <trkpt lat="49.37731" lon="3.68338">
        <ele>58.3</ele>
        <time>2021-08-09T06:15:54Z</time>
      </trkpt>
      <trkpt lat="49.37735" lon="3.68336">
        <ele>58.3</ele>
        <time>2021-08-09T06:15:55Z</time>
      </trkpt>
      <trkpt lat="49.37739" lon="3.68333">
        <ele>58.3</ele>
        <time>2021-08-09T06:15:56Z</time>
      </trkpt>
      <trkpt lat="49.37774" lon="3.68301">
        <ele>58.3</ele>
        <time>2021-08-09T06:16:04Z</time>
      </trkpt>
      <trkpt lat="49.37778" lon="3.68295">
        <ele>58.3</ele>
        <time>2021-08-09T06:16:05Z</time>
      </trkpt>
      <trkpt lat="49.37793" lon="3.68271">
        <ele>56.86</ele>
        <time>2021-08-09T06:16:09Z</time>
      </trkpt>
      <trkpt lat="49.3783" lon="3.68214">
        <ele>55.89</ele>
        <time>2021-08-09T06:16:18Z</time>
      </trkpt>
      <trkpt lat="49.37842" lon="3.68195">
        <ele>56.37</ele>
        <time>2021-08-09T06:16:21Z</time>
      </trkpt>
      <trkpt lat="49.37846" lon="3.68188">
        <ele>55.89</ele>
        <time>2021-08-09T06:16:22Z</time>
      </trkpt>
      <trkpt lat="49.37875" lon="3.68143">
        <ele>54.93</ele>
        <time>2021-08-09T06:16:29Z</time>
      </trkpt>
      <trkpt lat="49.37879" lon="3.68136">
        <ele>54.93</ele>
        <time>2021-08-09T06:16:30Z</time>
      </trkpt>
      <trkpt lat="49.37912" lon="3.68083">
        <ele>54.45</ele>
        <time>2021-08-09T06:16:38Z</time>
      </trkpt>
      <trkpt lat="49.37923" lon="3.68066">
        <ele>54.45</ele>
        <time>2021-08-09T06:16:41Z</time>
      </trkpt>
      <trkpt lat="49.37927" lon="3.6806">
        <ele>54.45</ele>
        <time>2021-08-09T06:16:42Z</time>
      </trkpt>
      <trkpt lat="49.3793" lon="3.68055">
        <ele>54.45</ele>
        <time>2021-08-09T06:16:43Z</time>
      </trkpt>
      <trkpt lat="49.37933" lon="3.68051">
        <ele>54.45</ele>
        <time>2021-08-09T06:16:44Z</time>
      </trkpt>
      <trkpt lat="49.37937" lon="3.68045">
        <ele>54.45</ele>
        <time>2021-08-09T06:16:45Z</time>
      </trkpt>
      <trkpt lat="49.37952" lon="3.68021">
        <ele>54.45</ele>
        <time>2021-08-09T06:16:49Z</time>
      </trkpt>
      <trkpt lat="49.37955" lon="3.68016">
        <ele>54.45</ele>
        <time>2021-08-09T06:16:50Z</time>
      </trkpt>
      <trkpt lat="49.37959" lon="3.68009">
        <ele>54.45</ele>
        <time>2021-08-09T06:16:51Z</time>
      </trkpt>
      <trkpt lat="49.37962" lon="3.68003">
        <ele>54.45</ele>
        <time>2021-08-09T06:16:52Z</time>
      </trkpt>
      <trkpt lat="49.37965" lon="3.67997">
        <ele>54.45</ele>
        <time>2021-08-09T06:16:53Z</time>
      </trkpt>
      <trkpt lat="49.37968" lon="3.6799">
        <ele>54.45</ele>
        <time>2021-08-09T06:16:54Z</time>
      </trkpt>
      <trkpt lat="49.37988" lon="3.6794">
        <ele>54.45</ele>
        <time>2021-08-09T06:17:01Z</time>
      </trkpt>
      <trkpt lat="49.38009" lon="3.67869">
        <ele>53.97</ele>
        <time>2021-08-09T06:17:10Z</time>
      </trkpt>
      <trkpt lat="49.3803" lon="3.67797">
        <ele>53.49</ele>
        <time>2021-08-09T06:17:19Z</time>
      </trkpt>
      <trkpt lat="49.38042" lon="3.67745">
        <ele>53.49</ele>
        <time>2021-08-09T06:17:26Z</time>
      </trkpt>
      <trkpt lat="49.38041" lon="3.67739">
        <ele>53.49</ele>
        <time>2021-08-09T06:17:27Z</time>
      </trkpt>
      <trkpt lat="49.3804" lon="3.67733">
        <ele>53.49</ele>
        <time>2021-08-09T06:17:28Z</time>
      </trkpt>
      <trkpt lat="49.38037" lon="3.67728">
        <ele>53.49</ele>
        <time>2021-08-09T06:17:29Z</time>
      </trkpt>
      <trkpt lat="49.38035" lon="3.67724">
        <ele>53.49</ele>
        <time>2021-08-09T06:17:30Z</time>
      </trkpt>
      <trkpt lat="49.38032" lon="3.67721">
        <ele>53.49</ele>
        <time>2021-08-09T06:17:31Z</time>
      </trkpt>
      <trkpt lat="49.38028" lon="3.67718">
        <ele>53.49</ele>
        <time>2021-08-09T06:17:32Z</time>
      </trkpt>
      <trkpt lat="49.38025" lon="3.67715">
        <ele>53.49</ele>
        <time>2021-08-09T06:17:33Z</time>
      </trkpt>
      <trkpt lat="49.38021" lon="3.67711">
        <ele>53.49</ele>
        <time>2021-08-09T06:17:34Z</time>
      </trkpt>
      <trkpt lat="49.38018" lon="3.67706">
        <ele>53.49</ele>
        <time>2021-08-09T06:17:35Z</time>
      </trkpt>
      <trkpt lat="49.38015" lon="3.67701">
        <ele>53.49</ele>
        <time>2021-08-09T06:17:36Z</time>
      </trkpt>
      <trkpt lat="49.38004" lon="3.67685">
        <ele>54.45</ele>
        <time>2021-08-09T06:17:40Z</time>
      </trkpt>
      <trkpt lat="49.37984" lon="3.67667">
        <ele>55.89</ele>
        <time>2021-08-09T06:17:47Z</time>
      </trkpt>
      <trkpt lat="49.37962" lon="3.67661">
        <ele>57.34</ele>
        <time>2021-08-09T06:17:56Z</time>
      </trkpt>
      <trkpt lat="49.37945" lon="3.67657">
        <ele>58.78</ele>
        <time>2021-08-09T06:18:05Z</time>
      </trkpt>
      <trkpt lat="49.37928" lon="3.67656">
        <ele>60.7</ele>
        <time>2021-08-09T06:18:14Z</time>
      </trkpt>
      <trkpt lat="49.37911" lon="3.67653">
        <ele>62.14</ele>
        <time>2021-08-09T06:18:22Z</time>
      </trkpt>
      <trkpt lat="49.37894" lon="3.67648">
        <ele>63.58</ele>
        <time>2021-08-09T06:18:31Z</time>
      </trkpt>
      <trkpt lat="49.37877" lon="3.67645">
        <ele>65.03</ele>
        <time>2021-08-09T06:18:40Z</time>
      </trkpt>
      <trkpt lat="49.3786" lon="3.67641">
        <ele>65.99</ele>
        <time>2021-08-09T06:18:48Z</time>
      </trkpt>
      <trkpt lat="49.37843" lon="3.67636">
        <ele>66.47</ele>
        <time>2021-08-09T06:18:55Z</time>
      </trkpt>
      <trkpt lat="49.37826" lon="3.67632">
        <ele>66.95</ele>
        <time>2021-08-09T06:19:02Z</time>
      </trkpt>
      <trkpt lat="49.3781" lon="3.67639">
        <ele>67.43</ele>
        <time>2021-08-09T06:19:09Z</time>
      </trkpt>
      <trkpt lat="49.37799" lon="3.6766">
        <ele>67.43</ele>
        <time>2021-08-09T06:19:15Z</time>
      </trkpt>
      <trkpt lat="49.37791" lon="3.67669">
        <ele>67.43</ele>
        <time>2021-08-09T06:19:18Z</time>
      </trkpt>
      <trkpt lat="49.37787" lon="3.67668">
        <ele>67.43</ele>
        <time>2021-08-09T06:19:19Z</time>
      </trkpt>
      <trkpt lat="49.37785" lon="3.67667">
        <ele>67.43</ele>
        <time>2021-08-09T06:19:20Z</time>
      </trkpt>
      <trkpt lat="49.37768" lon="3.67646">
        <ele>68.39</ele>
        <time>2021-08-09T06:19:27Z</time>
      </trkpt>
      <trkpt lat="49.37743" lon="3.67625">
        <ele>68.87</ele>
        <time>2021-08-09T06:19:35Z</time>
      </trkpt>
      <trkpt lat="49.37718" lon="3.67619">
        <ele>68.87</ele>
        <time>2021-08-09T06:19:42Z</time>
      </trkpt>
      <trkpt lat="49.37699" lon="3.67617">
        <ele>69.35</ele>
        <time>2021-08-09T06:19:48Z</time>
      </trkpt>
      <trkpt lat="49.37665" lon="3.67612">
        <ele>69.83</ele>
        <time>2021-08-09T06:19:57Z</time>
      </trkpt>
      <trkpt lat="49.37636" lon="3.67606">
        <ele>70.79</ele>
        <time>2021-08-09T06:20:04Z</time>
      </trkpt>
      <trkpt lat="49.37599" lon="3.676">
        <ele>70.79</ele>
        <time>2021-08-09T06:20:13Z</time>
      </trkpt>
      <trkpt lat="49.37586" lon="3.67597">
        <ele>70.79</ele>
        <time>2021-08-09T06:20:16Z</time>
      </trkpt>
      <trkpt lat="49.37582" lon="3.67596">
        <ele>70.79</ele>
        <time>2021-08-09T06:20:17Z</time>
      </trkpt>
      <trkpt lat="49.37579" lon="3.67595">
        <ele>70.79</ele>
        <time>2021-08-09T06:20:18Z</time>
      </trkpt>
      <trkpt lat="49.37543" lon="3.67582">
        <ele>70.79</ele>
        <time>2021-08-09T06:20:27Z</time>
      </trkpt>
      <trkpt lat="49.37508" lon="3.67565">
        <ele>70.79</ele>
        <time>2021-08-09T06:20:37Z</time>
      </trkpt>
      <trkpt lat="49.37476" lon="3.6755">
        <ele>70.79</ele>
        <time>2021-08-09T06:20:46Z</time>
      </trkpt>
      <trkpt lat="49.37436" lon="3.67531">
        <ele>71.76</ele>
        <time>2021-08-09T06:20:57Z</time>
      </trkpt>
      <trkpt lat="49.37396" lon="3.67515">
        <ele>72.72</ele>
        <time>2021-08-09T06:21:08Z</time>
      </trkpt>
      <trkpt lat="49.37361" lon="3.67501">
        <ele>73.68</ele>
        <time>2021-08-09T06:21:17Z</time>
      </trkpt>
      <trkpt lat="49.37315" lon="3.67483">
        <ele>73.68</ele>
        <time>2021-08-09T06:21:29Z</time>
      </trkpt>
      <trkpt lat="49.3727" lon="3.67466">
        <ele>74.64</ele>
        <time>2021-08-09T06:21:41Z</time>
      </trkpt>
      <trkpt lat="49.37254" lon="3.6746">
        <ele>74.64</ele>
        <time>2021-08-09T06:21:45Z</time>
      </trkpt>
      <trkpt lat="49.37207" lon="3.67441">
        <ele>75.6</ele>
        <time>2021-08-09T06:21:57Z</time>
      </trkpt>
      <trkpt lat="49.37171" lon="3.67425">
        <ele>76.56</ele>
        <time>2021-08-09T06:22:07Z</time>
      </trkpt>
      <trkpt lat="49.37138" lon="3.67405">
        <ele>77.04</ele>
        <time>2021-08-09T06:22:16Z</time>
      </trkpt>
      <trkpt lat="49.37106" lon="3.67383">
        <ele>78</ele>
        <time>2021-08-09T06:22:25Z</time>
      </trkpt>
      <trkpt lat="49.37077" lon="3.6737">
        <ele>78.48</ele>
        <time>2021-08-09T06:22:33Z</time>
      </trkpt>
      <trkpt lat="49.37041" lon="3.67351">
        <ele>78.48</ele>
        <time>2021-08-09T06:22:42Z</time>
      </trkpt>
      <trkpt lat="49.3702" lon="3.67335">
        <ele>78.48</ele>
        <time>2021-08-09T06:22:47Z</time>
      </trkpt>
      <trkpt lat="49.36972" lon="3.67306">
        <ele>78.48</ele>
        <time>2021-08-09T06:22:58Z</time>
      </trkpt>
      <trkpt lat="49.36935" lon="3.67287">
        <ele>78.97</ele>
        <time>2021-08-09T06:23:07Z</time>
      </trkpt>
      <trkpt lat="49.36911" lon="3.67276">
        <ele>79.93</ele>
        <time>2021-08-09T06:23:14Z</time>
      </trkpt>
      <trkpt lat="49.36887" lon="3.67269">
        <ele>80.41</ele>
        <time>2021-08-09T06:23:20Z</time>
      </trkpt>
      <trkpt lat="49.36883" lon="3.67267">
        <ele>80.41</ele>
        <time>2021-08-09T06:23:21Z</time>
      </trkpt>
      <trkpt lat="49.36848" lon="3.67257">
        <ele>81.85</ele>
        <time>2021-08-09T06:23:30Z</time>
      </trkpt>
      <trkpt lat="49.36812" lon="3.67246">
        <ele>83.77</ele>
        <time>2021-08-09T06:23:39Z</time>
      </trkpt>
      <trkpt lat="49.36796" lon="3.67236">
        <ele>84.73</ele>
        <time>2021-08-09T06:23:45Z</time>
      </trkpt>
      <trkpt lat="49.36786" lon="3.67222">
        <ele>85.69</ele>
        <time>2021-08-09T06:23:52Z</time>
      </trkpt>
      <trkpt lat="49.36777" lon="3.67208">
        <ele>86.66</ele>
        <time>2021-08-09T06:24:00Z</time>
      </trkpt>
      <trkpt lat="49.36775" lon="3.67207">
        <ele>87.14</ele>
        <time>2021-08-09T06:24:01Z</time>
      </trkpt>
      <trkpt lat="49.36774" lon="3.67206">
        <ele>87.14</ele>
        <time>2021-08-09T06:24:02Z</time>
      </trkpt>
      <trkpt lat="49.36772" lon="3.67205">
        <ele>87.14</ele>
        <time>2021-08-09T06:24:03Z</time>
      </trkpt>
      <trkpt lat="49.36763" lon="3.67195">
        <ele>88.1</ele>
        <time>2021-08-09T06:24:11Z</time>
      </trkpt>
      <trkpt lat="49.36755" lon="3.67185">
        <ele>89.54</ele>
        <time>2021-08-09T06:24:19Z</time>
      </trkpt>
      <trkpt lat="49.36748" lon="3.67177">
        <ele>90.98</ele>
        <time>2021-08-09T06:24:27Z</time>
      </trkpt>
      <trkpt lat="49.36747" lon="3.67175">
        <ele>90.98</ele>
        <time>2021-08-09T06:24:28Z</time>
      </trkpt>
      <trkpt lat="49.36741" lon="3.67163">
        <ele>92.42</ele>
        <time>2021-08-09T06:24:36Z</time>
      </trkpt>
      <trkpt lat="49.36734" lon="3.67147">
        <ele>93.87</ele>
        <time>2021-08-09T06:24:45Z</time>
      </trkpt>
      <trkpt lat="49.36724" lon="3.67136">
        <ele>94.35</ele>
        <time>2021-08-09T06:24:54Z</time>
      </trkpt>
      <trkpt lat="49.36714" lon="3.67128">
        <ele>95.79</ele>
        <time>2021-08-09T06:25:02Z</time>
      </trkpt>
      <trkpt lat="49.36713" lon="3.67127">
        <ele>96.27</ele>
        <time>2021-08-09T06:25:03Z</time>
      </trkpt>
      <trkpt lat="49.36703" lon="3.67119">
        <ele>96.75</ele>
        <time>2021-08-09T06:25:12Z</time>
      </trkpt>
      <trkpt lat="49.36693" lon="3.67109">
        <ele>98.19</ele>
        <time>2021-08-09T06:25:21Z</time>
      </trkpt>
      <trkpt lat="49.36683" lon="3.67102">
        <ele>99.63</ele>
        <time>2021-08-09T06:25:28Z</time>
      </trkpt>
      <trkpt lat="49.3668" lon="3.671">
        <ele>100.11</ele>
        <time>2021-08-09T06:25:30Z</time>
      </trkpt>
      <trkpt lat="49.36674" lon="3.67093">
        <ele>101.08</ele>
        <time>2021-08-09T06:25:38Z</time>
      </trkpt>
      <trkpt lat="49.36669" lon="3.67086">
        <ele>101.08</ele>
        <time>2021-08-09T06:25:49Z</time>
      </trkpt>
      <trkpt lat="49.3667" lon="3.67086">
        <ele>101.08</ele>
        <time>2021-08-09T06:25:54Z</time>
      </trkpt>
      <trkpt lat="49.36679" lon="3.67094">
        <ele>99.63</ele>
        <time>2021-08-09T06:25:59Z</time>
      </trkpt>
      <trkpt lat="49.36686" lon="3.67099">
        <ele>98.67</ele>
        <time>2021-08-09T06:26:05Z</time>
      </trkpt>
      <trkpt lat="49.36686" lon="3.671">
        <ele>98.67</ele>
        <time>2021-08-09T06:26:20Z</time>
      </trkpt>
      <trkpt lat="49.36684" lon="3.67099">
        <ele>98.67</ele>
        <time>2021-08-09T06:26:33Z</time>
      </trkpt>
      <trkpt lat="49.36684" lon="3.67098">
        <ele>98.67</ele>
        <time>2021-08-09T06:26:39Z</time>
      </trkpt>
      <trkpt lat="49.36683" lon="3.67098">
        <ele>98.67</ele>
        <time>2021-08-09T06:26:40Z</time>
      </trkpt>
      <trkpt lat="49.36675" lon="3.6709">
        <ele>100.11</ele>
        <time>2021-08-09T06:26:48Z</time>
      </trkpt>
      <trkpt lat="49.36669" lon="3.67083">
        <ele>101.56</ele>
        <time>2021-08-09T06:26:56Z</time>
      </trkpt>
      <trkpt lat="49.36664" lon="3.67073">
        <ele>102.52</ele>
        <time>2021-08-09T06:27:02Z</time>
      </trkpt>
      <trkpt lat="49.36659" lon="3.67055">
        <ele>104.44</ele>
        <time>2021-08-09T06:27:12Z</time>
      </trkpt>
      <trkpt lat="49.36658" lon="3.67049">
        <ele>105.4</ele>
        <time>2021-08-09T06:27:16Z</time>
      </trkpt>
      <trkpt lat="49.36658" lon="3.67032">
        <ele>106.36</ele>
        <time>2021-08-09T06:27:24Z</time>
      </trkpt>
      <trkpt lat="49.36657" lon="3.67014">
        <ele>107.81</ele>
        <time>2021-08-09T06:27:33Z</time>
      </trkpt>
      <trkpt lat="49.36658" lon="3.67">
        <ele>109.73</ele>
        <time>2021-08-09T06:27:41Z</time>
      </trkpt>
      <trkpt lat="49.36657" lon="3.6699">
        <ele>110.21</ele>
        <time>2021-08-09T06:27:45Z</time>
      </trkpt>
      <trkpt lat="49.36653" lon="3.66974">
        <ele>112.13</ele>
        <time>2021-08-09T06:27:52Z</time>
      </trkpt>
      <trkpt lat="49.36653" lon="3.66961">
        <ele>113.09</ele>
        <time>2021-08-09T06:27:59Z</time>
      </trkpt>
      <trkpt lat="49.36653" lon="3.66949">
        <ele>114.05</ele>
        <time>2021-08-09T06:28:05Z</time>
      </trkpt>
      <trkpt lat="49.36653" lon="3.66939">
        <ele>115.5</ele>
        <time>2021-08-09T06:28:10Z</time>
      </trkpt>
      <trkpt lat="49.36654" lon="3.66922">
        <ele>117.42</ele>
        <time>2021-08-09T06:28:19Z</time>
      </trkpt>
      <trkpt lat="49.36653" lon="3.66908">
        <ele>118.86</ele>
        <time>2021-08-09T06:28:27Z</time>
      </trkpt>
      <trkpt lat="49.36653" lon="3.66894">
        <ele>120.3</ele>
        <time>2021-08-09T06:28:35Z</time>
      </trkpt>
      <trkpt lat="49.36651" lon="3.6688">
        <ele>121.74</ele>
        <time>2021-08-09T06:28:43Z</time>
      </trkpt>
      <trkpt lat="49.36647" lon="3.66864">
        <ele>123.67</ele>
        <time>2021-08-09T06:28:51Z</time>
      </trkpt>
      <trkpt lat="49.36646" lon="3.66851">
        <ele>125.11</ele>
        <time>2021-08-09T06:28:58Z</time>
      </trkpt>
      <trkpt lat="49.36646" lon="3.66834">
        <ele>127.03</ele>
        <time>2021-08-09T06:29:07Z</time>
      </trkpt>
      <trkpt lat="49.36646" lon="3.66815">
        <ele>128.95</ele>
        <time>2021-08-09T06:29:15Z</time>
      </trkpt>
      <trkpt lat="49.36646" lon="3.66813">
        <ele>128.95</ele>
        <time>2021-08-09T06:29:16Z</time>
      </trkpt>
      <trkpt lat="49.36645" lon="3.66797">
        <ele>129.92</ele>
        <time>2021-08-09T06:29:23Z</time>
      </trkpt>
      <trkpt lat="49.36643" lon="3.66783">
        <ele>130.88</ele>
        <time>2021-08-09T06:29:29Z</time>
      </trkpt>
      <trkpt lat="49.36642" lon="3.66771">
        <ele>131.36</ele>
        <time>2021-08-09T06:29:34Z</time>
      </trkpt>
      <trkpt lat="49.36639" lon="3.66764">
        <ele>131.36</ele>
        <time>2021-08-09T06:29:37Z</time>
      </trkpt>
      <trkpt lat="49.36634" lon="3.66743">
        <ele>131.36</ele>
        <time>2021-08-09T06:29:45Z</time>
      </trkpt>
      <trkpt lat="49.36626" lon="3.66721">
        <ele>131.84</ele>
        <time>2021-08-09T06:29:52Z</time>
      </trkpt>
      <trkpt lat="49.36613" lon="3.66686">
        <ele>132.32</ele>
        <time>2021-08-09T06:30:01Z</time>
      </trkpt>
      <trkpt lat="49.36598" lon="3.66658">
        <ele>132.32</ele>
        <time>2021-08-09T06:30:09Z</time>
      </trkpt>
      <trkpt lat="49.36587" lon="3.66641">
        <ele>132.32</ele>
        <time>2021-08-09T06:30:15Z</time>
      </trkpt>
      <trkpt lat="49.36579" lon="3.66624">
        <ele>132.32</ele>
        <time>2021-08-09T06:30:20Z</time>
      </trkpt>
      <trkpt lat="49.36565" lon="3.66604">
        <ele>133.28</ele>
        <time>2021-08-09T06:30:26Z</time>
      </trkpt>
      <trkpt lat="49.36552" lon="3.66584">
        <ele>133.76</ele>
        <time>2021-08-09T06:30:32Z</time>
      </trkpt>
      <trkpt lat="49.36536" lon="3.66565">
        <ele>134.24</ele>
        <time>2021-08-09T06:30:39Z</time>
      </trkpt>
      <trkpt lat="49.36518" lon="3.66548">
        <ele>134.24</ele>
        <time>2021-08-09T06:30:46Z</time>
      </trkpt>
      <trkpt lat="49.36501" lon="3.66526">
        <ele>132.8</ele>
        <time>2021-08-09T06:30:53Z</time>
      </trkpt>
      <trkpt lat="49.36484" lon="3.66506">
        <ele>133.28</ele>
        <time>2021-08-09T06:30:59Z</time>
      </trkpt>
      <trkpt lat="49.3645" lon="3.66477">
        <ele>132.8</ele>
        <time>2021-08-09T06:31:10Z</time>
      </trkpt>
      <trkpt lat="49.36429" lon="3.66466">
        <ele>134.24</ele>
        <time>2021-08-09T06:31:17Z</time>
      </trkpt>
      <trkpt lat="49.36404" lon="3.66452">
        <ele>134.72</ele>
        <time>2021-08-09T06:31:26Z</time>
      </trkpt>
      <trkpt lat="49.36374" lon="3.66447">
        <ele>135.2</ele>
        <time>2021-08-09T06:31:35Z</time>
      </trkpt>
      <trkpt lat="49.36348" lon="3.66452">
        <ele>135.2</ele>
        <time>2021-08-09T06:31:43Z</time>
      </trkpt>
      <trkpt lat="49.36323" lon="3.66452">
        <ele>135.68</ele>
        <time>2021-08-09T06:31:51Z</time>
      </trkpt>
      <trkpt lat="49.363" lon="3.66453">
        <ele>135.68</ele>
        <time>2021-08-09T06:31:58Z</time>
      </trkpt>
      <trkpt lat="49.36268" lon="3.66455">
        <ele>136.16</ele>
        <time>2021-08-09T06:32:08Z</time>
      </trkpt>
      <trkpt lat="49.36244" lon="3.66455">
        <ele>136.64</ele>
        <time>2021-08-09T06:32:15Z</time>
      </trkpt>
      <trkpt lat="49.36235" lon="3.6646">
        <ele>137.13</ele>
        <time>2021-08-09T06:32:19Z</time>
      </trkpt>
      <trkpt lat="49.36234" lon="3.66463">
        <ele>137.13</ele>
        <time>2021-08-09T06:32:20Z</time>
      </trkpt>
      <trkpt lat="49.36232" lon="3.66465">
        <ele>137.13</ele>
        <time>2021-08-09T06:32:21Z</time>
      </trkpt>
      <trkpt lat="49.36229" lon="3.66468">
        <ele>137.13</ele>
        <time>2021-08-09T06:32:22Z</time>
      </trkpt>
      <trkpt lat="49.36227" lon="3.6647">
        <ele>137.13</ele>
        <time>2021-08-09T06:32:23Z</time>
      </trkpt>
      <trkpt lat="49.36214" lon="3.66481">
        <ele>136.16</ele>
        <time>2021-08-09T06:32:27Z</time>
      </trkpt>
      <trkpt lat="49.36204" lon="3.66489">
        <ele>135.68</ele>
        <time>2021-08-09T06:32:30Z</time>
      </trkpt>
      <trkpt lat="49.36181" lon="3.66509">
        <ele>135.68</ele>
        <time>2021-08-09T06:32:37Z</time>
      </trkpt>
      <trkpt lat="49.36168" lon="3.66518">
        <ele>137.13</ele>
        <time>2021-08-09T06:32:42Z</time>
      </trkpt>
      <trkpt lat="49.3615" lon="3.66527">
        <ele>137.61</ele>
        <time>2021-08-09T06:32:50Z</time>
      </trkpt>
      <trkpt lat="49.36126" lon="3.66539">
        <ele>137.61</ele>
        <time>2021-08-09T06:32:59Z</time>
      </trkpt>
      <trkpt lat="49.36104" lon="3.66547">
        <ele>137.61</ele>
        <time>2021-08-09T06:33:06Z</time>
      </trkpt>
      <trkpt lat="49.36085" lon="3.66557">
        <ele>137.61</ele>
        <time>2021-08-09T06:33:13Z</time>
      </trkpt>
      <trkpt lat="49.36067" lon="3.66572">
        <ele>135.68</ele>
        <time>2021-08-09T06:33:20Z</time>
      </trkpt>
      <trkpt lat="49.36056" lon="3.66586">
        <ele>135.68</ele>
        <time>2021-08-09T06:33:25Z</time>
      </trkpt>
      <trkpt lat="49.36043" lon="3.66615">
        <ele>135.68</ele>
        <time>2021-08-09T06:33:32Z</time>
      </trkpt>
      <trkpt lat="49.36036" lon="3.66651">
        <ele>135.2</ele>
        <time>2021-08-09T06:33:38Z</time>
      </trkpt>
      <trkpt lat="49.36033" lon="3.66679">
        <ele>135.2</ele>
        <time>2021-08-09T06:33:43Z</time>
      </trkpt>
      <trkpt lat="49.36033" lon="3.66693">
        <ele>133.76</ele>
        <time>2021-08-09T06:33:45Z</time>
      </trkpt>
      <trkpt lat="49.36033" lon="3.66702">
        <ele>133.76</ele>
        <time>2021-08-09T06:33:46Z</time>
      </trkpt>
      <trkpt lat="49.36028" lon="3.6674">
        <ele>131.84</ele>
        <time>2021-08-09T06:33:50Z</time>
      </trkpt>
      <trkpt lat="49.36011" lon="3.66823">
        <ele>129.92</ele>
        <time>2021-08-09T06:33:58Z</time>
      </trkpt>
      <trkpt lat="49.36003" lon="3.66851">
        <ele>129.92</ele>
        <time>2021-08-09T06:34:01Z</time>
      </trkpt>
      <trkpt lat="49.35999" lon="3.66859">
        <ele>129.43</ele>
        <time>2021-08-09T06:34:02Z</time>
      </trkpt>
      <trkpt lat="49.35995" lon="3.66865">
        <ele>129.92</ele>
        <time>2021-08-09T06:34:03Z</time>
      </trkpt>
      <trkpt lat="49.3599" lon="3.66871">
        <ele>129.92</ele>
        <time>2021-08-09T06:34:04Z</time>
      </trkpt>
      <trkpt lat="49.35986" lon="3.66875">
        <ele>129.92</ele>
        <time>2021-08-09T06:34:05Z</time>
      </trkpt>
      <trkpt lat="49.35981" lon="3.66879">
        <ele>129.92</ele>
        <time>2021-08-09T06:34:06Z</time>
      </trkpt>
      <trkpt lat="49.35957" lon="3.669">
        <ele>129.92</ele>
        <time>2021-08-09T06:34:11Z</time>
      </trkpt>
      <trkpt lat="49.3594" lon="3.66925">
        <ele>129.92</ele>
        <time>2021-08-09T06:34:15Z</time>
      </trkpt>
      <trkpt lat="49.35931" lon="3.66949">
        <ele>129.92</ele>
        <time>2021-08-09T06:34:18Z</time>
      </trkpt>
      <trkpt lat="49.3593" lon="3.66957">
        <ele>129.92</ele>
        <time>2021-08-09T06:34:19Z</time>
      </trkpt>
      <trkpt lat="49.35927" lon="3.66975">
        <ele>129.92</ele>
        <time>2021-08-09T06:34:21Z</time>
      </trkpt>
      <trkpt lat="49.35924" lon="3.67023">
        <ele>128.95</ele>
        <time>2021-08-09T06:34:26Z</time>
      </trkpt>
      <trkpt lat="49.35922" lon="3.67033">
        <ele>128.47</ele>
        <time>2021-08-09T06:34:27Z</time>
      </trkpt>
      <trkpt lat="49.35894" lon="3.67104">
        <ele>126.07</ele>
        <time>2021-08-09T06:34:35Z</time>
      </trkpt>
      <trkpt lat="49.3589" lon="3.67112">
        <ele>126.07</ele>
        <time>2021-08-09T06:34:36Z</time>
      </trkpt>
      <trkpt lat="49.35867" lon="3.67144">
        <ele>127.51</ele>
        <time>2021-08-09T06:34:41Z</time>
      </trkpt>
      <trkpt lat="49.35839" lon="3.67178">
        <ele>128.95</ele>
        <time>2021-08-09T06:34:48Z</time>
      </trkpt>
      <trkpt lat="49.35823" lon="3.67201">
        <ele>130.4</ele>
        <time>2021-08-09T06:34:55Z</time>
      </trkpt>
      <trkpt lat="49.35814" lon="3.67225">
        <ele>131.36</ele>
        <time>2021-08-09T06:35:02Z</time>
      </trkpt>
      <trkpt lat="49.35816" lon="3.67242">
        <ele>131.36</ele>
        <time>2021-08-09T06:35:05Z</time>
      </trkpt>
      <trkpt lat="49.35818" lon="3.67248">
        <ele>131.36</ele>
        <time>2021-08-09T06:35:06Z</time>
      </trkpt>
      <trkpt lat="49.35821" lon="3.6726">
        <ele>130.4</ele>
        <time>2021-08-09T06:35:08Z</time>
      </trkpt>
      <trkpt lat="49.3584" lon="3.67302">
        <ele>130.4</ele>
        <time>2021-08-09T06:35:16Z</time>
      </trkpt>
      <trkpt lat="49.35859" lon="3.6734">
        <ele>130.4</ele>
        <time>2021-08-09T06:35:24Z</time>
      </trkpt>
      <trkpt lat="49.35862" lon="3.67344">
        <ele>130.4</ele>
        <time>2021-08-09T06:35:25Z</time>
      </trkpt>
      <trkpt lat="49.35892" lon="3.67387">
        <ele>129.92</ele>
        <time>2021-08-09T06:35:34Z</time>
      </trkpt>
      <trkpt lat="49.35925" lon="3.67413">
        <ele>127.99</ele>
        <time>2021-08-09T06:35:41Z</time>
      </trkpt>
      <trkpt lat="49.35929" lon="3.67417">
        <ele>127.99</ele>
        <time>2021-08-09T06:35:42Z</time>
      </trkpt>
      <trkpt lat="49.35939" lon="3.67426">
        <ele>127.99</ele>
        <time>2021-08-09T06:35:44Z</time>
      </trkpt>
      <trkpt lat="49.35943" lon="3.67432">
        <ele>127.51</ele>
        <time>2021-08-09T06:35:45Z</time>
      </trkpt>
      <trkpt lat="49.35947" lon="3.67438">
        <ele>127.51</ele>
        <time>2021-08-09T06:35:46Z</time>
      </trkpt>
      <trkpt lat="49.3595" lon="3.67443">
        <ele>127.51</ele>
        <time>2021-08-09T06:35:47Z</time>
      </trkpt>
      <trkpt lat="49.35954" lon="3.67448">
        <ele>127.51</ele>
        <time>2021-08-09T06:35:48Z</time>
      </trkpt>
      <trkpt lat="49.35957" lon="3.67451">
        <ele>128.95</ele>
        <time>2021-08-09T06:35:49Z</time>
      </trkpt>
      <trkpt lat="49.35969" lon="3.67459">
        <ele>130.4</ele>
        <time>2021-08-09T06:35:55Z</time>
      </trkpt>
      <trkpt lat="49.35984" lon="3.67469">
        <ele>131.84</ele>
        <time>2021-08-09T06:36:04Z</time>
      </trkpt>
      <trkpt lat="49.35993" lon="3.67476">
        <ele>133.28</ele>
        <time>2021-08-09T06:36:11Z</time>
      </trkpt>
      <trkpt lat="49.35994" lon="3.67477">
        <ele>133.76</ele>
        <time>2021-08-09T06:36:12Z</time>
      </trkpt>
      <trkpt lat="49.35996" lon="3.67479">
        <ele>133.76</ele>
        <time>2021-08-09T06:36:13Z</time>
      </trkpt>
      <trkpt lat="49.36001" lon="3.67486">
        <ele>135.2</ele>
        <time>2021-08-09T06:36:18Z</time>
      </trkpt>
      <trkpt lat="49.36002" lon="3.67488">
        <ele>135.68</ele>
        <time>2021-08-09T06:36:19Z</time>
      </trkpt>
      <trkpt lat="49.36003" lon="3.6749">
        <ele>135.68</ele>
        <time>2021-08-09T06:36:20Z</time>
      </trkpt>
      <trkpt lat="49.36004" lon="3.67491">
        <ele>136.16</ele>
        <time>2021-08-09T06:36:21Z</time>
      </trkpt>
      <trkpt lat="49.36005" lon="3.67492">
        <ele>136.16</ele>
        <time>2021-08-09T06:36:22Z</time>
      </trkpt>
      <trkpt lat="49.36011" lon="3.67512">
        <ele>138.09</ele>
        <time>2021-08-09T06:36:31Z</time>
      </trkpt>
      <trkpt lat="49.36013" lon="3.6753">
        <ele>139.05</ele>
        <time>2021-08-09T06:36:38Z</time>
      </trkpt>
      <trkpt lat="49.36008" lon="3.67545">
        <ele>139.53</ele>
        <time>2021-08-09T06:36:45Z</time>
      </trkpt>
      <trkpt lat="49.35997" lon="3.67553">
        <ele>140.49</ele>
        <time>2021-08-09T06:36:52Z</time>
      </trkpt>
      <trkpt lat="49.35981" lon="3.67547">
        <ele>141.45</ele>
        <time>2021-08-09T06:37:01Z</time>
      </trkpt>
      <trkpt lat="49.35969" lon="3.67538">
        <ele>142.89</ele>
        <time>2021-08-09T06:37:08Z</time>
      </trkpt>
      <trkpt lat="49.35964" lon="3.67535">
        <ele>143.85</ele>
        <time>2021-08-09T06:37:11Z</time>
      </trkpt>
      <trkpt lat="49.35944" lon="3.67524">
        <ele>144.82</ele>
        <time>2021-08-09T06:37:21Z</time>
      </trkpt>
      <trkpt lat="49.3592" lon="3.6751">
        <ele>146.26</ele>
        <time>2021-08-09T06:37:33Z</time>
      </trkpt>
      <trkpt lat="49.35898" lon="3.67496">
        <ele>147.7</ele>
        <time>2021-08-09T06:37:43Z</time>
      </trkpt>
      <trkpt lat="49.35873" lon="3.67477">
        <ele>148.66</ele>
        <time>2021-08-09T06:37:54Z</time>
      </trkpt>
      <trkpt lat="49.35846" lon="3.67441">
        <ele>148.66</ele>
        <time>2021-08-09T06:38:06Z</time>
      </trkpt>
      <trkpt lat="49.35834" lon="3.67417">
        <ele>148.66</ele>
        <time>2021-08-09T06:38:13Z</time>
      </trkpt>
      <trkpt lat="49.35814" lon="3.67379">
        <ele>149.62</ele>
        <time>2021-08-09T06:38:23Z</time>
      </trkpt>
      <trkpt lat="49.35799" lon="3.67348">
        <ele>149.62</ele>
        <time>2021-08-09T06:38:31Z</time>
      </trkpt>
      <trkpt lat="49.35781" lon="3.67313">
        <ele>149.62</ele>
        <time>2021-08-09T06:38:39Z</time>
      </trkpt>
      <trkpt lat="49.35778" lon="3.67311">
        <ele>150.1</ele>
        <time>2021-08-09T06:38:40Z</time>
      </trkpt>
      <trkpt lat="49.35775" lon="3.67311">
        <ele>150.1</ele>
        <time>2021-08-09T06:38:41Z</time>
      </trkpt>
      <trkpt lat="49.35774" lon="3.67312">
        <ele>150.1</ele>
        <time>2021-08-09T06:38:42Z</time>
      </trkpt>
      <trkpt lat="49.35762" lon="3.67324">
        <ele>152.03</ele>
        <time>2021-08-09T06:38:51Z</time>
      </trkpt>
      <trkpt lat="49.35752" lon="3.67337">
        <ele>153.47</ele>
        <time>2021-08-09T06:38:59Z</time>
      </trkpt>
      <trkpt lat="49.35743" lon="3.67349">
        <ele>154.43</ele>
        <time>2021-08-09T06:39:06Z</time>
      </trkpt>
      <trkpt lat="49.35731" lon="3.67363">
        <ele>156.35</ele>
        <time>2021-08-09T06:39:15Z</time>
      </trkpt>
      <trkpt lat="49.3572" lon="3.67377">
        <ele>157.79</ele>
        <time>2021-08-09T06:39:24Z</time>
      </trkpt>
      <trkpt lat="49.35709" lon="3.67392">
        <ele>159.24</ele>
        <time>2021-08-09T06:39:33Z</time>
      </trkpt>
      <trkpt lat="49.35697" lon="3.67407">
        <ele>160.2</ele>
        <time>2021-08-09T06:39:42Z</time>
      </trkpt>
      <trkpt lat="49.35681" lon="3.67427">
        <ele>161.64</ele>
        <time>2021-08-09T06:39:53Z</time>
      </trkpt>
      <trkpt lat="49.35665" lon="3.67448">
        <ele>162.6</ele>
        <time>2021-08-09T06:40:03Z</time>
      </trkpt>
      <trkpt lat="49.35652" lon="3.67467">
        <ele>163.56</ele>
        <time>2021-08-09T06:40:12Z</time>
      </trkpt>
      <trkpt lat="49.35636" lon="3.67488">
        <ele>165.48</ele>
        <time>2021-08-09T06:40:22Z</time>
      </trkpt>
      <trkpt lat="49.35616" lon="3.67511">
        <ele>165.48</ele>
        <time>2021-08-09T06:40:33Z</time>
      </trkpt>
      <trkpt lat="49.35594" lon="3.67542">
        <ele>165.48</ele>
        <time>2021-08-09T06:40:44Z</time>
      </trkpt>
      <trkpt lat="49.35574" lon="3.67579">
        <ele>165.48</ele>
        <time>2021-08-09T06:40:54Z</time>
      </trkpt>
      <trkpt lat="49.35556" lon="3.67621">
        <ele>164.52</ele>
        <time>2021-08-09T06:41:02Z</time>
      </trkpt>
      <trkpt lat="49.35527" lon="3.67683">
        <ele>161.16</ele>
        <time>2021-08-09T06:41:13Z</time>
      </trkpt>
      <trkpt lat="49.35509" lon="3.6772">
        <ele>157.79</ele>
        <time>2021-08-09T06:41:19Z</time>
      </trkpt>
      <trkpt lat="49.35506" lon="3.67728">
        <ele>157.79</ele>
        <time>2021-08-09T06:41:20Z</time>
      </trkpt>
      <trkpt lat="49.35491" lon="3.67758">
        <ele>155.39</ele>
        <time>2021-08-09T06:41:24Z</time>
      </trkpt>
      <trkpt lat="49.35474" lon="3.67794">
        <ele>152.03</ele>
        <time>2021-08-09T06:41:28Z</time>
      </trkpt>
      <trkpt lat="49.35459" lon="3.67823">
        <ele>148.18</ele>
        <time>2021-08-09T06:41:31Z</time>
      </trkpt>
      <trkpt lat="49.35454" lon="3.67833">
        <ele>148.18</ele>
        <time>2021-08-09T06:41:32Z</time>
      </trkpt>
      <trkpt lat="49.35441" lon="3.6786">
        <ele>144.82</ele>
        <time>2021-08-09T06:41:35Z</time>
      </trkpt>
      <trkpt lat="49.35436" lon="3.6787">
        <ele>143.85</ele>
        <time>2021-08-09T06:41:37Z</time>
      </trkpt>
      <trkpt lat="49.35431" lon="3.67879">
        <ele>144.34</ele>
        <time>2021-08-09T06:41:42Z</time>
      </trkpt>
      <trkpt lat="49.3543" lon="3.67879">
        <ele>144.34</ele>
        <time>2021-08-09T06:41:43Z</time>
      </trkpt>
      <trkpt lat="49.35428" lon="3.67879">
        <ele>143.85</ele>
        <time>2021-08-09T06:41:44Z</time>
      </trkpt>
      <trkpt lat="49.35428" lon="3.67882">
        <ele>142.89</ele>
        <time>2021-08-09T06:41:49Z</time>
      </trkpt>
      <trkpt lat="49.35429" lon="3.67881">
        <ele>141.93</ele>
        <time>2021-08-09T06:41:58Z</time>
      </trkpt>
      <trkpt lat="49.35428" lon="3.67883">
        <ele>141.93</ele>
        <time>2021-08-09T06:42:04Z</time>
      </trkpt>
      <trkpt lat="49.35426" lon="3.67884">
        <ele>141.93</ele>
        <time>2021-08-09T06:42:07Z</time>
      </trkpt>
      <trkpt lat="49.35426" lon="3.67885">
        <ele>141.93</ele>
        <time>2021-08-09T06:42:08Z</time>
      </trkpt>
      <trkpt lat="49.35428" lon="3.67886">
        <ele>140.97</ele>
        <time>2021-08-09T06:42:13Z</time>
      </trkpt>
      <trkpt lat="49.3543" lon="3.67888">
        <ele>140.97</ele>
        <time>2021-08-09T06:42:16Z</time>
      </trkpt>
      <trkpt lat="49.35431" lon="3.6789">
        <ele>140.97</ele>
        <time>2021-08-09T06:42:17Z</time>
      </trkpt>
      <trkpt lat="49.35447" lon="3.67909">
        <ele>139.53</ele>
        <time>2021-08-09T06:42:23Z</time>
      </trkpt>
      <trkpt lat="49.35459" lon="3.67923">
        <ele>139.05</ele>
        <time>2021-08-09T06:42:27Z</time>
      </trkpt>
      <trkpt lat="49.35479" lon="3.67947">
        <ele>139.05</ele>
        <time>2021-08-09T06:42:34Z</time>
      </trkpt>
      <trkpt lat="49.35493" lon="3.67963">
        <ele>139.05</ele>
        <time>2021-08-09T06:42:40Z</time>
      </trkpt>
      <trkpt lat="49.35509" lon="3.67987">
        <ele>138.09</ele>
        <time>2021-08-09T06:42:46Z</time>
      </trkpt>
      <trkpt lat="49.35512" lon="3.67992">
        <ele>138.09</ele>
        <time>2021-08-09T06:42:47Z</time>
      </trkpt>
      <trkpt lat="49.35539" lon="3.68026">
        <ele>136.64</ele>
        <time>2021-08-09T06:42:53Z</time>
      </trkpt>
      <trkpt lat="49.3557" lon="3.68062">
        <ele>136.16</ele>
        <time>2021-08-09T06:43:01Z</time>
      </trkpt>
      <trkpt lat="49.35591" lon="3.68084">
        <ele>136.16</ele>
        <time>2021-08-09T06:43:08Z</time>
      </trkpt>
      <trkpt lat="49.35615" lon="3.6811">
        <ele>136.16</ele>
        <time>2021-08-09T06:43:15Z</time>
      </trkpt>
      <trkpt lat="49.35641" lon="3.68146">
        <ele>135.2</ele>
        <time>2021-08-09T06:43:22Z</time>
      </trkpt>
      <trkpt lat="49.35645" lon="3.68152">
        <ele>135.2</ele>
        <time>2021-08-09T06:43:23Z</time>
      </trkpt>
      <trkpt lat="49.35648" lon="3.68157">
        <ele>135.2</ele>
        <time>2021-08-09T06:43:24Z</time>
      </trkpt>
      <trkpt lat="49.35679" lon="3.68208">
        <ele>134.24</ele>
        <time>2021-08-09T06:43:33Z</time>
      </trkpt>
      <trkpt lat="49.35705" lon="3.68262">
        <ele>133.76</ele>
        <time>2021-08-09T06:43:42Z</time>
      </trkpt>
      <trkpt lat="49.35722" lon="3.68313">
        <ele>130.88</ele>
        <time>2021-08-09T06:43:49Z</time>
      </trkpt>
      <trkpt lat="49.35735" lon="3.68368">
        <ele>127.99</ele>
        <time>2021-08-09T06:43:55Z</time>
      </trkpt>
      <trkpt lat="49.35736" lon="3.68376">
        <ele>127.51</ele>
        <time>2021-08-09T06:43:57Z</time>
      </trkpt>
      <trkpt lat="49.35744" lon="3.684">
        <ele>127.03</ele>
        <time>2021-08-09T06:44:03Z</time>
      </trkpt>
      <trkpt lat="49.35742" lon="3.684">
        <ele>126.55</ele>
        <time>2021-08-09T06:44:04Z</time>
      </trkpt>
      <trkpt lat="49.3574" lon="3.68399">
        <ele>125.59</ele>
        <time>2021-08-09T06:44:05Z</time>
      </trkpt>
      <trkpt lat="49.35737" lon="3.68398">
        <ele>125.11</ele>
        <time>2021-08-09T06:44:06Z</time>
      </trkpt>
      <trkpt lat="49.35733" lon="3.68396">
        <ele>123.67</ele>
        <time>2021-08-09T06:44:07Z</time>
      </trkpt>
      <trkpt lat="49.35728" lon="3.68393">
        <ele>122.71</ele>
        <time>2021-08-09T06:44:08Z</time>
      </trkpt>
      <trkpt lat="49.35724" lon="3.68387">
        <ele>120.78</ele>
        <time>2021-08-09T06:44:09Z</time>
      </trkpt>
      <trkpt lat="49.3572" lon="3.68379">
        <ele>119.82</ele>
        <time>2021-08-09T06:44:10Z</time>
      </trkpt>
      <trkpt lat="49.35717" lon="3.68371">
        <ele>119.34</ele>
        <time>2021-08-09T06:44:11Z</time>
      </trkpt>
      <trkpt lat="49.35714" lon="3.68365">
        <ele>118.38</ele>
        <time>2021-08-09T06:44:12Z</time>
      </trkpt>
      <trkpt lat="49.35709" lon="3.6836">
        <ele>117.42</ele>
        <time>2021-08-09T06:44:13Z</time>
      </trkpt>
      <trkpt lat="49.35704" lon="3.68357">
        <ele>115.98</ele>
        <time>2021-08-09T06:44:14Z</time>
      </trkpt>
      <trkpt lat="49.35697" lon="3.68354">
        <ele>115.01</ele>
        <time>2021-08-09T06:44:15Z</time>
      </trkpt>
      <trkpt lat="49.35691" lon="3.6835">
        <ele>114.05</ele>
        <time>2021-08-09T06:44:16Z</time>
      </trkpt>
      <trkpt lat="49.35684" lon="3.68345">
        <ele>113.09</ele>
        <time>2021-08-09T06:44:17Z</time>
      </trkpt>
      <trkpt lat="49.35678" lon="3.68339">
        <ele>112.13</ele>
        <time>2021-08-09T06:44:18Z</time>
      </trkpt>
      <trkpt lat="49.35663" lon="3.68326">
        <ele>109.25</ele>
        <time>2021-08-09T06:44:20Z</time>
      </trkpt>
      <trkpt lat="49.35656" lon="3.68323">
        <ele>108.29</ele>
        <time>2021-08-09T06:44:21Z</time>
      </trkpt>
      <trkpt lat="49.35641" lon="3.68315">
        <ele>105.4</ele>
        <time>2021-08-09T06:44:23Z</time>
      </trkpt>
      <trkpt lat="49.35634" lon="3.6831">
        <ele>104.44</ele>
        <time>2021-08-09T06:44:24Z</time>
      </trkpt>
      <trkpt lat="49.35619" lon="3.68299">
        <ele>102.52</ele>
        <time>2021-08-09T06:44:26Z</time>
      </trkpt>
      <trkpt lat="49.35613" lon="3.68296">
        <ele>101.56</ele>
        <time>2021-08-09T06:44:27Z</time>
      </trkpt>
      <trkpt lat="49.35609" lon="3.68296">
        <ele>101.56</ele>
        <time>2021-08-09T06:44:28Z</time>
      </trkpt>
      <trkpt lat="49.35603" lon="3.68296">
        <ele>101.08</ele>
        <time>2021-08-09T06:44:32Z</time>
      </trkpt>
      <trkpt lat="49.35593" lon="3.68295">
        <ele>100.6</ele>
        <time>2021-08-09T06:44:36Z</time>
      </trkpt>
      <trkpt lat="49.35589" lon="3.68293">
        <ele>100.6</ele>
        <time>2021-08-09T06:44:37Z</time>
      </trkpt>
      <trkpt lat="49.3556" lon="3.68276">
        <ele>98.67</ele>
        <time>2021-08-09T06:44:44Z</time>
      </trkpt>
      <trkpt lat="49.35556" lon="3.68273">
        <ele>98.19</ele>
        <time>2021-08-09T06:44:45Z</time>
      </trkpt>
      <trkpt lat="49.3554" lon="3.68257">
        <ele>98.19</ele>
        <time>2021-08-09T06:44:49Z</time>
      </trkpt>
      <trkpt lat="49.35536" lon="3.68257">
        <ele>98.19</ele>
        <time>2021-08-09T06:44:50Z</time>
      </trkpt>
      <trkpt lat="49.35531" lon="3.68261">
        <ele>97.23</ele>
        <time>2021-08-09T06:44:51Z</time>
      </trkpt>
      <trkpt lat="49.35528" lon="3.68266">
        <ele>97.23</ele>
        <time>2021-08-09T06:44:52Z</time>
      </trkpt>
      <trkpt lat="49.35524" lon="3.68272">
        <ele>96.27</ele>
        <time>2021-08-09T06:44:53Z</time>
      </trkpt>
      <trkpt lat="49.35516" lon="3.68285">
        <ele>95.79</ele>
        <time>2021-08-09T06:44:55Z</time>
      </trkpt>
      <trkpt lat="49.35499" lon="3.68312">
        <ele>94.35</ele>
        <time>2021-08-09T06:44:59Z</time>
      </trkpt>
      <trkpt lat="49.35475" lon="3.6835">
        <ele>93.87</ele>
        <time>2021-08-09T06:45:05Z</time>
      </trkpt>
      <trkpt lat="49.35472" lon="3.68356">
        <ele>93.39</ele>
        <time>2021-08-09T06:45:06Z</time>
      </trkpt>
      <trkpt lat="49.35466" lon="3.68372">
        <ele>92.9</ele>
        <time>2021-08-09T06:45:08Z</time>
      </trkpt>
      <trkpt lat="49.35454" lon="3.68399">
        <ele>93.87</ele>
        <time>2021-08-09T06:45:13Z</time>
      </trkpt>
      <trkpt lat="49.35445" lon="3.68418">
        <ele>95.31</ele>
        <time>2021-08-09T06:45:20Z</time>
      </trkpt>
      <trkpt lat="49.35437" lon="3.68435">
        <ele>96.75</ele>
        <time>2021-08-09T06:45:29Z</time>
      </trkpt>
      <trkpt lat="49.35433" lon="3.68455">
        <ele>98.19</ele>
        <time>2021-08-09T06:45:38Z</time>
      </trkpt>
      <trkpt lat="49.35439" lon="3.68472">
        <ele>98.67</ele>
        <time>2021-08-09T06:45:45Z</time>
      </trkpt>
      <trkpt lat="49.35443" lon="3.68481">
        <ele>98.67</ele>
        <time>2021-08-09T06:45:48Z</time>
      </trkpt>
      <trkpt lat="49.35442" lon="3.68485">
        <ele>98.19</ele>
        <time>2021-08-09T06:45:49Z</time>
      </trkpt>
      <trkpt lat="49.35442" lon="3.68488">
        <ele>98.19</ele>
        <time>2021-08-09T06:45:50Z</time>
      </trkpt>
      <trkpt lat="49.35442" lon="3.68491">
        <ele>98.67</ele>
        <time>2021-08-09T06:45:55Z</time>
      </trkpt>
      <trkpt lat="49.3544" lon="3.68489">
        <ele>98.67</ele>
        <time>2021-08-09T06:46:14Z</time>
      </trkpt>
      <trkpt lat="49.35442" lon="3.68488">
        <ele>98.67</ele>
        <time>2021-08-09T06:46:33Z</time>
      </trkpt>
      <trkpt lat="49.35443" lon="3.68489">
        <ele>98.67</ele>
        <time>2021-08-09T06:46:39Z</time>
      </trkpt>
      <trkpt lat="49.35444" lon="3.68491">
        <ele>98.67</ele>
        <time>2021-08-09T06:46:45Z</time>
      </trkpt>
      <trkpt lat="49.35445" lon="3.68491">
        <ele>98.67</ele>
        <time>2021-08-09T06:46:48Z</time>
      </trkpt>
      <trkpt lat="49.35446" lon="3.6849">
        <ele>98.67</ele>
        <time>2021-08-09T06:46:49Z</time>
      </trkpt>
      <trkpt lat="49.35449" lon="3.68491">
        <ele>98.67</ele>
        <time>2021-08-09T06:46:51Z</time>
      </trkpt>
      <trkpt lat="49.35451" lon="3.68492">
        <ele>98.67</ele>
        <time>2021-08-09T06:46:52Z</time>
      </trkpt>
      <trkpt lat="49.35453" lon="3.68494">
        <ele>97.23</ele>
        <time>2021-08-09T06:46:53Z</time>
      </trkpt>
      <trkpt lat="49.35455" lon="3.68497">
        <ele>97.23</ele>
        <time>2021-08-09T06:46:54Z</time>
      </trkpt>
      <trkpt lat="49.3547" lon="3.68519">
        <ele>95.31</ele>
        <time>2021-08-09T06:47:01Z</time>
      </trkpt>
      <trkpt lat="49.35481" lon="3.68545">
        <ele>94.35</ele>
        <time>2021-08-09T06:47:07Z</time>
      </trkpt>
      <trkpt lat="49.35486" lon="3.68564">
        <ele>93.39</ele>
        <time>2021-08-09T06:47:10Z</time>
      </trkpt>
      <trkpt lat="49.35492" lon="3.68625">
        <ele>91.94</ele>
        <time>2021-08-09T06:47:18Z</time>
      </trkpt>
      <trkpt lat="49.35498" lon="3.68672">
        <ele>91.46</ele>
        <time>2021-08-09T06:47:25Z</time>
      </trkpt>
      <trkpt lat="49.35506" lon="3.68736">
        <ele>91.46</ele>
        <time>2021-08-09T06:47:34Z</time>
      </trkpt>
      <trkpt lat="49.35502" lon="3.68801">
        <ele>90.98</ele>
        <time>2021-08-09T06:47:42Z</time>
      </trkpt>
      <trkpt lat="49.35489" lon="3.68873">
        <ele>90.98</ele>
        <time>2021-08-09T06:47:53Z</time>
      </trkpt>
      <trkpt lat="49.35487" lon="3.68883">
        <ele>92.42</ele>
        <time>2021-08-09T06:47:55Z</time>
      </trkpt>
      <trkpt lat="49.35469" lon="3.68927">
        <ele>92.9</ele>
        <time>2021-08-09T06:48:05Z</time>
      </trkpt>
      <trkpt lat="49.35441" lon="3.68969">
        <ele>93.39</ele>
        <time>2021-08-09T06:48:16Z</time>
      </trkpt>
      <trkpt lat="49.35418" lon="3.68999">
        <ele>93.39</ele>
        <time>2021-08-09T06:48:24Z</time>
      </trkpt>
      <trkpt lat="49.35396" lon="3.69029">
        <ele>93.39</ele>
        <time>2021-08-09T06:48:32Z</time>
      </trkpt>
      <trkpt lat="49.35361" lon="3.69065">
        <ele>91.94</ele>
        <time>2021-08-09T06:48:42Z</time>
      </trkpt>
      <trkpt lat="49.3534" lon="3.6909">
        <ele>91.94</ele>
        <time>2021-08-09T06:48:49Z</time>
      </trkpt>
      <trkpt lat="49.35324" lon="3.69118">
        <ele>90.5</ele>
        <time>2021-08-09T06:48:56Z</time>
      </trkpt>
      <trkpt lat="49.35309" lon="3.69141">
        <ele>89.54</ele>
        <time>2021-08-09T06:49:02Z</time>
      </trkpt>
      <trkpt lat="49.35303" lon="3.69168">
        <ele>88.58</ele>
        <time>2021-08-09T06:49:08Z</time>
      </trkpt>
      <trkpt lat="49.35307" lon="3.69197">
        <ele>88.1</ele>
        <time>2021-08-09T06:49:14Z</time>
      </trkpt>
      <trkpt lat="49.35313" lon="3.69228">
        <ele>87.62</ele>
        <time>2021-08-09T06:49:20Z</time>
      </trkpt>
      <trkpt lat="49.35317" lon="3.69255">
        <ele>87.14</ele>
        <time>2021-08-09T06:49:26Z</time>
      </trkpt>
      <trkpt lat="49.35318" lon="3.69294">
        <ele>86.66</ele>
        <time>2021-08-09T06:49:33Z</time>
      </trkpt>
      <trkpt lat="49.35319" lon="3.69329">
        <ele>86.66</ele>
        <time>2021-08-09T06:49:39Z</time>
      </trkpt>
      <trkpt lat="49.35318" lon="3.69346">
        <ele>86.66</ele>
        <time>2021-08-09T06:49:43Z</time>
      </trkpt>
      <trkpt lat="49.35319" lon="3.69349">
        <ele>86.66</ele>
        <time>2021-08-09T06:49:44Z</time>
      </trkpt>
      <trkpt lat="49.35319" lon="3.69352">
        <ele>86.66</ele>
        <time>2021-08-09T06:49:45Z</time>
      </trkpt>
      <trkpt lat="49.35319" lon="3.69354">
        <ele>88.1</ele>
        <time>2021-08-09T06:49:46Z</time>
      </trkpt>
      <trkpt lat="49.35319" lon="3.69357">
        <ele>88.1</ele>
        <time>2021-08-09T06:49:47Z</time>
      </trkpt>
      <trkpt lat="49.35318" lon="3.69379">
        <ele>88.58</ele>
        <time>2021-08-09T06:49:56Z</time>
      </trkpt>
      <trkpt lat="49.35322" lon="3.69404">
        <ele>89.54</ele>
        <time>2021-08-09T06:50:06Z</time>
      </trkpt>
      <trkpt lat="49.35323" lon="3.69408">
        <ele>90.02</ele>
        <time>2021-08-09T06:50:08Z</time>
      </trkpt>
      <trkpt lat="49.35324" lon="3.6941">
        <ele>90.5</ele>
        <time>2021-08-09T06:50:09Z</time>
      </trkpt>
      <trkpt lat="49.35324" lon="3.69412">
        <ele>90.5</ele>
        <time>2021-08-09T06:50:10Z</time>
      </trkpt>
      <trkpt lat="49.35324" lon="3.69429">
        <ele>91.46</ele>
        <time>2021-08-09T06:50:17Z</time>
      </trkpt>
      <trkpt lat="49.35321" lon="3.69446">
        <ele>92.9</ele>
        <time>2021-08-09T06:50:24Z</time>
      </trkpt>
      <trkpt lat="49.35321" lon="3.6945">
        <ele>93.39</ele>
        <time>2021-08-09T06:50:26Z</time>
      </trkpt>
      <trkpt lat="49.35322" lon="3.69451">
        <ele>93.39</ele>
        <time>2021-08-09T06:50:27Z</time>
      </trkpt>
      <trkpt lat="49.35323" lon="3.69451">
        <ele>93.39</ele>
        <time>2021-08-09T06:50:28Z</time>
      </trkpt>
      <trkpt lat="49.35331" lon="3.6945">
        <ele>93.39</ele>
        <time>2021-08-09T06:50:34Z</time>
      </trkpt>
      <trkpt lat="49.35332" lon="3.6945">
        <ele>93.39</ele>
        <time>2021-08-09T06:50:35Z</time>
      </trkpt>
      <trkpt lat="49.3535" lon="3.69443">
        <ele>93.39</ele>
        <time>2021-08-09T06:50:43Z</time>
      </trkpt>
      <trkpt lat="49.35377" lon="3.69434">
        <ele>93.87</ele>
        <time>2021-08-09T06:50:52Z</time>
      </trkpt>
      <trkpt lat="49.35407" lon="3.69423">
        <ele>92.42</ele>
        <time>2021-08-09T06:51:00Z</time>
      </trkpt>
      <trkpt lat="49.35452" lon="3.69408">
        <ele>90.98</ele>
        <time>2021-08-09T06:51:09Z</time>
      </trkpt>
      <trkpt lat="49.35502" lon="3.69389">
        <ele>90.5</ele>
        <time>2021-08-09T06:51:20Z</time>
      </trkpt>
      <trkpt lat="49.35537" lon="3.69378">
        <ele>90.5</ele>
        <time>2021-08-09T06:51:29Z</time>
      </trkpt>
      <trkpt lat="49.35561" lon="3.69377">
        <ele>91.46</ele>
        <time>2021-08-09T06:51:36Z</time>
      </trkpt>
      <trkpt lat="49.35588" lon="3.69382">
        <ele>91.94</ele>
        <time>2021-08-09T06:51:44Z</time>
      </trkpt>
      <trkpt lat="49.3561" lon="3.69401">
        <ele>92.9</ele>
        <time>2021-08-09T06:51:52Z</time>
      </trkpt>
      <trkpt lat="49.35624" lon="3.69431">
        <ele>93.87</ele>
        <time>2021-08-09T06:52:00Z</time>
      </trkpt>
      <trkpt lat="49.35634" lon="3.69458">
        <ele>95.31</ele>
        <time>2021-08-09T06:52:08Z</time>
      </trkpt>
      <trkpt lat="49.35642" lon="3.69486">
        <ele>96.27</ele>
        <time>2021-08-09T06:52:17Z</time>
      </trkpt>
      <trkpt lat="49.3565" lon="3.69527">
        <ele>96.75</ele>
        <time>2021-08-09T06:52:28Z</time>
      </trkpt>
      <trkpt lat="49.35656" lon="3.69563">
        <ele>98.19</ele>
        <time>2021-08-09T06:52:38Z</time>
      </trkpt>
      <trkpt lat="49.3566" lon="3.69602">
        <ele>99.63</ele>
        <time>2021-08-09T06:52:49Z</time>
      </trkpt>
      <trkpt lat="49.35663" lon="3.69629">
        <ele>100.6</ele>
        <time>2021-08-09T06:52:58Z</time>
      </trkpt>
      <trkpt lat="49.35665" lon="3.69649">
        <ele>102.04</ele>
        <time>2021-08-09T06:53:05Z</time>
      </trkpt>
      <trkpt lat="49.35669" lon="3.6967">
        <ele>103.48</ele>
        <time>2021-08-09T06:53:13Z</time>
      </trkpt>
      <trkpt lat="49.35672" lon="3.69691">
        <ele>104.44</ele>
        <time>2021-08-09T06:53:21Z</time>
      </trkpt>
      <trkpt lat="49.3568" lon="3.69715">
        <ele>105.4</ele>
        <time>2021-08-09T06:53:29Z</time>
      </trkpt>
      <trkpt lat="49.35695" lon="3.69743">
        <ele>105.88</ele>
        <time>2021-08-09T06:53:39Z</time>
      </trkpt>
      <trkpt lat="49.35703" lon="3.69767">
        <ele>106.84</ele>
        <time>2021-08-09T06:53:46Z</time>
      </trkpt>
      <trkpt lat="49.35708" lon="3.69775">
        <ele>106.84</ele>
        <time>2021-08-09T06:53:48Z</time>
      </trkpt>
      <trkpt lat="49.35712" lon="3.69779">
        <ele>106.84</ele>
        <time>2021-08-09T06:53:49Z</time>
      </trkpt>
      <trkpt lat="49.3572" lon="3.69787">
        <ele>105.4</ele>
        <time>2021-08-09T06:53:51Z</time>
      </trkpt>
      <trkpt lat="49.35749" lon="3.69823">
        <ele>102.52</ele>
        <time>2021-08-09T06:53:57Z</time>
      </trkpt>
      <trkpt lat="49.35781" lon="3.69878">
        <ele>99.15</ele>
        <time>2021-08-09T06:54:03Z</time>
      </trkpt>
      <trkpt lat="49.35798" lon="3.69905">
        <ele>97.71</ele>
        <time>2021-08-09T06:54:06Z</time>
      </trkpt>
      <trkpt lat="49.35828" lon="3.69958">
        <ele>95.31</ele>
        <time>2021-08-09T06:54:12Z</time>
      </trkpt>
      <trkpt lat="49.35832" lon="3.69967">
        <ele>95.31</ele>
        <time>2021-08-09T06:54:13Z</time>
      </trkpt>
      <trkpt lat="49.35833" lon="3.69977">
        <ele>95.31</ele>
        <time>2021-08-09T06:54:14Z</time>
      </trkpt>
      <trkpt lat="49.35833" lon="3.69984">
        <ele>95.31</ele>
        <time>2021-08-09T06:54:15Z</time>
      </trkpt>
      <trkpt lat="49.35831" lon="3.69991">
        <ele>95.31</ele>
        <time>2021-08-09T06:54:16Z</time>
      </trkpt>
      <trkpt lat="49.35828" lon="3.69996">
        <ele>95.31</ele>
        <time>2021-08-09T06:54:17Z</time>
      </trkpt>
      <trkpt lat="49.35826" lon="3.7">
        <ele>95.31</ele>
        <time>2021-08-09T06:54:18Z</time>
      </trkpt>
      <trkpt lat="49.35824" lon="3.70003">
        <ele>95.31</ele>
        <time>2021-08-09T06:54:19Z</time>
      </trkpt>
      <trkpt lat="49.35822" lon="3.70007">
        <ele>96.75</ele>
        <time>2021-08-09T06:54:20Z</time>
      </trkpt>
      <trkpt lat="49.3582" lon="3.7001">
        <ele>96.75</ele>
        <time>2021-08-09T06:54:21Z</time>
      </trkpt>
      <trkpt lat="49.3581" lon="3.70032">
        <ele>97.23</ele>
        <time>2021-08-09T06:54:27Z</time>
      </trkpt>
      <trkpt lat="49.35799" lon="3.70063">
        <ele>95.79</ele>
        <time>2021-08-09T06:54:33Z</time>
      </trkpt>
      <trkpt lat="49.35795" lon="3.70079">
        <ele>95.31</ele>
        <time>2021-08-09T06:54:35Z</time>
      </trkpt>
      <trkpt lat="49.35788" lon="3.70105">
        <ele>93.87</ele>
        <time>2021-08-09T06:54:38Z</time>
      </trkpt>
      <trkpt lat="49.35778" lon="3.70145">
        <ele>90.5</ele>
        <time>2021-08-09T06:54:42Z</time>
      </trkpt>
      <trkpt lat="49.35769" lon="3.70178">
        <ele>87.14</ele>
        <time>2021-08-09T06:54:45Z</time>
      </trkpt>
      <trkpt lat="49.35766" lon="3.70188">
        <ele>87.14</ele>
        <time>2021-08-09T06:54:46Z</time>
      </trkpt>
      <trkpt lat="49.35757" lon="3.70221">
        <ele>85.21</ele>
        <time>2021-08-09T06:54:49Z</time>
      </trkpt>
      <trkpt lat="49.35744" lon="3.70268">
        <ele>82.81</ele>
        <time>2021-08-09T06:54:53Z</time>
      </trkpt>
      <trkpt lat="49.35736" lon="3.70303">
        <ele>81.37</ele>
        <time>2021-08-09T06:54:56Z</time>
      </trkpt>
      <trkpt lat="49.35734" lon="3.70314">
        <ele>81.37</ele>
        <time>2021-08-09T06:54:57Z</time>
      </trkpt>
      <trkpt lat="49.35724" lon="3.7038">
        <ele>80.41</ele>
        <time>2021-08-09T06:55:04Z</time>
      </trkpt>
      <trkpt lat="49.35724" lon="3.70388">
        <ele>80.41</ele>
        <time>2021-08-09T06:55:05Z</time>
      </trkpt>
      <trkpt lat="49.35726" lon="3.7042">
        <ele>81.85</ele>
        <time>2021-08-09T06:55:10Z</time>
      </trkpt>
      <trkpt lat="49.35726" lon="3.70448">
        <ele>84.25</ele>
        <time>2021-08-09T06:55:17Z</time>
      </trkpt>
      <trkpt lat="49.35726" lon="3.70466">
        <ele>85.21</ele>
        <time>2021-08-09T06:55:24Z</time>
      </trkpt>
      <trkpt lat="49.35725" lon="3.70468">
        <ele>85.69</ele>
        <time>2021-08-09T06:55:25Z</time>
      </trkpt>
      <trkpt lat="49.35725" lon="3.70471">
        <ele>86.18</ele>
        <time>2021-08-09T06:55:26Z</time>
      </trkpt>
      <trkpt lat="49.35725" lon="3.70472">
        <ele>86.18</ele>
        <time>2021-08-09T06:55:27Z</time>
      </trkpt>
      <trkpt lat="49.35725" lon="3.70474">
        <ele>86.18</ele>
        <time>2021-08-09T06:55:28Z</time>
      </trkpt>
      <trkpt lat="49.35724" lon="3.70483">
        <ele>87.14</ele>
        <time>2021-08-09T06:55:32Z</time>
      </trkpt>
      <trkpt lat="49.35724" lon="3.70485">
        <ele>87.14</ele>
        <time>2021-08-09T06:55:33Z</time>
      </trkpt>
      <trkpt lat="49.35724" lon="3.70487">
        <ele>87.14</ele>
        <time>2021-08-09T06:55:34Z</time>
      </trkpt>
      <trkpt lat="49.35724" lon="3.70489">
        <ele>88.1</ele>
        <time>2021-08-09T06:55:35Z</time>
      </trkpt>
      <trkpt lat="49.35723" lon="3.70491">
        <ele>88.1</ele>
        <time>2021-08-09T06:55:36Z</time>
      </trkpt>
      <trkpt lat="49.35722" lon="3.705">
        <ele>88.58</ele>
        <time>2021-08-09T06:55:40Z</time>
      </trkpt>
      <trkpt lat="49.35722" lon="3.70502">
        <ele>89.06</ele>
        <time>2021-08-09T06:55:41Z</time>
      </trkpt>
      <trkpt lat="49.3572" lon="3.70517">
        <ele>90.5</ele>
        <time>2021-08-09T06:55:49Z</time>
      </trkpt>
      <trkpt lat="49.35719" lon="3.70519">
        <ele>90.5</ele>
        <time>2021-08-09T06:55:50Z</time>
      </trkpt>
      <trkpt lat="49.35719" lon="3.70521">
        <ele>90.5</ele>
        <time>2021-08-09T06:55:51Z</time>
      </trkpt>
      <trkpt lat="49.35718" lon="3.70523">
        <ele>90.5</ele>
        <time>2021-08-09T06:55:52Z</time>
      </trkpt>
      <trkpt lat="49.35718" lon="3.70525">
        <ele>90.98</ele>
        <time>2021-08-09T06:55:53Z</time>
      </trkpt>
      <trkpt lat="49.35718" lon="3.70527">
        <ele>91.46</ele>
        <time>2021-08-09T06:55:54Z</time>
      </trkpt>
      <trkpt lat="49.35717" lon="3.70529">
        <ele>91.46</ele>
        <time>2021-08-09T06:55:55Z</time>
      </trkpt>
      <trkpt lat="49.35717" lon="3.70531">
        <ele>91.46</ele>
        <time>2021-08-09T06:55:56Z</time>
      </trkpt>
      <trkpt lat="49.35716" lon="3.70533">
        <ele>91.46</ele>
        <time>2021-08-09T06:55:57Z</time>
      </trkpt>
      <trkpt lat="49.35716" lon="3.70535">
        <ele>91.46</ele>
        <time>2021-08-09T06:55:58Z</time>
      </trkpt>
      <trkpt lat="49.35709" lon="3.70557">
        <ele>92.42</ele>
        <time>2021-08-09T06:56:09Z</time>
      </trkpt>
      <trkpt lat="49.35701" lon="3.70575">
        <ele>93.39</ele>
        <time>2021-08-09T06:56:18Z</time>
      </trkpt>
      <trkpt lat="49.35688" lon="3.70598">
        <ele>94.83</ele>
        <time>2021-08-09T06:56:30Z</time>
      </trkpt>
      <trkpt lat="49.35678" lon="3.70612">
        <ele>95.79</ele>
        <time>2021-08-09T06:56:38Z</time>
      </trkpt>
      <trkpt lat="49.35667" lon="3.70622">
        <ele>96.75</ele>
        <time>2021-08-09T06:56:46Z</time>
      </trkpt>
      <trkpt lat="49.35655" lon="3.70635">
        <ele>97.23</ele>
        <time>2021-08-09T06:56:54Z</time>
      </trkpt>
      <trkpt lat="49.3564" lon="3.70653">
        <ele>99.63</ele>
        <time>2021-08-09T06:57:05Z</time>
      </trkpt>
      <trkpt lat="49.35631" lon="3.70667">
        <ele>100.6</ele>
        <time>2021-08-09T06:57:13Z</time>
      </trkpt>
      <trkpt lat="49.35636" lon="3.70689">
        <ele>100.6</ele>
        <time>2021-08-09T06:57:20Z</time>
      </trkpt>
      <trkpt lat="49.35651" lon="3.70724">
        <ele>100.6</ele>
        <time>2021-08-09T06:57:28Z</time>
      </trkpt>
      <trkpt lat="49.35668" lon="3.70769">
        <ele>100.6</ele>
        <time>2021-08-09T06:57:36Z</time>
      </trkpt>
      <trkpt lat="49.35674" lon="3.70788">
        <ele>100.6</ele>
        <time>2021-08-09T06:57:39Z</time>
      </trkpt>
      <trkpt lat="49.35674" lon="3.70794">
        <ele>100.6</ele>
        <time>2021-08-09T06:57:40Z</time>
      </trkpt>
      <trkpt lat="49.35674" lon="3.70801">
        <ele>100.6</ele>
        <time>2021-08-09T06:57:41Z</time>
      </trkpt>
      <trkpt lat="49.3567" lon="3.70864">
        <ele>100.6</ele>
        <time>2021-08-09T06:57:50Z</time>
      </trkpt>
      <trkpt lat="49.35669" lon="3.70872">
        <ele>100.6</ele>
        <time>2021-08-09T06:57:51Z</time>
      </trkpt>
      <trkpt lat="49.35668" lon="3.70879">
        <ele>100.6</ele>
        <time>2021-08-09T06:57:52Z</time>
      </trkpt>
      <trkpt lat="49.35668" lon="3.70929">
        <ele>99.63</ele>
        <time>2021-08-09T06:57:59Z</time>
      </trkpt>
      <trkpt lat="49.35667" lon="3.70936">
        <ele>99.63</ele>
        <time>2021-08-09T06:58:00Z</time>
      </trkpt>
      <trkpt lat="49.35665" lon="3.70958">
        <ele>99.63</ele>
        <time>2021-08-09T06:58:03Z</time>
      </trkpt>
      <trkpt lat="49.35668" lon="3.71027">
        <ele>99.15</ele>
        <time>2021-08-09T06:58:12Z</time>
      </trkpt>
      <trkpt lat="49.35673" lon="3.71111">
        <ele>98.19</ele>
        <time>2021-08-09T06:58:22Z</time>
      </trkpt>
      <trkpt lat="49.35673" lon="3.7112">
        <ele>97.71</ele>
        <time>2021-08-09T06:58:23Z</time>
      </trkpt>
      <trkpt lat="49.35671" lon="3.7113">
        <ele>97.23</ele>
        <time>2021-08-09T06:58:24Z</time>
      </trkpt>
      <trkpt lat="49.35668" lon="3.71139">
        <ele>97.23</ele>
        <time>2021-08-09T06:58:25Z</time>
      </trkpt>
      <trkpt lat="49.35646" lon="3.71192">
        <ele>96.27</ele>
        <time>2021-08-09T06:58:32Z</time>
      </trkpt>
      <trkpt lat="49.35617" lon="3.71255">
        <ele>96.27</ele>
        <time>2021-08-09T06:58:42Z</time>
      </trkpt>
      <trkpt lat="49.35599" lon="3.71293">
        <ele>97.71</ele>
        <time>2021-08-09T06:58:50Z</time>
      </trkpt>
      <trkpt lat="49.35589" lon="3.71316">
        <ele>100.11</ele>
        <time>2021-08-09T06:58:57Z</time>
      </trkpt>
      <trkpt lat="49.35577" lon="3.7134">
        <ele>100.6</ele>
        <time>2021-08-09T06:59:05Z</time>
      </trkpt>
      <trkpt lat="49.35562" lon="3.71376">
        <ele>103</ele>
        <time>2021-08-09T06:59:16Z</time>
      </trkpt>
      <trkpt lat="49.35542" lon="3.71404">
        <ele>103.96</ele>
        <time>2021-08-09T06:59:25Z</time>
      </trkpt>
      <trkpt lat="49.35522" lon="3.71431">
        <ele>103.96</ele>
        <time>2021-08-09T06:59:33Z</time>
      </trkpt>
      <trkpt lat="49.35501" lon="3.7146">
        <ele>104.44</ele>
        <time>2021-08-09T06:59:41Z</time>
      </trkpt>
      <trkpt lat="49.35477" lon="3.71487">
        <ele>104.44</ele>
        <time>2021-08-09T06:59:49Z</time>
      </trkpt>
      <trkpt lat="49.3545" lon="3.71517">
        <ele>104.92</ele>
        <time>2021-08-09T06:59:59Z</time>
      </trkpt>
      <trkpt lat="49.35444" lon="3.71519">
        <ele>104.92</ele>
        <time>2021-08-09T07:00:01Z</time>
      </trkpt>
      <trkpt lat="49.35441" lon="3.71517">
        <ele>105.4</ele>
        <time>2021-08-09T07:00:02Z</time>
      </trkpt>
      <trkpt lat="49.3544" lon="3.71516">
        <ele>105.88</ele>
        <time>2021-08-09T07:00:03Z</time>
      </trkpt>
      <trkpt lat="49.35437" lon="3.71515">
        <ele>105.88</ele>
        <time>2021-08-09T07:00:04Z</time>
      </trkpt>
      <trkpt lat="49.35436" lon="3.71514">
        <ele>106.36</ele>
        <time>2021-08-09T07:00:05Z</time>
      </trkpt>
      <trkpt lat="49.35423" lon="3.71495">
        <ele>107.81</ele>
        <time>2021-08-09T07:00:14Z</time>
      </trkpt>
      <trkpt lat="49.3541" lon="3.71469">
        <ele>109.73</ele>
        <time>2021-08-09T07:00:25Z</time>
      </trkpt>
      <trkpt lat="49.354" lon="3.71448">
        <ele>111.17</ele>
        <time>2021-08-09T07:00:34Z</time>
      </trkpt>
      <trkpt lat="49.35389" lon="3.71428">
        <ele>112.61</ele>
        <time>2021-08-09T07:00:44Z</time>
      </trkpt>
      <trkpt lat="49.3538" lon="3.7141">
        <ele>114.05</ele>
        <time>2021-08-09T07:00:54Z</time>
      </trkpt>
      <trkpt lat="49.35373" lon="3.71391">
        <ele>115.01</ele>
        <time>2021-08-09T07:01:03Z</time>
      </trkpt>
      <trkpt lat="49.35369" lon="3.7138">
        <ele>116.46</ele>
        <time>2021-08-09T07:01:10Z</time>
      </trkpt>
      <trkpt lat="49.35363" lon="3.71365">
        <ele>118.38</ele>
        <time>2021-08-09T07:01:22Z</time>
      </trkpt>
      <trkpt lat="49.35359" lon="3.71356">
        <ele>119.82</ele>
        <time>2021-08-09T07:01:31Z</time>
      </trkpt>
      <trkpt lat="49.35357" lon="3.71351">
        <ele>120.78</ele>
        <time>2021-08-09T07:01:36Z</time>
      </trkpt>
      <trkpt lat="49.35352" lon="3.71343">
        <ele>121.74</ele>
        <time>2021-08-09T07:01:45Z</time>
      </trkpt>
      <trkpt lat="49.35347" lon="3.71334">
        <ele>123.19</ele>
        <time>2021-08-09T07:01:54Z</time>
      </trkpt>
      <trkpt lat="49.35343" lon="3.71327">
        <ele>124.15</ele>
        <time>2021-08-09T07:02:02Z</time>
      </trkpt>
      <trkpt lat="49.35339" lon="3.7132">
        <ele>125.59</ele>
        <time>2021-08-09T07:02:10Z</time>
      </trkpt>
      <trkpt lat="49.35335" lon="3.71309">
        <ele>127.03</ele>
        <time>2021-08-09T07:02:20Z</time>
      </trkpt>
      <trkpt lat="49.35333" lon="3.71298">
        <ele>127.99</ele>
        <time>2021-08-09T07:02:29Z</time>
      </trkpt>
      <trkpt lat="49.35333" lon="3.71294">
        <ele>127.99</ele>
        <time>2021-08-09T07:02:36Z</time>
      </trkpt>
      <trkpt lat="49.35333" lon="3.71292">
        <ele>128.47</ele>
        <time>2021-08-09T07:02:37Z</time>
      </trkpt>
      <trkpt lat="49.35333" lon="3.71277">
        <ele>129.43</ele>
        <time>2021-08-09T07:02:46Z</time>
      </trkpt>
      <trkpt lat="49.35334" lon="3.71275">
        <ele>129.43</ele>
        <time>2021-08-09T07:02:48Z</time>
      </trkpt>
      <trkpt lat="49.35335" lon="3.71276">
        <ele>129.43</ele>
        <time>2021-08-09T07:02:49Z</time>
      </trkpt>
      <trkpt lat="49.35334" lon="3.71279">
        <ele>129.43</ele>
        <time>2021-08-09T07:02:51Z</time>
      </trkpt>
      <trkpt lat="49.35328" lon="3.7127">
        <ele>129.92</ele>
        <time>2021-08-09T07:02:59Z</time>
      </trkpt>
      <trkpt lat="49.3533" lon="3.7125">
        <ele>131.36</ele>
        <time>2021-08-09T07:03:10Z</time>
      </trkpt>
      <trkpt lat="49.35331" lon="3.71242">
        <ele>132.32</ele>
        <time>2021-08-09T07:03:15Z</time>
      </trkpt>
      <trkpt lat="49.35332" lon="3.71225">
        <ele>133.28</ele>
        <time>2021-08-09T07:03:24Z</time>
      </trkpt>
      <trkpt lat="49.35334" lon="3.71222">
        <ele>133.76</ele>
        <time>2021-08-09T07:03:26Z</time>
      </trkpt>
      <trkpt lat="49.35338" lon="3.71202">
        <ele>135.68</ele>
        <time>2021-08-09T07:03:38Z</time>
      </trkpt>
      <trkpt lat="49.35339" lon="3.71196">
        <ele>136.16</ele>
        <time>2021-08-09T07:03:44Z</time>
      </trkpt>
      <trkpt lat="49.35339" lon="3.71186">
        <ele>138.09</ele>
        <time>2021-08-09T07:03:53Z</time>
      </trkpt>
      <trkpt lat="49.35339" lon="3.71176">
        <ele>138.57</ele>
        <time>2021-08-09T07:04:03Z</time>
      </trkpt>
      <trkpt lat="49.35337" lon="3.71167">
        <ele>140.49</ele>
        <time>2021-08-09T07:04:12Z</time>
      </trkpt>
      <trkpt lat="49.35334" lon="3.71158">
        <ele>141.45</ele>
        <time>2021-08-09T07:04:22Z</time>
      </trkpt>
      <trkpt lat="49.35331" lon="3.71151">
        <ele>142.41</ele>
        <time>2021-08-09T07:04:28Z</time>
      </trkpt>
      <trkpt lat="49.35326" lon="3.71141">
        <ele>143.37</ele>
        <time>2021-08-09T07:04:38Z</time>
      </trkpt>
      <trkpt lat="49.35325" lon="3.71138">
        <ele>143.85</ele>
        <time>2021-08-09T07:04:43Z</time>
      </trkpt>
      <trkpt lat="49.3532" lon="3.71131">
        <ele>144.34</ele>
        <time>2021-08-09T07:04:48Z</time>
      </trkpt>
      <trkpt lat="49.3531" lon="3.7112">
        <ele>146.26</ele>
        <time>2021-08-09T07:04:58Z</time>
      </trkpt>
      <trkpt lat="49.35302" lon="3.71111">
        <ele>147.22</ele>
        <time>2021-08-09T07:05:06Z</time>
      </trkpt>
      <trkpt lat="49.35299" lon="3.71108">
        <ele>147.7</ele>
        <time>2021-08-09T07:05:09Z</time>
      </trkpt>
      <trkpt lat="49.35291" lon="3.71103">
        <ele>149.14</ele>
        <time>2021-08-09T07:05:17Z</time>
      </trkpt>
      <trkpt lat="49.35281" lon="3.71094">
        <ele>150.58</ele>
        <time>2021-08-09T07:05:26Z</time>
      </trkpt>
      <trkpt lat="49.35269" lon="3.71086">
        <ele>151.06</ele>
        <time>2021-08-09T07:05:35Z</time>
      </trkpt>
      <trkpt lat="49.35252" lon="3.71074">
        <ele>152.03</ele>
        <time>2021-08-09T07:05:47Z</time>
      </trkpt>
      <trkpt lat="49.35232" lon="3.7106">
        <ele>152.51</ele>
        <time>2021-08-09T07:06:00Z</time>
      </trkpt>
      <trkpt lat="49.35218" lon="3.71051">
        <ele>153.47</ele>
        <time>2021-08-09T07:06:09Z</time>
      </trkpt>
      <trkpt lat="49.35202" lon="3.71041">
        <ele>153.95</ele>
        <time>2021-08-09T07:06:19Z</time>
      </trkpt>
      <trkpt lat="49.35192" lon="3.71033">
        <ele>154.43</ele>
        <time>2021-08-09T07:06:25Z</time>
      </trkpt>
      <trkpt lat="49.35191" lon="3.7103">
        <ele>154.43</ele>
        <time>2021-08-09T07:06:26Z</time>
      </trkpt>
      <trkpt lat="49.3519" lon="3.71029">
        <ele>154.43</ele>
        <time>2021-08-09T07:06:27Z</time>
      </trkpt>
      <trkpt lat="49.3518" lon="3.71022">
        <ele>155.39</ele>
        <time>2021-08-09T07:06:33Z</time>
      </trkpt>
      <trkpt lat="49.35179" lon="3.71022">
        <ele>155.39</ele>
        <time>2021-08-09T07:06:34Z</time>
      </trkpt>
      <trkpt lat="49.35177" lon="3.71021">
        <ele>155.39</ele>
        <time>2021-08-09T07:06:35Z</time>
      </trkpt>
      <trkpt lat="49.35175" lon="3.7102">
        <ele>155.39</ele>
        <time>2021-08-09T07:06:36Z</time>
      </trkpt>
      <trkpt lat="49.35173" lon="3.71019">
        <ele>155.39</ele>
        <time>2021-08-09T07:06:37Z</time>
      </trkpt>
      <trkpt lat="49.35156" lon="3.7101">
        <ele>155.87</ele>
        <time>2021-08-09T07:06:46Z</time>
      </trkpt>
      <trkpt lat="49.35139" lon="3.71001">
        <ele>156.83</ele>
        <time>2021-08-09T07:06:55Z</time>
      </trkpt>
      <trkpt lat="49.35116" lon="3.70991">
        <ele>157.79</ele>
        <time>2021-08-09T07:07:06Z</time>
      </trkpt>
      <trkpt lat="49.35097" lon="3.70983">
        <ele>157.79</ele>
        <time>2021-08-09T07:07:14Z</time>
      </trkpt>
      <trkpt lat="49.35085" lon="3.70978">
        <ele>157.79</ele>
        <time>2021-08-09T07:07:19Z</time>
      </trkpt>
      <trkpt lat="49.35082" lon="3.70977">
        <ele>158.27</ele>
        <time>2021-08-09T07:07:24Z</time>
      </trkpt>
      <trkpt lat="49.3508" lon="3.70976">
        <ele>158.27</ele>
        <time>2021-08-09T07:07:26Z</time>
      </trkpt>
      <trkpt lat="49.35065" lon="3.7097">
        <ele>158.27</ele>
        <time>2021-08-09T07:07:32Z</time>
      </trkpt>
      <trkpt lat="49.35035" lon="3.70959">
        <ele>156.83</ele>
        <time>2021-08-09T07:07:42Z</time>
      </trkpt>
      <trkpt lat="49.34995" lon="3.70942">
        <ele>156.83</ele>
        <time>2021-08-09T07:07:55Z</time>
      </trkpt>
      <trkpt lat="49.34966" lon="3.70929">
        <ele>156.83</ele>
        <time>2021-08-09T07:08:05Z</time>
      </trkpt>
      <trkpt lat="49.34928" lon="3.70918">
        <ele>158.75</ele>
        <time>2021-08-09T07:08:18Z</time>
      </trkpt>
      <trkpt lat="49.34901" lon="3.70909">
        <ele>158.75</ele>
        <time>2021-08-09T07:08:27Z</time>
      </trkpt>
      <trkpt lat="49.34875" lon="3.70896">
        <ele>158.75</ele>
        <time>2021-08-09T07:08:35Z</time>
      </trkpt>
      <trkpt lat="49.34844" lon="3.70878">
        <ele>158.75</ele>
        <time>2021-08-09T07:08:45Z</time>
      </trkpt>
      <trkpt lat="49.34832" lon="3.7087">
        <ele>158.75</ele>
        <time>2021-08-09T07:08:52Z</time>
      </trkpt>
      <trkpt lat="49.34832" lon="3.7087">
        <ele>159.24</ele>
        <time>2021-08-09T07:09:05Z</time>
      </trkpt>
      <trkpt lat="49.34828" lon="3.70868">
        <ele>159.24</ele>
        <time>2021-08-09T07:09:16Z</time>
      </trkpt>
      <trkpt lat="49.34815" lon="3.7086">
        <ele>159.24</ele>
        <time>2021-08-09T07:09:22Z</time>
      </trkpt>
      <trkpt lat="49.34793" lon="3.70848">
        <ele>159.24</ele>
        <time>2021-08-09T07:09:29Z</time>
      </trkpt>
      <trkpt lat="49.3477" lon="3.70841">
        <ele>160.2</ele>
        <time>2021-08-09T07:09:37Z</time>
      </trkpt>
      <trkpt lat="49.34747" lon="3.70842">
        <ele>160.68</ele>
        <time>2021-08-09T07:09:45Z</time>
      </trkpt>
      <trkpt lat="49.3473" lon="3.70842">
        <ele>161.16</ele>
        <time>2021-08-09T07:09:51Z</time>
      </trkpt>
      <trkpt lat="49.34698" lon="3.70844">
        <ele>161.16</ele>
        <time>2021-08-09T07:10:02Z</time>
      </trkpt>
      <trkpt lat="49.34673" lon="3.70844">
        <ele>161.64</ele>
        <time>2021-08-09T07:10:12Z</time>
      </trkpt>
      <trkpt lat="49.34648" lon="3.70834">
        <ele>161.64</ele>
        <time>2021-08-09T07:10:21Z</time>
      </trkpt>
      <trkpt lat="49.34627" lon="3.7082">
        <ele>161.64</ele>
        <time>2021-08-09T07:10:28Z</time>
      </trkpt>
      <trkpt lat="49.34611" lon="3.70808">
        <ele>161.64</ele>
        <time>2021-08-09T07:10:34Z</time>
      </trkpt>
      <trkpt lat="49.34579" lon="3.70789">
        <ele>161.64</ele>
        <time>2021-08-09T07:10:45Z</time>
      </trkpt>
      <trkpt lat="49.34552" lon="3.70775">
        <ele>162.6</ele>
        <time>2021-08-09T07:10:55Z</time>
      </trkpt>
      <trkpt lat="49.34527" lon="3.70765">
        <ele>163.08</ele>
        <time>2021-08-09T07:11:05Z</time>
      </trkpt>
      <trkpt lat="49.34506" lon="3.70758">
        <ele>163.56</ele>
        <time>2021-08-09T07:11:13Z</time>
      </trkpt>
      <trkpt lat="49.34476" lon="3.70749">
        <ele>163.56</ele>
        <time>2021-08-09T07:11:21Z</time>
      </trkpt>
      <trkpt lat="49.34459" lon="3.70743">
        <ele>162.12</ele>
        <time>2021-08-09T07:11:25Z</time>
      </trkpt>
      <trkpt lat="49.34454" lon="3.70742">
        <ele>162.12</ele>
        <time>2021-08-09T07:11:26Z</time>
      </trkpt>
      <trkpt lat="49.3441" lon="3.7073">
        <ele>161.64</ele>
        <time>2021-08-09T07:11:35Z</time>
      </trkpt>
      <trkpt lat="49.34372" lon="3.70724">
        <ele>161.64</ele>
        <time>2021-08-09T07:11:43Z</time>
      </trkpt>
      <trkpt lat="49.34356" lon="3.70724">
        <ele>161.64</ele>
        <time>2021-08-09T07:11:48Z</time>
      </trkpt>
      <trkpt lat="49.34345" lon="3.70722">
        <ele>163.08</ele>
        <time>2021-08-09T07:11:52Z</time>
      </trkpt>
      <trkpt lat="49.34333" lon="3.70708">
        <ele>163.56</ele>
        <time>2021-08-09T07:11:59Z</time>
      </trkpt>
      <trkpt lat="49.34317" lon="3.70701">
        <ele>164.04</ele>
        <time>2021-08-09T07:12:06Z</time>
      </trkpt>
      <trkpt lat="49.34292" lon="3.70683">
        <ele>165</ele>
        <time>2021-08-09T07:12:17Z</time>
      </trkpt>
      <trkpt lat="49.34277" lon="3.70663">
        <ele>165.96</ele>
        <time>2021-08-09T07:12:26Z</time>
      </trkpt>
      <trkpt lat="49.34263" lon="3.70647">
        <ele>166.93</ele>
        <time>2021-08-09T07:12:36Z</time>
      </trkpt>
      <trkpt lat="49.34253" lon="3.70635">
        <ele>167.89</ele>
        <time>2021-08-09T07:12:43Z</time>
      </trkpt>
      <trkpt lat="49.3424" lon="3.70618">
        <ele>168.37</ele>
        <time>2021-08-09T07:12:51Z</time>
      </trkpt>
      <trkpt lat="49.34226" lon="3.706">
        <ele>168.85</ele>
        <time>2021-08-09T07:13:00Z</time>
      </trkpt>
      <trkpt lat="49.34208" lon="3.70573">
        <ele>170.29</ele>
        <time>2021-08-09T07:13:13Z</time>
      </trkpt>
      <trkpt lat="49.34196" lon="3.70554">
        <ele>172.21</ele>
        <time>2021-08-09T07:13:22Z</time>
      </trkpt>
      <trkpt lat="49.34184" lon="3.70538">
        <ele>172.69</ele>
        <time>2021-08-09T07:13:30Z</time>
      </trkpt>
      <trkpt lat="49.3417" lon="3.7052">
        <ele>173.66</ele>
        <time>2021-08-09T07:13:39Z</time>
      </trkpt>
      <trkpt lat="49.34156" lon="3.70504">
        <ele>174.62</ele>
        <time>2021-08-09T07:13:47Z</time>
      </trkpt>
      <trkpt lat="49.34143" lon="3.70488">
        <ele>174.62</ele>
        <time>2021-08-09T07:13:54Z</time>
      </trkpt>
      <trkpt lat="49.34125" lon="3.70469">
        <ele>175.58</ele>
        <time>2021-08-09T07:14:03Z</time>
      </trkpt>
      <trkpt lat="49.34106" lon="3.70448">
        <ele>176.06</ele>
        <time>2021-08-09T07:14:12Z</time>
      </trkpt>
      <trkpt lat="49.34082" lon="3.70421">
        <ele>176.54</ele>
        <time>2021-08-09T07:14:24Z</time>
      </trkpt>
      <trkpt lat="49.34065" lon="3.70404">
        <ele>176.54</ele>
        <time>2021-08-09T07:14:32Z</time>
      </trkpt>
      <trkpt lat="49.34048" lon="3.70384">
        <ele>177.02</ele>
        <time>2021-08-09T07:14:40Z</time>
      </trkpt>
      <trkpt lat="49.34024" lon="3.70359">
        <ele>177.5</ele>
        <time>2021-08-09T07:14:50Z</time>
      </trkpt>
      <trkpt lat="49.34007" lon="3.70341">
        <ele>177.5</ele>
        <time>2021-08-09T07:14:57Z</time>
      </trkpt>
      <trkpt lat="49.33983" lon="3.70316">
        <ele>177.98</ele>
        <time>2021-08-09T07:15:07Z</time>
      </trkpt>
      <trkpt lat="49.33963" lon="3.70293">
        <ele>177.98</ele>
        <time>2021-08-09T07:15:15Z</time>
      </trkpt>
      <trkpt lat="49.33937" lon="3.70265">
        <ele>177.98</ele>
        <time>2021-08-09T07:15:25Z</time>
      </trkpt>
      <trkpt lat="49.3391" lon="3.70236">
        <ele>177.98</ele>
        <time>2021-08-09T07:15:35Z</time>
      </trkpt>
      <trkpt lat="49.33881" lon="3.70204">
        <ele>177.98</ele>
        <time>2021-08-09T07:15:46Z</time>
      </trkpt>
      <trkpt lat="49.33853" lon="3.70173">
        <ele>177.98</ele>
        <time>2021-08-09T07:15:57Z</time>
      </trkpt>
      <trkpt lat="49.33832" lon="3.7015">
        <ele>176.54</ele>
        <time>2021-08-09T07:16:05Z</time>
      </trkpt>
      <trkpt lat="49.3381" lon="3.70128">
        <ele>176.06</ele>
        <time>2021-08-09T07:16:12Z</time>
      </trkpt>
      <trkpt lat="49.33799" lon="3.70116">
        <ele>175.58</ele>
        <time>2021-08-09T07:16:15Z</time>
      </trkpt>
      <trkpt lat="49.33796" lon="3.70112">
        <ele>175.58</ele>
        <time>2021-08-09T07:16:16Z</time>
      </trkpt>
      <trkpt lat="49.33792" lon="3.70108">
        <ele>175.1</ele>
        <time>2021-08-09T07:16:17Z</time>
      </trkpt>
      <trkpt lat="49.33767" lon="3.70084">
        <ele>174.14</ele>
        <time>2021-08-09T07:16:25Z</time>
      </trkpt>
      <trkpt lat="49.33747" lon="3.70062">
        <ele>173.66</ele>
        <time>2021-08-09T07:16:32Z</time>
      </trkpt>
      <trkpt lat="49.33708" lon="3.70028">
        <ele>172.69</ele>
        <time>2021-08-09T07:16:42Z</time>
      </trkpt>
      <trkpt lat="49.33661" lon="3.69986">
        <ele>170.29</ele>
        <time>2021-08-09T07:16:53Z</time>
      </trkpt>
      <trkpt lat="49.33616" lon="3.69942">
        <ele>167.41</ele>
        <time>2021-08-09T07:17:02Z</time>
      </trkpt>
      <trkpt lat="49.33602" lon="3.69921">
        <ele>167.41</ele>
        <time>2021-08-09T07:17:06Z</time>
      </trkpt>
      <trkpt lat="49.33598" lon="3.69918">
        <ele>167.41</ele>
        <time>2021-08-09T07:17:07Z</time>
      </trkpt>
      <trkpt lat="49.33585" lon="3.69911">
        <ele>166.45</ele>
        <time>2021-08-09T07:17:10Z</time>
      </trkpt>
      <trkpt lat="49.33568" lon="3.699">
        <ele>165.48</ele>
        <time>2021-08-09T07:17:14Z</time>
      </trkpt>
      <trkpt lat="49.33558" lon="3.69896">
        <ele>165</ele>
        <time>2021-08-09T07:17:16Z</time>
      </trkpt>
      <trkpt lat="49.33553" lon="3.69897">
        <ele>165</ele>
        <time>2021-08-09T07:17:17Z</time>
      </trkpt>
      <trkpt lat="49.33548" lon="3.69899">
        <ele>164.52</ele>
        <time>2021-08-09T07:17:18Z</time>
      </trkpt>
      <trkpt lat="49.33544" lon="3.69903">
        <ele>164.52</ele>
        <time>2021-08-09T07:17:19Z</time>
      </trkpt>
      <trkpt lat="49.3354" lon="3.69907">
        <ele>164.52</ele>
        <time>2021-08-09T07:17:20Z</time>
      </trkpt>
      <trkpt lat="49.33537" lon="3.6991">
        <ele>164.52</ele>
        <time>2021-08-09T07:17:21Z</time>
      </trkpt>
      <trkpt lat="49.33533" lon="3.69914">
        <ele>164.52</ele>
        <time>2021-08-09T07:17:22Z</time>
      </trkpt>
      <trkpt lat="49.33511" lon="3.69941">
        <ele>162.6</ele>
        <time>2021-08-09T07:17:29Z</time>
      </trkpt>
      <trkpt lat="49.33492" lon="3.69957">
        <ele>161.16</ele>
        <time>2021-08-09T07:17:37Z</time>
      </trkpt>
      <trkpt lat="49.3348" lon="3.69966">
        <ele>160.68</ele>
        <time>2021-08-09T07:17:44Z</time>
      </trkpt>
      <trkpt lat="49.33467" lon="3.69972">
        <ele>160.2</ele>
        <time>2021-08-09T07:17:51Z</time>
      </trkpt>
      <trkpt lat="49.33454" lon="3.69984">
        <ele>160.2</ele>
        <time>2021-08-09T07:17:58Z</time>
      </trkpt>
      <trkpt lat="49.33452" lon="3.69985">
        <ele>160.2</ele>
        <time>2021-08-09T07:18:02Z</time>
      </trkpt>
      <trkpt lat="49.33444" lon="3.69993">
        <ele>160.2</ele>
        <time>2021-08-09T07:18:09Z</time>
      </trkpt>
      <trkpt lat="49.33436" lon="3.70001">
        <ele>160.2</ele>
        <time>2021-08-09T07:18:15Z</time>
      </trkpt>
      <trkpt lat="49.3343" lon="3.70006">
        <ele>161.64</ele>
        <time>2021-08-09T07:18:18Z</time>
      </trkpt>
      <trkpt lat="49.33414" lon="3.70021">
        <ele>162.12</ele>
        <time>2021-08-09T07:18:26Z</time>
      </trkpt>
      <trkpt lat="49.334" lon="3.70035">
        <ele>163.08</ele>
        <time>2021-08-09T07:18:34Z</time>
      </trkpt>
      <trkpt lat="49.33386" lon="3.70048">
        <ele>163.08</ele>
        <time>2021-08-09T07:18:42Z</time>
      </trkpt>
      <trkpt lat="49.33382" lon="3.70051">
        <ele>163.08</ele>
        <time>2021-08-09T07:18:44Z</time>
      </trkpt>
      <trkpt lat="49.33381" lon="3.70053">
        <ele>163.08</ele>
        <time>2021-08-09T07:18:45Z</time>
      </trkpt>
      <trkpt lat="49.33368" lon="3.70071">
        <ele>163.08</ele>
        <time>2021-08-09T07:18:53Z</time>
      </trkpt>
      <trkpt lat="49.33352" lon="3.70093">
        <ele>163.08</ele>
        <time>2021-08-09T07:19:02Z</time>
      </trkpt>
      <trkpt lat="49.33339" lon="3.70119">
        <ele>163.08</ele>
        <time>2021-08-09T07:19:09Z</time>
      </trkpt>
      <trkpt lat="49.33324" lon="3.7016">
        <ele>162.12</ele>
        <time>2021-08-09T07:19:19Z</time>
      </trkpt>
      <trkpt lat="49.33316" lon="3.7019">
        <ele>161.16</ele>
        <time>2021-08-09T07:19:26Z</time>
      </trkpt>
      <trkpt lat="49.3331" lon="3.70214">
        <ele>161.16</ele>
        <time>2021-08-09T07:19:32Z</time>
      </trkpt>
      <trkpt lat="49.33302" lon="3.70254">
        <ele>161.16</ele>
        <time>2021-08-09T07:19:41Z</time>
      </trkpt>
      <trkpt lat="49.33298" lon="3.70278">
        <ele>163.08</ele>
        <time>2021-08-09T07:19:49Z</time>
      </trkpt>
      <trkpt lat="49.33297" lon="3.70286">
        <ele>163.56</ele>
        <time>2021-08-09T07:19:52Z</time>
      </trkpt>
      <trkpt lat="49.33298" lon="3.70289">
        <ele>163.56</ele>
        <time>2021-08-09T07:19:53Z</time>
      </trkpt>
      <trkpt lat="49.33298" lon="3.70292">
        <ele>163.56</ele>
        <time>2021-08-09T07:19:54Z</time>
      </trkpt>
      <trkpt lat="49.33297" lon="3.70295">
        <ele>163.56</ele>
        <time>2021-08-09T07:19:55Z</time>
      </trkpt>
      <trkpt lat="49.33297" lon="3.70297">
        <ele>163.56</ele>
        <time>2021-08-09T07:19:56Z</time>
      </trkpt>
      <trkpt lat="49.33297" lon="3.70299">
        <ele>163.56</ele>
        <time>2021-08-09T07:19:57Z</time>
      </trkpt>
      <trkpt lat="49.33296" lon="3.70301">
        <ele>163.56</ele>
        <time>2021-08-09T07:19:58Z</time>
      </trkpt>
      <trkpt lat="49.33294" lon="3.70303">
        <ele>163.56</ele>
        <time>2021-08-09T07:19:59Z</time>
      </trkpt>
      <trkpt lat="49.33293" lon="3.70304">
        <ele>163.56</ele>
        <time>2021-08-09T07:20:00Z</time>
      </trkpt>
      <trkpt lat="49.33279" lon="3.70302">
        <ele>163.56</ele>
        <time>2021-08-09T07:20:07Z</time>
      </trkpt>
      <trkpt lat="49.33256" lon="3.70293">
        <ele>163.56</ele>
        <time>2021-08-09T07:20:17Z</time>
      </trkpt>
      <trkpt lat="49.33235" lon="3.70284">
        <ele>164.04</ele>
        <time>2021-08-09T07:20:26Z</time>
      </trkpt>
      <trkpt lat="49.33205" lon="3.7027">
        <ele>164.52</ele>
        <time>2021-08-09T07:20:38Z</time>
      </trkpt>
      <trkpt lat="49.33185" lon="3.70262">
        <ele>165</ele>
        <time>2021-08-09T07:20:47Z</time>
      </trkpt>
      <trkpt lat="49.33161" lon="3.70252">
        <ele>165.48</ele>
        <time>2021-08-09T07:20:57Z</time>
      </trkpt>
      <trkpt lat="49.33133" lon="3.70244">
        <ele>166.45</ele>
        <time>2021-08-09T07:21:08Z</time>
      </trkpt>
      <trkpt lat="49.33101" lon="3.7024">
        <ele>166.45</ele>
        <time>2021-08-09T07:21:20Z</time>
      </trkpt>
      <trkpt lat="49.33077" lon="3.70239">
        <ele>166.45</ele>
        <time>2021-08-09T07:21:29Z</time>
      </trkpt>
      <trkpt lat="49.33051" lon="3.70239">
        <ele>167.41</ele>
        <time>2021-08-09T07:21:39Z</time>
      </trkpt>
      <trkpt lat="49.33029" lon="3.70241">
        <ele>167.89</ele>
        <time>2021-08-09T07:21:48Z</time>
      </trkpt>
      <trkpt lat="49.33002" lon="3.70244">
        <ele>168.37</ele>
        <time>2021-08-09T07:21:59Z</time>
      </trkpt>
      <trkpt lat="49.32979" lon="3.70248">
        <ele>168.85</ele>
        <time>2021-08-09T07:22:08Z</time>
      </trkpt>
      <trkpt lat="49.32953" lon="3.70253">
        <ele>169.33</ele>
        <time>2021-08-09T07:22:18Z</time>
      </trkpt>
      <trkpt lat="49.32923" lon="3.70261">
        <ele>169.33</ele>
        <time>2021-08-09T07:22:29Z</time>
      </trkpt>
      <trkpt lat="49.32887" lon="3.70273">
        <ele>169.33</ele>
        <time>2021-08-09T07:22:41Z</time>
      </trkpt>
      <trkpt lat="49.32853" lon="3.7029">
        <ele>169.33</ele>
        <time>2021-08-09T07:22:53Z</time>
      </trkpt>
      <trkpt lat="49.32827" lon="3.70306">
        <ele>169.81</ele>
        <time>2021-08-09T07:23:03Z</time>
      </trkpt>
      <trkpt lat="49.32803" lon="3.70322">
        <ele>169.81</ele>
        <time>2021-08-09T07:23:13Z</time>
      </trkpt>
      <trkpt lat="49.32783" lon="3.70336">
        <ele>170.77</ele>
        <time>2021-08-09T07:23:22Z</time>
      </trkpt>
      <trkpt lat="49.32759" lon="3.70352">
        <ele>170.77</ele>
        <time>2021-08-09T07:23:30Z</time>
      </trkpt>
      <trkpt lat="49.32734" lon="3.70368">
        <ele>170.77</ele>
        <time>2021-08-09T07:23:38Z</time>
      </trkpt>
      <trkpt lat="49.32713" lon="3.70382">
        <ele>169.81</ele>
        <time>2021-08-09T07:23:44Z</time>
      </trkpt>
      <trkpt lat="49.32669" lon="3.70411">
        <ele>168.37</ele>
        <time>2021-08-09T07:23:56Z</time>
      </trkpt>
      <trkpt lat="49.32633" lon="3.7044">
        <ele>165.96</ele>
        <time>2021-08-09T07:24:06Z</time>
      </trkpt>
      <trkpt lat="49.32594" lon="3.70466">
        <ele>164.04</ele>
        <time>2021-08-09T07:24:15Z</time>
      </trkpt>
      <trkpt lat="49.32585" lon="3.70469">
        <ele>162.6</ele>
        <time>2021-08-09T07:24:17Z</time>
      </trkpt>
      <trkpt lat="49.3258" lon="3.70469">
        <ele>162.6</ele>
        <time>2021-08-09T07:24:18Z</time>
      </trkpt>
      <trkpt lat="49.32576" lon="3.70467">
        <ele>162.6</ele>
        <time>2021-08-09T07:24:19Z</time>
      </trkpt>
      <trkpt lat="49.32572" lon="3.70465">
        <ele>162.6</ele>
        <time>2021-08-09T07:24:20Z</time>
      </trkpt>
      <trkpt lat="49.32568" lon="3.70462">
        <ele>162.6</ele>
        <time>2021-08-09T07:24:21Z</time>
      </trkpt>
      <trkpt lat="49.32564" lon="3.70461">
        <ele>162.6</ele>
        <time>2021-08-09T07:24:22Z</time>
      </trkpt>
      <trkpt lat="49.3252" lon="3.70444">
        <ele>159.72</ele>
        <time>2021-08-09T07:24:30Z</time>
      </trkpt>
      <trkpt lat="49.3247" lon="3.70425">
        <ele>155.87</ele>
        <time>2021-08-09T07:24:38Z</time>
      </trkpt>
      <trkpt lat="49.32431" lon="3.7041">
        <ele>152.99</ele>
        <time>2021-08-09T07:24:44Z</time>
      </trkpt>
      <trkpt lat="49.32399" lon="3.70399">
        <ele>149.14</ele>
        <time>2021-08-09T07:24:48Z</time>
      </trkpt>
      <trkpt lat="49.32391" lon="3.70399">
        <ele>148.66</ele>
        <time>2021-08-09T07:24:49Z</time>
      </trkpt>
      <trkpt lat="49.32383" lon="3.704">
        <ele>148.18</ele>
        <time>2021-08-09T07:24:50Z</time>
      </trkpt>
      <trkpt lat="49.32375" lon="3.70402">
        <ele>147.22</ele>
        <time>2021-08-09T07:24:51Z</time>
      </trkpt>
      <trkpt lat="49.32368" lon="3.70405">
        <ele>147.22</ele>
        <time>2021-08-09T07:24:52Z</time>
      </trkpt>
      <trkpt lat="49.3236" lon="3.7041">
        <ele>146.74</ele>
        <time>2021-08-09T07:24:53Z</time>
      </trkpt>
      <trkpt lat="49.32354" lon="3.70417">
        <ele>146.74</ele>
        <time>2021-08-09T07:24:54Z</time>
      </trkpt>
      <trkpt lat="49.3235" lon="3.70426">
        <ele>145.78</ele>
        <time>2021-08-09T07:24:55Z</time>
      </trkpt>
      <trkpt lat="49.32346" lon="3.70436">
        <ele>145.78</ele>
        <time>2021-08-09T07:24:56Z</time>
      </trkpt>
      <trkpt lat="49.32344" lon="3.70446">
        <ele>144.82</ele>
        <time>2021-08-09T07:24:57Z</time>
      </trkpt>
      <trkpt lat="49.32343" lon="3.70457">
        <ele>144.82</ele>
        <time>2021-08-09T07:24:58Z</time>
      </trkpt>
      <trkpt lat="49.32343" lon="3.70468">
        <ele>143.37</ele>
        <time>2021-08-09T07:24:59Z</time>
      </trkpt>
      <trkpt lat="49.32344" lon="3.70479">
        <ele>142.89</ele>
        <time>2021-08-09T07:25:00Z</time>
      </trkpt>
      <trkpt lat="49.32345" lon="3.70491">
        <ele>141.93</ele>
        <time>2021-08-09T07:25:01Z</time>
      </trkpt>
      <trkpt lat="49.32347" lon="3.70502">
        <ele>140.97</ele>
        <time>2021-08-09T07:25:02Z</time>
      </trkpt>
      <trkpt lat="49.3235" lon="3.70512">
        <ele>140.97</ele>
        <time>2021-08-09T07:25:03Z</time>
      </trkpt>
      <trkpt lat="49.32354" lon="3.70522">
        <ele>140.01</ele>
        <time>2021-08-09T07:25:04Z</time>
      </trkpt>
      <trkpt lat="49.32358" lon="3.70532">
        <ele>139.05</ele>
        <time>2021-08-09T07:25:05Z</time>
      </trkpt>
      <trkpt lat="49.32364" lon="3.70542">
        <ele>138.57</ele>
        <time>2021-08-09T07:25:06Z</time>
      </trkpt>
      <trkpt lat="49.32369" lon="3.7055">
        <ele>137.61</ele>
        <time>2021-08-09T07:25:07Z</time>
      </trkpt>
      <trkpt lat="49.32375" lon="3.70557">
        <ele>137.13</ele>
        <time>2021-08-09T07:25:08Z</time>
      </trkpt>
      <trkpt lat="49.32382" lon="3.70565">
        <ele>136.16</ele>
        <time>2021-08-09T07:25:09Z</time>
      </trkpt>
      <trkpt lat="49.32405" lon="3.70585">
        <ele>132.8</ele>
        <time>2021-08-09T07:25:12Z</time>
      </trkpt>
      <trkpt lat="49.32431" lon="3.70606">
        <ele>129.92</ele>
        <time>2021-08-09T07:25:15Z</time>
      </trkpt>
      <trkpt lat="49.3244" lon="3.70613">
        <ele>129.92</ele>
        <time>2021-08-09T07:25:16Z</time>
      </trkpt>
      <trkpt lat="49.32459" lon="3.70625">
        <ele>128.47</ele>
        <time>2021-08-09T07:25:18Z</time>
      </trkpt>
      <trkpt lat="49.32477" lon="3.70636">
        <ele>127.03</ele>
        <time>2021-08-09T07:25:20Z</time>
      </trkpt>
      <trkpt lat="49.32535" lon="3.70683">
        <ele>125.59</ele>
        <time>2021-08-09T07:25:27Z</time>
      </trkpt>
      <trkpt lat="49.32574" lon="3.70723">
        <ele>125.11</ele>
        <time>2021-08-09T07:25:33Z</time>
      </trkpt>
      <trkpt lat="49.32608" lon="3.70772">
        <ele>125.11</ele>
        <time>2021-08-09T07:25:40Z</time>
      </trkpt>
      <trkpt lat="49.3264" lon="3.70828">
        <ele>124.63</ele>
        <time>2021-08-09T07:25:49Z</time>
      </trkpt>
      <trkpt lat="49.32642" lon="3.70833">
        <ele>124.63</ele>
        <time>2021-08-09T07:25:50Z</time>
      </trkpt>
      <trkpt lat="49.32642" lon="3.7084">
        <ele>124.63</ele>
        <time>2021-08-09T07:25:51Z</time>
      </trkpt>
      <trkpt lat="49.32641" lon="3.70846">
        <ele>124.15</ele>
        <time>2021-08-09T07:25:52Z</time>
      </trkpt>
      <trkpt lat="49.32639" lon="3.70854">
        <ele>123.67</ele>
        <time>2021-08-09T07:25:53Z</time>
      </trkpt>
      <trkpt lat="49.32636" lon="3.70861">
        <ele>123.19</ele>
        <time>2021-08-09T07:25:54Z</time>
      </trkpt>
      <trkpt lat="49.32632" lon="3.70868">
        <ele>122.71</ele>
        <time>2021-08-09T07:25:55Z</time>
      </trkpt>
      <trkpt lat="49.32613" lon="3.70899">
        <ele>118.38</ele>
        <time>2021-08-09T07:25:59Z</time>
      </trkpt>
      <trkpt lat="49.32608" lon="3.70906">
        <ele>118.38</ele>
        <time>2021-08-09T07:26:00Z</time>
      </trkpt>
      <trkpt lat="49.32587" lon="3.70939">
        <ele>115.01</ele>
        <time>2021-08-09T07:26:04Z</time>
      </trkpt>
      <trkpt lat="49.32582" lon="3.70949">
        <ele>114.53</ele>
        <time>2021-08-09T07:26:05Z</time>
      </trkpt>
      <trkpt lat="49.32579" lon="3.70957">
        <ele>114.53</ele>
        <time>2021-08-09T07:26:06Z</time>
      </trkpt>
      <trkpt lat="49.32577" lon="3.70966">
        <ele>114.53</ele>
        <time>2021-08-09T07:26:07Z</time>
      </trkpt>
      <trkpt lat="49.32576" lon="3.70973">
        <ele>113.57</ele>
        <time>2021-08-09T07:26:08Z</time>
      </trkpt>
      <trkpt lat="49.32576" lon="3.7098">
        <ele>113.57</ele>
        <time>2021-08-09T07:26:09Z</time>
      </trkpt>
      <trkpt lat="49.32578" lon="3.70987">
        <ele>113.09</ele>
        <time>2021-08-09T07:26:10Z</time>
      </trkpt>
      <trkpt lat="49.32579" lon="3.70994">
        <ele>112.13</ele>
        <time>2021-08-09T07:26:11Z</time>
      </trkpt>
      <trkpt lat="49.32581" lon="3.71001">
        <ele>111.65</ele>
        <time>2021-08-09T07:26:12Z</time>
      </trkpt>
      <trkpt lat="49.32584" lon="3.71007">
        <ele>111.65</ele>
        <time>2021-08-09T07:26:13Z</time>
      </trkpt>
      <trkpt lat="49.32585" lon="3.71014">
        <ele>111.17</ele>
        <time>2021-08-09T07:26:14Z</time>
      </trkpt>
      <trkpt lat="49.32586" lon="3.7102">
        <ele>110.69</ele>
        <time>2021-08-09T07:26:15Z</time>
      </trkpt>
      <trkpt lat="49.32585" lon="3.71025">
        <ele>110.69</ele>
        <time>2021-08-09T07:26:16Z</time>
      </trkpt>
      <trkpt lat="49.32583" lon="3.71031">
        <ele>109.73</ele>
        <time>2021-08-09T07:26:17Z</time>
      </trkpt>
      <trkpt lat="49.3258" lon="3.71036">
        <ele>109.73</ele>
        <time>2021-08-09T07:26:18Z</time>
      </trkpt>
      <trkpt lat="49.32577" lon="3.71041">
        <ele>108.77</ele>
        <time>2021-08-09T07:26:19Z</time>
      </trkpt>
      <trkpt lat="49.32551" lon="3.7108">
        <ele>107.32</ele>
        <time>2021-08-09T07:26:27Z</time>
      </trkpt>
      <trkpt lat="49.32547" lon="3.71091">
        <ele>106.84</ele>
        <time>2021-08-09T07:26:30Z</time>
      </trkpt>
      <trkpt lat="49.32546" lon="3.71098">
        <ele>106.36</ele>
        <time>2021-08-09T07:26:32Z</time>
      </trkpt>
      <trkpt lat="49.32536" lon="3.71121">
        <ele>105.4</ele>
        <time>2021-08-09T07:26:39Z</time>
      </trkpt>
      <trkpt lat="49.32532" lon="3.7113">
        <ele>104.92</ele>
        <time>2021-08-09T07:26:41Z</time>
      </trkpt>
      <trkpt lat="49.32529" lon="3.71136">
        <ele>103.96</ele>
        <time>2021-08-09T07:26:42Z</time>
      </trkpt>
      <trkpt lat="49.32522" lon="3.71148">
        <ele>103</ele>
        <time>2021-08-09T07:26:44Z</time>
      </trkpt>
      <trkpt lat="49.3251" lon="3.71177">
        <ele>102.04</ele>
        <time>2021-08-09T07:26:49Z</time>
      </trkpt>
      <trkpt lat="49.32503" lon="3.7121">
        <ele>99.63</ele>
        <time>2021-08-09T07:26:55Z</time>
      </trkpt>
      <trkpt lat="49.325" lon="3.71217">
        <ele>99.15</ele>
        <time>2021-08-09T07:26:56Z</time>
      </trkpt>
      <trkpt lat="49.32496" lon="3.71223">
        <ele>98.67</ele>
        <time>2021-08-09T07:26:57Z</time>
      </trkpt>
      <trkpt lat="49.3249" lon="3.71228">
        <ele>98.19</ele>
        <time>2021-08-09T07:26:58Z</time>
      </trkpt>
      <trkpt lat="49.32484" lon="3.71231">
        <ele>97.23</ele>
        <time>2021-08-09T07:26:59Z</time>
      </trkpt>
      <trkpt lat="49.32478" lon="3.71234">
        <ele>97.23</ele>
        <time>2021-08-09T07:27:00Z</time>
      </trkpt>
      <trkpt lat="49.32471" lon="3.71236">
        <ele>96.75</ele>
        <time>2021-08-09T07:27:01Z</time>
      </trkpt>
      <trkpt lat="49.32464" lon="3.71235">
        <ele>95.79</ele>
        <time>2021-08-09T07:27:02Z</time>
      </trkpt>
      <trkpt lat="49.32457" lon="3.7123">
        <ele>95.79</ele>
        <time>2021-08-09T07:27:03Z</time>
      </trkpt>
      <trkpt lat="49.32452" lon="3.71223">
        <ele>95.79</ele>
        <time>2021-08-09T07:27:04Z</time>
      </trkpt>
      <trkpt lat="49.32447" lon="3.71216">
        <ele>95.31</ele>
        <time>2021-08-09T07:27:05Z</time>
      </trkpt>
      <trkpt lat="49.32443" lon="3.71208">
        <ele>94.83</ele>
        <time>2021-08-09T07:27:06Z</time>
      </trkpt>
      <trkpt lat="49.32425" lon="3.71176">
        <ele>92.42</ele>
        <time>2021-08-09T07:27:11Z</time>
      </trkpt>
      <trkpt lat="49.32404" lon="3.71122">
        <ele>90.98</ele>
        <time>2021-08-09T07:27:18Z</time>
      </trkpt>
      <trkpt lat="49.32402" lon="3.71114">
        <ele>90.98</ele>
        <time>2021-08-09T07:27:19Z</time>
      </trkpt>
      <trkpt lat="49.32401" lon="3.71105">
        <ele>90.98</ele>
        <time>2021-08-09T07:27:20Z</time>
      </trkpt>
      <trkpt lat="49.32401" lon="3.71096">
        <ele>90.98</ele>
        <time>2021-08-09T07:27:21Z</time>
      </trkpt>
      <trkpt lat="49.32401" lon="3.71073">
        <ele>92.42</ele>
        <time>2021-08-09T07:27:24Z</time>
      </trkpt>
      <trkpt lat="49.324" lon="3.71066">
        <ele>92.42</ele>
        <time>2021-08-09T07:27:25Z</time>
      </trkpt>
      <trkpt lat="49.32397" lon="3.71059">
        <ele>92.42</ele>
        <time>2021-08-09T07:27:26Z</time>
      </trkpt>
      <trkpt lat="49.32394" lon="3.71054">
        <ele>92.42</ele>
        <time>2021-08-09T07:27:27Z</time>
      </trkpt>
      <trkpt lat="49.3239" lon="3.71049">
        <ele>92.42</ele>
        <time>2021-08-09T07:27:28Z</time>
      </trkpt>
      <trkpt lat="49.32377" lon="3.71029">
        <ele>92.9</ele>
        <time>2021-08-09T07:27:32Z</time>
      </trkpt>
      <trkpt lat="49.32375" lon="3.71023">
        <ele>92.9</ele>
        <time>2021-08-09T07:27:33Z</time>
      </trkpt>
      <trkpt lat="49.32374" lon="3.71018">
        <ele>92.9</ele>
        <time>2021-08-09T07:27:34Z</time>
      </trkpt>
      <trkpt lat="49.32373" lon="3.71012">
        <ele>92.9</ele>
        <time>2021-08-09T07:27:35Z</time>
      </trkpt>
      <trkpt lat="49.32372" lon="3.71006">
        <ele>92.9</ele>
        <time>2021-08-09T07:27:36Z</time>
      </trkpt>
      <trkpt lat="49.32362" lon="3.7098">
        <ele>93.39</ele>
        <time>2021-08-09T07:27:42Z</time>
      </trkpt>
      <trkpt lat="49.32346" lon="3.70956">
        <ele>95.31</ele>
        <time>2021-08-09T07:27:50Z</time>
      </trkpt>
      <trkpt lat="49.32328" lon="3.70929">
        <ele>96.75</ele>
        <time>2021-08-09T07:28:00Z</time>
      </trkpt>
      <trkpt lat="49.32308" lon="3.70912">
        <ele>97.71</ele>
        <time>2021-08-09T07:28:09Z</time>
      </trkpt>
      <trkpt lat="49.32288" lon="3.70892">
        <ele>97.71</ele>
        <time>2021-08-09T07:28:17Z</time>
      </trkpt>
      <trkpt lat="49.32273" lon="3.70877">
        <ele>98.19</ele>
        <time>2021-08-09T07:28:23Z</time>
      </trkpt>
      <trkpt lat="49.3227" lon="3.70877">
        <ele>98.19</ele>
        <time>2021-08-09T07:28:24Z</time>
      </trkpt>
      <trkpt lat="49.32268" lon="3.7088">
        <ele>98.19</ele>
        <time>2021-08-09T07:28:25Z</time>
      </trkpt>
      <trkpt lat="49.32266" lon="3.70882">
        <ele>98.19</ele>
        <time>2021-08-09T07:28:26Z</time>
      </trkpt>
      <trkpt lat="49.32264" lon="3.70885">
        <ele>98.19</ele>
        <time>2021-08-09T07:28:27Z</time>
      </trkpt>
      <trkpt lat="49.32262" lon="3.70889">
        <ele>98.19</ele>
        <time>2021-08-09T07:28:28Z</time>
      </trkpt>
      <trkpt lat="49.32259" lon="3.70894">
        <ele>98.19</ele>
        <time>2021-08-09T07:28:29Z</time>
      </trkpt>
      <trkpt lat="49.32257" lon="3.70899">
        <ele>96.75</ele>
        <time>2021-08-09T07:28:30Z</time>
      </trkpt>
      <trkpt lat="49.32255" lon="3.70905">
        <ele>96.75</ele>
        <time>2021-08-09T07:28:31Z</time>
      </trkpt>
      <trkpt lat="49.32247" lon="3.70928">
        <ele>94.83</ele>
        <time>2021-08-09T07:28:34Z</time>
      </trkpt>
      <trkpt lat="49.32245" lon="3.70938">
        <ele>93.87</ele>
        <time>2021-08-09T07:28:35Z</time>
      </trkpt>
      <trkpt lat="49.32236" lon="3.70982">
        <ele>90.02</ele>
        <time>2021-08-09T07:28:39Z</time>
      </trkpt>
      <trkpt lat="49.32231" lon="3.71007">
        <ele>89.54</ele>
        <time>2021-08-09T07:28:41Z</time>
      </trkpt>
      <trkpt lat="49.3222" lon="3.71051">
        <ele>89.06</ele>
        <time>2021-08-09T07:28:45Z</time>
      </trkpt>
      <trkpt lat="49.32202" lon="3.71112">
        <ele>87.62</ele>
        <time>2021-08-09T07:28:51Z</time>
      </trkpt>
      <trkpt lat="49.322" lon="3.71123">
        <ele>87.62</ele>
        <time>2021-08-09T07:28:52Z</time>
      </trkpt>
      <trkpt lat="49.32196" lon="3.71145">
        <ele>87.14</ele>
        <time>2021-08-09T07:28:54Z</time>
      </trkpt>
      <trkpt lat="49.32193" lon="3.71155">
        <ele>87.14</ele>
        <time>2021-08-09T07:28:55Z</time>
      </trkpt>
      <trkpt lat="49.32189" lon="3.71163">
        <ele>87.14</ele>
        <time>2021-08-09T07:28:56Z</time>
      </trkpt>
      <trkpt lat="49.32186" lon="3.71171">
        <ele>87.14</ele>
        <time>2021-08-09T07:28:57Z</time>
      </trkpt>
      <trkpt lat="49.32182" lon="3.71176">
        <ele>87.14</ele>
        <time>2021-08-09T07:28:58Z</time>
      </trkpt>
      <trkpt lat="49.32171" lon="3.71192">
        <ele>89.06</ele>
        <time>2021-08-09T07:29:03Z</time>
      </trkpt>
      <trkpt lat="49.32154" lon="3.71221">
        <ele>90.02</ele>
        <time>2021-08-09T07:29:13Z</time>
      </trkpt>
      <trkpt lat="49.32136" lon="3.71254">
        <ele>91.46</ele>
        <time>2021-08-09T07:29:24Z</time>
      </trkpt>
      <trkpt lat="49.32135" lon="3.71254">
        <ele>91.46</ele>
        <time>2021-08-09T07:29:25Z</time>
      </trkpt>
      <trkpt lat="49.32133" lon="3.71253">
        <ele>91.46</ele>
        <time>2021-08-09T07:29:26Z</time>
      </trkpt>
      <trkpt lat="49.32131" lon="3.71252">
        <ele>91.46</ele>
        <time>2021-08-09T07:29:27Z</time>
      </trkpt>
      <trkpt lat="49.32129" lon="3.7125">
        <ele>91.46</ele>
        <time>2021-08-09T07:29:28Z</time>
      </trkpt>
      <trkpt lat="49.32126" lon="3.71248">
        <ele>91.46</ele>
        <time>2021-08-09T07:29:29Z</time>
      </trkpt>
      <trkpt lat="49.32123" lon="3.71246">
        <ele>91.46</ele>
        <time>2021-08-09T07:29:30Z</time>
      </trkpt>
      <trkpt lat="49.32116" lon="3.71241">
        <ele>90.02</ele>
        <time>2021-08-09T07:29:32Z</time>
      </trkpt>
      <trkpt lat="49.32097" lon="3.71232">
        <ele>88.58</ele>
        <time>2021-08-09T07:29:36Z</time>
      </trkpt>
      <trkpt lat="49.32087" lon="3.71228">
        <ele>88.1</ele>
        <time>2021-08-09T07:29:38Z</time>
      </trkpt>
      <trkpt lat="49.32081" lon="3.71227">
        <ele>87.62</ele>
        <time>2021-08-09T07:29:39Z</time>
      </trkpt>
      <trkpt lat="49.32076" lon="3.71228">
        <ele>87.62</ele>
        <time>2021-08-09T07:29:40Z</time>
      </trkpt>
      <trkpt lat="49.32071" lon="3.71231">
        <ele>86.66</ele>
        <time>2021-08-09T07:29:41Z</time>
      </trkpt>
      <trkpt lat="49.32066" lon="3.71235">
        <ele>86.66</ele>
        <time>2021-08-09T07:29:42Z</time>
      </trkpt>
      <trkpt lat="49.32039" lon="3.71253">
        <ele>84.73</ele>
        <time>2021-08-09T07:29:47Z</time>
      </trkpt>
      <trkpt lat="49.32016" lon="3.7126">
        <ele>83.77</ele>
        <time>2021-08-09T07:29:51Z</time>
      </trkpt>
      <trkpt lat="49.32003" lon="3.71264">
        <ele>83.29</ele>
        <time>2021-08-09T07:29:53Z</time>
      </trkpt>
      <trkpt lat="49.31969" lon="3.71269">
        <ele>80.89</ele>
        <time>2021-08-09T07:29:58Z</time>
      </trkpt>
      <trkpt lat="49.31962" lon="3.71267">
        <ele>80.89</ele>
        <time>2021-08-09T07:29:59Z</time>
      </trkpt>
      <trkpt lat="49.31914" lon="3.71249">
        <ele>79.93</ele>
        <time>2021-08-09T07:30:07Z</time>
      </trkpt>
      <trkpt lat="49.3191" lon="3.71247">
        <ele>79.93</ele>
        <time>2021-08-09T07:30:08Z</time>
      </trkpt>
      <trkpt lat="49.31877" lon="3.71229">
        <ele>80.41</ele>
        <time>2021-08-09T07:30:16Z</time>
      </trkpt>
      <trkpt lat="49.31836" lon="3.71206">
        <ele>79.45</ele>
        <time>2021-08-09T07:30:26Z</time>
      </trkpt>
      <trkpt lat="49.3181" lon="3.71189">
        <ele>79.93</ele>
        <time>2021-08-09T07:30:34Z</time>
      </trkpt>
      <trkpt lat="49.31781" lon="3.71171">
        <ele>78.97</ele>
        <time>2021-08-09T07:30:42Z</time>
      </trkpt>
      <trkpt lat="49.31752" lon="3.71154">
        <ele>78.48</ele>
        <time>2021-08-09T07:30:50Z</time>
      </trkpt>
      <trkpt lat="49.31715" lon="3.71134">
        <ele>78.48</ele>
        <time>2021-08-09T07:31:01Z</time>
      </trkpt>
      <trkpt lat="49.31686" lon="3.71125">
        <ele>78.48</ele>
        <time>2021-08-09T07:31:10Z</time>
      </trkpt>
      <trkpt lat="49.31653" lon="3.71118">
        <ele>78</ele>
        <time>2021-08-09T07:31:19Z</time>
      </trkpt>
      <trkpt lat="49.31625" lon="3.71106">
        <ele>77.52</ele>
        <time>2021-08-09T07:31:27Z</time>
      </trkpt>
      <trkpt lat="49.31592" lon="3.71092">
        <ele>75.6</ele>
        <time>2021-08-09T07:31:35Z</time>
      </trkpt>
      <trkpt lat="49.31581" lon="3.71089">
        <ele>75.12</ele>
        <time>2021-08-09T07:31:37Z</time>
      </trkpt>
      <trkpt lat="49.31576" lon="3.71088">
        <ele>75.12</ele>
        <time>2021-08-09T07:31:38Z</time>
      </trkpt>
      <trkpt lat="49.31552" lon="3.71084">
        <ele>73.2</ele>
        <time>2021-08-09T07:31:44Z</time>
      </trkpt>
      <trkpt lat="49.31529" lon="3.71088">
        <ele>71.27</ele>
        <time>2021-08-09T07:31:50Z</time>
      </trkpt>
      <trkpt lat="49.31525" lon="3.71089">
        <ele>71.27</ele>
        <time>2021-08-09T07:31:51Z</time>
      </trkpt>
      <trkpt lat="49.31521" lon="3.7109">
        <ele>71.27</ele>
        <time>2021-08-09T07:31:52Z</time>
      </trkpt>
      <trkpt lat="49.31517" lon="3.7109">
        <ele>70.79</ele>
        <time>2021-08-09T07:31:53Z</time>
      </trkpt>
      <trkpt lat="49.31513" lon="3.7109">
        <ele>70.79</ele>
        <time>2021-08-09T07:31:54Z</time>
      </trkpt>
      <trkpt lat="49.31508" lon="3.71089">
        <ele>70.31</ele>
        <time>2021-08-09T07:31:55Z</time>
      </trkpt>
      <trkpt lat="49.31503" lon="3.71088">
        <ele>70.31</ele>
        <time>2021-08-09T07:31:56Z</time>
      </trkpt>
      <trkpt lat="49.31497" lon="3.71088">
        <ele>70.31</ele>
        <time>2021-08-09T07:31:57Z</time>
      </trkpt>
      <trkpt lat="49.31492" lon="3.71087">
        <ele>69.83</ele>
        <time>2021-08-09T07:31:58Z</time>
      </trkpt>
      <trkpt lat="49.31451" lon="3.71081">
        <ele>68.87</ele>
        <time>2021-08-09T07:32:06Z</time>
      </trkpt>
      <trkpt lat="49.31409" lon="3.71074">
        <ele>67.91</ele>
        <time>2021-08-09T07:32:14Z</time>
      </trkpt>
      <trkpt lat="49.31362" lon="3.71067">
        <ele>66.95</ele>
        <time>2021-08-09T07:32:24Z</time>
      </trkpt>
      <trkpt lat="49.3134" lon="3.71063">
        <ele>66.47</ele>
        <time>2021-08-09T07:32:29Z</time>
      </trkpt>
      <trkpt lat="49.31336" lon="3.71063">
        <ele>66.47</ele>
        <time>2021-08-09T07:32:30Z</time>
      </trkpt>
      <trkpt lat="49.31332" lon="3.71062">
        <ele>66.47</ele>
        <time>2021-08-09T07:32:31Z</time>
      </trkpt>
      <trkpt lat="49.31328" lon="3.71061">
        <ele>66.47</ele>
        <time>2021-08-09T07:32:32Z</time>
      </trkpt>
      <trkpt lat="49.31324" lon="3.71059">
        <ele>66.47</ele>
        <time>2021-08-09T07:32:33Z</time>
      </trkpt>
      <trkpt lat="49.31322" lon="3.71055">
        <ele>66.47</ele>
        <time>2021-08-09T07:32:34Z</time>
      </trkpt>
      <trkpt lat="49.31319" lon="3.71051">
        <ele>66.47</ele>
        <time>2021-08-09T07:32:35Z</time>
      </trkpt>
      <trkpt lat="49.31318" lon="3.71045">
        <ele>66.47</ele>
        <time>2021-08-09T07:32:36Z</time>
      </trkpt>
      <trkpt lat="49.31319" lon="3.7104">
        <ele>66.47</ele>
        <time>2021-08-09T07:32:37Z</time>
      </trkpt>
      <trkpt lat="49.3132" lon="3.71034">
        <ele>66.47</ele>
        <time>2021-08-09T07:32:38Z</time>
      </trkpt>
      <trkpt lat="49.31322" lon="3.71">
        <ele>67.43</ele>
        <time>2021-08-09T07:32:44Z</time>
      </trkpt>
      <trkpt lat="49.31324" lon="3.70941">
        <ele>68.39</ele>
        <time>2021-08-09T07:32:54Z</time>
      </trkpt>
      <trkpt lat="49.31328" lon="3.70854">
        <ele>68.39</ele>
        <time>2021-08-09T07:33:08Z</time>
      </trkpt>
      <trkpt lat="49.3133" lon="3.70806">
        <ele>68.87</ele>
        <time>2021-08-09T07:33:16Z</time>
      </trkpt>
      <trkpt lat="49.31333" lon="3.70744">
        <ele>68.87</ele>
        <time>2021-08-09T07:33:26Z</time>
      </trkpt>
      <trkpt lat="49.31336" lon="3.70678">
        <ele>69.35</ele>
        <time>2021-08-09T07:33:37Z</time>
      </trkpt>
      <trkpt lat="49.31339" lon="3.70637">
        <ele>70.31</ele>
        <time>2021-08-09T07:33:44Z</time>
      </trkpt>
      <trkpt lat="49.31346" lon="3.70582">
        <ele>71.27</ele>
        <time>2021-08-09T07:33:54Z</time>
      </trkpt>
      <trkpt lat="49.3135" lon="3.70564">
        <ele>71.27</ele>
        <time>2021-08-09T07:33:58Z</time>
      </trkpt>
      <trkpt lat="49.3135" lon="3.70559">
        <ele>71.76</ele>
        <time>2021-08-09T07:33:59Z</time>
      </trkpt>
      <trkpt lat="49.31352" lon="3.70506">
        <ele>70.31</ele>
        <time>2021-08-09T07:34:07Z</time>
      </trkpt>
      <trkpt lat="49.31352" lon="3.70437">
        <ele>69.83</ele>
        <time>2021-08-09T07:34:17Z</time>
      </trkpt>
      <trkpt lat="49.31354" lon="3.70364">
        <ele>69.83</ele>
        <time>2021-08-09T07:34:27Z</time>
      </trkpt>
      <trkpt lat="49.31355" lon="3.7032">
        <ele>69.83</ele>
        <time>2021-08-09T07:34:33Z</time>
      </trkpt>
      <trkpt lat="49.31355" lon="3.70312">
        <ele>69.83</ele>
        <time>2021-08-09T07:34:34Z</time>
      </trkpt>
      <trkpt lat="49.31355" lon="3.70306">
        <ele>69.83</ele>
        <time>2021-08-09T07:34:35Z</time>
      </trkpt>
      <trkpt lat="49.31355" lon="3.70284">
        <ele>69.83</ele>
        <time>2021-08-09T07:34:38Z</time>
      </trkpt>
      <trkpt lat="49.31358" lon="3.70237">
        <ele>69.83</ele>
        <time>2021-08-09T07:34:45Z</time>
      </trkpt>
      <trkpt lat="49.31358" lon="3.70215">
        <ele>69.83</ele>
        <time>2021-08-09T07:34:48Z</time>
      </trkpt>
      <trkpt lat="49.31358" lon="3.70207">
        <ele>69.35</ele>
        <time>2021-08-09T07:34:49Z</time>
      </trkpt>
      <trkpt lat="49.3136" lon="3.70171">
        <ele>69.35</ele>
        <time>2021-08-09T07:34:54Z</time>
      </trkpt>
      <trkpt lat="49.3136" lon="3.70163">
        <ele>69.35</ele>
        <time>2021-08-09T07:34:55Z</time>
      </trkpt>
      <trkpt lat="49.31361" lon="3.70156">
        <ele>69.35</ele>
        <time>2021-08-09T07:34:56Z</time>
      </trkpt>
      <trkpt lat="49.31361" lon="3.70149">
        <ele>69.35</ele>
        <time>2021-08-09T07:34:57Z</time>
      </trkpt>
      <trkpt lat="49.31363" lon="3.70142">
        <ele>69.35</ele>
        <time>2021-08-09T07:34:58Z</time>
      </trkpt>
      <trkpt lat="49.31363" lon="3.70135">
        <ele>69.35</ele>
        <time>2021-08-09T07:34:59Z</time>
      </trkpt>
      <trkpt lat="49.31363" lon="3.70128">
        <ele>69.35</ele>
        <time>2021-08-09T07:35:00Z</time>
      </trkpt>
      <trkpt lat="49.31363" lon="3.7012">
        <ele>68.87</ele>
        <time>2021-08-09T07:35:01Z</time>
      </trkpt>
      <trkpt lat="49.31365" lon="3.70049">
        <ele>68.87</ele>
        <time>2021-08-09T07:35:10Z</time>
      </trkpt>
      <trkpt lat="49.31368" lon="3.69964">
        <ele>67.91</ele>
        <time>2021-08-09T07:35:20Z</time>
      </trkpt>
      <trkpt lat="49.3137" lon="3.6994">
        <ele>67.91</ele>
        <time>2021-08-09T07:35:23Z</time>
      </trkpt>
      <trkpt lat="49.31374" lon="3.69874">
        <ele>66.95</ele>
        <time>2021-08-09T07:35:31Z</time>
      </trkpt>
      <trkpt lat="49.31375" lon="3.69859">
        <ele>66.95</ele>
        <time>2021-08-09T07:35:33Z</time>
      </trkpt>
      <trkpt lat="49.31375" lon="3.69851">
        <ele>66.95</ele>
        <time>2021-08-09T07:35:34Z</time>
      </trkpt>
      <trkpt lat="49.31374" lon="3.69844">
        <ele>66.95</ele>
        <time>2021-08-09T07:35:35Z</time>
      </trkpt>
      <trkpt lat="49.31375" lon="3.69836">
        <ele>66.95</ele>
        <time>2021-08-09T07:35:36Z</time>
      </trkpt>
      <trkpt lat="49.31375" lon="3.6983">
        <ele>66.95</ele>
        <time>2021-08-09T07:35:37Z</time>
      </trkpt>
      <trkpt lat="49.31378" lon="3.69759">
        <ele>67.43</ele>
        <time>2021-08-09T07:35:47Z</time>
      </trkpt>
      <trkpt lat="49.31382" lon="3.6969">
        <ele>67.43</ele>
        <time>2021-08-09T07:35:56Z</time>
      </trkpt>
      <trkpt lat="49.31385" lon="3.69629">
        <ele>67.43</ele>
        <time>2021-08-09T07:36:04Z</time>
      </trkpt>
      <trkpt lat="49.31389" lon="3.69566">
        <ele>66.47</ele>
        <time>2021-08-09T07:36:12Z</time>
      </trkpt>
      <trkpt lat="49.31394" lon="3.69469">
        <ele>65.99</ele>
        <time>2021-08-09T07:36:23Z</time>
      </trkpt>
      <trkpt lat="49.31396" lon="3.69406">
        <ele>65.99</ele>
        <time>2021-08-09T07:36:30Z</time>
      </trkpt>
      <trkpt lat="49.31399" lon="3.69311">
        <ele>65.51</ele>
        <time>2021-08-09T07:36:41Z</time>
      </trkpt>
      <trkpt lat="49.31404" lon="3.69215">
        <ele>65.51</ele>
        <time>2021-08-09T07:36:52Z</time>
      </trkpt>
      <trkpt lat="49.31409" lon="3.69118">
        <ele>65.03</ele>
        <time>2021-08-09T07:37:03Z</time>
      </trkpt>
      <trkpt lat="49.31413" lon="3.69048">
        <ele>65.03</ele>
        <time>2021-08-09T07:37:11Z</time>
      </trkpt>
      <trkpt lat="49.31418" lon="3.6896">
        <ele>63.58</ele>
        <time>2021-08-09T07:37:21Z</time>
      </trkpt>
      <trkpt lat="49.3142" lon="3.68889">
        <ele>63.58</ele>
        <time>2021-08-09T07:37:29Z</time>
      </trkpt>
      <trkpt lat="49.31422" lon="3.68812">
        <ele>63.58</ele>
        <time>2021-08-09T07:37:38Z</time>
      </trkpt>
      <trkpt lat="49.31425" lon="3.68749">
        <ele>63.58</ele>
        <time>2021-08-09T07:37:46Z</time>
      </trkpt>
      <trkpt lat="49.31428" lon="3.68686">
        <ele>63.58</ele>
        <time>2021-08-09T07:37:54Z</time>
      </trkpt>
      <trkpt lat="49.31432" lon="3.68625">
        <ele>63.58</ele>
        <time>2021-08-09T07:38:02Z</time>
      </trkpt>
      <trkpt lat="49.31433" lon="3.68596">
        <ele>63.58</ele>
        <time>2021-08-09T07:38:06Z</time>
      </trkpt>
      <trkpt lat="49.31433" lon="3.68589">
        <ele>63.58</ele>
        <time>2021-08-09T07:38:07Z</time>
      </trkpt>
      <trkpt lat="49.31434" lon="3.6853">
        <ele>64.55</ele>
        <time>2021-08-09T07:38:15Z</time>
      </trkpt>
      <trkpt lat="49.31432" lon="3.68445">
        <ele>64.55</ele>
        <time>2021-08-09T07:38:26Z</time>
      </trkpt>
      <trkpt lat="49.31427" lon="3.68396">
        <ele>65.03</ele>
        <time>2021-08-09T07:38:33Z</time>
      </trkpt>
      <trkpt lat="49.31426" lon="3.68382">
        <ele>65.51</ele>
        <time>2021-08-09T07:38:35Z</time>
      </trkpt>
      <trkpt lat="49.31426" lon="3.68375">
        <ele>65.51</ele>
        <time>2021-08-09T07:38:36Z</time>
      </trkpt>
      <trkpt lat="49.3143" lon="3.68323">
        <ele>66.95</ele>
        <time>2021-08-09T07:38:45Z</time>
      </trkpt>
      <trkpt lat="49.31433" lon="3.68287">
        <ele>67.91</ele>
        <time>2021-08-09T07:38:53Z</time>
      </trkpt>
      <trkpt lat="49.31438" lon="3.68248">
        <ele>69.83</ele>
        <time>2021-08-09T07:39:03Z</time>
      </trkpt>
      <trkpt lat="49.3144" lon="3.68222">
        <ele>71.27</ele>
        <time>2021-08-09T07:39:11Z</time>
      </trkpt>
      <trkpt lat="49.3144" lon="3.68218">
        <ele>71.27</ele>
        <time>2021-08-09T07:39:12Z</time>
      </trkpt>
      <trkpt lat="49.3144" lon="3.68215">
        <ele>71.27</ele>
        <time>2021-08-09T07:39:13Z</time>
      </trkpt>
      <trkpt lat="49.31439" lon="3.6821">
        <ele>71.27</ele>
        <time>2021-08-09T07:39:14Z</time>
      </trkpt>
      <trkpt lat="49.31438" lon="3.68204">
        <ele>71.27</ele>
        <time>2021-08-09T07:39:15Z</time>
      </trkpt>
      <trkpt lat="49.31436" lon="3.68199">
        <ele>71.27</ele>
        <time>2021-08-09T07:39:16Z</time>
      </trkpt>
      <trkpt lat="49.31434" lon="3.68196">
        <ele>71.27</ele>
        <time>2021-08-09T07:39:17Z</time>
      </trkpt>
      <trkpt lat="49.3143" lon="3.68185">
        <ele>70.31</ele>
        <time>2021-08-09T07:39:19Z</time>
      </trkpt>
      <trkpt lat="49.31406" lon="3.6814">
        <ele>67.91</ele>
        <time>2021-08-09T07:39:26Z</time>
      </trkpt>
      <trkpt lat="49.31398" lon="3.68125">
        <ele>66.95</ele>
        <time>2021-08-09T07:39:28Z</time>
      </trkpt>
      <trkpt lat="49.31369" lon="3.68064">
        <ele>64.07</ele>
        <time>2021-08-09T07:39:35Z</time>
      </trkpt>
      <trkpt lat="49.31355" lon="3.68036">
        <ele>62.62</ele>
        <time>2021-08-09T07:39:38Z</time>
      </trkpt>
      <trkpt lat="49.3133" lon="3.67987">
        <ele>61.18</ele>
        <time>2021-08-09T07:39:45Z</time>
      </trkpt>
      <trkpt lat="49.31325" lon="3.6797">
        <ele>61.18</ele>
        <time>2021-08-09T07:39:48Z</time>
      </trkpt>
      <trkpt lat="49.31326" lon="3.67966">
        <ele>61.18</ele>
        <time>2021-08-09T07:39:49Z</time>
      </trkpt>
      <trkpt lat="49.31328" lon="3.67947">
        <ele>61.18</ele>
        <time>2021-08-09T07:39:55Z</time>
      </trkpt>
      <trkpt lat="49.31329" lon="3.67946">
        <ele>61.18</ele>
        <time>2021-08-09T07:40:02Z</time>
      </trkpt>
      <trkpt lat="49.3133" lon="3.67944">
        <ele>61.18</ele>
        <time>2021-08-09T07:40:11Z</time>
      </trkpt>
      <trkpt lat="49.3133" lon="3.67945">
        <ele>61.18</ele>
        <time>2021-08-09T07:40:23Z</time>
      </trkpt>
      <trkpt lat="49.31331" lon="3.67951">
        <ele>61.66</ele>
        <time>2021-08-09T07:40:39Z</time>
      </trkpt>
      <trkpt lat="49.31331" lon="3.67953">
        <ele>61.66</ele>
        <time>2021-08-09T07:40:46Z</time>
      </trkpt>
      <trkpt lat="49.31331" lon="3.67954">
        <ele>61.66</ele>
        <time>2021-08-09T07:40:55Z</time>
      </trkpt>
      <trkpt lat="49.31332" lon="3.67954">
        <ele>61.66</ele>
        <time>2021-08-09T07:41:06Z</time>
      </trkpt>
      <trkpt lat="49.31332" lon="3.67953">
        <ele>61.66</ele>
        <time>2021-08-09T07:41:16Z</time>
      </trkpt>
      <trkpt lat="49.31331" lon="3.67953">
        <ele>61.66</ele>
        <time>2021-08-09T07:41:21Z</time>
      </trkpt>
      <trkpt lat="49.31332" lon="3.67947">
        <ele>61.66</ele>
        <time>2021-08-09T07:41:26Z</time>
      </trkpt>
      <trkpt lat="49.31333" lon="3.67948">
        <ele>61.66</ele>
        <time>2021-08-09T07:41:35Z</time>
      </trkpt>
      <trkpt lat="49.31333" lon="3.67948">
        <ele>61.66</ele>
        <time>2021-08-09T07:41:43Z</time>
      </trkpt>
      <trkpt lat="49.31333" lon="3.67947">
        <ele>61.66</ele>
        <time>2021-08-09T07:41:55Z</time>
      </trkpt>
      <trkpt lat="49.31333" lon="3.67947">
        <ele>61.66</ele>
        <time>2021-08-09T07:42:04Z</time>
      </trkpt>
      <trkpt lat="49.31333" lon="3.6795">
        <ele>61.66</ele>
        <time>2021-08-09T07:42:23Z</time>
      </trkpt>
      <trkpt lat="49.31332" lon="3.67952">
        <ele>61.66</ele>
        <time>2021-08-09T07:42:35Z</time>
      </trkpt>
      <trkpt lat="49.31332" lon="3.67952">
        <ele>61.66</ele>
        <time>2021-08-09T07:42:45Z</time>
      </trkpt>
      <trkpt lat="49.31332" lon="3.67952">
        <ele>61.66</ele>
        <time>2021-08-09T07:42:54Z</time>
      </trkpt>
      <trkpt lat="49.31332" lon="3.67953">
        <ele>61.66</ele>
        <time>2021-08-09T07:43:02Z</time>
      </trkpt>
      <trkpt lat="49.31332" lon="3.67953">
        <ele>61.66</ele>
        <time>2021-08-09T07:43:11Z</time>
      </trkpt>
      <trkpt lat="49.31332" lon="3.67953">
        <ele>61.66</ele>
        <time>2021-08-09T07:43:20Z</time>
      </trkpt>
      <trkpt lat="49.31332" lon="3.67952">
        <ele>61.66</ele>
        <time>2021-08-09T07:43:34Z</time>
      </trkpt>
      <trkpt lat="49.31332" lon="3.6795">
        <ele>61.66</ele>
        <time>2021-08-09T07:43:50Z</time>
      </trkpt>
      <trkpt lat="49.31332" lon="3.67951">
        <ele>62.14</ele>
        <time>2021-08-09T07:44:06Z</time>
      </trkpt>
      <trkpt lat="49.31332" lon="3.67952">
        <ele>62.14</ele>
        <time>2021-08-09T07:44:19Z</time>
      </trkpt>
      <trkpt lat="49.31332" lon="3.67951">
        <ele>62.14</ele>
        <time>2021-08-09T07:44:34Z</time>
      </trkpt>
      <trkpt lat="49.31332" lon="3.67951">
        <ele>62.14</ele>
        <time>2021-08-09T07:44:46Z</time>
      </trkpt>
      <trkpt lat="49.31332" lon="3.67953">
        <ele>62.14</ele>
        <time>2021-08-09T07:44:55Z</time>
      </trkpt>
      <trkpt lat="49.31332" lon="3.67953">
        <ele>62.14</ele>
        <time>2021-08-09T07:45:09Z</time>
      </trkpt>
      <trkpt lat="49.31331" lon="3.67954">
        <ele>62.14</ele>
        <time>2021-08-09T07:45:22Z</time>
      </trkpt>
      <trkpt lat="49.31332" lon="3.67953">
        <ele>62.62</ele>
        <time>2021-08-09T07:45:34Z</time>
      </trkpt>
      <trkpt lat="49.31332" lon="3.67952">
        <ele>62.62</ele>
        <time>2021-08-09T07:45:42Z</time>
      </trkpt>
      <trkpt lat="49.31331" lon="3.67952">
        <ele>62.62</ele>
        <time>2021-08-09T07:45:52Z</time>
      </trkpt>
      <trkpt lat="49.31331" lon="3.67955">
        <ele>62.62</ele>
        <time>2021-08-09T07:46:06Z</time>
      </trkpt>
      <trkpt lat="49.31332" lon="3.67955">
        <ele>62.62</ele>
        <time>2021-08-09T07:46:16Z</time>
      </trkpt>
      <trkpt lat="49.31331" lon="3.67956">
        <ele>62.62</ele>
        <time>2021-08-09T07:46:22Z</time>
      </trkpt>
      <trkpt lat="49.31332" lon="3.67956">
        <ele>62.62</ele>
        <time>2021-08-09T07:46:27Z</time>
      </trkpt>
      <trkpt lat="49.31332" lon="3.6795">
        <ele>62.62</ele>
        <time>2021-08-09T07:46:39Z</time>
      </trkpt>
      <trkpt lat="49.31332" lon="3.67949">
        <ele>63.1</ele>
        <time>2021-08-09T07:46:47Z</time>
      </trkpt>
      <trkpt lat="49.31332" lon="3.67948">
        <ele>63.1</ele>
        <time>2021-08-09T07:46:58Z</time>
      </trkpt>
      <trkpt lat="49.31332" lon="3.6795">
        <ele>63.1</ele>
        <time>2021-08-09T07:47:07Z</time>
      </trkpt>
      <trkpt lat="49.31331" lon="3.6795">
        <ele>63.1</ele>
        <time>2021-08-09T07:47:21Z</time>
      </trkpt>
      <trkpt lat="49.3133" lon="3.67953">
        <ele>63.1</ele>
        <time>2021-08-09T07:47:32Z</time>
      </trkpt>
      <trkpt lat="49.3133" lon="3.67953">
        <ele>63.58</ele>
        <time>2021-08-09T07:47:42Z</time>
      </trkpt>
      <trkpt lat="49.31331" lon="3.67953">
        <ele>63.58</ele>
        <time>2021-08-09T07:47:59Z</time>
      </trkpt>
      <trkpt lat="49.31331" lon="3.67955">
        <ele>63.58</ele>
        <time>2021-08-09T07:48:08Z</time>
      </trkpt>
      <trkpt lat="49.31332" lon="3.67957">
        <ele>63.58</ele>
        <time>2021-08-09T07:48:19Z</time>
      </trkpt>
      <trkpt lat="49.31331" lon="3.67957">
        <ele>64.07</ele>
        <time>2021-08-09T07:48:28Z</time>
      </trkpt>
      <trkpt lat="49.31327" lon="3.67957">
        <ele>64.07</ele>
        <time>2021-08-09T07:48:34Z</time>
      </trkpt>
      <trkpt lat="49.31325" lon="3.67954">
        <ele>64.07</ele>
        <time>2021-08-09T07:48:41Z</time>
      </trkpt>
      <trkpt lat="49.31325" lon="3.67953">
        <ele>64.07</ele>
        <time>2021-08-09T07:48:50Z</time>
      </trkpt>
      <trkpt lat="49.31325" lon="3.67951">
        <ele>64.07</ele>
        <time>2021-08-09T07:49:03Z</time>
      </trkpt>
      <trkpt lat="49.31324" lon="3.6795">
        <ele>64.55</ele>
        <time>2021-08-09T07:49:13Z</time>
      </trkpt>
      <trkpt lat="49.31324" lon="3.67949">
        <ele>64.55</ele>
        <time>2021-08-09T07:49:14Z</time>
      </trkpt>
      <trkpt lat="49.31323" lon="3.67947">
        <ele>64.55</ele>
        <time>2021-08-09T07:49:15Z</time>
      </trkpt>
      <trkpt lat="49.31322" lon="3.67945">
        <ele>64.55</ele>
        <time>2021-08-09T07:49:16Z</time>
      </trkpt>
      <trkpt lat="49.3132" lon="3.67944">
        <ele>64.55</ele>
        <time>2021-08-09T07:49:17Z</time>
      </trkpt>
      <trkpt lat="49.31318" lon="3.67944">
        <ele>64.55</ele>
        <time>2021-08-09T07:49:18Z</time>
      </trkpt>
      <trkpt lat="49.31316" lon="3.67944">
        <ele>64.55</ele>
        <time>2021-08-09T07:49:19Z</time>
      </trkpt>
      <trkpt lat="49.31314" lon="3.67945">
        <ele>64.55</ele>
        <time>2021-08-09T07:49:20Z</time>
      </trkpt>
      <trkpt lat="49.31289" lon="3.67955">
        <ele>64.55</ele>
        <time>2021-08-09T07:49:28Z</time>
      </trkpt>
      <trkpt lat="49.31249" lon="3.67956">
        <ele>64.55</ele>
        <time>2021-08-09T07:49:39Z</time>
      </trkpt>
      <trkpt lat="49.31221" lon="3.67957">
        <ele>66.47</ele>
        <time>2021-08-09T07:49:47Z</time>
      </trkpt>
      <trkpt lat="49.312" lon="3.67957">
        <ele>67.43</ele>
        <time>2021-08-09T07:49:54Z</time>
      </trkpt>
      <trkpt lat="49.31159" lon="3.6796">
        <ele>69.83</ele>
        <time>2021-08-09T07:50:06Z</time>
      </trkpt>
      <trkpt lat="49.31122" lon="3.67962">
        <ele>70.79</ele>
        <time>2021-08-09T07:50:17Z</time>
      </trkpt>
      <trkpt lat="49.31091" lon="3.67963">
        <ele>71.27</ele>
        <time>2021-08-09T07:50:25Z</time>
      </trkpt>
      <trkpt lat="49.31067" lon="3.67964">
        <ele>69.83</ele>
        <time>2021-08-09T07:50:30Z</time>
      </trkpt>
      <trkpt lat="49.31016" lon="3.67966">
        <ele>67.91</ele>
        <time>2021-08-09T07:50:39Z</time>
      </trkpt>
      <trkpt lat="49.31" lon="3.67963">
        <ele>67.43</ele>
        <time>2021-08-09T07:50:42Z</time>
      </trkpt>
      <trkpt lat="49.30995" lon="3.67963">
        <ele>67.43</ele>
        <time>2021-08-09T07:50:43Z</time>
      </trkpt>
      <trkpt lat="49.30989" lon="3.67964">
        <ele>67.43</ele>
        <time>2021-08-09T07:50:44Z</time>
      </trkpt>
      <trkpt lat="49.30983" lon="3.67966">
        <ele>67.91</ele>
        <time>2021-08-09T07:50:45Z</time>
      </trkpt>
      <trkpt lat="49.3098" lon="3.67967">
        <ele>67.43</ele>
        <time>2021-08-09T07:50:46Z</time>
      </trkpt>
      <trkpt lat="49.3097" lon="3.67969">
        <ele>67.43</ele>
        <time>2021-08-09T07:50:48Z</time>
      </trkpt>
      <trkpt lat="49.30966" lon="3.67969">
        <ele>67.43</ele>
        <time>2021-08-09T07:50:49Z</time>
      </trkpt>
      <trkpt lat="49.30949" lon="3.67971">
        <ele>69.35</ele>
        <time>2021-08-09T07:50:53Z</time>
      </trkpt>
      <trkpt lat="49.30916" lon="3.67973">
        <ele>70.31</ele>
        <time>2021-08-09T07:51:02Z</time>
      </trkpt>
      <trkpt lat="49.30887" lon="3.67974">
        <ele>72.24</ele>
        <time>2021-08-09T07:51:11Z</time>
      </trkpt>
      <trkpt lat="49.30883" lon="3.67973">
        <ele>72.24</ele>
        <time>2021-08-09T07:51:12Z</time>
      </trkpt>
      <trkpt lat="49.30879" lon="3.67973">
        <ele>72.24</ele>
        <time>2021-08-09T07:51:13Z</time>
      </trkpt>
      <trkpt lat="49.30862" lon="3.67972">
        <ele>73.2</ele>
        <time>2021-08-09T07:51:19Z</time>
      </trkpt>
      <trkpt lat="49.30843" lon="3.67975">
        <ele>74.16</ele>
        <time>2021-08-09T07:51:26Z</time>
      </trkpt>
      <trkpt lat="49.30822" lon="3.67978">
        <ele>75.6</ele>
        <time>2021-08-09T07:51:34Z</time>
      </trkpt>
      <trkpt lat="49.30787" lon="3.67982">
        <ele>78</ele>
        <time>2021-08-09T07:51:46Z</time>
      </trkpt>
      <trkpt lat="49.30754" lon="3.67986">
        <ele>79.45</ele>
        <time>2021-08-09T07:51:57Z</time>
      </trkpt>
      <trkpt lat="49.30737" lon="3.67985">
        <ele>80.41</ele>
        <time>2021-08-09T07:52:05Z</time>
      </trkpt>
      <trkpt lat="49.30735" lon="3.67985">
        <ele>80.89</ele>
        <time>2021-08-09T07:52:11Z</time>
      </trkpt>
      <trkpt lat="49.30721" lon="3.67979">
        <ele>80.89</ele>
        <time>2021-08-09T07:52:18Z</time>
      </trkpt>
      <trkpt lat="49.30696" lon="3.67988">
        <ele>80.89</ele>
        <time>2021-08-09T07:52:26Z</time>
      </trkpt>
      <trkpt lat="49.30665" lon="3.68012">
        <ele>81.37</ele>
        <time>2021-08-09T07:52:35Z</time>
      </trkpt>
      <trkpt lat="49.30625" lon="3.68041">
        <ele>81.37</ele>
        <time>2021-08-09T07:52:44Z</time>
      </trkpt>
      <trkpt lat="49.30606" lon="3.68056">
        <ele>80.41</ele>
        <time>2021-08-09T07:52:48Z</time>
      </trkpt>
      <trkpt lat="49.30562" lon="3.68089">
        <ele>79.45</ele>
        <time>2021-08-09T07:52:57Z</time>
      </trkpt>
      <trkpt lat="49.30557" lon="3.68093">
        <ele>79.45</ele>
        <time>2021-08-09T07:52:58Z</time>
      </trkpt>
      <trkpt lat="49.30552" lon="3.68097">
        <ele>79.45</ele>
        <time>2021-08-09T07:52:59Z</time>
      </trkpt>
      <trkpt lat="49.30514" lon="3.6813">
        <ele>78.48</ele>
        <time>2021-08-09T07:53:07Z</time>
      </trkpt>
      <trkpt lat="49.30477" lon="3.68156">
        <ele>77.52</ele>
        <time>2021-08-09T07:53:14Z</time>
      </trkpt>
      <trkpt lat="49.3044" lon="3.68167">
        <ele>78</ele>
        <time>2021-08-09T07:53:22Z</time>
      </trkpt>
      <trkpt lat="49.30425" lon="3.68165">
        <ele>79.45</ele>
        <time>2021-08-09T07:53:26Z</time>
      </trkpt>
      <trkpt lat="49.30423" lon="3.68161">
        <ele>79.45</ele>
        <time>2021-08-09T07:53:27Z</time>
      </trkpt>
      <trkpt lat="49.30423" lon="3.68156">
        <ele>79.45</ele>
        <time>2021-08-09T07:53:28Z</time>
      </trkpt>
      <trkpt lat="49.30422" lon="3.68153">
        <ele>79.45</ele>
        <time>2021-08-09T07:53:29Z</time>
      </trkpt>
      <trkpt lat="49.30422" lon="3.68147">
        <ele>79.45</ele>
        <time>2021-08-09T07:53:30Z</time>
      </trkpt>
      <trkpt lat="49.30421" lon="3.68143">
        <ele>79.45</ele>
        <time>2021-08-09T07:53:31Z</time>
      </trkpt>
      <trkpt lat="49.30416" lon="3.68104">
        <ele>78</ele>
        <time>2021-08-09T07:53:37Z</time>
      </trkpt>
      <trkpt lat="49.30412" lon="3.68089">
        <ele>78</ele>
        <time>2021-08-09T07:53:39Z</time>
      </trkpt>
      <trkpt lat="49.304" lon="3.68051">
        <ele>77.04</ele>
        <time>2021-08-09T07:53:45Z</time>
      </trkpt>
      <trkpt lat="49.30399" lon="3.68044">
        <ele>77.04</ele>
        <time>2021-08-09T07:53:48Z</time>
      </trkpt>
      <trkpt lat="49.30389" lon="3.68022">
        <ele>76.56</ele>
        <time>2021-08-09T07:53:54Z</time>
      </trkpt>
      <trkpt lat="49.30381" lon="3.67995">
        <ele>76.08</ele>
        <time>2021-08-09T07:53:59Z</time>
      </trkpt>
      <trkpt lat="49.30362" lon="3.67956">
        <ele>75.6</ele>
        <time>2021-08-09T07:54:07Z</time>
      </trkpt>
      <trkpt lat="49.30359" lon="3.67951">
        <ele>75.6</ele>
        <time>2021-08-09T07:54:08Z</time>
      </trkpt>
      <trkpt lat="49.30357" lon="3.67946">
        <ele>75.12</ele>
        <time>2021-08-09T07:54:09Z</time>
      </trkpt>
      <trkpt lat="49.30355" lon="3.6794">
        <ele>75.12</ele>
        <time>2021-08-09T07:54:10Z</time>
      </trkpt>
      <trkpt lat="49.30352" lon="3.67935">
        <ele>75.12</ele>
        <time>2021-08-09T07:54:11Z</time>
      </trkpt>
      <trkpt lat="49.3035" lon="3.67931">
        <ele>75.12</ele>
        <time>2021-08-09T07:54:12Z</time>
      </trkpt>
      <trkpt lat="49.30321" lon="3.67894">
        <ele>75.12</ele>
        <time>2021-08-09T07:54:21Z</time>
      </trkpt>
      <trkpt lat="49.30285" lon="3.67861">
        <ele>75.12</ele>
        <time>2021-08-09T07:54:30Z</time>
      </trkpt>
      <trkpt lat="49.30281" lon="3.67857">
        <ele>75.12</ele>
        <time>2021-08-09T07:54:31Z</time>
      </trkpt>
      <trkpt lat="49.30277" lon="3.67855">
        <ele>75.12</ele>
        <time>2021-08-09T07:54:32Z</time>
      </trkpt>
      <trkpt lat="49.3024" lon="3.67842">
        <ele>74.16</ele>
        <time>2021-08-09T07:54:40Z</time>
      </trkpt>
      <trkpt lat="49.3021" lon="3.67839">
        <ele>74.16</ele>
        <time>2021-08-09T07:54:47Z</time>
      </trkpt>
      <trkpt lat="49.3018" lon="3.67845">
        <ele>73.68</ele>
        <time>2021-08-09T07:54:55Z</time>
      </trkpt>
      <trkpt lat="49.30144" lon="3.67855">
        <ele>73.68</ele>
        <time>2021-08-09T07:55:03Z</time>
      </trkpt>
      <trkpt lat="49.30135" lon="3.67858">
        <ele>73.2</ele>
        <time>2021-08-09T07:55:05Z</time>
      </trkpt>
      <trkpt lat="49.3011" lon="3.67868">
        <ele>73.2</ele>
        <time>2021-08-09T07:55:11Z</time>
      </trkpt>
      <trkpt lat="49.30092" lon="3.67873">
        <ele>73.2</ele>
        <time>2021-08-09T07:55:15Z</time>
      </trkpt>
      <trkpt lat="49.30088" lon="3.67874">
        <ele>73.2</ele>
        <time>2021-08-09T07:55:16Z</time>
      </trkpt>
      <trkpt lat="49.30047" lon="3.67887">
        <ele>74.16</ele>
        <time>2021-08-09T07:55:26Z</time>
      </trkpt>
      <trkpt lat="49.30023" lon="3.67901">
        <ele>74.16</ele>
        <time>2021-08-09T07:55:32Z</time>
      </trkpt>
      <trkpt lat="49.30019" lon="3.67902">
        <ele>74.16</ele>
        <time>2021-08-09T07:55:33Z</time>
      </trkpt>
      <trkpt lat="49.30015" lon="3.67904">
        <ele>74.16</ele>
        <time>2021-08-09T07:55:34Z</time>
      </trkpt>
      <trkpt lat="49.30011" lon="3.67906">
        <ele>74.16</ele>
        <time>2021-08-09T07:55:35Z</time>
      </trkpt>
      <trkpt lat="49.30007" lon="3.67909">
        <ele>74.16</ele>
        <time>2021-08-09T07:55:36Z</time>
      </trkpt>
      <trkpt lat="49.29972" lon="3.67934">
        <ele>74.16</ele>
        <time>2021-08-09T07:55:45Z</time>
      </trkpt>
      <trkpt lat="49.29944" lon="3.67955">
        <ele>74.16</ele>
        <time>2021-08-09T07:55:53Z</time>
      </trkpt>
      <trkpt lat="49.29922" lon="3.67971">
        <ele>72.72</ele>
        <time>2021-08-09T07:55:59Z</time>
      </trkpt>
      <trkpt lat="49.29919" lon="3.67974">
        <ele>72.72</ele>
        <time>2021-08-09T07:56:00Z</time>
      </trkpt>
      <trkpt lat="49.29893" lon="3.67994">
        <ele>72.72</ele>
        <time>2021-08-09T07:56:07Z</time>
      </trkpt>
      <trkpt lat="49.29871" lon="3.68008">
        <ele>72.72</ele>
        <time>2021-08-09T07:56:12Z</time>
      </trkpt>
      <trkpt lat="49.29865" lon="3.68011">
        <ele>72.24</ele>
        <time>2021-08-09T07:56:13Z</time>
      </trkpt>
      <trkpt lat="49.29861" lon="3.68013">
        <ele>72.24</ele>
        <time>2021-08-09T07:56:14Z</time>
      </trkpt>
      <trkpt lat="49.29855" lon="3.68013">
        <ele>72.24</ele>
        <time>2021-08-09T07:56:15Z</time>
      </trkpt>
      <trkpt lat="49.29851" lon="3.68012">
        <ele>72.24</ele>
        <time>2021-08-09T07:56:16Z</time>
      </trkpt>
      <trkpt lat="49.29846" lon="3.68012">
        <ele>71.76</ele>
        <time>2021-08-09T07:56:17Z</time>
      </trkpt>
      <trkpt lat="49.29829" lon="3.68013">
        <ele>71.27</ele>
        <time>2021-08-09T07:56:20Z</time>
      </trkpt>
      <trkpt lat="49.29824" lon="3.68013">
        <ele>71.27</ele>
        <time>2021-08-09T07:56:21Z</time>
      </trkpt>
      <trkpt lat="49.29783" lon="3.68015">
        <ele>71.27</ele>
        <time>2021-08-09T07:56:28Z</time>
      </trkpt>
      <trkpt lat="49.29735" lon="3.68015">
        <ele>70.79</ele>
        <time>2021-08-09T07:56:36Z</time>
      </trkpt>
      <trkpt lat="49.29706" lon="3.68014">
        <ele>70.31</ele>
        <time>2021-08-09T07:56:43Z</time>
      </trkpt>
      <trkpt lat="49.29692" lon="3.68015">
        <ele>70.31</ele>
        <time>2021-08-09T07:56:49Z</time>
      </trkpt>
      <trkpt lat="49.29668" lon="3.68014">
        <ele>70.31</ele>
        <time>2021-08-09T07:56:56Z</time>
      </trkpt>
      <trkpt lat="49.29645" lon="3.68012">
        <ele>69.83</ele>
        <time>2021-08-09T07:57:02Z</time>
      </trkpt>
      <trkpt lat="49.29642" lon="3.68012">
        <ele>69.83</ele>
        <time>2021-08-09T07:57:06Z</time>
      </trkpt>
      <trkpt lat="49.29639" lon="3.68014">
        <ele>69.83</ele>
        <time>2021-08-09T07:57:23Z</time>
      </trkpt>
      <trkpt lat="49.29638" lon="3.68016">
        <ele>70.31</ele>
        <time>2021-08-09T07:57:39Z</time>
      </trkpt>
      <trkpt lat="49.29638" lon="3.68016">
        <ele>70.31</ele>
        <time>2021-08-09T07:57:57Z</time>
      </trkpt>
      <trkpt lat="49.29637" lon="3.68017">
        <ele>70.31</ele>
        <time>2021-08-09T07:58:14Z</time>
      </trkpt>
      <trkpt lat="49.29637" lon="3.68018">
        <ele>70.31</ele>
        <time>2021-08-09T07:58:23Z</time>
      </trkpt>
      <trkpt lat="49.29637" lon="3.68019">
        <ele>70.31</ele>
        <time>2021-08-09T07:58:38Z</time>
      </trkpt>
      <trkpt lat="49.29636" lon="3.68019">
        <ele>70.79</ele>
        <time>2021-08-09T07:58:49Z</time>
      </trkpt>
      <trkpt lat="49.29635" lon="3.68019">
        <ele>70.79</ele>
        <time>2021-08-09T07:58:50Z</time>
      </trkpt>
      <trkpt lat="49.29621" lon="3.6802">
        <ele>70.79</ele>
        <time>2021-08-09T07:58:55Z</time>
      </trkpt>
      <trkpt lat="49.29587" lon="3.68018">
        <ele>70.79</ele>
        <time>2021-08-09T07:59:03Z</time>
      </trkpt>
      <trkpt lat="49.29579" lon="3.68017">
        <ele>70.79</ele>
        <time>2021-08-09T07:59:05Z</time>
      </trkpt>
      <trkpt lat="49.2954" lon="3.68014">
        <ele>70.79</ele>
        <time>2021-08-09T07:59:14Z</time>
      </trkpt>
      <trkpt lat="49.295" lon="3.68011">
        <ele>70.79</ele>
        <time>2021-08-09T07:59:24Z</time>
      </trkpt>
      <trkpt lat="49.2948" lon="3.6801">
        <ele>71.76</ele>
        <time>2021-08-09T07:59:30Z</time>
      </trkpt>
      <trkpt lat="49.2946" lon="3.68004">
        <ele>71.76</ele>
        <time>2021-08-09T07:59:36Z</time>
      </trkpt>
      <trkpt lat="49.29436" lon="3.67995">
        <ele>72.24</ele>
        <time>2021-08-09T07:59:43Z</time>
      </trkpt>
      <trkpt lat="49.2942" lon="3.67984">
        <ele>72.24</ele>
        <time>2021-08-09T07:59:49Z</time>
      </trkpt>
      <trkpt lat="49.29403" lon="3.67967">
        <ele>72.24</ele>
        <time>2021-08-09T07:59:55Z</time>
      </trkpt>
      <trkpt lat="49.29376" lon="3.67947">
        <ele>72.24</ele>
        <time>2021-08-09T08:00:02Z</time>
      </trkpt>
      <trkpt lat="49.29357" lon="3.67929">
        <ele>72.72</ele>
        <time>2021-08-09T08:00:08Z</time>
      </trkpt>
      <trkpt lat="49.29345" lon="3.67919">
        <ele>72.72</ele>
        <time>2021-08-09T08:00:15Z</time>
      </trkpt>
      <trkpt lat="49.29325" lon="3.67904">
        <ele>73.2</ele>
        <time>2021-08-09T08:00:21Z</time>
      </trkpt>
      <trkpt lat="49.29303" lon="3.67882">
        <ele>73.2</ele>
        <time>2021-08-09T08:00:27Z</time>
      </trkpt>
      <trkpt lat="49.29281" lon="3.67864">
        <ele>73.2</ele>
        <time>2021-08-09T08:00:32Z</time>
      </trkpt>
      <trkpt lat="49.29277" lon="3.6786">
        <ele>73.2</ele>
        <time>2021-08-09T08:00:33Z</time>
      </trkpt>
      <trkpt lat="49.29249" lon="3.67836">
        <ele>73.68</ele>
        <time>2021-08-09T08:00:40Z</time>
      </trkpt>
      <trkpt lat="49.29223" lon="3.67817">
        <ele>73.68</ele>
        <time>2021-08-09T08:00:47Z</time>
      </trkpt>
      <trkpt lat="49.2919" lon="3.67792">
        <ele>73.68</ele>
        <time>2021-08-09T08:00:55Z</time>
      </trkpt>
      <trkpt lat="49.29161" lon="3.67767">
        <ele>73.68</ele>
        <time>2021-08-09T08:01:03Z</time>
      </trkpt>
      <trkpt lat="49.29142" lon="3.67752">
        <ele>72.72</ele>
        <time>2021-08-09T08:01:09Z</time>
      </trkpt>
      <trkpt lat="49.29122" lon="3.6774">
        <ele>72.72</ele>
        <time>2021-08-09T08:01:15Z</time>
      </trkpt>
      <trkpt lat="49.29097" lon="3.67736">
        <ele>72.72</ele>
        <time>2021-08-09T08:01:21Z</time>
      </trkpt>
      <trkpt lat="49.29062" lon="3.67729">
        <ele>72.72</ele>
        <time>2021-08-09T08:01:30Z</time>
      </trkpt>
      <trkpt lat="49.29021" lon="3.67721">
        <ele>72.72</ele>
        <time>2021-08-09T08:01:40Z</time>
      </trkpt>
      <trkpt lat="49.28992" lon="3.67715">
        <ele>72.72</ele>
        <time>2021-08-09T08:01:48Z</time>
      </trkpt>
      <trkpt lat="49.28961" lon="3.67717">
        <ele>72.72</ele>
        <time>2021-08-09T08:01:57Z</time>
      </trkpt>
      <trkpt lat="49.28935" lon="3.67724">
        <ele>74.16</ele>
        <time>2021-08-09T08:02:05Z</time>
      </trkpt>
      <trkpt lat="49.28911" lon="3.67736">
        <ele>74.64</ele>
        <time>2021-08-09T08:02:13Z</time>
      </trkpt>
      <trkpt lat="49.28879" lon="3.67751">
        <ele>74.64</ele>
        <time>2021-08-09T08:02:23Z</time>
      </trkpt>
      <trkpt lat="49.28847" lon="3.67761">
        <ele>75.6</ele>
        <time>2021-08-09T08:02:33Z</time>
      </trkpt>
      <trkpt lat="49.28845" lon="3.67762">
        <ele>75.6</ele>
        <time>2021-08-09T08:02:34Z</time>
      </trkpt>
      <trkpt lat="49.28842" lon="3.67764">
        <ele>75.6</ele>
        <time>2021-08-09T08:02:35Z</time>
      </trkpt>
      <trkpt lat="49.28839" lon="3.67765">
        <ele>75.6</ele>
        <time>2021-08-09T08:02:36Z</time>
      </trkpt>
      <trkpt lat="49.28837" lon="3.67766">
        <ele>75.6</ele>
        <time>2021-08-09T08:02:37Z</time>
      </trkpt>
      <trkpt lat="49.28834" lon="3.67766">
        <ele>75.6</ele>
        <time>2021-08-09T08:02:38Z</time>
      </trkpt>
      <trkpt lat="49.28831" lon="3.67768">
        <ele>75.6</ele>
        <time>2021-08-09T08:02:39Z</time>
      </trkpt>
      <trkpt lat="49.28828" lon="3.6777">
        <ele>75.6</ele>
        <time>2021-08-09T08:02:40Z</time>
      </trkpt>
      <trkpt lat="49.28808" lon="3.67779">
        <ele>76.56</ele>
        <time>2021-08-09T08:02:47Z</time>
      </trkpt>
      <trkpt lat="49.28791" lon="3.67786">
        <ele>76.56</ele>
        <time>2021-08-09T08:02:53Z</time>
      </trkpt>
      <trkpt lat="49.28769" lon="3.67794">
        <ele>76.56</ele>
        <time>2021-08-09T08:03:00Z</time>
      </trkpt>
      <trkpt lat="49.28755" lon="3.67802">
        <ele>76.08</ele>
        <time>2021-08-09T08:03:05Z</time>
      </trkpt>
      <trkpt lat="49.28738" lon="3.67808">
        <ele>76.08</ele>
        <time>2021-08-09T08:03:10Z</time>
      </trkpt>
      <trkpt lat="49.28718" lon="3.67817">
        <ele>76.08</ele>
        <time>2021-08-09T08:03:16Z</time>
      </trkpt>
      <trkpt lat="49.28671" lon="3.67833">
        <ele>76.08</ele>
        <time>2021-08-09T08:03:27Z</time>
      </trkpt>
      <trkpt lat="49.28643" lon="3.67841">
        <ele>76.56</ele>
        <time>2021-08-09T08:03:34Z</time>
      </trkpt>
      <trkpt lat="49.28597" lon="3.67844">
        <ele>77.04</ele>
        <time>2021-08-09T08:03:45Z</time>
      </trkpt>
      <trkpt lat="49.28563" lon="3.67846">
        <ele>77.04</ele>
        <time>2021-08-09T08:03:54Z</time>
      </trkpt>
      <trkpt lat="49.28529" lon="3.67847">
        <ele>77.04</ele>
        <time>2021-08-09T08:04:03Z</time>
      </trkpt>
      <trkpt lat="49.28502" lon="3.67846">
        <ele>77.04</ele>
        <time>2021-08-09T08:04:10Z</time>
      </trkpt>
      <trkpt lat="49.28452" lon="3.67844">
        <ele>77.04</ele>
        <time>2021-08-09T08:04:22Z</time>
      </trkpt>
      <trkpt lat="49.28418" lon="3.67851">
        <ele>77.52</ele>
        <time>2021-08-09T08:04:30Z</time>
      </trkpt>
      <trkpt lat="49.28414" lon="3.67852">
        <ele>77.52</ele>
        <time>2021-08-09T08:04:31Z</time>
      </trkpt>
      <trkpt lat="49.28388" lon="3.67866">
        <ele>77.52</ele>
        <time>2021-08-09T08:04:38Z</time>
      </trkpt>
      <trkpt lat="49.28374" lon="3.67879">
        <ele>77.52</ele>
        <time>2021-08-09T08:04:42Z</time>
      </trkpt>
      <trkpt lat="49.2834" lon="3.6791">
        <ele>76.08</ele>
        <time>2021-08-09T08:04:52Z</time>
      </trkpt>
      <trkpt lat="49.28336" lon="3.67914">
        <ele>76.08</ele>
        <time>2021-08-09T08:04:53Z</time>
      </trkpt>
      <trkpt lat="49.28333" lon="3.67918">
        <ele>76.08</ele>
        <time>2021-08-09T08:04:54Z</time>
      </trkpt>
      <trkpt lat="49.28326" lon="3.67926">
        <ele>75.6</ele>
        <time>2021-08-09T08:04:56Z</time>
      </trkpt>
      <trkpt lat="49.28294" lon="3.67955">
        <ele>74.64</ele>
        <time>2021-08-09T08:05:04Z</time>
      </trkpt>
      <trkpt lat="49.28286" lon="3.67964">
        <ele>74.64</ele>
        <time>2021-08-09T08:05:06Z</time>
      </trkpt>
      <trkpt lat="49.28274" lon="3.67979">
        <ele>74.16</ele>
        <time>2021-08-09T08:05:09Z</time>
      </trkpt>
      <trkpt lat="49.28267" lon="3.67989">
        <ele>73.68</ele>
        <time>2021-08-09T08:05:11Z</time>
      </trkpt>
      <trkpt lat="49.28264" lon="3.67995">
        <ele>73.68</ele>
        <time>2021-08-09T08:05:12Z</time>
      </trkpt>
      <trkpt lat="49.28262" lon="3.68001">
        <ele>73.68</ele>
        <time>2021-08-09T08:05:13Z</time>
      </trkpt>
      <trkpt lat="49.28259" lon="3.68006">
        <ele>73.68</ele>
        <time>2021-08-09T08:05:14Z</time>
      </trkpt>
      <trkpt lat="49.28257" lon="3.6801">
        <ele>73.68</ele>
        <time>2021-08-09T08:05:15Z</time>
      </trkpt>
      <trkpt lat="49.28255" lon="3.68012">
        <ele>73.68</ele>
        <time>2021-08-09T08:05:16Z</time>
      </trkpt>
      <trkpt lat="49.28252" lon="3.68012">
        <ele>73.68</ele>
        <time>2021-08-09T08:05:17Z</time>
      </trkpt>
      <trkpt lat="49.28249" lon="3.6801">
        <ele>73.68</ele>
        <time>2021-08-09T08:05:18Z</time>
      </trkpt>
      <trkpt lat="49.28247" lon="3.68007">
        <ele>73.2</ele>
        <time>2021-08-09T08:05:19Z</time>
      </trkpt>
      <trkpt lat="49.28244" lon="3.68002">
        <ele>73.2</ele>
        <time>2021-08-09T08:05:20Z</time>
      </trkpt>
      <trkpt lat="49.28241" lon="3.67997">
        <ele>73.2</ele>
        <time>2021-08-09T08:05:21Z</time>
      </trkpt>
      <trkpt lat="49.28239" lon="3.67991">
        <ele>73.2</ele>
        <time>2021-08-09T08:05:22Z</time>
      </trkpt>
      <trkpt lat="49.28236" lon="3.67985">
        <ele>72.24</ele>
        <time>2021-08-09T08:05:23Z</time>
      </trkpt>
      <trkpt lat="49.28208" lon="3.67926">
        <ele>72.72</ele>
        <time>2021-08-09T08:05:32Z</time>
      </trkpt>
      <trkpt lat="49.28185" lon="3.67885">
        <ele>71.76</ele>
        <time>2021-08-09T08:05:38Z</time>
      </trkpt>
      <trkpt lat="49.28167" lon="3.67865">
        <ele>71.76</ele>
        <time>2021-08-09T08:05:42Z</time>
      </trkpt>
      <trkpt lat="49.28134" lon="3.67841">
        <ele>71.27</ele>
        <time>2021-08-09T08:05:49Z</time>
      </trkpt>
      <trkpt lat="49.28121" lon="3.67828">
        <ele>72.72</ele>
        <time>2021-08-09T08:05:52Z</time>
      </trkpt>
      <trkpt lat="49.28117" lon="3.67824">
        <ele>72.72</ele>
        <time>2021-08-09T08:05:53Z</time>
      </trkpt>
      <trkpt lat="49.28095" lon="3.67791">
        <ele>74.64</ele>
        <time>2021-08-09T08:06:01Z</time>
      </trkpt>
      <trkpt lat="49.28074" lon="3.67762">
        <ele>75.6</ele>
        <time>2021-08-09T08:06:10Z</time>
      </trkpt>
      <trkpt lat="49.28064" lon="3.67751">
        <ele>76.56</ele>
        <time>2021-08-09T08:06:15Z</time>
      </trkpt>
      <trkpt lat="49.28059" lon="3.6775">
        <ele>77.52</ele>
        <time>2021-08-09T08:06:17Z</time>
      </trkpt>
      <trkpt lat="49.28057" lon="3.67748">
        <ele>77.52</ele>
        <time>2021-08-09T08:06:18Z</time>
      </trkpt>
      <trkpt lat="49.28056" lon="3.67747">
        <ele>77.52</ele>
        <time>2021-08-09T08:06:19Z</time>
      </trkpt>
      <trkpt lat="49.28038" lon="3.67732">
        <ele>79.45</ele>
        <time>2021-08-09T08:06:29Z</time>
      </trkpt>
      <trkpt lat="49.28024" lon="3.67726">
        <ele>80.89</ele>
        <time>2021-08-09T08:06:37Z</time>
      </trkpt>
      <trkpt lat="49.28007" lon="3.67721">
        <ele>82.81</ele>
        <time>2021-08-09T08:06:47Z</time>
      </trkpt>
      <trkpt lat="49.28005" lon="3.67722">
        <ele>82.81</ele>
        <time>2021-08-09T08:06:48Z</time>
      </trkpt>
      <trkpt lat="49.28003" lon="3.67724">
        <ele>82.81</ele>
        <time>2021-08-09T08:06:49Z</time>
      </trkpt>
      <trkpt lat="49.28002" lon="3.67725">
        <ele>82.81</ele>
        <time>2021-08-09T08:06:50Z</time>
      </trkpt>
      <trkpt lat="49.28" lon="3.67728">
        <ele>83.29</ele>
        <time>2021-08-09T08:06:51Z</time>
      </trkpt>
      <trkpt lat="49.27999" lon="3.6773">
        <ele>83.29</ele>
        <time>2021-08-09T08:06:52Z</time>
      </trkpt>
      <trkpt lat="49.27997" lon="3.67732">
        <ele>83.29</ele>
        <time>2021-08-09T08:06:53Z</time>
      </trkpt>
      <trkpt lat="49.2798" lon="3.6776">
        <ele>83.29</ele>
        <time>2021-08-09T08:07:01Z</time>
      </trkpt>
      <trkpt lat="49.2797" lon="3.67776">
        <ele>81.85</ele>
        <time>2021-08-09T08:07:04Z</time>
      </trkpt>
      <trkpt lat="49.27947" lon="3.67811">
        <ele>78</ele>
        <time>2021-08-09T08:07:09Z</time>
      </trkpt>
      <trkpt lat="49.27942" lon="3.67819">
        <ele>78</ele>
        <time>2021-08-09T08:07:10Z</time>
      </trkpt>
      <trkpt lat="49.27924" lon="3.67847">
        <ele>75.12</ele>
        <time>2021-08-09T08:07:13Z</time>
      </trkpt>
      <trkpt lat="49.27918" lon="3.67857">
        <ele>74.64</ele>
        <time>2021-08-09T08:07:14Z</time>
      </trkpt>
      <trkpt lat="49.27884" lon="3.67917">
        <ele>72.24</ele>
        <time>2021-08-09T08:07:20Z</time>
      </trkpt>
      <trkpt lat="49.27849" lon="3.67978">
        <ele>71.27</ele>
        <time>2021-08-09T08:07:27Z</time>
      </trkpt>
      <trkpt lat="49.27835" lon="3.67999">
        <ele>72.72</ele>
        <time>2021-08-09T08:07:30Z</time>
      </trkpt>
      <trkpt lat="49.27799" lon="3.68054">
        <ele>72.72</ele>
        <time>2021-08-09T08:07:38Z</time>
      </trkpt>
      <trkpt lat="49.27763" lon="3.68114">
        <ele>73.68</ele>
        <time>2021-08-09T08:07:47Z</time>
      </trkpt>
      <trkpt lat="49.27738" lon="3.68151">
        <ele>74.64</ele>
        <time>2021-08-09T08:07:55Z</time>
      </trkpt>
      <trkpt lat="49.27725" lon="3.6818">
        <ele>75.6</ele>
        <time>2021-08-09T08:08:02Z</time>
      </trkpt>
      <trkpt lat="49.27702" lon="3.6821">
        <ele>76.56</ele>
        <time>2021-08-09T08:08:12Z</time>
      </trkpt>
      <trkpt lat="49.27685" lon="3.68221">
        <ele>77.52</ele>
        <time>2021-08-09T08:08:19Z</time>
      </trkpt>
      <trkpt lat="49.27683" lon="3.68222">
        <ele>77.52</ele>
        <time>2021-08-09T08:08:20Z</time>
      </trkpt>
      <trkpt lat="49.2768" lon="3.68223">
        <ele>77.52</ele>
        <time>2021-08-09T08:08:21Z</time>
      </trkpt>
      <trkpt lat="49.27653" lon="3.68237">
        <ele>78.97</ele>
        <time>2021-08-09T08:08:32Z</time>
      </trkpt>
      <trkpt lat="49.27626" lon="3.68258">
        <ele>79.93</ele>
        <time>2021-08-09T08:08:44Z</time>
      </trkpt>
      <trkpt lat="49.276" lon="3.68279">
        <ele>79.93</ele>
        <time>2021-08-09T08:08:55Z</time>
      </trkpt>
      <trkpt lat="49.27577" lon="3.683">
        <ele>80.89</ele>
        <time>2021-08-09T08:09:05Z</time>
      </trkpt>
      <trkpt lat="49.27551" lon="3.68324">
        <ele>81.37</ele>
        <time>2021-08-09T08:09:17Z</time>
      </trkpt>
      <trkpt lat="49.27534" lon="3.6834">
        <ele>82.81</ele>
        <time>2021-08-09T08:09:25Z</time>
      </trkpt>
      <trkpt lat="49.27514" lon="3.68354">
        <ele>83.77</ele>
        <time>2021-08-09T08:09:35Z</time>
      </trkpt>
      <trkpt lat="49.27497" lon="3.68363">
        <ele>84.73</ele>
        <time>2021-08-09T08:09:44Z</time>
      </trkpt>
      <trkpt lat="49.2748" lon="3.6837">
        <ele>85.69</ele>
        <time>2021-08-09T08:09:53Z</time>
      </trkpt>
      <trkpt lat="49.27463" lon="3.68381">
        <ele>86.66</ele>
        <time>2021-08-09T08:10:02Z</time>
      </trkpt>
      <trkpt lat="49.27445" lon="3.68399">
        <ele>87.14</ele>
        <time>2021-08-09T08:10:11Z</time>
      </trkpt>
      <trkpt lat="49.27423" lon="3.68431">
        <ele>87.14</ele>
        <time>2021-08-09T08:10:20Z</time>
      </trkpt>
      <trkpt lat="49.27402" lon="3.68466">
        <ele>87.14</ele>
        <time>2021-08-09T08:10:28Z</time>
      </trkpt>
      <trkpt lat="49.27388" lon="3.68488">
        <ele>86.66</ele>
        <time>2021-08-09T08:10:34Z</time>
      </trkpt>
      <trkpt lat="49.27375" lon="3.68515">
        <ele>87.14</ele>
        <time>2021-08-09T08:10:41Z</time>
      </trkpt>
      <trkpt lat="49.27366" lon="3.68543">
        <ele>87.14</ele>
        <time>2021-08-09T08:10:47Z</time>
      </trkpt>
      <trkpt lat="49.27346" lon="3.68587">
        <ele>87.14</ele>
        <time>2021-08-09T08:10:56Z</time>
      </trkpt>
      <trkpt lat="49.27325" lon="3.68616">
        <ele>87.14</ele>
        <time>2021-08-09T08:11:04Z</time>
      </trkpt>
      <trkpt lat="49.27299" lon="3.68648">
        <ele>87.14</ele>
        <time>2021-08-09T08:11:14Z</time>
      </trkpt>
      <trkpt lat="49.27284" lon="3.68668">
        <ele>87.62</ele>
        <time>2021-08-09T08:11:20Z</time>
      </trkpt>
      <trkpt lat="49.27273" lon="3.68689">
        <ele>88.58</ele>
        <time>2021-08-09T08:11:27Z</time>
      </trkpt>
      <trkpt lat="49.27268" lon="3.68712">
        <ele>90.02</ele>
        <time>2021-08-09T08:11:35Z</time>
      </trkpt>
      <trkpt lat="49.27267" lon="3.68734">
        <ele>90.98</ele>
        <time>2021-08-09T08:11:42Z</time>
      </trkpt>
      <trkpt lat="49.27266" lon="3.68772">
        <ele>92.9</ele>
        <time>2021-08-09T08:11:54Z</time>
      </trkpt>
      <trkpt lat="49.27256" lon="3.68803">
        <ele>94.35</ele>
        <time>2021-08-09T08:12:05Z</time>
      </trkpt>
      <trkpt lat="49.27245" lon="3.6882">
        <ele>95.31</ele>
        <time>2021-08-09T08:12:13Z</time>
      </trkpt>
      <trkpt lat="49.27229" lon="3.68834">
        <ele>97.23</ele>
        <time>2021-08-09T08:12:22Z</time>
      </trkpt>
      <trkpt lat="49.2721" lon="3.68848">
        <ele>98.67</ele>
        <time>2021-08-09T08:12:32Z</time>
      </trkpt>
      <trkpt lat="49.27194" lon="3.68855">
        <ele>99.63</ele>
        <time>2021-08-09T08:12:41Z</time>
      </trkpt>
      <trkpt lat="49.2718" lon="3.68858">
        <ele>101.56</ele>
        <time>2021-08-09T08:12:49Z</time>
      </trkpt>
      <trkpt lat="49.27165" lon="3.68855">
        <ele>102.52</ele>
        <time>2021-08-09T08:12:57Z</time>
      </trkpt>
      <trkpt lat="49.27147" lon="3.68852">
        <ele>104.44</ele>
        <time>2021-08-09T08:13:08Z</time>
      </trkpt>
      <trkpt lat="49.27134" lon="3.6885">
        <ele>105.88</ele>
        <time>2021-08-09T08:13:17Z</time>
      </trkpt>
      <trkpt lat="49.27118" lon="3.68847">
        <ele>106.84</ele>
        <time>2021-08-09T08:13:27Z</time>
      </trkpt>
      <trkpt lat="49.27097" lon="3.68845">
        <ele>108.29</ele>
        <time>2021-08-09T08:13:37Z</time>
      </trkpt>
      <trkpt lat="49.27072" lon="3.68848">
        <ele>108.77</ele>
        <time>2021-08-09T08:13:46Z</time>
      </trkpt>
      <trkpt lat="49.27052" lon="3.68857">
        <ele>108.77</ele>
        <time>2021-08-09T08:13:54Z</time>
      </trkpt>
      <trkpt lat="49.27032" lon="3.68867">
        <ele>108.77</ele>
        <time>2021-08-09T08:14:01Z</time>
      </trkpt>
      <trkpt lat="49.2701" lon="3.6888">
        <ele>108.77</ele>
        <time>2021-08-09T08:14:09Z</time>
      </trkpt>
      <trkpt lat="49.26994" lon="3.68888">
        <ele>109.25</ele>
        <time>2021-08-09T08:14:15Z</time>
      </trkpt>
      <trkpt lat="49.26973" lon="3.68898">
        <ele>109.73</ele>
        <time>2021-08-09T08:14:22Z</time>
      </trkpt>
      <trkpt lat="49.26954" lon="3.68914">
        <ele>110.69</ele>
        <time>2021-08-09T08:14:29Z</time>
      </trkpt>
      <trkpt lat="49.26935" lon="3.68935">
        <ele>110.69</ele>
        <time>2021-08-09T08:14:36Z</time>
      </trkpt>
      <trkpt lat="49.26908" lon="3.68971">
        <ele>110.69</ele>
        <time>2021-08-09T08:14:45Z</time>
      </trkpt>
      <trkpt lat="49.26891" lon="3.6899">
        <ele>109.25</ele>
        <time>2021-08-09T08:14:50Z</time>
      </trkpt>
      <trkpt lat="49.26888" lon="3.68994">
        <ele>109.25</ele>
        <time>2021-08-09T08:14:51Z</time>
      </trkpt>
      <trkpt lat="49.26885" lon="3.68998">
        <ele>109.25</ele>
        <time>2021-08-09T08:14:52Z</time>
      </trkpt>
      <trkpt lat="49.26862" lon="3.69023">
        <ele>108.29</ele>
        <time>2021-08-09T08:14:59Z</time>
      </trkpt>
      <trkpt lat="49.26851" lon="3.6904">
        <ele>106.84</ele>
        <time>2021-08-09T08:15:03Z</time>
      </trkpt>
      <trkpt lat="49.26849" lon="3.69045">
        <ele>105.88</ele>
        <time>2021-08-09T08:15:04Z</time>
      </trkpt>
      <trkpt lat="49.26847" lon="3.69051">
        <ele>105.4</ele>
        <time>2021-08-09T08:15:05Z</time>
      </trkpt>
      <trkpt lat="49.26845" lon="3.69057">
        <ele>104.92</ele>
        <time>2021-08-09T08:15:06Z</time>
      </trkpt>
      <trkpt lat="49.26843" lon="3.69063">
        <ele>104.44</ele>
        <time>2021-08-09T08:15:07Z</time>
      </trkpt>
      <trkpt lat="49.26839" lon="3.69077">
        <ele>102.52</ele>
        <time>2021-08-09T08:15:09Z</time>
      </trkpt>
      <trkpt lat="49.26835" lon="3.69083">
        <ele>102.52</ele>
        <time>2021-08-09T08:15:10Z</time>
      </trkpt>
      <trkpt lat="49.2683" lon="3.69088">
        <ele>101.56</ele>
        <time>2021-08-09T08:15:11Z</time>
      </trkpt>
      <trkpt lat="49.26826" lon="3.69092">
        <ele>100.6</ele>
        <time>2021-08-09T08:15:12Z</time>
      </trkpt>
      <trkpt lat="49.2682" lon="3.69096">
        <ele>100.11</ele>
        <time>2021-08-09T08:15:13Z</time>
      </trkpt>
      <trkpt lat="49.26808" lon="3.69101">
        <ele>99.15</ele>
        <time>2021-08-09T08:15:15Z</time>
      </trkpt>
      <trkpt lat="49.26802" lon="3.69104">
        <ele>98.19</ele>
        <time>2021-08-09T08:15:16Z</time>
      </trkpt>
      <trkpt lat="49.26798" lon="3.69108">
        <ele>98.67</ele>
        <time>2021-08-09T08:15:17Z</time>
      </trkpt>
      <trkpt lat="49.26794" lon="3.69113">
        <ele>98.19</ele>
        <time>2021-08-09T08:15:18Z</time>
      </trkpt>
      <trkpt lat="49.26791" lon="3.69119">
        <ele>97.71</ele>
        <time>2021-08-09T08:15:19Z</time>
      </trkpt>
      <trkpt lat="49.26788" lon="3.69124">
        <ele>97.23</ele>
        <time>2021-08-09T08:15:20Z</time>
      </trkpt>
      <trkpt lat="49.26787" lon="3.6913">
        <ele>97.23</ele>
        <time>2021-08-09T08:15:21Z</time>
      </trkpt>
      <trkpt lat="49.26787" lon="3.69136">
        <ele>97.23</ele>
        <time>2021-08-09T08:15:22Z</time>
      </trkpt>
      <trkpt lat="49.26788" lon="3.69142">
        <ele>97.23</ele>
        <time>2021-08-09T08:15:23Z</time>
      </trkpt>
      <trkpt lat="49.2679" lon="3.69149">
        <ele>97.23</ele>
        <time>2021-08-09T08:15:24Z</time>
      </trkpt>
      <trkpt lat="49.26793" lon="3.69157">
        <ele>96.27</ele>
        <time>2021-08-09T08:15:25Z</time>
      </trkpt>
      <trkpt lat="49.26796" lon="3.69165">
        <ele>96.27</ele>
        <time>2021-08-09T08:15:26Z</time>
      </trkpt>
      <trkpt lat="49.26799" lon="3.69174">
        <ele>95.79</ele>
        <time>2021-08-09T08:15:27Z</time>
      </trkpt>
      <trkpt lat="49.26805" lon="3.69192">
        <ele>95.79</ele>
        <time>2021-08-09T08:15:29Z</time>
      </trkpt>
      <trkpt lat="49.26819" lon="3.69239">
        <ele>92.9</ele>
        <time>2021-08-09T08:15:34Z</time>
      </trkpt>
      <trkpt lat="49.26818" lon="3.6925">
        <ele>92.9</ele>
        <time>2021-08-09T08:15:35Z</time>
      </trkpt>
      <trkpt lat="49.26816" lon="3.69258">
        <ele>92.42</ele>
        <time>2021-08-09T08:15:36Z</time>
      </trkpt>
      <trkpt lat="49.26811" lon="3.69277">
        <ele>92.42</ele>
        <time>2021-08-09T08:15:38Z</time>
      </trkpt>
      <trkpt lat="49.26811" lon="3.69286">
        <ele>91.94</ele>
        <time>2021-08-09T08:15:39Z</time>
      </trkpt>
      <trkpt lat="49.26811" lon="3.69295">
        <ele>91.46</ele>
        <time>2021-08-09T08:15:40Z</time>
      </trkpt>
      <trkpt lat="49.26812" lon="3.69313">
        <ele>90.98</ele>
        <time>2021-08-09T08:15:42Z</time>
      </trkpt>
      <trkpt lat="49.26809" lon="3.69323">
        <ele>90.02</ele>
        <time>2021-08-09T08:15:43Z</time>
      </trkpt>
      <trkpt lat="49.26788" lon="3.69389">
        <ele>87.14</ele>
        <time>2021-08-09T08:15:50Z</time>
      </trkpt>
      <trkpt lat="49.2678" lon="3.69418">
        <ele>86.66</ele>
        <time>2021-08-09T08:15:53Z</time>
      </trkpt>
      <trkpt lat="49.2678" lon="3.69429">
        <ele>85.69</ele>
        <time>2021-08-09T08:15:54Z</time>
      </trkpt>
      <trkpt lat="49.26781" lon="3.6944">
        <ele>85.69</ele>
        <time>2021-08-09T08:15:55Z</time>
      </trkpt>
      <trkpt lat="49.26797" lon="3.69536">
        <ele>84.73</ele>
        <time>2021-08-09T08:16:04Z</time>
      </trkpt>
      <trkpt lat="49.26813" lon="3.69593">
        <ele>82.81</ele>
        <time>2021-08-09T08:16:10Z</time>
      </trkpt>
      <trkpt lat="49.26817" lon="3.6961">
        <ele>82.81</ele>
        <time>2021-08-09T08:16:12Z</time>
      </trkpt>
      <trkpt lat="49.26817" lon="3.69626">
        <ele>82.33</ele>
        <time>2021-08-09T08:16:14Z</time>
      </trkpt>
      <trkpt lat="49.26814" lon="3.69632">
        <ele>82.33</ele>
        <time>2021-08-09T08:16:15Z</time>
      </trkpt>
      <trkpt lat="49.26789" lon="3.6969">
        <ele>78.97</ele>
        <time>2021-08-09T08:16:22Z</time>
      </trkpt>
      <trkpt lat="49.2676" lon="3.6978">
        <ele>76.08</ele>
        <time>2021-08-09T08:16:30Z</time>
      </trkpt>
      <trkpt lat="49.26733" lon="3.69848">
        <ele>75.6</ele>
        <time>2021-08-09T08:16:37Z</time>
      </trkpt>
      <trkpt lat="49.26699" lon="3.6991">
        <ele>76.56</ele>
        <time>2021-08-09T08:16:46Z</time>
      </trkpt>
      <trkpt lat="49.26678" lon="3.69953">
        <ele>78</ele>
        <time>2021-08-09T08:16:53Z</time>
      </trkpt>
      <trkpt lat="49.26659" lon="3.69988">
        <ele>79.45</ele>
        <time>2021-08-09T08:17:01Z</time>
      </trkpt>
      <trkpt lat="49.26644" lon="3.70018">
        <ele>80.41</ele>
        <time>2021-08-09T08:17:09Z</time>
      </trkpt>
      <trkpt lat="49.26621" lon="3.70061">
        <ele>82.33</ele>
        <time>2021-08-09T08:17:21Z</time>
      </trkpt>
      <trkpt lat="49.26603" lon="3.70095">
        <ele>84.25</ele>
        <time>2021-08-09T08:17:31Z</time>
      </trkpt>
      <trkpt lat="49.26593" lon="3.70131">
        <ele>84.73</ele>
        <time>2021-08-09T08:17:40Z</time>
      </trkpt>
      <trkpt lat="49.26586" lon="3.70176">
        <ele>85.69</ele>
        <time>2021-08-09T08:17:50Z</time>
      </trkpt>
      <trkpt lat="49.26579" lon="3.7021">
        <ele>86.66</ele>
        <time>2021-08-09T08:17:58Z</time>
      </trkpt>
      <trkpt lat="49.2657" lon="3.70255">
        <ele>88.1</ele>
        <time>2021-08-09T08:18:08Z</time>
      </trkpt>
      <trkpt lat="49.26559" lon="3.70306">
        <ele>88.58</ele>
        <time>2021-08-09T08:18:19Z</time>
      </trkpt>
      <trkpt lat="49.26554" lon="3.70336">
        <ele>89.06</ele>
        <time>2021-08-09T08:18:25Z</time>
      </trkpt>
      <trkpt lat="49.26547" lon="3.70366">
        <ele>89.06</ele>
        <time>2021-08-09T08:18:32Z</time>
      </trkpt>
      <trkpt lat="49.2654" lon="3.70398">
        <ele>89.54</ele>
        <time>2021-08-09T08:18:38Z</time>
      </trkpt>
      <trkpt lat="49.2653" lon="3.70434">
        <ele>89.54</ele>
        <time>2021-08-09T08:18:44Z</time>
      </trkpt>
      <trkpt lat="49.26519" lon="3.70463">
        <ele>89.54</ele>
        <time>2021-08-09T08:18:49Z</time>
      </trkpt>
      <trkpt lat="49.26517" lon="3.7047">
        <ele>89.54</ele>
        <time>2021-08-09T08:18:50Z</time>
      </trkpt>
      <trkpt lat="49.26515" lon="3.70475">
        <ele>89.54</ele>
        <time>2021-08-09T08:18:51Z</time>
      </trkpt>
      <trkpt lat="49.26513" lon="3.70481">
        <ele>89.54</ele>
        <time>2021-08-09T08:18:52Z</time>
      </trkpt>
      <trkpt lat="49.2651" lon="3.70487">
        <ele>88.58</ele>
        <time>2021-08-09T08:18:53Z</time>
      </trkpt>
      <trkpt lat="49.26508" lon="3.70494">
        <ele>88.58</ele>
        <time>2021-08-09T08:18:54Z</time>
      </trkpt>
      <trkpt lat="49.26486" lon="3.70541">
        <ele>87.62</ele>
        <time>2021-08-09T08:19:02Z</time>
      </trkpt>
      <trkpt lat="49.26457" lon="3.70608">
        <ele>86.18</ele>
        <time>2021-08-09T08:19:12Z</time>
      </trkpt>
      <trkpt lat="49.26426" lon="3.70679">
        <ele>83.77</ele>
        <time>2021-08-09T08:19:22Z</time>
      </trkpt>
      <trkpt lat="49.26407" lon="3.70732">
        <ele>82.81</ele>
        <time>2021-08-09T08:19:29Z</time>
      </trkpt>
      <trkpt lat="49.26404" lon="3.70748">
        <ele>82.81</ele>
        <time>2021-08-09T08:19:31Z</time>
      </trkpt>
      <trkpt lat="49.26402" lon="3.70769">
        <ele>82.33</ele>
        <time>2021-08-09T08:19:34Z</time>
      </trkpt>
      <trkpt lat="49.264" lon="3.7081">
        <ele>82.33</ele>
        <time>2021-08-09T08:19:41Z</time>
      </trkpt>
      <trkpt lat="49.26402" lon="3.70846">
        <ele>83.77</ele>
        <time>2021-08-09T08:19:49Z</time>
      </trkpt>
      <trkpt lat="49.26404" lon="3.70877">
        <ele>84.73</ele>
        <time>2021-08-09T08:19:58Z</time>
      </trkpt>
      <trkpt lat="49.26406" lon="3.7091">
        <ele>86.18</ele>
        <time>2021-08-09T08:20:08Z</time>
      </trkpt>
      <trkpt lat="49.26407" lon="3.70938">
        <ele>87.14</ele>
        <time>2021-08-09T08:20:17Z</time>
      </trkpt>
      <trkpt lat="49.26408" lon="3.70965">
        <ele>88.58</ele>
        <time>2021-08-09T08:20:26Z</time>
      </trkpt>
      <trkpt lat="49.2641" lon="3.70992">
        <ele>89.06</ele>
        <time>2021-08-09T08:20:35Z</time>
      </trkpt>
      <trkpt lat="49.26412" lon="3.71023">
        <ele>90.5</ele>
        <time>2021-08-09T08:20:45Z</time>
      </trkpt>
      <trkpt lat="49.26411" lon="3.71054">
        <ele>90.98</ele>
        <time>2021-08-09T08:20:54Z</time>
      </trkpt>
      <trkpt lat="49.26407" lon="3.7108">
        <ele>91.94</ele>
        <time>2021-08-09T08:21:02Z</time>
      </trkpt>
      <trkpt lat="49.26402" lon="3.71104">
        <ele>92.42</ele>
        <time>2021-08-09T08:21:09Z</time>
      </trkpt>
      <trkpt lat="49.26395" lon="3.71126">
        <ele>92.9</ele>
        <time>2021-08-09T08:21:15Z</time>
      </trkpt>
      <trkpt lat="49.26377" lon="3.71164">
        <ele>93.39</ele>
        <time>2021-08-09T08:21:26Z</time>
      </trkpt>
      <trkpt lat="49.2636" lon="3.71198">
        <ele>93.87</ele>
        <time>2021-08-09T08:21:35Z</time>
      </trkpt>
      <trkpt lat="49.26337" lon="3.71241">
        <ele>93.87</ele>
        <time>2021-08-09T08:21:45Z</time>
      </trkpt>
      <trkpt lat="49.26311" lon="3.71294">
        <ele>92.9</ele>
        <time>2021-08-09T08:21:54Z</time>
      </trkpt>
      <trkpt lat="49.26273" lon="3.71368">
        <ele>90.02</ele>
        <time>2021-08-09T08:22:05Z</time>
      </trkpt>
      <trkpt lat="49.26231" lon="3.71449">
        <ele>87.62</ele>
        <time>2021-08-09T08:22:16Z</time>
      </trkpt>
      <trkpt lat="49.26196" lon="3.71517">
        <ele>85.21</ele>
        <time>2021-08-09T08:22:26Z</time>
      </trkpt>
      <trkpt lat="49.26162" lon="3.71584">
        <ele>84.25</ele>
        <time>2021-08-09T08:22:35Z</time>
      </trkpt>
      <trkpt lat="49.26123" lon="3.71659">
        <ele>81.85</ele>
        <time>2021-08-09T08:22:45Z</time>
      </trkpt>
      <trkpt lat="49.26097" lon="3.7171">
        <ele>81.37</ele>
        <time>2021-08-09T08:22:53Z</time>
      </trkpt>
      <trkpt lat="49.26094" lon="3.71715">
        <ele>81.37</ele>
        <time>2021-08-09T08:22:54Z</time>
      </trkpt>
      <trkpt lat="49.26062" lon="3.71779">
        <ele>80.41</ele>
        <time>2021-08-09T08:23:04Z</time>
      </trkpt>
      <trkpt lat="49.26022" lon="3.71858">
        <ele>80.41</ele>
        <time>2021-08-09T08:23:17Z</time>
      </trkpt>
      <trkpt lat="49.26002" lon="3.71896">
        <ele>80.41</ele>
        <time>2021-08-09T08:23:25Z</time>
      </trkpt>
      <trkpt lat="49.25995" lon="3.71911">
        <ele>81.85</ele>
        <time>2021-08-09T08:23:29Z</time>
      </trkpt>
      <trkpt lat="49.25981" lon="3.71938">
        <ele>82.81</ele>
        <time>2021-08-09T08:23:37Z</time>
      </trkpt>
      <trkpt lat="49.2597" lon="3.71958">
        <ele>83.77</ele>
        <time>2021-08-09T08:23:44Z</time>
      </trkpt>
      <trkpt lat="49.25958" lon="3.71978">
        <ele>84.73</ele>
        <time>2021-08-09T08:23:51Z</time>
      </trkpt>
      <trkpt lat="49.25945" lon="3.72002">
        <ele>85.21</ele>
        <time>2021-08-09T08:24:00Z</time>
      </trkpt>
      <trkpt lat="49.25927" lon="3.72037">
        <ele>85.21</ele>
        <time>2021-08-09T08:24:09Z</time>
      </trkpt>
      <trkpt lat="49.25909" lon="3.72069">
        <ele>85.21</ele>
        <time>2021-08-09T08:24:17Z</time>
      </trkpt>
      <trkpt lat="49.25894" lon="3.72098">
        <ele>85.21</ele>
        <time>2021-08-09T08:24:24Z</time>
      </trkpt>
      <trkpt lat="49.25893" lon="3.72098">
        <ele>85.21</ele>
        <time>2021-08-09T08:24:29Z</time>
      </trkpt>
      <trkpt lat="49.25892" lon="3.72096">
        <ele>85.21</ele>
        <time>2021-08-09T08:24:40Z</time>
      </trkpt>
      <trkpt lat="49.25894" lon="3.72099">
        <ele>85.21</ele>
        <time>2021-08-09T08:24:54Z</time>
      </trkpt>
      <trkpt lat="49.25894" lon="3.72098">
        <ele>85.21</ele>
        <time>2021-08-09T08:25:06Z</time>
      </trkpt>
      <trkpt lat="49.25894" lon="3.72098">
        <ele>85.21</ele>
        <time>2021-08-09T08:25:22Z</time>
      </trkpt>
      <trkpt lat="49.25895" lon="3.72099">
        <ele>85.21</ele>
        <time>2021-08-09T08:25:38Z</time>
      </trkpt>
      <trkpt lat="49.25895" lon="3.721">
        <ele>85.21</ele>
        <time>2021-08-09T08:25:57Z</time>
      </trkpt>
      <trkpt lat="49.25893" lon="3.72097">
        <ele>85.21</ele>
        <time>2021-08-09T08:26:06Z</time>
      </trkpt>
      <trkpt lat="49.25891" lon="3.72098">
        <ele>85.21</ele>
        <time>2021-08-09T08:26:13Z</time>
      </trkpt>
      <trkpt lat="49.25896" lon="3.72101">
        <ele>85.21</ele>
        <time>2021-08-09T08:26:37Z</time>
      </trkpt>
      <trkpt lat="49.25895" lon="3.721">
        <ele>85.21</ele>
        <time>2021-08-09T08:26:49Z</time>
      </trkpt>
      <trkpt lat="49.25893" lon="3.721">
        <ele>85.21</ele>
        <time>2021-08-09T08:26:58Z</time>
      </trkpt>
      <trkpt lat="49.25893" lon="3.72099">
        <ele>85.21</ele>
        <time>2021-08-09T08:27:15Z</time>
      </trkpt>
      <trkpt lat="49.25894" lon="3.72099">
        <ele>85.21</ele>
        <time>2021-08-09T08:27:29Z</time>
      </trkpt>
      <trkpt lat="49.25895" lon="3.72097">
        <ele>85.21</ele>
        <time>2021-08-09T08:27:45Z</time>
      </trkpt>
      <trkpt lat="49.25895" lon="3.72099">
        <ele>85.21</ele>
        <time>2021-08-09T08:28:02Z</time>
      </trkpt>
      <trkpt lat="49.25899" lon="3.72103">
        <ele>85.21</ele>
        <time>2021-08-09T08:28:19Z</time>
      </trkpt>
      <trkpt lat="49.25898" lon="3.72103">
        <ele>85.21</ele>
        <time>2021-08-09T08:28:40Z</time>
      </trkpt>
      <trkpt lat="49.25898" lon="3.72105">
        <ele>85.21</ele>
        <time>2021-08-09T08:28:57Z</time>
      </trkpt>
      <trkpt lat="49.25897" lon="3.72105">
        <ele>85.21</ele>
        <time>2021-08-09T08:29:11Z</time>
      </trkpt>
      <trkpt lat="49.25897" lon="3.72104">
        <ele>85.21</ele>
        <time>2021-08-09T08:29:27Z</time>
      </trkpt>
      <trkpt lat="49.25897" lon="3.72103">
        <ele>84.73</ele>
        <time>2021-08-09T08:29:53Z</time>
      </trkpt>
      <trkpt lat="49.25897" lon="3.72102">
        <ele>84.73</ele>
        <time>2021-08-09T08:30:10Z</time>
      </trkpt>
      <trkpt lat="49.25896" lon="3.72102">
        <ele>84.73</ele>
        <time>2021-08-09T08:30:33Z</time>
      </trkpt>
      <trkpt lat="49.25897" lon="3.72103">
        <ele>84.73</ele>
        <time>2021-08-09T08:30:49Z</time>
      </trkpt>
      <trkpt lat="49.25896" lon="3.72105">
        <ele>84.73</ele>
        <time>2021-08-09T08:31:06Z</time>
      </trkpt>
      <trkpt lat="49.25897" lon="3.72102">
        <ele>84.73</ele>
        <time>2021-08-09T08:31:29Z</time>
      </trkpt>
      <trkpt lat="49.25898" lon="3.72101">
        <ele>84.73</ele>
        <time>2021-08-09T08:31:37Z</time>
      </trkpt>
      <trkpt lat="49.25898" lon="3.72101">
        <ele>84.73</ele>
        <time>2021-08-09T08:31:40Z</time>
      </trkpt>
      <trkpt lat="49.25898" lon="3.72103">
        <ele>84.73</ele>
        <time>2021-08-09T08:31:47Z</time>
      </trkpt>
      <trkpt lat="49.25899" lon="3.72107">
        <ele>84.73</ele>
        <time>2021-08-09T08:32:05Z</time>
      </trkpt>
      <trkpt lat="49.259" lon="3.72106">
        <ele>84.73</ele>
        <time>2021-08-09T08:32:21Z</time>
      </trkpt>
      <trkpt lat="49.25898" lon="3.72104">
        <ele>84.73</ele>
        <time>2021-08-09T08:32:40Z</time>
      </trkpt>
      <trkpt lat="49.25898" lon="3.72104">
        <ele>84.73</ele>
        <time>2021-08-09T08:33:02Z</time>
      </trkpt>
      <trkpt lat="49.25897" lon="3.721">
        <ele>84.73</ele>
        <time>2021-08-09T08:33:16Z</time>
      </trkpt>
      <trkpt lat="49.25896" lon="3.72099">
        <ele>84.73</ele>
        <time>2021-08-09T08:33:33Z</time>
      </trkpt>
      <trkpt lat="49.25895" lon="3.72102">
        <ele>84.73</ele>
        <time>2021-08-09T08:33:54Z</time>
      </trkpt>
      <trkpt lat="49.25897" lon="3.72103">
        <ele>84.73</ele>
        <time>2021-08-09T08:34:06Z</time>
      </trkpt>
      <trkpt lat="49.25896" lon="3.72102">
        <ele>84.73</ele>
        <time>2021-08-09T08:34:21Z</time>
      </trkpt>
      <trkpt lat="49.25895" lon="3.721">
        <ele>84.73</ele>
        <time>2021-08-09T08:34:32Z</time>
      </trkpt>
      <trkpt lat="49.25895" lon="3.72102">
        <ele>84.73</ele>
        <time>2021-08-09T08:34:55Z</time>
      </trkpt>
      <trkpt lat="49.25897" lon="3.72101">
        <ele>84.25</ele>
        <time>2021-08-09T08:35:20Z</time>
      </trkpt>
      <trkpt lat="49.25897" lon="3.72101">
        <ele>84.25</ele>
        <time>2021-08-09T08:35:33Z</time>
      </trkpt>
      <trkpt lat="49.25897" lon="3.72104">
        <ele>84.25</ele>
        <time>2021-08-09T08:35:39Z</time>
      </trkpt>
      <trkpt lat="49.25896" lon="3.72106">
        <ele>84.25</ele>
        <time>2021-08-09T08:35:40Z</time>
      </trkpt>
      <trkpt lat="49.25891" lon="3.72119">
        <ele>84.25</ele>
        <time>2021-08-09T08:35:46Z</time>
      </trkpt>
      <trkpt lat="49.2588" lon="3.7214">
        <ele>84.25</ele>
        <time>2021-08-09T08:35:54Z</time>
      </trkpt>
      <trkpt lat="49.25872" lon="3.72159">
        <ele>84.25</ele>
        <time>2021-08-09T08:36:01Z</time>
      </trkpt>
      <trkpt lat="49.2587" lon="3.72165">
        <ele>84.25</ele>
        <time>2021-08-09T08:36:06Z</time>
      </trkpt>
      <trkpt lat="49.2587" lon="3.72166">
        <ele>84.25</ele>
        <time>2021-08-09T08:36:08Z</time>
      </trkpt>
      <trkpt lat="49.25869" lon="3.72168">
        <ele>84.25</ele>
        <time>2021-08-09T08:36:09Z</time>
      </trkpt>
      <trkpt lat="49.25869" lon="3.7217">
        <ele>84.25</ele>
        <time>2021-08-09T08:36:10Z</time>
      </trkpt>
      <trkpt lat="49.25864" lon="3.72181">
        <ele>83.29</ele>
        <time>2021-08-09T08:36:13Z</time>
      </trkpt>
      <trkpt lat="49.25851" lon="3.72212">
        <ele>83.29</ele>
        <time>2021-08-09T08:36:20Z</time>
      </trkpt>
      <trkpt lat="49.25841" lon="3.72243">
        <ele>83.29</ele>
        <time>2021-08-09T08:36:27Z</time>
      </trkpt>
      <trkpt lat="49.25828" lon="3.72273">
        <ele>83.29</ele>
        <time>2021-08-09T08:36:34Z</time>
      </trkpt>
      <trkpt lat="49.2581" lon="3.72318">
        <ele>83.29</ele>
        <time>2021-08-09T08:36:44Z</time>
      </trkpt>
      <trkpt lat="49.25797" lon="3.72356">
        <ele>83.29</ele>
        <time>2021-08-09T08:36:52Z</time>
      </trkpt>
      <trkpt lat="49.25786" lon="3.72388">
        <ele>83.29</ele>
        <time>2021-08-09T08:36:59Z</time>
      </trkpt>
      <trkpt lat="49.25771" lon="3.72424">
        <ele>84.25</ele>
        <time>2021-08-09T08:37:08Z</time>
      </trkpt>
      <trkpt lat="49.25756" lon="3.72461">
        <ele>84.73</ele>
        <time>2021-08-09T08:37:17Z</time>
      </trkpt>
      <trkpt lat="49.25734" lon="3.72508">
        <ele>85.69</ele>
        <time>2021-08-09T08:37:28Z</time>
      </trkpt>
      <trkpt lat="49.25724" lon="3.72531">
        <ele>84.25</ele>
        <time>2021-08-09T08:37:32Z</time>
      </trkpt>
      <trkpt lat="49.25711" lon="3.72559">
        <ele>83.29</ele>
        <time>2021-08-09T08:37:37Z</time>
      </trkpt>
      <trkpt lat="49.25709" lon="3.72566">
        <ele>83.29</ele>
        <time>2021-08-09T08:37:38Z</time>
      </trkpt>
      <trkpt lat="49.25707" lon="3.72571">
        <ele>83.29</ele>
        <time>2021-08-09T08:37:39Z</time>
      </trkpt>
      <trkpt lat="49.25704" lon="3.72576">
        <ele>83.29</ele>
        <time>2021-08-09T08:37:40Z</time>
      </trkpt>
      <trkpt lat="49.25701" lon="3.72582">
        <ele>83.29</ele>
        <time>2021-08-09T08:37:41Z</time>
      </trkpt>
      <trkpt lat="49.25691" lon="3.72603">
        <ele>85.21</ele>
        <time>2021-08-09T08:37:46Z</time>
      </trkpt>
      <trkpt lat="49.25676" lon="3.72634">
        <ele>85.69</ele>
        <time>2021-08-09T08:37:54Z</time>
      </trkpt>
      <trkpt lat="49.25661" lon="3.72664">
        <ele>86.66</ele>
        <time>2021-08-09T08:38:02Z</time>
      </trkpt>
      <trkpt lat="49.25645" lon="3.72698">
        <ele>88.1</ele>
        <time>2021-08-09T08:38:12Z</time>
      </trkpt>
      <trkpt lat="49.25627" lon="3.72735">
        <ele>88.58</ele>
        <time>2021-08-09T08:38:23Z</time>
      </trkpt>
      <trkpt lat="49.2561" lon="3.72771">
        <ele>90.5</ele>
        <time>2021-08-09T08:38:34Z</time>
      </trkpt>
      <trkpt lat="49.25592" lon="3.72808">
        <ele>91.46</ele>
        <time>2021-08-09T08:38:45Z</time>
      </trkpt>
      <trkpt lat="49.25573" lon="3.72847">
        <ele>92.42</ele>
        <time>2021-08-09T08:38:56Z</time>
      </trkpt>
      <trkpt lat="49.25557" lon="3.72879">
        <ele>92.9</ele>
        <time>2021-08-09T08:39:05Z</time>
      </trkpt>
      <trkpt lat="49.25538" lon="3.7292">
        <ele>93.87</ele>
        <time>2021-08-09T08:39:16Z</time>
      </trkpt>
      <trkpt lat="49.25522" lon="3.72955">
        <ele>94.35</ele>
        <time>2021-08-09T08:39:25Z</time>
      </trkpt>
      <trkpt lat="49.25505" lon="3.72986">
        <ele>94.35</ele>
        <time>2021-08-09T08:39:32Z</time>
      </trkpt>
      <trkpt lat="49.25492" lon="3.73014">
        <ele>92.9</ele>
        <time>2021-08-09T08:39:37Z</time>
      </trkpt>
      <trkpt lat="49.25483" lon="3.73034">
        <ele>91.94</ele>
        <time>2021-08-09T08:39:40Z</time>
      </trkpt>
      <trkpt lat="49.2548" lon="3.73042">
        <ele>91.46</ele>
        <time>2021-08-09T08:39:41Z</time>
      </trkpt>
      <trkpt lat="49.25469" lon="3.73099">
        <ele>89.54</ele>
        <time>2021-08-09T08:39:47Z</time>
      </trkpt>
      <trkpt lat="49.2546" lon="3.73158">
        <ele>87.14</ele>
        <time>2021-08-09T08:39:52Z</time>
      </trkpt>
      <trkpt lat="49.2545" lon="3.73225">
        <ele>82.81</ele>
        <time>2021-08-09T08:39:57Z</time>
      </trkpt>
      <trkpt lat="49.25437" lon="3.73313">
        <ele>79.93</ele>
        <time>2021-08-09T08:40:03Z</time>
      </trkpt>
      <trkpt lat="49.25432" lon="3.73343">
        <ele>78.97</ele>
        <time>2021-08-09T08:40:05Z</time>
      </trkpt>
      <trkpt lat="49.25412" lon="3.73486">
        <ele>76.56</ele>
        <time>2021-08-09T08:40:15Z</time>
      </trkpt>
      <trkpt lat="49.25398" lon="3.73556">
        <ele>76.56</ele>
        <time>2021-08-09T08:40:21Z</time>
      </trkpt>
      <trkpt lat="49.25378" lon="3.7361">
        <ele>78</ele>
        <time>2021-08-09T08:40:27Z</time>
      </trkpt>
      <trkpt lat="49.25372" lon="3.73626">
        <ele>78</ele>
        <time>2021-08-09T08:40:29Z</time>
      </trkpt>
      <trkpt lat="49.25369" lon="3.73634">
        <ele>78.48</ele>
        <time>2021-08-09T08:40:30Z</time>
      </trkpt>
      <trkpt lat="49.25361" lon="3.73654">
        <ele>79.45</ele>
        <time>2021-08-09T08:40:33Z</time>
      </trkpt>
      <trkpt lat="49.25361" lon="3.7366">
        <ele>79.45</ele>
        <time>2021-08-09T08:40:34Z</time>
      </trkpt>
      <trkpt lat="49.25361" lon="3.73667">
        <ele>79.45</ele>
        <time>2021-08-09T08:40:35Z</time>
      </trkpt>
      <trkpt lat="49.25363" lon="3.73672">
        <ele>79.45</ele>
        <time>2021-08-09T08:40:36Z</time>
      </trkpt>
      <trkpt lat="49.25365" lon="3.73676">
        <ele>79.45</ele>
        <time>2021-08-09T08:40:37Z</time>
      </trkpt>
      <trkpt lat="49.25367" lon="3.73682">
        <ele>79.45</ele>
        <time>2021-08-09T08:40:38Z</time>
      </trkpt>
      <trkpt lat="49.2538" lon="3.73733">
        <ele>79.93</ele>
        <time>2021-08-09T08:40:46Z</time>
      </trkpt>
      <trkpt lat="49.25384" lon="3.73754">
        <ele>79.93</ele>
        <time>2021-08-09T08:40:49Z</time>
      </trkpt>
      <trkpt lat="49.25387" lon="3.73761">
        <ele>79.93</ele>
        <time>2021-08-09T08:40:50Z</time>
      </trkpt>
      <trkpt lat="49.2539" lon="3.73767">
        <ele>79.93</ele>
        <time>2021-08-09T08:40:51Z</time>
      </trkpt>
      <trkpt lat="49.25394" lon="3.73772">
        <ele>79.93</ele>
        <time>2021-08-09T08:40:52Z</time>
      </trkpt>
      <trkpt lat="49.25398" lon="3.73776">
        <ele>79.93</ele>
        <time>2021-08-09T08:40:53Z</time>
      </trkpt>
      <trkpt lat="49.25402" lon="3.73781">
        <ele>79.93</ele>
        <time>2021-08-09T08:40:54Z</time>
      </trkpt>
      <trkpt lat="49.25415" lon="3.73795">
        <ele>79.93</ele>
        <time>2021-08-09T08:40:57Z</time>
      </trkpt>
      <trkpt lat="49.25419" lon="3.73802">
        <ele>79.93</ele>
        <time>2021-08-09T08:40:58Z</time>
      </trkpt>
      <trkpt lat="49.25422" lon="3.73809">
        <ele>78.97</ele>
        <time>2021-08-09T08:40:59Z</time>
      </trkpt>
      <trkpt lat="49.25425" lon="3.73817">
        <ele>78.97</ele>
        <time>2021-08-09T08:41:00Z</time>
      </trkpt>
      <trkpt lat="49.25426" lon="3.73825">
        <ele>78.97</ele>
        <time>2021-08-09T08:41:01Z</time>
      </trkpt>
      <trkpt lat="49.25428" lon="3.73834">
        <ele>78.97</ele>
        <time>2021-08-09T08:41:02Z</time>
      </trkpt>
      <trkpt lat="49.25429" lon="3.73851">
        <ele>78.97</ele>
        <time>2021-08-09T08:41:04Z</time>
      </trkpt>
      <trkpt lat="49.25429" lon="3.73861">
        <ele>78.97</ele>
        <time>2021-08-09T08:41:05Z</time>
      </trkpt>
      <trkpt lat="49.25427" lon="3.73883">
        <ele>78.97</ele>
        <time>2021-08-09T08:41:08Z</time>
      </trkpt>
      <trkpt lat="49.25426" lon="3.7389">
        <ele>78.97</ele>
        <time>2021-08-09T08:41:09Z</time>
      </trkpt>
      <trkpt lat="49.25425" lon="3.73902">
        <ele>78.97</ele>
        <time>2021-08-09T08:41:11Z</time>
      </trkpt>
      <trkpt lat="49.25424" lon="3.73907">
        <ele>78.97</ele>
        <time>2021-08-09T08:41:12Z</time>
      </trkpt>
      <trkpt lat="49.25422" lon="3.73913">
        <ele>78.97</ele>
        <time>2021-08-09T08:41:13Z</time>
      </trkpt>
      <trkpt lat="49.2542" lon="3.73918">
        <ele>78.97</ele>
        <time>2021-08-09T08:41:14Z</time>
      </trkpt>
      <trkpt lat="49.25418" lon="3.73924">
        <ele>78.97</ele>
        <time>2021-08-09T08:41:15Z</time>
      </trkpt>
      <trkpt lat="49.25416" lon="3.73929">
        <ele>79.93</ele>
        <time>2021-08-09T08:41:16Z</time>
      </trkpt>
      <trkpt lat="49.25404" lon="3.73963">
        <ele>80.89</ele>
        <time>2021-08-09T08:41:23Z</time>
      </trkpt>
      <trkpt lat="49.25389" lon="3.73998">
        <ele>81.37</ele>
        <time>2021-08-09T08:41:31Z</time>
      </trkpt>
      <trkpt lat="49.25371" lon="3.7404">
        <ele>82.33</ele>
        <time>2021-08-09T08:41:41Z</time>
      </trkpt>
      <trkpt lat="49.25355" lon="3.74052">
        <ele>83.29</ele>
        <time>2021-08-09T08:41:47Z</time>
      </trkpt>
      <trkpt lat="49.25336" lon="3.74053">
        <ele>84.25</ele>
        <time>2021-08-09T08:41:54Z</time>
      </trkpt>
      <trkpt lat="49.25314" lon="3.74055">
        <ele>84.73</ele>
        <time>2021-08-09T08:42:03Z</time>
      </trkpt>
      <trkpt lat="49.25301" lon="3.7407">
        <ele>85.69</ele>
        <time>2021-08-09T08:42:10Z</time>
      </trkpt>
      <trkpt lat="49.25288" lon="3.74088">
        <ele>87.14</ele>
        <time>2021-08-09T08:42:19Z</time>
      </trkpt>
      <trkpt lat="49.25272" lon="3.74098">
        <ele>88.58</ele>
        <time>2021-08-09T08:42:28Z</time>
      </trkpt>
      <trkpt lat="49.25249" lon="3.74113">
        <ele>89.54</ele>
        <time>2021-08-09T08:42:38Z</time>
      </trkpt>
      <trkpt lat="49.25229" lon="3.74127">
        <ele>90.98</ele>
        <time>2021-08-09T08:42:47Z</time>
      </trkpt>
      <trkpt lat="49.25206" lon="3.7416">
        <ele>91.94</ele>
        <time>2021-08-09T08:42:59Z</time>
      </trkpt>
      <trkpt lat="49.2519" lon="3.74202">
        <ele>92.42</ele>
        <time>2021-08-09T08:43:08Z</time>
      </trkpt>
      <trkpt lat="49.25174" lon="3.74251">
        <ele>92.42</ele>
        <time>2021-08-09T08:43:17Z</time>
      </trkpt>
      <trkpt lat="49.25159" lon="3.74288">
        <ele>90.98</ele>
        <time>2021-08-09T08:43:23Z</time>
      </trkpt>
      <trkpt lat="49.25132" lon="3.74341">
        <ele>90.98</ele>
        <time>2021-08-09T08:43:31Z</time>
      </trkpt>
      <trkpt lat="49.25102" lon="3.7439">
        <ele>90.02</ele>
        <time>2021-08-09T08:43:39Z</time>
      </trkpt>
      <trkpt lat="49.25094" lon="3.744">
        <ele>90.02</ele>
        <time>2021-08-09T08:43:41Z</time>
      </trkpt>
      <trkpt lat="49.2509" lon="3.74406">
        <ele>90.02</ele>
        <time>2021-08-09T08:43:42Z</time>
      </trkpt>
      <trkpt lat="49.25084" lon="3.74417">
        <ele>90.02</ele>
        <time>2021-08-09T08:43:44Z</time>
      </trkpt>
      <trkpt lat="49.25077" lon="3.74427">
        <ele>90.02</ele>
        <time>2021-08-09T08:43:46Z</time>
      </trkpt>
      <trkpt lat="49.25074" lon="3.74432">
        <ele>90.02</ele>
        <time>2021-08-09T08:43:47Z</time>
      </trkpt>
      <trkpt lat="49.25054" lon="3.74455">
        <ele>90.02</ele>
        <time>2021-08-09T08:43:52Z</time>
      </trkpt>
      <trkpt lat="49.25046" lon="3.74461">
        <ele>90.02</ele>
        <time>2021-08-09T08:43:54Z</time>
      </trkpt>
      <trkpt lat="49.25037" lon="3.74466">
        <ele>90.02</ele>
        <time>2021-08-09T08:43:56Z</time>
      </trkpt>
      <trkpt lat="49.25033" lon="3.74466">
        <ele>91.46</ele>
        <time>2021-08-09T08:43:57Z</time>
      </trkpt>
      <trkpt lat="49.25028" lon="3.74468">
        <ele>91.46</ele>
        <time>2021-08-09T08:43:58Z</time>
      </trkpt>
      <trkpt lat="49.25014" lon="3.7447">
        <ele>91.46</ele>
        <time>2021-08-09T08:44:01Z</time>
      </trkpt>
      <trkpt lat="49.2501" lon="3.7447">
        <ele>91.46</ele>
        <time>2021-08-09T08:44:02Z</time>
      </trkpt>
      <trkpt lat="49.25" lon="3.7447">
        <ele>91.46</ele>
        <time>2021-08-09T08:44:04Z</time>
      </trkpt>
      <trkpt lat="49.24996" lon="3.7447">
        <ele>91.46</ele>
        <time>2021-08-09T08:44:05Z</time>
      </trkpt>
      <trkpt lat="49.24991" lon="3.7447">
        <ele>91.46</ele>
        <time>2021-08-09T08:44:06Z</time>
      </trkpt>
      <trkpt lat="49.24977" lon="3.74471">
        <ele>91.46</ele>
        <time>2021-08-09T08:44:09Z</time>
      </trkpt>
      <trkpt lat="49.24954" lon="3.74479">
        <ele>91.46</ele>
        <time>2021-08-09T08:44:14Z</time>
      </trkpt>
      <trkpt lat="49.2495" lon="3.74482">
        <ele>91.46</ele>
        <time>2021-08-09T08:44:15Z</time>
      </trkpt>
      <trkpt lat="49.24946" lon="3.74486">
        <ele>91.46</ele>
        <time>2021-08-09T08:44:16Z</time>
      </trkpt>
      <trkpt lat="49.24942" lon="3.74491">
        <ele>90.02</ele>
        <time>2021-08-09T08:44:17Z</time>
      </trkpt>
      <trkpt lat="49.24938" lon="3.74496">
        <ele>90.02</ele>
        <time>2021-08-09T08:44:18Z</time>
      </trkpt>
      <trkpt lat="49.24924" lon="3.74522">
        <ele>90.02</ele>
        <time>2021-08-09T08:44:22Z</time>
      </trkpt>
      <trkpt lat="49.24921" lon="3.74529">
        <ele>90.02</ele>
        <time>2021-08-09T08:44:23Z</time>
      </trkpt>
      <trkpt lat="49.24905" lon="3.74595">
        <ele>89.54</ele>
        <time>2021-08-09T08:44:32Z</time>
      </trkpt>
      <trkpt lat="49.24888" lon="3.7467">
        <ele>89.54</ele>
        <time>2021-08-09T08:44:43Z</time>
      </trkpt>
      <trkpt lat="49.24886" lon="3.74683">
        <ele>90.98</ele>
        <time>2021-08-09T08:44:45Z</time>
      </trkpt>
      <trkpt lat="49.24883" lon="3.74703">
        <ele>90.98</ele>
        <time>2021-08-09T08:44:48Z</time>
      </trkpt>
      <trkpt lat="49.24882" lon="3.74709">
        <ele>90.98</ele>
        <time>2021-08-09T08:44:49Z</time>
      </trkpt>
      <trkpt lat="49.2488" lon="3.74716">
        <ele>90.98</ele>
        <time>2021-08-09T08:44:50Z</time>
      </trkpt>
      <trkpt lat="49.24878" lon="3.74723">
        <ele>90.98</ele>
        <time>2021-08-09T08:44:51Z</time>
      </trkpt>
      <trkpt lat="49.24876" lon="3.7473">
        <ele>90.98</ele>
        <time>2021-08-09T08:44:52Z</time>
      </trkpt>
      <trkpt lat="49.24874" lon="3.74736">
        <ele>90.98</ele>
        <time>2021-08-09T08:44:53Z</time>
      </trkpt>
      <trkpt lat="49.24869" lon="3.74749">
        <ele>90.98</ele>
        <time>2021-08-09T08:44:55Z</time>
      </trkpt>
      <trkpt lat="49.24863" lon="3.74762">
        <ele>90.98</ele>
        <time>2021-08-09T08:44:57Z</time>
      </trkpt>
      <trkpt lat="49.24859" lon="3.74768">
        <ele>90.98</ele>
        <time>2021-08-09T08:44:58Z</time>
      </trkpt>
      <trkpt lat="49.24827" lon="3.74835">
        <ele>90.98</ele>
        <time>2021-08-09T08:45:09Z</time>
      </trkpt>
      <trkpt lat="49.2482" lon="3.74848">
        <ele>89.54</ele>
        <time>2021-08-09T08:45:11Z</time>
      </trkpt>
      <trkpt lat="49.24799" lon="3.74878">
        <ele>88.58</ele>
        <time>2021-08-09T08:45:16Z</time>
      </trkpt>
      <trkpt lat="49.24764" lon="3.74911">
        <ele>85.21</ele>
        <time>2021-08-09T08:45:22Z</time>
      </trkpt>
      <trkpt lat="49.24716" lon="3.74954">
        <ele>82.81</ele>
        <time>2021-08-09T08:45:30Z</time>
      </trkpt>
      <trkpt lat="49.24696" lon="3.74974">
        <ele>82.81</ele>
        <time>2021-08-09T08:45:34Z</time>
      </trkpt>
      <trkpt lat="49.24668" lon="3.7501">
        <ele>82.81</ele>
        <time>2021-08-09T08:45:41Z</time>
      </trkpt>
      <trkpt lat="49.24649" lon="3.75036">
        <ele>83.77</ele>
        <time>2021-08-09T08:45:46Z</time>
      </trkpt>
      <trkpt lat="49.24621" lon="3.75072">
        <ele>84.73</ele>
        <time>2021-08-09T08:45:54Z</time>
      </trkpt>
      <trkpt lat="49.24595" lon="3.75108">
        <ele>84.73</ele>
        <time>2021-08-09T08:46:02Z</time>
      </trkpt>
      <trkpt lat="49.24564" lon="3.75153">
        <ele>84.73</ele>
        <time>2021-08-09T08:46:11Z</time>
      </trkpt>
      <trkpt lat="49.24556" lon="3.75169">
        <ele>84.73</ele>
        <time>2021-08-09T08:46:14Z</time>
      </trkpt>
      <trkpt lat="49.24543" lon="3.75203">
        <ele>85.21</ele>
        <time>2021-08-09T08:46:20Z</time>
      </trkpt>
      <trkpt lat="49.2453" lon="3.75237">
        <ele>85.69</ele>
        <time>2021-08-09T08:46:27Z</time>
      </trkpt>
      <trkpt lat="49.24517" lon="3.75269">
        <ele>86.18</ele>
        <time>2021-08-09T08:46:34Z</time>
      </trkpt>
      <trkpt lat="49.24496" lon="3.75314">
        <ele>86.66</ele>
        <time>2021-08-09T08:46:44Z</time>
      </trkpt>
      <trkpt lat="49.2448" lon="3.75347">
        <ele>87.62</ele>
        <time>2021-08-09T08:46:52Z</time>
      </trkpt>
      <trkpt lat="49.24464" lon="3.75378">
        <ele>88.1</ele>
        <time>2021-08-09T08:47:00Z</time>
      </trkpt>
      <trkpt lat="49.2445" lon="3.75406">
        <ele>89.54</ele>
        <time>2021-08-09T08:47:08Z</time>
      </trkpt>
      <trkpt lat="49.2444" lon="3.75424">
        <ele>90.02</ele>
        <time>2021-08-09T08:47:15Z</time>
      </trkpt>
      <trkpt lat="49.24439" lon="3.75427">
        <ele>90.02</ele>
        <time>2021-08-09T08:47:16Z</time>
      </trkpt>
      <trkpt lat="49.24431" lon="3.75446">
        <ele>90.98</ele>
        <time>2021-08-09T08:47:23Z</time>
      </trkpt>
      <trkpt lat="49.24426" lon="3.75455">
        <ele>91.46</ele>
        <time>2021-08-09T08:47:27Z</time>
      </trkpt>
      <trkpt lat="49.24421" lon="3.75478">
        <ele>92.42</ele>
        <time>2021-08-09T08:47:34Z</time>
      </trkpt>
      <trkpt lat="49.24419" lon="3.75482">
        <ele>92.42</ele>
        <time>2021-08-09T08:47:36Z</time>
      </trkpt>
      <trkpt lat="49.24417" lon="3.75484">
        <ele>92.9</ele>
        <time>2021-08-09T08:47:37Z</time>
      </trkpt>
      <trkpt lat="49.24403" lon="3.75516">
        <ele>92.9</ele>
        <time>2021-08-09T08:47:46Z</time>
      </trkpt>
      <trkpt lat="49.24385" lon="3.75566">
        <ele>93.39</ele>
        <time>2021-08-09T08:47:57Z</time>
      </trkpt>
      <trkpt lat="49.24367" lon="3.75607">
        <ele>94.35</ele>
        <time>2021-08-09T08:48:07Z</time>
      </trkpt>
      <trkpt lat="49.24355" lon="3.75636">
        <ele>95.31</ele>
        <time>2021-08-09T08:48:16Z</time>
      </trkpt>
      <trkpt lat="49.24343" lon="3.75664">
        <ele>96.75</ele>
        <time>2021-08-09T08:48:26Z</time>
      </trkpt>
      <trkpt lat="49.24334" lon="3.75693">
        <ele>98.67</ele>
        <time>2021-08-09T08:48:36Z</time>
      </trkpt>
      <trkpt lat="49.24328" lon="3.75717">
        <ele>98.67</ele>
        <time>2021-08-09T08:48:44Z</time>
      </trkpt>
      <trkpt lat="49.24319" lon="3.75747">
        <ele>99.63</ele>
        <time>2021-08-09T08:48:52Z</time>
      </trkpt>
      <trkpt lat="49.24305" lon="3.7579">
        <ele>99.63</ele>
        <time>2021-08-09T08:49:01Z</time>
      </trkpt>
      <trkpt lat="49.24293" lon="3.75828">
        <ele>100.6</ele>
        <time>2021-08-09T08:49:09Z</time>
      </trkpt>
      <trkpt lat="49.2428" lon="3.75867">
        <ele>101.08</ele>
        <time>2021-08-09T08:49:17Z</time>
      </trkpt>
      <trkpt lat="49.24266" lon="3.75904">
        <ele>101.56</ele>
        <time>2021-08-09T08:49:25Z</time>
      </trkpt>
      <trkpt lat="49.24264" lon="3.7592">
        <ele>101.56</ele>
        <time>2021-08-09T08:49:28Z</time>
      </trkpt>
      <trkpt lat="49.24266" lon="3.75927">
        <ele>101.56</ele>
        <time>2021-08-09T08:49:29Z</time>
      </trkpt>
      <trkpt lat="49.24268" lon="3.75933">
        <ele>99.63</ele>
        <time>2021-08-09T08:49:30Z</time>
      </trkpt>
      <trkpt lat="49.2427" lon="3.75939">
        <ele>99.63</ele>
        <time>2021-08-09T08:49:31Z</time>
      </trkpt>
      <trkpt lat="49.2428" lon="3.75961">
        <ele>98.19</ele>
        <time>2021-08-09T08:49:34Z</time>
      </trkpt>
      <trkpt lat="49.24284" lon="3.75969">
        <ele>98.19</ele>
        <time>2021-08-09T08:49:35Z</time>
      </trkpt>
      <trkpt lat="49.24287" lon="3.75977">
        <ele>97.71</ele>
        <time>2021-08-09T08:49:36Z</time>
      </trkpt>
      <trkpt lat="49.24289" lon="3.75986">
        <ele>97.23</ele>
        <time>2021-08-09T08:49:37Z</time>
      </trkpt>
      <trkpt lat="49.24291" lon="3.75997">
        <ele>97.23</ele>
        <time>2021-08-09T08:49:38Z</time>
      </trkpt>
      <trkpt lat="49.24291" lon="3.76008">
        <ele>95.79</ele>
        <time>2021-08-09T08:49:39Z</time>
      </trkpt>
      <trkpt lat="49.2429" lon="3.76019">
        <ele>95.31</ele>
        <time>2021-08-09T08:49:40Z</time>
      </trkpt>
      <trkpt lat="49.24289" lon="3.76031">
        <ele>95.31</ele>
        <time>2021-08-09T08:49:41Z</time>
      </trkpt>
      <trkpt lat="49.24278" lon="3.7609">
        <ele>91.94</ele>
        <time>2021-08-09T08:49:46Z</time>
      </trkpt>
      <trkpt lat="49.24264" lon="3.7614">
        <ele>89.06</ele>
        <time>2021-08-09T08:49:50Z</time>
      </trkpt>
      <trkpt lat="49.24262" lon="3.76151">
        <ele>88.58</ele>
        <time>2021-08-09T08:49:51Z</time>
      </trkpt>
      <trkpt lat="49.24261" lon="3.76164">
        <ele>88.58</ele>
        <time>2021-08-09T08:49:52Z</time>
      </trkpt>
      <trkpt lat="49.24262" lon="3.76176">
        <ele>87.62</ele>
        <time>2021-08-09T08:49:53Z</time>
      </trkpt>
      <trkpt lat="49.24264" lon="3.76186">
        <ele>87.62</ele>
        <time>2021-08-09T08:49:54Z</time>
      </trkpt>
      <trkpt lat="49.24268" lon="3.76196">
        <ele>87.62</ele>
        <time>2021-08-09T08:49:55Z</time>
      </trkpt>
      <trkpt lat="49.24273" lon="3.76205">
        <ele>87.14</ele>
        <time>2021-08-09T08:49:56Z</time>
      </trkpt>
      <trkpt lat="49.24278" lon="3.76213">
        <ele>87.14</ele>
        <time>2021-08-09T08:49:57Z</time>
      </trkpt>
      <trkpt lat="49.24284" lon="3.76221">
        <ele>86.66</ele>
        <time>2021-08-09T08:49:58Z</time>
      </trkpt>
      <trkpt lat="49.24328" lon="3.76281">
        <ele>84.73</ele>
        <time>2021-08-09T08:50:06Z</time>
      </trkpt>
      <trkpt lat="49.24368" lon="3.76329">
        <ele>83.29</ele>
        <time>2021-08-09T08:50:13Z</time>
      </trkpt>
      <trkpt lat="49.2438" lon="3.7634">
        <ele>82.33</ele>
        <time>2021-08-09T08:50:15Z</time>
      </trkpt>
      <trkpt lat="49.24384" lon="3.76345">
        <ele>82.33</ele>
        <time>2021-08-09T08:50:16Z</time>
      </trkpt>
      <trkpt lat="49.24386" lon="3.7635">
        <ele>82.33</ele>
        <time>2021-08-09T08:50:17Z</time>
      </trkpt>
      <trkpt lat="49.24386" lon="3.76356">
        <ele>82.33</ele>
        <time>2021-08-09T08:50:18Z</time>
      </trkpt>
      <trkpt lat="49.24386" lon="3.76361">
        <ele>82.33</ele>
        <time>2021-08-09T08:50:19Z</time>
      </trkpt>
      <trkpt lat="49.24385" lon="3.76365">
        <ele>82.33</ele>
        <time>2021-08-09T08:50:20Z</time>
      </trkpt>
      <trkpt lat="49.24383" lon="3.76369">
        <ele>82.33</ele>
        <time>2021-08-09T08:50:21Z</time>
      </trkpt>
      <trkpt lat="49.24381" lon="3.76373">
        <ele>82.33</ele>
        <time>2021-08-09T08:50:22Z</time>
      </trkpt>
      <trkpt lat="49.2438" lon="3.76378">
        <ele>82.33</ele>
        <time>2021-08-09T08:50:23Z</time>
      </trkpt>
      <trkpt lat="49.24379" lon="3.76382">
        <ele>82.33</ele>
        <time>2021-08-09T08:50:24Z</time>
      </trkpt>
      <trkpt lat="49.24376" lon="3.76394">
        <ele>83.77</ele>
        <time>2021-08-09T08:50:27Z</time>
      </trkpt>
      <trkpt lat="49.2437" lon="3.76415">
        <ele>83.77</ele>
        <time>2021-08-09T08:50:32Z</time>
      </trkpt>
      <trkpt lat="49.24358" lon="3.76445">
        <ele>85.69</ele>
        <time>2021-08-09T08:50:40Z</time>
      </trkpt>
      <trkpt lat="49.24342" lon="3.76469">
        <ele>86.18</ele>
        <time>2021-08-09T08:50:48Z</time>
      </trkpt>
      <trkpt lat="49.24323" lon="3.76487">
        <ele>86.66</ele>
        <time>2021-08-09T08:50:55Z</time>
      </trkpt>
      <trkpt lat="49.24301" lon="3.76507">
        <ele>88.1</ele>
        <time>2021-08-09T08:51:03Z</time>
      </trkpt>
      <trkpt lat="49.24282" lon="3.76523">
        <ele>89.54</ele>
        <time>2021-08-09T08:51:11Z</time>
      </trkpt>
      <trkpt lat="49.24258" lon="3.7654">
        <ele>92.42</ele>
        <time>2021-08-09T08:51:23Z</time>
      </trkpt>
      <trkpt lat="49.24238" lon="3.76553">
        <ele>93.87</ele>
        <time>2021-08-09T08:51:33Z</time>
      </trkpt>
      <trkpt lat="49.24222" lon="3.76564">
        <ele>94.83</ele>
        <time>2021-08-09T08:51:41Z</time>
      </trkpt>
      <trkpt lat="49.24198" lon="3.76579">
        <ele>96.27</ele>
        <time>2021-08-09T08:51:53Z</time>
      </trkpt>
      <trkpt lat="49.24182" lon="3.7659">
        <ele>97.71</ele>
        <time>2021-08-09T08:52:01Z</time>
      </trkpt>
      <trkpt lat="49.24162" lon="3.76603">
        <ele>99.15</ele>
        <time>2021-08-09T08:52:11Z</time>
      </trkpt>
      <trkpt lat="49.24142" lon="3.76616">
        <ele>100.11</ele>
        <time>2021-08-09T08:52:21Z</time>
      </trkpt>
      <trkpt lat="49.24123" lon="3.7663">
        <ele>101.08</ele>
        <time>2021-08-09T08:52:30Z</time>
      </trkpt>
      <trkpt lat="49.24096" lon="3.76649">
        <ele>101.56</ele>
        <time>2021-08-09T08:52:40Z</time>
      </trkpt>
      <trkpt lat="49.24066" lon="3.7667">
        <ele>102.04</ele>
        <time>2021-08-09T08:52:49Z</time>
      </trkpt>
      <trkpt lat="49.24038" lon="3.76691">
        <ele>102.52</ele>
        <time>2021-08-09T08:52:59Z</time>
      </trkpt>
      <trkpt lat="49.24014" lon="3.7671">
        <ele>103.96</ele>
        <time>2021-08-09T08:53:10Z</time>
      </trkpt>
      <trkpt lat="49.23993" lon="3.76719">
        <ele>105.88</ele>
        <time>2021-08-09T08:53:20Z</time>
      </trkpt>
      <trkpt lat="49.2397" lon="3.76722">
        <ele>107.81</ele>
        <time>2021-08-09T08:53:30Z</time>
      </trkpt>
      <trkpt lat="49.23943" lon="3.76727">
        <ele>109.25</ele>
        <time>2021-08-09T08:53:41Z</time>
      </trkpt>
      <trkpt lat="49.2392" lon="3.76748">
        <ele>110.21</ele>
        <time>2021-08-09T08:53:50Z</time>
      </trkpt>
      <trkpt lat="49.23896" lon="3.76789">
        <ele>110.21</ele>
        <time>2021-08-09T08:53:59Z</time>
      </trkpt>
      <trkpt lat="49.23868" lon="3.76843">
        <ele>110.21</ele>
        <time>2021-08-09T08:54:09Z</time>
      </trkpt>
      <trkpt lat="49.2384" lon="3.76899">
        <ele>110.69</ele>
        <time>2021-08-09T08:54:19Z</time>
      </trkpt>
      <trkpt lat="49.23818" lon="3.76942">
        <ele>111.65</ele>
        <time>2021-08-09T08:54:27Z</time>
      </trkpt>
      <trkpt lat="49.23784" lon="3.77001">
        <ele>112.61</ele>
        <time>2021-08-09T08:54:38Z</time>
      </trkpt>
      <trkpt lat="49.23764" lon="3.77035">
        <ele>110.69</ele>
        <time>2021-08-09T08:54:44Z</time>
      </trkpt>
      <trkpt lat="49.23737" lon="3.77076">
        <ele>108.77</ele>
        <time>2021-08-09T08:54:50Z</time>
      </trkpt>
      <trkpt lat="49.23708" lon="3.77112">
        <ele>104.92</ele>
        <time>2021-08-09T08:54:55Z</time>
      </trkpt>
      <trkpt lat="49.23669" lon="3.7716">
        <ele>103.96</ele>
        <time>2021-08-09T08:55:02Z</time>
      </trkpt>
      <trkpt lat="49.23645" lon="3.7719">
        <ele>103</ele>
        <time>2021-08-09T08:55:07Z</time>
      </trkpt>
      <trkpt lat="49.23641" lon="3.77197">
        <ele>103</ele>
        <time>2021-08-09T08:55:08Z</time>
      </trkpt>
      <trkpt lat="49.23636" lon="3.77205">
        <ele>102.52</ele>
        <time>2021-08-09T08:55:09Z</time>
      </trkpt>
      <trkpt lat="49.23632" lon="3.77213">
        <ele>102.52</ele>
        <time>2021-08-09T08:55:10Z</time>
      </trkpt>
      <trkpt lat="49.23629" lon="3.77222">
        <ele>102.04</ele>
        <time>2021-08-09T08:55:11Z</time>
      </trkpt>
      <trkpt lat="49.23617" lon="3.7725">
        <ele>100.6</ele>
        <time>2021-08-09T08:55:14Z</time>
      </trkpt>
      <trkpt lat="49.23604" lon="3.7729">
        <ele>99.63</ele>
        <time>2021-08-09T08:55:18Z</time>
      </trkpt>
      <trkpt lat="49.23581" lon="3.77381">
        <ele>99.15</ele>
        <time>2021-08-09T08:55:27Z</time>
      </trkpt>
      <trkpt lat="49.23577" lon="3.7739">
        <ele>99.15</ele>
        <time>2021-08-09T08:55:28Z</time>
      </trkpt>
      <trkpt lat="49.23544" lon="3.77429">
        <ele>98.19</ele>
        <time>2021-08-09T08:55:34Z</time>
      </trkpt>
      <trkpt lat="49.23538" lon="3.77437">
        <ele>97.71</ele>
        <time>2021-08-09T08:55:35Z</time>
      </trkpt>
      <trkpt lat="49.23521" lon="3.77467">
        <ele>95.79</ele>
        <time>2021-08-09T08:55:38Z</time>
      </trkpt>
      <trkpt lat="49.23517" lon="3.77479">
        <ele>94.83</ele>
        <time>2021-08-09T08:55:39Z</time>
      </trkpt>
      <trkpt lat="49.23509" lon="3.77504">
        <ele>93.87</ele>
        <time>2021-08-09T08:55:41Z</time>
      </trkpt>
      <trkpt lat="49.23489" lon="3.77577">
        <ele>93.39</ele>
        <time>2021-08-09T08:55:47Z</time>
      </trkpt>
      <trkpt lat="49.2348" lon="3.77597">
        <ele>93.39</ele>
        <time>2021-08-09T08:55:49Z</time>
      </trkpt>
      <trkpt lat="49.23476" lon="3.77607">
        <ele>93.39</ele>
        <time>2021-08-09T08:55:50Z</time>
      </trkpt>
      <trkpt lat="49.23471" lon="3.77615">
        <ele>93.39</ele>
        <time>2021-08-09T08:55:51Z</time>
      </trkpt>
      <trkpt lat="49.23433" lon="3.7766">
        <ele>91.94</ele>
        <time>2021-08-09T08:55:58Z</time>
      </trkpt>
      <trkpt lat="49.2339" lon="3.77727">
        <ele>91.46</ele>
        <time>2021-08-09T08:56:07Z</time>
      </trkpt>
      <trkpt lat="49.23374" lon="3.77755">
        <ele>92.9</ele>
        <time>2021-08-09T08:56:11Z</time>
      </trkpt>
      <trkpt lat="49.23338" lon="3.77812">
        <ele>94.35</ele>
        <time>2021-08-09T08:56:20Z</time>
      </trkpt>
      <trkpt lat="49.23335" lon="3.77816">
        <ele>94.35</ele>
        <time>2021-08-09T08:56:21Z</time>
      </trkpt>
      <trkpt lat="49.23333" lon="3.77819">
        <ele>94.83</ele>
        <time>2021-08-09T08:56:22Z</time>
      </trkpt>
      <trkpt lat="49.23331" lon="3.77821">
        <ele>94.83</ele>
        <time>2021-08-09T08:56:26Z</time>
      </trkpt>
      <trkpt lat="49.23329" lon="3.77822">
        <ele>94.83</ele>
        <time>2021-08-09T08:56:44Z</time>
      </trkpt>
      <trkpt lat="49.23331" lon="3.77821">
        <ele>94.83</ele>
        <time>2021-08-09T08:57:05Z</time>
      </trkpt>
      <trkpt lat="49.23327" lon="3.77828">
        <ele>94.83</ele>
        <time>2021-08-09T08:57:11Z</time>
      </trkpt>
      <trkpt lat="49.23317" lon="3.77844">
        <ele>95.31</ele>
        <time>2021-08-09T08:57:18Z</time>
      </trkpt>
      <trkpt lat="49.23302" lon="3.77872">
        <ele>96.27</ele>
        <time>2021-08-09T08:57:27Z</time>
      </trkpt>
      <trkpt lat="49.23288" lon="3.77898">
        <ele>97.71</ele>
        <time>2021-08-09T08:57:35Z</time>
      </trkpt>
      <trkpt lat="49.23275" lon="3.77928">
        <ele>99.15</ele>
        <time>2021-08-09T08:57:43Z</time>
      </trkpt>
      <trkpt lat="49.23259" lon="3.77964">
        <ele>100.11</ele>
        <time>2021-08-09T08:57:52Z</time>
      </trkpt>
      <trkpt lat="49.23247" lon="3.77993">
        <ele>100.6</ele>
        <time>2021-08-09T08:57:59Z</time>
      </trkpt>
      <trkpt lat="49.23233" lon="3.7803">
        <ele>100.6</ele>
        <time>2021-08-09T08:58:07Z</time>
      </trkpt>
      <trkpt lat="49.23221" lon="3.78062">
        <ele>99.63</ele>
        <time>2021-08-09T08:58:13Z</time>
      </trkpt>
      <trkpt lat="49.23218" lon="3.78068">
        <ele>99.63</ele>
        <time>2021-08-09T08:58:14Z</time>
      </trkpt>
      <trkpt lat="49.23215" lon="3.78074">
        <ele>99.15</ele>
        <time>2021-08-09T08:58:15Z</time>
      </trkpt>
      <trkpt lat="49.23212" lon="3.7808">
        <ele>98.19</ele>
        <time>2021-08-09T08:58:16Z</time>
      </trkpt>
      <trkpt lat="49.23202" lon="3.78102">
        <ele>97.71</ele>
        <time>2021-08-09T08:58:19Z</time>
      </trkpt>
      <trkpt lat="49.23175" lon="3.78165">
        <ele>94.83</ele>
        <time>2021-08-09T08:58:26Z</time>
      </trkpt>
      <trkpt lat="49.23151" lon="3.7824">
        <ele>93.39</ele>
        <time>2021-08-09T08:58:33Z</time>
      </trkpt>
      <trkpt lat="49.23139" lon="3.78302">
        <ele>93.87</ele>
        <time>2021-08-09T08:58:39Z</time>
      </trkpt>
      <trkpt lat="49.23127" lon="3.78361">
        <ele>94.83</ele>
        <time>2021-08-09T08:58:46Z</time>
      </trkpt>
      <trkpt lat="49.2312" lon="3.78385">
        <ele>93.39</ele>
        <time>2021-08-09T08:58:49Z</time>
      </trkpt>
      <trkpt lat="49.23095" lon="3.78458">
        <ele>91.46</ele>
        <time>2021-08-09T08:58:57Z</time>
      </trkpt>
      <trkpt lat="49.23068" lon="3.78531">
        <ele>90.5</ele>
        <time>2021-08-09T08:59:05Z</time>
      </trkpt>
      <trkpt lat="49.23043" lon="3.78599">
        <ele>90.98</ele>
        <time>2021-08-09T08:59:13Z</time>
      </trkpt>
      <trkpt lat="49.23025" lon="3.7864">
        <ele>93.87</ele>
        <time>2021-08-09T08:59:20Z</time>
      </trkpt>
      <trkpt lat="49.23003" lon="3.78691">
        <ele>95.31</ele>
        <time>2021-08-09T08:59:30Z</time>
      </trkpt>
      <trkpt lat="49.22977" lon="3.78739">
        <ele>95.79</ele>
        <time>2021-08-09T08:59:39Z</time>
      </trkpt>
      <trkpt lat="49.22964" lon="3.78757">
        <ele>94.35</ele>
        <time>2021-08-09T08:59:43Z</time>
      </trkpt>
      <trkpt lat="49.2296" lon="3.78759">
        <ele>94.35</ele>
        <time>2021-08-09T08:59:44Z</time>
      </trkpt>
      <trkpt lat="49.22956" lon="3.7876">
        <ele>94.35</ele>
        <time>2021-08-09T08:59:45Z</time>
      </trkpt>
      <trkpt lat="49.22947" lon="3.7876">
        <ele>94.35</ele>
        <time>2021-08-09T08:59:47Z</time>
      </trkpt>
      <trkpt lat="49.2293" lon="3.78758">
        <ele>94.35</ele>
        <time>2021-08-09T08:59:51Z</time>
      </trkpt>
      <trkpt lat="49.22925" lon="3.78759">
        <ele>94.35</ele>
        <time>2021-08-09T08:59:52Z</time>
      </trkpt>
      <trkpt lat="49.22921" lon="3.7876">
        <ele>94.35</ele>
        <time>2021-08-09T08:59:53Z</time>
      </trkpt>
      <trkpt lat="49.22912" lon="3.78761">
        <ele>95.79</ele>
        <time>2021-08-09T08:59:55Z</time>
      </trkpt>
      <trkpt lat="49.22867" lon="3.78768">
        <ele>95.79</ele>
        <time>2021-08-09T09:00:05Z</time>
      </trkpt>
      <trkpt lat="49.22835" lon="3.78773">
        <ele>96.75</ele>
        <time>2021-08-09T09:00:13Z</time>
      </trkpt>
      <trkpt lat="49.22801" lon="3.78778">
        <ele>97.23</ele>
        <time>2021-08-09T09:00:23Z</time>
      </trkpt>
      <trkpt lat="49.22777" lon="3.78781">
        <ele>98.67</ele>
        <time>2021-08-09T09:00:32Z</time>
      </trkpt>
      <trkpt lat="49.22755" lon="3.78783">
        <ele>99.63</ele>
        <time>2021-08-09T09:00:41Z</time>
      </trkpt>
      <trkpt lat="49.22742" lon="3.78792">
        <ele>100.6</ele>
        <time>2021-08-09T09:00:48Z</time>
      </trkpt>
      <trkpt lat="49.22727" lon="3.78795">
        <ele>102.04</ele>
        <time>2021-08-09T09:00:55Z</time>
      </trkpt>
      <trkpt lat="49.22709" lon="3.788">
        <ele>103</ele>
        <time>2021-08-09T09:01:05Z</time>
      </trkpt>
      <trkpt lat="49.22687" lon="3.78805">
        <ele>103.96</ele>
        <time>2021-08-09T09:01:16Z</time>
      </trkpt>
      <trkpt lat="49.22669" lon="3.78811">
        <ele>104.92</ele>
        <time>2021-08-09T09:01:26Z</time>
      </trkpt>
      <trkpt lat="49.22649" lon="3.78815">
        <ele>105.88</ele>
        <time>2021-08-09T09:01:36Z</time>
      </trkpt>
      <trkpt lat="49.22638" lon="3.78817">
        <ele>105.88</ele>
        <time>2021-08-09T09:01:42Z</time>
      </trkpt>
      <trkpt lat="49.22623" lon="3.78822">
        <ele>106.84</ele>
        <time>2021-08-09T09:01:50Z</time>
      </trkpt>
      <trkpt lat="49.22603" lon="3.78827">
        <ele>107.32</ele>
        <time>2021-08-09T09:02:00Z</time>
      </trkpt>
      <trkpt lat="49.22583" lon="3.78832">
        <ele>108.77</ele>
        <time>2021-08-09T09:02:11Z</time>
      </trkpt>
      <trkpt lat="49.22564" lon="3.78836">
        <ele>109.73</ele>
        <time>2021-08-09T09:02:21Z</time>
      </trkpt>
      <trkpt lat="49.22544" lon="3.78839">
        <ele>111.17</ele>
        <time>2021-08-09T09:02:32Z</time>
      </trkpt>
      <trkpt lat="49.22518" lon="3.78845">
        <ele>112.61</ele>
        <time>2021-08-09T09:02:44Z</time>
      </trkpt>
      <trkpt lat="49.225" lon="3.78849">
        <ele>112.61</ele>
        <time>2021-08-09T09:02:53Z</time>
      </trkpt>
      <trkpt lat="49.22489" lon="3.7885">
        <ele>114.05</ele>
        <time>2021-08-09T09:02:59Z</time>
      </trkpt>
      <trkpt lat="49.22484" lon="3.78851">
        <ele>114.05</ele>
        <time>2021-08-09T09:03:02Z</time>
      </trkpt>
      <trkpt lat="49.22483" lon="3.78854">
        <ele>114.53</ele>
        <time>2021-08-09T09:03:03Z</time>
      </trkpt>
      <trkpt lat="49.22482" lon="3.78856">
        <ele>114.53</ele>
        <time>2021-08-09T09:03:04Z</time>
      </trkpt>
      <trkpt lat="49.22481" lon="3.78858">
        <ele>114.53</ele>
        <time>2021-08-09T09:03:05Z</time>
      </trkpt>
      <trkpt lat="49.2248" lon="3.7886">
        <ele>114.53</ele>
        <time>2021-08-09T09:03:06Z</time>
      </trkpt>
      <trkpt lat="49.22479" lon="3.78862">
        <ele>114.53</ele>
        <time>2021-08-09T09:03:07Z</time>
      </trkpt>
      <trkpt lat="49.22477" lon="3.78864">
        <ele>115.5</ele>
        <time>2021-08-09T09:03:08Z</time>
      </trkpt>
      <trkpt lat="49.22476" lon="3.78865">
        <ele>115.5</ele>
        <time>2021-08-09T09:03:09Z</time>
      </trkpt>
      <trkpt lat="49.22475" lon="3.78866">
        <ele>115.5</ele>
        <time>2021-08-09T09:03:10Z</time>
      </trkpt>
      <trkpt lat="49.22473" lon="3.78868">
        <ele>115.5</ele>
        <time>2021-08-09T09:03:11Z</time>
      </trkpt>
      <trkpt lat="49.22473" lon="3.78869">
        <ele>115.5</ele>
        <time>2021-08-09T09:03:12Z</time>
      </trkpt>
      <trkpt lat="49.22472" lon="3.78871">
        <ele>115.5</ele>
        <time>2021-08-09T09:03:13Z</time>
      </trkpt>
      <trkpt lat="49.22471" lon="3.78873">
        <ele>115.5</ele>
        <time>2021-08-09T09:03:14Z</time>
      </trkpt>
      <trkpt lat="49.22469" lon="3.78875">
        <ele>115.5</ele>
        <time>2021-08-09T09:03:15Z</time>
      </trkpt>
      <trkpt lat="49.22461" lon="3.7889">
        <ele>115.5</ele>
        <time>2021-08-09T09:03:21Z</time>
      </trkpt>
      <trkpt lat="49.22445" lon="3.78912">
        <ele>116.46</ele>
        <time>2021-08-09T09:03:29Z</time>
      </trkpt>
      <trkpt lat="49.22439" lon="3.78916">
        <ele>116.46</ele>
        <time>2021-08-09T09:03:31Z</time>
      </trkpt>
      <trkpt lat="49.22435" lon="3.78919">
        <ele>116.46</ele>
        <time>2021-08-09T09:03:32Z</time>
      </trkpt>
      <trkpt lat="49.22408" lon="3.78945">
        <ele>116.46</ele>
        <time>2021-08-09T09:03:40Z</time>
      </trkpt>
      <trkpt lat="49.22378" lon="3.78963">
        <ele>116.46</ele>
        <time>2021-08-09T09:03:48Z</time>
      </trkpt>
      <trkpt lat="49.2237" lon="3.78966">
        <ele>116.46</ele>
        <time>2021-08-09T09:03:50Z</time>
      </trkpt>
      <trkpt lat="49.22366" lon="3.78966">
        <ele>116.46</ele>
        <time>2021-08-09T09:03:51Z</time>
      </trkpt>
      <trkpt lat="49.22363" lon="3.78966">
        <ele>116.46</ele>
        <time>2021-08-09T09:03:52Z</time>
      </trkpt>
      <trkpt lat="49.22359" lon="3.78966">
        <ele>116.46</ele>
        <time>2021-08-09T09:03:53Z</time>
      </trkpt>
      <trkpt lat="49.22355" lon="3.78967">
        <ele>116.46</ele>
        <time>2021-08-09T09:03:54Z</time>
      </trkpt>
      <trkpt lat="49.22327" lon="3.7897">
        <ele>116.46</ele>
        <time>2021-08-09T09:04:01Z</time>
      </trkpt>
      <trkpt lat="49.22293" lon="3.78987">
        <ele>116.94</ele>
        <time>2021-08-09T09:04:10Z</time>
      </trkpt>
      <trkpt lat="49.22283" lon="3.78992">
        <ele>116.94</ele>
        <time>2021-08-09T09:04:13Z</time>
      </trkpt>
      <trkpt lat="49.22278" lon="3.78993">
        <ele>116.94</ele>
        <time>2021-08-09T09:04:14Z</time>
      </trkpt>
      <trkpt lat="49.22275" lon="3.78994">
        <ele>116.94</ele>
        <time>2021-08-09T09:04:15Z</time>
      </trkpt>
      <trkpt lat="49.22271" lon="3.78994">
        <ele>116.94</ele>
        <time>2021-08-09T09:04:16Z</time>
      </trkpt>
      <trkpt lat="49.22267" lon="3.78993">
        <ele>116.94</ele>
        <time>2021-08-09T09:04:17Z</time>
      </trkpt>
      <trkpt lat="49.2225" lon="3.7899">
        <ele>116.94</ele>
        <time>2021-08-09T09:04:21Z</time>
      </trkpt>
      <trkpt lat="49.2223" lon="3.7899">
        <ele>116.94</ele>
        <time>2021-08-09T09:04:26Z</time>
      </trkpt>
      <trkpt lat="49.22226" lon="3.78992">
        <ele>116.94</ele>
        <time>2021-08-09T09:04:27Z</time>
      </trkpt>
      <trkpt lat="49.22222" lon="3.78995">
        <ele>116.94</ele>
        <time>2021-08-09T09:04:28Z</time>
      </trkpt>
      <trkpt lat="49.22203" lon="3.79011">
        <ele>116.94</ele>
        <time>2021-08-09T09:04:33Z</time>
      </trkpt>
      <trkpt lat="49.22177" lon="3.79038">
        <ele>117.9</ele>
        <time>2021-08-09T09:04:42Z</time>
      </trkpt>
      <trkpt lat="49.22154" lon="3.79054">
        <ele>118.38</ele>
        <time>2021-08-09T09:04:50Z</time>
      </trkpt>
      <trkpt lat="49.22121" lon="3.79057">
        <ele>118.38</ele>
        <time>2021-08-09T09:04:58Z</time>
      </trkpt>
      <trkpt lat="49.22092" lon="3.79068">
        <ele>117.42</ele>
        <time>2021-08-09T09:05:06Z</time>
      </trkpt>
      <trkpt lat="49.22068" lon="3.79093">
        <ele>118.38</ele>
        <time>2021-08-09T09:05:14Z</time>
      </trkpt>
      <trkpt lat="49.22055" lon="3.79112">
        <ele>118.38</ele>
        <time>2021-08-09T09:05:21Z</time>
      </trkpt>
      <trkpt lat="49.22046" lon="3.79129">
        <ele>120.78</ele>
        <time>2021-08-09T09:05:28Z</time>
      </trkpt>
      <trkpt lat="49.22036" lon="3.79148">
        <ele>120.78</ele>
        <time>2021-08-09T09:05:35Z</time>
      </trkpt>
      <trkpt lat="49.2202" lon="3.79176">
        <ele>120.78</ele>
        <time>2021-08-09T09:05:43Z</time>
      </trkpt>
      <trkpt lat="49.22005" lon="3.79199">
        <ele>120.78</ele>
        <time>2021-08-09T09:05:50Z</time>
      </trkpt>
      <trkpt lat="49.21986" lon="3.79222">
        <ele>119.82</ele>
        <time>2021-08-09T09:05:56Z</time>
      </trkpt>
      <trkpt lat="49.21962" lon="3.7926">
        <ele>118.86</ele>
        <time>2021-08-09T09:06:03Z</time>
      </trkpt>
      <trkpt lat="49.21959" lon="3.79265">
        <ele>118.86</ele>
        <time>2021-08-09T09:06:04Z</time>
      </trkpt>
      <trkpt lat="49.2194" lon="3.79296">
        <ele>118.86</ele>
        <time>2021-08-09T09:06:11Z</time>
      </trkpt>
      <trkpt lat="49.21933" lon="3.79309">
        <ele>120.3</ele>
        <time>2021-08-09T09:06:14Z</time>
      </trkpt>
      <trkpt lat="49.21921" lon="3.79334">
        <ele>120.78</ele>
        <time>2021-08-09T09:06:20Z</time>
      </trkpt>
      <trkpt lat="49.21902" lon="3.79361">
        <ele>122.71</ele>
        <time>2021-08-09T09:06:28Z</time>
      </trkpt>
      <trkpt lat="49.21887" lon="3.79387">
        <ele>124.15</ele>
        <time>2021-08-09T09:06:36Z</time>
      </trkpt>
      <trkpt lat="49.21869" lon="3.79415">
        <ele>125.11</ele>
        <time>2021-08-09T09:06:45Z</time>
      </trkpt>
      <trkpt lat="49.21853" lon="3.7944">
        <ele>125.11</ele>
        <time>2021-08-09T09:06:52Z</time>
      </trkpt>
      <trkpt lat="49.21833" lon="3.79469">
        <ele>123.19</ele>
        <time>2021-08-09T09:06:59Z</time>
      </trkpt>
      <trkpt lat="49.21829" lon="3.79475">
        <ele>123.19</ele>
        <time>2021-08-09T09:07:00Z</time>
      </trkpt>
      <trkpt lat="49.21815" lon="3.79496">
        <ele>121.26</ele>
        <time>2021-08-09T09:07:03Z</time>
      </trkpt>
      <trkpt lat="49.21807" lon="3.79514">
        <ele>119.34</ele>
        <time>2021-08-09T09:07:05Z</time>
      </trkpt>
      <trkpt lat="49.2178" lon="3.79581">
        <ele>118.86</ele>
        <time>2021-08-09T09:07:13Z</time>
      </trkpt>
      <trkpt lat="49.2177" lon="3.79607">
        <ele>118.86</ele>
        <time>2021-08-09T09:07:17Z</time>
      </trkpt>
      <trkpt lat="49.21768" lon="3.79613">
        <ele>118.86</ele>
        <time>2021-08-09T09:07:18Z</time>
      </trkpt>
      <trkpt lat="49.21768" lon="3.7962">
        <ele>118.86</ele>
        <time>2021-08-09T09:07:19Z</time>
      </trkpt>
      <trkpt lat="49.21769" lon="3.79625">
        <ele>118.86</ele>
        <time>2021-08-09T09:07:20Z</time>
      </trkpt>
      <trkpt lat="49.2177" lon="3.7963">
        <ele>118.86</ele>
        <time>2021-08-09T09:07:21Z</time>
      </trkpt>
      <trkpt lat="49.21772" lon="3.79635">
        <ele>118.86</ele>
        <time>2021-08-09T09:07:22Z</time>
      </trkpt>
      <trkpt lat="49.21775" lon="3.7964">
        <ele>118.86</ele>
        <time>2021-08-09T09:07:23Z</time>
      </trkpt>
      <trkpt lat="49.21793" lon="3.79682">
        <ele>118.86</ele>
        <time>2021-08-09T09:07:30Z</time>
      </trkpt>
      <trkpt lat="49.21819" lon="3.79747">
        <ele>117.9</ele>
        <time>2021-08-09T09:07:39Z</time>
      </trkpt>
      <trkpt lat="49.21842" lon="3.79804">
        <ele>117.9</ele>
        <time>2021-08-09T09:07:47Z</time>
      </trkpt>
      <trkpt lat="49.21867" lon="3.79872">
        <ele>117.9</ele>
        <time>2021-08-09T09:07:57Z</time>
      </trkpt>
      <trkpt lat="49.21879" lon="3.79902">
        <ele>117.9</ele>
        <time>2021-08-09T09:08:01Z</time>
      </trkpt>
      <trkpt lat="49.21888" lon="3.79916">
        <ele>117.42</ele>
        <time>2021-08-09T09:08:03Z</time>
      </trkpt>
      <trkpt lat="49.21893" lon="3.79922">
        <ele>117.42</ele>
        <time>2021-08-09T09:08:04Z</time>
      </trkpt>
      <trkpt lat="49.21898" lon="3.79928">
        <ele>117.42</ele>
        <time>2021-08-09T09:08:05Z</time>
      </trkpt>
      <trkpt lat="49.21903" lon="3.79933">
        <ele>117.42</ele>
        <time>2021-08-09T09:08:06Z</time>
      </trkpt>
      <trkpt lat="49.21908" lon="3.79937">
        <ele>117.42</ele>
        <time>2021-08-09T09:08:07Z</time>
      </trkpt>
      <trkpt lat="49.21952" lon="3.7997">
        <ele>117.42</ele>
        <time>2021-08-09T09:08:15Z</time>
      </trkpt>
      <trkpt lat="49.21991" lon="3.80011">
        <ele>117.42</ele>
        <time>2021-08-09T09:08:23Z</time>
      </trkpt>
      <trkpt lat="49.22036" lon="3.80063">
        <ele>114.53</ele>
        <time>2021-08-09T09:08:31Z</time>
      </trkpt>
      <trkpt lat="49.22085" lon="3.80136">
        <ele>112.61</ele>
        <time>2021-08-09T09:08:40Z</time>
      </trkpt>
      <trkpt lat="49.22134" lon="3.80202">
        <ele>111.17</ele>
        <time>2021-08-09T09:08:48Z</time>
      </trkpt>
      <trkpt lat="49.22185" lon="3.80266">
        <ele>108.29</ele>
        <time>2021-08-09T09:08:56Z</time>
      </trkpt>
      <trkpt lat="49.2224" lon="3.80318">
        <ele>108.29</ele>
        <time>2021-08-09T09:09:04Z</time>
      </trkpt>
      <trkpt lat="49.22248" lon="3.80322">
        <ele>108.29</ele>
        <time>2021-08-09T09:09:05Z</time>
      </trkpt>
      <trkpt lat="49.22255" lon="3.80325">
        <ele>108.29</ele>
        <time>2021-08-09T09:09:06Z</time>
      </trkpt>
      <trkpt lat="49.22307" lon="3.80335">
        <ele>107.32</ele>
        <time>2021-08-09T09:09:13Z</time>
      </trkpt>
      <trkpt lat="49.22335" lon="3.80341">
        <ele>106.36</ele>
        <time>2021-08-09T09:09:17Z</time>
      </trkpt>
      <trkpt lat="49.22342" lon="3.80345">
        <ele>106.36</ele>
        <time>2021-08-09T09:09:18Z</time>
      </trkpt>
      <trkpt lat="49.22394" lon="3.80383">
        <ele>105.4</ele>
        <time>2021-08-09T09:09:26Z</time>
      </trkpt>
      <trkpt lat="49.22399" lon="3.80388">
        <ele>105.4</ele>
        <time>2021-08-09T09:09:27Z</time>
      </trkpt>
      <trkpt lat="49.22403" lon="3.80392">
        <ele>104.92</ele>
        <time>2021-08-09T09:09:28Z</time>
      </trkpt>
      <trkpt lat="49.22405" lon="3.80397">
        <ele>104.92</ele>
        <time>2021-08-09T09:09:29Z</time>
      </trkpt>
      <trkpt lat="49.22407" lon="3.80401">
        <ele>104.92</ele>
        <time>2021-08-09T09:09:30Z</time>
      </trkpt>
      <trkpt lat="49.2241" lon="3.80404">
        <ele>104.92</ele>
        <time>2021-08-09T09:09:31Z</time>
      </trkpt>
      <trkpt lat="49.22412" lon="3.80409">
        <ele>104.92</ele>
        <time>2021-08-09T09:09:32Z</time>
      </trkpt>
      <trkpt lat="49.22415" lon="3.80413">
        <ele>104.92</ele>
        <time>2021-08-09T09:09:33Z</time>
      </trkpt>
      <trkpt lat="49.22418" lon="3.80418">
        <ele>104.92</ele>
        <time>2021-08-09T09:09:34Z</time>
      </trkpt>
      <trkpt lat="49.22421" lon="3.80425">
        <ele>103.48</ele>
        <time>2021-08-09T09:09:35Z</time>
      </trkpt>
      <trkpt lat="49.22436" lon="3.80461">
        <ele>100.11</ele>
        <time>2021-08-09T09:09:39Z</time>
      </trkpt>
      <trkpt lat="49.22446" lon="3.80485">
        <ele>98.19</ele>
        <time>2021-08-09T09:09:41Z</time>
      </trkpt>
      <trkpt lat="49.22461" lon="3.80525">
        <ele>94.35</ele>
        <time>2021-08-09T09:09:44Z</time>
      </trkpt>
      <trkpt lat="49.22479" lon="3.80565">
        <ele>92.42</ele>
        <time>2021-08-09T09:09:47Z</time>
      </trkpt>
      <trkpt lat="49.22486" lon="3.80577">
        <ele>91.94</ele>
        <time>2021-08-09T09:09:48Z</time>
      </trkpt>
      <trkpt lat="49.22493" lon="3.80586">
        <ele>91.46</ele>
        <time>2021-08-09T09:09:49Z</time>
      </trkpt>
      <trkpt lat="49.22537" lon="3.80639">
        <ele>91.46</ele>
        <time>2021-08-09T09:09:55Z</time>
      </trkpt>
      <trkpt lat="49.22576" lon="3.80692">
        <ele>91.94</ele>
        <time>2021-08-09T09:10:02Z</time>
      </trkpt>
      <trkpt lat="49.22603" lon="3.80747">
        <ele>91.94</ele>
        <time>2021-08-09T09:10:09Z</time>
      </trkpt>
      <trkpt lat="49.22633" lon="3.80804">
        <ele>91.94</ele>
        <time>2021-08-09T09:10:17Z</time>
      </trkpt>
      <trkpt lat="49.22645" lon="3.80825">
        <ele>91.94</ele>
        <time>2021-08-09T09:10:21Z</time>
      </trkpt>
      <trkpt lat="49.22652" lon="3.80835">
        <ele>93.39</ele>
        <time>2021-08-09T09:10:23Z</time>
      </trkpt>
      <trkpt lat="49.22674" lon="3.80873">
        <ele>93.87</ele>
        <time>2021-08-09T09:10:31Z</time>
      </trkpt>
      <trkpt lat="49.22687" lon="3.80898">
        <ele>94.83</ele>
        <time>2021-08-09T09:10:37Z</time>
      </trkpt>
      <trkpt lat="49.22686" lon="3.80902">
        <ele>94.83</ele>
        <time>2021-08-09T09:10:38Z</time>
      </trkpt>
      <trkpt lat="49.22685" lon="3.80906">
        <ele>95.31</ele>
        <time>2021-08-09T09:10:39Z</time>
      </trkpt>
      <trkpt lat="49.22684" lon="3.80909">
        <ele>95.31</ele>
        <time>2021-08-09T09:10:40Z</time>
      </trkpt>
      <trkpt lat="49.22682" lon="3.80912">
        <ele>95.31</ele>
        <time>2021-08-09T09:10:41Z</time>
      </trkpt>
      <trkpt lat="49.2268" lon="3.80914">
        <ele>95.31</ele>
        <time>2021-08-09T09:10:42Z</time>
      </trkpt>
      <trkpt lat="49.22663" lon="3.80936">
        <ele>95.31</ele>
        <time>2021-08-09T09:10:50Z</time>
      </trkpt>
      <trkpt lat="49.22662" lon="3.80937">
        <ele>95.31</ele>
        <time>2021-08-09T09:10:51Z</time>
      </trkpt>
      <trkpt lat="49.2266" lon="3.80938">
        <ele>94.83</ele>
        <time>2021-08-09T09:10:52Z</time>
      </trkpt>
      <trkpt lat="49.22658" lon="3.8094">
        <ele>94.83</ele>
        <time>2021-08-09T09:10:53Z</time>
      </trkpt>
      <trkpt lat="49.22656" lon="3.80944">
        <ele>94.83</ele>
        <time>2021-08-09T09:10:54Z</time>
      </trkpt>
      <trkpt lat="49.22654" lon="3.80948">
        <ele>94.83</ele>
        <time>2021-08-09T09:10:55Z</time>
      </trkpt>
      <trkpt lat="49.2263" lon="3.80985">
        <ele>94.83</ele>
        <time>2021-08-09T09:11:06Z</time>
      </trkpt>
      <trkpt lat="49.2262" lon="3.81004">
        <ele>93.87</ele>
        <time>2021-08-09T09:11:12Z</time>
      </trkpt>
      <trkpt lat="49.22604" lon="3.81041">
        <ele>93.87</ele>
        <time>2021-08-09T09:11:22Z</time>
      </trkpt>
      <trkpt lat="49.22593" lon="3.81077">
        <ele>93.87</ele>
        <time>2021-08-09T09:11:31Z</time>
      </trkpt>
      <trkpt lat="49.22584" lon="3.81113">
        <ele>93.87</ele>
        <time>2021-08-09T09:11:40Z</time>
      </trkpt>
      <trkpt lat="49.22579" lon="3.81138">
        <ele>93.87</ele>
        <time>2021-08-09T09:11:47Z</time>
      </trkpt>
      <trkpt lat="49.22572" lon="3.81173">
        <ele>93.87</ele>
        <time>2021-08-09T09:11:56Z</time>
      </trkpt>
      <trkpt lat="49.22566" lon="3.81201">
        <ele>93.87</ele>
        <time>2021-08-09T09:12:03Z</time>
      </trkpt>
      <trkpt lat="49.22559" lon="3.81235">
        <ele>93.87</ele>
        <time>2021-08-09T09:12:10Z</time>
      </trkpt>
      <trkpt lat="49.22556" lon="3.81262">
        <ele>93.87</ele>
        <time>2021-08-09T09:12:15Z</time>
      </trkpt>
      <trkpt lat="49.22548" lon="3.81296">
        <ele>93.87</ele>
        <time>2021-08-09T09:12:22Z</time>
      </trkpt>
      <trkpt lat="49.22542" lon="3.81324">
        <ele>93.87</ele>
        <time>2021-08-09T09:12:28Z</time>
      </trkpt>
      <trkpt lat="49.22537" lon="3.81347">
        <ele>93.87</ele>
        <time>2021-08-09T09:12:33Z</time>
      </trkpt>
      <trkpt lat="49.22532" lon="3.81369">
        <ele>93.87</ele>
        <time>2021-08-09T09:12:38Z</time>
      </trkpt>
      <trkpt lat="49.22531" lon="3.81375">
        <ele>93.87</ele>
        <time>2021-08-09T09:12:39Z</time>
      </trkpt>
      <trkpt lat="49.22529" lon="3.8138">
        <ele>93.87</ele>
        <time>2021-08-09T09:12:40Z</time>
      </trkpt>
      <trkpt lat="49.22528" lon="3.81385">
        <ele>93.87</ele>
        <time>2021-08-09T09:12:41Z</time>
      </trkpt>
      <trkpt lat="49.22527" lon="3.81394">
        <ele>94.35</ele>
        <time>2021-08-09T09:12:46Z</time>
      </trkpt>
      <trkpt lat="49.22528" lon="3.814">
        <ele>94.35</ele>
        <time>2021-08-09T09:12:53Z</time>
      </trkpt>
      <trkpt lat="49.22527" lon="3.81401">
        <ele>95.31</ele>
        <time>2021-08-09T09:12:55Z</time>
      </trkpt>
      <trkpt lat="49.22526" lon="3.81406">
        <ele>95.79</ele>
        <time>2021-08-09T09:13:03Z</time>
      </trkpt>
      <trkpt lat="49.22526" lon="3.81412">
        <ele>95.79</ele>
        <time>2021-08-09T09:13:12Z</time>
      </trkpt>
      <trkpt lat="49.22524" lon="3.81413">
        <ele>95.79</ele>
        <time>2021-08-09T09:13:18Z</time>
      </trkpt>
      <trkpt lat="49.22521" lon="3.8142">
        <ele>95.79</ele>
        <time>2021-08-09T09:13:25Z</time>
      </trkpt>
      <trkpt lat="49.2252" lon="3.81421">
        <ele>95.79</ele>
        <time>2021-08-09T09:13:31Z</time>
      </trkpt>
      <trkpt lat="49.22518" lon="3.81423">
        <ele>96.27</ele>
        <time>2021-08-09T09:13:39Z</time>
      </trkpt>
      <trkpt lat="49.22516" lon="3.81426">
        <ele>96.27</ele>
        <time>2021-08-09T09:13:46Z</time>
      </trkpt>
      <trkpt lat="49.22516" lon="3.81425">
        <ele>95.31</ele>
        <time>2021-08-09T09:13:52Z</time>
      </trkpt>
      <trkpt lat="49.22517" lon="3.81424">
        <ele>95.31</ele>
        <time>2021-08-09T09:14:00Z</time>
      </trkpt>
      <trkpt lat="49.22517" lon="3.81423">
        <ele>95.31</ele>
        <time>2021-08-09T09:14:10Z</time>
      </trkpt>
      <trkpt lat="49.22516" lon="3.81423">
        <ele>95.31</ele>
        <time>2021-08-09T09:14:19Z</time>
      </trkpt>
      <trkpt lat="49.22515" lon="3.81426">
        <ele>95.31</ele>
        <time>2021-08-09T09:14:25Z</time>
      </trkpt>
      <trkpt lat="49.22516" lon="3.81428">
        <ele>96.75</ele>
        <time>2021-08-09T09:14:35Z</time>
      </trkpt>
      <trkpt lat="49.22516" lon="3.81433">
        <ele>96.75</ele>
        <time>2021-08-09T09:14:42Z</time>
      </trkpt>
      <trkpt lat="49.22512" lon="3.81447">
        <ele>96.75</ele>
        <time>2021-08-09T09:14:51Z</time>
      </trkpt>
      <trkpt lat="49.2251" lon="3.8146">
        <ele>96.75</ele>
        <time>2021-08-09T09:14:59Z</time>
      </trkpt>
      <trkpt lat="49.22511" lon="3.81465">
        <ele>96.75</ele>
        <time>2021-08-09T09:15:07Z</time>
      </trkpt>
      <trkpt lat="49.22511" lon="3.81465">
        <ele>96.75</ele>
        <time>2021-08-09T09:15:14Z</time>
      </trkpt>
      <trkpt lat="49.2251" lon="3.81466">
        <ele>97.23</ele>
        <time>2021-08-09T09:15:25Z</time>
      </trkpt>
      <trkpt lat="49.22508" lon="3.81466">
        <ele>97.23</ele>
        <time>2021-08-09T09:15:32Z</time>
      </trkpt>
      <trkpt lat="49.22507" lon="3.81469">
        <ele>97.23</ele>
        <time>2021-08-09T09:15:37Z</time>
      </trkpt>
      <trkpt lat="49.22507" lon="3.81472">
        <ele>97.23</ele>
        <time>2021-08-09T09:15:43Z</time>
      </trkpt>
      <trkpt lat="49.22506" lon="3.81473">
        <ele>97.23</ele>
        <time>2021-08-09T09:15:45Z</time>
      </trkpt>
      <trkpt lat="49.22506" lon="3.81473">
        <ele>97.23</ele>
        <time>2021-08-09T09:15:51Z</time>
      </trkpt>
      <trkpt lat="49.22506" lon="3.81473">
        <ele>97.23</ele>
        <time>2021-08-09T09:15:58Z</time>
      </trkpt>
      <trkpt lat="49.22512" lon="3.81475">
        <ele>97.23</ele>
        <time>2021-08-09T09:16:20Z</time>
      </trkpt>
      <trkpt lat="49.22509" lon="3.81475">
        <ele>97.23</ele>
        <time>2021-08-09T09:16:40Z</time>
      </trkpt>
      <trkpt lat="49.22507" lon="3.81477">
        <ele>97.23</ele>
        <time>2021-08-09T09:16:49Z</time>
      </trkpt>
      <trkpt lat="49.22505" lon="3.81481">
        <ele>97.23</ele>
        <time>2021-08-09T09:16:55Z</time>
      </trkpt>
      <trkpt lat="49.22505" lon="3.81483">
        <ele>97.23</ele>
        <time>2021-08-09T09:16:56Z</time>
      </trkpt>
      <trkpt lat="49.22505" lon="3.81485">
        <ele>97.23</ele>
        <time>2021-08-09T09:16:57Z</time>
      </trkpt>
      <trkpt lat="49.22504" lon="3.81488">
        <ele>97.23</ele>
        <time>2021-08-09T09:16:58Z</time>
      </trkpt>
      <trkpt lat="49.22504" lon="3.8149">
        <ele>97.71</ele>
        <time>2021-08-09T09:16:59Z</time>
      </trkpt>
      <trkpt lat="49.22503" lon="3.81493">
        <ele>97.71</ele>
        <time>2021-08-09T09:17:00Z</time>
      </trkpt>
      <trkpt lat="49.22503" lon="3.81495">
        <ele>97.71</ele>
        <time>2021-08-09T09:17:01Z</time>
      </trkpt>
      <trkpt lat="49.22502" lon="3.81497">
        <ele>97.71</ele>
        <time>2021-08-09T09:17:02Z</time>
      </trkpt>
      <trkpt lat="49.22497" lon="3.81516">
        <ele>97.71</ele>
        <time>2021-08-09T09:17:08Z</time>
      </trkpt>
      <trkpt lat="49.22495" lon="3.81526">
        <ele>96.27</ele>
        <time>2021-08-09T09:17:12Z</time>
      </trkpt>
      <trkpt lat="49.22489" lon="3.81537">
        <ele>96.27</ele>
        <time>2021-08-09T09:17:16Z</time>
      </trkpt>
      <trkpt lat="49.22478" lon="3.81543">
        <ele>95.79</ele>
        <time>2021-08-09T09:17:22Z</time>
      </trkpt>
      <trkpt lat="49.22471" lon="3.81546">
        <ele>95.31</ele>
        <time>2021-08-09T09:17:25Z</time>
      </trkpt>
      <trkpt lat="49.22462" lon="3.81546">
        <ele>95.31</ele>
        <time>2021-08-09T09:17:32Z</time>
      </trkpt>
      <trkpt lat="49.22461" lon="3.81545">
        <ele>95.31</ele>
        <time>2021-08-09T09:17:33Z</time>
      </trkpt>
      <trkpt lat="49.22459" lon="3.81544">
        <ele>95.31</ele>
        <time>2021-08-09T09:17:34Z</time>
      </trkpt>
      <trkpt lat="49.22447" lon="3.8154">
        <ele>95.31</ele>
        <time>2021-08-09T09:17:40Z</time>
      </trkpt>
      <trkpt lat="49.22435" lon="3.81541">
        <ele>95.79</ele>
        <time>2021-08-09T09:17:46Z</time>
      </trkpt>
      <trkpt lat="49.22423" lon="3.81543">
        <ele>95.79</ele>
        <time>2021-08-09T09:17:52Z</time>
      </trkpt>
      <trkpt lat="49.22421" lon="3.81543">
        <ele>95.79</ele>
        <time>2021-08-09T09:17:53Z</time>
      </trkpt>
      <trkpt lat="49.22419" lon="3.81543">
        <ele>95.79</ele>
        <time>2021-08-09T09:17:54Z</time>
      </trkpt>
      <trkpt lat="49.22416" lon="3.81544">
        <ele>95.31</ele>
        <time>2021-08-09T09:17:55Z</time>
      </trkpt>
      <trkpt lat="49.22414" lon="3.81545">
        <ele>95.31</ele>
        <time>2021-08-09T09:17:56Z</time>
      </trkpt>
      <trkpt lat="49.22412" lon="3.81547">
        <ele>95.31</ele>
        <time>2021-08-09T09:17:57Z</time>
      </trkpt>
      <trkpt lat="49.2241" lon="3.81548">
        <ele>95.31</ele>
        <time>2021-08-09T09:17:58Z</time>
      </trkpt>
      <trkpt lat="49.22409" lon="3.81549">
        <ele>95.31</ele>
        <time>2021-08-09T09:17:59Z</time>
      </trkpt>
      <trkpt lat="49.22408" lon="3.8155">
        <ele>95.79</ele>
        <time>2021-08-09T09:18:00Z</time>
      </trkpt>
      <trkpt lat="49.22396" lon="3.8156">
        <ele>95.79</ele>
        <time>2021-08-09T09:18:07Z</time>
      </trkpt>
      <trkpt lat="49.22385" lon="3.81572">
        <ele>95.79</ele>
        <time>2021-08-09T09:18:13Z</time>
      </trkpt>
      <trkpt lat="49.22379" lon="3.81574">
        <ele>95.79</ele>
        <time>2021-08-09T09:18:18Z</time>
      </trkpt>
      <trkpt lat="49.22378" lon="3.81574">
        <ele>95.79</ele>
        <time>2021-08-09T09:18:19Z</time>
      </trkpt>
      <trkpt lat="49.22367" lon="3.81586">
        <ele>95.31</ele>
        <time>2021-08-09T09:18:26Z</time>
      </trkpt>
      <trkpt lat="49.22359" lon="3.816">
        <ele>95.31</ele>
        <time>2021-08-09T09:18:31Z</time>
      </trkpt>
      <trkpt lat="49.22354" lon="3.81619">
        <ele>95.31</ele>
        <time>2021-08-09T09:18:36Z</time>
      </trkpt>
      <trkpt lat="49.22353" lon="3.81622">
        <ele>95.31</ele>
        <time>2021-08-09T09:18:37Z</time>
      </trkpt>
      <trkpt lat="49.22352" lon="3.81626">
        <ele>95.31</ele>
        <time>2021-08-09T09:18:38Z</time>
      </trkpt>
      <trkpt lat="49.22353" lon="3.8163">
        <ele>95.31</ele>
        <time>2021-08-09T09:18:39Z</time>
      </trkpt>
      <trkpt lat="49.22353" lon="3.81633">
        <ele>95.31</ele>
        <time>2021-08-09T09:18:40Z</time>
      </trkpt>
      <trkpt lat="49.22354" lon="3.81636">
        <ele>95.31</ele>
        <time>2021-08-09T09:18:41Z</time>
      </trkpt>
      <trkpt lat="49.22354" lon="3.81647">
        <ele>95.31</ele>
        <time>2021-08-09T09:18:45Z</time>
      </trkpt>
      <trkpt lat="49.22355" lon="3.81649">
        <ele>95.31</ele>
        <time>2021-08-09T09:18:46Z</time>
      </trkpt>
      <trkpt lat="49.22356" lon="3.81651">
        <ele>95.31</ele>
        <time>2021-08-09T09:18:47Z</time>
      </trkpt>
      <trkpt lat="49.22357" lon="3.81652">
        <ele>95.31</ele>
        <time>2021-08-09T09:18:48Z</time>
      </trkpt>
      <trkpt lat="49.22358" lon="3.81654">
        <ele>95.31</ele>
        <time>2021-08-09T09:18:49Z</time>
      </trkpt>
      <trkpt lat="49.22358" lon="3.81657">
        <ele>95.31</ele>
        <time>2021-08-09T09:18:50Z</time>
      </trkpt>
      <trkpt lat="49.22357" lon="3.8166">
        <ele>95.31</ele>
        <time>2021-08-09T09:18:51Z</time>
      </trkpt>
      <trkpt lat="49.22357" lon="3.81666">
        <ele>95.31</ele>
        <time>2021-08-09T09:18:53Z</time>
      </trkpt>
      <trkpt lat="49.22358" lon="3.81669">
        <ele>95.31</ele>
        <time>2021-08-09T09:18:54Z</time>
      </trkpt>
      <trkpt lat="49.22359" lon="3.81672">
        <ele>95.31</ele>
        <time>2021-08-09T09:18:55Z</time>
      </trkpt>
      <trkpt lat="49.22359" lon="3.81674">
        <ele>95.31</ele>
        <time>2021-08-09T09:18:56Z</time>
      </trkpt>
      <trkpt lat="49.2236" lon="3.81678">
        <ele>95.31</ele>
        <time>2021-08-09T09:18:57Z</time>
      </trkpt>
      <trkpt lat="49.2236" lon="3.81682">
        <ele>95.31</ele>
        <time>2021-08-09T09:18:58Z</time>
      </trkpt>
      <trkpt lat="49.22361" lon="3.81685">
        <ele>95.31</ele>
        <time>2021-08-09T09:18:59Z</time>
      </trkpt>
      <trkpt lat="49.22362" lon="3.81689">
        <ele>95.31</ele>
        <time>2021-08-09T09:19:00Z</time>
      </trkpt>
      <trkpt lat="49.22366" lon="3.8171">
        <ele>95.31</ele>
        <time>2021-08-09T09:19:07Z</time>
      </trkpt>
      <trkpt lat="49.22369" lon="3.81732">
        <ele>95.31</ele>
        <time>2021-08-09T09:19:14Z</time>
      </trkpt>
      <trkpt lat="49.22369" lon="3.81738">
        <ele>95.31</ele>
        <time>2021-08-09T09:19:16Z</time>
      </trkpt>
      <trkpt lat="49.2237" lon="3.81741">
        <ele>95.31</ele>
        <time>2021-08-09T09:19:17Z</time>
      </trkpt>
      <trkpt lat="49.2237" lon="3.81744">
        <ele>95.31</ele>
        <time>2021-08-09T09:19:18Z</time>
      </trkpt>
      <trkpt lat="49.22371" lon="3.81746">
        <ele>95.31</ele>
        <time>2021-08-09T09:19:19Z</time>
      </trkpt>
      <trkpt lat="49.22371" lon="3.81749">
        <ele>95.31</ele>
        <time>2021-08-09T09:19:20Z</time>
      </trkpt>
      <trkpt lat="49.2237" lon="3.81752">
        <ele>95.31</ele>
        <time>2021-08-09T09:19:21Z</time>
      </trkpt>
      <trkpt lat="49.2237" lon="3.81755">
        <ele>95.31</ele>
        <time>2021-08-09T09:19:22Z</time>
      </trkpt>
      <trkpt lat="49.2237" lon="3.81758">
        <ele>95.31</ele>
        <time>2021-08-09T09:19:23Z</time>
      </trkpt>
      <trkpt lat="49.22371" lon="3.81761">
        <ele>96.75</ele>
        <time>2021-08-09T09:19:24Z</time>
      </trkpt>
      <trkpt lat="49.22371" lon="3.81763">
        <ele>96.75</ele>
        <time>2021-08-09T09:19:25Z</time>
      </trkpt>
      <trkpt lat="49.2237" lon="3.81765">
        <ele>97.23</ele>
        <time>2021-08-09T09:19:26Z</time>
      </trkpt>
      <trkpt lat="49.22371" lon="3.81767">
        <ele>97.23</ele>
        <time>2021-08-09T09:19:27Z</time>
      </trkpt>
      <trkpt lat="49.22371" lon="3.81769">
        <ele>97.23</ele>
        <time>2021-08-09T09:19:28Z</time>
      </trkpt>
      <trkpt lat="49.2237" lon="3.81771">
        <ele>97.71</ele>
        <time>2021-08-09T09:19:29Z</time>
      </trkpt>
      <trkpt lat="49.2237" lon="3.81773">
        <ele>97.71</ele>
        <time>2021-08-09T09:19:30Z</time>
      </trkpt>
      <trkpt lat="49.22369" lon="3.81775">
        <ele>97.71</ele>
        <time>2021-08-09T09:19:31Z</time>
      </trkpt>
      <trkpt lat="49.22368" lon="3.81777">
        <ele>97.71</ele>
        <time>2021-08-09T09:19:32Z</time>
      </trkpt>
      <trkpt lat="49.22368" lon="3.81779">
        <ele>97.71</ele>
        <time>2021-08-09T09:19:33Z</time>
      </trkpt>
      <trkpt lat="49.22368" lon="3.81781">
        <ele>97.71</ele>
        <time>2021-08-09T09:19:34Z</time>
      </trkpt>
      <trkpt lat="49.22368" lon="3.81785">
        <ele>97.71</ele>
        <time>2021-08-09T09:19:35Z</time>
      </trkpt>
      <trkpt lat="49.2237" lon="3.81788">
        <ele>96.75</ele>
        <time>2021-08-09T09:19:36Z</time>
      </trkpt>
      <trkpt lat="49.22371" lon="3.81791">
        <ele>96.75</ele>
        <time>2021-08-09T09:19:37Z</time>
      </trkpt>
      <trkpt lat="49.22372" lon="3.81793">
        <ele>96.75</ele>
        <time>2021-08-09T09:19:38Z</time>
      </trkpt>
      <trkpt lat="49.22374" lon="3.81794">
        <ele>96.75</ele>
        <time>2021-08-09T09:19:39Z</time>
      </trkpt>
      <trkpt lat="49.22375" lon="3.81796">
        <ele>96.75</ele>
        <time>2021-08-09T09:19:40Z</time>
      </trkpt>
      <trkpt lat="49.22376" lon="3.81798">
        <ele>96.75</ele>
        <time>2021-08-09T09:19:41Z</time>
      </trkpt>
      <trkpt lat="49.22377" lon="3.81799">
        <ele>96.75</ele>
        <time>2021-08-09T09:19:42Z</time>
      </trkpt>
      <trkpt lat="49.22378" lon="3.81801">
        <ele>97.71</ele>
        <time>2021-08-09T09:19:43Z</time>
      </trkpt>
      <trkpt lat="49.22379" lon="3.81802">
        <ele>97.71</ele>
        <time>2021-08-09T09:19:44Z</time>
      </trkpt>
      <trkpt lat="49.2238" lon="3.81804">
        <ele>97.71</ele>
        <time>2021-08-09T09:19:45Z</time>
      </trkpt>
      <trkpt lat="49.22382" lon="3.81806">
        <ele>97.71</ele>
        <time>2021-08-09T09:19:46Z</time>
      </trkpt>
      <trkpt lat="49.22383" lon="3.81808">
        <ele>97.71</ele>
        <time>2021-08-09T09:19:47Z</time>
      </trkpt>
      <trkpt lat="49.22384" lon="3.8181">
        <ele>97.71</ele>
        <time>2021-08-09T09:19:48Z</time>
      </trkpt>
      <trkpt lat="49.22385" lon="3.81811">
        <ele>97.71</ele>
        <time>2021-08-09T09:19:49Z</time>
      </trkpt>
      <trkpt lat="49.22386" lon="3.81813">
        <ele>97.71</ele>
        <time>2021-08-09T09:19:50Z</time>
      </trkpt>
      <trkpt lat="49.22387" lon="3.81815">
        <ele>97.71</ele>
        <time>2021-08-09T09:19:51Z</time>
      </trkpt>
      <trkpt lat="49.22388" lon="3.81817">
        <ele>98.67</ele>
        <time>2021-08-09T09:19:52Z</time>
      </trkpt>
      <trkpt lat="49.22389" lon="3.81819">
        <ele>98.67</ele>
        <time>2021-08-09T09:19:53Z</time>
      </trkpt>
      <trkpt lat="49.22392" lon="3.81828">
        <ele>99.15</ele>
        <time>2021-08-09T09:19:59Z</time>
      </trkpt>
      <trkpt lat="49.22386" lon="3.81842">
        <ele>99.15</ele>
        <time>2021-08-09T09:20:06Z</time>
      </trkpt>
      <trkpt lat="49.22382" lon="3.81846">
        <ele>99.15</ele>
        <time>2021-08-09T09:20:08Z</time>
      </trkpt>
      <trkpt lat="49.22379" lon="3.81846">
        <ele>99.15</ele>
        <time>2021-08-09T09:20:09Z</time>
      </trkpt>
      <trkpt lat="49.22377" lon="3.81846">
        <ele>99.15</ele>
        <time>2021-08-09T09:20:10Z</time>
      </trkpt>
      <trkpt lat="49.22374" lon="3.81845">
        <ele>99.15</ele>
        <time>2021-08-09T09:20:11Z</time>
      </trkpt>
      <trkpt lat="49.22373" lon="3.81844">
        <ele>99.15</ele>
        <time>2021-08-09T09:20:12Z</time>
      </trkpt>
      <trkpt lat="49.22371" lon="3.81843">
        <ele>99.15</ele>
        <time>2021-08-09T09:20:13Z</time>
      </trkpt>
      <trkpt lat="49.22362" lon="3.81851">
        <ele>99.15</ele>
        <time>2021-08-09T09:20:22Z</time>
      </trkpt>
      <trkpt lat="49.22362" lon="3.81862">
        <ele>99.15</ele>
        <time>2021-08-09T09:20:23Z</time>
      </trkpt>
      <trkpt lat="49.22352" lon="3.81913">
        <ele>99.15</ele>
        <time>2021-08-09T09:20:29Z</time>
      </trkpt>
      <trkpt lat="49.22334" lon="3.81953">
        <ele>99.15</ele>
        <time>2021-08-09T09:20:38Z</time>
      </trkpt>
      <trkpt lat="49.2233" lon="3.81956">
        <ele>99.15</ele>
        <time>2021-08-09T09:20:40Z</time>
      </trkpt>
      <trkpt lat="49.22319" lon="3.81951">
        <ele>99.15</ele>
        <time>2021-08-09T09:20:44Z</time>
      </trkpt>
      <trkpt lat="49.22315" lon="3.81948">
        <ele>97.71</ele>
        <time>2021-08-09T09:20:45Z</time>
      </trkpt>
      <trkpt lat="49.22311" lon="3.81945">
        <ele>97.71</ele>
        <time>2021-08-09T09:20:46Z</time>
      </trkpt>
      <trkpt lat="49.22296" lon="3.81931">
        <ele>97.23</ele>
        <time>2021-08-09T09:20:50Z</time>
      </trkpt>
      <trkpt lat="49.22289" lon="3.81922">
        <ele>97.23</ele>
        <time>2021-08-09T09:20:52Z</time>
      </trkpt>
      <trkpt lat="49.22285" lon="3.81918">
        <ele>97.23</ele>
        <time>2021-08-09T09:20:53Z</time>
      </trkpt>
      <trkpt lat="49.22251" lon="3.8189">
        <ele>94.83</ele>
        <time>2021-08-09T09:21:01Z</time>
      </trkpt>
      <trkpt lat="49.22247" lon="3.81886">
        <ele>94.83</ele>
        <time>2021-08-09T09:21:02Z</time>
      </trkpt>
      <trkpt lat="49.22243" lon="3.81882">
        <ele>94.83</ele>
        <time>2021-08-09T09:21:03Z</time>
      </trkpt>
      <trkpt lat="49.22231" lon="3.8187">
        <ele>94.35</ele>
        <time>2021-08-09T09:21:06Z</time>
      </trkpt>
      <trkpt lat="49.22227" lon="3.81866">
        <ele>94.35</ele>
        <time>2021-08-09T09:21:07Z</time>
      </trkpt>
      <trkpt lat="49.22222" lon="3.81862">
        <ele>94.35</ele>
        <time>2021-08-09T09:21:08Z</time>
      </trkpt>
      <trkpt lat="49.2221" lon="3.81852">
        <ele>94.35</ele>
        <time>2021-08-09T09:21:11Z</time>
      </trkpt>
      <trkpt lat="49.22207" lon="3.81848">
        <ele>94.35</ele>
        <time>2021-08-09T09:21:12Z</time>
      </trkpt>
      <trkpt lat="49.22203" lon="3.81844">
        <ele>95.79</ele>
        <time>2021-08-09T09:21:13Z</time>
      </trkpt>
      <trkpt lat="49.222" lon="3.81841">
        <ele>95.79</ele>
        <time>2021-08-09T09:21:14Z</time>
      </trkpt>
      <trkpt lat="49.22164" lon="3.81814">
        <ele>96.27</ele>
        <time>2021-08-09T09:21:24Z</time>
      </trkpt>
      <trkpt lat="49.22145" lon="3.81816">
        <ele>97.71</ele>
        <time>2021-08-09T09:21:29Z</time>
      </trkpt>
      <trkpt lat="49.22138" lon="3.81821">
        <ele>97.71</ele>
        <time>2021-08-09T09:21:31Z</time>
      </trkpt>
      <trkpt lat="49.22135" lon="3.81824">
        <ele>97.71</ele>
        <time>2021-08-09T09:21:32Z</time>
      </trkpt>
      <trkpt lat="49.22101" lon="3.81845">
        <ele>98.19</ele>
        <time>2021-08-09T09:21:41Z</time>
      </trkpt>
      <trkpt lat="49.22069" lon="3.81863">
        <ele>99.63</ele>
        <time>2021-08-09T09:21:50Z</time>
      </trkpt>
      <trkpt lat="49.22033" lon="3.8188">
        <ele>100.6</ele>
        <time>2021-08-09T09:22:02Z</time>
      </trkpt>
      <trkpt lat="49.22007" lon="3.81895">
        <ele>101.08</ele>
        <time>2021-08-09T09:22:11Z</time>
      </trkpt>
      <trkpt lat="49.21973" lon="3.81915">
        <ele>101.56</ele>
        <time>2021-08-09T09:22:22Z</time>
      </trkpt>
      <trkpt lat="49.21944" lon="3.81927">
        <ele>101.56</ele>
        <time>2021-08-09T09:22:31Z</time>
      </trkpt>
      <trkpt lat="49.21937" lon="3.81934">
        <ele>101.56</ele>
        <time>2021-08-09T09:22:34Z</time>
      </trkpt>
      <trkpt lat="49.21937" lon="3.81941">
        <ele>103</ele>
        <time>2021-08-09T09:22:36Z</time>
      </trkpt>
      <trkpt lat="49.21938" lon="3.81944">
        <ele>103</ele>
        <time>2021-08-09T09:22:37Z</time>
      </trkpt>
      <trkpt lat="49.2194" lon="3.81946">
        <ele>103</ele>
        <time>2021-08-09T09:22:38Z</time>
      </trkpt>
      <trkpt lat="49.21943" lon="3.81948">
        <ele>103</ele>
        <time>2021-08-09T09:22:39Z</time>
      </trkpt>
      <trkpt lat="49.21947" lon="3.81951">
        <ele>103</ele>
        <time>2021-08-09T09:22:40Z</time>
      </trkpt>
      <trkpt lat="49.21966" lon="3.81965">
        <ele>101.56</ele>
        <time>2021-08-09T09:22:45Z</time>
      </trkpt>
      <trkpt lat="49.2198" lon="3.81979">
        <ele>100.6</ele>
        <time>2021-08-09T09:22:48Z</time>
      </trkpt>
      <trkpt lat="49.21984" lon="3.81985">
        <ele>100.6</ele>
        <time>2021-08-09T09:22:49Z</time>
      </trkpt>
      <trkpt lat="49.21988" lon="3.81992">
        <ele>100.11</ele>
        <time>2021-08-09T09:22:50Z</time>
      </trkpt>
      <trkpt lat="49.21995" lon="3.82008">
        <ele>99.63</ele>
        <time>2021-08-09T09:22:52Z</time>
      </trkpt>
      <trkpt lat="49.22001" lon="3.82024">
        <ele>99.63</ele>
        <time>2021-08-09T09:22:54Z</time>
      </trkpt>
      <trkpt lat="49.22022" lon="3.82103">
        <ele>99.15</ele>
        <time>2021-08-09T09:23:03Z</time>
      </trkpt>
      <trkpt lat="49.22039" lon="3.82175">
        <ele>98.67</ele>
        <time>2021-08-09T09:23:11Z</time>
      </trkpt>
      <trkpt lat="49.2204" lon="3.82185">
        <ele>98.67</ele>
        <time>2021-08-09T09:23:12Z</time>
      </trkpt>
      <trkpt lat="49.2204" lon="3.82194">
        <ele>98.67</ele>
        <time>2021-08-09T09:23:13Z</time>
      </trkpt>
      <trkpt lat="49.22033" lon="3.82271">
        <ele>97.71</ele>
        <time>2021-08-09T09:23:21Z</time>
      </trkpt>
      <trkpt lat="49.22025" lon="3.8236">
        <ele>97.71</ele>
        <time>2021-08-09T09:23:31Z</time>
      </trkpt>
      <trkpt lat="49.22023" lon="3.82375">
        <ele>97.71</ele>
        <time>2021-08-09T09:23:33Z</time>
      </trkpt>
      <trkpt lat="49.22021" lon="3.82381">
        <ele>97.71</ele>
        <time>2021-08-09T09:23:34Z</time>
      </trkpt>
      <trkpt lat="49.22017" lon="3.82385">
        <ele>97.71</ele>
        <time>2021-08-09T09:23:35Z</time>
      </trkpt>
      <trkpt lat="49.22013" lon="3.82387">
        <ele>97.71</ele>
        <time>2021-08-09T09:23:36Z</time>
      </trkpt>
      <trkpt lat="49.22008" lon="3.82386">
        <ele>97.71</ele>
        <time>2021-08-09T09:23:37Z</time>
      </trkpt>
      <trkpt lat="49.22004" lon="3.82385">
        <ele>97.71</ele>
        <time>2021-08-09T09:23:38Z</time>
      </trkpt>
      <trkpt lat="49.21963" lon="3.82379">
        <ele>97.23</ele>
        <time>2021-08-09T09:23:47Z</time>
      </trkpt>
      <trkpt lat="49.21911" lon="3.82382">
        <ele>96.75</ele>
        <time>2021-08-09T09:23:57Z</time>
      </trkpt>
      <trkpt lat="49.21864" lon="3.82385">
        <ele>96.75</ele>
        <time>2021-08-09T09:24:06Z</time>
      </trkpt>
      <trkpt lat="49.21821" lon="3.82385">
        <ele>98.19</ele>
        <time>2021-08-09T09:24:15Z</time>
      </trkpt>
      <trkpt lat="49.21816" lon="3.82387">
        <ele>98.19</ele>
        <time>2021-08-09T09:24:16Z</time>
      </trkpt>
      <trkpt lat="49.21812" lon="3.82389">
        <ele>98.19</ele>
        <time>2021-08-09T09:24:17Z</time>
      </trkpt>
      <trkpt lat="49.21808" lon="3.82392">
        <ele>98.67</ele>
        <time>2021-08-09T09:24:18Z</time>
      </trkpt>
      <trkpt lat="49.21805" lon="3.82394">
        <ele>98.67</ele>
        <time>2021-08-09T09:24:19Z</time>
      </trkpt>
      <trkpt lat="49.21801" lon="3.82396">
        <ele>98.67</ele>
        <time>2021-08-09T09:24:20Z</time>
      </trkpt>
      <trkpt lat="49.21774" lon="3.82409">
        <ele>97.23</ele>
        <time>2021-08-09T09:24:27Z</time>
      </trkpt>
      <trkpt lat="49.21759" lon="3.82417">
        <ele>97.23</ele>
        <time>2021-08-09T09:24:31Z</time>
      </trkpt>
      <trkpt lat="49.21755" lon="3.8242">
        <ele>97.23</ele>
        <time>2021-08-09T09:24:32Z</time>
      </trkpt>
      <trkpt lat="49.21734" lon="3.82431">
        <ele>97.23</ele>
        <time>2021-08-09T09:24:37Z</time>
      </trkpt>
      <trkpt lat="49.21706" lon="3.82448">
        <ele>97.23</ele>
        <time>2021-08-09T09:24:44Z</time>
      </trkpt>
      <trkpt lat="49.21683" lon="3.82463">
        <ele>97.23</ele>
        <time>2021-08-09T09:24:50Z</time>
      </trkpt>
      <trkpt lat="49.21658" lon="3.82478">
        <ele>97.23</ele>
        <time>2021-08-09T09:24:57Z</time>
      </trkpt>
      <trkpt lat="49.21654" lon="3.82484">
        <ele>97.23</ele>
        <time>2021-08-09T09:25:02Z</time>
      </trkpt>
      <trkpt lat="49.2165" lon="3.82487">
        <ele>97.23</ele>
        <time>2021-08-09T09:25:10Z</time>
      </trkpt>
      <trkpt lat="49.21647" lon="3.82489">
        <ele>97.23</ele>
        <time>2021-08-09T09:25:19Z</time>
      </trkpt>
      <trkpt lat="49.21645" lon="3.82492">
        <ele>97.23</ele>
        <time>2021-08-09T09:25:27Z</time>
      </trkpt>
      <trkpt lat="49.21643" lon="3.82492">
        <ele>97.23</ele>
        <time>2021-08-09T09:25:38Z</time>
      </trkpt>
      <trkpt lat="49.21641" lon="3.82493">
        <ele>97.23</ele>
        <time>2021-08-09T09:25:40Z</time>
      </trkpt>
      <trkpt lat="49.2164" lon="3.82494">
        <ele>97.23</ele>
        <time>2021-08-09T09:25:41Z</time>
      </trkpt>
      <trkpt lat="49.21638" lon="3.82495">
        <ele>97.23</ele>
        <time>2021-08-09T09:25:42Z</time>
      </trkpt>
      <trkpt lat="49.21636" lon="3.82497">
        <ele>97.23</ele>
        <time>2021-08-09T09:25:43Z</time>
      </trkpt>
      <trkpt lat="49.21635" lon="3.82499">
        <ele>97.23</ele>
        <time>2021-08-09T09:25:44Z</time>
      </trkpt>
      <trkpt lat="49.21633" lon="3.82501">
        <ele>97.23</ele>
        <time>2021-08-09T09:25:45Z</time>
      </trkpt>
      <trkpt lat="49.21631" lon="3.82503">
        <ele>97.23</ele>
        <time>2021-08-09T09:25:46Z</time>
      </trkpt>
      <trkpt lat="49.2162" lon="3.8251">
        <ele>97.23</ele>
        <time>2021-08-09T09:25:52Z</time>
      </trkpt>
      <trkpt lat="49.21614" lon="3.82512">
        <ele>97.23</ele>
        <time>2021-08-09T09:25:58Z</time>
      </trkpt>
      <trkpt lat="49.21609" lon="3.82516">
        <ele>97.23</ele>
        <time>2021-08-09T09:26:07Z</time>
      </trkpt>
      <trkpt lat="49.21606" lon="3.82518">
        <ele>97.23</ele>
        <time>2021-08-09T09:26:09Z</time>
      </trkpt>
      <trkpt lat="49.216" lon="3.82521">
        <ele>97.23</ele>
        <time>2021-08-09T09:26:17Z</time>
      </trkpt>
      <trkpt lat="49.21598" lon="3.82522">
        <ele>98.67</ele>
        <time>2021-08-09T09:26:28Z</time>
      </trkpt>
      <trkpt lat="49.21595" lon="3.82526">
        <ele>98.67</ele>
        <time>2021-08-09T09:26:36Z</time>
      </trkpt>
      <trkpt lat="49.21594" lon="3.82527">
        <ele>98.67</ele>
        <time>2021-08-09T09:26:37Z</time>
      </trkpt>
      <trkpt lat="49.21593" lon="3.82528">
        <ele>98.67</ele>
        <time>2021-08-09T09:26:38Z</time>
      </trkpt>
      <trkpt lat="49.21586" lon="3.82533">
        <ele>98.67</ele>
        <time>2021-08-09T09:26:45Z</time>
      </trkpt>
      <trkpt lat="49.21582" lon="3.82534">
        <ele>98.67</ele>
        <time>2021-08-09T09:26:51Z</time>
      </trkpt>
      <trkpt lat="49.21578" lon="3.82537">
        <ele>98.67</ele>
        <time>2021-08-09T09:27:00Z</time>
      </trkpt>
      <trkpt lat="49.21577" lon="3.82538">
        <ele>98.67</ele>
        <time>2021-08-09T09:27:12Z</time>
      </trkpt>
      <trkpt lat="49.21579" lon="3.82536">
        <ele>98.67</ele>
        <time>2021-08-09T09:27:23Z</time>
      </trkpt>
      <trkpt lat="49.21576" lon="3.82537">
        <ele>98.67</ele>
        <time>2021-08-09T09:27:31Z</time>
      </trkpt>
      <trkpt lat="49.21573" lon="3.82541">
        <ele>98.67</ele>
        <time>2021-08-09T09:27:39Z</time>
      </trkpt>
      <trkpt lat="49.21572" lon="3.82542">
        <ele>98.67</ele>
        <time>2021-08-09T09:27:40Z</time>
      </trkpt>
      <trkpt lat="49.21566" lon="3.82549">
        <ele>98.67</ele>
        <time>2021-08-09T09:27:45Z</time>
      </trkpt>
      <trkpt lat="49.21566" lon="3.82553">
        <ele>98.67</ele>
        <time>2021-08-09T09:27:47Z</time>
      </trkpt>
      <trkpt lat="49.21564" lon="3.82565">
        <ele>98.67</ele>
        <time>2021-08-09T09:27:52Z</time>
      </trkpt>
      <trkpt lat="49.2156" lon="3.82566">
        <ele>98.67</ele>
        <time>2021-08-09T09:27:54Z</time>
      </trkpt>
      <trkpt lat="49.21549" lon="3.82572">
        <ele>98.67</ele>
        <time>2021-08-09T09:28:00Z</time>
      </trkpt>
      <trkpt lat="49.21547" lon="3.82572">
        <ele>98.67</ele>
        <time>2021-08-09T09:28:01Z</time>
      </trkpt>
      <trkpt lat="49.21541" lon="3.82571">
        <ele>98.67</ele>
        <time>2021-08-09T09:28:05Z</time>
      </trkpt>
      <trkpt lat="49.21528" lon="3.82579">
        <ele>98.67</ele>
        <time>2021-08-09T09:28:12Z</time>
      </trkpt>
      <trkpt lat="49.21515" lon="3.8259">
        <ele>98.67</ele>
        <time>2021-08-09T09:28:19Z</time>
      </trkpt>
      <trkpt lat="49.21496" lon="3.82602">
        <ele>98.67</ele>
        <time>2021-08-09T09:28:27Z</time>
      </trkpt>
      <trkpt lat="49.21475" lon="3.82616">
        <ele>98.67</ele>
        <time>2021-08-09T09:28:36Z</time>
      </trkpt>
      <trkpt lat="49.21463" lon="3.82629">
        <ele>98.67</ele>
        <time>2021-08-09T09:28:43Z</time>
      </trkpt>
      <trkpt lat="49.21448" lon="3.82639">
        <ele>99.15</ele>
        <time>2021-08-09T09:28:50Z</time>
      </trkpt>
      <trkpt lat="49.21437" lon="3.82641">
        <ele>99.15</ele>
        <time>2021-08-09T09:28:56Z</time>
      </trkpt>
      <trkpt lat="49.21424" lon="3.8265">
        <ele>99.15</ele>
        <time>2021-08-09T09:29:03Z</time>
      </trkpt>
      <trkpt lat="49.21421" lon="3.8265">
        <ele>99.15</ele>
        <time>2021-08-09T09:29:04Z</time>
      </trkpt>
      <trkpt lat="49.21419" lon="3.82651">
        <ele>99.15</ele>
        <time>2021-08-09T09:29:05Z</time>
      </trkpt>
      <trkpt lat="49.21418" lon="3.82652">
        <ele>99.15</ele>
        <time>2021-08-09T09:29:06Z</time>
      </trkpt>
      <trkpt lat="49.21416" lon="3.82653">
        <ele>99.15</ele>
        <time>2021-08-09T09:29:07Z</time>
      </trkpt>
      <trkpt lat="49.21414" lon="3.82654">
        <ele>99.15</ele>
        <time>2021-08-09T09:29:08Z</time>
      </trkpt>
      <trkpt lat="49.21412" lon="3.82656">
        <ele>99.15</ele>
        <time>2021-08-09T09:29:09Z</time>
      </trkpt>
      <trkpt lat="49.2141" lon="3.82658">
        <ele>99.63</ele>
        <time>2021-08-09T09:29:10Z</time>
      </trkpt>
      <trkpt lat="49.21408" lon="3.8266">
        <ele>99.63</ele>
        <time>2021-08-09T09:29:11Z</time>
      </trkpt>
      <trkpt lat="49.21406" lon="3.82662">
        <ele>99.63</ele>
        <time>2021-08-09T09:29:12Z</time>
      </trkpt>
      <trkpt lat="49.21405" lon="3.82664">
        <ele>99.63</ele>
        <time>2021-08-09T09:29:13Z</time>
      </trkpt>
      <trkpt lat="49.21393" lon="3.82671">
        <ele>99.63</ele>
        <time>2021-08-09T09:29:20Z</time>
      </trkpt>
      <trkpt lat="49.21391" lon="3.82672">
        <ele>99.63</ele>
        <time>2021-08-09T09:29:21Z</time>
      </trkpt>
      <trkpt lat="49.21389" lon="3.82673">
        <ele>99.63</ele>
        <time>2021-08-09T09:29:22Z</time>
      </trkpt>
      <trkpt lat="49.21387" lon="3.82674">
        <ele>99.63</ele>
        <time>2021-08-09T09:29:23Z</time>
      </trkpt>
      <trkpt lat="49.21385" lon="3.82676">
        <ele>99.63</ele>
        <time>2021-08-09T09:29:24Z</time>
      </trkpt>
      <trkpt lat="49.21383" lon="3.82677">
        <ele>99.63</ele>
        <time>2021-08-09T09:29:25Z</time>
      </trkpt>
      <trkpt lat="49.21382" lon="3.82679">
        <ele>99.63</ele>
        <time>2021-08-09T09:29:26Z</time>
      </trkpt>
      <trkpt lat="49.2136" lon="3.82694">
        <ele>99.63</ele>
        <time>2021-08-09T09:29:36Z</time>
      </trkpt>
      <trkpt lat="49.21343" lon="3.82705">
        <ele>99.63</ele>
        <time>2021-08-09T09:29:44Z</time>
      </trkpt>
      <trkpt lat="49.21323" lon="3.82718">
        <ele>99.63</ele>
        <time>2021-08-09T09:29:53Z</time>
      </trkpt>
      <trkpt lat="49.21304" lon="3.82729">
        <ele>100.11</ele>
        <time>2021-08-09T09:30:02Z</time>
      </trkpt>
      <trkpt lat="49.21288" lon="3.8274">
        <ele>100.11</ele>
        <time>2021-08-09T09:30:09Z</time>
      </trkpt>
      <trkpt lat="49.2127" lon="3.82754">
        <ele>100.11</ele>
        <time>2021-08-09T09:30:17Z</time>
      </trkpt>
      <trkpt lat="49.21253" lon="3.82768">
        <ele>100.6</ele>
        <time>2021-08-09T09:30:25Z</time>
      </trkpt>
      <trkpt lat="49.21236" lon="3.82783">
        <ele>100.11</ele>
        <time>2021-08-09T09:30:33Z</time>
      </trkpt>
      <trkpt lat="49.21234" lon="3.82784">
        <ele>100.11</ele>
        <time>2021-08-09T09:30:34Z</time>
      </trkpt>
      <trkpt lat="49.21232" lon="3.82784">
        <ele>100.11</ele>
        <time>2021-08-09T09:30:35Z</time>
      </trkpt>
      <trkpt lat="49.2123" lon="3.82785">
        <ele>100.11</ele>
        <time>2021-08-09T09:30:36Z</time>
      </trkpt>
      <trkpt lat="49.21229" lon="3.82787">
        <ele>100.11</ele>
        <time>2021-08-09T09:30:37Z</time>
      </trkpt>
      <trkpt lat="49.21227" lon="3.82789">
        <ele>100.11</ele>
        <time>2021-08-09T09:30:38Z</time>
      </trkpt>
      <trkpt lat="49.21227" lon="3.82791">
        <ele>100.11</ele>
        <time>2021-08-09T09:30:39Z</time>
      </trkpt>
      <trkpt lat="49.21226" lon="3.82793">
        <ele>100.11</ele>
        <time>2021-08-09T09:30:40Z</time>
      </trkpt>
      <trkpt lat="49.21226" lon="3.82795">
        <ele>100.11</ele>
        <time>2021-08-09T09:30:41Z</time>
      </trkpt>
      <trkpt lat="49.21225" lon="3.82796">
        <ele>100.11</ele>
        <time>2021-08-09T09:30:42Z</time>
      </trkpt>
      <trkpt lat="49.21223" lon="3.82797">
        <ele>100.11</ele>
        <time>2021-08-09T09:30:43Z</time>
      </trkpt>
      <trkpt lat="49.21222" lon="3.82797">
        <ele>100.11</ele>
        <time>2021-08-09T09:30:44Z</time>
      </trkpt>
      <trkpt lat="49.2122" lon="3.82796">
        <ele>100.11</ele>
        <time>2021-08-09T09:30:45Z</time>
      </trkpt>
      <trkpt lat="49.21219" lon="3.82795">
        <ele>100.11</ele>
        <time>2021-08-09T09:30:46Z</time>
      </trkpt>
      <trkpt lat="49.21218" lon="3.82796">
        <ele>100.11</ele>
        <time>2021-08-09T09:30:47Z</time>
      </trkpt>
      <trkpt lat="49.21216" lon="3.82796">
        <ele>100.11</ele>
        <time>2021-08-09T09:30:48Z</time>
      </trkpt>
      <trkpt lat="49.21215" lon="3.82797">
        <ele>100.11</ele>
        <time>2021-08-09T09:30:49Z</time>
      </trkpt>
      <trkpt lat="49.21213" lon="3.82798">
        <ele>100.11</ele>
        <time>2021-08-09T09:30:50Z</time>
      </trkpt>
      <trkpt lat="49.21211" lon="3.82799">
        <ele>100.11</ele>
        <time>2021-08-09T09:30:51Z</time>
      </trkpt>
      <trkpt lat="49.2121" lon="3.828">
        <ele>100.6</ele>
        <time>2021-08-09T09:30:52Z</time>
      </trkpt>
      <trkpt lat="49.21208" lon="3.82801">
        <ele>100.6</ele>
        <time>2021-08-09T09:30:53Z</time>
      </trkpt>
      <trkpt lat="49.21188" lon="3.82815">
        <ele>100.6</ele>
        <time>2021-08-09T09:31:03Z</time>
      </trkpt>
      <trkpt lat="49.21178" lon="3.82822">
        <ele>101.08</ele>
        <time>2021-08-09T09:31:09Z</time>
      </trkpt>
      <trkpt lat="49.21178" lon="3.82831">
        <ele>100.6</ele>
        <time>2021-08-09T09:31:13Z</time>
      </trkpt>
      <trkpt lat="49.21171" lon="3.82839">
        <ele>101.08</ele>
        <time>2021-08-09T09:31:19Z</time>
      </trkpt>
      <trkpt lat="49.21167" lon="3.82829">
        <ele>100.6</ele>
        <time>2021-08-09T09:31:24Z</time>
      </trkpt>
      <trkpt lat="49.21161" lon="3.82833">
        <ele>101.08</ele>
        <time>2021-08-09T09:31:29Z</time>
      </trkpt>
      <trkpt lat="49.21157" lon="3.82835">
        <ele>101.08</ele>
        <time>2021-08-09T09:31:32Z</time>
      </trkpt>
      <trkpt lat="49.21152" lon="3.82839">
        <ele>101.56</ele>
        <time>2021-08-09T09:31:35Z</time>
      </trkpt>
      <trkpt lat="49.21152" lon="3.82849">
        <ele>101.56</ele>
        <time>2021-08-09T09:31:39Z</time>
      </trkpt>
      <trkpt lat="49.21154" lon="3.82852">
        <ele>101.56</ele>
        <time>2021-08-09T09:31:40Z</time>
      </trkpt>
      <trkpt lat="49.21155" lon="3.82853">
        <ele>101.56</ele>
        <time>2021-08-09T09:31:41Z</time>
      </trkpt>
      <trkpt lat="49.21156" lon="3.82856">
        <ele>101.56</ele>
        <time>2021-08-09T09:31:42Z</time>
      </trkpt>
      <trkpt lat="49.21158" lon="3.82859">
        <ele>101.56</ele>
        <time>2021-08-09T09:31:43Z</time>
      </trkpt>
      <trkpt lat="49.21174" lon="3.82888">
        <ele>102.04</ele>
        <time>2021-08-09T09:31:53Z</time>
      </trkpt>
      <trkpt lat="49.21185" lon="3.8291">
        <ele>103.48</ele>
        <time>2021-08-09T09:32:01Z</time>
      </trkpt>
      <trkpt lat="49.21198" lon="3.82928">
        <ele>103.96</ele>
        <time>2021-08-09T09:32:08Z</time>
      </trkpt>
      <trkpt lat="49.21208" lon="3.82946">
        <ele>104.92</ele>
        <time>2021-08-09T09:32:16Z</time>
      </trkpt>
      <trkpt lat="49.21216" lon="3.82958">
        <ele>106.36</ele>
        <time>2021-08-09T09:32:24Z</time>
      </trkpt>
      <trkpt lat="49.21223" lon="3.82971">
        <ele>107.32</ele>
        <time>2021-08-09T09:32:33Z</time>
      </trkpt>
      <trkpt lat="49.21229" lon="3.82984">
        <ele>108.29</ele>
        <time>2021-08-09T09:32:42Z</time>
      </trkpt>
      <trkpt lat="49.2123" lon="3.82986">
        <ele>108.77</ele>
        <time>2021-08-09T09:32:43Z</time>
      </trkpt>
      <trkpt lat="49.21231" lon="3.82987">
        <ele>108.77</ele>
        <time>2021-08-09T09:32:44Z</time>
      </trkpt>
      <trkpt lat="49.21231" lon="3.82989">
        <ele>108.77</ele>
        <time>2021-08-09T09:32:45Z</time>
      </trkpt>
      <trkpt lat="49.21232" lon="3.8299">
        <ele>108.77</ele>
        <time>2021-08-09T09:32:46Z</time>
      </trkpt>
      <trkpt lat="49.21233" lon="3.82991">
        <ele>108.77</ele>
        <time>2021-08-09T09:32:47Z</time>
      </trkpt>
      <trkpt lat="49.21234" lon="3.82992">
        <ele>109.73</ele>
        <time>2021-08-09T09:32:48Z</time>
      </trkpt>
      <trkpt lat="49.21234" lon="3.82994">
        <ele>109.73</ele>
        <time>2021-08-09T09:32:49Z</time>
      </trkpt>
      <trkpt lat="49.21237" lon="3.82998">
        <ele>110.21</ele>
        <time>2021-08-09T09:32:52Z</time>
      </trkpt>
      <trkpt lat="49.21238" lon="3.82999">
        <ele>110.21</ele>
        <time>2021-08-09T09:32:53Z</time>
      </trkpt>
      <trkpt lat="49.21244" lon="3.83008">
        <ele>111.17</ele>
        <time>2021-08-09T09:33:00Z</time>
      </trkpt>
      <trkpt lat="49.21244" lon="3.8301">
        <ele>111.17</ele>
        <time>2021-08-09T09:33:01Z</time>
      </trkpt>
      <trkpt lat="49.21245" lon="3.83011">
        <ele>111.17</ele>
        <time>2021-08-09T09:33:02Z</time>
      </trkpt>
      <trkpt lat="49.21252" lon="3.83023">
        <ele>112.13</ele>
        <time>2021-08-09T09:33:11Z</time>
      </trkpt>
      <trkpt lat="49.21259" lon="3.83036">
        <ele>113.09</ele>
        <time>2021-08-09T09:33:20Z</time>
      </trkpt>
      <trkpt lat="49.21264" lon="3.83043">
        <ele>114.05</ele>
        <time>2021-08-09T09:33:26Z</time>
      </trkpt>
      <trkpt lat="49.21271" lon="3.83058">
        <ele>115.01</ele>
        <time>2021-08-09T09:33:36Z</time>
      </trkpt>
      <trkpt lat="49.21272" lon="3.8306">
        <ele>115.01</ele>
        <time>2021-08-09T09:33:37Z</time>
      </trkpt>
      <trkpt lat="49.21273" lon="3.83061">
        <ele>115.01</ele>
        <time>2021-08-09T09:33:38Z</time>
      </trkpt>
      <trkpt lat="49.21279" lon="3.83078">
        <ele>116.94</ele>
        <time>2021-08-09T09:33:48Z</time>
      </trkpt>
      <trkpt lat="49.21279" lon="3.8308">
        <ele>116.94</ele>
        <time>2021-08-09T09:33:49Z</time>
      </trkpt>
      <trkpt lat="49.2128" lon="3.83082">
        <ele>116.94</ele>
        <time>2021-08-09T09:33:50Z</time>
      </trkpt>
      <trkpt lat="49.21287" lon="3.83097">
        <ele>117.9</ele>
        <time>2021-08-09T09:33:59Z</time>
      </trkpt>
      <trkpt lat="49.2129" lon="3.83103">
        <ele>118.38</ele>
        <time>2021-08-09T09:34:03Z</time>
      </trkpt>
      <trkpt lat="49.21291" lon="3.83105">
        <ele>118.38</ele>
        <time>2021-08-09T09:34:04Z</time>
      </trkpt>
      <trkpt lat="49.21292" lon="3.83107">
        <ele>118.38</ele>
        <time>2021-08-09T09:34:05Z</time>
      </trkpt>
      <trkpt lat="49.21292" lon="3.8311">
        <ele>119.34</ele>
        <time>2021-08-09T09:34:06Z</time>
      </trkpt>
      <trkpt lat="49.21293" lon="3.83111">
        <ele>118.86</ele>
        <time>2021-08-09T09:34:07Z</time>
      </trkpt>
      <trkpt lat="49.21302" lon="3.83136">
        <ele>119.82</ele>
        <time>2021-08-09T09:34:19Z</time>
      </trkpt>
      <trkpt lat="49.21309" lon="3.83156">
        <ele>120.78</ele>
        <time>2021-08-09T09:34:29Z</time>
      </trkpt>
      <trkpt lat="49.21316" lon="3.83178">
        <ele>122.22</ele>
        <time>2021-08-09T09:34:40Z</time>
      </trkpt>
      <trkpt lat="49.21324" lon="3.83198">
        <ele>123.19</ele>
        <time>2021-08-09T09:34:50Z</time>
      </trkpt>
      <trkpt lat="49.21329" lon="3.83214">
        <ele>123.67</ele>
        <time>2021-08-09T09:34:58Z</time>
      </trkpt>
      <trkpt lat="49.21332" lon="3.83225">
        <ele>124.63</ele>
        <time>2021-08-09T09:35:03Z</time>
      </trkpt>
      <trkpt lat="49.21333" lon="3.83226">
        <ele>124.63</ele>
        <time>2021-08-09T09:35:04Z</time>
      </trkpt>
      <trkpt lat="49.21334" lon="3.83228">
        <ele>124.63</ele>
        <time>2021-08-09T09:35:05Z</time>
      </trkpt>
      <trkpt lat="49.21334" lon="3.8323">
        <ele>125.11</ele>
        <time>2021-08-09T09:35:06Z</time>
      </trkpt>
      <trkpt lat="49.21335" lon="3.83233">
        <ele>125.11</ele>
        <time>2021-08-09T09:35:07Z</time>
      </trkpt>
      <trkpt lat="49.21342" lon="3.83256">
        <ele>126.55</ele>
        <time>2021-08-09T09:35:18Z</time>
      </trkpt>
      <trkpt lat="49.21349" lon="3.83273">
        <ele>127.51</ele>
        <time>2021-08-09T09:35:27Z</time>
      </trkpt>
      <trkpt lat="49.21356" lon="3.83288">
        <ele>128.47</ele>
        <time>2021-08-09T09:35:35Z</time>
      </trkpt>
      <trkpt lat="49.21363" lon="3.83303">
        <ele>129.43</ele>
        <time>2021-08-09T09:35:43Z</time>
      </trkpt>
      <trkpt lat="49.21373" lon="3.83323">
        <ele>130.4</ele>
        <time>2021-08-09T09:35:53Z</time>
      </trkpt>
      <trkpt lat="49.21386" lon="3.83348">
        <ele>131.36</ele>
        <time>2021-08-09T09:36:03Z</time>
      </trkpt>
      <trkpt lat="49.21397" lon="3.83372">
        <ele>132.32</ele>
        <time>2021-08-09T09:36:12Z</time>
      </trkpt>
      <trkpt lat="49.21408" lon="3.83394">
        <ele>132.8</ele>
        <time>2021-08-09T09:36:21Z</time>
      </trkpt>
      <trkpt lat="49.21416" lon="3.8341">
        <ele>134.24</ele>
        <time>2021-08-09T09:36:28Z</time>
      </trkpt>
      <trkpt lat="49.21423" lon="3.83425">
        <ele>135.2</ele>
        <time>2021-08-09T09:36:35Z</time>
      </trkpt>
      <trkpt lat="49.2143" lon="3.8344">
        <ele>136.64</ele>
        <time>2021-08-09T09:36:43Z</time>
      </trkpt>
      <trkpt lat="49.21437" lon="3.83454">
        <ele>137.61</ele>
        <time>2021-08-09T09:36:52Z</time>
      </trkpt>
      <trkpt lat="49.21447" lon="3.83469">
        <ele>139.05</ele>
        <time>2021-08-09T09:37:02Z</time>
      </trkpt>
      <trkpt lat="49.21458" lon="3.83483">
        <ele>140.49</ele>
        <time>2021-08-09T09:37:12Z</time>
      </trkpt>
      <trkpt lat="49.21467" lon="3.8349">
        <ele>141.45</ele>
        <time>2021-08-09T09:37:20Z</time>
      </trkpt>
      <trkpt lat="49.21468" lon="3.83491">
        <ele>141.45</ele>
        <time>2021-08-09T09:37:21Z</time>
      </trkpt>
      <trkpt lat="49.21469" lon="3.83491">
        <ele>141.45</ele>
        <time>2021-08-09T09:37:22Z</time>
      </trkpt>
      <trkpt lat="49.2147" lon="3.83491">
        <ele>141.45</ele>
        <time>2021-08-09T09:37:23Z</time>
      </trkpt>
      <trkpt lat="49.21471" lon="3.83491">
        <ele>141.93</ele>
        <time>2021-08-09T09:37:24Z</time>
      </trkpt>
      <trkpt lat="49.21473" lon="3.83491">
        <ele>141.93</ele>
        <time>2021-08-09T09:37:25Z</time>
      </trkpt>
      <trkpt lat="49.21474" lon="3.83491">
        <ele>141.93</ele>
        <time>2021-08-09T09:37:26Z</time>
      </trkpt>
      <trkpt lat="49.21475" lon="3.83492">
        <ele>141.93</ele>
        <time>2021-08-09T09:37:27Z</time>
      </trkpt>
      <trkpt lat="49.2148" lon="3.83495">
        <ele>142.41</ele>
        <time>2021-08-09T09:37:31Z</time>
      </trkpt>
      <trkpt lat="49.21481" lon="3.83495">
        <ele>142.41</ele>
        <time>2021-08-09T09:37:32Z</time>
      </trkpt>
      <trkpt lat="49.21483" lon="3.83495">
        <ele>142.89</ele>
        <time>2021-08-09T09:37:33Z</time>
      </trkpt>
      <trkpt lat="49.21494" lon="3.835">
        <ele>143.37</ele>
        <time>2021-08-09T09:37:41Z</time>
      </trkpt>
      <trkpt lat="49.21508" lon="3.83508">
        <ele>145.3</ele>
        <time>2021-08-09T09:37:51Z</time>
      </trkpt>
      <trkpt lat="49.2152" lon="3.83512">
        <ele>146.26</ele>
        <time>2021-08-09T09:37:59Z</time>
      </trkpt>
      <trkpt lat="49.21535" lon="3.83518">
        <ele>148.18</ele>
        <time>2021-08-09T09:38:08Z</time>
      </trkpt>
      <trkpt lat="49.21555" lon="3.83526">
        <ele>149.62</ele>
        <time>2021-08-09T09:38:20Z</time>
      </trkpt>
      <trkpt lat="49.21572" lon="3.83534">
        <ele>150.58</ele>
        <time>2021-08-09T09:38:30Z</time>
      </trkpt>
      <trkpt lat="49.21581" lon="3.83539">
        <ele>151.06</ele>
        <time>2021-08-09T09:38:37Z</time>
      </trkpt>
      <trkpt lat="49.21581" lon="3.83539">
        <ele>151.06</ele>
        <time>2021-08-09T09:38:44Z</time>
      </trkpt>
      <trkpt lat="49.21581" lon="3.8354">
        <ele>151.54</ele>
        <time>2021-08-09T09:39:00Z</time>
      </trkpt>
      <trkpt lat="49.21581" lon="3.83541">
        <ele>151.54</ele>
        <time>2021-08-09T09:39:11Z</time>
      </trkpt>
      <trkpt lat="49.21581" lon="3.8354">
        <ele>151.54</ele>
        <time>2021-08-09T09:39:25Z</time>
      </trkpt>
      <trkpt lat="49.21581" lon="3.8354">
        <ele>151.54</ele>
        <time>2021-08-09T09:39:46Z</time>
      </trkpt>
      <trkpt lat="49.21582" lon="3.8354">
        <ele>151.54</ele>
        <time>2021-08-09T09:40:02Z</time>
      </trkpt>
      <trkpt lat="49.21584" lon="3.83541">
        <ele>151.54</ele>
        <time>2021-08-09T09:40:13Z</time>
      </trkpt>
      <trkpt lat="49.21585" lon="3.83542">
        <ele>151.54</ele>
        <time>2021-08-09T09:40:14Z</time>
      </trkpt>
      <trkpt lat="49.21586" lon="3.83543">
        <ele>151.54</ele>
        <time>2021-08-09T09:40:15Z</time>
      </trkpt>
      <trkpt lat="49.21588" lon="3.83543">
        <ele>151.54</ele>
        <time>2021-08-09T09:40:16Z</time>
      </trkpt>
      <trkpt lat="49.2159" lon="3.83545">
        <ele>151.54</ele>
        <time>2021-08-09T09:40:17Z</time>
      </trkpt>
      <trkpt lat="49.21604" lon="3.83557">
        <ele>151.54</ele>
        <time>2021-08-09T09:40:25Z</time>
      </trkpt>
      <trkpt lat="49.21619" lon="3.83572">
        <ele>149.62</ele>
        <time>2021-08-09T09:40:32Z</time>
      </trkpt>
      <trkpt lat="49.21638" lon="3.83592">
        <ele>148.66</ele>
        <time>2021-08-09T09:40:39Z</time>
      </trkpt>
      <trkpt lat="49.21648" lon="3.83604">
        <ele>147.7</ele>
        <time>2021-08-09T09:40:44Z</time>
      </trkpt>
      <trkpt lat="49.21664" lon="3.83621">
        <ele>147.22</ele>
        <time>2021-08-09T09:40:49Z</time>
      </trkpt>
      <trkpt lat="49.2169" lon="3.8365">
        <ele>144.82</ele>
        <time>2021-08-09T09:40:55Z</time>
      </trkpt>
      <trkpt lat="49.21717" lon="3.83682">
        <ele>141.93</ele>
        <time>2021-08-09T09:41:00Z</time>
      </trkpt>
      <trkpt lat="49.21765" lon="3.83738">
        <ele>139.05</ele>
        <time>2021-08-09T09:41:08Z</time>
      </trkpt>
      <trkpt lat="49.21806" lon="3.83787">
        <ele>135.68</ele>
        <time>2021-08-09T09:41:14Z</time>
      </trkpt>
      <trkpt lat="49.21836" lon="3.83822">
        <ele>132.8</ele>
        <time>2021-08-09T09:41:18Z</time>
      </trkpt>
      <trkpt lat="49.21859" lon="3.83848">
        <ele>131.36</ele>
        <time>2021-08-09T09:41:22Z</time>
      </trkpt>
      <trkpt lat="49.21874" lon="3.83864">
        <ele>129.92</ele>
        <time>2021-08-09T09:41:27Z</time>
      </trkpt>
      <trkpt lat="49.21878" lon="3.83873">
        <ele>129.43</ele>
        <time>2021-08-09T09:41:29Z</time>
      </trkpt>
      <trkpt lat="49.21878" lon="3.83877">
        <ele>129.43</ele>
        <time>2021-08-09T09:41:30Z</time>
      </trkpt>
      <trkpt lat="49.21877" lon="3.83882">
        <ele>129.43</ele>
        <time>2021-08-09T09:41:31Z</time>
      </trkpt>
      <trkpt lat="49.21871" lon="3.83909">
        <ele>129.43</ele>
        <time>2021-08-09T09:41:39Z</time>
      </trkpt>
      <trkpt lat="49.21865" lon="3.83941">
        <ele>129.43</ele>
        <time>2021-08-09T09:41:48Z</time>
      </trkpt>
      <trkpt lat="49.21858" lon="3.83981">
        <ele>129.43</ele>
        <time>2021-08-09T09:41:56Z</time>
      </trkpt>
      <trkpt lat="49.21846" lon="3.84032">
        <ele>127.99</ele>
        <time>2021-08-09T09:42:06Z</time>
      </trkpt>
      <trkpt lat="49.21834" lon="3.84083">
        <ele>126.55</ele>
        <time>2021-08-09T09:42:15Z</time>
      </trkpt>
      <trkpt lat="49.21824" lon="3.84125">
        <ele>126.55</ele>
        <time>2021-08-09T09:42:24Z</time>
      </trkpt>
      <trkpt lat="49.21816" lon="3.84159">
        <ele>126.55</ele>
        <time>2021-08-09T09:42:33Z</time>
      </trkpt>
      <trkpt lat="49.21808" lon="3.84188">
        <ele>126.55</ele>
        <time>2021-08-09T09:42:42Z</time>
      </trkpt>
      <trkpt lat="49.21801" lon="3.84215">
        <ele>127.99</ele>
        <time>2021-08-09T09:42:52Z</time>
      </trkpt>
      <trkpt lat="49.21796" lon="3.84232">
        <ele>128.95</ele>
        <time>2021-08-09T09:43:00Z</time>
      </trkpt>
      <trkpt lat="49.21789" lon="3.84256">
        <ele>130.4</ele>
        <time>2021-08-09T09:43:10Z</time>
      </trkpt>
      <trkpt lat="49.21785" lon="3.84271">
        <ele>132.32</ele>
        <time>2021-08-09T09:43:18Z</time>
      </trkpt>
      <trkpt lat="49.21783" lon="3.84279">
        <ele>132.8</ele>
        <time>2021-08-09T09:43:22Z</time>
      </trkpt>
      <trkpt lat="49.21778" lon="3.8429">
        <ele>133.76</ele>
        <time>2021-08-09T09:43:29Z</time>
      </trkpt>
      <trkpt lat="49.21775" lon="3.84299">
        <ele>134.24</ele>
        <time>2021-08-09T09:43:34Z</time>
      </trkpt>
      <trkpt lat="49.21775" lon="3.84301">
        <ele>134.72</ele>
        <time>2021-08-09T09:43:35Z</time>
      </trkpt>
      <trkpt lat="49.21772" lon="3.84319">
        <ele>136.16</ele>
        <time>2021-08-09T09:43:43Z</time>
      </trkpt>
      <trkpt lat="49.21769" lon="3.8434">
        <ele>137.13</ele>
        <time>2021-08-09T09:43:50Z</time>
      </trkpt>
      <trkpt lat="49.21764" lon="3.84368">
        <ele>136.64</ele>
        <time>2021-08-09T09:43:57Z</time>
      </trkpt>
      <trkpt lat="49.21757" lon="3.84404">
        <ele>137.13</ele>
        <time>2021-08-09T09:44:04Z</time>
      </trkpt>
      <trkpt lat="49.21745" lon="3.84458">
        <ele>135.68</ele>
        <time>2021-08-09T09:44:13Z</time>
      </trkpt>
      <trkpt lat="49.21743" lon="3.84464">
        <ele>135.68</ele>
        <time>2021-08-09T09:44:14Z</time>
      </trkpt>
      <trkpt lat="49.21728" lon="3.84526">
        <ele>131.84</ele>
        <time>2021-08-09T09:44:23Z</time>
      </trkpt>
      <trkpt lat="49.21727" lon="3.84535">
        <ele>131.84</ele>
        <time>2021-08-09T09:44:24Z</time>
      </trkpt>
      <trkpt lat="49.21705" lon="3.84604">
        <ele>128.47</ele>
        <time>2021-08-09T09:44:32Z</time>
      </trkpt>
      <trkpt lat="49.21688" lon="3.84659">
        <ele>127.03</ele>
        <time>2021-08-09T09:44:38Z</time>
      </trkpt>
      <trkpt lat="49.21676" lon="3.84714">
        <ele>126.55</ele>
        <time>2021-08-09T09:44:45Z</time>
      </trkpt>
      <trkpt lat="49.21669" lon="3.84746">
        <ele>127.03</ele>
        <time>2021-08-09T09:44:51Z</time>
      </trkpt>
      <trkpt lat="49.21667" lon="3.84769">
        <ele>127.99</ele>
        <time>2021-08-09T09:44:58Z</time>
      </trkpt>
      <trkpt lat="49.21665" lon="3.84788">
        <ele>128.95</ele>
        <time>2021-08-09T09:45:05Z</time>
      </trkpt>
      <trkpt lat="49.21661" lon="3.84817">
        <ele>130.4</ele>
        <time>2021-08-09T09:45:15Z</time>
      </trkpt>
      <trkpt lat="49.21658" lon="3.84848">
        <ele>130.4</ele>
        <time>2021-08-09T09:45:22Z</time>
      </trkpt>
      <trkpt lat="49.21655" lon="3.84894">
        <ele>127.99</ele>
        <time>2021-08-09T09:45:29Z</time>
      </trkpt>
      <trkpt lat="49.21649" lon="3.84958">
        <ele>126.07</ele>
        <time>2021-08-09T09:45:36Z</time>
      </trkpt>
      <trkpt lat="49.21644" lon="3.85021">
        <ele>125.59</ele>
        <time>2021-08-09T09:45:43Z</time>
      </trkpt>
      <trkpt lat="49.21643" lon="3.85043">
        <ele>125.59</ele>
        <time>2021-08-09T09:45:46Z</time>
      </trkpt>
      <trkpt lat="49.21643" lon="3.85049">
        <ele>125.59</ele>
        <time>2021-08-09T09:45:47Z</time>
      </trkpt>
      <trkpt lat="49.21644" lon="3.85078">
        <ele>125.59</ele>
        <time>2021-08-09T09:45:53Z</time>
      </trkpt>
      <trkpt lat="49.21643" lon="3.85109">
        <ele>125.59</ele>
        <time>2021-08-09T09:46:00Z</time>
      </trkpt>
      <trkpt lat="49.21639" lon="3.85141">
        <ele>125.59</ele>
        <time>2021-08-09T09:46:08Z</time>
      </trkpt>
      <trkpt lat="49.21633" lon="3.85166">
        <ele>126.55</ele>
        <time>2021-08-09T09:46:15Z</time>
      </trkpt>
      <trkpt lat="49.21631" lon="3.8517">
        <ele>126.55</ele>
        <time>2021-08-09T09:46:16Z</time>
      </trkpt>
      <trkpt lat="49.21621" lon="3.85201">
        <ele>126.55</ele>
        <time>2021-08-09T09:46:24Z</time>
      </trkpt>
      <trkpt lat="49.2161" lon="3.85223">
        <ele>127.03</ele>
        <time>2021-08-09T09:46:30Z</time>
      </trkpt>
      <trkpt lat="49.21606" lon="3.85247">
        <ele>127.99</ele>
        <time>2021-08-09T09:46:37Z</time>
      </trkpt>
      <trkpt lat="49.21599" lon="3.8528">
        <ele>127.99</ele>
        <time>2021-08-09T09:46:47Z</time>
      </trkpt>
      <trkpt lat="49.21598" lon="3.85304">
        <ele>128.95</ele>
        <time>2021-08-09T09:46:54Z</time>
      </trkpt>
      <trkpt lat="49.21593" lon="3.85335">
        <ele>130.4</ele>
        <time>2021-08-09T09:47:02Z</time>
      </trkpt>
      <trkpt lat="49.21585" lon="3.85371">
        <ele>130.4</ele>
        <time>2021-08-09T09:47:10Z</time>
      </trkpt>
      <trkpt lat="49.21566" lon="3.85421">
        <ele>128.95</ele>
        <time>2021-08-09T09:47:18Z</time>
      </trkpt>
      <trkpt lat="49.2156" lon="3.85432">
        <ele>128.95</ele>
        <time>2021-08-09T09:47:20Z</time>
      </trkpt>
      <trkpt lat="49.21556" lon="3.85443">
        <ele>128.47</ele>
        <time>2021-08-09T09:47:22Z</time>
      </trkpt>
      <trkpt lat="49.21553" lon="3.85448">
        <ele>128.47</ele>
        <time>2021-08-09T09:47:23Z</time>
      </trkpt>
      <trkpt lat="49.21534" lon="3.85476">
        <ele>127.99</ele>
        <time>2021-08-09T09:47:30Z</time>
      </trkpt>
      <trkpt lat="49.2151" lon="3.85473">
        <ele>127.99</ele>
        <time>2021-08-09T09:47:36Z</time>
      </trkpt>
      <trkpt lat="49.21482" lon="3.85474">
        <ele>126.55</ele>
        <time>2021-08-09T09:47:42Z</time>
      </trkpt>
      <trkpt lat="49.21477" lon="3.85476">
        <ele>126.55</ele>
        <time>2021-08-09T09:47:43Z</time>
      </trkpt>
      <trkpt lat="49.21472" lon="3.85479">
        <ele>126.55</ele>
        <time>2021-08-09T09:47:44Z</time>
      </trkpt>
      <trkpt lat="49.21468" lon="3.85482">
        <ele>126.55</ele>
        <time>2021-08-09T09:47:45Z</time>
      </trkpt>
      <trkpt lat="49.21463" lon="3.85485">
        <ele>126.07</ele>
        <time>2021-08-09T09:47:46Z</time>
      </trkpt>
      <trkpt lat="49.21459" lon="3.8549">
        <ele>126.07</ele>
        <time>2021-08-09T09:47:47Z</time>
      </trkpt>
      <trkpt lat="49.21454" lon="3.85494">
        <ele>126.07</ele>
        <time>2021-08-09T09:47:48Z</time>
      </trkpt>
      <trkpt lat="49.21449" lon="3.85499">
        <ele>126.07</ele>
        <time>2021-08-09T09:47:49Z</time>
      </trkpt>
      <trkpt lat="49.21445" lon="3.85504">
        <ele>126.07</ele>
        <time>2021-08-09T09:47:50Z</time>
      </trkpt>
      <trkpt lat="49.21441" lon="3.8551">
        <ele>125.59</ele>
        <time>2021-08-09T09:47:51Z</time>
      </trkpt>
      <trkpt lat="49.21425" lon="3.85542">
        <ele>125.59</ele>
        <time>2021-08-09T09:47:56Z</time>
      </trkpt>
      <trkpt lat="49.21419" lon="3.85556">
        <ele>126.07</ele>
        <time>2021-08-09T09:47:58Z</time>
      </trkpt>
      <trkpt lat="49.21418" lon="3.85562">
        <ele>126.07</ele>
        <time>2021-08-09T09:47:59Z</time>
      </trkpt>
      <trkpt lat="49.21413" lon="3.85581">
        <ele>126.07</ele>
        <time>2021-08-09T09:48:02Z</time>
      </trkpt>
      <trkpt lat="49.2141" lon="3.85592">
        <ele>127.51</ele>
        <time>2021-08-09T09:48:04Z</time>
      </trkpt>
      <trkpt lat="49.21397" lon="3.85633">
        <ele>128.47</ele>
        <time>2021-08-09T09:48:12Z</time>
      </trkpt>
      <trkpt lat="49.21377" lon="3.85683">
        <ele>128.95</ele>
        <time>2021-08-09T09:48:22Z</time>
      </trkpt>
      <trkpt lat="49.2136" lon="3.85715">
        <ele>130.4</ele>
        <time>2021-08-09T09:48:30Z</time>
      </trkpt>
      <trkpt lat="49.21343" lon="3.85733">
        <ele>131.36</ele>
        <time>2021-08-09T09:48:38Z</time>
      </trkpt>
      <trkpt lat="49.21325" lon="3.85755">
        <ele>132.8</ele>
        <time>2021-08-09T09:48:46Z</time>
      </trkpt>
      <trkpt lat="49.21316" lon="3.85777">
        <ele>133.76</ele>
        <time>2021-08-09T09:48:52Z</time>
      </trkpt>
      <trkpt lat="49.21314" lon="3.85797">
        <ele>133.76</ele>
        <time>2021-08-09T09:48:57Z</time>
      </trkpt>
      <trkpt lat="49.21319" lon="3.85836">
        <ele>132.32</ele>
        <time>2021-08-09T09:49:04Z</time>
      </trkpt>
      <trkpt lat="49.2132" lon="3.85842">
        <ele>132.32</ele>
        <time>2021-08-09T09:49:05Z</time>
      </trkpt>
      <trkpt lat="49.21322" lon="3.85856">
        <ele>132.32</ele>
        <time>2021-08-09T09:49:07Z</time>
      </trkpt>
      <trkpt lat="49.2133" lon="3.85909">
        <ele>131.36</ele>
        <time>2021-08-09T09:49:15Z</time>
      </trkpt>
      <trkpt lat="49.21331" lon="3.85916">
        <ele>130.88</ele>
        <time>2021-08-09T09:49:16Z</time>
      </trkpt>
      <trkpt lat="49.21333" lon="3.85923">
        <ele>130.88</ele>
        <time>2021-08-09T09:49:17Z</time>
      </trkpt>
      <trkpt lat="49.21336" lon="3.85929">
        <ele>130.88</ele>
        <time>2021-08-09T09:49:18Z</time>
      </trkpt>
      <trkpt lat="49.21339" lon="3.85935">
        <ele>130.88</ele>
        <time>2021-08-09T09:49:19Z</time>
      </trkpt>
      <trkpt lat="49.21343" lon="3.85939">
        <ele>130.88</ele>
        <time>2021-08-09T09:49:20Z</time>
      </trkpt>
      <trkpt lat="49.21347" lon="3.85944">
        <ele>130.4</ele>
        <time>2021-08-09T09:49:21Z</time>
      </trkpt>
      <trkpt lat="49.21351" lon="3.85949">
        <ele>130.4</ele>
        <time>2021-08-09T09:49:22Z</time>
      </trkpt>
      <trkpt lat="49.21355" lon="3.85954">
        <ele>130.4</ele>
        <time>2021-08-09T09:49:23Z</time>
      </trkpt>
      <trkpt lat="49.21359" lon="3.85957">
        <ele>130.4</ele>
        <time>2021-08-09T09:49:24Z</time>
      </trkpt>
      <trkpt lat="49.21363" lon="3.85961">
        <ele>130.4</ele>
        <time>2021-08-09T09:49:25Z</time>
      </trkpt>
      <trkpt lat="49.21368" lon="3.85965">
        <ele>129.92</ele>
        <time>2021-08-09T09:49:26Z</time>
      </trkpt>
      <trkpt lat="49.2139" lon="3.85984">
        <ele>129.43</ele>
        <time>2021-08-09T09:49:31Z</time>
      </trkpt>
      <trkpt lat="49.21394" lon="3.85989">
        <ele>129.43</ele>
        <time>2021-08-09T09:49:32Z</time>
      </trkpt>
      <trkpt lat="49.21398" lon="3.85996">
        <ele>129.43</ele>
        <time>2021-08-09T09:49:33Z</time>
      </trkpt>
      <trkpt lat="49.21401" lon="3.86004">
        <ele>129.43</ele>
        <time>2021-08-09T09:49:34Z</time>
      </trkpt>
      <trkpt lat="49.21403" lon="3.86013">
        <ele>129.43</ele>
        <time>2021-08-09T09:49:35Z</time>
      </trkpt>
      <trkpt lat="49.21404" lon="3.86021">
        <ele>129.43</ele>
        <time>2021-08-09T09:49:36Z</time>
      </trkpt>
      <trkpt lat="49.21405" lon="3.8603">
        <ele>128.95</ele>
        <time>2021-08-09T09:49:37Z</time>
      </trkpt>
      <trkpt lat="49.21414" lon="3.8608">
        <ele>128.95</ele>
        <time>2021-08-09T09:49:43Z</time>
      </trkpt>
      <trkpt lat="49.21415" lon="3.86089">
        <ele>128.95</ele>
        <time>2021-08-09T09:49:44Z</time>
      </trkpt>
      <trkpt lat="49.21428" lon="3.86184">
        <ele>125.59</ele>
        <time>2021-08-09T09:49:54Z</time>
      </trkpt>
      <trkpt lat="49.2143" lon="3.86196">
        <ele>125.59</ele>
        <time>2021-08-09T09:49:55Z</time>
      </trkpt>
      <trkpt lat="49.21439" lon="3.86259">
        <ele>122.71</ele>
        <time>2021-08-09T09:50:00Z</time>
      </trkpt>
      <trkpt lat="49.21448" lon="3.86315">
        <ele>120.78</ele>
        <time>2021-08-09T09:50:04Z</time>
      </trkpt>
      <trkpt lat="49.21453" lon="3.86361">
        <ele>118.86</ele>
        <time>2021-08-09T09:50:07Z</time>
      </trkpt>
      <trkpt lat="49.21453" lon="3.86375">
        <ele>118.38</ele>
        <time>2021-08-09T09:50:08Z</time>
      </trkpt>
      <trkpt lat="49.21452" lon="3.8639">
        <ele>118.38</ele>
        <time>2021-08-09T09:50:09Z</time>
      </trkpt>
      <trkpt lat="49.2145" lon="3.86404">
        <ele>118.38</ele>
        <time>2021-08-09T09:50:10Z</time>
      </trkpt>
      <trkpt lat="49.21448" lon="3.86417">
        <ele>118.38</ele>
        <time>2021-08-09T09:50:11Z</time>
      </trkpt>
      <trkpt lat="49.21438" lon="3.86459">
        <ele>120.78</ele>
        <time>2021-08-09T09:50:15Z</time>
      </trkpt>
      <trkpt lat="49.21429" lon="3.86502">
        <ele>123.67</ele>
        <time>2021-08-09T09:50:21Z</time>
      </trkpt>
      <trkpt lat="49.2142" lon="3.86545">
        <ele>125.11</ele>
        <time>2021-08-09T09:50:30Z</time>
      </trkpt>
      <trkpt lat="49.21413" lon="3.86575">
        <ele>125.59</ele>
        <time>2021-08-09T09:50:36Z</time>
      </trkpt>
      <trkpt lat="49.21405" lon="3.86609">
        <ele>126.07</ele>
        <time>2021-08-09T09:50:43Z</time>
      </trkpt>
      <trkpt lat="49.21394" lon="3.86656">
        <ele>126.55</ele>
        <time>2021-08-09T09:50:52Z</time>
      </trkpt>
      <trkpt lat="49.21384" lon="3.867">
        <ele>127.99</ele>
        <time>2021-08-09T09:51:01Z</time>
      </trkpt>
      <trkpt lat="49.21374" lon="3.86744">
        <ele>128.47</ele>
        <time>2021-08-09T09:51:10Z</time>
      </trkpt>
      <trkpt lat="49.21364" lon="3.86791">
        <ele>129.43</ele>
        <time>2021-08-09T09:51:20Z</time>
      </trkpt>
      <trkpt lat="49.21353" lon="3.86845">
        <ele>129.92</ele>
        <time>2021-08-09T09:51:31Z</time>
      </trkpt>
      <trkpt lat="49.21346" lon="3.86901">
        <ele>130.4</ele>
        <time>2021-08-09T09:51:41Z</time>
      </trkpt>
      <trkpt lat="49.21335" lon="3.86962">
        <ele>130.88</ele>
        <time>2021-08-09T09:51:51Z</time>
      </trkpt>
      <trkpt lat="49.21326" lon="3.87031">
        <ele>131.36</ele>
        <time>2021-08-09T09:52:02Z</time>
      </trkpt>
      <trkpt lat="49.21322" lon="3.87101">
        <ele>131.36</ele>
        <time>2021-08-09T09:52:12Z</time>
      </trkpt>
      <trkpt lat="49.21323" lon="3.87152">
        <ele>129.92</ele>
        <time>2021-08-09T09:52:20Z</time>
      </trkpt>
      <trkpt lat="49.21321" lon="3.87189">
        <ele>129.92</ele>
        <time>2021-08-09T09:52:25Z</time>
      </trkpt>
      <trkpt lat="49.21321" lon="3.87256">
        <ele>129.43</ele>
        <time>2021-08-09T09:52:34Z</time>
      </trkpt>
      <trkpt lat="49.2132" lon="3.87283">
        <ele>129.43</ele>
        <time>2021-08-09T09:52:38Z</time>
      </trkpt>
      <trkpt lat="49.21315" lon="3.87343">
        <ele>128.47</ele>
        <time>2021-08-09T09:52:46Z</time>
      </trkpt>
      <trkpt lat="49.21312" lon="3.87365">
        <ele>128.47</ele>
        <time>2021-08-09T09:52:49Z</time>
      </trkpt>
      <trkpt lat="49.21312" lon="3.87371">
        <ele>128.47</ele>
        <time>2021-08-09T09:52:50Z</time>
      </trkpt>
      <trkpt lat="49.21311" lon="3.87379">
        <ele>128.47</ele>
        <time>2021-08-09T09:52:51Z</time>
      </trkpt>
      <trkpt lat="49.21304" lon="3.87459">
        <ele>127.03</ele>
        <time>2021-08-09T09:53:01Z</time>
      </trkpt>
      <trkpt lat="49.21298" lon="3.87535">
        <ele>124.15</ele>
        <time>2021-08-09T09:53:08Z</time>
      </trkpt>
      <trkpt lat="49.21298" lon="3.87624">
        <ele>122.22</ele>
        <time>2021-08-09T09:53:15Z</time>
      </trkpt>
      <trkpt lat="49.21306" lon="3.8768">
        <ele>120.3</ele>
        <time>2021-08-09T09:53:19Z</time>
      </trkpt>
      <trkpt lat="49.21327" lon="3.87832">
        <ele>117.9</ele>
        <time>2021-08-09T09:53:30Z</time>
      </trkpt>
      <trkpt lat="49.21329" lon="3.87909">
        <ele>116.46</ele>
        <time>2021-08-09T09:53:36Z</time>
      </trkpt>
      <trkpt lat="49.21325" lon="3.87939">
        <ele>118.38</ele>
        <time>2021-08-09T09:53:39Z</time>
      </trkpt>
      <trkpt lat="49.21323" lon="3.87947">
        <ele>118.86</ele>
        <time>2021-08-09T09:53:40Z</time>
      </trkpt>
      <trkpt lat="49.21319" lon="3.8796">
        <ele>119.34</ele>
        <time>2021-08-09T09:53:42Z</time>
      </trkpt>
      <trkpt lat="49.21305" lon="3.88004">
        <ele>121.26</ele>
        <time>2021-08-09T09:53:50Z</time>
      </trkpt>
      <trkpt lat="49.21296" lon="3.88029">
        <ele>122.22</ele>
        <time>2021-08-09T09:53:56Z</time>
      </trkpt>
      <trkpt lat="49.21282" lon="3.88062">
        <ele>123.19</ele>
        <time>2021-08-09T09:54:05Z</time>
      </trkpt>
      <trkpt lat="49.21264" lon="3.88095">
        <ele>124.15</ele>
        <time>2021-08-09T09:54:14Z</time>
      </trkpt>
      <trkpt lat="49.21244" lon="3.88135">
        <ele>124.15</ele>
        <time>2021-08-09T09:54:24Z</time>
      </trkpt>
      <trkpt lat="49.21218" lon="3.88186">
        <ele>124.15</ele>
        <time>2021-08-09T09:54:35Z</time>
      </trkpt>
      <trkpt lat="49.212" lon="3.8823">
        <ele>125.11</ele>
        <time>2021-08-09T09:54:44Z</time>
      </trkpt>
      <trkpt lat="49.21192" lon="3.88266">
        <ele>125.11</ele>
        <time>2021-08-09T09:54:51Z</time>
      </trkpt>
      <trkpt lat="49.21192" lon="3.88297">
        <ele>126.07</ele>
        <time>2021-08-09T09:54:58Z</time>
      </trkpt>
      <trkpt lat="49.21195" lon="3.88329">
        <ele>127.03</ele>
        <time>2021-08-09T09:55:06Z</time>
      </trkpt>
      <trkpt lat="49.21201" lon="3.88358">
        <ele>127.99</ele>
        <time>2021-08-09T09:55:13Z</time>
      </trkpt>
      <trkpt lat="49.21203" lon="3.88391">
        <ele>128.47</ele>
        <time>2021-08-09T09:55:21Z</time>
      </trkpt>
      <trkpt lat="49.212" lon="3.88428">
        <ele>128.95</ele>
        <time>2021-08-09T09:55:30Z</time>
      </trkpt>
      <trkpt lat="49.21189" lon="3.88468">
        <ele>128.95</ele>
        <time>2021-08-09T09:55:38Z</time>
      </trkpt>
      <trkpt lat="49.21187" lon="3.88475">
        <ele>128.95</ele>
        <time>2021-08-09T09:55:39Z</time>
      </trkpt>
      <trkpt lat="49.21185" lon="3.88481">
        <ele>128.95</ele>
        <time>2021-08-09T09:55:40Z</time>
      </trkpt>
      <trkpt lat="49.21183" lon="3.88488">
        <ele>128.95</ele>
        <time>2021-08-09T09:55:41Z</time>
      </trkpt>
      <trkpt lat="49.21181" lon="3.88495">
        <ele>128.95</ele>
        <time>2021-08-09T09:55:42Z</time>
      </trkpt>
      <trkpt lat="49.21181" lon="3.88503">
        <ele>128.95</ele>
        <time>2021-08-09T09:55:43Z</time>
      </trkpt>
      <trkpt lat="49.21181" lon="3.8851">
        <ele>127.99</ele>
        <time>2021-08-09T09:55:44Z</time>
      </trkpt>
      <trkpt lat="49.21182" lon="3.88518">
        <ele>127.99</ele>
        <time>2021-08-09T09:55:45Z</time>
      </trkpt>
      <trkpt lat="49.21183" lon="3.88524">
        <ele>127.99</ele>
        <time>2021-08-09T09:55:46Z</time>
      </trkpt>
      <trkpt lat="49.21185" lon="3.88551">
        <ele>128.95</ele>
        <time>2021-08-09T09:55:52Z</time>
      </trkpt>
      <trkpt lat="49.21186" lon="3.88553">
        <ele>128.95</ele>
        <time>2021-08-09T09:55:53Z</time>
      </trkpt>
      <trkpt lat="49.21187" lon="3.88555">
        <ele>128.95</ele>
        <time>2021-08-09T09:55:54Z</time>
      </trkpt>
      <trkpt lat="49.21189" lon="3.88556">
        <ele>128.95</ele>
        <time>2021-08-09T09:55:55Z</time>
      </trkpt>
      <trkpt lat="49.2119" lon="3.88557">
        <ele>129.43</ele>
        <time>2021-08-09T09:56:00Z</time>
      </trkpt>
      <trkpt lat="49.21188" lon="3.8856">
        <ele>129.43</ele>
        <time>2021-08-09T09:56:06Z</time>
      </trkpt>
      <trkpt lat="49.21188" lon="3.88562">
        <ele>129.43</ele>
        <time>2021-08-09T09:56:07Z</time>
      </trkpt>
      <trkpt lat="49.21187" lon="3.88563">
        <ele>129.43</ele>
        <time>2021-08-09T09:56:08Z</time>
      </trkpt>
      <trkpt lat="49.21187" lon="3.88566">
        <ele>129.43</ele>
        <time>2021-08-09T09:56:09Z</time>
      </trkpt>
      <trkpt lat="49.21187" lon="3.88568">
        <ele>129.43</ele>
        <time>2021-08-09T09:56:10Z</time>
      </trkpt>
      <trkpt lat="49.21187" lon="3.88571">
        <ele>129.43</ele>
        <time>2021-08-09T09:56:11Z</time>
      </trkpt>
      <trkpt lat="49.21186" lon="3.88573">
        <ele>130.4</ele>
        <time>2021-08-09T09:56:12Z</time>
      </trkpt>
      <trkpt lat="49.21186" lon="3.88576">
        <ele>130.4</ele>
        <time>2021-08-09T09:56:13Z</time>
      </trkpt>
      <trkpt lat="49.21186" lon="3.8858">
        <ele>130.4</ele>
        <time>2021-08-09T09:56:14Z</time>
      </trkpt>
      <trkpt lat="49.21185" lon="3.88583">
        <ele>130.88</ele>
        <time>2021-08-09T09:56:15Z</time>
      </trkpt>
      <trkpt lat="49.21184" lon="3.88586">
        <ele>130.88</ele>
        <time>2021-08-09T09:56:16Z</time>
      </trkpt>
      <trkpt lat="49.21173" lon="3.88609">
        <ele>131.36</ele>
        <time>2021-08-09T09:56:23Z</time>
      </trkpt>
      <trkpt lat="49.21161" lon="3.88638">
        <ele>131.84</ele>
        <time>2021-08-09T09:56:31Z</time>
      </trkpt>
      <trkpt lat="49.21142" lon="3.88682">
        <ele>131.36</ele>
        <time>2021-08-09T09:56:40Z</time>
      </trkpt>
      <trkpt lat="49.21136" lon="3.887">
        <ele>131.36</ele>
        <time>2021-08-09T09:56:43Z</time>
      </trkpt>
      <trkpt lat="49.21122" lon="3.88759">
        <ele>130.4</ele>
        <time>2021-08-09T09:56:52Z</time>
      </trkpt>
      <trkpt lat="49.21112" lon="3.8882">
        <ele>129.92</ele>
        <time>2021-08-09T09:57:00Z</time>
      </trkpt>
      <trkpt lat="49.21108" lon="3.88884">
        <ele>129.92</ele>
        <time>2021-08-09T09:57:08Z</time>
      </trkpt>
      <trkpt lat="49.2111" lon="3.88906">
        <ele>129.92</ele>
        <time>2021-08-09T09:57:11Z</time>
      </trkpt>
      <trkpt lat="49.21112" lon="3.88977">
        <ele>129.92</ele>
        <time>2021-08-09T09:57:20Z</time>
      </trkpt>
      <trkpt lat="49.21114" lon="3.89032">
        <ele>129.92</ele>
        <time>2021-08-09T09:57:27Z</time>
      </trkpt>
      <trkpt lat="49.21115" lon="3.8904">
        <ele>129.43</ele>
        <time>2021-08-09T09:57:28Z</time>
      </trkpt>
      <trkpt lat="49.21118" lon="3.89109">
        <ele>129.43</ele>
        <time>2021-08-09T09:57:37Z</time>
      </trkpt>
      <trkpt lat="49.21123" lon="3.89172">
        <ele>127.99</ele>
        <time>2021-08-09T09:57:44Z</time>
      </trkpt>
      <trkpt lat="49.21129" lon="3.89212">
        <ele>127.03</ele>
        <time>2021-08-09T09:57:48Z</time>
      </trkpt>
      <trkpt lat="49.21129" lon="3.8922">
        <ele>126.55</ele>
        <time>2021-08-09T09:57:49Z</time>
      </trkpt>
      <trkpt lat="49.21128" lon="3.89229">
        <ele>126.07</ele>
        <time>2021-08-09T09:57:50Z</time>
      </trkpt>
      <trkpt lat="49.21128" lon="3.89238">
        <ele>126.55</ele>
        <time>2021-08-09T09:57:51Z</time>
      </trkpt>
      <trkpt lat="49.21129" lon="3.89246">
        <ele>126.55</ele>
        <time>2021-08-09T09:57:52Z</time>
      </trkpt>
      <trkpt lat="49.2113" lon="3.89254">
        <ele>126.55</ele>
        <time>2021-08-09T09:57:53Z</time>
      </trkpt>
      <trkpt lat="49.21132" lon="3.89259">
        <ele>126.55</ele>
        <time>2021-08-09T09:57:54Z</time>
      </trkpt>
      <trkpt lat="49.21134" lon="3.89261">
        <ele>126.55</ele>
        <time>2021-08-09T09:57:55Z</time>
      </trkpt>
      <trkpt lat="49.21136" lon="3.8926">
        <ele>126.55</ele>
        <time>2021-08-09T09:57:56Z</time>
      </trkpt>
      <trkpt lat="49.21137" lon="3.89259">
        <ele>126.55</ele>
        <time>2021-08-09T09:57:57Z</time>
      </trkpt>
      <trkpt lat="49.21138" lon="3.89257">
        <ele>126.55</ele>
        <time>2021-08-09T09:57:58Z</time>
      </trkpt>
      <trkpt lat="49.21139" lon="3.89255">
        <ele>126.55</ele>
        <time>2021-08-09T09:57:59Z</time>
      </trkpt>
      <trkpt lat="49.2114" lon="3.89254">
        <ele>126.55</ele>
        <time>2021-08-09T09:58:00Z</time>
      </trkpt>
      <trkpt lat="49.21142" lon="3.89253">
        <ele>126.55</ele>
        <time>2021-08-09T09:58:01Z</time>
      </trkpt>
      <trkpt lat="49.21144" lon="3.89253">
        <ele>126.55</ele>
        <time>2021-08-09T09:58:02Z</time>
      </trkpt>
      <trkpt lat="49.21145" lon="3.89254">
        <ele>126.55</ele>
        <time>2021-08-09T09:58:03Z</time>
      </trkpt>
      <trkpt lat="49.21145" lon="3.89257">
        <ele>127.99</ele>
        <time>2021-08-09T09:58:04Z</time>
      </trkpt>
      <trkpt lat="49.21146" lon="3.8926">
        <ele>127.99</ele>
        <time>2021-08-09T09:58:05Z</time>
      </trkpt>
      <trkpt lat="49.21147" lon="3.89263">
        <ele>127.99</ele>
        <time>2021-08-09T09:58:06Z</time>
      </trkpt>
      <trkpt lat="49.21147" lon="3.89266">
        <ele>127.99</ele>
        <time>2021-08-09T09:58:07Z</time>
      </trkpt>
      <trkpt lat="49.21148" lon="3.89269">
        <ele>127.99</ele>
        <time>2021-08-09T09:58:08Z</time>
      </trkpt>
      <trkpt lat="49.21149" lon="3.89273">
        <ele>127.99</ele>
        <time>2021-08-09T09:58:09Z</time>
      </trkpt>
      <trkpt lat="49.2115" lon="3.89278">
        <ele>127.99</ele>
        <time>2021-08-09T09:58:10Z</time>
      </trkpt>
      <trkpt lat="49.21152" lon="3.89282">
        <ele>127.99</ele>
        <time>2021-08-09T09:58:11Z</time>
      </trkpt>
      <trkpt lat="49.21153" lon="3.89287">
        <ele>128.47</ele>
        <time>2021-08-09T09:58:12Z</time>
      </trkpt>
      <trkpt lat="49.21153" lon="3.89292">
        <ele>128.47</ele>
        <time>2021-08-09T09:58:13Z</time>
      </trkpt>
      <trkpt lat="49.21154" lon="3.89296">
        <ele>128.47</ele>
        <time>2021-08-09T09:58:14Z</time>
      </trkpt>
      <trkpt lat="49.21155" lon="3.893">
        <ele>128.47</ele>
        <time>2021-08-09T09:58:15Z</time>
      </trkpt>
      <trkpt lat="49.21161" lon="3.8934">
        <ele>128.47</ele>
        <time>2021-08-09T09:58:23Z</time>
      </trkpt>
      <trkpt lat="49.21163" lon="3.89374">
        <ele>129.43</ele>
        <time>2021-08-09T09:58:30Z</time>
      </trkpt>
      <trkpt lat="49.21165" lon="3.89415">
        <ele>130.88</ele>
        <time>2021-08-09T09:58:40Z</time>
      </trkpt>
      <trkpt lat="49.21164" lon="3.89453">
        <ele>131.36</ele>
        <time>2021-08-09T09:58:49Z</time>
      </trkpt>
      <trkpt lat="49.21163" lon="3.8948">
        <ele>131.84</ele>
        <time>2021-08-09T09:58:55Z</time>
      </trkpt>
      <trkpt lat="49.21154" lon="3.89511">
        <ele>131.84</ele>
        <time>2021-08-09T09:59:01Z</time>
      </trkpt>
      <trkpt lat="49.21152" lon="3.89524">
        <ele>130.4</ele>
        <time>2021-08-09T09:59:03Z</time>
      </trkpt>
      <trkpt lat="49.2115" lon="3.89546">
        <ele>130.4</ele>
        <time>2021-08-09T09:59:07Z</time>
      </trkpt>
      <trkpt lat="49.21149" lon="3.89603">
        <ele>130.4</ele>
        <time>2021-08-09T09:59:16Z</time>
      </trkpt>
      <trkpt lat="49.21149" lon="3.89613">
        <ele>131.84</ele>
        <time>2021-08-09T09:59:18Z</time>
      </trkpt>
      <trkpt lat="49.21151" lon="3.89653">
        <ele>132.32</ele>
        <time>2021-08-09T09:59:25Z</time>
      </trkpt>
      <trkpt lat="49.21151" lon="3.89688">
        <ele>132.32</ele>
        <time>2021-08-09T09:59:32Z</time>
      </trkpt>
      <trkpt lat="49.21151" lon="3.89729">
        <ele>132.32</ele>
        <time>2021-08-09T09:59:40Z</time>
      </trkpt>
      <trkpt lat="49.21154" lon="3.89772">
        <ele>132.32</ele>
        <time>2021-08-09T09:59:47Z</time>
      </trkpt>
      <trkpt lat="49.21157" lon="3.89818">
        <ele>132.8</ele>
        <time>2021-08-09T09:59:55Z</time>
      </trkpt>
      <trkpt lat="49.21166" lon="3.89855">
        <ele>132.8</ele>
        <time>2021-08-09T10:00:02Z</time>
      </trkpt>
      <trkpt lat="49.21178" lon="3.89883">
        <ele>132.8</ele>
        <time>2021-08-09T10:00:10Z</time>
      </trkpt>
      <trkpt lat="49.21187" lon="3.899">
        <ele>132.8</ele>
        <time>2021-08-09T10:00:16Z</time>
      </trkpt>
      <trkpt lat="49.21202" lon="3.89927">
        <ele>133.28</ele>
        <time>2021-08-09T10:00:25Z</time>
      </trkpt>
      <trkpt lat="49.21218" lon="3.89954">
        <ele>134.24</ele>
        <time>2021-08-09T10:00:35Z</time>
      </trkpt>
      <trkpt lat="49.21227" lon="3.89967">
        <ele>134.24</ele>
        <time>2021-08-09T10:00:41Z</time>
      </trkpt>
      <trkpt lat="49.21236" lon="3.89984">
        <ele>134.72</ele>
        <time>2021-08-09T10:00:48Z</time>
      </trkpt>
      <trkpt lat="49.21249" lon="3.90004">
        <ele>134.72</ele>
        <time>2021-08-09T10:00:56Z</time>
      </trkpt>
      <trkpt lat="49.21257" lon="3.90024">
        <ele>135.2</ele>
        <time>2021-08-09T10:01:05Z</time>
      </trkpt>
      <trkpt lat="49.21262" lon="3.90041">
        <ele>136.16</ele>
        <time>2021-08-09T10:01:12Z</time>
      </trkpt>
      <trkpt lat="49.21272" lon="3.90062">
        <ele>136.16</ele>
        <time>2021-08-09T10:01:20Z</time>
      </trkpt>
      <trkpt lat="49.21278" lon="3.90085">
        <ele>136.16</ele>
        <time>2021-08-09T10:01:27Z</time>
      </trkpt>
      <trkpt lat="49.21285" lon="3.90117">
        <ele>136.64</ele>
        <time>2021-08-09T10:01:36Z</time>
      </trkpt>
      <trkpt lat="49.21288" lon="3.90151">
        <ele>137.13</ele>
        <time>2021-08-09T10:01:45Z</time>
      </trkpt>
      <trkpt lat="49.2129" lon="3.90182">
        <ele>137.61</ele>
        <time>2021-08-09T10:01:54Z</time>
      </trkpt>
      <trkpt lat="49.21291" lon="3.90202">
        <ele>138.57</ele>
        <time>2021-08-09T10:02:00Z</time>
      </trkpt>
      <trkpt lat="49.21293" lon="3.90235">
        <ele>139.05</ele>
        <time>2021-08-09T10:02:09Z</time>
      </trkpt>
      <trkpt lat="49.21293" lon="3.90239">
        <ele>139.05</ele>
        <time>2021-08-09T10:02:10Z</time>
      </trkpt>
      <trkpt lat="49.21296" lon="3.90279">
        <ele>140.01</ele>
        <time>2021-08-09T10:02:21Z</time>
      </trkpt>
      <trkpt lat="49.21299" lon="3.90315">
        <ele>140.97</ele>
        <time>2021-08-09T10:02:32Z</time>
      </trkpt>
      <trkpt lat="49.213" lon="3.90348">
        <ele>141.93</ele>
        <time>2021-08-09T10:02:42Z</time>
      </trkpt>
      <trkpt lat="49.21302" lon="3.90375">
        <ele>141.93</ele>
        <time>2021-08-09T10:02:50Z</time>
      </trkpt>
      <trkpt lat="49.21304" lon="3.90395">
        <ele>141.93</ele>
        <time>2021-08-09T10:02:56Z</time>
      </trkpt>
      <trkpt lat="49.21306" lon="3.90431">
        <ele>142.89</ele>
        <time>2021-08-09T10:03:06Z</time>
      </trkpt>
      <trkpt lat="49.21308" lon="3.90455">
        <ele>143.37</ele>
        <time>2021-08-09T10:03:14Z</time>
      </trkpt>
      <trkpt lat="49.21309" lon="3.9047">
        <ele>143.85</ele>
        <time>2021-08-09T10:03:19Z</time>
      </trkpt>
      <trkpt lat="49.21309" lon="3.9049">
        <ele>143.85</ele>
        <time>2021-08-09T10:03:26Z</time>
      </trkpt>
      <trkpt lat="49.21308" lon="3.90493">
        <ele>144.34</ele>
        <time>2021-08-09T10:03:32Z</time>
      </trkpt>
      <trkpt lat="49.21307" lon="3.90494">
        <ele>144.34</ele>
        <time>2021-08-09T10:03:49Z</time>
      </trkpt>
      <trkpt lat="49.21308" lon="3.90495">
        <ele>144.34</ele>
        <time>2021-08-09T10:03:59Z</time>
      </trkpt>
      <trkpt lat="49.21308" lon="3.90496">
        <ele>144.34</ele>
        <time>2021-08-09T10:04:00Z</time>
      </trkpt>
      <trkpt lat="49.21308" lon="3.90505">
        <ele>144.34</ele>
        <time>2021-08-09T10:04:09Z</time>
      </trkpt>
      <trkpt lat="49.21308" lon="3.90508">
        <ele>144.34</ele>
        <time>2021-08-09T10:04:13Z</time>
      </trkpt>
      <trkpt lat="49.21307" lon="3.90517">
        <ele>144.34</ele>
        <time>2021-08-09T10:04:17Z</time>
      </trkpt>
      <trkpt lat="49.21305" lon="3.90542">
        <ele>144.82</ele>
        <time>2021-08-09T10:04:25Z</time>
      </trkpt>
      <trkpt lat="49.21294" lon="3.90587">
        <ele>146.26</ele>
        <time>2021-08-09T10:04:37Z</time>
      </trkpt>
      <trkpt lat="49.21284" lon="3.9062">
        <ele>146.74</ele>
        <time>2021-08-09T10:04:47Z</time>
      </trkpt>
      <trkpt lat="49.21276" lon="3.90649">
        <ele>147.22</ele>
        <time>2021-08-09T10:04:56Z</time>
      </trkpt>
      <trkpt lat="49.21268" lon="3.90685">
        <ele>148.18</ele>
        <time>2021-08-09T10:05:07Z</time>
      </trkpt>
      <trkpt lat="49.2126" lon="3.90717">
        <ele>149.62</ele>
        <time>2021-08-09T10:05:16Z</time>
      </trkpt>
      <trkpt lat="49.2125" lon="3.90757">
        <ele>150.1</ele>
        <time>2021-08-09T10:05:27Z</time>
      </trkpt>
      <trkpt lat="49.21246" lon="3.90777">
        <ele>150.58</ele>
        <time>2021-08-09T10:05:32Z</time>
      </trkpt>
      <trkpt lat="49.21241" lon="3.908">
        <ele>150.58</ele>
        <time>2021-08-09T10:05:38Z</time>
      </trkpt>
      <trkpt lat="49.21229" lon="3.9084">
        <ele>152.03</ele>
        <time>2021-08-09T10:05:50Z</time>
      </trkpt>
      <trkpt lat="49.21222" lon="3.90871">
        <ele>152.03</ele>
        <time>2021-08-09T10:05:59Z</time>
      </trkpt>
      <trkpt lat="49.21214" lon="3.90905">
        <ele>152.99</ele>
        <time>2021-08-09T10:06:09Z</time>
      </trkpt>
      <trkpt lat="49.21209" lon="3.90938">
        <ele>152.99</ele>
        <time>2021-08-09T10:06:19Z</time>
      </trkpt>
      <trkpt lat="49.21206" lon="3.90974">
        <ele>153.47</ele>
        <time>2021-08-09T10:06:29Z</time>
      </trkpt>
      <trkpt lat="49.21203" lon="3.91005">
        <ele>154.91</ele>
        <time>2021-08-09T10:06:38Z</time>
      </trkpt>
      <trkpt lat="49.21201" lon="3.91034">
        <ele>155.87</ele>
        <time>2021-08-09T10:06:47Z</time>
      </trkpt>
      <trkpt lat="49.212" lon="3.9107">
        <ele>156.35</ele>
        <time>2021-08-09T10:06:57Z</time>
      </trkpt>
      <trkpt lat="49.212" lon="3.91101">
        <ele>157.31</ele>
        <time>2021-08-09T10:07:05Z</time>
      </trkpt>
      <trkpt lat="49.21199" lon="3.91137">
        <ele>158.75</ele>
        <time>2021-08-09T10:07:13Z</time>
      </trkpt>
      <trkpt lat="49.21199" lon="3.91177">
        <ele>159.24</ele>
        <time>2021-08-09T10:07:22Z</time>
      </trkpt>
      <trkpt lat="49.21198" lon="3.91221">
        <ele>160.2</ele>
        <time>2021-08-09T10:07:33Z</time>
      </trkpt>
      <trkpt lat="49.21198" lon="3.91259">
        <ele>161.64</ele>
        <time>2021-08-09T10:07:43Z</time>
      </trkpt>
      <trkpt lat="49.21193" lon="3.91308">
        <ele>162.6</ele>
        <time>2021-08-09T10:07:55Z</time>
      </trkpt>
      <trkpt lat="49.21186" lon="3.91349">
        <ele>163.56</ele>
        <time>2021-08-09T10:08:05Z</time>
      </trkpt>
      <trkpt lat="49.21176" lon="3.91384">
        <ele>164.52</ele>
        <time>2021-08-09T10:08:14Z</time>
      </trkpt>
      <trkpt lat="49.21162" lon="3.91433">
        <ele>165.48</ele>
        <time>2021-08-09T10:08:27Z</time>
      </trkpt>
      <trkpt lat="49.21148" lon="3.91472">
        <ele>166.45</ele>
        <time>2021-08-09T10:08:37Z</time>
      </trkpt>
      <trkpt lat="49.21138" lon="3.91503">
        <ele>166.93</ele>
        <time>2021-08-09T10:08:45Z</time>
      </trkpt>
      <trkpt lat="49.21129" lon="3.91537">
        <ele>167.89</ele>
        <time>2021-08-09T10:08:54Z</time>
      </trkpt>
      <trkpt lat="49.21118" lon="3.91571">
        <ele>169.33</ele>
        <time>2021-08-09T10:09:03Z</time>
      </trkpt>
      <trkpt lat="49.21103" lon="3.91602">
        <ele>169.81</ele>
        <time>2021-08-09T10:09:12Z</time>
      </trkpt>
      <trkpt lat="49.21086" lon="3.91623">
        <ele>170.29</ele>
        <time>2021-08-09T10:09:20Z</time>
      </trkpt>
      <trkpt lat="49.21071" lon="3.91637">
        <ele>170.77</ele>
        <time>2021-08-09T10:09:26Z</time>
      </trkpt>
      <trkpt lat="49.21051" lon="3.91652">
        <ele>172.21</ele>
        <time>2021-08-09T10:09:34Z</time>
      </trkpt>
      <trkpt lat="49.21037" lon="3.91657">
        <ele>172.69</ele>
        <time>2021-08-09T10:09:40Z</time>
      </trkpt>
      <trkpt lat="49.21013" lon="3.91671">
        <ele>173.17</ele>
        <time>2021-08-09T10:09:49Z</time>
      </trkpt>
      <trkpt lat="49.20994" lon="3.9168">
        <ele>173.66</ele>
        <time>2021-08-09T10:09:56Z</time>
      </trkpt>
      <trkpt lat="49.20978" lon="3.91688">
        <ele>174.62</ele>
        <time>2021-08-09T10:10:03Z</time>
      </trkpt>
      <trkpt lat="49.20953" lon="3.91702">
        <ele>175.58</ele>
        <time>2021-08-09T10:10:12Z</time>
      </trkpt>
      <trkpt lat="49.20938" lon="3.9171">
        <ele>176.06</ele>
        <time>2021-08-09T10:10:18Z</time>
      </trkpt>
      <trkpt lat="49.20925" lon="3.91717">
        <ele>176.54</ele>
        <time>2021-08-09T10:10:23Z</time>
      </trkpt>
      <trkpt lat="49.20902" lon="3.91736">
        <ele>177.5</ele>
        <time>2021-08-09T10:10:32Z</time>
      </trkpt>
      <trkpt lat="49.20881" lon="3.9175">
        <ele>178.46</ele>
        <time>2021-08-09T10:10:38Z</time>
      </trkpt>
      <trkpt lat="49.20853" lon="3.9177">
        <ele>178.46</ele>
        <time>2021-08-09T10:10:47Z</time>
      </trkpt>
      <trkpt lat="49.20831" lon="3.91789">
        <ele>180.38</ele>
        <time>2021-08-09T10:10:54Z</time>
      </trkpt>
      <trkpt lat="49.20827" lon="3.91791">
        <ele>180.38</ele>
        <time>2021-08-09T10:10:55Z</time>
      </trkpt>
      <trkpt lat="49.20823" lon="3.91792">
        <ele>180.38</ele>
        <time>2021-08-09T10:10:56Z</time>
      </trkpt>
      <trkpt lat="49.20815" lon="3.91797">
        <ele>180.38</ele>
        <time>2021-08-09T10:10:58Z</time>
      </trkpt>
      <trkpt lat="49.20786" lon="3.91819">
        <ele>180.38</ele>
        <time>2021-08-09T10:11:06Z</time>
      </trkpt>
      <trkpt lat="49.2077" lon="3.91833">
        <ele>181.35</ele>
        <time>2021-08-09T10:11:11Z</time>
      </trkpt>
      <trkpt lat="49.20747" lon="3.91866">
        <ele>181.35</ele>
        <time>2021-08-09T10:11:20Z</time>
      </trkpt>
      <trkpt lat="49.20732" lon="3.91906">
        <ele>182.31</ele>
        <time>2021-08-09T10:11:29Z</time>
      </trkpt>
      <trkpt lat="49.20726" lon="3.91939">
        <ele>183.27</ele>
        <time>2021-08-09T10:11:37Z</time>
      </trkpt>
      <trkpt lat="49.20724" lon="3.91973">
        <ele>184.23</ele>
        <time>2021-08-09T10:11:45Z</time>
      </trkpt>
      <trkpt lat="49.20729" lon="3.92005">
        <ele>186.15</ele>
        <time>2021-08-09T10:11:54Z</time>
      </trkpt>
      <trkpt lat="49.2074" lon="3.92015">
        <ele>186.63</ele>
        <time>2021-08-09T10:11:59Z</time>
      </trkpt>
      <trkpt lat="49.20748" lon="3.92021">
        <ele>188.08</ele>
        <time>2021-08-09T10:12:02Z</time>
      </trkpt>
      <trkpt lat="49.20773" lon="3.92044">
        <ele>188.08</ele>
        <time>2021-08-09T10:12:12Z</time>
      </trkpt>
      <trkpt lat="49.20796" lon="3.92067">
        <ele>188.56</ele>
        <time>2021-08-09T10:12:21Z</time>
      </trkpt>
      <trkpt lat="49.20797" lon="3.92072">
        <ele>188.56</ele>
        <time>2021-08-09T10:12:22Z</time>
      </trkpt>
      <trkpt lat="49.20798" lon="3.92077">
        <ele>188.56</ele>
        <time>2021-08-09T10:12:23Z</time>
      </trkpt>
      <trkpt lat="49.20796" lon="3.92082">
        <ele>189.04</ele>
        <time>2021-08-09T10:12:24Z</time>
      </trkpt>
      <trkpt lat="49.20795" lon="3.92085">
        <ele>189.52</ele>
        <time>2021-08-09T10:12:25Z</time>
      </trkpt>
      <trkpt lat="49.20793" lon="3.92088">
        <ele>189.52</ele>
        <time>2021-08-09T10:12:26Z</time>
      </trkpt>
      <trkpt lat="49.20791" lon="3.92091">
        <ele>190</ele>
        <time>2021-08-09T10:12:27Z</time>
      </trkpt>
      <trkpt lat="49.2079" lon="3.92094">
        <ele>190.96</ele>
        <time>2021-08-09T10:12:28Z</time>
      </trkpt>
      <trkpt lat="49.20763" lon="3.92142">
        <ele>193.36</ele>
        <time>2021-08-09T10:12:42Z</time>
      </trkpt>
      <trkpt lat="49.2075" lon="3.92175">
        <ele>194.32</ele>
        <time>2021-08-09T10:12:51Z</time>
      </trkpt>
      <trkpt lat="49.20742" lon="3.92194">
        <ele>195.28</ele>
        <time>2021-08-09T10:12:58Z</time>
      </trkpt>
      <trkpt lat="49.2073" lon="3.9222">
        <ele>195.77</ele>
        <time>2021-08-09T10:13:08Z</time>
      </trkpt>
      <trkpt lat="49.20717" lon="3.9225">
        <ele>197.21</ele>
        <time>2021-08-09T10:13:19Z</time>
      </trkpt>
      <trkpt lat="49.20709" lon="3.92271">
        <ele>198.17</ele>
        <time>2021-08-09T10:13:27Z</time>
      </trkpt>
      <trkpt lat="49.20697" lon="3.92293">
        <ele>199.61</ele>
        <time>2021-08-09T10:13:36Z</time>
      </trkpt>
      <trkpt lat="49.2069" lon="3.92311">
        <ele>200.57</ele>
        <time>2021-08-09T10:13:43Z</time>
      </trkpt>
      <trkpt lat="49.20686" lon="3.92327">
        <ele>200.57</ele>
        <time>2021-08-09T10:13:48Z</time>
      </trkpt>
      <trkpt lat="49.20678" lon="3.92348">
        <ele>201.53</ele>
        <time>2021-08-09T10:13:56Z</time>
      </trkpt>
      <trkpt lat="49.20665" lon="3.92379">
        <ele>202.98</ele>
        <time>2021-08-09T10:14:07Z</time>
      </trkpt>
      <trkpt lat="49.20657" lon="3.92395">
        <ele>202.98</ele>
        <time>2021-08-09T10:14:13Z</time>
      </trkpt>
      <trkpt lat="49.20644" lon="3.92421">
        <ele>204.42</ele>
        <time>2021-08-09T10:14:22Z</time>
      </trkpt>
      <trkpt lat="49.20631" lon="3.92441">
        <ele>204.42</ele>
        <time>2021-08-09T10:14:30Z</time>
      </trkpt>
      <trkpt lat="49.20619" lon="3.92454">
        <ele>204.9</ele>
        <time>2021-08-09T10:14:36Z</time>
      </trkpt>
      <trkpt lat="49.20603" lon="3.92474">
        <ele>205.38</ele>
        <time>2021-08-09T10:14:45Z</time>
      </trkpt>
      <trkpt lat="49.20587" lon="3.92502">
        <ele>206.34</ele>
        <time>2021-08-09T10:14:55Z</time>
      </trkpt>
      <trkpt lat="49.20579" lon="3.92539">
        <ele>205.86</ele>
        <time>2021-08-09T10:15:04Z</time>
      </trkpt>
      <trkpt lat="49.20571" lon="3.92574">
        <ele>205.86</ele>
        <time>2021-08-09T10:15:12Z</time>
      </trkpt>
      <trkpt lat="49.20565" lon="3.92604">
        <ele>207.78</ele>
        <time>2021-08-09T10:15:19Z</time>
      </trkpt>
      <trkpt lat="49.20577" lon="3.92617">
        <ele>208.26</ele>
        <time>2021-08-09T10:15:25Z</time>
      </trkpt>
      <trkpt lat="49.20589" lon="3.9263">
        <ele>208.74</ele>
        <time>2021-08-09T10:15:31Z</time>
      </trkpt>
      <trkpt lat="49.20603" lon="3.92648">
        <ele>208.74</ele>
        <time>2021-08-09T10:15:37Z</time>
      </trkpt>
      <trkpt lat="49.20624" lon="3.92673">
        <ele>206.82</ele>
        <time>2021-08-09T10:15:45Z</time>
      </trkpt>
      <trkpt lat="49.20632" lon="3.92685">
        <ele>206.34</ele>
        <time>2021-08-09T10:15:51Z</time>
      </trkpt>
      <trkpt lat="49.20632" lon="3.92685">
        <ele>206.34</ele>
        <time>2021-08-09T10:15:58Z</time>
      </trkpt>
      <trkpt lat="49.20632" lon="3.92686">
        <ele>206.34</ele>
        <time>2021-08-09T10:16:11Z</time>
      </trkpt>
      <trkpt lat="49.20633" lon="3.92687">
        <ele>206.34</ele>
        <time>2021-08-09T10:16:27Z</time>
      </trkpt>
      <trkpt lat="49.20634" lon="3.92685">
        <ele>206.34</ele>
        <time>2021-08-09T10:16:46Z</time>
      </trkpt>
      <trkpt lat="49.20633" lon="3.92684">
        <ele>206.34</ele>
        <time>2021-08-09T10:17:06Z</time>
      </trkpt>
      <trkpt lat="49.20632" lon="3.92686">
        <ele>206.34</ele>
        <time>2021-08-09T10:17:18Z</time>
      </trkpt>
      <trkpt lat="49.20633" lon="3.92684">
        <ele>206.34</ele>
        <time>2021-08-09T10:17:33Z</time>
      </trkpt>
      <trkpt lat="49.20633" lon="3.92685">
        <ele>206.34</ele>
        <time>2021-08-09T10:17:49Z</time>
      </trkpt>
      <trkpt lat="49.20639" lon="3.92689">
        <ele>206.34</ele>
        <time>2021-08-09T10:18:00Z</time>
      </trkpt>
      <trkpt lat="49.20653" lon="3.92708">
        <ele>203.94</ele>
        <time>2021-08-09T10:18:05Z</time>
      </trkpt>
      <trkpt lat="49.20671" lon="3.92727">
        <ele>201.05</ele>
        <time>2021-08-09T10:18:10Z</time>
      </trkpt>
      <trkpt lat="49.20676" lon="3.92736">
        <ele>199.61</ele>
        <time>2021-08-09T10:18:13Z</time>
      </trkpt>
      <trkpt lat="49.20677" lon="3.9274">
        <ele>199.13</ele>
        <time>2021-08-09T10:18:14Z</time>
      </trkpt>
      <trkpt lat="49.20676" lon="3.92743">
        <ele>199.13</ele>
        <time>2021-08-09T10:18:15Z</time>
      </trkpt>
      <trkpt lat="49.20676" lon="3.92745">
        <ele>199.13</ele>
        <time>2021-08-09T10:18:16Z</time>
      </trkpt>
      <trkpt lat="49.20676" lon="3.92748">
        <ele>199.13</ele>
        <time>2021-08-09T10:18:17Z</time>
      </trkpt>
      <trkpt lat="49.20675" lon="3.9275">
        <ele>199.13</ele>
        <time>2021-08-09T10:18:18Z</time>
      </trkpt>
      <trkpt lat="49.20674" lon="3.92752">
        <ele>199.13</ele>
        <time>2021-08-09T10:18:19Z</time>
      </trkpt>
      <trkpt lat="49.20673" lon="3.92754">
        <ele>199.13</ele>
        <time>2021-08-09T10:18:20Z</time>
      </trkpt>
      <trkpt lat="49.20672" lon="3.92756">
        <ele>200.57</ele>
        <time>2021-08-09T10:18:21Z</time>
      </trkpt>
      <trkpt lat="49.20671" lon="3.92758">
        <ele>200.57</ele>
        <time>2021-08-09T10:18:22Z</time>
      </trkpt>
      <trkpt lat="49.2067" lon="3.9276">
        <ele>200.57</ele>
        <time>2021-08-09T10:18:23Z</time>
      </trkpt>
      <trkpt lat="49.20669" lon="3.92763">
        <ele>201.05</ele>
        <time>2021-08-09T10:18:24Z</time>
      </trkpt>
      <trkpt lat="49.20665" lon="3.92777">
        <ele>202.49</ele>
        <time>2021-08-09T10:18:31Z</time>
      </trkpt>
      <trkpt lat="49.20658" lon="3.92796">
        <ele>203.94</ele>
        <time>2021-08-09T10:18:39Z</time>
      </trkpt>
      <trkpt lat="49.2065" lon="3.92816">
        <ele>204.9</ele>
        <time>2021-08-09T10:18:47Z</time>
      </trkpt>
      <trkpt lat="49.20646" lon="3.92825">
        <ele>205.38</ele>
        <time>2021-08-09T10:18:51Z</time>
      </trkpt>
      <trkpt lat="49.20632" lon="3.92841">
        <ele>206.82</ele>
        <time>2021-08-09T10:19:01Z</time>
      </trkpt>
      <trkpt lat="49.20622" lon="3.92861">
        <ele>207.78</ele>
        <time>2021-08-09T10:19:08Z</time>
      </trkpt>
      <trkpt lat="49.2061" lon="3.92892">
        <ele>209.22</ele>
        <time>2021-08-09T10:19:18Z</time>
      </trkpt>
      <trkpt lat="49.20595" lon="3.92919">
        <ele>210.19</ele>
        <time>2021-08-09T10:19:28Z</time>
      </trkpt>
      <trkpt lat="49.20582" lon="3.9293">
        <ele>211.15</ele>
        <time>2021-08-09T10:19:37Z</time>
      </trkpt>
      <trkpt lat="49.20571" lon="3.92936">
        <ele>213.07</ele>
        <time>2021-08-09T10:19:46Z</time>
      </trkpt>
      <trkpt lat="49.20559" lon="3.92949">
        <ele>215.47</ele>
        <time>2021-08-09T10:19:56Z</time>
      </trkpt>
      <trkpt lat="49.20558" lon="3.92951">
        <ele>215.95</ele>
        <time>2021-08-09T10:19:57Z</time>
      </trkpt>
      <trkpt lat="49.20557" lon="3.92952">
        <ele>215.95</ele>
        <time>2021-08-09T10:19:58Z</time>
      </trkpt>
      <trkpt lat="49.20556" lon="3.92954">
        <ele>215.95</ele>
        <time>2021-08-09T10:19:59Z</time>
      </trkpt>
      <trkpt lat="49.20555" lon="3.92955">
        <ele>215.95</ele>
        <time>2021-08-09T10:20:00Z</time>
      </trkpt>
      <trkpt lat="49.20554" lon="3.92957">
        <ele>216.43</ele>
        <time>2021-08-09T10:20:01Z</time>
      </trkpt>
      <trkpt lat="49.20553" lon="3.92958">
        <ele>216.43</ele>
        <time>2021-08-09T10:20:02Z</time>
      </trkpt>
      <trkpt lat="49.20552" lon="3.92959">
        <ele>216.91</ele>
        <time>2021-08-09T10:20:03Z</time>
      </trkpt>
      <trkpt lat="49.20551" lon="3.92961">
        <ele>216.91</ele>
        <time>2021-08-09T10:20:04Z</time>
      </trkpt>
      <trkpt lat="49.2055" lon="3.92963">
        <ele>217.4</ele>
        <time>2021-08-09T10:20:05Z</time>
      </trkpt>
      <trkpt lat="49.20549" lon="3.92964">
        <ele>217.4</ele>
        <time>2021-08-09T10:20:06Z</time>
      </trkpt>
      <trkpt lat="49.20548" lon="3.92966">
        <ele>217.4</ele>
        <time>2021-08-09T10:20:07Z</time>
      </trkpt>
      <trkpt lat="49.20547" lon="3.92968">
        <ele>217.4</ele>
        <time>2021-08-09T10:20:08Z</time>
      </trkpt>
      <trkpt lat="49.20546" lon="3.9297">
        <ele>217.88</ele>
        <time>2021-08-09T10:20:09Z</time>
      </trkpt>
      <trkpt lat="49.20545" lon="3.92971">
        <ele>217.88</ele>
        <time>2021-08-09T10:20:10Z</time>
      </trkpt>
      <trkpt lat="49.20544" lon="3.92973">
        <ele>217.88</ele>
        <time>2021-08-09T10:20:11Z</time>
      </trkpt>
      <trkpt lat="49.20543" lon="3.92975">
        <ele>218.36</ele>
        <time>2021-08-09T10:20:12Z</time>
      </trkpt>
      <trkpt lat="49.20542" lon="3.92976">
        <ele>218.36</ele>
        <time>2021-08-09T10:20:13Z</time>
      </trkpt>
      <trkpt lat="49.2054" lon="3.92978">
        <ele>218.36</ele>
        <time>2021-08-09T10:20:14Z</time>
      </trkpt>
      <trkpt lat="49.20527" lon="3.92996">
        <ele>219.32</ele>
        <time>2021-08-09T10:20:24Z</time>
      </trkpt>
      <trkpt lat="49.20517" lon="3.93001">
        <ele>221.24</ele>
        <time>2021-08-09T10:20:31Z</time>
      </trkpt>
      <trkpt lat="49.20499" lon="3.93015">
        <ele>222.2</ele>
        <time>2021-08-09T10:20:41Z</time>
      </trkpt>
      <trkpt lat="49.20482" lon="3.93023">
        <ele>223.16</ele>
        <time>2021-08-09T10:20:50Z</time>
      </trkpt>
      <trkpt lat="49.20475" lon="3.93024">
        <ele>223.64</ele>
        <time>2021-08-09T10:20:54Z</time>
      </trkpt>
      <trkpt lat="49.20473" lon="3.93022">
        <ele>223.64</ele>
        <time>2021-08-09T10:20:55Z</time>
      </trkpt>
      <trkpt lat="49.20473" lon="3.9302">
        <ele>223.64</ele>
        <time>2021-08-09T10:20:56Z</time>
      </trkpt>
      <trkpt lat="49.20474" lon="3.93019">
        <ele>224.12</ele>
        <time>2021-08-09T10:20:57Z</time>
      </trkpt>
      <trkpt lat="49.20476" lon="3.93017">
        <ele>224.12</ele>
        <time>2021-08-09T10:20:58Z</time>
      </trkpt>
      <trkpt lat="49.20477" lon="3.93016">
        <ele>224.12</ele>
        <time>2021-08-09T10:20:59Z</time>
      </trkpt>
      <trkpt lat="49.20478" lon="3.93015">
        <ele>224.12</ele>
        <time>2021-08-09T10:21:00Z</time>
      </trkpt>
      <trkpt lat="49.2048" lon="3.93013">
        <ele>224.61</ele>
        <time>2021-08-09T10:21:01Z</time>
      </trkpt>
      <trkpt lat="49.20481" lon="3.93012">
        <ele>224.61</ele>
        <time>2021-08-09T10:21:02Z</time>
      </trkpt>
      <trkpt lat="49.20482" lon="3.93011">
        <ele>224.61</ele>
        <time>2021-08-09T10:21:03Z</time>
      </trkpt>
      <trkpt lat="49.20484" lon="3.9301">
        <ele>224.61</ele>
        <time>2021-08-09T10:21:04Z</time>
      </trkpt>
      <trkpt lat="49.20486" lon="3.9301">
        <ele>224.61</ele>
        <time>2021-08-09T10:21:09Z</time>
      </trkpt>
      <trkpt lat="49.20486" lon="3.9301">
        <ele>224.61</ele>
        <time>2021-08-09T10:21:25Z</time>
      </trkpt>
      <trkpt lat="49.20488" lon="3.9301">
        <ele>225.09</ele>
        <time>2021-08-09T10:21:42Z</time>
      </trkpt>
      <trkpt lat="49.20492" lon="3.93003">
        <ele>224.61</ele>
        <time>2021-08-09T10:21:51Z</time>
      </trkpt>
      <trkpt lat="49.20495" lon="3.92985">
        <ele>226.05</ele>
        <time>2021-08-09T10:21:58Z</time>
      </trkpt>
      <trkpt lat="49.20493" lon="3.92962">
        <ele>227.49</ele>
        <time>2021-08-09T10:22:07Z</time>
      </trkpt>
      <trkpt lat="49.20491" lon="3.92941">
        <ele>228.45</ele>
        <time>2021-08-09T10:22:14Z</time>
      </trkpt>
      <trkpt lat="49.20484" lon="3.92912">
        <ele>228.93</ele>
        <time>2021-08-09T10:22:23Z</time>
      </trkpt>
      <trkpt lat="49.20475" lon="3.92894">
        <ele>229.89</ele>
        <time>2021-08-09T10:22:29Z</time>
      </trkpt>
      <trkpt lat="49.20473" lon="3.92893">
        <ele>229.89</ele>
        <time>2021-08-09T10:22:30Z</time>
      </trkpt>
      <trkpt lat="49.20458" lon="3.92895">
        <ele>231.81</ele>
        <time>2021-08-09T10:22:38Z</time>
      </trkpt>
      <trkpt lat="49.20448" lon="3.92902">
        <ele>232.3</ele>
        <time>2021-08-09T10:22:44Z</time>
      </trkpt>
      <trkpt lat="49.20447" lon="3.92905">
        <ele>232.3</ele>
        <time>2021-08-09T10:22:45Z</time>
      </trkpt>
      <trkpt lat="49.20441" lon="3.92914">
        <ele>234.22</ele>
        <time>2021-08-09T10:22:53Z</time>
      </trkpt>
      <trkpt lat="49.20439" lon="3.92914">
        <ele>234.22</ele>
        <time>2021-08-09T10:22:59Z</time>
      </trkpt>
      <trkpt lat="49.20441" lon="3.92913">
        <ele>234.22</ele>
        <time>2021-08-09T10:23:02Z</time>
      </trkpt>
      <trkpt lat="49.20442" lon="3.92911">
        <ele>234.22</ele>
        <time>2021-08-09T10:23:03Z</time>
      </trkpt>
      <trkpt lat="49.20443" lon="3.92909">
        <ele>234.22</ele>
        <time>2021-08-09T10:23:04Z</time>
      </trkpt>
      <trkpt lat="49.20442" lon="3.92905">
        <ele>232.78</ele>
        <time>2021-08-09T10:23:06Z</time>
      </trkpt>
      <trkpt lat="49.2044" lon="3.92903">
        <ele>232.78</ele>
        <time>2021-08-09T10:23:08Z</time>
      </trkpt>
      <trkpt lat="49.2043" lon="3.92907">
        <ele>231.81</ele>
        <time>2021-08-09T10:23:14Z</time>
      </trkpt>
      <trkpt lat="49.20422" lon="3.92912">
        <ele>230.37</ele>
        <time>2021-08-09T10:23:17Z</time>
      </trkpt>
      <trkpt lat="49.20418" lon="3.92917">
        <ele>229.89</ele>
        <time>2021-08-09T10:23:18Z</time>
      </trkpt>
      <trkpt lat="49.20416" lon="3.92923">
        <ele>229.89</ele>
        <time>2021-08-09T10:23:19Z</time>
      </trkpt>
      <trkpt lat="49.20414" lon="3.92929">
        <ele>229.89</ele>
        <time>2021-08-09T10:23:20Z</time>
      </trkpt>
      <trkpt lat="49.20413" lon="3.92936">
        <ele>229.89</ele>
        <time>2021-08-09T10:23:21Z</time>
      </trkpt>
      <trkpt lat="49.20412" lon="3.92942">
        <ele>229.41</ele>
        <time>2021-08-09T10:23:22Z</time>
      </trkpt>
      <trkpt lat="49.20412" lon="3.92949">
        <ele>229.41</ele>
        <time>2021-08-09T10:23:23Z</time>
      </trkpt>
      <trkpt lat="49.20412" lon="3.92955">
        <ele>228.45</ele>
        <time>2021-08-09T10:23:24Z</time>
      </trkpt>
      <trkpt lat="49.20412" lon="3.92969">
        <ele>227.97</ele>
        <time>2021-08-09T10:23:26Z</time>
      </trkpt>
      <trkpt lat="49.20411" lon="3.92996">
        <ele>224.61</ele>
        <time>2021-08-09T10:23:30Z</time>
      </trkpt>
      <trkpt lat="49.20403" lon="3.93019">
        <ele>222.2</ele>
        <time>2021-08-09T10:23:35Z</time>
      </trkpt>
      <trkpt lat="49.20402" lon="3.93023">
        <ele>221.72</ele>
        <time>2021-08-09T10:23:37Z</time>
      </trkpt>
      <trkpt lat="49.20402" lon="3.93027">
        <ele>221.24</ele>
        <time>2021-08-09T10:23:38Z</time>
      </trkpt>
      <trkpt lat="49.20403" lon="3.9303">
        <ele>221.24</ele>
        <time>2021-08-09T10:23:39Z</time>
      </trkpt>
      <trkpt lat="49.20405" lon="3.93032">
        <ele>220.76</ele>
        <time>2021-08-09T10:23:40Z</time>
      </trkpt>
      <trkpt lat="49.20407" lon="3.93032">
        <ele>220.76</ele>
        <time>2021-08-09T10:23:41Z</time>
      </trkpt>
      <trkpt lat="49.2041" lon="3.93032">
        <ele>220.76</ele>
        <time>2021-08-09T10:23:42Z</time>
      </trkpt>
      <trkpt lat="49.20411" lon="3.93032">
        <ele>220.76</ele>
        <time>2021-08-09T10:23:43Z</time>
      </trkpt>
      <trkpt lat="49.20413" lon="3.93033">
        <ele>220.76</ele>
        <time>2021-08-09T10:23:44Z</time>
      </trkpt>
      <trkpt lat="49.20413" lon="3.93036">
        <ele>220.76</ele>
        <time>2021-08-09T10:23:45Z</time>
      </trkpt>
      <trkpt lat="49.20413" lon="3.93039">
        <ele>220.76</ele>
        <time>2021-08-09T10:23:46Z</time>
      </trkpt>
      <trkpt lat="49.20413" lon="3.93041">
        <ele>220.76</ele>
        <time>2021-08-09T10:23:47Z</time>
      </trkpt>
      <trkpt lat="49.20412" lon="3.93047">
        <ele>219.8</ele>
        <time>2021-08-09T10:23:53Z</time>
      </trkpt>
      <trkpt lat="49.20405" lon="3.93077">
        <ele>216.43</ele>
        <time>2021-08-09T10:23:58Z</time>
      </trkpt>
      <trkpt lat="49.20403" lon="3.93084">
        <ele>215.95</ele>
        <time>2021-08-09T10:23:59Z</time>
      </trkpt>
      <trkpt lat="49.20396" lon="3.9311">
        <ele>214.03</ele>
        <time>2021-08-09T10:24:02Z</time>
      </trkpt>
      <trkpt lat="49.20391" lon="3.93129">
        <ele>212.11</ele>
        <time>2021-08-09T10:24:04Z</time>
      </trkpt>
      <trkpt lat="49.20382" lon="3.93162">
        <ele>209.22</ele>
        <time>2021-08-09T10:24:08Z</time>
      </trkpt>
      <trkpt lat="49.2038" lon="3.9317">
        <ele>209.22</ele>
        <time>2021-08-09T10:24:09Z</time>
      </trkpt>
      <trkpt lat="49.20374" lon="3.93196">
        <ele>205.38</ele>
        <time>2021-08-09T10:24:12Z</time>
      </trkpt>
      <trkpt lat="49.20366" lon="3.93228">
        <ele>202.49</ele>
        <time>2021-08-09T10:24:17Z</time>
      </trkpt>
      <trkpt lat="49.20361" lon="3.93247">
        <ele>200.09</ele>
        <time>2021-08-09T10:24:21Z</time>
      </trkpt>
      <trkpt lat="49.20355" lon="3.93269">
        <ele>196.73</ele>
        <time>2021-08-09T10:24:26Z</time>
      </trkpt>
      <trkpt lat="49.20349" lon="3.93288">
        <ele>192.88</ele>
        <time>2021-08-09T10:24:29Z</time>
      </trkpt>
      <trkpt lat="49.20344" lon="3.93311">
        <ele>190.48</ele>
        <time>2021-08-09T10:24:32Z</time>
      </trkpt>
      <trkpt lat="49.20342" lon="3.93317">
        <ele>189.52</ele>
        <time>2021-08-09T10:24:33Z</time>
      </trkpt>
      <trkpt lat="49.20338" lon="3.93327">
        <ele>188.56</ele>
        <time>2021-08-09T10:24:35Z</time>
      </trkpt>
      <trkpt lat="49.20336" lon="3.93332">
        <ele>188.08</ele>
        <time>2021-08-09T10:24:36Z</time>
      </trkpt>
      <trkpt lat="49.20319" lon="3.93359">
        <ele>184.23</ele>
        <time>2021-08-09T10:24:41Z</time>
      </trkpt>
      <trkpt lat="49.20307" lon="3.93379">
        <ele>180.87</ele>
        <time>2021-08-09T10:24:44Z</time>
      </trkpt>
      <trkpt lat="49.20293" lon="3.93403">
        <ele>178.94</ele>
        <time>2021-08-09T10:24:48Z</time>
      </trkpt>
      <trkpt lat="49.20282" lon="3.93422">
        <ele>176.54</ele>
        <time>2021-08-09T10:24:51Z</time>
      </trkpt>
      <trkpt lat="49.20269" lon="3.93446">
        <ele>173.66</ele>
        <time>2021-08-09T10:24:54Z</time>
      </trkpt>
      <trkpt lat="49.20253" lon="3.93472">
        <ele>170.29</ele>
        <time>2021-08-09T10:24:59Z</time>
      </trkpt>
      <trkpt lat="49.20249" lon="3.93474">
        <ele>170.29</ele>
        <time>2021-08-09T10:25:00Z</time>
      </trkpt>
      <trkpt lat="49.20245" lon="3.93475">
        <ele>169.81</ele>
        <time>2021-08-09T10:25:01Z</time>
      </trkpt>
      <trkpt lat="49.20241" lon="3.93476">
        <ele>169.81</ele>
        <time>2021-08-09T10:25:02Z</time>
      </trkpt>
      <trkpt lat="49.20236" lon="3.93476">
        <ele>169.33</ele>
        <time>2021-08-09T10:25:03Z</time>
      </trkpt>
      <trkpt lat="49.20214" lon="3.93475">
        <ele>169.33</ele>
        <time>2021-08-09T10:25:08Z</time>
      </trkpt>
      <trkpt lat="49.2021" lon="3.93474">
        <ele>169.33</ele>
        <time>2021-08-09T10:25:09Z</time>
      </trkpt>
      <trkpt lat="49.20206" lon="3.93473">
        <ele>169.33</ele>
        <time>2021-08-09T10:25:10Z</time>
      </trkpt>
      <trkpt lat="49.20202" lon="3.93472">
        <ele>169.33</ele>
        <time>2021-08-09T10:25:11Z</time>
      </trkpt>
      <trkpt lat="49.20198" lon="3.93472">
        <ele>169.33</ele>
        <time>2021-08-09T10:25:12Z</time>
      </trkpt>
      <trkpt lat="49.20194" lon="3.93471">
        <ele>169.33</ele>
        <time>2021-08-09T10:25:13Z</time>
      </trkpt>
      <trkpt lat="49.20191" lon="3.9347">
        <ele>169.33</ele>
        <time>2021-08-09T10:25:14Z</time>
      </trkpt>
      <trkpt lat="49.20188" lon="3.9347">
        <ele>169.33</ele>
        <time>2021-08-09T10:25:15Z</time>
      </trkpt>
      <trkpt lat="49.20184" lon="3.93469">
        <ele>169.33</ele>
        <time>2021-08-09T10:25:16Z</time>
      </trkpt>
      <trkpt lat="49.20181" lon="3.93469">
        <ele>169.33</ele>
        <time>2021-08-09T10:25:17Z</time>
      </trkpt>
      <trkpt lat="49.20177" lon="3.93469">
        <ele>169.33</ele>
        <time>2021-08-09T10:25:18Z</time>
      </trkpt>
      <trkpt lat="49.20165" lon="3.93468">
        <ele>170.77</ele>
        <time>2021-08-09T10:25:22Z</time>
      </trkpt>
      <trkpt lat="49.20162" lon="3.93469">
        <ele>170.77</ele>
        <time>2021-08-09T10:25:23Z</time>
      </trkpt>
      <trkpt lat="49.2014" lon="3.93466">
        <ele>170.77</ele>
        <time>2021-08-09T10:25:30Z</time>
      </trkpt>
      <trkpt lat="49.20122" lon="3.93457">
        <ele>172.21</ele>
        <time>2021-08-09T10:25:37Z</time>
      </trkpt>
      <trkpt lat="49.20112" lon="3.93457">
        <ele>173.17</ele>
        <time>2021-08-09T10:25:43Z</time>
      </trkpt>
      <trkpt lat="49.2011" lon="3.93455">
        <ele>173.17</ele>
        <time>2021-08-09T10:25:44Z</time>
      </trkpt>
      <trkpt lat="49.20108" lon="3.93454">
        <ele>173.17</ele>
        <time>2021-08-09T10:25:45Z</time>
      </trkpt>
      <trkpt lat="49.20106" lon="3.93455">
        <ele>173.17</ele>
        <time>2021-08-09T10:25:46Z</time>
      </trkpt>
      <trkpt lat="49.20104" lon="3.93456">
        <ele>173.66</ele>
        <time>2021-08-09T10:25:47Z</time>
      </trkpt>
      <trkpt lat="49.20102" lon="3.93457">
        <ele>173.66</ele>
        <time>2021-08-09T10:25:48Z</time>
      </trkpt>
      <trkpt lat="49.20101" lon="3.93458">
        <ele>173.66</ele>
        <time>2021-08-09T10:25:49Z</time>
      </trkpt>
      <trkpt lat="49.201" lon="3.93459">
        <ele>173.66</ele>
        <time>2021-08-09T10:25:50Z</time>
      </trkpt>
      <trkpt lat="49.20099" lon="3.93461">
        <ele>174.14</ele>
        <time>2021-08-09T10:25:51Z</time>
      </trkpt>
      <trkpt lat="49.20098" lon="3.93462">
        <ele>174.14</ele>
        <time>2021-08-09T10:25:52Z</time>
      </trkpt>
      <trkpt lat="49.20084" lon="3.9348">
        <ele>174.14</ele>
        <time>2021-08-09T10:26:00Z</time>
      </trkpt>
      <trkpt lat="49.20073" lon="3.93495">
        <ele>173.17</ele>
        <time>2021-08-09T10:26:04Z</time>
      </trkpt>
      <trkpt lat="49.2007" lon="3.93499">
        <ele>173.17</ele>
        <time>2021-08-09T10:26:05Z</time>
      </trkpt>
      <trkpt lat="49.20064" lon="3.9351">
        <ele>172.69</ele>
        <time>2021-08-09T10:26:07Z</time>
      </trkpt>
      <trkpt lat="49.20061" lon="3.93515">
        <ele>171.73</ele>
        <time>2021-08-09T10:26:08Z</time>
      </trkpt>
      <trkpt lat="49.20059" lon="3.9352">
        <ele>171.73</ele>
        <time>2021-08-09T10:26:09Z</time>
      </trkpt>
      <trkpt lat="49.20057" lon="3.93523">
        <ele>171.73</ele>
        <time>2021-08-09T10:26:10Z</time>
      </trkpt>
      <trkpt lat="49.20056" lon="3.93526">
        <ele>171.73</ele>
        <time>2021-08-09T10:26:11Z</time>
      </trkpt>
      <trkpt lat="49.20055" lon="3.93527">
        <ele>171.73</ele>
        <time>2021-08-09T10:26:12Z</time>
      </trkpt>
      <trkpt lat="49.20054" lon="3.93528">
        <ele>171.73</ele>
        <time>2021-08-09T10:26:13Z</time>
      </trkpt>
      <trkpt lat="49.20053" lon="3.93528">
        <ele>171.73</ele>
        <time>2021-08-09T10:26:20Z</time>
      </trkpt>
      <trkpt lat="49.20052" lon="3.93528">
        <ele>171.73</ele>
        <time>2021-08-09T10:26:35Z</time>
      </trkpt>
      <trkpt lat="49.20051" lon="3.93529">
        <ele>171.73</ele>
        <time>2021-08-09T10:26:49Z</time>
      </trkpt>
      <trkpt lat="49.20051" lon="3.93528">
        <ele>171.73</ele>
        <time>2021-08-09T10:27:08Z</time>
      </trkpt>
      <trkpt lat="49.2005" lon="3.93528">
        <ele>171.73</ele>
        <time>2021-08-09T10:27:24Z</time>
      </trkpt>
      <trkpt lat="49.20049" lon="3.93529">
        <ele>171.73</ele>
        <time>2021-08-09T10:27:33Z</time>
      </trkpt>
      <trkpt lat="49.20048" lon="3.93529">
        <ele>171.73</ele>
        <time>2021-08-09T10:27:37Z</time>
      </trkpt>
      <trkpt lat="49.20046" lon="3.93529">
        <ele>171.73</ele>
        <time>2021-08-09T10:27:39Z</time>
      </trkpt>
      <trkpt lat="49.20044" lon="3.93526">
        <ele>172.21</ele>
        <time>2021-08-09T10:27:41Z</time>
      </trkpt>
      <trkpt lat="49.20043" lon="3.93524">
        <ele>171.73</ele>
        <time>2021-08-09T10:27:42Z</time>
      </trkpt>
      <trkpt lat="49.20038" lon="3.93515">
        <ele>173.17</ele>
        <time>2021-08-09T10:27:46Z</time>
      </trkpt>
      <trkpt lat="49.20027" lon="3.93501">
        <ele>174.62</ele>
        <time>2021-08-09T10:27:54Z</time>
      </trkpt>
      <trkpt lat="49.20013" lon="3.93485">
        <ele>175.1</ele>
        <time>2021-08-09T10:28:04Z</time>
      </trkpt>
      <trkpt lat="49.20001" lon="3.93481">
        <ele>177.02</ele>
        <time>2021-08-09T10:28:11Z</time>
      </trkpt>
      <trkpt lat="49.19983" lon="3.93484">
        <ele>178.46</ele>
        <time>2021-08-09T10:28:22Z</time>
      </trkpt>
      <trkpt lat="49.19972" lon="3.93488">
        <ele>178.46</ele>
        <time>2021-08-09T10:28:30Z</time>
      </trkpt>
      <trkpt lat="49.19956" lon="3.93494">
        <ele>179.42</ele>
        <time>2021-08-09T10:28:38Z</time>
      </trkpt>
      <trkpt lat="49.1994" lon="3.93495">
        <ele>181.35</ele>
        <time>2021-08-09T10:28:46Z</time>
      </trkpt>
      <trkpt lat="49.19928" lon="3.93485">
        <ele>183.27</ele>
        <time>2021-08-09T10:28:54Z</time>
      </trkpt>
      <trkpt lat="49.19917" lon="3.9348">
        <ele>184.23</ele>
        <time>2021-08-09T10:29:01Z</time>
      </trkpt>
      <trkpt lat="49.19903" lon="3.93476">
        <ele>185.67</ele>
        <time>2021-08-09T10:29:10Z</time>
      </trkpt>
      <trkpt lat="49.19893" lon="3.93462">
        <ele>187.59</ele>
        <time>2021-08-09T10:29:19Z</time>
      </trkpt>
      <trkpt lat="49.19886" lon="3.93442">
        <ele>189.52</ele>
        <time>2021-08-09T10:29:29Z</time>
      </trkpt>
      <trkpt lat="49.19877" lon="3.93423">
        <ele>191.92</ele>
        <time>2021-08-09T10:29:39Z</time>
      </trkpt>
      <trkpt lat="49.19869" lon="3.93403">
        <ele>193.36</ele>
        <time>2021-08-09T10:29:49Z</time>
      </trkpt>
      <trkpt lat="49.19858" lon="3.93396">
        <ele>194.32</ele>
        <time>2021-08-09T10:29:58Z</time>
      </trkpt>
      <trkpt lat="49.19848" lon="3.93395">
        <ele>195.77</ele>
        <time>2021-08-09T10:30:05Z</time>
      </trkpt>
      <trkpt lat="49.19847" lon="3.93395">
        <ele>195.77</ele>
        <time>2021-08-09T10:30:06Z</time>
      </trkpt>
      <trkpt lat="49.19845" lon="3.93395">
        <ele>195.77</ele>
        <time>2021-08-09T10:30:07Z</time>
      </trkpt>
      <trkpt lat="49.1983" lon="3.93394">
        <ele>197.21</ele>
        <time>2021-08-09T10:30:18Z</time>
      </trkpt>
      <trkpt lat="49.19816" lon="3.93392">
        <ele>199.61</ele>
        <time>2021-08-09T10:30:29Z</time>
      </trkpt>
      <trkpt lat="49.19803" lon="3.93391">
        <ele>200.09</ele>
        <time>2021-08-09T10:30:39Z</time>
      </trkpt>
      <trkpt lat="49.19802" lon="3.9339">
        <ele>200.09</ele>
        <time>2021-08-09T10:30:40Z</time>
      </trkpt>
      <trkpt lat="49.19801" lon="3.9339">
        <ele>200.57</ele>
        <time>2021-08-09T10:30:41Z</time>
      </trkpt>
      <trkpt lat="49.19791" lon="3.93389">
        <ele>201.05</ele>
        <time>2021-08-09T10:30:49Z</time>
      </trkpt>
      <trkpt lat="49.19784" lon="3.93389">
        <ele>202.49</ele>
        <time>2021-08-09T10:30:54Z</time>
      </trkpt>
      <trkpt lat="49.19771" lon="3.93387">
        <ele>203.94</ele>
        <time>2021-08-09T10:31:04Z</time>
      </trkpt>
      <trkpt lat="49.19759" lon="3.93388">
        <ele>205.86</ele>
        <time>2021-08-09T10:31:13Z</time>
      </trkpt>
      <trkpt lat="49.19748" lon="3.93388">
        <ele>206.34</ele>
        <time>2021-08-09T10:31:22Z</time>
      </trkpt>
      <trkpt lat="49.19742" lon="3.93388">
        <ele>206.82</ele>
        <time>2021-08-09T10:31:26Z</time>
      </trkpt>
      <trkpt lat="49.19741" lon="3.93388">
        <ele>206.82</ele>
        <time>2021-08-09T10:31:27Z</time>
      </trkpt>
      <trkpt lat="49.19739" lon="3.93388">
        <ele>206.82</ele>
        <time>2021-08-09T10:31:28Z</time>
      </trkpt>
      <trkpt lat="49.19727" lon="3.9339">
        <ele>208.26</ele>
        <time>2021-08-09T10:31:37Z</time>
      </trkpt>
      <trkpt lat="49.19716" lon="3.93389">
        <ele>210.19</ele>
        <time>2021-08-09T10:31:44Z</time>
      </trkpt>
      <trkpt lat="49.19703" lon="3.93388">
        <ele>212.59</ele>
        <time>2021-08-09T10:31:53Z</time>
      </trkpt>
      <trkpt lat="49.19692" lon="3.93388">
        <ele>213.07</ele>
        <time>2021-08-09T10:32:00Z</time>
      </trkpt>
      <trkpt lat="49.19683" lon="3.93384">
        <ele>214.03</ele>
        <time>2021-08-09T10:32:07Z</time>
      </trkpt>
      <trkpt lat="49.19673" lon="3.93382">
        <ele>215.47</ele>
        <time>2021-08-09T10:32:15Z</time>
      </trkpt>
      <trkpt lat="49.19664" lon="3.93379">
        <ele>217.4</ele>
        <time>2021-08-09T10:32:22Z</time>
      </trkpt>
      <trkpt lat="49.19661" lon="3.93378">
        <ele>217.88</ele>
        <time>2021-08-09T10:32:24Z</time>
      </trkpt>
      <trkpt lat="49.1966" lon="3.93378">
        <ele>217.88</ele>
        <time>2021-08-09T10:32:25Z</time>
      </trkpt>
      <trkpt lat="49.19658" lon="3.93377">
        <ele>218.36</ele>
        <time>2021-08-09T10:32:26Z</time>
      </trkpt>
      <trkpt lat="49.19657" lon="3.93377">
        <ele>218.36</ele>
        <time>2021-08-09T10:32:27Z</time>
      </trkpt>
      <trkpt lat="49.19656" lon="3.93376">
        <ele>218.36</ele>
        <time>2021-08-09T10:32:28Z</time>
      </trkpt>
      <trkpt lat="49.19655" lon="3.93376">
        <ele>219.32</ele>
        <time>2021-08-09T10:32:29Z</time>
      </trkpt>
      <trkpt lat="49.19653" lon="3.93375">
        <ele>219.32</ele>
        <time>2021-08-09T10:32:30Z</time>
      </trkpt>
      <trkpt lat="49.19652" lon="3.93375">
        <ele>219.32</ele>
        <time>2021-08-09T10:32:31Z</time>
      </trkpt>
      <trkpt lat="49.19651" lon="3.93375">
        <ele>219.32</ele>
        <time>2021-08-09T10:32:32Z</time>
      </trkpt>
      <trkpt lat="49.1965" lon="3.93374">
        <ele>219.32</ele>
        <time>2021-08-09T10:32:33Z</time>
      </trkpt>
      <trkpt lat="49.19648" lon="3.93374">
        <ele>219.32</ele>
        <time>2021-08-09T10:32:34Z</time>
      </trkpt>
      <trkpt lat="49.19647" lon="3.93374">
        <ele>219.8</ele>
        <time>2021-08-09T10:32:35Z</time>
      </trkpt>
      <trkpt lat="49.19646" lon="3.93373">
        <ele>220.28</ele>
        <time>2021-08-09T10:32:36Z</time>
      </trkpt>
      <trkpt lat="49.19645" lon="3.93373">
        <ele>220.28</ele>
        <time>2021-08-09T10:32:37Z</time>
      </trkpt>
      <trkpt lat="49.19644" lon="3.93373">
        <ele>220.28</ele>
        <time>2021-08-09T10:32:38Z</time>
      </trkpt>
      <trkpt lat="49.19643" lon="3.93372">
        <ele>221.24</ele>
        <time>2021-08-09T10:32:39Z</time>
      </trkpt>
      <trkpt lat="49.19631" lon="3.93369">
        <ele>222.68</ele>
        <time>2021-08-09T10:32:48Z</time>
      </trkpt>
      <trkpt lat="49.1962" lon="3.93365">
        <ele>225.09</ele>
        <time>2021-08-09T10:32:57Z</time>
      </trkpt>
      <trkpt lat="49.19611" lon="3.93364">
        <ele>226.53</ele>
        <time>2021-08-09T10:33:04Z</time>
      </trkpt>
      <trkpt lat="49.1961" lon="3.93364">
        <ele>227.01</ele>
        <time>2021-08-09T10:33:05Z</time>
      </trkpt>
      <trkpt lat="49.19609" lon="3.93365">
        <ele>227.01</ele>
        <time>2021-08-09T10:33:06Z</time>
      </trkpt>
      <trkpt lat="49.19608" lon="3.93364">
        <ele>227.01</ele>
        <time>2021-08-09T10:33:07Z</time>
      </trkpt>
      <trkpt lat="49.19607" lon="3.93364">
        <ele>227.49</ele>
        <time>2021-08-09T10:33:08Z</time>
      </trkpt>
      <trkpt lat="49.19606" lon="3.93363">
        <ele>227.49</ele>
        <time>2021-08-09T10:33:09Z</time>
      </trkpt>
      <trkpt lat="49.19605" lon="3.93362">
        <ele>227.49</ele>
        <time>2021-08-09T10:33:10Z</time>
      </trkpt>
      <trkpt lat="49.19603" lon="3.93362">
        <ele>227.49</ele>
        <time>2021-08-09T10:33:11Z</time>
      </trkpt>
      <trkpt lat="49.196" lon="3.93362">
        <ele>228.93</ele>
        <time>2021-08-09T10:33:14Z</time>
      </trkpt>
      <trkpt lat="49.19599" lon="3.93362">
        <ele>228.93</ele>
        <time>2021-08-09T10:33:15Z</time>
      </trkpt>
      <trkpt lat="49.19598" lon="3.93362">
        <ele>229.41</ele>
        <time>2021-08-09T10:33:16Z</time>
      </trkpt>
      <trkpt lat="49.19596" lon="3.93361">
        <ele>229.41</ele>
        <time>2021-08-09T10:33:17Z</time>
      </trkpt>
      <trkpt lat="49.19595" lon="3.9336">
        <ele>229.41</ele>
        <time>2021-08-09T10:33:18Z</time>
      </trkpt>
      <trkpt lat="49.19594" lon="3.93359">
        <ele>229.89</ele>
        <time>2021-08-09T10:33:19Z</time>
      </trkpt>
      <trkpt lat="49.19593" lon="3.93359">
        <ele>230.85</ele>
        <time>2021-08-09T10:33:20Z</time>
      </trkpt>
      <trkpt lat="49.19592" lon="3.93358">
        <ele>230.85</ele>
        <time>2021-08-09T10:33:21Z</time>
      </trkpt>
      <trkpt lat="49.19591" lon="3.93358">
        <ele>230.85</ele>
        <time>2021-08-09T10:33:22Z</time>
      </trkpt>
      <trkpt lat="49.19588" lon="3.93358">
        <ele>231.33</ele>
        <time>2021-08-09T10:33:24Z</time>
      </trkpt>
      <trkpt lat="49.19575" lon="3.93355">
        <ele>232.78</ele>
        <time>2021-08-09T10:33:34Z</time>
      </trkpt>
      <trkpt lat="49.19574" lon="3.93355">
        <ele>232.78</ele>
        <time>2021-08-09T10:33:35Z</time>
      </trkpt>
      <trkpt lat="49.19573" lon="3.93355">
        <ele>232.78</ele>
        <time>2021-08-09T10:33:36Z</time>
      </trkpt>
      <trkpt lat="49.19559" lon="3.93355">
        <ele>235.18</ele>
        <time>2021-08-09T10:33:47Z</time>
      </trkpt>
      <trkpt lat="49.19549" lon="3.93355">
        <ele>236.62</ele>
        <time>2021-08-09T10:33:55Z</time>
      </trkpt>
      <trkpt lat="49.19541" lon="3.93357">
        <ele>237.1</ele>
        <time>2021-08-09T10:34:02Z</time>
      </trkpt>
      <trkpt lat="49.19534" lon="3.9336">
        <ele>238.54</ele>
        <time>2021-08-09T10:34:07Z</time>
      </trkpt>
      <trkpt lat="49.19533" lon="3.9336">
        <ele>238.54</ele>
        <time>2021-08-09T10:34:08Z</time>
      </trkpt>
      <trkpt lat="49.19532" lon="3.93361">
        <ele>238.54</ele>
        <time>2021-08-09T10:34:09Z</time>
      </trkpt>
      <trkpt lat="49.19531" lon="3.93362">
        <ele>238.54</ele>
        <time>2021-08-09T10:34:10Z</time>
      </trkpt>
      <trkpt lat="49.19523" lon="3.93364">
        <ele>239.02</ele>
        <time>2021-08-09T10:34:16Z</time>
      </trkpt>
      <trkpt lat="49.1951" lon="3.93368">
        <ele>240.47</ele>
        <time>2021-08-09T10:34:24Z</time>
      </trkpt>
      <trkpt lat="49.19509" lon="3.93369">
        <ele>240.47</ele>
        <time>2021-08-09T10:34:25Z</time>
      </trkpt>
      <trkpt lat="49.19507" lon="3.9337">
        <ele>240.47</ele>
        <time>2021-08-09T10:34:26Z</time>
      </trkpt>
      <trkpt lat="49.19505" lon="3.93371">
        <ele>240.95</ele>
        <time>2021-08-09T10:34:27Z</time>
      </trkpt>
      <trkpt lat="49.19503" lon="3.93373">
        <ele>240.95</ele>
        <time>2021-08-09T10:34:28Z</time>
      </trkpt>
      <trkpt lat="49.195" lon="3.93375">
        <ele>240.95</ele>
        <time>2021-08-09T10:34:29Z</time>
      </trkpt>
      <trkpt lat="49.19484" lon="3.93385">
        <ele>241.43</ele>
        <time>2021-08-09T10:34:36Z</time>
      </trkpt>
      <trkpt lat="49.19467" lon="3.93394">
        <ele>242.39</ele>
        <time>2021-08-09T10:34:43Z</time>
      </trkpt>
      <trkpt lat="49.19452" lon="3.93403">
        <ele>242.87</ele>
        <time>2021-08-09T10:34:51Z</time>
      </trkpt>
      <trkpt lat="49.19435" lon="3.93416">
        <ele>243.35</ele>
        <time>2021-08-09T10:34:58Z</time>
      </trkpt>
      <trkpt lat="49.19412" lon="3.93437">
        <ele>243.35</ele>
        <time>2021-08-09T10:35:05Z</time>
      </trkpt>
      <trkpt lat="49.19397" lon="3.9345">
        <ele>243.35</ele>
        <time>2021-08-09T10:35:11Z</time>
      </trkpt>
      <trkpt lat="49.19384" lon="3.9346">
        <ele>243.35</ele>
        <time>2021-08-09T10:35:16Z</time>
      </trkpt>
      <trkpt lat="49.19382" lon="3.93463">
        <ele>243.35</ele>
        <time>2021-08-09T10:35:17Z</time>
      </trkpt>
      <trkpt lat="49.19369" lon="3.93478">
        <ele>243.35</ele>
        <time>2021-08-09T10:35:23Z</time>
      </trkpt>
      <trkpt lat="49.19349" lon="3.935">
        <ele>243.35</ele>
        <time>2021-08-09T10:35:29Z</time>
      </trkpt>
      <trkpt lat="49.19328" lon="3.93523">
        <ele>243.35</ele>
        <time>2021-08-09T10:35:35Z</time>
      </trkpt>
      <trkpt lat="49.19324" lon="3.93526">
        <ele>243.35</ele>
        <time>2021-08-09T10:35:36Z</time>
      </trkpt>
      <trkpt lat="49.19321" lon="3.93528">
        <ele>243.35</ele>
        <time>2021-08-09T10:35:37Z</time>
      </trkpt>
      <trkpt lat="49.19318" lon="3.9353">
        <ele>243.35</ele>
        <time>2021-08-09T10:35:38Z</time>
      </trkpt>
      <trkpt lat="49.19298" lon="3.93551">
        <ele>243.35</ele>
        <time>2021-08-09T10:35:45Z</time>
      </trkpt>
      <trkpt lat="49.19281" lon="3.93572">
        <ele>243.83</ele>
        <time>2021-08-09T10:35:52Z</time>
      </trkpt>
      <trkpt lat="49.19264" lon="3.93592">
        <ele>243.83</ele>
        <time>2021-08-09T10:35:59Z</time>
      </trkpt>
      <trkpt lat="49.19242" lon="3.93612">
        <ele>243.83</ele>
        <time>2021-08-09T10:36:07Z</time>
      </trkpt>
      <trkpt lat="49.19218" lon="3.93634">
        <ele>244.31</ele>
        <time>2021-08-09T10:36:14Z</time>
      </trkpt>
      <trkpt lat="49.19199" lon="3.93651">
        <ele>244.31</ele>
        <time>2021-08-09T10:36:21Z</time>
      </trkpt>
      <trkpt lat="49.19188" lon="3.93655">
        <ele>244.31</ele>
        <time>2021-08-09T10:36:26Z</time>
      </trkpt>
      <trkpt lat="49.1917" lon="3.93659">
        <ele>244.79</ele>
        <time>2021-08-09T10:36:32Z</time>
      </trkpt>
      <trkpt lat="49.19167" lon="3.9366">
        <ele>245.27</ele>
        <time>2021-08-09T10:36:33Z</time>
      </trkpt>
      <trkpt lat="49.19165" lon="3.93663">
        <ele>245.27</ele>
        <time>2021-08-09T10:36:34Z</time>
      </trkpt>
      <trkpt lat="49.19163" lon="3.93665">
        <ele>245.27</ele>
        <time>2021-08-09T10:36:35Z</time>
      </trkpt>
      <trkpt lat="49.19161" lon="3.93668">
        <ele>245.27</ele>
        <time>2021-08-09T10:36:36Z</time>
      </trkpt>
      <trkpt lat="49.19158" lon="3.9367">
        <ele>245.27</ele>
        <time>2021-08-09T10:36:37Z</time>
      </trkpt>
      <trkpt lat="49.19154" lon="3.93673">
        <ele>245.27</ele>
        <time>2021-08-09T10:36:38Z</time>
      </trkpt>
      <trkpt lat="49.19152" lon="3.93677">
        <ele>245.27</ele>
        <time>2021-08-09T10:36:39Z</time>
      </trkpt>
      <trkpt lat="49.19149" lon="3.93681">
        <ele>245.27</ele>
        <time>2021-08-09T10:36:40Z</time>
      </trkpt>
      <trkpt lat="49.19133" lon="3.93704">
        <ele>245.75</ele>
        <time>2021-08-09T10:36:47Z</time>
      </trkpt>
      <trkpt lat="49.19128" lon="3.93716">
        <ele>245.75</ele>
        <time>2021-08-09T10:36:51Z</time>
      </trkpt>
      <trkpt lat="49.19126" lon="3.93718">
        <ele>245.75</ele>
        <time>2021-08-09T10:36:52Z</time>
      </trkpt>
      <trkpt lat="49.19123" lon="3.93722">
        <ele>245.75</ele>
        <time>2021-08-09T10:36:57Z</time>
      </trkpt>
      <trkpt lat="49.19119" lon="3.93728">
        <ele>245.75</ele>
        <time>2021-08-09T10:37:06Z</time>
      </trkpt>
      <trkpt lat="49.19107" lon="3.93754">
        <ele>245.75</ele>
        <time>2021-08-09T10:37:12Z</time>
      </trkpt>
      <trkpt lat="49.19089" lon="3.93789">
        <ele>245.75</ele>
        <time>2021-08-09T10:37:20Z</time>
      </trkpt>
      <trkpt lat="49.19068" lon="3.93808">
        <ele>246.72</ele>
        <time>2021-08-09T10:37:27Z</time>
      </trkpt>
      <trkpt lat="49.19046" lon="3.93824">
        <ele>248.16</ele>
        <time>2021-08-09T10:37:35Z</time>
      </trkpt>
      <trkpt lat="49.19025" lon="3.93837">
        <ele>249.6</ele>
        <time>2021-08-09T10:37:43Z</time>
      </trkpt>
      <trkpt lat="49.19009" lon="3.93848">
        <ele>250.08</ele>
        <time>2021-08-09T10:37:49Z</time>
      </trkpt>
      <trkpt lat="49.1899" lon="3.93859">
        <ele>250.56</ele>
        <time>2021-08-09T10:37:56Z</time>
      </trkpt>
      <trkpt lat="49.18969" lon="3.93875">
        <ele>250.56</ele>
        <time>2021-08-09T10:38:03Z</time>
      </trkpt>
      <trkpt lat="49.18957" lon="3.93882">
        <ele>251.04</ele>
        <time>2021-08-09T10:38:08Z</time>
      </trkpt>
      <trkpt lat="49.18941" lon="3.93893">
        <ele>251.04</ele>
        <time>2021-08-09T10:38:13Z</time>
      </trkpt>
      <trkpt lat="49.1894" lon="3.93896">
        <ele>251.04</ele>
        <time>2021-08-09T10:38:14Z</time>
      </trkpt>
      <trkpt lat="49.18939" lon="3.93899">
        <ele>251.04</ele>
        <time>2021-08-09T10:38:15Z</time>
      </trkpt>
      <trkpt lat="49.18939" lon="3.939">
        <ele>251.04</ele>
        <time>2021-08-09T10:38:16Z</time>
      </trkpt>
      <trkpt lat="49.18942" lon="3.93911">
        <ele>251.04</ele>
        <time>2021-08-09T10:38:20Z</time>
      </trkpt>
      <trkpt lat="49.18944" lon="3.93924">
        <ele>251.04</ele>
        <time>2021-08-09T10:38:25Z</time>
      </trkpt>
      <trkpt lat="49.18947" lon="3.93924">
        <ele>249.6</ele>
        <time>2021-08-09T10:38:27Z</time>
      </trkpt>
      <trkpt lat="49.18957" lon="3.93928">
        <ele>248.64</ele>
        <time>2021-08-09T10:38:31Z</time>
      </trkpt>
      <trkpt lat="49.1896" lon="3.93926">
        <ele>248.64</ele>
        <time>2021-08-09T10:38:32Z</time>
      </trkpt>
      <trkpt lat="49.18962" lon="3.93925">
        <ele>248.64</ele>
        <time>2021-08-09T10:38:33Z</time>
      </trkpt>
      <trkpt lat="49.18967" lon="3.93923">
        <ele>248.64</ele>
        <time>2021-08-09T10:38:34Z</time>
      </trkpt>
      <trkpt lat="49.1897" lon="3.93922">
        <ele>248.64</ele>
        <time>2021-08-09T10:38:35Z</time>
      </trkpt>
      <trkpt lat="49.18973" lon="3.93922">
        <ele>248.64</ele>
        <time>2021-08-09T10:38:36Z</time>
      </trkpt>
      <trkpt lat="49.18977" lon="3.93922">
        <ele>248.64</ele>
        <time>2021-08-09T10:38:37Z</time>
      </trkpt>
      <trkpt lat="49.18981" lon="3.93923">
        <ele>249.12</ele>
        <time>2021-08-09T10:38:38Z</time>
      </trkpt>
      <trkpt lat="49.18983" lon="3.93924">
        <ele>248.64</ele>
        <time>2021-08-09T10:38:39Z</time>
      </trkpt>
      <trkpt lat="49.18985" lon="3.93927">
        <ele>248.64</ele>
        <time>2021-08-09T10:38:40Z</time>
      </trkpt>
      <trkpt lat="49.18987" lon="3.93928">
        <ele>247.68</ele>
        <time>2021-08-09T10:38:41Z</time>
      </trkpt>
      <trkpt lat="49.19001" lon="3.93929">
        <ele>247.2</ele>
        <time>2021-08-09T10:38:46Z</time>
      </trkpt>
      <trkpt lat="49.19003" lon="3.9393">
        <ele>247.2</ele>
        <time>2021-08-09T10:38:47Z</time>
      </trkpt>
      <trkpt lat="49.19006" lon="3.93932">
        <ele>246.72</ele>
        <time>2021-08-09T10:38:48Z</time>
      </trkpt>
      <trkpt lat="49.19009" lon="3.93933">
        <ele>246.72</ele>
        <time>2021-08-09T10:38:49Z</time>
      </trkpt>
      <trkpt lat="49.19011" lon="3.93934">
        <ele>246.23</ele>
        <time>2021-08-09T10:38:50Z</time>
      </trkpt>
      <trkpt lat="49.19014" lon="3.93936">
        <ele>246.23</ele>
        <time>2021-08-09T10:38:51Z</time>
      </trkpt>
      <trkpt lat="49.19016" lon="3.93937">
        <ele>245.27</ele>
        <time>2021-08-09T10:38:52Z</time>
      </trkpt>
      <trkpt lat="49.19018" lon="3.93938">
        <ele>245.27</ele>
        <time>2021-08-09T10:38:53Z</time>
      </trkpt>
      <trkpt lat="49.19021" lon="3.93939">
        <ele>244.79</ele>
        <time>2021-08-09T10:38:54Z</time>
      </trkpt>
      <trkpt lat="49.19025" lon="3.9394">
        <ele>244.79</ele>
        <time>2021-08-09T10:38:55Z</time>
      </trkpt>
      <trkpt lat="49.19029" lon="3.93942">
        <ele>243.83</ele>
        <time>2021-08-09T10:38:56Z</time>
      </trkpt>
      <trkpt lat="49.19033" lon="3.93943">
        <ele>243.83</ele>
        <time>2021-08-09T10:38:57Z</time>
      </trkpt>
      <trkpt lat="49.19037" lon="3.93943">
        <ele>242.87</ele>
        <time>2021-08-09T10:38:58Z</time>
      </trkpt>
      <trkpt lat="49.19044" lon="3.93947">
        <ele>242.39</ele>
        <time>2021-08-09T10:38:59Z</time>
      </trkpt>
      <trkpt lat="49.19048" lon="3.93948">
        <ele>241.91</ele>
        <time>2021-08-09T10:39:00Z</time>
      </trkpt>
      <trkpt lat="49.1905" lon="3.9395">
        <ele>241.43</ele>
        <time>2021-08-09T10:39:01Z</time>
      </trkpt>
      <trkpt lat="49.19054" lon="3.93952">
        <ele>240.47</ele>
        <time>2021-08-09T10:39:02Z</time>
      </trkpt>
      <trkpt lat="49.19061" lon="3.93954">
        <ele>240.47</ele>
        <time>2021-08-09T10:39:03Z</time>
      </trkpt>
      <trkpt lat="49.19069" lon="3.93956">
        <ele>239.99</ele>
        <time>2021-08-09T10:39:04Z</time>
      </trkpt>
      <trkpt lat="49.19077" lon="3.93957">
        <ele>239.02</ele>
        <time>2021-08-09T10:39:06Z</time>
      </trkpt>
      <trkpt lat="49.1908" lon="3.9396">
        <ele>239.02</ele>
        <time>2021-08-09T10:39:07Z</time>
      </trkpt>
      <trkpt lat="49.19083" lon="3.93983">
        <ele>238.54</ele>
        <time>2021-08-09T10:39:12Z</time>
      </trkpt>
      <trkpt lat="49.19077" lon="3.94018">
        <ele>238.06</ele>
        <time>2021-08-09T10:39:19Z</time>
      </trkpt>
      <trkpt lat="49.19068" lon="3.94052">
        <ele>237.58</ele>
        <time>2021-08-09T10:39:26Z</time>
      </trkpt>
      <trkpt lat="49.19062" lon="3.94061">
        <ele>237.58</ele>
        <time>2021-08-09T10:39:28Z</time>
      </trkpt>
      <trkpt lat="49.19043" lon="3.94085">
        <ele>237.58</ele>
        <time>2021-08-09T10:39:33Z</time>
      </trkpt>
      <trkpt lat="49.19022" lon="3.9412">
        <ele>237.1</ele>
        <time>2021-08-09T10:39:40Z</time>
      </trkpt>
      <trkpt lat="49.19018" lon="3.94122">
        <ele>236.62</ele>
        <time>2021-08-09T10:39:44Z</time>
      </trkpt>
      <trkpt lat="49.19018" lon="3.94121">
        <ele>236.62</ele>
        <time>2021-08-09T10:39:49Z</time>
      </trkpt>
      <trkpt lat="49.19021" lon="3.94121">
        <ele>236.62</ele>
        <time>2021-08-09T10:39:56Z</time>
      </trkpt>
      <trkpt lat="49.19019" lon="3.94119">
        <ele>236.62</ele>
        <time>2021-08-09T10:40:02Z</time>
      </trkpt>
      <trkpt lat="49.19019" lon="3.94119">
        <ele>236.62</ele>
        <time>2021-08-09T10:40:17Z</time>
      </trkpt>
      <trkpt lat="49.1901" lon="3.94118">
        <ele>238.06</ele>
        <time>2021-08-09T10:40:24Z</time>
      </trkpt>
      <trkpt lat="49.19005" lon="3.94116">
        <ele>239.51</ele>
        <time>2021-08-09T10:40:30Z</time>
      </trkpt>
      <trkpt lat="49.1899" lon="3.94119">
        <ele>239.51</ele>
        <time>2021-08-09T10:40:37Z</time>
      </trkpt>
      <trkpt lat="49.18984" lon="3.94115">
        <ele>240.47</ele>
        <time>2021-08-09T10:40:44Z</time>
      </trkpt>
      <trkpt lat="49.18982" lon="3.94108">
        <ele>240.95</ele>
        <time>2021-08-09T10:40:49Z</time>
      </trkpt>
      <trkpt lat="49.18977" lon="3.94105">
        <ele>241.43</ele>
        <time>2021-08-09T10:40:51Z</time>
      </trkpt>
      <trkpt lat="49.18973" lon="3.94108">
        <ele>241.43</ele>
        <time>2021-08-09T10:40:55Z</time>
      </trkpt>
      <trkpt lat="49.18959" lon="3.94112">
        <ele>241.91</ele>
        <time>2021-08-09T10:41:03Z</time>
      </trkpt>
      <trkpt lat="49.18958" lon="3.94112">
        <ele>242.39</ele>
        <time>2021-08-09T10:41:04Z</time>
      </trkpt>
      <trkpt lat="49.18952" lon="3.94116">
        <ele>242.39</ele>
        <time>2021-08-09T10:41:08Z</time>
      </trkpt>
      <trkpt lat="49.18948" lon="3.94118">
        <ele>242.87</ele>
        <time>2021-08-09T10:41:10Z</time>
      </trkpt>
      <trkpt lat="49.18945" lon="3.94119">
        <ele>242.87</ele>
        <time>2021-08-09T10:41:11Z</time>
      </trkpt>
      <trkpt lat="49.18943" lon="3.9412">
        <ele>242.87</ele>
        <time>2021-08-09T10:41:12Z</time>
      </trkpt>
      <trkpt lat="49.18941" lon="3.94121">
        <ele>242.87</ele>
        <time>2021-08-09T10:41:13Z</time>
      </trkpt>
      <trkpt lat="49.18939" lon="3.94122">
        <ele>242.87</ele>
        <time>2021-08-09T10:41:14Z</time>
      </trkpt>
      <trkpt lat="49.18937" lon="3.94122">
        <ele>243.35</ele>
        <time>2021-08-09T10:41:15Z</time>
      </trkpt>
      <trkpt lat="49.18935" lon="3.94122">
        <ele>243.35</ele>
        <time>2021-08-09T10:41:16Z</time>
      </trkpt>
      <trkpt lat="49.18933" lon="3.94123">
        <ele>243.35</ele>
        <time>2021-08-09T10:41:17Z</time>
      </trkpt>
      <trkpt lat="49.18931" lon="3.94124">
        <ele>243.35</ele>
        <time>2021-08-09T10:41:18Z</time>
      </trkpt>
      <trkpt lat="49.18929" lon="3.94126">
        <ele>243.35</ele>
        <time>2021-08-09T10:41:19Z</time>
      </trkpt>
      <trkpt lat="49.18927" lon="3.94128">
        <ele>243.35</ele>
        <time>2021-08-09T10:41:20Z</time>
      </trkpt>
      <trkpt lat="49.18926" lon="3.94131">
        <ele>243.35</ele>
        <time>2021-08-09T10:41:21Z</time>
      </trkpt>
      <trkpt lat="49.18923" lon="3.94133">
        <ele>243.35</ele>
        <time>2021-08-09T10:41:22Z</time>
      </trkpt>
      <trkpt lat="49.18921" lon="3.94135">
        <ele>243.35</ele>
        <time>2021-08-09T10:41:23Z</time>
      </trkpt>
      <trkpt lat="49.18919" lon="3.94137">
        <ele>243.35</ele>
        <time>2021-08-09T10:41:24Z</time>
      </trkpt>
      <trkpt lat="49.18917" lon="3.9414">
        <ele>243.35</ele>
        <time>2021-08-09T10:41:25Z</time>
      </trkpt>
      <trkpt lat="49.18916" lon="3.94142">
        <ele>243.35</ele>
        <time>2021-08-09T10:41:26Z</time>
      </trkpt>
      <trkpt lat="49.18915" lon="3.94145">
        <ele>243.35</ele>
        <time>2021-08-09T10:41:27Z</time>
      </trkpt>
      <trkpt lat="49.18914" lon="3.94148">
        <ele>243.35</ele>
        <time>2021-08-09T10:41:28Z</time>
      </trkpt>
      <trkpt lat="49.18913" lon="3.94151">
        <ele>243.35</ele>
        <time>2021-08-09T10:41:29Z</time>
      </trkpt>
      <trkpt lat="49.18912" lon="3.94155">
        <ele>241.91</ele>
        <time>2021-08-09T10:41:30Z</time>
      </trkpt>
      <trkpt lat="49.1891" lon="3.94159">
        <ele>241.91</ele>
        <time>2021-08-09T10:41:31Z</time>
      </trkpt>
      <trkpt lat="49.18908" lon="3.94162">
        <ele>241.91</ele>
        <time>2021-08-09T10:41:32Z</time>
      </trkpt>
      <trkpt lat="49.18906" lon="3.94165">
        <ele>241.91</ele>
        <time>2021-08-09T10:41:33Z</time>
      </trkpt>
      <trkpt lat="49.18905" lon="3.94169">
        <ele>241.91</ele>
        <time>2021-08-09T10:41:34Z</time>
      </trkpt>
      <trkpt lat="49.18903" lon="3.94173">
        <ele>242.39</ele>
        <time>2021-08-09T10:41:35Z</time>
      </trkpt>
      <trkpt lat="49.18902" lon="3.94177">
        <ele>241.43</ele>
        <time>2021-08-09T10:41:36Z</time>
      </trkpt>
      <trkpt lat="49.18903" lon="3.94181">
        <ele>240.95</ele>
        <time>2021-08-09T10:41:37Z</time>
      </trkpt>
      <trkpt lat="49.18903" lon="3.94183">
        <ele>240.47</ele>
        <time>2021-08-09T10:41:38Z</time>
      </trkpt>
      <trkpt lat="49.18901" lon="3.94189">
        <ele>240.47</ele>
        <time>2021-08-09T10:41:39Z</time>
      </trkpt>
      <trkpt lat="49.18899" lon="3.94193">
        <ele>240.47</ele>
        <time>2021-08-09T10:41:40Z</time>
      </trkpt>
      <trkpt lat="49.18898" lon="3.94198">
        <ele>240.47</ele>
        <time>2021-08-09T10:41:41Z</time>
      </trkpt>
      <trkpt lat="49.18896" lon="3.94204">
        <ele>239.51</ele>
        <time>2021-08-09T10:41:42Z</time>
      </trkpt>
      <trkpt lat="49.18894" lon="3.94209">
        <ele>239.51</ele>
        <time>2021-08-09T10:41:43Z</time>
      </trkpt>
      <trkpt lat="49.18893" lon="3.94213">
        <ele>238.54</ele>
        <time>2021-08-09T10:41:44Z</time>
      </trkpt>
      <trkpt lat="49.18891" lon="3.94219">
        <ele>238.54</ele>
        <time>2021-08-09T10:41:45Z</time>
      </trkpt>
      <trkpt lat="49.18889" lon="3.94222">
        <ele>238.54</ele>
        <time>2021-08-09T10:41:46Z</time>
      </trkpt>
      <trkpt lat="49.1888" lon="3.94242">
        <ele>237.1</ele>
        <time>2021-08-09T10:41:51Z</time>
      </trkpt>
      <trkpt lat="49.18874" lon="3.9427">
        <ele>234.22</ele>
        <time>2021-08-09T10:41:55Z</time>
      </trkpt>
      <trkpt lat="49.18868" lon="3.94295">
        <ele>233.26</ele>
        <time>2021-08-09T10:42:01Z</time>
      </trkpt>
      <trkpt lat="49.18854" lon="3.94305">
        <ele>234.22</ele>
        <time>2021-08-09T10:42:07Z</time>
      </trkpt>
      <trkpt lat="49.18833" lon="3.94304">
        <ele>236.14</ele>
        <time>2021-08-09T10:42:15Z</time>
      </trkpt>
      <trkpt lat="49.18826" lon="3.94301">
        <ele>236.14</ele>
        <time>2021-08-09T10:42:18Z</time>
      </trkpt>
      <trkpt lat="49.18805" lon="3.9429">
        <ele>237.58</ele>
        <time>2021-08-09T10:42:28Z</time>
      </trkpt>
      <trkpt lat="49.18793" lon="3.94282">
        <ele>238.54</ele>
        <time>2021-08-09T10:42:36Z</time>
      </trkpt>
      <trkpt lat="49.1878" lon="3.94273">
        <ele>239.51</ele>
        <time>2021-08-09T10:42:45Z</time>
      </trkpt>
      <trkpt lat="49.1877" lon="3.94264">
        <ele>241.43</ele>
        <time>2021-08-09T10:42:53Z</time>
      </trkpt>
      <trkpt lat="49.1876" lon="3.94255">
        <ele>241.91</ele>
        <time>2021-08-09T10:42:59Z</time>
      </trkpt>
      <trkpt lat="49.18749" lon="3.94245">
        <ele>242.87</ele>
        <time>2021-08-09T10:43:07Z</time>
      </trkpt>
      <trkpt lat="49.18746" lon="3.94241">
        <ele>243.83</ele>
        <time>2021-08-09T10:43:09Z</time>
      </trkpt>
      <trkpt lat="49.1874" lon="3.94234">
        <ele>243.83</ele>
        <time>2021-08-09T10:43:13Z</time>
      </trkpt>
      <trkpt lat="49.18727" lon="3.94221">
        <ele>244.79</ele>
        <time>2021-08-09T10:43:21Z</time>
      </trkpt>
      <trkpt lat="49.18717" lon="3.94213">
        <ele>244.79</ele>
        <time>2021-08-09T10:43:26Z</time>
      </trkpt>
      <trkpt lat="49.18709" lon="3.94207">
        <ele>245.75</ele>
        <time>2021-08-09T10:43:31Z</time>
      </trkpt>
      <trkpt lat="49.18703" lon="3.94202">
        <ele>246.23</ele>
        <time>2021-08-09T10:43:36Z</time>
      </trkpt>
      <trkpt lat="49.18697" lon="3.94196">
        <ele>246.23</ele>
        <time>2021-08-09T10:43:41Z</time>
      </trkpt>
      <trkpt lat="49.18678" lon="3.94183">
        <ele>247.2</ele>
        <time>2021-08-09T10:43:49Z</time>
      </trkpt>
      <trkpt lat="49.1867" lon="3.94178">
        <ele>248.64</ele>
        <time>2021-08-09T10:43:54Z</time>
      </trkpt>
      <trkpt lat="49.18653" lon="3.94177">
        <ele>248.64</ele>
        <time>2021-08-09T10:43:58Z</time>
      </trkpt>
      <trkpt lat="49.18654" lon="3.94179">
        <ele>248.64</ele>
        <time>2021-08-09T10:43:59Z</time>
      </trkpt>
      <trkpt lat="49.18655" lon="3.94182">
        <ele>248.64</ele>
        <time>2021-08-09T10:44:00Z</time>
      </trkpt>
      <trkpt lat="49.18659" lon="3.94188">
        <ele>247.2</ele>
        <time>2021-08-09T10:44:02Z</time>
      </trkpt>
      <trkpt lat="49.18661" lon="3.94193">
        <ele>246.23</ele>
        <time>2021-08-09T10:44:03Z</time>
      </trkpt>
      <trkpt lat="49.18664" lon="3.94198">
        <ele>245.75</ele>
        <time>2021-08-09T10:44:04Z</time>
      </trkpt>
      <trkpt lat="49.18676" lon="3.94219">
        <ele>242.39</ele>
        <time>2021-08-09T10:44:08Z</time>
      </trkpt>
      <trkpt lat="49.18699" lon="3.94255">
        <ele>239.02</ele>
        <time>2021-08-09T10:44:15Z</time>
      </trkpt>
      <trkpt lat="49.18719" lon="3.94283">
        <ele>235.66</ele>
        <time>2021-08-09T10:44:20Z</time>
      </trkpt>
      <trkpt lat="49.18739" lon="3.94307">
        <ele>232.3</ele>
        <time>2021-08-09T10:44:25Z</time>
      </trkpt>
      <trkpt lat="49.18747" lon="3.94324">
        <ele>229.89</ele>
        <time>2021-08-09T10:44:29Z</time>
      </trkpt>
      <trkpt lat="49.18755" lon="3.94341">
        <ele>226.53</ele>
        <time>2021-08-09T10:44:32Z</time>
      </trkpt>
      <trkpt lat="49.18759" lon="3.94346">
        <ele>225.09</ele>
        <time>2021-08-09T10:44:33Z</time>
      </trkpt>
      <trkpt lat="49.18763" lon="3.94352">
        <ele>224.12</ele>
        <time>2021-08-09T10:44:34Z</time>
      </trkpt>
      <trkpt lat="49.18774" lon="3.94362">
        <ele>222.2</ele>
        <time>2021-08-09T10:44:36Z</time>
      </trkpt>
      <trkpt lat="49.18779" lon="3.94367">
        <ele>220.76</ele>
        <time>2021-08-09T10:44:37Z</time>
      </trkpt>
      <trkpt lat="49.18782" lon="3.94373">
        <ele>219.8</ele>
        <time>2021-08-09T10:44:38Z</time>
      </trkpt>
      <trkpt lat="49.18784" lon="3.94377">
        <ele>219.32</ele>
        <time>2021-08-09T10:44:39Z</time>
      </trkpt>
      <trkpt lat="49.18784" lon="3.94382">
        <ele>218.84</ele>
        <time>2021-08-09T10:44:40Z</time>
      </trkpt>
      <trkpt lat="49.18782" lon="3.94386">
        <ele>217.88</ele>
        <time>2021-08-09T10:44:41Z</time>
      </trkpt>
      <trkpt lat="49.18778" lon="3.94388">
        <ele>217.88</ele>
        <time>2021-08-09T10:44:42Z</time>
      </trkpt>
      <trkpt lat="49.18774" lon="3.94388">
        <ele>217.88</ele>
        <time>2021-08-09T10:44:43Z</time>
      </trkpt>
      <trkpt lat="49.18771" lon="3.94387">
        <ele>217.4</ele>
        <time>2021-08-09T10:44:44Z</time>
      </trkpt>
      <trkpt lat="49.18767" lon="3.94386">
        <ele>217.4</ele>
        <time>2021-08-09T10:44:45Z</time>
      </trkpt>
      <trkpt lat="49.18746" lon="3.94386">
        <ele>217.4</ele>
        <time>2021-08-09T10:44:52Z</time>
      </trkpt>
      <trkpt lat="49.18724" lon="3.9439">
        <ele>214.03</ele>
        <time>2021-08-09T10:44:57Z</time>
      </trkpt>
      <trkpt lat="49.18717" lon="3.9439">
        <ele>213.07</ele>
        <time>2021-08-09T10:44:58Z</time>
      </trkpt>
      <trkpt lat="49.18696" lon="3.94389">
        <ele>211.63</ele>
        <time>2021-08-09T10:45:01Z</time>
      </trkpt>
      <trkpt lat="49.18654" lon="3.94388">
        <ele>208.26</ele>
        <time>2021-08-09T10:45:07Z</time>
      </trkpt>
      <trkpt lat="49.18597" lon="3.94393">
        <ele>206.82</ele>
        <time>2021-08-09T10:45:15Z</time>
      </trkpt>
      <trkpt lat="49.1859" lon="3.94394">
        <ele>206.82</ele>
        <time>2021-08-09T10:45:16Z</time>
      </trkpt>
      <trkpt lat="49.18584" lon="3.94395">
        <ele>206.82</ele>
        <time>2021-08-09T10:45:17Z</time>
      </trkpt>
      <trkpt lat="49.18556" lon="3.94395">
        <ele>208.26</ele>
        <time>2021-08-09T10:45:23Z</time>
      </trkpt>
      <trkpt lat="49.18535" lon="3.94394">
        <ele>209.7</ele>
        <time>2021-08-09T10:45:31Z</time>
      </trkpt>
      <trkpt lat="49.18519" lon="3.94394">
        <ele>211.15</ele>
        <time>2021-08-09T10:45:39Z</time>
      </trkpt>
      <trkpt lat="49.18502" lon="3.94393">
        <ele>212.59</ele>
        <time>2021-08-09T10:45:48Z</time>
      </trkpt>
      <trkpt lat="49.18481" lon="3.94399">
        <ele>214.03</ele>
        <time>2021-08-09T10:45:58Z</time>
      </trkpt>
      <trkpt lat="49.18466" lon="3.94414">
        <ele>214.03</ele>
        <time>2021-08-09T10:46:05Z</time>
      </trkpt>
      <trkpt lat="49.1846" lon="3.94444">
        <ele>211.15</ele>
        <time>2021-08-09T10:46:10Z</time>
      </trkpt>
      <trkpt lat="49.18457" lon="3.94473">
        <ele>206.82</ele>
        <time>2021-08-09T10:46:13Z</time>
      </trkpt>
      <trkpt lat="49.18456" lon="3.94483">
        <ele>203.94</ele>
        <time>2021-08-09T10:46:14Z</time>
      </trkpt>
      <trkpt lat="49.18456" lon="3.94493">
        <ele>202.49</ele>
        <time>2021-08-09T10:46:15Z</time>
      </trkpt>
      <trkpt lat="49.18458" lon="3.94504">
        <ele>200.57</ele>
        <time>2021-08-09T10:46:16Z</time>
      </trkpt>
      <trkpt lat="49.18461" lon="3.94516">
        <ele>198.65</ele>
        <time>2021-08-09T10:46:17Z</time>
      </trkpt>
      <trkpt lat="49.18465" lon="3.9453">
        <ele>196.25</ele>
        <time>2021-08-09T10:46:18Z</time>
      </trkpt>
      <trkpt lat="49.18471" lon="3.94545">
        <ele>193.84</ele>
        <time>2021-08-09T10:46:19Z</time>
      </trkpt>
      <trkpt lat="49.18478" lon="3.94562">
        <ele>191.92</ele>
        <time>2021-08-09T10:46:20Z</time>
      </trkpt>
      <trkpt lat="49.1849" lon="3.94593">
        <ele>189.04</ele>
        <time>2021-08-09T10:46:22Z</time>
      </trkpt>
      <trkpt lat="49.18511" lon="3.94644">
        <ele>186.63</ele>
        <time>2021-08-09T10:46:26Z</time>
      </trkpt>
      <trkpt lat="49.18516" lon="3.94651">
        <ele>186.15</ele>
        <time>2021-08-09T10:46:27Z</time>
      </trkpt>
      <trkpt lat="49.18531" lon="3.94673">
        <ele>184.71</ele>
        <time>2021-08-09T10:46:31Z</time>
      </trkpt>
      <trkpt lat="49.18539" lon="3.94695">
        <ele>182.79</ele>
        <time>2021-08-09T10:46:34Z</time>
      </trkpt>
      <trkpt lat="49.18541" lon="3.94702">
        <ele>182.79</ele>
        <time>2021-08-09T10:46:35Z</time>
      </trkpt>
      <trkpt lat="49.18543" lon="3.94708">
        <ele>185.67</ele>
        <time>2021-08-09T10:46:36Z</time>
      </trkpt>
      <trkpt lat="49.18543" lon="3.94711">
        <ele>185.19</ele>
        <time>2021-08-09T10:46:37Z</time>
      </trkpt>
      <trkpt lat="49.18544" lon="3.94714">
        <ele>185.67</ele>
        <time>2021-08-09T10:46:38Z</time>
      </trkpt>
      <trkpt lat="49.18543" lon="3.94716">
        <ele>186.63</ele>
        <time>2021-08-09T10:46:42Z</time>
      </trkpt>
      <trkpt lat="49.18544" lon="3.94715">
        <ele>186.63</ele>
        <time>2021-08-09T10:46:56Z</time>
      </trkpt>
      <trkpt lat="49.18544" lon="3.94716">
        <ele>186.63</ele>
        <time>2021-08-09T10:47:22Z</time>
      </trkpt>
      <trkpt lat="49.18544" lon="3.94716">
        <ele>186.63</ele>
        <time>2021-08-09T10:47:43Z</time>
      </trkpt>
      <trkpt lat="49.18544" lon="3.94716">
        <ele>186.63</ele>
        <time>2021-08-09T10:48:01Z</time>
      </trkpt>
      <trkpt lat="49.18545" lon="3.94716">
        <ele>187.11</ele>
        <time>2021-08-09T10:48:20Z</time>
      </trkpt>
      <trkpt lat="49.18545" lon="3.94717">
        <ele>187.11</ele>
        <time>2021-08-09T10:48:34Z</time>
      </trkpt>
      <trkpt lat="49.18545" lon="3.94717">
        <ele>187.11</ele>
        <time>2021-08-09T10:48:48Z</time>
      </trkpt>
      <trkpt lat="49.18545" lon="3.94716">
        <ele>185.67</ele>
        <time>2021-08-09T10:49:06Z</time>
      </trkpt>
      <trkpt lat="49.18545" lon="3.94715">
        <ele>185.67</ele>
        <time>2021-08-09T10:49:22Z</time>
      </trkpt>
      <trkpt lat="49.18542" lon="3.94714">
        <ele>185.67</ele>
        <time>2021-08-09T10:49:42Z</time>
      </trkpt>
      <trkpt lat="49.18542" lon="3.94714">
        <ele>185.67</ele>
        <time>2021-08-09T10:50:02Z</time>
      </trkpt>
      <trkpt lat="49.18546" lon="3.94718">
        <ele>185.67</ele>
        <time>2021-08-09T10:50:15Z</time>
      </trkpt>
      <trkpt lat="49.18547" lon="3.94717">
        <ele>185.67</ele>
        <time>2021-08-09T10:50:20Z</time>
      </trkpt>
      <trkpt lat="49.18545" lon="3.94716">
        <ele>185.67</ele>
        <time>2021-08-09T10:50:32Z</time>
      </trkpt>
      <trkpt lat="49.18545" lon="3.94713">
        <ele>185.67</ele>
        <time>2021-08-09T10:50:44Z</time>
      </trkpt>
      <trkpt lat="49.18545" lon="3.94711">
        <ele>185.67</ele>
        <time>2021-08-09T10:50:45Z</time>
      </trkpt>
      <trkpt lat="49.18542" lon="3.94696">
        <ele>184.71</ele>
        <time>2021-08-09T10:50:55Z</time>
      </trkpt>
      <trkpt lat="49.18544" lon="3.94694">
        <ele>183.75</ele>
        <time>2021-08-09T10:51:02Z</time>
      </trkpt>
      <trkpt lat="49.18544" lon="3.94694">
        <ele>183.75</ele>
        <time>2021-08-09T10:51:09Z</time>
      </trkpt>
      <trkpt lat="49.18543" lon="3.94694">
        <ele>183.75</ele>
        <time>2021-08-09T10:51:22Z</time>
      </trkpt>
      <trkpt lat="49.18543" lon="3.94694">
        <ele>183.75</ele>
        <time>2021-08-09T10:51:39Z</time>
      </trkpt>
      <trkpt lat="49.18542" lon="3.94693">
        <ele>183.75</ele>
        <time>2021-08-09T10:51:57Z</time>
      </trkpt>
      <trkpt lat="49.18542" lon="3.94693">
        <ele>183.75</ele>
        <time>2021-08-09T10:52:10Z</time>
      </trkpt>
      <trkpt lat="49.18542" lon="3.94693">
        <ele>183.75</ele>
        <time>2021-08-09T10:52:20Z</time>
      </trkpt>
      <trkpt lat="49.18543" lon="3.94694">
        <ele>183.75</ele>
        <time>2021-08-09T10:52:32Z</time>
      </trkpt>
      <trkpt lat="49.18543" lon="3.94695">
        <ele>183.75</ele>
        <time>2021-08-09T10:52:45Z</time>
      </trkpt>
      <trkpt lat="49.18543" lon="3.94695">
        <ele>183.75</ele>
        <time>2021-08-09T10:52:57Z</time>
      </trkpt>
      <trkpt lat="49.18543" lon="3.94694">
        <ele>183.27</ele>
        <time>2021-08-09T10:53:11Z</time>
      </trkpt>
      <trkpt lat="49.18542" lon="3.94692">
        <ele>183.27</ele>
        <time>2021-08-09T10:53:27Z</time>
      </trkpt>
      <trkpt lat="49.18542" lon="3.94693">
        <ele>183.27</ele>
        <time>2021-08-09T10:53:40Z</time>
      </trkpt>
      <trkpt lat="49.18542" lon="3.94694">
        <ele>183.27</ele>
        <time>2021-08-09T10:53:54Z</time>
      </trkpt>
      <trkpt lat="49.18542" lon="3.94695">
        <ele>183.27</ele>
        <time>2021-08-09T10:54:05Z</time>
      </trkpt>
      <trkpt lat="49.18542" lon="3.94696">
        <ele>183.27</ele>
        <time>2021-08-09T10:54:20Z</time>
      </trkpt>
      <trkpt lat="49.18542" lon="3.94696">
        <ele>183.27</ele>
        <time>2021-08-09T10:54:34Z</time>
      </trkpt>
      <trkpt lat="49.18542" lon="3.94695">
        <ele>183.27</ele>
        <time>2021-08-09T10:54:51Z</time>
      </trkpt>
      <trkpt lat="49.18541" lon="3.94694">
        <ele>183.27</ele>
        <time>2021-08-09T10:55:06Z</time>
      </trkpt>
      <trkpt lat="49.18541" lon="3.94694">
        <ele>183.27</ele>
        <time>2021-08-09T10:55:12Z</time>
      </trkpt>
      <trkpt lat="49.1854" lon="3.94695">
        <ele>183.27</ele>
        <time>2021-08-09T10:55:18Z</time>
      </trkpt>
      <trkpt lat="49.1854" lon="3.94695">
        <ele>183.27</ele>
        <time>2021-08-09T10:55:25Z</time>
      </trkpt>
      <trkpt lat="49.18541" lon="3.94695">
        <ele>183.27</ele>
        <time>2021-08-09T10:55:44Z</time>
      </trkpt>
      <trkpt lat="49.18542" lon="3.94694">
        <ele>183.27</ele>
        <time>2021-08-09T10:56:01Z</time>
      </trkpt>
      <trkpt lat="49.18543" lon="3.94693">
        <ele>183.27</ele>
        <time>2021-08-09T10:56:13Z</time>
      </trkpt>
      <trkpt lat="49.18543" lon="3.94694">
        <ele>183.27</ele>
        <time>2021-08-09T10:56:28Z</time>
      </trkpt>
      <trkpt lat="49.18542" lon="3.94693">
        <ele>183.27</ele>
        <time>2021-08-09T10:56:43Z</time>
      </trkpt>
      <trkpt lat="49.18543" lon="3.94692">
        <ele>183.27</ele>
        <time>2021-08-09T10:56:58Z</time>
      </trkpt>
      <trkpt lat="49.18543" lon="3.94692">
        <ele>183.27</ele>
        <time>2021-08-09T10:57:17Z</time>
      </trkpt>
      <trkpt lat="49.18543" lon="3.94692">
        <ele>184.71</ele>
        <time>2021-08-09T10:57:32Z</time>
      </trkpt>
      <trkpt lat="49.18543" lon="3.94691">
        <ele>184.71</ele>
        <time>2021-08-09T10:57:50Z</time>
      </trkpt>
      <trkpt lat="49.18542" lon="3.94691">
        <ele>184.71</ele>
        <time>2021-08-09T10:58:03Z</time>
      </trkpt>
      <trkpt lat="49.18542" lon="3.94692">
        <ele>184.71</ele>
        <time>2021-08-09T10:58:18Z</time>
      </trkpt>
      <trkpt lat="49.18543" lon="3.94693">
        <ele>184.23</ele>
        <time>2021-08-09T10:58:37Z</time>
      </trkpt>
      <trkpt lat="49.18543" lon="3.94693">
        <ele>184.23</ele>
        <time>2021-08-09T10:58:48Z</time>
      </trkpt>
      <trkpt lat="49.18542" lon="3.94694">
        <ele>184.23</ele>
        <time>2021-08-09T10:59:05Z</time>
      </trkpt>
      <trkpt lat="49.18541" lon="3.94694">
        <ele>184.23</ele>
        <time>2021-08-09T10:59:22Z</time>
      </trkpt>
      <trkpt lat="49.18539" lon="3.94693">
        <ele>184.23</ele>
        <time>2021-08-09T10:59:45Z</time>
      </trkpt>
      <trkpt lat="49.18539" lon="3.94692">
        <ele>184.23</ele>
        <time>2021-08-09T10:59:59Z</time>
      </trkpt>
      <trkpt lat="49.1854" lon="3.94694">
        <ele>184.23</ele>
        <time>2021-08-09T11:00:12Z</time>
      </trkpt>
      <trkpt lat="49.18541" lon="3.94694">
        <ele>184.23</ele>
        <time>2021-08-09T11:00:17Z</time>
      </trkpt>
      <trkpt lat="49.18542" lon="3.94695">
        <ele>184.23</ele>
        <time>2021-08-09T11:00:18Z</time>
      </trkpt>
      <trkpt lat="49.18542" lon="3.94694">
        <ele>184.23</ele>
        <time>2021-08-09T11:00:24Z</time>
      </trkpt>
      <trkpt lat="49.18541" lon="3.94692">
        <ele>184.23</ele>
        <time>2021-08-09T11:00:48Z</time>
      </trkpt>
      <trkpt lat="49.1854" lon="3.94689">
        <ele>184.23</ele>
        <time>2021-08-09T11:00:54Z</time>
      </trkpt>
      <trkpt lat="49.18539" lon="3.94689">
        <ele>184.23</ele>
        <time>2021-08-09T11:00:56Z</time>
      </trkpt>
      <trkpt lat="49.18537" lon="3.94689">
        <ele>182.79</ele>
        <time>2021-08-09T11:00:58Z</time>
      </trkpt>
      <trkpt lat="49.18536" lon="3.94689">
        <ele>182.79</ele>
        <time>2021-08-09T11:00:59Z</time>
      </trkpt>
      <trkpt lat="49.18531" lon="3.94696">
        <ele>182.79</ele>
        <time>2021-08-09T11:01:03Z</time>
      </trkpt>
      <trkpt lat="49.1853" lon="3.947">
        <ele>182.31</ele>
        <time>2021-08-09T11:01:04Z</time>
      </trkpt>
      <trkpt lat="49.18528" lon="3.94704">
        <ele>181.83</ele>
        <time>2021-08-09T11:01:05Z</time>
      </trkpt>
      <trkpt lat="49.18519" lon="3.94717">
        <ele>181.35</ele>
        <time>2021-08-09T11:01:09Z</time>
      </trkpt>
      <trkpt lat="49.18516" lon="3.94716">
        <ele>181.35</ele>
        <time>2021-08-09T11:01:10Z</time>
      </trkpt>
      <trkpt lat="49.18514" lon="3.94714">
        <ele>181.35</ele>
        <time>2021-08-09T11:01:11Z</time>
      </trkpt>
      <trkpt lat="49.18512" lon="3.94712">
        <ele>181.35</ele>
        <time>2021-08-09T11:01:12Z</time>
      </trkpt>
      <trkpt lat="49.18512" lon="3.9471">
        <ele>181.35</ele>
        <time>2021-08-09T11:01:13Z</time>
      </trkpt>
      <trkpt lat="49.1851" lon="3.94707">
        <ele>181.35</ele>
        <time>2021-08-09T11:01:14Z</time>
      </trkpt>
      <trkpt lat="49.1851" lon="3.94705">
        <ele>181.35</ele>
        <time>2021-08-09T11:01:15Z</time>
      </trkpt>
      <trkpt lat="49.18509" lon="3.94702">
        <ele>182.31</ele>
        <time>2021-08-09T11:01:16Z</time>
      </trkpt>
      <trkpt lat="49.18508" lon="3.947">
        <ele>182.31</ele>
        <time>2021-08-09T11:01:17Z</time>
      </trkpt>
      <trkpt lat="49.18503" lon="3.94684">
        <ele>184.23</ele>
        <time>2021-08-09T11:01:23Z</time>
      </trkpt>
      <trkpt lat="49.18494" lon="3.94667">
        <ele>185.19</ele>
        <time>2021-08-09T11:01:30Z</time>
      </trkpt>
      <trkpt lat="49.18483" lon="3.94667">
        <ele>185.19</ele>
        <time>2021-08-09T11:01:35Z</time>
      </trkpt>
      <trkpt lat="49.18464" lon="3.94677">
        <ele>186.15</ele>
        <time>2021-08-09T11:01:43Z</time>
      </trkpt>
      <trkpt lat="49.18445" lon="3.94684">
        <ele>186.63</ele>
        <time>2021-08-09T11:01:52Z</time>
      </trkpt>
      <trkpt lat="49.18426" lon="3.94692">
        <ele>186.63</ele>
        <time>2021-08-09T11:01:59Z</time>
      </trkpt>
      <trkpt lat="49.184" lon="3.94705">
        <ele>187.11</ele>
        <time>2021-08-09T11:02:09Z</time>
      </trkpt>
      <trkpt lat="49.18382" lon="3.94716">
        <ele>188.08</ele>
        <time>2021-08-09T11:02:17Z</time>
      </trkpt>
      <trkpt lat="49.18368" lon="3.94725">
        <ele>188.56</ele>
        <time>2021-08-09T11:02:24Z</time>
      </trkpt>
      <trkpt lat="49.18345" lon="3.94741">
        <ele>189.52</ele>
        <time>2021-08-09T11:02:35Z</time>
      </trkpt>
      <trkpt lat="49.18326" lon="3.94751">
        <ele>190.48</ele>
        <time>2021-08-09T11:02:44Z</time>
      </trkpt>
      <trkpt lat="49.18305" lon="3.94759">
        <ele>191.92</ele>
        <time>2021-08-09T11:02:54Z</time>
      </trkpt>
      <trkpt lat="49.18287" lon="3.94764">
        <ele>193.84</ele>
        <time>2021-08-09T11:03:04Z</time>
      </trkpt>
      <trkpt lat="49.18273" lon="3.94767">
        <ele>194.8</ele>
        <time>2021-08-09T11:03:12Z</time>
      </trkpt>
      <trkpt lat="49.18255" lon="3.94773">
        <ele>195.28</ele>
        <time>2021-08-09T11:03:20Z</time>
      </trkpt>
      <trkpt lat="49.18233" lon="3.9478">
        <ele>197.21</ele>
        <time>2021-08-09T11:03:30Z</time>
      </trkpt>
      <trkpt lat="49.18214" lon="3.94786">
        <ele>198.65</ele>
        <time>2021-08-09T11:03:40Z</time>
      </trkpt>
      <trkpt lat="49.18198" lon="3.94783">
        <ele>199.61</ele>
        <time>2021-08-09T11:03:48Z</time>
      </trkpt>
      <trkpt lat="49.18196" lon="3.94782">
        <ele>199.61</ele>
        <time>2021-08-09T11:03:49Z</time>
      </trkpt>
      <trkpt lat="49.18194" lon="3.94782">
        <ele>200.09</ele>
        <time>2021-08-09T11:03:50Z</time>
      </trkpt>
      <trkpt lat="49.18192" lon="3.94782">
        <ele>200.09</ele>
        <time>2021-08-09T11:03:51Z</time>
      </trkpt>
      <trkpt lat="49.1819" lon="3.94782">
        <ele>200.09</ele>
        <time>2021-08-09T11:03:52Z</time>
      </trkpt>
      <trkpt lat="49.18172" lon="3.94776">
        <ele>201.53</ele>
        <time>2021-08-09T11:04:02Z</time>
      </trkpt>
      <trkpt lat="49.18157" lon="3.94774">
        <ele>203.46</ele>
        <time>2021-08-09T11:04:12Z</time>
      </trkpt>
      <trkpt lat="49.18143" lon="3.94771">
        <ele>204.9</ele>
        <time>2021-08-09T11:04:22Z</time>
      </trkpt>
      <trkpt lat="49.1813" lon="3.94771">
        <ele>206.34</ele>
        <time>2021-08-09T11:04:32Z</time>
      </trkpt>
      <trkpt lat="49.18128" lon="3.94771">
        <ele>206.34</ele>
        <time>2021-08-09T11:04:34Z</time>
      </trkpt>
      <trkpt lat="49.18127" lon="3.9477">
        <ele>207.3</ele>
        <time>2021-08-09T11:04:35Z</time>
      </trkpt>
      <trkpt lat="49.18125" lon="3.9477">
        <ele>207.3</ele>
        <time>2021-08-09T11:04:36Z</time>
      </trkpt>
      <trkpt lat="49.18124" lon="3.9477">
        <ele>207.78</ele>
        <time>2021-08-09T11:04:37Z</time>
      </trkpt>
      <trkpt lat="49.18123" lon="3.9477">
        <ele>207.78</ele>
        <time>2021-08-09T11:04:38Z</time>
      </trkpt>
      <trkpt lat="49.18122" lon="3.9477">
        <ele>207.78</ele>
        <time>2021-08-09T11:04:39Z</time>
      </trkpt>
      <trkpt lat="49.18121" lon="3.9477">
        <ele>207.78</ele>
        <time>2021-08-09T11:04:40Z</time>
      </trkpt>
      <trkpt lat="49.18119" lon="3.94769">
        <ele>208.74</ele>
        <time>2021-08-09T11:04:42Z</time>
      </trkpt>
      <trkpt lat="49.18118" lon="3.94768">
        <ele>208.74</ele>
        <time>2021-08-09T11:04:43Z</time>
      </trkpt>
      <trkpt lat="49.18116" lon="3.94767">
        <ele>208.74</ele>
        <time>2021-08-09T11:04:45Z</time>
      </trkpt>
      <trkpt lat="49.18105" lon="3.94766">
        <ele>211.15</ele>
        <time>2021-08-09T11:04:55Z</time>
      </trkpt>
      <trkpt lat="49.18096" lon="3.94765">
        <ele>212.59</ele>
        <time>2021-08-09T11:05:02Z</time>
      </trkpt>
      <trkpt lat="49.18087" lon="3.94763">
        <ele>214.51</ele>
        <time>2021-08-09T11:05:10Z</time>
      </trkpt>
      <trkpt lat="49.18078" lon="3.94762">
        <ele>215.95</ele>
        <time>2021-08-09T11:05:17Z</time>
      </trkpt>
      <trkpt lat="49.18076" lon="3.94761">
        <ele>216.43</ele>
        <time>2021-08-09T11:05:18Z</time>
      </trkpt>
      <trkpt lat="49.18071" lon="3.9476">
        <ele>216.43</ele>
        <time>2021-08-09T11:05:22Z</time>
      </trkpt>
      <trkpt lat="49.18069" lon="3.94759">
        <ele>217.4</ele>
        <time>2021-08-09T11:05:23Z</time>
      </trkpt>
      <trkpt lat="49.18068" lon="3.94759">
        <ele>217.4</ele>
        <time>2021-08-09T11:05:24Z</time>
      </trkpt>
      <trkpt lat="49.18066" lon="3.94759">
        <ele>217.4</ele>
        <time>2021-08-09T11:05:25Z</time>
      </trkpt>
      <trkpt lat="49.18064" lon="3.94759">
        <ele>217.4</ele>
        <time>2021-08-09T11:05:26Z</time>
      </trkpt>
      <trkpt lat="49.18063" lon="3.94758">
        <ele>217.4</ele>
        <time>2021-08-09T11:05:27Z</time>
      </trkpt>
      <trkpt lat="49.18061" lon="3.94758">
        <ele>217.4</ele>
        <time>2021-08-09T11:05:28Z</time>
      </trkpt>
      <trkpt lat="49.18059" lon="3.94757">
        <ele>217.88</ele>
        <time>2021-08-09T11:05:29Z</time>
      </trkpt>
      <trkpt lat="49.18057" lon="3.94757">
        <ele>217.88</ele>
        <time>2021-08-09T11:05:30Z</time>
      </trkpt>
      <trkpt lat="49.18056" lon="3.94757">
        <ele>217.88</ele>
        <time>2021-08-09T11:05:31Z</time>
      </trkpt>
      <trkpt lat="49.18045" lon="3.94755">
        <ele>218.36</ele>
        <time>2021-08-09T11:05:37Z</time>
      </trkpt>
      <trkpt lat="49.1803" lon="3.94743">
        <ele>219.8</ele>
        <time>2021-08-09T11:05:47Z</time>
      </trkpt>
      <trkpt lat="49.18018" lon="3.94726">
        <ele>220.76</ele>
        <time>2021-08-09T11:05:56Z</time>
      </trkpt>
      <trkpt lat="49.18003" lon="3.94708">
        <ele>222.68</ele>
        <time>2021-08-09T11:06:07Z</time>
      </trkpt>
      <trkpt lat="49.17993" lon="3.94693">
        <ele>223.16</ele>
        <time>2021-08-09T11:06:15Z</time>
      </trkpt>
      <trkpt lat="49.17986" lon="3.94677">
        <ele>225.09</ele>
        <time>2021-08-09T11:06:23Z</time>
      </trkpt>
      <trkpt lat="49.17979" lon="3.94659">
        <ele>225.09</ele>
        <time>2021-08-09T11:06:30Z</time>
      </trkpt>
      <trkpt lat="49.1797" lon="3.94635">
        <ele>226.05</ele>
        <time>2021-08-09T11:06:39Z</time>
      </trkpt>
      <trkpt lat="49.17961" lon="3.9461">
        <ele>226.53</ele>
        <time>2021-08-09T11:06:48Z</time>
      </trkpt>
      <trkpt lat="49.17955" lon="3.9459">
        <ele>226.53</ele>
        <time>2021-08-09T11:06:57Z</time>
      </trkpt>
      <trkpt lat="49.17951" lon="3.94577">
        <ele>228.45</ele>
        <time>2021-08-09T11:07:03Z</time>
      </trkpt>
      <trkpt lat="49.17945" lon="3.94561">
        <ele>229.41</ele>
        <time>2021-08-09T11:07:11Z</time>
      </trkpt>
      <trkpt lat="49.17942" lon="3.94542">
        <ele>229.89</ele>
        <time>2021-08-09T11:07:19Z</time>
      </trkpt>
      <trkpt lat="49.17942" lon="3.94535">
        <ele>231.81</ele>
        <time>2021-08-09T11:07:22Z</time>
      </trkpt>
      <trkpt lat="49.17937" lon="3.94517">
        <ele>232.3</ele>
        <time>2021-08-09T11:07:32Z</time>
      </trkpt>
      <trkpt lat="49.17936" lon="3.94508">
        <ele>233.74</ele>
        <time>2021-08-09T11:07:36Z</time>
      </trkpt>
      <trkpt lat="49.17935" lon="3.94505">
        <ele>233.26</ele>
        <time>2021-08-09T11:07:37Z</time>
      </trkpt>
      <trkpt lat="49.17934" lon="3.94497">
        <ele>234.7</ele>
        <time>2021-08-09T11:07:40Z</time>
      </trkpt>
      <trkpt lat="49.17933" lon="3.94492">
        <ele>234.22</ele>
        <time>2021-08-09T11:07:42Z</time>
      </trkpt>
      <trkpt lat="49.17933" lon="3.94487">
        <ele>234.22</ele>
        <time>2021-08-09T11:07:44Z</time>
      </trkpt>
      <trkpt lat="49.17928" lon="3.94466">
        <ele>234.7</ele>
        <time>2021-08-09T11:07:52Z</time>
      </trkpt>
      <trkpt lat="49.17922" lon="3.94436">
        <ele>236.14</ele>
        <time>2021-08-09T11:08:03Z</time>
      </trkpt>
      <trkpt lat="49.17917" lon="3.94415">
        <ele>236.62</ele>
        <time>2021-08-09T11:08:09Z</time>
      </trkpt>
      <trkpt lat="49.17911" lon="3.94388">
        <ele>236.62</ele>
        <time>2021-08-09T11:08:16Z</time>
      </trkpt>
      <trkpt lat="49.17907" lon="3.94358">
        <ele>237.58</ele>
        <time>2021-08-09T11:08:23Z</time>
      </trkpt>
      <trkpt lat="49.17903" lon="3.94328">
        <ele>238.54</ele>
        <time>2021-08-09T11:08:30Z</time>
      </trkpt>
      <trkpt lat="49.17903" lon="3.94326">
        <ele>238.54</ele>
        <time>2021-08-09T11:08:31Z</time>
      </trkpt>
      <trkpt lat="49.17903" lon="3.94323">
        <ele>239.02</ele>
        <time>2021-08-09T11:08:32Z</time>
      </trkpt>
      <trkpt lat="49.17902" lon="3.94319">
        <ele>239.02</ele>
        <time>2021-08-09T11:08:33Z</time>
      </trkpt>
      <trkpt lat="49.17901" lon="3.94313">
        <ele>239.99</ele>
        <time>2021-08-09T11:08:35Z</time>
      </trkpt>
      <trkpt lat="49.17901" lon="3.94307">
        <ele>240.47</ele>
        <time>2021-08-09T11:08:38Z</time>
      </trkpt>
      <trkpt lat="49.17901" lon="3.94305">
        <ele>240.47</ele>
        <time>2021-08-09T11:08:39Z</time>
      </trkpt>
      <trkpt lat="49.17901" lon="3.94302">
        <ele>240.47</ele>
        <time>2021-08-09T11:08:40Z</time>
      </trkpt>
      <trkpt lat="49.17901" lon="3.94299">
        <ele>240.95</ele>
        <time>2021-08-09T11:08:41Z</time>
      </trkpt>
      <trkpt lat="49.17899" lon="3.94284">
        <ele>240.95</ele>
        <time>2021-08-09T11:08:46Z</time>
      </trkpt>
      <trkpt lat="49.17898" lon="3.9428">
        <ele>241.43</ele>
        <time>2021-08-09T11:08:47Z</time>
      </trkpt>
      <trkpt lat="49.17898" lon="3.94277">
        <ele>241.43</ele>
        <time>2021-08-09T11:08:48Z</time>
      </trkpt>
      <trkpt lat="49.17898" lon="3.94274">
        <ele>241.43</ele>
        <time>2021-08-09T11:08:49Z</time>
      </trkpt>
      <trkpt lat="49.17898" lon="3.94271">
        <ele>241.43</ele>
        <time>2021-08-09T11:08:50Z</time>
      </trkpt>
      <trkpt lat="49.17897" lon="3.94268">
        <ele>241.91</ele>
        <time>2021-08-09T11:08:51Z</time>
      </trkpt>
      <trkpt lat="49.17895" lon="3.94259">
        <ele>241.91</ele>
        <time>2021-08-09T11:08:54Z</time>
      </trkpt>
      <trkpt lat="49.17894" lon="3.94257">
        <ele>242.39</ele>
        <time>2021-08-09T11:08:55Z</time>
      </trkpt>
      <trkpt lat="49.17893" lon="3.94255">
        <ele>242.39</ele>
        <time>2021-08-09T11:08:56Z</time>
      </trkpt>
      <trkpt lat="49.17892" lon="3.94252">
        <ele>242.87</ele>
        <time>2021-08-09T11:08:57Z</time>
      </trkpt>
      <trkpt lat="49.17891" lon="3.9425">
        <ele>242.87</ele>
        <time>2021-08-09T11:08:58Z</time>
      </trkpt>
      <trkpt lat="49.17889" lon="3.94241">
        <ele>242.87</ele>
        <time>2021-08-09T11:09:02Z</time>
      </trkpt>
      <trkpt lat="49.17888" lon="3.94235">
        <ele>243.35</ele>
        <time>2021-08-09T11:09:05Z</time>
      </trkpt>
      <trkpt lat="49.17885" lon="3.94223">
        <ele>243.83</ele>
        <time>2021-08-09T11:09:12Z</time>
      </trkpt>
      <trkpt lat="49.17884" lon="3.94211">
        <ele>244.79</ele>
        <time>2021-08-09T11:09:20Z</time>
      </trkpt>
      <trkpt lat="49.17879" lon="3.942">
        <ele>244.79</ele>
        <time>2021-08-09T11:09:22Z</time>
      </trkpt>
      <trkpt lat="49.17877" lon="3.94195">
        <ele>244.79</ele>
        <time>2021-08-09T11:09:23Z</time>
      </trkpt>
      <trkpt lat="49.17875" lon="3.94189">
        <ele>244.79</ele>
        <time>2021-08-09T11:09:25Z</time>
      </trkpt>
      <trkpt lat="49.17874" lon="3.94185">
        <ele>244.79</ele>
        <time>2021-08-09T11:09:26Z</time>
      </trkpt>
      <trkpt lat="49.17872" lon="3.94182">
        <ele>244.79</ele>
        <time>2021-08-09T11:09:27Z</time>
      </trkpt>
      <trkpt lat="49.17865" lon="3.94165">
        <ele>244.79</ele>
        <time>2021-08-09T11:09:34Z</time>
      </trkpt>
      <trkpt lat="49.17862" lon="3.94154">
        <ele>245.27</ele>
        <time>2021-08-09T11:09:40Z</time>
      </trkpt>
      <trkpt lat="49.17861" lon="3.94138">
        <ele>246.23</ele>
        <time>2021-08-09T11:09:48Z</time>
      </trkpt>
      <trkpt lat="49.1786" lon="3.94135">
        <ele>246.23</ele>
        <time>2021-08-09T11:09:49Z</time>
      </trkpt>
      <trkpt lat="49.17858" lon="3.94127">
        <ele>246.72</ele>
        <time>2021-08-09T11:09:51Z</time>
      </trkpt>
      <trkpt lat="49.17857" lon="3.94123">
        <ele>246.72</ele>
        <time>2021-08-09T11:09:52Z</time>
      </trkpt>
      <trkpt lat="49.17852" lon="3.94101">
        <ele>247.2</ele>
        <time>2021-08-09T11:09:59Z</time>
      </trkpt>
      <trkpt lat="49.17848" lon="3.94087">
        <ele>247.68</ele>
        <time>2021-08-09T11:10:05Z</time>
      </trkpt>
      <trkpt lat="49.17845" lon="3.94084">
        <ele>247.68</ele>
        <time>2021-08-09T11:10:11Z</time>
      </trkpt>
      <trkpt lat="49.17843" lon="3.94079">
        <ele>247.68</ele>
        <time>2021-08-09T11:10:17Z</time>
      </trkpt>
      <trkpt lat="49.17841" lon="3.94071">
        <ele>248.16</ele>
        <time>2021-08-09T11:10:24Z</time>
      </trkpt>
      <trkpt lat="49.17841" lon="3.9407">
        <ele>248.16</ele>
        <time>2021-08-09T11:10:25Z</time>
      </trkpt>
      <trkpt lat="49.17838" lon="3.94058">
        <ele>248.16</ele>
        <time>2021-08-09T11:10:30Z</time>
      </trkpt>
      <trkpt lat="49.17833" lon="3.94047">
        <ele>248.16</ele>
        <time>2021-08-09T11:10:34Z</time>
      </trkpt>
      <trkpt lat="49.17822" lon="3.94027">
        <ele>248.16</ele>
        <time>2021-08-09T11:10:41Z</time>
      </trkpt>
      <trkpt lat="49.17821" lon="3.94024">
        <ele>248.16</ele>
        <time>2021-08-09T11:10:42Z</time>
      </trkpt>
      <trkpt lat="49.1782" lon="3.94021">
        <ele>248.16</ele>
        <time>2021-08-09T11:10:43Z</time>
      </trkpt>
      <trkpt lat="49.17818" lon="3.94017">
        <ele>248.16</ele>
        <time>2021-08-09T11:10:45Z</time>
      </trkpt>
      <trkpt lat="49.17817" lon="3.94014">
        <ele>248.16</ele>
        <time>2021-08-09T11:10:46Z</time>
      </trkpt>
      <trkpt lat="49.17814" lon="3.94001">
        <ele>248.16</ele>
        <time>2021-08-09T11:10:52Z</time>
      </trkpt>
      <trkpt lat="49.17806" lon="3.93987">
        <ele>248.64</ele>
        <time>2021-08-09T11:10:56Z</time>
      </trkpt>
      <trkpt lat="49.17803" lon="3.93985">
        <ele>248.64</ele>
        <time>2021-08-09T11:10:57Z</time>
      </trkpt>
      <trkpt lat="49.17801" lon="3.93982">
        <ele>248.64</ele>
        <time>2021-08-09T11:10:58Z</time>
      </trkpt>
      <trkpt lat="49.178" lon="3.93979">
        <ele>248.64</ele>
        <time>2021-08-09T11:10:59Z</time>
      </trkpt>
      <trkpt lat="49.17799" lon="3.93975">
        <ele>248.64</ele>
        <time>2021-08-09T11:11:00Z</time>
      </trkpt>
      <trkpt lat="49.17799" lon="3.93971">
        <ele>248.64</ele>
        <time>2021-08-09T11:11:01Z</time>
      </trkpt>
      <trkpt lat="49.17797" lon="3.93968">
        <ele>248.64</ele>
        <time>2021-08-09T11:11:02Z</time>
      </trkpt>
      <trkpt lat="49.17796" lon="3.93965">
        <ele>248.64</ele>
        <time>2021-08-09T11:11:03Z</time>
      </trkpt>
      <trkpt lat="49.17795" lon="3.93962">
        <ele>248.64</ele>
        <time>2021-08-09T11:11:04Z</time>
      </trkpt>
      <trkpt lat="49.17787" lon="3.9394">
        <ele>249.12</ele>
        <time>2021-08-09T11:11:11Z</time>
      </trkpt>
      <trkpt lat="49.17782" lon="3.93929">
        <ele>249.6</ele>
        <time>2021-08-09T11:11:16Z</time>
      </trkpt>
      <trkpt lat="49.17774" lon="3.93923">
        <ele>250.08</ele>
        <time>2021-08-09T11:11:31Z</time>
      </trkpt>
      <trkpt lat="49.17772" lon="3.93907">
        <ele>250.56</ele>
        <time>2021-08-09T11:11:42Z</time>
      </trkpt>
      <trkpt lat="49.17765" lon="3.93888">
        <ele>251.04</ele>
        <time>2021-08-09T11:11:48Z</time>
      </trkpt>
      <trkpt lat="49.17759" lon="3.93869">
        <ele>251.52</ele>
        <time>2021-08-09T11:11:55Z</time>
      </trkpt>
      <trkpt lat="49.17747" lon="3.93837">
        <ele>252</ele>
        <time>2021-08-09T11:12:04Z</time>
      </trkpt>
      <trkpt lat="49.17738" lon="3.93816">
        <ele>252.48</ele>
        <time>2021-08-09T11:12:11Z</time>
      </trkpt>
      <trkpt lat="49.17736" lon="3.9381">
        <ele>252.96</ele>
        <time>2021-08-09T11:12:13Z</time>
      </trkpt>
      <trkpt lat="49.17734" lon="3.93808">
        <ele>252.96</ele>
        <time>2021-08-09T11:12:14Z</time>
      </trkpt>
      <trkpt lat="49.17714" lon="3.93789">
        <ele>252.96</ele>
        <time>2021-08-09T11:12:23Z</time>
      </trkpt>
      <trkpt lat="49.17689" lon="3.93777">
        <ele>253.44</ele>
        <time>2021-08-09T11:12:30Z</time>
      </trkpt>
      <trkpt lat="49.17668" lon="3.93767">
        <ele>253.93</ele>
        <time>2021-08-09T11:12:36Z</time>
      </trkpt>
      <trkpt lat="49.17664" lon="3.93765">
        <ele>253.93</ele>
        <time>2021-08-09T11:12:37Z</time>
      </trkpt>
      <trkpt lat="49.17661" lon="3.93763">
        <ele>253.93</ele>
        <time>2021-08-09T11:12:38Z</time>
      </trkpt>
      <trkpt lat="49.17639" lon="3.93751">
        <ele>254.41</ele>
        <time>2021-08-09T11:12:45Z</time>
      </trkpt>
      <trkpt lat="49.1762" lon="3.93743">
        <ele>254.41</ele>
        <time>2021-08-09T11:12:51Z</time>
      </trkpt>
      <trkpt lat="49.17601" lon="3.93733">
        <ele>254.89</ele>
        <time>2021-08-09T11:12:57Z</time>
      </trkpt>
      <trkpt lat="49.17583" lon="3.93722">
        <ele>255.37</ele>
        <time>2021-08-09T11:13:02Z</time>
      </trkpt>
      <trkpt lat="49.17561" lon="3.9371">
        <ele>255.37</ele>
        <time>2021-08-09T11:13:08Z</time>
      </trkpt>
      <trkpt lat="49.1754" lon="3.93698">
        <ele>255.37</ele>
        <time>2021-08-09T11:13:14Z</time>
      </trkpt>
      <trkpt lat="49.17523" lon="3.93687">
        <ele>255.37</ele>
        <time>2021-08-09T11:13:20Z</time>
      </trkpt>
      <trkpt lat="49.175" lon="3.93681">
        <ele>256.33</ele>
        <time>2021-08-09T11:13:26Z</time>
      </trkpt>
      <trkpt lat="49.17482" lon="3.93679">
        <ele>256.81</ele>
        <time>2021-08-09T11:13:32Z</time>
      </trkpt>
      <trkpt lat="49.1746" lon="3.93678">
        <ele>257.29</ele>
        <time>2021-08-09T11:13:39Z</time>
      </trkpt>
      <trkpt lat="49.17436" lon="3.93674">
        <ele>257.77</ele>
        <time>2021-08-09T11:13:46Z</time>
      </trkpt>
      <trkpt lat="49.1741" lon="3.93668">
        <ele>258.25</ele>
        <time>2021-08-09T11:13:54Z</time>
      </trkpt>
      <trkpt lat="49.17393" lon="3.93671">
        <ele>258.25</ele>
        <time>2021-08-09T11:13:59Z</time>
      </trkpt>
      <trkpt lat="49.17376" lon="3.93668">
        <ele>258.25</ele>
        <time>2021-08-09T11:14:04Z</time>
      </trkpt>
      <trkpt lat="49.17368" lon="3.93659">
        <ele>258.25</ele>
        <time>2021-08-09T11:14:08Z</time>
      </trkpt>
      <trkpt lat="49.17365" lon="3.93657">
        <ele>258.25</ele>
        <time>2021-08-09T11:14:09Z</time>
      </trkpt>
      <trkpt lat="49.17363" lon="3.93655">
        <ele>258.25</ele>
        <time>2021-08-09T11:14:10Z</time>
      </trkpt>
      <trkpt lat="49.1736" lon="3.93654">
        <ele>258.25</ele>
        <time>2021-08-09T11:14:11Z</time>
      </trkpt>
      <trkpt lat="49.17357" lon="3.93653">
        <ele>258.25</ele>
        <time>2021-08-09T11:14:12Z</time>
      </trkpt>
      <trkpt lat="49.17354" lon="3.93651">
        <ele>258.25</ele>
        <time>2021-08-09T11:14:13Z</time>
      </trkpt>
      <trkpt lat="49.17351" lon="3.93649">
        <ele>258.25</ele>
        <time>2021-08-09T11:14:14Z</time>
      </trkpt>
      <trkpt lat="49.1735" lon="3.93646">
        <ele>258.73</ele>
        <time>2021-08-09T11:14:15Z</time>
      </trkpt>
      <trkpt lat="49.17349" lon="3.93643">
        <ele>258.73</ele>
        <time>2021-08-09T11:14:16Z</time>
      </trkpt>
      <trkpt lat="49.17349" lon="3.93631">
        <ele>259.69</ele>
        <time>2021-08-09T11:14:20Z</time>
      </trkpt>
      <trkpt lat="49.17352" lon="3.93602">
        <ele>260.65</ele>
        <time>2021-08-09T11:14:28Z</time>
      </trkpt>
      <trkpt lat="49.17361" lon="3.93583">
        <ele>261.62</ele>
        <time>2021-08-09T11:14:35Z</time>
      </trkpt>
      <trkpt lat="49.1737" lon="3.93559">
        <ele>262.58</ele>
        <time>2021-08-09T11:14:43Z</time>
      </trkpt>
      <trkpt lat="49.17381" lon="3.93538">
        <ele>263.54</ele>
        <time>2021-08-09T11:14:49Z</time>
      </trkpt>
      <trkpt lat="49.1739" lon="3.93516">
        <ele>264.02</ele>
        <time>2021-08-09T11:14:56Z</time>
      </trkpt>
      <trkpt lat="49.17404" lon="3.93484">
        <ele>264.02</ele>
        <time>2021-08-09T11:15:04Z</time>
      </trkpt>
      <trkpt lat="49.17413" lon="3.93458">
        <ele>264.5</ele>
        <time>2021-08-09T11:15:11Z</time>
      </trkpt>
      <trkpt lat="49.17415" lon="3.93433">
        <ele>265.46</ele>
        <time>2021-08-09T11:15:17Z</time>
      </trkpt>
      <trkpt lat="49.17415" lon="3.93402">
        <ele>265.94</ele>
        <time>2021-08-09T11:15:24Z</time>
      </trkpt>
      <trkpt lat="49.17414" lon="3.93374">
        <ele>266.9</ele>
        <time>2021-08-09T11:15:31Z</time>
      </trkpt>
      <trkpt lat="49.17415" lon="3.93337">
        <ele>266.9</ele>
        <time>2021-08-09T11:15:39Z</time>
      </trkpt>
      <trkpt lat="49.17416" lon="3.93293">
        <ele>267.38</ele>
        <time>2021-08-09T11:15:48Z</time>
      </trkpt>
      <trkpt lat="49.17415" lon="3.93263">
        <ele>268.35</ele>
        <time>2021-08-09T11:15:54Z</time>
      </trkpt>
      <trkpt lat="49.17413" lon="3.93255">
        <ele>268.35</ele>
        <time>2021-08-09T11:15:56Z</time>
      </trkpt>
      <trkpt lat="49.17411" lon="3.93252">
        <ele>268.35</ele>
        <time>2021-08-09T11:15:57Z</time>
      </trkpt>
      <trkpt lat="49.174" lon="3.93228">
        <ele>268.35</ele>
        <time>2021-08-09T11:16:03Z</time>
      </trkpt>
      <trkpt lat="49.17395" lon="3.93217">
        <ele>268.35</ele>
        <time>2021-08-09T11:16:06Z</time>
      </trkpt>
      <trkpt lat="49.17392" lon="3.93215">
        <ele>268.35</ele>
        <time>2021-08-09T11:16:07Z</time>
      </trkpt>
      <trkpt lat="49.1739" lon="3.93212">
        <ele>268.35</ele>
        <time>2021-08-09T11:16:08Z</time>
      </trkpt>
      <trkpt lat="49.17378" lon="3.9319">
        <ele>268.35</ele>
        <time>2021-08-09T11:16:15Z</time>
      </trkpt>
      <trkpt lat="49.17358" lon="3.93163">
        <ele>269.31</ele>
        <time>2021-08-09T11:16:23Z</time>
      </trkpt>
      <trkpt lat="49.17339" lon="3.93131">
        <ele>269.31</ele>
        <time>2021-08-09T11:16:31Z</time>
      </trkpt>
      <trkpt lat="49.17323" lon="3.93107">
        <ele>269.79</ele>
        <time>2021-08-09T11:16:37Z</time>
      </trkpt>
      <trkpt lat="49.17302" lon="3.93081">
        <ele>269.31</ele>
        <time>2021-08-09T11:16:43Z</time>
      </trkpt>
      <trkpt lat="49.17299" lon="3.93077">
        <ele>269.31</ele>
        <time>2021-08-09T11:16:44Z</time>
      </trkpt>
      <trkpt lat="49.17272" lon="3.93043">
        <ele>268.35</ele>
        <time>2021-08-09T11:16:52Z</time>
      </trkpt>
      <trkpt lat="49.17256" lon="3.93016">
        <ele>268.35</ele>
        <time>2021-08-09T11:16:59Z</time>
      </trkpt>
      <trkpt lat="49.17255" lon="3.93015">
        <ele>268.35</ele>
        <time>2021-08-09T11:17:00Z</time>
      </trkpt>
      <trkpt lat="49.17253" lon="3.93013">
        <ele>268.35</ele>
        <time>2021-08-09T11:17:02Z</time>
      </trkpt>
      <trkpt lat="49.17252" lon="3.93013">
        <ele>268.35</ele>
        <time>2021-08-09T11:17:03Z</time>
      </trkpt>
      <trkpt lat="49.17243" lon="3.93003">
        <ele>268.35</ele>
        <time>2021-08-09T11:17:09Z</time>
      </trkpt>
      <trkpt lat="49.17226" lon="3.92979">
        <ele>267.86</ele>
        <time>2021-08-09T11:17:15Z</time>
      </trkpt>
      <trkpt lat="49.17213" lon="3.92964">
        <ele>267.86</ele>
        <time>2021-08-09T11:17:19Z</time>
      </trkpt>
      <trkpt lat="49.17191" lon="3.92933">
        <ele>267.38</ele>
        <time>2021-08-09T11:17:27Z</time>
      </trkpt>
      <trkpt lat="49.17175" lon="3.92901">
        <ele>267.38</ele>
        <time>2021-08-09T11:17:34Z</time>
      </trkpt>
      <trkpt lat="49.17173" lon="3.92895">
        <ele>267.38</ele>
        <time>2021-08-09T11:17:35Z</time>
      </trkpt>
      <trkpt lat="49.1717" lon="3.92891">
        <ele>267.38</ele>
        <time>2021-08-09T11:17:36Z</time>
      </trkpt>
      <trkpt lat="49.17141" lon="3.92853">
        <ele>266.9</ele>
        <time>2021-08-09T11:17:44Z</time>
      </trkpt>
      <trkpt lat="49.17126" lon="3.92819">
        <ele>266.42</ele>
        <time>2021-08-09T11:17:50Z</time>
      </trkpt>
      <trkpt lat="49.17124" lon="3.92812">
        <ele>266.42</ele>
        <time>2021-08-09T11:17:51Z</time>
      </trkpt>
      <trkpt lat="49.17122" lon="3.92807">
        <ele>266.42</ele>
        <time>2021-08-09T11:17:52Z</time>
      </trkpt>
      <trkpt lat="49.17119" lon="3.928">
        <ele>266.42</ele>
        <time>2021-08-09T11:17:53Z</time>
      </trkpt>
      <trkpt lat="49.17117" lon="3.92794">
        <ele>266.42</ele>
        <time>2021-08-09T11:17:54Z</time>
      </trkpt>
      <trkpt lat="49.17116" lon="3.92788">
        <ele>266.42</ele>
        <time>2021-08-09T11:17:55Z</time>
      </trkpt>
      <trkpt lat="49.17114" lon="3.92783">
        <ele>266.42</ele>
        <time>2021-08-09T11:17:56Z</time>
      </trkpt>
      <trkpt lat="49.17112" lon="3.92777">
        <ele>266.42</ele>
        <time>2021-08-09T11:17:57Z</time>
      </trkpt>
      <trkpt lat="49.17101" lon="3.92743">
        <ele>265.46</ele>
        <time>2021-08-09T11:18:03Z</time>
      </trkpt>
      <trkpt lat="49.17091" lon="3.92714">
        <ele>265.46</ele>
        <time>2021-08-09T11:18:07Z</time>
      </trkpt>
      <trkpt lat="49.17088" lon="3.92706">
        <ele>264.98</ele>
        <time>2021-08-09T11:18:08Z</time>
      </trkpt>
      <trkpt lat="49.17085" lon="3.92699">
        <ele>264.98</ele>
        <time>2021-08-09T11:18:09Z</time>
      </trkpt>
      <trkpt lat="49.17065" lon="3.92646">
        <ele>264.02</ele>
        <time>2021-08-09T11:18:16Z</time>
      </trkpt>
      <trkpt lat="49.17063" lon="3.92638">
        <ele>264.02</ele>
        <time>2021-08-09T11:18:17Z</time>
      </trkpt>
      <trkpt lat="49.17042" lon="3.92585">
        <ele>263.54</ele>
        <time>2021-08-09T11:18:24Z</time>
      </trkpt>
      <trkpt lat="49.17028" lon="3.92553">
        <ele>263.54</ele>
        <time>2021-08-09T11:18:29Z</time>
      </trkpt>
      <trkpt lat="49.17014" lon="3.92519">
        <ele>262.58</ele>
        <time>2021-08-09T11:18:35Z</time>
      </trkpt>
      <trkpt lat="49.17011" lon="3.92514">
        <ele>262.58</ele>
        <time>2021-08-09T11:18:36Z</time>
      </trkpt>
      <trkpt lat="49.17008" lon="3.9251">
        <ele>262.58</ele>
        <time>2021-08-09T11:18:37Z</time>
      </trkpt>
      <trkpt lat="49.17001" lon="3.925">
        <ele>262.58</ele>
        <time>2021-08-09T11:18:39Z</time>
      </trkpt>
      <trkpt lat="49.1699" lon="3.9248">
        <ele>262.1</ele>
        <time>2021-08-09T11:18:43Z</time>
      </trkpt>
      <trkpt lat="49.16968" lon="3.92462">
        <ele>261.62</ele>
        <time>2021-08-09T11:18:48Z</time>
      </trkpt>
      <trkpt lat="49.16964" lon="3.92455">
        <ele>261.62</ele>
        <time>2021-08-09T11:18:49Z</time>
      </trkpt>
      <trkpt lat="49.16961" lon="3.9245">
        <ele>261.62</ele>
        <time>2021-08-09T11:18:50Z</time>
      </trkpt>
      <trkpt lat="49.16958" lon="3.92445">
        <ele>261.62</ele>
        <time>2021-08-09T11:18:51Z</time>
      </trkpt>
      <trkpt lat="49.16955" lon="3.92442">
        <ele>261.62</ele>
        <time>2021-08-09T11:18:52Z</time>
      </trkpt>
      <trkpt lat="49.16952" lon="3.92442">
        <ele>261.62</ele>
        <time>2021-08-09T11:18:53Z</time>
      </trkpt>
      <trkpt lat="49.16949" lon="3.92443">
        <ele>261.62</ele>
        <time>2021-08-09T11:18:54Z</time>
      </trkpt>
      <trkpt lat="49.16945" lon="3.92445">
        <ele>261.62</ele>
        <time>2021-08-09T11:18:55Z</time>
      </trkpt>
      <trkpt lat="49.16943" lon="3.92448">
        <ele>261.62</ele>
        <time>2021-08-09T11:18:56Z</time>
      </trkpt>
      <trkpt lat="49.16939" lon="3.92452">
        <ele>261.62</ele>
        <time>2021-08-09T11:18:57Z</time>
      </trkpt>
      <trkpt lat="49.16908" lon="3.92486">
        <ele>261.62</ele>
        <time>2021-08-09T11:19:06Z</time>
      </trkpt>
      <trkpt lat="49.16898" lon="3.92497">
        <ele>261.62</ele>
        <time>2021-08-09T11:19:09Z</time>
      </trkpt>
      <trkpt lat="49.16894" lon="3.925">
        <ele>261.62</ele>
        <time>2021-08-09T11:19:10Z</time>
      </trkpt>
      <trkpt lat="49.1689" lon="3.92504">
        <ele>261.62</ele>
        <time>2021-08-09T11:19:11Z</time>
      </trkpt>
      <trkpt lat="49.16886" lon="3.92508">
        <ele>261.62</ele>
        <time>2021-08-09T11:19:12Z</time>
      </trkpt>
      <trkpt lat="49.16883" lon="3.92512">
        <ele>261.62</ele>
        <time>2021-08-09T11:19:13Z</time>
      </trkpt>
      <trkpt lat="49.16856" lon="3.9254">
        <ele>261.62</ele>
        <time>2021-08-09T11:19:20Z</time>
      </trkpt>
      <trkpt lat="49.16814" lon="3.92583">
        <ele>261.62</ele>
        <time>2021-08-09T11:19:30Z</time>
      </trkpt>
      <trkpt lat="49.16785" lon="3.92615">
        <ele>261.62</ele>
        <time>2021-08-09T11:19:37Z</time>
      </trkpt>
      <trkpt lat="49.16742" lon="3.92661">
        <ele>260.65</ele>
        <time>2021-08-09T11:19:46Z</time>
      </trkpt>
      <trkpt lat="49.16699" lon="3.92706">
        <ele>260.65</ele>
        <time>2021-08-09T11:19:55Z</time>
      </trkpt>
      <trkpt lat="49.16665" lon="3.92741">
        <ele>260.65</ele>
        <time>2021-08-09T11:20:03Z</time>
      </trkpt>
      <trkpt lat="49.16633" lon="3.92776">
        <ele>260.65</ele>
        <time>2021-08-09T11:20:10Z</time>
      </trkpt>
      <trkpt lat="49.1663" lon="3.92782">
        <ele>260.65</ele>
        <time>2021-08-09T11:20:11Z</time>
      </trkpt>
      <trkpt lat="49.16627" lon="3.92789">
        <ele>260.65</ele>
        <time>2021-08-09T11:20:12Z</time>
      </trkpt>
      <trkpt lat="49.16628" lon="3.92796">
        <ele>260.65</ele>
        <time>2021-08-09T11:20:13Z</time>
      </trkpt>
      <trkpt lat="49.1663" lon="3.92805">
        <ele>260.65</ele>
        <time>2021-08-09T11:20:14Z</time>
      </trkpt>
      <trkpt lat="49.16632" lon="3.92812">
        <ele>260.65</ele>
        <time>2021-08-09T11:20:15Z</time>
      </trkpt>
      <trkpt lat="49.16634" lon="3.92818">
        <ele>260.65</ele>
        <time>2021-08-09T11:20:16Z</time>
      </trkpt>
      <trkpt lat="49.1665" lon="3.92842">
        <ele>260.65</ele>
        <time>2021-08-09T11:20:20Z</time>
      </trkpt>
      <trkpt lat="49.16676" lon="3.92876">
        <ele>262.1</ele>
        <time>2021-08-09T11:20:27Z</time>
      </trkpt>
      <trkpt lat="49.16679" lon="3.92881">
        <ele>262.1</ele>
        <time>2021-08-09T11:20:28Z</time>
      </trkpt>
      <trkpt lat="49.1671" lon="3.92919">
        <ele>262.58</ele>
        <time>2021-08-09T11:20:37Z</time>
      </trkpt>
      <trkpt lat="49.16742" lon="3.92962">
        <ele>264.5</ele>
        <time>2021-08-09T11:20:48Z</time>
      </trkpt>
      <trkpt lat="49.16766" lon="3.92996">
        <ele>264.98</ele>
        <time>2021-08-09T11:20:57Z</time>
      </trkpt>
      <trkpt lat="49.16794" lon="3.93035">
        <ele>265.94</ele>
        <time>2021-08-09T11:21:07Z</time>
      </trkpt>
      <trkpt lat="49.16819" lon="3.93072">
        <ele>266.42</ele>
        <time>2021-08-09T11:21:16Z</time>
      </trkpt>
      <trkpt lat="49.16848" lon="3.93112">
        <ele>267.38</ele>
        <time>2021-08-09T11:21:26Z</time>
      </trkpt>
      <trkpt lat="49.16856" lon="3.93143">
        <ele>267.38</ele>
        <time>2021-08-09T11:21:32Z</time>
      </trkpt>
      <trkpt lat="49.16853" lon="3.9316">
        <ele>267.38</ele>
        <time>2021-08-09T11:21:35Z</time>
      </trkpt>
      <trkpt lat="49.1685" lon="3.93164">
        <ele>267.86</ele>
        <time>2021-08-09T11:21:36Z</time>
      </trkpt>
      <trkpt lat="49.16847" lon="3.93168">
        <ele>267.86</ele>
        <time>2021-08-09T11:21:37Z</time>
      </trkpt>
      <trkpt lat="49.16833" lon="3.93183">
        <ele>267.86</ele>
        <time>2021-08-09T11:21:41Z</time>
      </trkpt>
      <trkpt lat="49.1683" lon="3.93187">
        <ele>267.86</ele>
        <time>2021-08-09T11:21:42Z</time>
      </trkpt>
      <trkpt lat="49.16826" lon="3.93191">
        <ele>267.86</ele>
        <time>2021-08-09T11:21:43Z</time>
      </trkpt>
      <trkpt lat="49.16822" lon="3.93195">
        <ele>267.38</ele>
        <time>2021-08-09T11:21:44Z</time>
      </trkpt>
      <trkpt lat="49.16819" lon="3.932">
        <ele>267.38</ele>
        <time>2021-08-09T11:21:45Z</time>
      </trkpt>
      <trkpt lat="49.16772" lon="3.93249">
        <ele>267.38</ele>
        <time>2021-08-09T11:21:57Z</time>
      </trkpt>
      <trkpt lat="49.16736" lon="3.9329">
        <ele>267.38</ele>
        <time>2021-08-09T11:22:06Z</time>
      </trkpt>
      <trkpt lat="49.1669" lon="3.9334">
        <ele>266.42</ele>
        <time>2021-08-09T11:22:17Z</time>
      </trkpt>
      <trkpt lat="49.16658" lon="3.93377">
        <ele>265.46</ele>
        <time>2021-08-09T11:22:25Z</time>
      </trkpt>
      <trkpt lat="49.16625" lon="3.93413">
        <ele>264.5</ele>
        <time>2021-08-09T11:22:33Z</time>
      </trkpt>
      <trkpt lat="49.16621" lon="3.93417">
        <ele>264.5</ele>
        <time>2021-08-09T11:22:34Z</time>
      </trkpt>
      <trkpt lat="49.16589" lon="3.93441">
        <ele>264.5</ele>
        <time>2021-08-09T11:22:41Z</time>
      </trkpt>
      <trkpt lat="49.16546" lon="3.93466">
        <ele>263.54</ele>
        <time>2021-08-09T11:22:50Z</time>
      </trkpt>
      <trkpt lat="49.1653" lon="3.93471">
        <ele>263.54</ele>
        <time>2021-08-09T11:22:53Z</time>
      </trkpt>
      <trkpt lat="49.16489" lon="3.93476">
        <ele>263.54</ele>
        <time>2021-08-09T11:23:01Z</time>
      </trkpt>
      <trkpt lat="49.16442" lon="3.93483">
        <ele>262.1</ele>
        <time>2021-08-09T11:23:09Z</time>
      </trkpt>
      <trkpt lat="49.16387" lon="3.93504">
        <ele>261.62</ele>
        <time>2021-08-09T11:23:18Z</time>
      </trkpt>
      <trkpt lat="49.16353" lon="3.93525">
        <ele>261.14</ele>
        <time>2021-08-09T11:23:24Z</time>
      </trkpt>
      <trkpt lat="49.16347" lon="3.93529">
        <ele>261.14</ele>
        <time>2021-08-09T11:23:25Z</time>
      </trkpt>
      <trkpt lat="49.16303" lon="3.93558">
        <ele>261.14</ele>
        <time>2021-08-09T11:23:34Z</time>
      </trkpt>
      <trkpt lat="49.16259" lon="3.9359">
        <ele>260.65</ele>
        <time>2021-08-09T11:23:43Z</time>
      </trkpt>
      <trkpt lat="49.16255" lon="3.93594">
        <ele>260.65</ele>
        <time>2021-08-09T11:23:44Z</time>
      </trkpt>
      <trkpt lat="49.1625" lon="3.93599">
        <ele>260.65</ele>
        <time>2021-08-09T11:23:45Z</time>
      </trkpt>
      <trkpt lat="49.16244" lon="3.93604">
        <ele>260.65</ele>
        <time>2021-08-09T11:23:46Z</time>
      </trkpt>
      <trkpt lat="49.16241" lon="3.93608">
        <ele>260.65</ele>
        <time>2021-08-09T11:23:47Z</time>
      </trkpt>
      <trkpt lat="49.16218" lon="3.93625">
        <ele>259.69</ele>
        <time>2021-08-09T11:23:52Z</time>
      </trkpt>
      <trkpt lat="49.16213" lon="3.93627">
        <ele>259.69</ele>
        <time>2021-08-09T11:23:53Z</time>
      </trkpt>
      <trkpt lat="49.16208" lon="3.93628">
        <ele>259.69</ele>
        <time>2021-08-09T11:23:54Z</time>
      </trkpt>
      <trkpt lat="49.16202" lon="3.93628">
        <ele>259.69</ele>
        <time>2021-08-09T11:23:55Z</time>
      </trkpt>
      <trkpt lat="49.16196" lon="3.93628">
        <ele>259.69</ele>
        <time>2021-08-09T11:23:56Z</time>
      </trkpt>
      <trkpt lat="49.16171" lon="3.93626">
        <ele>258.73</ele>
        <time>2021-08-09T11:24:01Z</time>
      </trkpt>
      <trkpt lat="49.16161" lon="3.93625">
        <ele>258.73</ele>
        <time>2021-08-09T11:24:06Z</time>
      </trkpt>
      <trkpt lat="49.16163" lon="3.93627">
        <ele>258.73</ele>
        <time>2021-08-09T11:24:10Z</time>
      </trkpt>
      <trkpt lat="49.16171" lon="3.93624">
        <ele>258.73</ele>
        <time>2021-08-09T11:24:16Z</time>
      </trkpt>
      <trkpt lat="49.16179" lon="3.93626">
        <ele>258.73</ele>
        <time>2021-08-09T11:24:19Z</time>
      </trkpt>
      <trkpt lat="49.16181" lon="3.93627">
        <ele>258.73</ele>
        <time>2021-08-09T11:24:20Z</time>
      </trkpt>
      <trkpt lat="49.16183" lon="3.93629">
        <ele>258.73</ele>
        <time>2021-08-09T11:24:21Z</time>
      </trkpt>
      <trkpt lat="49.16185" lon="3.93631">
        <ele>258.73</ele>
        <time>2021-08-09T11:24:22Z</time>
      </trkpt>
      <trkpt lat="49.16187" lon="3.93634">
        <ele>258.73</ele>
        <time>2021-08-09T11:24:23Z</time>
      </trkpt>
      <trkpt lat="49.162" lon="3.93652">
        <ele>259.69</ele>
        <time>2021-08-09T11:24:31Z</time>
      </trkpt>
      <trkpt lat="49.16203" lon="3.93657">
        <ele>260.17</ele>
        <time>2021-08-09T11:24:38Z</time>
      </trkpt>
      <trkpt lat="49.16203" lon="3.93656">
        <ele>260.17</ele>
        <time>2021-08-09T11:24:48Z</time>
      </trkpt>
      <trkpt lat="49.16205" lon="3.93658">
        <ele>260.17</ele>
        <time>2021-08-09T11:24:57Z</time>
      </trkpt>
      <trkpt lat="49.16205" lon="3.9366">
        <ele>260.17</ele>
        <time>2021-08-09T11:24:59Z</time>
      </trkpt>
      <trkpt lat="49.16215" lon="3.93675">
        <ele>260.17</ele>
        <time>2021-08-09T11:25:07Z</time>
      </trkpt>
      <trkpt lat="49.16217" lon="3.93684">
        <ele>260.17</ele>
        <time>2021-08-09T11:25:11Z</time>
      </trkpt>
      <trkpt lat="49.16229" lon="3.93711">
        <ele>260.17</ele>
        <time>2021-08-09T11:25:20Z</time>
      </trkpt>
      <trkpt lat="49.16237" lon="3.93729">
        <ele>261.14</ele>
        <time>2021-08-09T11:25:26Z</time>
      </trkpt>
      <trkpt lat="49.16242" lon="3.93749">
        <ele>261.62</ele>
        <time>2021-08-09T11:25:32Z</time>
      </trkpt>
      <trkpt lat="49.16247" lon="3.93766">
        <ele>262.1</ele>
        <time>2021-08-09T11:25:38Z</time>
      </trkpt>
      <trkpt lat="49.16261" lon="3.93782">
        <ele>262.58</ele>
        <time>2021-08-09T11:25:46Z</time>
      </trkpt>
      <trkpt lat="49.16274" lon="3.93803">
        <ele>263.06</ele>
        <time>2021-08-09T11:25:54Z</time>
      </trkpt>
      <trkpt lat="49.16278" lon="3.93815">
        <ele>263.54</ele>
        <time>2021-08-09T11:25:57Z</time>
      </trkpt>
      <trkpt lat="49.16282" lon="3.93833">
        <ele>263.54</ele>
        <time>2021-08-09T11:26:03Z</time>
      </trkpt>
      <trkpt lat="49.16281" lon="3.93837">
        <ele>263.54</ele>
        <time>2021-08-09T11:26:05Z</time>
      </trkpt>
      <trkpt lat="49.16284" lon="3.93848">
        <ele>263.54</ele>
        <time>2021-08-09T11:26:09Z</time>
      </trkpt>
      <trkpt lat="49.16288" lon="3.93864">
        <ele>263.54</ele>
        <time>2021-08-09T11:26:15Z</time>
      </trkpt>
      <trkpt lat="49.16294" lon="3.93885">
        <ele>263.54</ele>
        <time>2021-08-09T11:26:23Z</time>
      </trkpt>
      <trkpt lat="49.16305" lon="3.93913">
        <ele>264.02</ele>
        <time>2021-08-09T11:26:31Z</time>
      </trkpt>
      <trkpt lat="49.16317" lon="3.93938">
        <ele>264.5</ele>
        <time>2021-08-09T11:26:38Z</time>
      </trkpt>
      <trkpt lat="49.16324" lon="3.93961">
        <ele>264.5</ele>
        <time>2021-08-09T11:26:44Z</time>
      </trkpt>
      <trkpt lat="49.16325" lon="3.93964">
        <ele>264.5</ele>
        <time>2021-08-09T11:26:45Z</time>
      </trkpt>
      <trkpt lat="49.16332" lon="3.93971">
        <ele>264.5</ele>
        <time>2021-08-09T11:26:50Z</time>
      </trkpt>
      <trkpt lat="49.16333" lon="3.93991">
        <ele>264.5</ele>
        <time>2021-08-09T11:26:57Z</time>
      </trkpt>
      <trkpt lat="49.16343" lon="3.94008">
        <ele>265.46</ele>
        <time>2021-08-09T11:26:59Z</time>
      </trkpt>
      <trkpt lat="49.16346" lon="3.94011">
        <ele>265.46</ele>
        <time>2021-08-09T11:27:00Z</time>
      </trkpt>
      <trkpt lat="49.16349" lon="3.94012">
        <ele>265.46</ele>
        <time>2021-08-09T11:27:01Z</time>
      </trkpt>
      <trkpt lat="49.16351" lon="3.94013">
        <ele>265.46</ele>
        <time>2021-08-09T11:27:02Z</time>
      </trkpt>
      <trkpt lat="49.16377" lon="3.94033">
        <ele>265.46</ele>
        <time>2021-08-09T11:27:09Z</time>
      </trkpt>
      <trkpt lat="49.16407" lon="3.94056">
        <ele>265.94</ele>
        <time>2021-08-09T11:27:17Z</time>
      </trkpt>
      <trkpt lat="49.16437" lon="3.94077">
        <ele>266.42</ele>
        <time>2021-08-09T11:27:25Z</time>
      </trkpt>
      <trkpt lat="49.16463" lon="3.94098">
        <ele>266.42</ele>
        <time>2021-08-09T11:27:32Z</time>
      </trkpt>
      <trkpt lat="49.16498" lon="3.94122">
        <ele>266.9</ele>
        <time>2021-08-09T11:27:41Z</time>
      </trkpt>
      <trkpt lat="49.16514" lon="3.94133">
        <ele>266.9</ele>
        <time>2021-08-09T11:27:45Z</time>
      </trkpt>
      <trkpt lat="49.16517" lon="3.94137">
        <ele>266.9</ele>
        <time>2021-08-09T11:27:46Z</time>
      </trkpt>
      <trkpt lat="49.16519" lon="3.94142">
        <ele>266.9</ele>
        <time>2021-08-09T11:27:47Z</time>
      </trkpt>
      <trkpt lat="49.16519" lon="3.94148">
        <ele>266.9</ele>
        <time>2021-08-09T11:27:48Z</time>
      </trkpt>
      <trkpt lat="49.16518" lon="3.94229">
        <ele>266.9</ele>
        <time>2021-08-09T11:28:00Z</time>
      </trkpt>
      <trkpt lat="49.16516" lon="3.94291">
        <ele>266.42</ele>
        <time>2021-08-09T11:28:09Z</time>
      </trkpt>
      <trkpt lat="49.16511" lon="3.94355">
        <ele>266.42</ele>
        <time>2021-08-09T11:28:18Z</time>
      </trkpt>
      <trkpt lat="49.16509" lon="3.94397">
        <ele>266.42</ele>
        <time>2021-08-09T11:28:24Z</time>
      </trkpt>
      <trkpt lat="49.16512" lon="3.94438">
        <ele>265.46</ele>
        <time>2021-08-09T11:28:30Z</time>
      </trkpt>
      <trkpt lat="49.16517" lon="3.94465">
        <ele>264.98</ele>
        <time>2021-08-09T11:28:34Z</time>
      </trkpt>
      <trkpt lat="49.16514" lon="3.94485">
        <ele>264.5</ele>
        <time>2021-08-09T11:28:38Z</time>
      </trkpt>
      <trkpt lat="49.16507" lon="3.94512">
        <ele>264.5</ele>
        <time>2021-08-09T11:28:44Z</time>
      </trkpt>
      <trkpt lat="49.16498" lon="3.94558">
        <ele>264.5</ele>
        <time>2021-08-09T11:28:52Z</time>
      </trkpt>
      <trkpt lat="49.16495" lon="3.94572">
        <ele>263.54</ele>
        <time>2021-08-09T11:28:54Z</time>
      </trkpt>
      <trkpt lat="49.16492" lon="3.94586">
        <ele>263.54</ele>
        <time>2021-08-09T11:28:56Z</time>
      </trkpt>
      <trkpt lat="49.16484" lon="3.9461">
        <ele>263.54</ele>
        <time>2021-08-09T11:29:00Z</time>
      </trkpt>
      <trkpt lat="49.16479" lon="3.94651">
        <ele>263.54</ele>
        <time>2021-08-09T11:29:06Z</time>
      </trkpt>
      <trkpt lat="49.16485" lon="3.94674">
        <ele>263.54</ele>
        <time>2021-08-09T11:29:11Z</time>
      </trkpt>
      <trkpt lat="49.16488" lon="3.94678">
        <ele>263.54</ele>
        <time>2021-08-09T11:29:12Z</time>
      </trkpt>
      <trkpt lat="49.16511" lon="3.9469">
        <ele>262.58</ele>
        <time>2021-08-09T11:29:19Z</time>
      </trkpt>
      <trkpt lat="49.16529" lon="3.94683">
        <ele>261.14</ele>
        <time>2021-08-09T11:29:25Z</time>
      </trkpt>
      <trkpt lat="49.16553" lon="3.94685">
        <ele>257.77</ele>
        <time>2021-08-09T11:29:31Z</time>
      </trkpt>
      <trkpt lat="49.16559" lon="3.94688">
        <ele>256.81</ele>
        <time>2021-08-09T11:29:32Z</time>
      </trkpt>
      <trkpt lat="49.16563" lon="3.94691">
        <ele>255.85</ele>
        <time>2021-08-09T11:29:33Z</time>
      </trkpt>
      <trkpt lat="49.16567" lon="3.94697">
        <ele>255.37</ele>
        <time>2021-08-09T11:29:34Z</time>
      </trkpt>
      <trkpt lat="49.16569" lon="3.94701">
        <ele>253.93</ele>
        <time>2021-08-09T11:29:35Z</time>
      </trkpt>
      <trkpt lat="49.16573" lon="3.94704">
        <ele>253.44</ele>
        <time>2021-08-09T11:29:36Z</time>
      </trkpt>
      <trkpt lat="49.16577" lon="3.94708">
        <ele>252.48</ele>
        <time>2021-08-09T11:29:37Z</time>
      </trkpt>
      <trkpt lat="49.1659" lon="3.94722">
        <ele>249.6</ele>
        <time>2021-08-09T11:29:41Z</time>
      </trkpt>
      <trkpt lat="49.16604" lon="3.94735">
        <ele>245.75</ele>
        <time>2021-08-09T11:29:45Z</time>
      </trkpt>
      <trkpt lat="49.16617" lon="3.94747">
        <ele>241.91</ele>
        <time>2021-08-09T11:29:49Z</time>
      </trkpt>
      <trkpt lat="49.1662" lon="3.9475">
        <ele>241.91</ele>
        <time>2021-08-09T11:29:50Z</time>
      </trkpt>
      <trkpt lat="49.16626" lon="3.94758">
        <ele>240.95</ele>
        <time>2021-08-09T11:29:52Z</time>
      </trkpt>
      <trkpt lat="49.16634" lon="3.94767">
        <ele>237.58</ele>
        <time>2021-08-09T11:29:55Z</time>
      </trkpt>
      <trkpt lat="49.16648" lon="3.94776">
        <ele>233.74</ele>
        <time>2021-08-09T11:29:59Z</time>
      </trkpt>
      <trkpt lat="49.16652" lon="3.94779">
        <ele>232.78</ele>
        <time>2021-08-09T11:30:00Z</time>
      </trkpt>
      <trkpt lat="49.16655" lon="3.94781">
        <ele>232.78</ele>
        <time>2021-08-09T11:30:01Z</time>
      </trkpt>
      <trkpt lat="49.16676" lon="3.94794">
        <ele>229.41</ele>
        <time>2021-08-09T11:30:06Z</time>
      </trkpt>
      <trkpt lat="49.16693" lon="3.94818">
        <ele>226.05</ele>
        <time>2021-08-09T11:30:11Z</time>
      </trkpt>
      <trkpt lat="49.1671" lon="3.94844">
        <ele>223.64</ele>
        <time>2021-08-09T11:30:14Z</time>
      </trkpt>
      <trkpt lat="49.16713" lon="3.94848">
        <ele>223.16</ele>
        <time>2021-08-09T11:30:15Z</time>
      </trkpt>
      <trkpt lat="49.16729" lon="3.94882">
        <ele>219.8</ele>
        <time>2021-08-09T11:30:20Z</time>
      </trkpt>
      <trkpt lat="49.1674" lon="3.94917">
        <ele>215.47</ele>
        <time>2021-08-09T11:30:23Z</time>
      </trkpt>
      <trkpt lat="49.16745" lon="3.94951">
        <ele>211.63</ele>
        <time>2021-08-09T11:30:26Z</time>
      </trkpt>
      <trkpt lat="49.16751" lon="3.94983">
        <ele>208.26</ele>
        <time>2021-08-09T11:30:29Z</time>
      </trkpt>
      <trkpt lat="49.16756" lon="3.95015">
        <ele>204.9</ele>
        <time>2021-08-09T11:30:32Z</time>
      </trkpt>
      <trkpt lat="49.16761" lon="3.95042">
        <ele>201.53</ele>
        <time>2021-08-09T11:30:35Z</time>
      </trkpt>
      <trkpt lat="49.16764" lon="3.9506">
        <ele>201.05</ele>
        <time>2021-08-09T11:30:37Z</time>
      </trkpt>
      <trkpt lat="49.16771" lon="3.95088">
        <ele>198.17</ele>
        <time>2021-08-09T11:30:40Z</time>
      </trkpt>
      <trkpt lat="49.16773" lon="3.95096">
        <ele>198.17</ele>
        <time>2021-08-09T11:30:41Z</time>
      </trkpt>
      <trkpt lat="49.16782" lon="3.9512">
        <ele>196.73</ele>
        <time>2021-08-09T11:30:44Z</time>
      </trkpt>
      <trkpt lat="49.16798" lon="3.95158">
        <ele>193.84</ele>
        <time>2021-08-09T11:30:49Z</time>
      </trkpt>
      <trkpt lat="49.16802" lon="3.95164">
        <ele>193.36</ele>
        <time>2021-08-09T11:30:50Z</time>
      </trkpt>
      <trkpt lat="49.16823" lon="3.95191">
        <ele>191.92</ele>
        <time>2021-08-09T11:30:55Z</time>
      </trkpt>
      <trkpt lat="49.16826" lon="3.95195">
        <ele>191.92</ele>
        <time>2021-08-09T11:30:56Z</time>
      </trkpt>
      <trkpt lat="49.16828" lon="3.952">
        <ele>191.44</ele>
        <time>2021-08-09T11:30:57Z</time>
      </trkpt>
      <trkpt lat="49.1683" lon="3.95204">
        <ele>191.44</ele>
        <time>2021-08-09T11:30:58Z</time>
      </trkpt>
      <trkpt lat="49.16831" lon="3.95208">
        <ele>191.44</ele>
        <time>2021-08-09T11:30:59Z</time>
      </trkpt>
      <trkpt lat="49.16833" lon="3.95211">
        <ele>191.44</ele>
        <time>2021-08-09T11:31:00Z</time>
      </trkpt>
      <trkpt lat="49.16835" lon="3.95213">
        <ele>192.88</ele>
        <time>2021-08-09T11:31:01Z</time>
      </trkpt>
      <trkpt lat="49.16837" lon="3.95216">
        <ele>192.88</ele>
        <time>2021-08-09T11:31:02Z</time>
      </trkpt>
      <trkpt lat="49.1684" lon="3.95219">
        <ele>193.36</ele>
        <time>2021-08-09T11:31:03Z</time>
      </trkpt>
      <trkpt lat="49.16841" lon="3.95222">
        <ele>193.36</ele>
        <time>2021-08-09T11:31:04Z</time>
      </trkpt>
      <trkpt lat="49.16841" lon="3.95223">
        <ele>194.32</ele>
        <time>2021-08-09T11:31:10Z</time>
      </trkpt>
      <trkpt lat="49.16839" lon="3.95223">
        <ele>193.84</ele>
        <time>2021-08-09T11:31:29Z</time>
      </trkpt>
      <trkpt lat="49.16841" lon="3.95226">
        <ele>193.84</ele>
        <time>2021-08-09T11:31:43Z</time>
      </trkpt>
      <trkpt lat="49.16844" lon="3.95228">
        <ele>193.84</ele>
        <time>2021-08-09T11:31:45Z</time>
      </trkpt>
      <trkpt lat="49.16846" lon="3.95229">
        <ele>193.84</ele>
        <time>2021-08-09T11:31:46Z</time>
      </trkpt>
      <trkpt lat="49.16849" lon="3.95231">
        <ele>193.84</ele>
        <time>2021-08-09T11:31:47Z</time>
      </trkpt>
      <trkpt lat="49.16866" lon="3.95244">
        <ele>192.88</ele>
        <time>2021-08-09T11:31:53Z</time>
      </trkpt>
      <trkpt lat="49.16869" lon="3.95251">
        <ele>192.4</ele>
        <time>2021-08-09T11:31:59Z</time>
      </trkpt>
      <trkpt lat="49.16867" lon="3.95249">
        <ele>192.4</ele>
        <time>2021-08-09T11:32:07Z</time>
      </trkpt>
      <trkpt lat="49.16862" lon="3.9524">
        <ele>192.4</ele>
        <time>2021-08-09T11:32:12Z</time>
      </trkpt>
      <trkpt lat="49.16848" lon="3.9523">
        <ele>192.4</ele>
        <time>2021-08-09T11:32:19Z</time>
      </trkpt>
      <trkpt lat="49.1684" lon="3.95222">
        <ele>193.84</ele>
        <time>2021-08-09T11:32:23Z</time>
      </trkpt>
      <trkpt lat="49.16827" lon="3.952">
        <ele>191.44</ele>
        <time>2021-08-09T11:32:28Z</time>
      </trkpt>
      <trkpt lat="49.1681" lon="3.95176">
        <ele>192.4</ele>
        <time>2021-08-09T11:32:34Z</time>
      </trkpt>
      <trkpt lat="49.16795" lon="3.95163">
        <ele>193.84</ele>
        <time>2021-08-09T11:32:41Z</time>
      </trkpt>
      <trkpt lat="49.16785" lon="3.95172">
        <ele>194.32</ele>
        <time>2021-08-09T11:32:47Z</time>
      </trkpt>
      <trkpt lat="49.16771" lon="3.95188">
        <ele>196.73</ele>
        <time>2021-08-09T11:32:56Z</time>
      </trkpt>
      <trkpt lat="49.16758" lon="3.95205">
        <ele>198.17</ele>
        <time>2021-08-09T11:33:05Z</time>
      </trkpt>
      <trkpt lat="49.16748" lon="3.95221">
        <ele>198.17</ele>
        <time>2021-08-09T11:33:12Z</time>
      </trkpt>
      <trkpt lat="49.16727" lon="3.95253">
        <ele>199.13</ele>
        <time>2021-08-09T11:33:23Z</time>
      </trkpt>
      <trkpt lat="49.16707" lon="3.9529">
        <ele>199.13</ele>
        <time>2021-08-09T11:33:33Z</time>
      </trkpt>
      <trkpt lat="49.16698" lon="3.9531">
        <ele>199.13</ele>
        <time>2021-08-09T11:33:37Z</time>
      </trkpt>
      <trkpt lat="49.16681" lon="3.95357">
        <ele>199.13</ele>
        <time>2021-08-09T11:33:46Z</time>
      </trkpt>
      <trkpt lat="49.16667" lon="3.95406">
        <ele>199.61</ele>
        <time>2021-08-09T11:33:56Z</time>
      </trkpt>
      <trkpt lat="49.16662" lon="3.95448">
        <ele>198.65</ele>
        <time>2021-08-09T11:34:04Z</time>
      </trkpt>
      <trkpt lat="49.16666" lon="3.95471">
        <ele>197.21</ele>
        <time>2021-08-09T11:34:09Z</time>
      </trkpt>
      <trkpt lat="49.16669" lon="3.95474">
        <ele>196.73</ele>
        <time>2021-08-09T11:34:10Z</time>
      </trkpt>
      <trkpt lat="49.16673" lon="3.95476">
        <ele>195.77</ele>
        <time>2021-08-09T11:34:11Z</time>
      </trkpt>
      <trkpt lat="49.16677" lon="3.95479">
        <ele>194.8</ele>
        <time>2021-08-09T11:34:12Z</time>
      </trkpt>
      <trkpt lat="49.16681" lon="3.95484">
        <ele>194.32</ele>
        <time>2021-08-09T11:34:13Z</time>
      </trkpt>
      <trkpt lat="49.16701" lon="3.95502">
        <ele>190.96</ele>
        <time>2021-08-09T11:34:17Z</time>
      </trkpt>
      <trkpt lat="49.16723" lon="3.95523">
        <ele>188.56</ele>
        <time>2021-08-09T11:34:22Z</time>
      </trkpt>
      <trkpt lat="49.16727" lon="3.9553">
        <ele>187.59</ele>
        <time>2021-08-09T11:34:24Z</time>
      </trkpt>
      <trkpt lat="49.16727" lon="3.95532">
        <ele>187.59</ele>
        <time>2021-08-09T11:34:25Z</time>
      </trkpt>
      <trkpt lat="49.16727" lon="3.95534">
        <ele>188.08</ele>
        <time>2021-08-09T11:34:31Z</time>
      </trkpt>
      <trkpt lat="49.16726" lon="3.95538">
        <ele>187.59</ele>
        <time>2021-08-09T11:34:45Z</time>
      </trkpt>
      <trkpt lat="49.16725" lon="3.9554">
        <ele>187.59</ele>
        <time>2021-08-09T11:34:46Z</time>
      </trkpt>
      <trkpt lat="49.16716" lon="3.95558">
        <ele>189.04</ele>
        <time>2021-08-09T11:34:54Z</time>
      </trkpt>
      <trkpt lat="49.16713" lon="3.95562">
        <ele>189.52</ele>
        <time>2021-08-09T11:34:56Z</time>
      </trkpt>
      <trkpt lat="49.16712" lon="3.95563">
        <ele>189.52</ele>
        <time>2021-08-09T11:34:57Z</time>
      </trkpt>
      <trkpt lat="49.1671" lon="3.95565">
        <ele>190</ele>
        <time>2021-08-09T11:34:58Z</time>
      </trkpt>
      <trkpt lat="49.16709" lon="3.95567">
        <ele>190</ele>
        <time>2021-08-09T11:34:59Z</time>
      </trkpt>
      <trkpt lat="49.16708" lon="3.95569">
        <ele>190.48</ele>
        <time>2021-08-09T11:35:00Z</time>
      </trkpt>
      <trkpt lat="49.16708" lon="3.95572">
        <ele>190.48</ele>
        <time>2021-08-09T11:35:01Z</time>
      </trkpt>
      <trkpt lat="49.16707" lon="3.95575">
        <ele>191.44</ele>
        <time>2021-08-09T11:35:02Z</time>
      </trkpt>
      <trkpt lat="49.16706" lon="3.95577">
        <ele>191.44</ele>
        <time>2021-08-09T11:35:03Z</time>
      </trkpt>
      <trkpt lat="49.16705" lon="3.95579">
        <ele>191.44</ele>
        <time>2021-08-09T11:35:04Z</time>
      </trkpt>
      <trkpt lat="49.16703" lon="3.95584">
        <ele>192.4</ele>
        <time>2021-08-09T11:35:07Z</time>
      </trkpt>
      <trkpt lat="49.16702" lon="3.95585">
        <ele>192.88</ele>
        <time>2021-08-09T11:35:08Z</time>
      </trkpt>
      <trkpt lat="49.16702" lon="3.95587">
        <ele>192.88</ele>
        <time>2021-08-09T11:35:09Z</time>
      </trkpt>
      <trkpt lat="49.16701" lon="3.95588">
        <ele>192.88</ele>
        <time>2021-08-09T11:35:10Z</time>
      </trkpt>
      <trkpt lat="49.167" lon="3.95589">
        <ele>193.36</ele>
        <time>2021-08-09T11:35:11Z</time>
      </trkpt>
      <trkpt lat="49.16699" lon="3.9559">
        <ele>193.36</ele>
        <time>2021-08-09T11:35:12Z</time>
      </trkpt>
      <trkpt lat="49.16698" lon="3.95592">
        <ele>193.36</ele>
        <time>2021-08-09T11:35:13Z</time>
      </trkpt>
      <trkpt lat="49.16697" lon="3.95594">
        <ele>193.84</ele>
        <time>2021-08-09T11:35:15Z</time>
      </trkpt>
      <trkpt lat="49.16696" lon="3.95596">
        <ele>194.32</ele>
        <time>2021-08-09T11:35:16Z</time>
      </trkpt>
      <trkpt lat="49.16695" lon="3.95597">
        <ele>194.32</ele>
        <time>2021-08-09T11:35:17Z</time>
      </trkpt>
      <trkpt lat="49.16694" lon="3.95599">
        <ele>194.32</ele>
        <time>2021-08-09T11:35:18Z</time>
      </trkpt>
      <trkpt lat="49.16694" lon="3.956">
        <ele>194.32</ele>
        <time>2021-08-09T11:35:19Z</time>
      </trkpt>
      <trkpt lat="49.16692" lon="3.95605">
        <ele>195.28</ele>
        <time>2021-08-09T11:35:22Z</time>
      </trkpt>
      <trkpt lat="49.16691" lon="3.95606">
        <ele>195.28</ele>
        <time>2021-08-09T11:35:23Z</time>
      </trkpt>
      <trkpt lat="49.1669" lon="3.95608">
        <ele>195.28</ele>
        <time>2021-08-09T11:35:24Z</time>
      </trkpt>
      <trkpt lat="49.16689" lon="3.9561">
        <ele>195.28</ele>
        <time>2021-08-09T11:35:25Z</time>
      </trkpt>
      <trkpt lat="49.16688" lon="3.95611">
        <ele>195.28</ele>
        <time>2021-08-09T11:35:26Z</time>
      </trkpt>
      <trkpt lat="49.16681" lon="3.95623">
        <ele>197.21</ele>
        <time>2021-08-09T11:35:34Z</time>
      </trkpt>
      <trkpt lat="49.16672" lon="3.95637">
        <ele>197.21</ele>
        <time>2021-08-09T11:35:42Z</time>
      </trkpt>
      <trkpt lat="49.1667" lon="3.95638">
        <ele>197.21</ele>
        <time>2021-08-09T11:35:43Z</time>
      </trkpt>
      <trkpt lat="49.16668" lon="3.95638">
        <ele>197.69</ele>
        <time>2021-08-09T11:35:44Z</time>
      </trkpt>
      <trkpt lat="49.16667" lon="3.95637">
        <ele>198.17</ele>
        <time>2021-08-09T11:35:45Z</time>
      </trkpt>
      <trkpt lat="49.16666" lon="3.95636">
        <ele>198.17</ele>
        <time>2021-08-09T11:35:46Z</time>
      </trkpt>
      <trkpt lat="49.16657" lon="3.95629">
        <ele>199.13</ele>
        <time>2021-08-09T11:35:53Z</time>
      </trkpt>
      <trkpt lat="49.16648" lon="3.95622">
        <ele>200.09</ele>
        <time>2021-08-09T11:36:01Z</time>
      </trkpt>
      <trkpt lat="49.16646" lon="3.95621">
        <ele>200.57</ele>
        <time>2021-08-09T11:36:03Z</time>
      </trkpt>
      <trkpt lat="49.16645" lon="3.9562">
        <ele>200.57</ele>
        <time>2021-08-09T11:36:04Z</time>
      </trkpt>
      <trkpt lat="49.16644" lon="3.95618">
        <ele>200.57</ele>
        <time>2021-08-09T11:36:05Z</time>
      </trkpt>
      <trkpt lat="49.16643" lon="3.95618">
        <ele>200.57</ele>
        <time>2021-08-09T11:36:06Z</time>
      </trkpt>
      <trkpt lat="49.16642" lon="3.95617">
        <ele>201.53</ele>
        <time>2021-08-09T11:36:07Z</time>
      </trkpt>
      <trkpt lat="49.16641" lon="3.95615">
        <ele>201.53</ele>
        <time>2021-08-09T11:36:08Z</time>
      </trkpt>
      <trkpt lat="49.1664" lon="3.95614">
        <ele>201.53</ele>
        <time>2021-08-09T11:36:09Z</time>
      </trkpt>
      <trkpt lat="49.16639" lon="3.95614">
        <ele>201.53</ele>
        <time>2021-08-09T11:36:10Z</time>
      </trkpt>
      <trkpt lat="49.16638" lon="3.95614">
        <ele>202.01</ele>
        <time>2021-08-09T11:36:11Z</time>
      </trkpt>
      <trkpt lat="49.16637" lon="3.95613">
        <ele>202.01</ele>
        <time>2021-08-09T11:36:12Z</time>
      </trkpt>
      <trkpt lat="49.16635" lon="3.95615">
        <ele>202.49</ele>
        <time>2021-08-09T11:36:15Z</time>
      </trkpt>
      <trkpt lat="49.16638" lon="3.95617">
        <ele>202.49</ele>
        <time>2021-08-09T11:36:17Z</time>
      </trkpt>
      <trkpt lat="49.16642" lon="3.95618">
        <ele>202.49</ele>
        <time>2021-08-09T11:36:18Z</time>
      </trkpt>
      <trkpt lat="49.16645" lon="3.95619">
        <ele>201.05</ele>
        <time>2021-08-09T11:36:19Z</time>
      </trkpt>
      <trkpt lat="49.16649" lon="3.95621">
        <ele>200.57</ele>
        <time>2021-08-09T11:36:20Z</time>
      </trkpt>
      <trkpt lat="49.16653" lon="3.95624">
        <ele>200.09</ele>
        <time>2021-08-09T11:36:21Z</time>
      </trkpt>
      <trkpt lat="49.16657" lon="3.95628">
        <ele>199.61</ele>
        <time>2021-08-09T11:36:22Z</time>
      </trkpt>
      <trkpt lat="49.1666" lon="3.95631">
        <ele>199.13</ele>
        <time>2021-08-09T11:36:23Z</time>
      </trkpt>
      <trkpt lat="49.16662" lon="3.95635">
        <ele>198.65</ele>
        <time>2021-08-09T11:36:24Z</time>
      </trkpt>
      <trkpt lat="49.16663" lon="3.9564">
        <ele>198.17</ele>
        <time>2021-08-09T11:36:25Z</time>
      </trkpt>
      <trkpt lat="49.16662" lon="3.95643">
        <ele>198.17</ele>
        <time>2021-08-09T11:36:26Z</time>
      </trkpt>
      <trkpt lat="49.1666" lon="3.95647">
        <ele>198.17</ele>
        <time>2021-08-09T11:36:27Z</time>
      </trkpt>
      <trkpt lat="49.16658" lon="3.95649">
        <ele>198.17</ele>
        <time>2021-08-09T11:36:28Z</time>
      </trkpt>
      <trkpt lat="49.16656" lon="3.95651">
        <ele>198.17</ele>
        <time>2021-08-09T11:36:29Z</time>
      </trkpt>
      <trkpt lat="49.16654" lon="3.95653">
        <ele>198.17</ele>
        <time>2021-08-09T11:36:30Z</time>
      </trkpt>
      <trkpt lat="49.16652" lon="3.95655">
        <ele>198.17</ele>
        <time>2021-08-09T11:36:31Z</time>
      </trkpt>
      <trkpt lat="49.1665" lon="3.95658">
        <ele>198.17</ele>
        <time>2021-08-09T11:36:32Z</time>
      </trkpt>
      <trkpt lat="49.16648" lon="3.95661">
        <ele>198.17</ele>
        <time>2021-08-09T11:36:33Z</time>
      </trkpt>
      <trkpt lat="49.16646" lon="3.95663">
        <ele>198.17</ele>
        <time>2021-08-09T11:36:34Z</time>
      </trkpt>
      <trkpt lat="49.16644" lon="3.95666">
        <ele>198.17</ele>
        <time>2021-08-09T11:36:35Z</time>
      </trkpt>
      <trkpt lat="49.16642" lon="3.95669">
        <ele>198.17</ele>
        <time>2021-08-09T11:36:36Z</time>
      </trkpt>
      <trkpt lat="49.1662" lon="3.95698">
        <ele>198.17</ele>
        <time>2021-08-09T11:36:45Z</time>
      </trkpt>
      <trkpt lat="49.16596" lon="3.95728">
        <ele>199.61</ele>
        <time>2021-08-09T11:36:54Z</time>
      </trkpt>
      <trkpt lat="49.16572" lon="3.95762">
        <ele>200.57</ele>
        <time>2021-08-09T11:37:04Z</time>
      </trkpt>
      <trkpt lat="49.16549" lon="3.95783">
        <ele>201.53</ele>
        <time>2021-08-09T11:37:13Z</time>
      </trkpt>
      <trkpt lat="49.1654" lon="3.95789">
        <ele>202.98</ele>
        <time>2021-08-09T11:37:17Z</time>
      </trkpt>
      <trkpt lat="49.16539" lon="3.95792">
        <ele>202.98</ele>
        <time>2021-08-09T11:37:18Z</time>
      </trkpt>
      <trkpt lat="49.16539" lon="3.95797">
        <ele>202.98</ele>
        <time>2021-08-09T11:37:19Z</time>
      </trkpt>
      <trkpt lat="49.16539" lon="3.95809">
        <ele>201.05</ele>
        <time>2021-08-09T11:37:21Z</time>
      </trkpt>
      <trkpt lat="49.1654" lon="3.95816">
        <ele>201.05</ele>
        <time>2021-08-09T11:37:22Z</time>
      </trkpt>
      <trkpt lat="49.16542" lon="3.95824">
        <ele>199.61</ele>
        <time>2021-08-09T11:37:23Z</time>
      </trkpt>
      <trkpt lat="49.16544" lon="3.95831">
        <ele>199.13</ele>
        <time>2021-08-09T11:37:24Z</time>
      </trkpt>
      <trkpt lat="49.16547" lon="3.95838">
        <ele>198.17</ele>
        <time>2021-08-09T11:37:25Z</time>
      </trkpt>
      <trkpt lat="49.16551" lon="3.95845">
        <ele>197.21</ele>
        <time>2021-08-09T11:37:26Z</time>
      </trkpt>
      <trkpt lat="49.16555" lon="3.95853">
        <ele>194.32</ele>
        <time>2021-08-09T11:37:27Z</time>
      </trkpt>
      <trkpt lat="49.16559" lon="3.95859">
        <ele>194.32</ele>
        <time>2021-08-09T11:37:28Z</time>
      </trkpt>
      <trkpt lat="49.16568" lon="3.95872">
        <ele>190.96</ele>
        <time>2021-08-09T11:37:30Z</time>
      </trkpt>
      <trkpt lat="49.16571" lon="3.95877">
        <ele>190.96</ele>
        <time>2021-08-09T11:37:31Z</time>
      </trkpt>
      <trkpt lat="49.16573" lon="3.95881">
        <ele>190</ele>
        <time>2021-08-09T11:37:32Z</time>
      </trkpt>
      <trkpt lat="49.16572" lon="3.95886">
        <ele>189.52</ele>
        <time>2021-08-09T11:37:33Z</time>
      </trkpt>
      <trkpt lat="49.16569" lon="3.9589">
        <ele>189.52</ele>
        <time>2021-08-09T11:37:34Z</time>
      </trkpt>
      <trkpt lat="49.16567" lon="3.95892">
        <ele>189.52</ele>
        <time>2021-08-09T11:37:35Z</time>
      </trkpt>
      <trkpt lat="49.16564" lon="3.95895">
        <ele>189.04</ele>
        <time>2021-08-09T11:37:36Z</time>
      </trkpt>
      <trkpt lat="49.16546" lon="3.95911">
        <ele>189.04</ele>
        <time>2021-08-09T11:37:42Z</time>
      </trkpt>
      <trkpt lat="49.16507" lon="3.9595">
        <ele>189.52</ele>
        <time>2021-08-09T11:37:53Z</time>
      </trkpt>
      <trkpt lat="49.16479" lon="3.95973">
        <ele>189.52</ele>
        <time>2021-08-09T11:38:01Z</time>
      </trkpt>
      <trkpt lat="49.16476" lon="3.95975">
        <ele>190.48</ele>
        <time>2021-08-09T11:38:02Z</time>
      </trkpt>
      <trkpt lat="49.16461" lon="3.95987">
        <ele>190.48</ele>
        <time>2021-08-09T11:38:06Z</time>
      </trkpt>
      <trkpt lat="49.16458" lon="3.95988">
        <ele>190.48</ele>
        <time>2021-08-09T11:38:07Z</time>
      </trkpt>
      <trkpt lat="49.16453" lon="3.9599">
        <ele>190.48</ele>
        <time>2021-08-09T11:38:08Z</time>
      </trkpt>
      <trkpt lat="49.16449" lon="3.95992">
        <ele>190.48</ele>
        <time>2021-08-09T11:38:09Z</time>
      </trkpt>
      <trkpt lat="49.16446" lon="3.95993">
        <ele>190.48</ele>
        <time>2021-08-09T11:38:10Z</time>
      </trkpt>
      <trkpt lat="49.16421" lon="3.96003">
        <ele>191.44</ele>
        <time>2021-08-09T11:38:17Z</time>
      </trkpt>
      <trkpt lat="49.16403" lon="3.96014">
        <ele>191.92</ele>
        <time>2021-08-09T11:38:23Z</time>
      </trkpt>
      <trkpt lat="49.16382" lon="3.96026">
        <ele>193.36</ele>
        <time>2021-08-09T11:38:31Z</time>
      </trkpt>
      <trkpt lat="49.16352" lon="3.96045">
        <ele>194.8</ele>
        <time>2021-08-09T11:38:42Z</time>
      </trkpt>
      <trkpt lat="49.16321" lon="3.96069">
        <ele>195.28</ele>
        <time>2021-08-09T11:38:53Z</time>
      </trkpt>
      <trkpt lat="49.16288" lon="3.96099">
        <ele>195.77</ele>
        <time>2021-08-09T11:39:04Z</time>
      </trkpt>
      <trkpt lat="49.16269" lon="3.96117">
        <ele>194.8</ele>
        <time>2021-08-09T11:39:10Z</time>
      </trkpt>
      <trkpt lat="49.16262" lon="3.96129">
        <ele>194.8</ele>
        <time>2021-08-09T11:39:13Z</time>
      </trkpt>
      <trkpt lat="49.16262" lon="3.96134">
        <ele>194.8</ele>
        <time>2021-08-09T11:39:14Z</time>
      </trkpt>
      <trkpt lat="49.16264" lon="3.9614">
        <ele>194.8</ele>
        <time>2021-08-09T11:39:15Z</time>
      </trkpt>
      <trkpt lat="49.16265" lon="3.96142">
        <ele>194.8</ele>
        <time>2021-08-09T11:39:16Z</time>
      </trkpt>
      <trkpt lat="49.16266" lon="3.96145">
        <ele>194.8</ele>
        <time>2021-08-09T11:39:17Z</time>
      </trkpt>
      <trkpt lat="49.16265" lon="3.96148">
        <ele>194.32</ele>
        <time>2021-08-09T11:39:18Z</time>
      </trkpt>
      <trkpt lat="49.16264" lon="3.9615">
        <ele>194.32</ele>
        <time>2021-08-09T11:39:19Z</time>
      </trkpt>
      <trkpt lat="49.16263" lon="3.96153">
        <ele>194.32</ele>
        <time>2021-08-09T11:39:20Z</time>
      </trkpt>
      <trkpt lat="49.1625" lon="3.96173">
        <ele>194.32</ele>
        <time>2021-08-09T11:39:27Z</time>
      </trkpt>
      <trkpt lat="49.16245" lon="3.96182">
        <ele>194.32</ele>
        <time>2021-08-09T11:39:29Z</time>
      </trkpt>
      <trkpt lat="49.1624" lon="3.96196">
        <ele>193.84</ele>
        <time>2021-08-09T11:39:31Z</time>
      </trkpt>
      <trkpt lat="49.16237" lon="3.96204">
        <ele>193.36</ele>
        <time>2021-08-09T11:39:32Z</time>
      </trkpt>
      <trkpt lat="49.16233" lon="3.9621">
        <ele>192.4</ele>
        <time>2021-08-09T11:39:33Z</time>
      </trkpt>
      <trkpt lat="49.16223" lon="3.96221">
        <ele>190.96</ele>
        <time>2021-08-09T11:39:35Z</time>
      </trkpt>
      <trkpt lat="49.16217" lon="3.96225">
        <ele>191.44</ele>
        <time>2021-08-09T11:39:36Z</time>
      </trkpt>
      <trkpt lat="49.16211" lon="3.96228">
        <ele>191.44</ele>
        <time>2021-08-09T11:39:37Z</time>
      </trkpt>
      <trkpt lat="49.16205" lon="3.96231">
        <ele>191.44</ele>
        <time>2021-08-09T11:39:38Z</time>
      </trkpt>
      <trkpt lat="49.162" lon="3.96233">
        <ele>191.44</ele>
        <time>2021-08-09T11:39:39Z</time>
      </trkpt>
      <trkpt lat="49.16154" lon="3.96255">
        <ele>190.48</ele>
        <time>2021-08-09T11:39:48Z</time>
      </trkpt>
      <trkpt lat="49.1615" lon="3.96257">
        <ele>190</ele>
        <time>2021-08-09T11:39:49Z</time>
      </trkpt>
      <trkpt lat="49.16137" lon="3.96267">
        <ele>190</ele>
        <time>2021-08-09T11:39:52Z</time>
      </trkpt>
      <trkpt lat="49.16133" lon="3.96273">
        <ele>189.04</ele>
        <time>2021-08-09T11:39:53Z</time>
      </trkpt>
      <trkpt lat="49.16129" lon="3.96279">
        <ele>189.04</ele>
        <time>2021-08-09T11:39:54Z</time>
      </trkpt>
      <trkpt lat="49.16123" lon="3.96294">
        <ele>187.59</ele>
        <time>2021-08-09T11:39:56Z</time>
      </trkpt>
      <trkpt lat="49.16109" lon="3.96329">
        <ele>184.71</ele>
        <time>2021-08-09T11:40:00Z</time>
      </trkpt>
      <trkpt lat="49.16104" lon="3.96337">
        <ele>184.71</ele>
        <time>2021-08-09T11:40:01Z</time>
      </trkpt>
      <trkpt lat="49.16098" lon="3.96343">
        <ele>184.23</ele>
        <time>2021-08-09T11:40:02Z</time>
      </trkpt>
      <trkpt lat="49.16092" lon="3.96348">
        <ele>184.23</ele>
        <time>2021-08-09T11:40:03Z</time>
      </trkpt>
      <trkpt lat="49.16085" lon="3.96353">
        <ele>184.23</ele>
        <time>2021-08-09T11:40:04Z</time>
      </trkpt>
      <trkpt lat="49.16068" lon="3.96373">
        <ele>183.27</ele>
        <time>2021-08-09T11:40:07Z</time>
      </trkpt>
      <trkpt lat="49.16064" lon="3.96382">
        <ele>182.79</ele>
        <time>2021-08-09T11:40:08Z</time>
      </trkpt>
      <trkpt lat="49.16055" lon="3.96402">
        <ele>181.83</ele>
        <time>2021-08-09T11:40:10Z</time>
      </trkpt>
      <trkpt lat="49.16038" lon="3.96447">
        <ele>178.94</ele>
        <time>2021-08-09T11:40:14Z</time>
      </trkpt>
      <trkpt lat="49.16038" lon="3.96459">
        <ele>178.46</ele>
        <time>2021-08-09T11:40:15Z</time>
      </trkpt>
      <trkpt lat="49.16039" lon="3.96484">
        <ele>177.02</ele>
        <time>2021-08-09T11:40:17Z</time>
      </trkpt>
      <trkpt lat="49.16037" lon="3.96498">
        <ele>175.58</ele>
        <time>2021-08-09T11:40:18Z</time>
      </trkpt>
      <trkpt lat="49.16032" lon="3.96523">
        <ele>175.1</ele>
        <time>2021-08-09T11:40:20Z</time>
      </trkpt>
      <trkpt lat="49.16008" lon="3.96642">
        <ele>173.66</ele>
        <time>2021-08-09T11:40:30Z</time>
      </trkpt>
      <trkpt lat="49.15992" lon="3.967">
        <ele>173.17</ele>
        <time>2021-08-09T11:40:36Z</time>
      </trkpt>
      <trkpt lat="49.15984" lon="3.96718">
        <ele>174.62</ele>
        <time>2021-08-09T11:40:39Z</time>
      </trkpt>
      <trkpt lat="49.15977" lon="3.96735">
        <ele>176.06</ele>
        <time>2021-08-09T11:40:45Z</time>
      </trkpt>
      <trkpt lat="49.15967" lon="3.9676">
        <ele>178.94</ele>
        <time>2021-08-09T11:40:56Z</time>
      </trkpt>
      <trkpt lat="49.1596" lon="3.96776">
        <ele>180.87</ele>
        <time>2021-08-09T11:41:04Z</time>
      </trkpt>
      <trkpt lat="49.15954" lon="3.96792">
        <ele>182.31</ele>
        <time>2021-08-09T11:41:12Z</time>
      </trkpt>
      <trkpt lat="49.15947" lon="3.96812">
        <ele>183.75</ele>
        <time>2021-08-09T11:41:21Z</time>
      </trkpt>
      <trkpt lat="49.15941" lon="3.9683">
        <ele>184.23</ele>
        <time>2021-08-09T11:41:29Z</time>
      </trkpt>
      <trkpt lat="49.15933" lon="3.96851">
        <ele>184.23</ele>
        <time>2021-08-09T11:41:35Z</time>
      </trkpt>
      <trkpt lat="49.1593" lon="3.96852">
        <ele>184.23</ele>
        <time>2021-08-09T11:41:36Z</time>
      </trkpt>
      <trkpt lat="49.15928" lon="3.96851">
        <ele>184.23</ele>
        <time>2021-08-09T11:41:37Z</time>
      </trkpt>
      <trkpt lat="49.15926" lon="3.96849">
        <ele>184.23</ele>
        <time>2021-08-09T11:41:38Z</time>
      </trkpt>
      <trkpt lat="49.15925" lon="3.96848">
        <ele>184.23</ele>
        <time>2021-08-09T11:41:39Z</time>
      </trkpt>
      <trkpt lat="49.15923" lon="3.96847">
        <ele>184.23</ele>
        <time>2021-08-09T11:41:40Z</time>
      </trkpt>
      <trkpt lat="49.15922" lon="3.96846">
        <ele>184.71</ele>
        <time>2021-08-09T11:41:41Z</time>
      </trkpt>
      <trkpt lat="49.15921" lon="3.96846">
        <ele>184.71</ele>
        <time>2021-08-09T11:41:42Z</time>
      </trkpt>
      <trkpt lat="49.15919" lon="3.96844">
        <ele>185.67</ele>
        <time>2021-08-09T11:41:43Z</time>
      </trkpt>
      <trkpt lat="49.15918" lon="3.96843">
        <ele>185.67</ele>
        <time>2021-08-09T11:41:44Z</time>
      </trkpt>
      <trkpt lat="49.15917" lon="3.96842">
        <ele>185.67</ele>
        <time>2021-08-09T11:41:45Z</time>
      </trkpt>
      <trkpt lat="49.15904" lon="3.96833">
        <ele>187.11</ele>
        <time>2021-08-09T11:41:54Z</time>
      </trkpt>
      <trkpt lat="49.15886" lon="3.96824">
        <ele>188.56</ele>
        <time>2021-08-09T11:42:05Z</time>
      </trkpt>
      <trkpt lat="49.15883" lon="3.96823">
        <ele>188.56</ele>
        <time>2021-08-09T11:42:07Z</time>
      </trkpt>
      <trkpt lat="49.15878" lon="3.96822">
        <ele>189.04</ele>
        <time>2021-08-09T11:42:11Z</time>
      </trkpt>
      <trkpt lat="49.15877" lon="3.96821">
        <ele>189.04</ele>
        <time>2021-08-09T11:42:12Z</time>
      </trkpt>
      <trkpt lat="49.15875" lon="3.96819">
        <ele>189.52</ele>
        <time>2021-08-09T11:42:13Z</time>
      </trkpt>
      <trkpt lat="49.15874" lon="3.96819">
        <ele>189.52</ele>
        <time>2021-08-09T11:42:14Z</time>
      </trkpt>
      <trkpt lat="49.15872" lon="3.96818">
        <ele>189.52</ele>
        <time>2021-08-09T11:42:15Z</time>
      </trkpt>
      <trkpt lat="49.15871" lon="3.96817">
        <ele>190</ele>
        <time>2021-08-09T11:42:16Z</time>
      </trkpt>
      <trkpt lat="49.15869" lon="3.96816">
        <ele>190</ele>
        <time>2021-08-09T11:42:17Z</time>
      </trkpt>
      <trkpt lat="49.15868" lon="3.96816">
        <ele>190</ele>
        <time>2021-08-09T11:42:18Z</time>
      </trkpt>
      <trkpt lat="49.15866" lon="3.96816">
        <ele>190.48</ele>
        <time>2021-08-09T11:42:19Z</time>
      </trkpt>
      <trkpt lat="49.15865" lon="3.96815">
        <ele>190.48</ele>
        <time>2021-08-09T11:42:20Z</time>
      </trkpt>
      <trkpt lat="49.15863" lon="3.96815">
        <ele>190.96</ele>
        <time>2021-08-09T11:42:21Z</time>
      </trkpt>
      <trkpt lat="49.15861" lon="3.96815">
        <ele>191.92</ele>
        <time>2021-08-09T11:42:22Z</time>
      </trkpt>
      <trkpt lat="49.15855" lon="3.96816">
        <ele>192.4</ele>
        <time>2021-08-09T11:42:26Z</time>
      </trkpt>
      <trkpt lat="49.15853" lon="3.96817">
        <ele>192.4</ele>
        <time>2021-08-09T11:42:27Z</time>
      </trkpt>
      <trkpt lat="49.15851" lon="3.96817">
        <ele>192.4</ele>
        <time>2021-08-09T11:42:28Z</time>
      </trkpt>
      <trkpt lat="49.15849" lon="3.96818">
        <ele>192.4</ele>
        <time>2021-08-09T11:42:29Z</time>
      </trkpt>
      <trkpt lat="49.15847" lon="3.96818">
        <ele>192.4</ele>
        <time>2021-08-09T11:42:30Z</time>
      </trkpt>
      <trkpt lat="49.15846" lon="3.96818">
        <ele>192.4</ele>
        <time>2021-08-09T11:42:31Z</time>
      </trkpt>
      <trkpt lat="49.15844" lon="3.96818">
        <ele>192.4</ele>
        <time>2021-08-09T11:42:32Z</time>
      </trkpt>
      <trkpt lat="49.15826" lon="3.96826">
        <ele>194.32</ele>
        <time>2021-08-09T11:42:42Z</time>
      </trkpt>
      <trkpt lat="49.15813" lon="3.96838">
        <ele>195.77</ele>
        <time>2021-08-09T11:42:50Z</time>
      </trkpt>
      <trkpt lat="49.15797" lon="3.96859">
        <ele>196.25</ele>
        <time>2021-08-09T11:42:59Z</time>
      </trkpt>
      <trkpt lat="49.1579" lon="3.96871">
        <ele>197.21</ele>
        <time>2021-08-09T11:43:04Z</time>
      </trkpt>
      <trkpt lat="49.1579" lon="3.96874">
        <ele>197.21</ele>
        <time>2021-08-09T11:43:05Z</time>
      </trkpt>
      <trkpt lat="49.15792" lon="3.96877">
        <ele>197.21</ele>
        <time>2021-08-09T11:43:06Z</time>
      </trkpt>
      <trkpt lat="49.15805" lon="3.96895">
        <ele>197.69</ele>
        <time>2021-08-09T11:43:13Z</time>
      </trkpt>
      <trkpt lat="49.15807" lon="3.96907">
        <ele>196.25</ele>
        <time>2021-08-09T11:43:15Z</time>
      </trkpt>
      <trkpt lat="49.15805" lon="3.96913">
        <ele>196.25</ele>
        <time>2021-08-09T11:43:16Z</time>
      </trkpt>
      <trkpt lat="49.15802" lon="3.96918">
        <ele>196.25</ele>
        <time>2021-08-09T11:43:17Z</time>
      </trkpt>
      <trkpt lat="49.15785" lon="3.96944">
        <ele>194.8</ele>
        <time>2021-08-09T11:43:22Z</time>
      </trkpt>
      <trkpt lat="49.1576" lon="3.96993">
        <ele>192.4</ele>
        <time>2021-08-09T11:43:30Z</time>
      </trkpt>
      <trkpt lat="49.15746" lon="3.97016">
        <ele>190.48</ele>
        <time>2021-08-09T11:43:33Z</time>
      </trkpt>
      <trkpt lat="49.15741" lon="3.97023">
        <ele>190.48</ele>
        <time>2021-08-09T11:43:34Z</time>
      </trkpt>
      <trkpt lat="49.15708" lon="3.97065">
        <ele>189.04</ele>
        <time>2021-08-09T11:43:41Z</time>
      </trkpt>
      <trkpt lat="49.15701" lon="3.97075">
        <ele>189.04</ele>
        <time>2021-08-09T11:43:43Z</time>
      </trkpt>
      <trkpt lat="49.15696" lon="3.97086">
        <ele>189.04</ele>
        <time>2021-08-09T11:43:45Z</time>
      </trkpt>
      <trkpt lat="49.15694" lon="3.97091">
        <ele>189.04</ele>
        <time>2021-08-09T11:43:46Z</time>
      </trkpt>
      <trkpt lat="49.15692" lon="3.97096">
        <ele>189.04</ele>
        <time>2021-08-09T11:43:47Z</time>
      </trkpt>
      <trkpt lat="49.1569" lon="3.97101">
        <ele>189.04</ele>
        <time>2021-08-09T11:43:48Z</time>
      </trkpt>
      <trkpt lat="49.15688" lon="3.97105">
        <ele>190</ele>
        <time>2021-08-09T11:43:49Z</time>
      </trkpt>
      <trkpt lat="49.15686" lon="3.97109">
        <ele>190</ele>
        <time>2021-08-09T11:43:50Z</time>
      </trkpt>
      <trkpt lat="49.15676" lon="3.97142">
        <ele>191.44</ele>
        <time>2021-08-09T11:43:58Z</time>
      </trkpt>
      <trkpt lat="49.15662" lon="3.97176">
        <ele>192.88</ele>
        <time>2021-08-09T11:44:07Z</time>
      </trkpt>
      <trkpt lat="49.15649" lon="3.97196">
        <ele>194.32</ele>
        <time>2021-08-09T11:44:15Z</time>
      </trkpt>
      <trkpt lat="49.15642" lon="3.97206">
        <ele>194.8</ele>
        <time>2021-08-09T11:44:22Z</time>
      </trkpt>
      <trkpt lat="49.15641" lon="3.97207">
        <ele>195.28</ele>
        <time>2021-08-09T11:44:23Z</time>
      </trkpt>
      <trkpt lat="49.15631" lon="3.97222">
        <ele>195.77</ele>
        <time>2021-08-09T11:44:32Z</time>
      </trkpt>
      <trkpt lat="49.1562" lon="3.97238">
        <ele>196.73</ele>
        <time>2021-08-09T11:44:42Z</time>
      </trkpt>
      <trkpt lat="49.15613" lon="3.97248">
        <ele>198.17</ele>
        <time>2021-08-09T11:44:49Z</time>
      </trkpt>
      <trkpt lat="49.15612" lon="3.97249">
        <ele>198.65</ele>
        <time>2021-08-09T11:44:50Z</time>
      </trkpt>
      <trkpt lat="49.15611" lon="3.97251">
        <ele>198.65</ele>
        <time>2021-08-09T11:44:51Z</time>
      </trkpt>
      <trkpt lat="49.1561" lon="3.97252">
        <ele>198.65</ele>
        <time>2021-08-09T11:44:52Z</time>
      </trkpt>
      <trkpt lat="49.15607" lon="3.97257">
        <ele>199.13</ele>
        <time>2021-08-09T11:44:56Z</time>
      </trkpt>
      <trkpt lat="49.15606" lon="3.97258">
        <ele>199.61</ele>
        <time>2021-08-09T11:44:57Z</time>
      </trkpt>
      <trkpt lat="49.15605" lon="3.97258">
        <ele>199.61</ele>
        <time>2021-08-09T11:44:58Z</time>
      </trkpt>
      <trkpt lat="49.15603" lon="3.97259">
        <ele>200.09</ele>
        <time>2021-08-09T11:44:59Z</time>
      </trkpt>
      <trkpt lat="49.15603" lon="3.97261">
        <ele>200.09</ele>
        <time>2021-08-09T11:45:00Z</time>
      </trkpt>
      <trkpt lat="49.15603" lon="3.97262">
        <ele>200.09</ele>
        <time>2021-08-09T11:45:01Z</time>
      </trkpt>
      <trkpt lat="49.15602" lon="3.97264">
        <ele>200.57</ele>
        <time>2021-08-09T11:45:02Z</time>
      </trkpt>
      <trkpt lat="49.15602" lon="3.97266">
        <ele>200.57</ele>
        <time>2021-08-09T11:45:03Z</time>
      </trkpt>
      <trkpt lat="49.15601" lon="3.97268">
        <ele>200.57</ele>
        <time>2021-08-09T11:45:04Z</time>
      </trkpt>
      <trkpt lat="49.156" lon="3.97269">
        <ele>200.57</ele>
        <time>2021-08-09T11:45:05Z</time>
      </trkpt>
      <trkpt lat="49.156" lon="3.97271">
        <ele>201.05</ele>
        <time>2021-08-09T11:45:06Z</time>
      </trkpt>
      <trkpt lat="49.156" lon="3.97274">
        <ele>201.05</ele>
        <time>2021-08-09T11:45:07Z</time>
      </trkpt>
      <trkpt lat="49.15599" lon="3.97276">
        <ele>201.05</ele>
        <time>2021-08-09T11:45:08Z</time>
      </trkpt>
      <trkpt lat="49.15599" lon="3.97279">
        <ele>201.05</ele>
        <time>2021-08-09T11:45:09Z</time>
      </trkpt>
      <trkpt lat="49.15599" lon="3.97281">
        <ele>201.05</ele>
        <time>2021-08-09T11:45:10Z</time>
      </trkpt>
      <trkpt lat="49.15596" lon="3.97303">
        <ele>202.01</ele>
        <time>2021-08-09T11:45:19Z</time>
      </trkpt>
      <trkpt lat="49.15596" lon="3.97311">
        <ele>202.49</ele>
        <time>2021-08-09T11:45:23Z</time>
      </trkpt>
      <trkpt lat="49.15596" lon="3.97313">
        <ele>202.49</ele>
        <time>2021-08-09T11:45:24Z</time>
      </trkpt>
      <trkpt lat="49.15597" lon="3.97315">
        <ele>202.98</ele>
        <time>2021-08-09T11:45:25Z</time>
      </trkpt>
      <trkpt lat="49.15597" lon="3.97317">
        <ele>202.98</ele>
        <time>2021-08-09T11:45:26Z</time>
      </trkpt>
      <trkpt lat="49.15596" lon="3.97319">
        <ele>202.98</ele>
        <time>2021-08-09T11:45:27Z</time>
      </trkpt>
      <trkpt lat="49.15596" lon="3.97321">
        <ele>203.46</ele>
        <time>2021-08-09T11:45:28Z</time>
      </trkpt>
      <trkpt lat="49.15596" lon="3.97323">
        <ele>203.94</ele>
        <time>2021-08-09T11:45:29Z</time>
      </trkpt>
      <trkpt lat="49.15596" lon="3.97326">
        <ele>203.94</ele>
        <time>2021-08-09T11:45:30Z</time>
      </trkpt>
      <trkpt lat="49.15596" lon="3.97329">
        <ele>203.94</ele>
        <time>2021-08-09T11:45:31Z</time>
      </trkpt>
      <trkpt lat="49.15595" lon="3.97356">
        <ele>204.9</ele>
        <time>2021-08-09T11:45:40Z</time>
      </trkpt>
      <trkpt lat="49.15594" lon="3.97384">
        <ele>204.9</ele>
        <time>2021-08-09T11:45:47Z</time>
      </trkpt>
      <trkpt lat="49.15595" lon="3.974">
        <ele>204.9</ele>
        <time>2021-08-09T11:45:52Z</time>
      </trkpt>
      <trkpt lat="49.15598" lon="3.97421">
        <ele>205.38</ele>
        <time>2021-08-09T11:45:59Z</time>
      </trkpt>
      <trkpt lat="49.15601" lon="3.97442">
        <ele>203.94</ele>
        <time>2021-08-09T11:46:04Z</time>
      </trkpt>
      <trkpt lat="49.15603" lon="3.97472">
        <ele>201.53</ele>
        <time>2021-08-09T11:46:12Z</time>
      </trkpt>
      <trkpt lat="49.15605" lon="3.97495">
        <ele>200.57</ele>
        <time>2021-08-09T11:46:18Z</time>
      </trkpt>
      <trkpt lat="49.15603" lon="3.97541">
        <ele>198.65</ele>
        <time>2021-08-09T11:46:24Z</time>
      </trkpt>
      <trkpt lat="49.15599" lon="3.97606">
        <ele>196.25</ele>
        <time>2021-08-09T11:46:31Z</time>
      </trkpt>
      <trkpt lat="49.15598" lon="3.97633">
        <ele>196.25</ele>
        <time>2021-08-09T11:46:36Z</time>
      </trkpt>
      <trkpt lat="49.15597" lon="3.97644">
        <ele>195.77</ele>
        <time>2021-08-09T11:46:42Z</time>
      </trkpt>
      <trkpt lat="49.15598" lon="3.97641">
        <ele>195.77</ele>
        <time>2021-08-09T11:46:45Z</time>
      </trkpt>
      <trkpt lat="49.15598" lon="3.97635">
        <ele>195.77</ele>
        <time>2021-08-09T11:46:50Z</time>
      </trkpt>
      <trkpt lat="49.15598" lon="3.97627">
        <ele>195.28</ele>
        <time>2021-08-09T11:46:55Z</time>
      </trkpt>
      <trkpt lat="49.15595" lon="3.97622">
        <ele>196.73</ele>
        <time>2021-08-09T11:47:00Z</time>
      </trkpt>
      <trkpt lat="49.15592" lon="3.9762">
        <ele>195.28</ele>
        <time>2021-08-09T11:47:07Z</time>
      </trkpt>
      <trkpt lat="49.15592" lon="3.9762">
        <ele>194.8</ele>
        <time>2021-08-09T11:47:19Z</time>
      </trkpt>
      <trkpt lat="49.15591" lon="3.97621">
        <ele>194.8</ele>
        <time>2021-08-09T11:47:33Z</time>
      </trkpt>
      <trkpt lat="49.1559" lon="3.97621">
        <ele>196.25</ele>
        <time>2021-08-09T11:47:42Z</time>
      </trkpt>
      <trkpt lat="49.15589" lon="3.97622">
        <ele>194.8</ele>
        <time>2021-08-09T11:47:57Z</time>
      </trkpt>
      <trkpt lat="49.15589" lon="3.97621">
        <ele>196.25</ele>
        <time>2021-08-09T11:48:15Z</time>
      </trkpt>
      <trkpt lat="49.1559" lon="3.97621">
        <ele>196.25</ele>
        <time>2021-08-09T11:48:37Z</time>
      </trkpt>
      <trkpt lat="49.15589" lon="3.97622">
        <ele>194.8</ele>
        <time>2021-08-09T11:48:57Z</time>
      </trkpt>
      <trkpt lat="49.15588" lon="3.97623">
        <ele>194.8</ele>
        <time>2021-08-09T11:49:18Z</time>
      </trkpt>
      <trkpt lat="49.15589" lon="3.97623">
        <ele>195.77</ele>
        <time>2021-08-09T11:49:43Z</time>
      </trkpt>
      <trkpt lat="49.15591" lon="3.97622">
        <ele>195.77</ele>
        <time>2021-08-09T11:50:01Z</time>
      </trkpt>
      <trkpt lat="49.1559" lon="3.97622">
        <ele>195.77</ele>
        <time>2021-08-09T11:50:15Z</time>
      </trkpt>
      <trkpt lat="49.1559" lon="3.9762">
        <ele>194.8</ele>
        <time>2021-08-09T11:50:35Z</time>
      </trkpt>
      <trkpt lat="49.15592" lon="3.97619">
        <ele>194.8</ele>
        <time>2021-08-09T11:50:52Z</time>
      </trkpt>
      <trkpt lat="49.15592" lon="3.97621">
        <ele>194.8</ele>
        <time>2021-08-09T11:51:14Z</time>
      </trkpt>
      <trkpt lat="49.15591" lon="3.97621">
        <ele>194.8</ele>
        <time>2021-08-09T11:51:35Z</time>
      </trkpt>
      <trkpt lat="49.15591" lon="3.97621">
        <ele>194.8</ele>
        <time>2021-08-09T11:51:57Z</time>
      </trkpt>
      <trkpt lat="49.15588" lon="3.97624">
        <ele>194.8</ele>
        <time>2021-08-09T11:52:24Z</time>
      </trkpt>
      <trkpt lat="49.15588" lon="3.97625">
        <ele>194.8</ele>
        <time>2021-08-09T11:52:47Z</time>
      </trkpt>
      <trkpt lat="49.15587" lon="3.97624">
        <ele>194.8</ele>
        <time>2021-08-09T11:53:08Z</time>
      </trkpt>
      <trkpt lat="49.15588" lon="3.97623">
        <ele>194.8</ele>
        <time>2021-08-09T11:53:22Z</time>
      </trkpt>
      <trkpt lat="49.15591" lon="3.97622">
        <ele>194.8</ele>
        <time>2021-08-09T11:53:49Z</time>
      </trkpt>
      <trkpt lat="49.15589" lon="3.97624">
        <ele>195.28</ele>
        <time>2021-08-09T11:54:06Z</time>
      </trkpt>
      <trkpt lat="49.1559" lon="3.97623">
        <ele>195.28</ele>
        <time>2021-08-09T11:54:26Z</time>
      </trkpt>
      <trkpt lat="49.15591" lon="3.97623">
        <ele>194.8</ele>
        <time>2021-08-09T11:54:50Z</time>
      </trkpt>
      <trkpt lat="49.15591" lon="3.97623">
        <ele>194.8</ele>
        <time>2021-08-09T11:55:05Z</time>
      </trkpt>
      <trkpt lat="49.15589" lon="3.97624">
        <ele>194.8</ele>
        <time>2021-08-09T11:55:21Z</time>
      </trkpt>
      <trkpt lat="49.15589" lon="3.97623">
        <ele>194.8</ele>
        <time>2021-08-09T11:55:39Z</time>
      </trkpt>
      <trkpt lat="49.1559" lon="3.97622">
        <ele>194.8</ele>
        <time>2021-08-09T11:56:00Z</time>
      </trkpt>
      <trkpt lat="49.15591" lon="3.97622">
        <ele>194.8</ele>
        <time>2021-08-09T11:56:28Z</time>
      </trkpt>
      <trkpt lat="49.15591" lon="3.97621">
        <ele>194.32</ele>
        <time>2021-08-09T11:56:51Z</time>
      </trkpt>
      <trkpt lat="49.15593" lon="3.9762">
        <ele>194.32</ele>
        <time>2021-08-09T11:57:11Z</time>
      </trkpt>
      <trkpt lat="49.15593" lon="3.97619">
        <ele>194.32</ele>
        <time>2021-08-09T11:57:30Z</time>
      </trkpt>
      <trkpt lat="49.15592" lon="3.9762">
        <ele>194.32</ele>
        <time>2021-08-09T11:57:52Z</time>
      </trkpt>
      <trkpt lat="49.15591" lon="3.9762">
        <ele>194.32</ele>
        <time>2021-08-09T11:58:16Z</time>
      </trkpt>
      <trkpt lat="49.1559" lon="3.97621">
        <ele>194.32</ele>
        <time>2021-08-09T11:58:37Z</time>
      </trkpt>
      <trkpt lat="49.15589" lon="3.97622">
        <ele>194.32</ele>
        <time>2021-08-09T11:58:54Z</time>
      </trkpt>
      <trkpt lat="49.15591" lon="3.97624">
        <ele>194.32</ele>
        <time>2021-08-09T11:59:12Z</time>
      </trkpt>
      <trkpt lat="49.15591" lon="3.97619">
        <ele>195.28</ele>
        <time>2021-08-09T11:59:28Z</time>
      </trkpt>
      <trkpt lat="49.15591" lon="3.9762">
        <ele>195.28</ele>
        <time>2021-08-09T11:59:45Z</time>
      </trkpt>
      <trkpt lat="49.1559" lon="3.97621">
        <ele>195.28</ele>
        <time>2021-08-09T12:00:04Z</time>
      </trkpt>
      <trkpt lat="49.15592" lon="3.97622">
        <ele>195.28</ele>
        <time>2021-08-09T12:00:17Z</time>
      </trkpt>
      <trkpt lat="49.15593" lon="3.97621">
        <ele>195.28</ele>
        <time>2021-08-09T12:00:25Z</time>
      </trkpt>
      <trkpt lat="49.15593" lon="3.97621">
        <ele>195.28</ele>
        <time>2021-08-09T12:00:44Z</time>
      </trkpt>
      <trkpt lat="49.1559" lon="3.97623">
        <ele>195.28</ele>
        <time>2021-08-09T12:00:59Z</time>
      </trkpt>
      <trkpt lat="49.15589" lon="3.97624">
        <ele>195.28</ele>
        <time>2021-08-09T12:01:13Z</time>
      </trkpt>
      <trkpt lat="49.1559" lon="3.97623">
        <ele>195.28</ele>
        <time>2021-08-09T12:01:27Z</time>
      </trkpt>
      <trkpt lat="49.15592" lon="3.97622">
        <ele>195.28</ele>
        <time>2021-08-09T12:01:44Z</time>
      </trkpt>
      <trkpt lat="49.15591" lon="3.9762">
        <ele>194.32</ele>
        <time>2021-08-09T12:01:58Z</time>
      </trkpt>
      <trkpt lat="49.15591" lon="3.9762">
        <ele>195.77</ele>
        <time>2021-08-09T12:02:00Z</time>
      </trkpt>
      <trkpt lat="49.15591" lon="3.97621">
        <ele>195.77</ele>
        <time>2021-08-09T12:02:09Z</time>
      </trkpt>
      <trkpt lat="49.15589" lon="3.97622">
        <ele>195.77</ele>
        <time>2021-08-09T12:02:24Z</time>
      </trkpt>
      <trkpt lat="49.15588" lon="3.97624">
        <ele>195.77</ele>
        <time>2021-08-09T12:02:36Z</time>
      </trkpt>
      <trkpt lat="49.15587" lon="3.97623">
        <ele>195.77</ele>
        <time>2021-08-09T12:02:50Z</time>
      </trkpt>
      <trkpt lat="49.15587" lon="3.97622">
        <ele>195.77</ele>
        <time>2021-08-09T12:03:08Z</time>
      </trkpt>
      <trkpt lat="49.15587" lon="3.97622">
        <ele>195.77</ele>
        <time>2021-08-09T12:03:23Z</time>
      </trkpt>
      <trkpt lat="49.15589" lon="3.97622">
        <ele>195.77</ele>
        <time>2021-08-09T12:03:42Z</time>
      </trkpt>
      <trkpt lat="49.15591" lon="3.97621">
        <ele>194.8</ele>
        <time>2021-08-09T12:04:02Z</time>
      </trkpt>
      <trkpt lat="49.1559" lon="3.97622">
        <ele>195.77</ele>
        <time>2021-08-09T12:04:17Z</time>
      </trkpt>
      <trkpt lat="49.1559" lon="3.97621">
        <ele>195.28</ele>
        <time>2021-08-09T12:04:27Z</time>
      </trkpt>
      <trkpt lat="49.15591" lon="3.9762">
        <ele>194.8</ele>
        <time>2021-08-09T12:04:43Z</time>
      </trkpt>
      <trkpt lat="49.15594" lon="3.97619">
        <ele>194.8</ele>
        <time>2021-08-09T12:04:58Z</time>
      </trkpt>
      <trkpt lat="49.15593" lon="3.97621">
        <ele>194.8</ele>
        <time>2021-08-09T12:05:15Z</time>
      </trkpt>
      <trkpt lat="49.15592" lon="3.97622">
        <ele>194.8</ele>
        <time>2021-08-09T12:05:33Z</time>
      </trkpt>
      <trkpt lat="49.15589" lon="3.97623">
        <ele>194.8</ele>
        <time>2021-08-09T12:05:51Z</time>
      </trkpt>
      <trkpt lat="49.15588" lon="3.97623">
        <ele>194.8</ele>
        <time>2021-08-09T12:06:11Z</time>
      </trkpt>
      <trkpt lat="49.15588" lon="3.97623">
        <ele>194.8</ele>
        <time>2021-08-09T12:06:28Z</time>
      </trkpt>
      <trkpt lat="49.15592" lon="3.97622">
        <ele>194.8</ele>
        <time>2021-08-09T12:06:46Z</time>
      </trkpt>
      <trkpt lat="49.15591" lon="3.97623">
        <ele>196.25</ele>
        <time>2021-08-09T12:06:55Z</time>
      </trkpt>
      <trkpt lat="49.1559" lon="3.97625">
        <ele>196.25</ele>
        <time>2021-08-09T12:07:15Z</time>
      </trkpt>
      <trkpt lat="49.1559" lon="3.97623">
        <ele>196.73</ele>
        <time>2021-08-09T12:07:28Z</time>
      </trkpt>
      <trkpt lat="49.15591" lon="3.97621">
        <ele>196.25</ele>
        <time>2021-08-09T12:07:46Z</time>
      </trkpt>
      <trkpt lat="49.15591" lon="3.9762">
        <ele>196.25</ele>
        <time>2021-08-09T12:08:01Z</time>
      </trkpt>
      <trkpt lat="49.1559" lon="3.97622">
        <ele>196.25</ele>
        <time>2021-08-09T12:08:08Z</time>
      </trkpt>
      <trkpt lat="49.15591" lon="3.97621">
        <ele>196.25</ele>
        <time>2021-08-09T12:08:13Z</time>
      </trkpt>
      <trkpt lat="49.15591" lon="3.9762">
        <ele>196.25</ele>
        <time>2021-08-09T12:08:18Z</time>
      </trkpt>
      <trkpt lat="49.1559" lon="3.97621">
        <ele>196.25</ele>
        <time>2021-08-09T12:08:31Z</time>
      </trkpt>
      <trkpt lat="49.1559" lon="3.9762">
        <ele>196.25</ele>
        <time>2021-08-09T12:08:43Z</time>
      </trkpt>
      <trkpt lat="49.15591" lon="3.97619">
        <ele>196.25</ele>
        <time>2021-08-09T12:08:49Z</time>
      </trkpt>
      <trkpt lat="49.1559" lon="3.97621">
        <ele>196.25</ele>
        <time>2021-08-09T12:08:57Z</time>
      </trkpt>
      <trkpt lat="49.1559" lon="3.97622">
        <ele>196.25</ele>
        <time>2021-08-09T12:09:09Z</time>
      </trkpt>
      <trkpt lat="49.1559" lon="3.97623">
        <ele>196.25</ele>
        <time>2021-08-09T12:09:27Z</time>
      </trkpt>
      <trkpt lat="49.1559" lon="3.97622">
        <ele>196.25</ele>
        <time>2021-08-09T12:09:42Z</time>
      </trkpt>
      <trkpt lat="49.15591" lon="3.97621">
        <ele>196.25</ele>
        <time>2021-08-09T12:09:52Z</time>
      </trkpt>
      <trkpt lat="49.15591" lon="3.97621">
        <ele>196.25</ele>
        <time>2021-08-09T12:10:05Z</time>
      </trkpt>
      <trkpt lat="49.15593" lon="3.97621">
        <ele>196.25</ele>
        <time>2021-08-09T12:10:16Z</time>
      </trkpt>
      <trkpt lat="49.15595" lon="3.97621">
        <ele>196.25</ele>
        <time>2021-08-09T12:10:19Z</time>
      </trkpt>
      <trkpt lat="49.15596" lon="3.97622">
        <ele>196.25</ele>
        <time>2021-08-09T12:10:20Z</time>
      </trkpt>
      <trkpt lat="49.15596" lon="3.97625">
        <ele>196.25</ele>
        <time>2021-08-09T12:10:21Z</time>
      </trkpt>
      <trkpt lat="49.15596" lon="3.97627">
        <ele>196.25</ele>
        <time>2021-08-09T12:10:22Z</time>
      </trkpt>
      <trkpt lat="49.15597" lon="3.9763">
        <ele>196.25</ele>
        <time>2021-08-09T12:10:23Z</time>
      </trkpt>
      <trkpt lat="49.15597" lon="3.97632">
        <ele>196.25</ele>
        <time>2021-08-09T12:10:24Z</time>
      </trkpt>
      <trkpt lat="49.15597" lon="3.97635">
        <ele>196.25</ele>
        <time>2021-08-09T12:10:25Z</time>
      </trkpt>
      <trkpt lat="49.15596" lon="3.97656">
        <ele>195.28</ele>
        <time>2021-08-09T12:10:32Z</time>
      </trkpt>
      <trkpt lat="49.15596" lon="3.97661">
        <ele>195.28</ele>
        <time>2021-08-09T12:10:33Z</time>
      </trkpt>
      <trkpt lat="49.15594" lon="3.97684">
        <ele>195.28</ele>
        <time>2021-08-09T12:10:39Z</time>
      </trkpt>
      <trkpt lat="49.15595" lon="3.97687">
        <ele>195.28</ele>
        <time>2021-08-09T12:10:44Z</time>
      </trkpt>
      <trkpt lat="49.15596" lon="3.97686">
        <ele>195.28</ele>
        <time>2021-08-09T12:10:45Z</time>
      </trkpt>
      <trkpt lat="49.15596" lon="3.97683">
        <ele>195.28</ele>
        <time>2021-08-09T12:10:46Z</time>
      </trkpt>
      <trkpt lat="49.15596" lon="3.9768">
        <ele>195.28</ele>
        <time>2021-08-09T12:10:47Z</time>
      </trkpt>
      <trkpt lat="49.15596" lon="3.97677">
        <ele>195.28</ele>
        <time>2021-08-09T12:10:48Z</time>
      </trkpt>
      <trkpt lat="49.15596" lon="3.97672">
        <ele>195.28</ele>
        <time>2021-08-09T12:10:49Z</time>
      </trkpt>
      <trkpt lat="49.15596" lon="3.97668">
        <ele>195.28</ele>
        <time>2021-08-09T12:10:50Z</time>
      </trkpt>
      <trkpt lat="49.15596" lon="3.97664">
        <ele>195.28</ele>
        <time>2021-08-09T12:10:51Z</time>
      </trkpt>
      <trkpt lat="49.15598" lon="3.97631">
        <ele>195.28</ele>
        <time>2021-08-09T12:10:58Z</time>
      </trkpt>
      <trkpt lat="49.15596" lon="3.97619">
        <ele>195.28</ele>
        <time>2021-08-09T12:11:02Z</time>
      </trkpt>
      <trkpt lat="49.15595" lon="3.97618">
        <ele>195.28</ele>
        <time>2021-08-09T12:11:03Z</time>
      </trkpt>
      <trkpt lat="49.15593" lon="3.97619">
        <ele>195.28</ele>
        <time>2021-08-09T12:11:04Z</time>
      </trkpt>
      <trkpt lat="49.15593" lon="3.9762">
        <ele>195.28</ele>
        <time>2021-08-09T12:11:05Z</time>
      </trkpt>
      <trkpt lat="49.15593" lon="3.97622">
        <ele>195.28</ele>
        <time>2021-08-09T12:11:06Z</time>
      </trkpt>
      <trkpt lat="49.15595" lon="3.97624">
        <ele>195.28</ele>
        <time>2021-08-09T12:11:07Z</time>
      </trkpt>
      <trkpt lat="49.15596" lon="3.97625">
        <ele>195.28</ele>
        <time>2021-08-09T12:11:08Z</time>
      </trkpt>
      <trkpt lat="49.15597" lon="3.97628">
        <ele>195.28</ele>
        <time>2021-08-09T12:11:09Z</time>
      </trkpt>
      <trkpt lat="49.15598" lon="3.97632">
        <ele>195.28</ele>
        <time>2021-08-09T12:11:10Z</time>
      </trkpt>
      <trkpt lat="49.15598" lon="3.97636">
        <ele>195.28</ele>
        <time>2021-08-09T12:11:11Z</time>
      </trkpt>
      <trkpt lat="49.15598" lon="3.9764">
        <ele>195.28</ele>
        <time>2021-08-09T12:11:12Z</time>
      </trkpt>
      <trkpt lat="49.15597" lon="3.97644">
        <ele>195.28</ele>
        <time>2021-08-09T12:11:13Z</time>
      </trkpt>
      <trkpt lat="49.15597" lon="3.97649">
        <ele>195.28</ele>
        <time>2021-08-09T12:11:14Z</time>
      </trkpt>
      <trkpt lat="49.15595" lon="3.97683">
        <ele>195.28</ele>
        <time>2021-08-09T12:11:21Z</time>
      </trkpt>
      <trkpt lat="49.15594" lon="3.97709">
        <ele>196.73</ele>
        <time>2021-08-09T12:11:27Z</time>
      </trkpt>
      <trkpt lat="49.15595" lon="3.9773">
        <ele>197.21</ele>
        <time>2021-08-09T12:11:33Z</time>
      </trkpt>
      <trkpt lat="49.15596" lon="3.97758">
        <ele>198.17</ele>
        <time>2021-08-09T12:11:40Z</time>
      </trkpt>
      <trkpt lat="49.15599" lon="3.9779">
        <ele>199.13</ele>
        <time>2021-08-09T12:11:48Z</time>
      </trkpt>
      <trkpt lat="49.156" lon="3.97818">
        <ele>199.61</ele>
        <time>2021-08-09T12:11:54Z</time>
      </trkpt>
      <trkpt lat="49.15594" lon="3.9786">
        <ele>200.57</ele>
        <time>2021-08-09T12:12:03Z</time>
      </trkpt>
      <trkpt lat="49.15588" lon="3.97891">
        <ele>201.53</ele>
        <time>2021-08-09T12:12:12Z</time>
      </trkpt>
      <trkpt lat="49.15581" lon="3.97926">
        <ele>202.98</ele>
        <time>2021-08-09T12:12:22Z</time>
      </trkpt>
      <trkpt lat="49.15574" lon="3.97954">
        <ele>203.94</ele>
        <time>2021-08-09T12:12:31Z</time>
      </trkpt>
      <trkpt lat="49.15571" lon="3.9798">
        <ele>205.38</ele>
        <time>2021-08-09T12:12:39Z</time>
      </trkpt>
      <trkpt lat="49.15572" lon="3.97987">
        <ele>205.38</ele>
        <time>2021-08-09T12:12:41Z</time>
      </trkpt>
      <trkpt lat="49.15574" lon="3.97991">
        <ele>205.38</ele>
        <time>2021-08-09T12:12:42Z</time>
      </trkpt>
      <trkpt lat="49.15576" lon="3.97993">
        <ele>205.38</ele>
        <time>2021-08-09T12:12:43Z</time>
      </trkpt>
      <trkpt lat="49.15578" lon="3.97997">
        <ele>205.38</ele>
        <time>2021-08-09T12:12:44Z</time>
      </trkpt>
      <trkpt lat="49.15581" lon="3.98">
        <ele>205.38</ele>
        <time>2021-08-09T12:12:45Z</time>
      </trkpt>
      <trkpt lat="49.15595" lon="3.98014">
        <ele>203.94</ele>
        <time>2021-08-09T12:12:49Z</time>
      </trkpt>
      <trkpt lat="49.15614" lon="3.98034">
        <ele>202.01</ele>
        <time>2021-08-09T12:12:53Z</time>
      </trkpt>
      <trkpt lat="49.15638" lon="3.98059">
        <ele>199.61</ele>
        <time>2021-08-09T12:12:57Z</time>
      </trkpt>
      <trkpt lat="49.15664" lon="3.98085">
        <ele>197.69</ele>
        <time>2021-08-09T12:13:01Z</time>
      </trkpt>
      <trkpt lat="49.15697" lon="3.98119">
        <ele>193.84</ele>
        <time>2021-08-09T12:13:06Z</time>
      </trkpt>
      <trkpt lat="49.15702" lon="3.98125">
        <ele>192.88</ele>
        <time>2021-08-09T12:13:07Z</time>
      </trkpt>
      <trkpt lat="49.15706" lon="3.98132">
        <ele>192.88</ele>
        <time>2021-08-09T12:13:08Z</time>
      </trkpt>
      <trkpt lat="49.15709" lon="3.98139">
        <ele>192.88</ele>
        <time>2021-08-09T12:13:09Z</time>
      </trkpt>
      <trkpt lat="49.15711" lon="3.98147">
        <ele>192.4</ele>
        <time>2021-08-09T12:13:10Z</time>
      </trkpt>
      <trkpt lat="49.15712" lon="3.98156">
        <ele>192.4</ele>
        <time>2021-08-09T12:13:11Z</time>
      </trkpt>
      <trkpt lat="49.15711" lon="3.98165">
        <ele>191.92</ele>
        <time>2021-08-09T12:13:12Z</time>
      </trkpt>
      <trkpt lat="49.15711" lon="3.98174">
        <ele>190.96</ele>
        <time>2021-08-09T12:13:13Z</time>
      </trkpt>
      <trkpt lat="49.15708" lon="3.98184">
        <ele>190.48</ele>
        <time>2021-08-09T12:13:14Z</time>
      </trkpt>
      <trkpt lat="49.15706" lon="3.98194">
        <ele>190.48</ele>
        <time>2021-08-09T12:13:15Z</time>
      </trkpt>
      <trkpt lat="49.15702" lon="3.98215">
        <ele>189.52</ele>
        <time>2021-08-09T12:13:17Z</time>
      </trkpt>
      <trkpt lat="49.15701" lon="3.98227">
        <ele>188.56</ele>
        <time>2021-08-09T12:13:18Z</time>
      </trkpt>
      <trkpt lat="49.15701" lon="3.98238">
        <ele>188.08</ele>
        <time>2021-08-09T12:13:19Z</time>
      </trkpt>
      <trkpt lat="49.15703" lon="3.9825">
        <ele>187.11</ele>
        <time>2021-08-09T12:13:20Z</time>
      </trkpt>
      <trkpt lat="49.15705" lon="3.98261">
        <ele>186.15</ele>
        <time>2021-08-09T12:13:21Z</time>
      </trkpt>
      <trkpt lat="49.15709" lon="3.98274">
        <ele>186.15</ele>
        <time>2021-08-09T12:13:22Z</time>
      </trkpt>
      <trkpt lat="49.15712" lon="3.98284">
        <ele>185.67</ele>
        <time>2021-08-09T12:13:23Z</time>
      </trkpt>
      <trkpt lat="49.15731" lon="3.98332">
        <ele>181.83</ele>
        <time>2021-08-09T12:13:28Z</time>
      </trkpt>
      <trkpt lat="49.1574" lon="3.98349">
        <ele>180.87</ele>
        <time>2021-08-09T12:13:30Z</time>
      </trkpt>
      <trkpt lat="49.15746" lon="3.98357">
        <ele>179.9</ele>
        <time>2021-08-09T12:13:31Z</time>
      </trkpt>
      <trkpt lat="49.15753" lon="3.98363">
        <ele>178.94</ele>
        <time>2021-08-09T12:13:32Z</time>
      </trkpt>
      <trkpt lat="49.1576" lon="3.98368">
        <ele>177.98</ele>
        <time>2021-08-09T12:13:33Z</time>
      </trkpt>
      <trkpt lat="49.15767" lon="3.98372">
        <ele>177.02</ele>
        <time>2021-08-09T12:13:34Z</time>
      </trkpt>
      <trkpt lat="49.15774" lon="3.98375">
        <ele>176.54</ele>
        <time>2021-08-09T12:13:35Z</time>
      </trkpt>
      <trkpt lat="49.15802" lon="3.98387">
        <ele>173.66</ele>
        <time>2021-08-09T12:13:39Z</time>
      </trkpt>
      <trkpt lat="49.15816" lon="3.98393">
        <ele>172.69</ele>
        <time>2021-08-09T12:13:41Z</time>
      </trkpt>
      <trkpt lat="49.15821" lon="3.98397">
        <ele>171.73</ele>
        <time>2021-08-09T12:13:42Z</time>
      </trkpt>
      <trkpt lat="49.15826" lon="3.98403">
        <ele>171.73</ele>
        <time>2021-08-09T12:13:43Z</time>
      </trkpt>
      <trkpt lat="49.15829" lon="3.9841">
        <ele>170.77</ele>
        <time>2021-08-09T12:13:44Z</time>
      </trkpt>
      <trkpt lat="49.1583" lon="3.98418">
        <ele>170.29</ele>
        <time>2021-08-09T12:13:45Z</time>
      </trkpt>
      <trkpt lat="49.15829" lon="3.98425">
        <ele>170.29</ele>
        <time>2021-08-09T12:13:46Z</time>
      </trkpt>
      <trkpt lat="49.15828" lon="3.98433">
        <ele>170.29</ele>
        <time>2021-08-09T12:13:47Z</time>
      </trkpt>
      <trkpt lat="49.15826" lon="3.98456">
        <ele>169.81</ele>
        <time>2021-08-09T12:13:51Z</time>
      </trkpt>
      <trkpt lat="49.15823" lon="3.98461">
        <ele>168.85</ele>
        <time>2021-08-09T12:13:52Z</time>
      </trkpt>
      <trkpt lat="49.15821" lon="3.98464">
        <ele>169.33</ele>
        <time>2021-08-09T12:13:53Z</time>
      </trkpt>
      <trkpt lat="49.15817" lon="3.98465">
        <ele>169.33</ele>
        <time>2021-08-09T12:13:54Z</time>
      </trkpt>
      <trkpt lat="49.15814" lon="3.98467">
        <ele>169.33</ele>
        <time>2021-08-09T12:13:55Z</time>
      </trkpt>
      <trkpt lat="49.15811" lon="3.98468">
        <ele>169.33</ele>
        <time>2021-08-09T12:13:56Z</time>
      </trkpt>
      <trkpt lat="49.15809" lon="3.98469">
        <ele>169.33</ele>
        <time>2021-08-09T12:13:57Z</time>
      </trkpt>
      <trkpt lat="49.15807" lon="3.98469">
        <ele>169.33</ele>
        <time>2021-08-09T12:13:58Z</time>
      </trkpt>
      <trkpt lat="49.15806" lon="3.98471">
        <ele>169.33</ele>
        <time>2021-08-09T12:14:01Z</time>
      </trkpt>
      <trkpt lat="49.15822" lon="3.98466">
        <ele>168.85</ele>
        <time>2021-08-09T12:14:08Z</time>
      </trkpt>
      <trkpt lat="49.15848" lon="3.98466">
        <ele>168.37</ele>
        <time>2021-08-09T12:14:16Z</time>
      </trkpt>
      <trkpt lat="49.15868" lon="3.98475">
        <ele>167.89</ele>
        <time>2021-08-09T12:14:21Z</time>
      </trkpt>
      <trkpt lat="49.159" lon="3.98493">
        <ele>167.41</ele>
        <time>2021-08-09T12:14:28Z</time>
      </trkpt>
      <trkpt lat="49.15923" lon="3.98507">
        <ele>165.48</ele>
        <time>2021-08-09T12:14:34Z</time>
      </trkpt>
      <trkpt lat="49.15926" lon="3.98511">
        <ele>164.52</ele>
        <time>2021-08-09T12:14:35Z</time>
      </trkpt>
      <trkpt lat="49.1593" lon="3.98516">
        <ele>164.52</ele>
        <time>2021-08-09T12:14:36Z</time>
      </trkpt>
      <trkpt lat="49.15946" lon="3.98546">
        <ele>162.12</ele>
        <time>2021-08-09T12:14:41Z</time>
      </trkpt>
      <trkpt lat="49.1595" lon="3.98551">
        <ele>161.64</ele>
        <time>2021-08-09T12:14:42Z</time>
      </trkpt>
      <trkpt lat="49.15955" lon="3.98556">
        <ele>161.16</ele>
        <time>2021-08-09T12:14:43Z</time>
      </trkpt>
      <trkpt lat="49.1596" lon="3.98559">
        <ele>160.68</ele>
        <time>2021-08-09T12:14:44Z</time>
      </trkpt>
      <trkpt lat="49.15967" lon="3.98561">
        <ele>160.2</ele>
        <time>2021-08-09T12:14:45Z</time>
      </trkpt>
      <trkpt lat="49.15973" lon="3.98564">
        <ele>159.24</ele>
        <time>2021-08-09T12:14:46Z</time>
      </trkpt>
      <trkpt lat="49.15979" lon="3.98566">
        <ele>159.24</ele>
        <time>2021-08-09T12:14:47Z</time>
      </trkpt>
      <trkpt lat="49.15986" lon="3.98568">
        <ele>158.75</ele>
        <time>2021-08-09T12:14:48Z</time>
      </trkpt>
      <trkpt lat="49.16043" lon="3.98583">
        <ele>156.35</ele>
        <time>2021-08-09T12:14:56Z</time>
      </trkpt>
      <trkpt lat="49.1611" lon="3.98588">
        <ele>154.43</ele>
        <time>2021-08-09T12:15:04Z</time>
      </trkpt>
      <trkpt lat="49.16188" lon="3.98592">
        <ele>152.51</ele>
        <time>2021-08-09T12:15:13Z</time>
      </trkpt>
      <trkpt lat="49.16275" lon="3.9861">
        <ele>149.14</ele>
        <time>2021-08-09T12:15:23Z</time>
      </trkpt>
      <trkpt lat="49.16337" lon="3.98607">
        <ele>147.7</ele>
        <time>2021-08-09T12:15:30Z</time>
      </trkpt>
      <trkpt lat="49.16393" lon="3.98575">
        <ele>147.22</ele>
        <time>2021-08-09T12:15:37Z</time>
      </trkpt>
      <trkpt lat="49.16461" lon="3.98532">
        <ele>145.78</ele>
        <time>2021-08-09T12:15:46Z</time>
      </trkpt>
      <trkpt lat="49.16473" lon="3.98525">
        <ele>145.3</ele>
        <time>2021-08-09T12:15:48Z</time>
      </trkpt>
      <trkpt lat="49.16481" lon="3.98523">
        <ele>145.3</ele>
        <time>2021-08-09T12:15:49Z</time>
      </trkpt>
      <trkpt lat="49.16489" lon="3.98523">
        <ele>145.3</ele>
        <time>2021-08-09T12:15:50Z</time>
      </trkpt>
      <trkpt lat="49.16495" lon="3.98524">
        <ele>145.3</ele>
        <time>2021-08-09T12:15:51Z</time>
      </trkpt>
      <trkpt lat="49.16501" lon="3.98525">
        <ele>145.3</ele>
        <time>2021-08-09T12:15:52Z</time>
      </trkpt>
      <trkpt lat="49.16545" lon="3.98528">
        <ele>146.74</ele>
        <time>2021-08-09T12:15:59Z</time>
      </trkpt>
      <trkpt lat="49.16561" lon="3.98522">
        <ele>146.74</ele>
        <time>2021-08-09T12:16:02Z</time>
      </trkpt>
      <trkpt lat="49.16565" lon="3.98522">
        <ele>146.74</ele>
        <time>2021-08-09T12:16:03Z</time>
      </trkpt>
      <trkpt lat="49.16569" lon="3.98524">
        <ele>146.74</ele>
        <time>2021-08-09T12:16:04Z</time>
      </trkpt>
      <trkpt lat="49.16572" lon="3.98529">
        <ele>147.22</ele>
        <time>2021-08-09T12:16:05Z</time>
      </trkpt>
      <trkpt lat="49.16574" lon="3.98534">
        <ele>147.22</ele>
        <time>2021-08-09T12:16:06Z</time>
      </trkpt>
      <trkpt lat="49.16574" lon="3.98538">
        <ele>147.22</ele>
        <time>2021-08-09T12:16:07Z</time>
      </trkpt>
      <trkpt lat="49.16575" lon="3.98542">
        <ele>147.22</ele>
        <time>2021-08-09T12:16:08Z</time>
      </trkpt>
      <trkpt lat="49.16574" lon="3.98546">
        <ele>147.22</ele>
        <time>2021-08-09T12:16:09Z</time>
      </trkpt>
      <trkpt lat="49.16572" lon="3.98571">
        <ele>149.14</ele>
        <time>2021-08-09T12:16:17Z</time>
      </trkpt>
      <trkpt lat="49.16572" lon="3.98593">
        <ele>150.58</ele>
        <time>2021-08-09T12:16:25Z</time>
      </trkpt>
      <trkpt lat="49.16572" lon="3.98609">
        <ele>151.06</ele>
        <time>2021-08-09T12:16:32Z</time>
      </trkpt>
      <trkpt lat="49.16573" lon="3.98625">
        <ele>152.51</ele>
        <time>2021-08-09T12:16:39Z</time>
      </trkpt>
      <trkpt lat="49.16573" lon="3.98627">
        <ele>152.51</ele>
        <time>2021-08-09T12:16:40Z</time>
      </trkpt>
      <trkpt lat="49.16573" lon="3.9863">
        <ele>152.51</ele>
        <time>2021-08-09T12:16:41Z</time>
      </trkpt>
      <trkpt lat="49.16573" lon="3.98632">
        <ele>152.51</ele>
        <time>2021-08-09T12:16:42Z</time>
      </trkpt>
      <trkpt lat="49.16573" lon="3.98634">
        <ele>152.99</ele>
        <time>2021-08-09T12:16:43Z</time>
      </trkpt>
      <trkpt lat="49.16573" lon="3.98635">
        <ele>152.99</ele>
        <time>2021-08-09T12:16:44Z</time>
      </trkpt>
      <trkpt lat="49.16573" lon="3.98637">
        <ele>152.99</ele>
        <time>2021-08-09T12:16:45Z</time>
      </trkpt>
      <trkpt lat="49.16573" lon="3.98639">
        <ele>152.99</ele>
        <time>2021-08-09T12:16:46Z</time>
      </trkpt>
      <trkpt lat="49.16573" lon="3.98641">
        <ele>152.99</ele>
        <time>2021-08-09T12:16:47Z</time>
      </trkpt>
      <trkpt lat="49.16574" lon="3.98649">
        <ele>153.95</ele>
        <time>2021-08-09T12:16:52Z</time>
      </trkpt>
      <trkpt lat="49.16575" lon="3.98651">
        <ele>153.95</ele>
        <time>2021-08-09T12:16:53Z</time>
      </trkpt>
      <trkpt lat="49.16576" lon="3.98656">
        <ele>154.43</ele>
        <time>2021-08-09T12:16:56Z</time>
      </trkpt>
      <trkpt lat="49.16576" lon="3.98658">
        <ele>154.43</ele>
        <time>2021-08-09T12:16:57Z</time>
      </trkpt>
      <trkpt lat="49.16576" lon="3.9866">
        <ele>154.91</ele>
        <time>2021-08-09T12:16:58Z</time>
      </trkpt>
      <trkpt lat="49.16577" lon="3.98662">
        <ele>154.91</ele>
        <time>2021-08-09T12:16:59Z</time>
      </trkpt>
      <trkpt lat="49.16577" lon="3.98663">
        <ele>154.91</ele>
        <time>2021-08-09T12:17:00Z</time>
      </trkpt>
      <trkpt lat="49.16577" lon="3.98665">
        <ele>154.91</ele>
        <time>2021-08-09T12:17:01Z</time>
      </trkpt>
      <trkpt lat="49.16577" lon="3.98667">
        <ele>155.39</ele>
        <time>2021-08-09T12:17:02Z</time>
      </trkpt>
      <trkpt lat="49.16578" lon="3.98668">
        <ele>155.39</ele>
        <time>2021-08-09T12:17:03Z</time>
      </trkpt>
      <trkpt lat="49.16578" lon="3.98669">
        <ele>155.87</ele>
        <time>2021-08-09T12:17:04Z</time>
      </trkpt>
      <trkpt lat="49.16578" lon="3.98671">
        <ele>155.87</ele>
        <time>2021-08-09T12:17:05Z</time>
      </trkpt>
      <trkpt lat="49.16578" lon="3.98673">
        <ele>155.87</ele>
        <time>2021-08-09T12:17:06Z</time>
      </trkpt>
      <trkpt lat="49.16579" lon="3.98674">
        <ele>156.35</ele>
        <time>2021-08-09T12:17:07Z</time>
      </trkpt>
      <trkpt lat="49.16579" lon="3.98676">
        <ele>156.35</ele>
        <time>2021-08-09T12:17:08Z</time>
      </trkpt>
      <trkpt lat="49.1658" lon="3.98678">
        <ele>155.87</ele>
        <time>2021-08-09T12:17:09Z</time>
      </trkpt>
      <trkpt lat="49.1658" lon="3.9868">
        <ele>156.83</ele>
        <time>2021-08-09T12:17:10Z</time>
      </trkpt>
      <trkpt lat="49.1658" lon="3.98681">
        <ele>156.83</ele>
        <time>2021-08-09T12:17:11Z</time>
      </trkpt>
      <trkpt lat="49.1658" lon="3.98683">
        <ele>156.83</ele>
        <time>2021-08-09T12:17:12Z</time>
      </trkpt>
      <trkpt lat="49.16581" lon="3.98685">
        <ele>156.83</ele>
        <time>2021-08-09T12:17:13Z</time>
      </trkpt>
      <trkpt lat="49.16581" lon="3.98686">
        <ele>156.83</ele>
        <time>2021-08-09T12:17:14Z</time>
      </trkpt>
      <trkpt lat="49.16582" lon="3.98688">
        <ele>157.79</ele>
        <time>2021-08-09T12:17:15Z</time>
      </trkpt>
      <trkpt lat="49.16588" lon="3.98708">
        <ele>158.27</ele>
        <time>2021-08-09T12:17:24Z</time>
      </trkpt>
      <trkpt lat="49.16594" lon="3.98734">
        <ele>159.24</ele>
        <time>2021-08-09T12:17:33Z</time>
      </trkpt>
      <trkpt lat="49.166" lon="3.98764">
        <ele>159.24</ele>
        <time>2021-08-09T12:17:40Z</time>
      </trkpt>
      <trkpt lat="49.16606" lon="3.98815">
        <ele>157.31</ele>
        <time>2021-08-09T12:17:48Z</time>
      </trkpt>
      <trkpt lat="49.16611" lon="3.98885">
        <ele>154.43</ele>
        <time>2021-08-09T12:17:56Z</time>
      </trkpt>
      <trkpt lat="49.16618" lon="3.9896">
        <ele>152.03</ele>
        <time>2021-08-09T12:18:03Z</time>
      </trkpt>
      <trkpt lat="49.16624" lon="3.98993">
        <ele>152.03</ele>
        <time>2021-08-09T12:18:06Z</time>
      </trkpt>
      <trkpt lat="49.16631" lon="3.99022">
        <ele>150.58</ele>
        <time>2021-08-09T12:18:09Z</time>
      </trkpt>
      <trkpt lat="49.16656" lon="3.99098">
        <ele>147.7</ele>
        <time>2021-08-09T12:18:16Z</time>
      </trkpt>
      <trkpt lat="49.16682" lon="3.99182">
        <ele>144.82</ele>
        <time>2021-08-09T12:18:23Z</time>
      </trkpt>
      <trkpt lat="49.16721" lon="3.99303">
        <ele>142.41</ele>
        <time>2021-08-09T12:18:33Z</time>
      </trkpt>
      <trkpt lat="49.16758" lon="3.99415">
        <ele>140.49</ele>
        <time>2021-08-09T12:18:43Z</time>
      </trkpt>
      <trkpt lat="49.16785" lon="3.99506">
        <ele>140.01</ele>
        <time>2021-08-09T12:18:52Z</time>
      </trkpt>
      <trkpt lat="49.16801" lon="3.99584">
        <ele>140.01</ele>
        <time>2021-08-09T12:19:01Z</time>
      </trkpt>
      <trkpt lat="49.16802" lon="3.99592">
        <ele>140.01</ele>
        <time>2021-08-09T12:19:02Z</time>
      </trkpt>
      <trkpt lat="49.16802" lon="3.99646">
        <ele>140.01</ele>
        <time>2021-08-09T12:19:10Z</time>
      </trkpt>
      <trkpt lat="49.16803" lon="3.99679">
        <ele>141.93</ele>
        <time>2021-08-09T12:19:17Z</time>
      </trkpt>
      <trkpt lat="49.16804" lon="3.99711">
        <ele>142.41</ele>
        <time>2021-08-09T12:19:27Z</time>
      </trkpt>
      <trkpt lat="49.16805" lon="3.99751">
        <ele>144.34</ele>
        <time>2021-08-09T12:19:40Z</time>
      </trkpt>
      <trkpt lat="49.16805" lon="3.9978">
        <ele>145.3</ele>
        <time>2021-08-09T12:19:49Z</time>
      </trkpt>
      <trkpt lat="49.16803" lon="3.99812">
        <ele>145.3</ele>
        <time>2021-08-09T12:19:57Z</time>
      </trkpt>
      <trkpt lat="49.16802" lon="3.99846">
        <ele>146.26</ele>
        <time>2021-08-09T12:20:06Z</time>
      </trkpt>
      <trkpt lat="49.168" lon="3.99894">
        <ele>146.74</ele>
        <time>2021-08-09T12:20:17Z</time>
      </trkpt>
      <trkpt lat="49.16798" lon="3.99938">
        <ele>147.22</ele>
        <time>2021-08-09T12:20:27Z</time>
      </trkpt>
      <trkpt lat="49.16796" lon="3.99979">
        <ele>147.7</ele>
        <time>2021-08-09T12:20:36Z</time>
      </trkpt>
      <trkpt lat="49.16797" lon="4.00019">
        <ele>149.14</ele>
        <time>2021-08-09T12:20:46Z</time>
      </trkpt>
      <trkpt lat="49.16806" lon="4.00058">
        <ele>149.62</ele>
        <time>2021-08-09T12:20:56Z</time>
      </trkpt>
      <trkpt lat="49.16819" lon="4.00096">
        <ele>150.58</ele>
        <time>2021-08-09T12:21:07Z</time>
      </trkpt>
      <trkpt lat="49.16829" lon="4.0013">
        <ele>151.54</ele>
        <time>2021-08-09T12:21:17Z</time>
      </trkpt>
      <trkpt lat="49.1684" lon="4.00166">
        <ele>152.51</ele>
        <time>2021-08-09T12:21:27Z</time>
      </trkpt>
      <trkpt lat="49.16851" lon="4.00205">
        <ele>153.47</ele>
        <time>2021-08-09T12:21:38Z</time>
      </trkpt>
      <trkpt lat="49.16855" lon="4.00231">
        <ele>155.39</ele>
        <time>2021-08-09T12:21:46Z</time>
      </trkpt>
      <trkpt lat="49.16856" lon="4.00257">
        <ele>156.35</ele>
        <time>2021-08-09T12:21:54Z</time>
      </trkpt>
      <trkpt lat="49.16853" lon="4.00284">
        <ele>156.83</ele>
        <time>2021-08-09T12:22:02Z</time>
      </trkpt>
      <trkpt lat="49.16848" lon="4.00311">
        <ele>157.79</ele>
        <time>2021-08-09T12:22:10Z</time>
      </trkpt>
      <trkpt lat="49.16838" lon="4.00344">
        <ele>157.79</ele>
        <time>2021-08-09T12:22:20Z</time>
      </trkpt>
      <trkpt lat="49.16828" lon="4.00375">
        <ele>158.27</ele>
        <time>2021-08-09T12:22:29Z</time>
      </trkpt>
      <trkpt lat="49.16816" lon="4.00413">
        <ele>159.24</ele>
        <time>2021-08-09T12:22:41Z</time>
      </trkpt>
      <trkpt lat="49.16808" lon="4.0044">
        <ele>160.2</ele>
        <time>2021-08-09T12:22:51Z</time>
      </trkpt>
      <trkpt lat="49.16805" lon="4.00452">
        <ele>161.16</ele>
        <time>2021-08-09T12:22:57Z</time>
      </trkpt>
      <trkpt lat="49.16802" lon="4.00468">
        <ele>162.12</ele>
        <time>2021-08-09T12:23:04Z</time>
      </trkpt>
      <trkpt lat="49.16797" lon="4.00482">
        <ele>163.56</ele>
        <time>2021-08-09T12:23:10Z</time>
      </trkpt>
      <trkpt lat="49.1679" lon="4.005">
        <ele>164.04</ele>
        <time>2021-08-09T12:23:18Z</time>
      </trkpt>
      <trkpt lat="49.16782" lon="4.00519">
        <ele>164.52</ele>
        <time>2021-08-09T12:23:26Z</time>
      </trkpt>
      <trkpt lat="49.16775" lon="4.00542">
        <ele>164.52</ele>
        <time>2021-08-09T12:23:33Z</time>
      </trkpt>
      <trkpt lat="49.16765" lon="4.00576">
        <ele>164.04</ele>
        <time>2021-08-09T12:23:42Z</time>
      </trkpt>
      <trkpt lat="49.16764" lon="4.00581">
        <ele>164.04</ele>
        <time>2021-08-09T12:23:43Z</time>
      </trkpt>
      <trkpt lat="49.16757" lon="4.00606">
        <ele>165.48</ele>
        <time>2021-08-09T12:23:50Z</time>
      </trkpt>
      <trkpt lat="49.16753" lon="4.00644">
        <ele>165</ele>
        <time>2021-08-09T12:23:59Z</time>
      </trkpt>
      <trkpt lat="49.16748" lon="4.00672">
        <ele>165</ele>
        <time>2021-08-09T12:24:05Z</time>
      </trkpt>
      <trkpt lat="49.16737" lon="4.00698">
        <ele>165</ele>
        <time>2021-08-09T12:24:13Z</time>
      </trkpt>
      <trkpt lat="49.16723" lon="4.00722">
        <ele>165</ele>
        <time>2021-08-09T12:24:20Z</time>
      </trkpt>
      <trkpt lat="49.16712" lon="4.0075">
        <ele>165.96</ele>
        <time>2021-08-09T12:24:28Z</time>
      </trkpt>
      <trkpt lat="49.16721" lon="4.0078">
        <ele>166.45</ele>
        <time>2021-08-09T12:24:35Z</time>
      </trkpt>
      <trkpt lat="49.16736" lon="4.00818">
        <ele>167.41</ele>
        <time>2021-08-09T12:24:45Z</time>
      </trkpt>
      <trkpt lat="49.16745" lon="4.00844">
        <ele>168.85</ele>
        <time>2021-08-09T12:24:54Z</time>
      </trkpt>
      <trkpt lat="49.16751" lon="4.00864">
        <ele>171.73</ele>
        <time>2021-08-09T12:25:01Z</time>
      </trkpt>
      <trkpt lat="49.16752" lon="4.00867">
        <ele>171.73</ele>
        <time>2021-08-09T12:25:02Z</time>
      </trkpt>
      <trkpt lat="49.16758" lon="4.00886">
        <ele>172.21</ele>
        <time>2021-08-09T12:25:10Z</time>
      </trkpt>
      <trkpt lat="49.16762" lon="4.00903">
        <ele>174.14</ele>
        <time>2021-08-09T12:25:17Z</time>
      </trkpt>
      <trkpt lat="49.16766" lon="4.0092">
        <ele>176.06</ele>
        <time>2021-08-09T12:25:24Z</time>
      </trkpt>
      <trkpt lat="49.16769" lon="4.00946">
        <ele>177.02</ele>
        <time>2021-08-09T12:25:33Z</time>
      </trkpt>
      <trkpt lat="49.16772" lon="4.00977">
        <ele>177.98</ele>
        <time>2021-08-09T12:25:42Z</time>
      </trkpt>
      <trkpt lat="49.16771" lon="4.01008">
        <ele>179.42</ele>
        <time>2021-08-09T12:25:50Z</time>
      </trkpt>
      <trkpt lat="49.1677" lon="4.0105">
        <ele>179.9</ele>
        <time>2021-08-09T12:26:00Z</time>
      </trkpt>
      <trkpt lat="49.16769" lon="4.01093">
        <ele>181.35</ele>
        <time>2021-08-09T12:26:10Z</time>
      </trkpt>
      <trkpt lat="49.16768" lon="4.01124">
        <ele>183.27</ele>
        <time>2021-08-09T12:26:18Z</time>
      </trkpt>
      <trkpt lat="49.16765" lon="4.01143">
        <ele>184.23</ele>
        <time>2021-08-09T12:26:26Z</time>
      </trkpt>
      <trkpt lat="49.16764" lon="4.01144">
        <ele>184.23</ele>
        <time>2021-08-09T12:26:35Z</time>
      </trkpt>
      <trkpt lat="49.16763" lon="4.01147">
        <ele>184.23</ele>
        <time>2021-08-09T12:26:48Z</time>
      </trkpt>
      <trkpt lat="49.16761" lon="4.0115">
        <ele>184.23</ele>
        <time>2021-08-09T12:26:49Z</time>
      </trkpt>
      <trkpt lat="49.16759" lon="4.01154">
        <ele>184.23</ele>
        <time>2021-08-09T12:26:51Z</time>
      </trkpt>
      <trkpt lat="49.16758" lon="4.01157">
        <ele>184.23</ele>
        <time>2021-08-09T12:26:52Z</time>
      </trkpt>
      <trkpt lat="49.16758" lon="4.0116">
        <ele>184.23</ele>
        <time>2021-08-09T12:26:53Z</time>
      </trkpt>
      <trkpt lat="49.16758" lon="4.01164">
        <ele>184.23</ele>
        <time>2021-08-09T12:26:54Z</time>
      </trkpt>
      <trkpt lat="49.16758" lon="4.01168">
        <ele>185.19</ele>
        <time>2021-08-09T12:26:55Z</time>
      </trkpt>
      <trkpt lat="49.16758" lon="4.01172">
        <ele>185.19</ele>
        <time>2021-08-09T12:26:56Z</time>
      </trkpt>
      <trkpt lat="49.16758" lon="4.01177">
        <ele>185.19</ele>
        <time>2021-08-09T12:26:57Z</time>
      </trkpt>
      <trkpt lat="49.16757" lon="4.01182">
        <ele>185.19</ele>
        <time>2021-08-09T12:26:58Z</time>
      </trkpt>
      <trkpt lat="49.16756" lon="4.01187">
        <ele>185.19</ele>
        <time>2021-08-09T12:26:59Z</time>
      </trkpt>
      <trkpt lat="49.16754" lon="4.01191">
        <ele>185.19</ele>
        <time>2021-08-09T12:27:00Z</time>
      </trkpt>
      <trkpt lat="49.16753" lon="4.01196">
        <ele>185.19</ele>
        <time>2021-08-09T12:27:01Z</time>
      </trkpt>
      <trkpt lat="49.16743" lon="4.0123">
        <ele>185.19</ele>
        <time>2021-08-09T12:27:08Z</time>
      </trkpt>
      <trkpt lat="49.16727" lon="4.01271">
        <ele>185.19</ele>
        <time>2021-08-09T12:27:16Z</time>
      </trkpt>
      <trkpt lat="49.16706" lon="4.01314">
        <ele>181.83</ele>
        <time>2021-08-09T12:27:23Z</time>
      </trkpt>
      <trkpt lat="49.16697" lon="4.01331">
        <ele>180.87</ele>
        <time>2021-08-09T12:27:25Z</time>
      </trkpt>
      <trkpt lat="49.16679" lon="4.01371">
        <ele>177.5</ele>
        <time>2021-08-09T12:27:29Z</time>
      </trkpt>
      <trkpt lat="49.16662" lon="4.01406">
        <ele>174.14</ele>
        <time>2021-08-09T12:27:32Z</time>
      </trkpt>
      <trkpt lat="49.16622" lon="4.01497">
        <ele>172.69</ele>
        <time>2021-08-09T12:27:40Z</time>
      </trkpt>
      <trkpt lat="49.16611" lon="4.01528">
        <ele>174.14</ele>
        <time>2021-08-09T12:27:43Z</time>
      </trkpt>
      <trkpt lat="49.16595" lon="4.01573">
        <ele>175.1</ele>
        <time>2021-08-09T12:27:50Z</time>
      </trkpt>
      <trkpt lat="49.16577" lon="4.01636">
        <ele>173.17</ele>
        <time>2021-08-09T12:27:58Z</time>
      </trkpt>
      <trkpt lat="49.16563" lon="4.01688">
        <ele>170.77</ele>
        <time>2021-08-09T12:28:03Z</time>
      </trkpt>
      <trkpt lat="49.16545" lon="4.01764">
        <ele>169.33</ele>
        <time>2021-08-09T12:28:10Z</time>
      </trkpt>
      <trkpt lat="49.16538" lon="4.01832">
        <ele>168.85</ele>
        <time>2021-08-09T12:28:17Z</time>
      </trkpt>
      <trkpt lat="49.16535" lon="4.01875">
        <ele>170.29</ele>
        <time>2021-08-09T12:28:23Z</time>
      </trkpt>
      <trkpt lat="49.16531" lon="4.01896">
        <ele>171.73</ele>
        <time>2021-08-09T12:28:29Z</time>
      </trkpt>
      <trkpt lat="49.16527" lon="4.01916">
        <ele>173.17</ele>
        <time>2021-08-09T12:28:39Z</time>
      </trkpt>
      <trkpt lat="49.16526" lon="4.01945">
        <ele>174.62</ele>
        <time>2021-08-09T12:28:50Z</time>
      </trkpt>
      <trkpt lat="49.16522" lon="4.01971">
        <ele>177.02</ele>
        <time>2021-08-09T12:29:00Z</time>
      </trkpt>
      <trkpt lat="49.16519" lon="4.01995">
        <ele>177.98</ele>
        <time>2021-08-09T12:29:09Z</time>
      </trkpt>
      <trkpt lat="49.16518" lon="4.02">
        <ele>178.94</ele>
        <time>2021-08-09T12:29:11Z</time>
      </trkpt>
      <trkpt lat="49.16513" lon="4.02021">
        <ele>180.38</ele>
        <time>2021-08-09T12:29:19Z</time>
      </trkpt>
      <trkpt lat="49.1651" lon="4.02032">
        <ele>180.87</ele>
        <time>2021-08-09T12:29:24Z</time>
      </trkpt>
      <trkpt lat="49.16511" lon="4.02034">
        <ele>180.87</ele>
        <time>2021-08-09T12:29:25Z</time>
      </trkpt>
      <trkpt lat="49.16511" lon="4.02035">
        <ele>180.87</ele>
        <time>2021-08-09T12:29:26Z</time>
      </trkpt>
      <trkpt lat="49.16512" lon="4.02037">
        <ele>181.35</ele>
        <time>2021-08-09T12:29:27Z</time>
      </trkpt>
      <trkpt lat="49.16512" lon="4.02039">
        <ele>181.35</ele>
        <time>2021-08-09T12:29:28Z</time>
      </trkpt>
      <trkpt lat="49.16513" lon="4.02041">
        <ele>181.35</ele>
        <time>2021-08-09T12:29:29Z</time>
      </trkpt>
      <trkpt lat="49.16514" lon="4.02048">
        <ele>181.83</ele>
        <time>2021-08-09T12:29:32Z</time>
      </trkpt>
      <trkpt lat="49.16514" lon="4.02051">
        <ele>181.83</ele>
        <time>2021-08-09T12:29:33Z</time>
      </trkpt>
      <trkpt lat="49.16514" lon="4.02055">
        <ele>181.83</ele>
        <time>2021-08-09T12:29:34Z</time>
      </trkpt>
      <trkpt lat="49.16521" lon="4.02098">
        <ele>182.79</ele>
        <time>2021-08-09T12:29:45Z</time>
      </trkpt>
      <trkpt lat="49.16528" lon="4.02143">
        <ele>183.75</ele>
        <time>2021-08-09T12:29:56Z</time>
      </trkpt>
      <trkpt lat="49.1653" lon="4.02201">
        <ele>184.23</ele>
        <time>2021-08-09T12:30:07Z</time>
      </trkpt>
      <trkpt lat="49.16532" lon="4.02254">
        <ele>184.23</ele>
        <time>2021-08-09T12:30:16Z</time>
      </trkpt>
      <trkpt lat="49.16533" lon="4.02295">
        <ele>184.23</ele>
        <time>2021-08-09T12:30:23Z</time>
      </trkpt>
      <trkpt lat="49.16534" lon="4.02309">
        <ele>184.23</ele>
        <time>2021-08-09T12:30:25Z</time>
      </trkpt>
      <trkpt lat="49.16535" lon="4.02316">
        <ele>184.23</ele>
        <time>2021-08-09T12:30:26Z</time>
      </trkpt>
      <trkpt lat="49.16538" lon="4.0233">
        <ele>183.27</ele>
        <time>2021-08-09T12:30:28Z</time>
      </trkpt>
      <trkpt lat="49.16541" lon="4.02337">
        <ele>183.27</ele>
        <time>2021-08-09T12:30:29Z</time>
      </trkpt>
      <trkpt lat="49.16546" lon="4.0235">
        <ele>182.79</ele>
        <time>2021-08-09T12:30:31Z</time>
      </trkpt>
      <trkpt lat="49.16576" lon="4.02415">
        <ele>182.31</ele>
        <time>2021-08-09T12:30:41Z</time>
      </trkpt>
      <trkpt lat="49.16586" lon="4.02439">
        <ele>182.31</ele>
        <time>2021-08-09T12:30:45Z</time>
      </trkpt>
      <trkpt lat="49.16592" lon="4.02449">
        <ele>183.27</ele>
        <time>2021-08-09T12:30:47Z</time>
      </trkpt>
      <trkpt lat="49.16599" lon="4.0247">
        <ele>183.75</ele>
        <time>2021-08-09T12:30:51Z</time>
      </trkpt>
      <trkpt lat="49.16598" lon="4.02475">
        <ele>183.75</ele>
        <time>2021-08-09T12:30:52Z</time>
      </trkpt>
      <trkpt lat="49.16596" lon="4.02479">
        <ele>183.75</ele>
        <time>2021-08-09T12:30:53Z</time>
      </trkpt>
      <trkpt lat="49.16594" lon="4.02481">
        <ele>184.23</ele>
        <time>2021-08-09T12:30:54Z</time>
      </trkpt>
      <trkpt lat="49.16591" lon="4.02485">
        <ele>184.23</ele>
        <time>2021-08-09T12:30:55Z</time>
      </trkpt>
      <trkpt lat="49.16588" lon="4.02488">
        <ele>184.23</ele>
        <time>2021-08-09T12:30:56Z</time>
      </trkpt>
      <trkpt lat="49.1657" lon="4.02501">
        <ele>184.71</ele>
        <time>2021-08-09T12:31:03Z</time>
      </trkpt>
      <trkpt lat="49.16556" lon="4.02508">
        <ele>185.67</ele>
        <time>2021-08-09T12:31:10Z</time>
      </trkpt>
      <trkpt lat="49.16554" lon="4.02509">
        <ele>185.67</ele>
        <time>2021-08-09T12:31:11Z</time>
      </trkpt>
      <trkpt lat="49.16553" lon="4.02511">
        <ele>185.67</ele>
        <time>2021-08-09T12:31:12Z</time>
      </trkpt>
      <trkpt lat="49.16555" lon="4.0251">
        <ele>185.67</ele>
        <time>2021-08-09T12:31:14Z</time>
      </trkpt>
      <trkpt lat="49.16556" lon="4.02509">
        <ele>185.67</ele>
        <time>2021-08-09T12:31:15Z</time>
      </trkpt>
      <trkpt lat="49.16558" lon="4.02507">
        <ele>185.67</ele>
        <time>2021-08-09T12:31:16Z</time>
      </trkpt>
      <trkpt lat="49.1656" lon="4.02506">
        <ele>185.67</ele>
        <time>2021-08-09T12:31:17Z</time>
      </trkpt>
      <trkpt lat="49.16563" lon="4.02505">
        <ele>185.67</ele>
        <time>2021-08-09T12:31:18Z</time>
      </trkpt>
      <trkpt lat="49.16565" lon="4.02504">
        <ele>185.67</ele>
        <time>2021-08-09T12:31:19Z</time>
      </trkpt>
      <trkpt lat="49.16568" lon="4.02503">
        <ele>185.67</ele>
        <time>2021-08-09T12:31:20Z</time>
      </trkpt>
      <trkpt lat="49.16572" lon="4.02503">
        <ele>185.67</ele>
        <time>2021-08-09T12:31:21Z</time>
      </trkpt>
      <trkpt lat="49.16575" lon="4.02503">
        <ele>185.67</ele>
        <time>2021-08-09T12:31:22Z</time>
      </trkpt>
      <trkpt lat="49.16579" lon="4.02504">
        <ele>184.71</ele>
        <time>2021-08-09T12:31:23Z</time>
      </trkpt>
      <trkpt lat="49.16582" lon="4.02507">
        <ele>184.71</ele>
        <time>2021-08-09T12:31:24Z</time>
      </trkpt>
      <trkpt lat="49.16584" lon="4.0251">
        <ele>184.71</ele>
        <time>2021-08-09T12:31:25Z</time>
      </trkpt>
      <trkpt lat="49.16586" lon="4.02513">
        <ele>184.71</ele>
        <time>2021-08-09T12:31:26Z</time>
      </trkpt>
      <trkpt lat="49.16589" lon="4.0252">
        <ele>184.71</ele>
        <time>2021-08-09T12:31:28Z</time>
      </trkpt>
      <trkpt lat="49.16588" lon="4.02522">
        <ele>184.71</ele>
        <time>2021-08-09T12:31:29Z</time>
      </trkpt>
      <trkpt lat="49.16585" lon="4.02516">
        <ele>184.71</ele>
        <time>2021-08-09T12:31:32Z</time>
      </trkpt>
      <trkpt lat="49.16584" lon="4.02513">
        <ele>184.71</ele>
        <time>2021-08-09T12:31:33Z</time>
      </trkpt>
      <trkpt lat="49.16583" lon="4.02509">
        <ele>184.71</ele>
        <time>2021-08-09T12:31:34Z</time>
      </trkpt>
      <trkpt lat="49.16572" lon="4.02502">
        <ele>184.71</ele>
        <time>2021-08-09T12:31:40Z</time>
      </trkpt>
      <trkpt lat="49.16569" lon="4.02501">
        <ele>184.71</ele>
        <time>2021-08-09T12:31:46Z</time>
      </trkpt>
      <trkpt lat="49.16563" lon="4.02504">
        <ele>186.15</ele>
        <time>2021-08-09T12:31:55Z</time>
      </trkpt>
      <trkpt lat="49.16561" lon="4.02505">
        <ele>186.15</ele>
        <time>2021-08-09T12:31:56Z</time>
      </trkpt>
      <trkpt lat="49.16543" lon="4.02512">
        <ele>186.15</ele>
        <time>2021-08-09T12:32:03Z</time>
      </trkpt>
      <trkpt lat="49.16531" lon="4.02524">
        <ele>187.59</ele>
        <time>2021-08-09T12:32:09Z</time>
      </trkpt>
      <trkpt lat="49.16516" lon="4.02542">
        <ele>188.08</ele>
        <time>2021-08-09T12:32:16Z</time>
      </trkpt>
      <trkpt lat="49.16497" lon="4.0256">
        <ele>189.04</ele>
        <time>2021-08-09T12:32:25Z</time>
      </trkpt>
      <trkpt lat="49.16476" lon="4.02573">
        <ele>190.48</ele>
        <time>2021-08-09T12:32:35Z</time>
      </trkpt>
      <trkpt lat="49.16458" lon="4.02578">
        <ele>191.44</ele>
        <time>2021-08-09T12:32:43Z</time>
      </trkpt>
      <trkpt lat="49.16437" lon="4.0258">
        <ele>193.36</ele>
        <time>2021-08-09T12:32:53Z</time>
      </trkpt>
      <trkpt lat="49.16429" lon="4.02593">
        <ele>193.84</ele>
        <time>2021-08-09T12:32:59Z</time>
      </trkpt>
      <trkpt lat="49.16428" lon="4.0262">
        <ele>195.28</ele>
        <time>2021-08-09T12:33:07Z</time>
      </trkpt>
      <trkpt lat="49.16424" lon="4.02638">
        <ele>195.77</ele>
        <time>2021-08-09T12:33:15Z</time>
      </trkpt>
      <trkpt lat="49.16419" lon="4.02661">
        <ele>197.69</ele>
        <time>2021-08-09T12:33:25Z</time>
      </trkpt>
      <trkpt lat="49.16415" lon="4.02679">
        <ele>198.17</ele>
        <time>2021-08-09T12:33:33Z</time>
      </trkpt>
      <trkpt lat="49.16412" lon="4.02696">
        <ele>199.13</ele>
        <time>2021-08-09T12:33:40Z</time>
      </trkpt>
      <trkpt lat="49.16409" lon="4.0271">
        <ele>200.09</ele>
        <time>2021-08-09T12:33:48Z</time>
      </trkpt>
      <trkpt lat="49.16404" lon="4.0273">
        <ele>201.53</ele>
        <time>2021-08-09T12:33:58Z</time>
      </trkpt>
      <trkpt lat="49.16401" lon="4.0275">
        <ele>203.46</ele>
        <time>2021-08-09T12:34:08Z</time>
      </trkpt>
      <trkpt lat="49.16398" lon="4.02765">
        <ele>204.42</ele>
        <time>2021-08-09T12:34:16Z</time>
      </trkpt>
      <trkpt lat="49.16398" lon="4.02767">
        <ele>204.42</ele>
        <time>2021-08-09T12:34:17Z</time>
      </trkpt>
      <trkpt lat="49.16397" lon="4.02769">
        <ele>204.9</ele>
        <time>2021-08-09T12:34:18Z</time>
      </trkpt>
      <trkpt lat="49.16394" lon="4.02782">
        <ele>205.86</ele>
        <time>2021-08-09T12:34:25Z</time>
      </trkpt>
      <trkpt lat="49.16393" lon="4.02784">
        <ele>205.86</ele>
        <time>2021-08-09T12:34:26Z</time>
      </trkpt>
      <trkpt lat="49.16393" lon="4.02786">
        <ele>206.34</ele>
        <time>2021-08-09T12:34:27Z</time>
      </trkpt>
      <trkpt lat="49.16393" lon="4.02788">
        <ele>206.34</ele>
        <time>2021-08-09T12:34:28Z</time>
      </trkpt>
      <trkpt lat="49.16393" lon="4.0279">
        <ele>206.34</ele>
        <time>2021-08-09T12:34:29Z</time>
      </trkpt>
      <trkpt lat="49.16392" lon="4.02791">
        <ele>206.34</ele>
        <time>2021-08-09T12:34:30Z</time>
      </trkpt>
      <trkpt lat="49.16392" lon="4.02793">
        <ele>206.82</ele>
        <time>2021-08-09T12:34:31Z</time>
      </trkpt>
      <trkpt lat="49.16392" lon="4.02795">
        <ele>206.82</ele>
        <time>2021-08-09T12:34:32Z</time>
      </trkpt>
      <trkpt lat="49.1639" lon="4.02805">
        <ele>207.3</ele>
        <time>2021-08-09T12:34:37Z</time>
      </trkpt>
      <trkpt lat="49.16385" lon="4.02825">
        <ele>209.22</ele>
        <time>2021-08-09T12:34:48Z</time>
      </trkpt>
      <trkpt lat="49.16383" lon="4.02838">
        <ele>210.67</ele>
        <time>2021-08-09T12:34:55Z</time>
      </trkpt>
      <trkpt lat="49.16383" lon="4.02839">
        <ele>210.67</ele>
        <time>2021-08-09T12:34:56Z</time>
      </trkpt>
      <trkpt lat="49.16379" lon="4.02861">
        <ele>212.11</ele>
        <time>2021-08-09T12:35:08Z</time>
      </trkpt>
      <trkpt lat="49.16375" lon="4.02878">
        <ele>213.55</ele>
        <time>2021-08-09T12:35:17Z</time>
      </trkpt>
      <trkpt lat="49.16375" lon="4.02881">
        <ele>214.03</ele>
        <time>2021-08-09T12:35:19Z</time>
      </trkpt>
      <trkpt lat="49.16373" lon="4.02896">
        <ele>214.99</ele>
        <time>2021-08-09T12:35:27Z</time>
      </trkpt>
      <trkpt lat="49.1637" lon="4.02907">
        <ele>215.95</ele>
        <time>2021-08-09T12:35:35Z</time>
      </trkpt>
      <trkpt lat="49.16364" lon="4.02922">
        <ele>216.91</ele>
        <time>2021-08-09T12:35:43Z</time>
      </trkpt>
      <trkpt lat="49.1636" lon="4.02927">
        <ele>217.88</ele>
        <time>2021-08-09T12:35:48Z</time>
      </trkpt>
      <trkpt lat="49.16357" lon="4.02932">
        <ele>218.36</ele>
        <time>2021-08-09T12:35:51Z</time>
      </trkpt>
      <trkpt lat="49.16356" lon="4.02934">
        <ele>218.36</ele>
        <time>2021-08-09T12:35:52Z</time>
      </trkpt>
      <trkpt lat="49.16355" lon="4.02936">
        <ele>218.36</ele>
        <time>2021-08-09T12:35:53Z</time>
      </trkpt>
      <trkpt lat="49.16354" lon="4.02937">
        <ele>218.36</ele>
        <time>2021-08-09T12:35:54Z</time>
      </trkpt>
      <trkpt lat="49.16353" lon="4.02939">
        <ele>218.36</ele>
        <time>2021-08-09T12:35:55Z</time>
      </trkpt>
      <trkpt lat="49.16349" lon="4.02951">
        <ele>220.28</ele>
        <time>2021-08-09T12:36:03Z</time>
      </trkpt>
      <trkpt lat="49.16344" lon="4.02957">
        <ele>220.76</ele>
        <time>2021-08-09T12:36:10Z</time>
      </trkpt>
      <trkpt lat="49.16339" lon="4.02964">
        <ele>221.72</ele>
        <time>2021-08-09T12:36:17Z</time>
      </trkpt>
      <trkpt lat="49.16328" lon="4.02972">
        <ele>223.16</ele>
        <time>2021-08-09T12:36:26Z</time>
      </trkpt>
      <trkpt lat="49.16324" lon="4.02974">
        <ele>223.64</ele>
        <time>2021-08-09T12:36:29Z</time>
      </trkpt>
      <trkpt lat="49.16316" lon="4.02979">
        <ele>225.57</ele>
        <time>2021-08-09T12:36:37Z</time>
      </trkpt>
      <trkpt lat="49.16312" lon="4.0298">
        <ele>226.53</ele>
        <time>2021-08-09T12:36:43Z</time>
      </trkpt>
      <trkpt lat="49.16303" lon="4.02982">
        <ele>227.97</ele>
        <time>2021-08-09T12:36:52Z</time>
      </trkpt>
      <trkpt lat="49.16293" lon="4.02982">
        <ele>230.37</ele>
        <time>2021-08-09T12:37:01Z</time>
      </trkpt>
      <trkpt lat="49.16285" lon="4.02983">
        <ele>232.3</ele>
        <time>2021-08-09T12:37:09Z</time>
      </trkpt>
      <trkpt lat="49.16279" lon="4.02986">
        <ele>233.26</ele>
        <time>2021-08-09T12:37:16Z</time>
      </trkpt>
      <trkpt lat="49.16271" lon="4.02988">
        <ele>234.22</ele>
        <time>2021-08-09T12:37:23Z</time>
      </trkpt>
      <trkpt lat="49.16262" lon="4.02985">
        <ele>235.66</ele>
        <time>2021-08-09T12:37:31Z</time>
      </trkpt>
      <trkpt lat="49.16253" lon="4.02983">
        <ele>237.1</ele>
        <time>2021-08-09T12:37:38Z</time>
      </trkpt>
      <trkpt lat="49.16243" lon="4.02984">
        <ele>238.06</ele>
        <time>2021-08-09T12:37:44Z</time>
      </trkpt>
      <trkpt lat="49.16242" lon="4.02983">
        <ele>238.06</ele>
        <time>2021-08-09T12:37:45Z</time>
      </trkpt>
      <trkpt lat="49.16228" lon="4.02981">
        <ele>239.99</ele>
        <time>2021-08-09T12:37:54Z</time>
      </trkpt>
      <trkpt lat="49.16224" lon="4.02979">
        <ele>240.47</ele>
        <time>2021-08-09T12:37:58Z</time>
      </trkpt>
      <trkpt lat="49.16219" lon="4.02978">
        <ele>241.43</ele>
        <time>2021-08-09T12:38:03Z</time>
      </trkpt>
      <trkpt lat="49.16217" lon="4.02977">
        <ele>241.43</ele>
        <time>2021-08-09T12:38:04Z</time>
      </trkpt>
      <trkpt lat="49.16216" lon="4.02977">
        <ele>241.43</ele>
        <time>2021-08-09T12:38:05Z</time>
      </trkpt>
      <trkpt lat="49.16205" lon="4.02978">
        <ele>243.35</ele>
        <time>2021-08-09T12:38:14Z</time>
      </trkpt>
      <trkpt lat="49.162" lon="4.02977">
        <ele>244.31</ele>
        <time>2021-08-09T12:38:18Z</time>
      </trkpt>
      <trkpt lat="49.1619" lon="4.02975">
        <ele>245.75</ele>
        <time>2021-08-09T12:38:26Z</time>
      </trkpt>
      <trkpt lat="49.16189" lon="4.02975">
        <ele>246.23</ele>
        <time>2021-08-09T12:38:27Z</time>
      </trkpt>
      <trkpt lat="49.16188" lon="4.02975">
        <ele>246.23</ele>
        <time>2021-08-09T12:38:28Z</time>
      </trkpt>
      <trkpt lat="49.16186" lon="4.02976">
        <ele>246.23</ele>
        <time>2021-08-09T12:38:29Z</time>
      </trkpt>
      <trkpt lat="49.1618" lon="4.0298">
        <ele>247.68</ele>
        <time>2021-08-09T12:38:37Z</time>
      </trkpt>
      <trkpt lat="49.16174" lon="4.02985">
        <ele>249.6</ele>
        <time>2021-08-09T12:38:44Z</time>
      </trkpt>
      <trkpt lat="49.16167" lon="4.02994">
        <ele>251.04</ele>
        <time>2021-08-09T12:38:52Z</time>
      </trkpt>
      <trkpt lat="49.16168" lon="4.02998">
        <ele>252</ele>
        <time>2021-08-09T12:38:55Z</time>
      </trkpt>
      <trkpt lat="49.16168" lon="4.03003">
        <ele>252.96</ele>
        <time>2021-08-09T12:39:02Z</time>
      </trkpt>
      <trkpt lat="49.16167" lon="4.03015">
        <ele>253.44</ele>
        <time>2021-08-09T12:39:10Z</time>
      </trkpt>
      <trkpt lat="49.16168" lon="4.03024">
        <ele>253.93</ele>
        <time>2021-08-09T12:39:17Z</time>
      </trkpt>
      <trkpt lat="49.16173" lon="4.03037">
        <ele>255.37</ele>
        <time>2021-08-09T12:39:26Z</time>
      </trkpt>
      <trkpt lat="49.16177" lon="4.03048">
        <ele>255.85</ele>
        <time>2021-08-09T12:39:33Z</time>
      </trkpt>
      <trkpt lat="49.16182" lon="4.03055">
        <ele>257.29</ele>
        <time>2021-08-09T12:39:39Z</time>
      </trkpt>
      <trkpt lat="49.16182" lon="4.03057">
        <ele>257.29</ele>
        <time>2021-08-09T12:39:40Z</time>
      </trkpt>
      <trkpt lat="49.16183" lon="4.0306">
        <ele>257.77</ele>
        <time>2021-08-09T12:39:41Z</time>
      </trkpt>
      <trkpt lat="49.16184" lon="4.03062">
        <ele>257.77</ele>
        <time>2021-08-09T12:39:42Z</time>
      </trkpt>
      <trkpt lat="49.16184" lon="4.03064">
        <ele>257.77</ele>
        <time>2021-08-09T12:39:43Z</time>
      </trkpt>
      <trkpt lat="49.16185" lon="4.03067">
        <ele>258.25</ele>
        <time>2021-08-09T12:39:44Z</time>
      </trkpt>
      <trkpt lat="49.16186" lon="4.03069">
        <ele>258.25</ele>
        <time>2021-08-09T12:39:45Z</time>
      </trkpt>
      <trkpt lat="49.16186" lon="4.03072">
        <ele>258.25</ele>
        <time>2021-08-09T12:39:46Z</time>
      </trkpt>
      <trkpt lat="49.16186" lon="4.03089">
        <ele>259.21</ele>
        <time>2021-08-09T12:39:54Z</time>
      </trkpt>
      <trkpt lat="49.16186" lon="4.03101">
        <ele>261.14</ele>
        <time>2021-08-09T12:40:00Z</time>
      </trkpt>
      <trkpt lat="49.16183" lon="4.03114">
        <ele>262.1</ele>
        <time>2021-08-09T12:40:07Z</time>
      </trkpt>
      <trkpt lat="49.1618" lon="4.03129">
        <ele>263.06</ele>
        <time>2021-08-09T12:40:14Z</time>
      </trkpt>
      <trkpt lat="49.16172" lon="4.03141">
        <ele>264.5</ele>
        <time>2021-08-09T12:40:22Z</time>
      </trkpt>
      <trkpt lat="49.16165" lon="4.03151">
        <ele>264.98</ele>
        <time>2021-08-09T12:40:30Z</time>
      </trkpt>
      <trkpt lat="49.16153" lon="4.03161">
        <ele>265.94</ele>
        <time>2021-08-09T12:40:38Z</time>
      </trkpt>
      <trkpt lat="49.16148" lon="4.03165">
        <ele>266.42</ele>
        <time>2021-08-09T12:40:42Z</time>
      </trkpt>
      <trkpt lat="49.16146" lon="4.03167">
        <ele>266.9</ele>
        <time>2021-08-09T12:40:43Z</time>
      </trkpt>
      <trkpt lat="49.16139" lon="4.03172">
        <ele>267.38</ele>
        <time>2021-08-09T12:40:49Z</time>
      </trkpt>
      <trkpt lat="49.16141" lon="4.03175">
        <ele>267.38</ele>
        <time>2021-08-09T12:40:54Z</time>
      </trkpt>
      <trkpt lat="49.1614" lon="4.03176">
        <ele>267.38</ele>
        <time>2021-08-09T12:40:55Z</time>
      </trkpt>
      <trkpt lat="49.16141" lon="4.03183">
        <ele>267.38</ele>
        <time>2021-08-09T12:41:00Z</time>
      </trkpt>
      <trkpt lat="49.16142" lon="4.03186">
        <ele>267.38</ele>
        <time>2021-08-09T12:41:02Z</time>
      </trkpt>
      <trkpt lat="49.16142" lon="4.03192">
        <ele>267.38</ele>
        <time>2021-08-09T12:41:05Z</time>
      </trkpt>
      <trkpt lat="49.16142" lon="4.03198">
        <ele>267.38</ele>
        <time>2021-08-09T12:41:08Z</time>
      </trkpt>
      <trkpt lat="49.16136" lon="4.03213">
        <ele>265.94</ele>
        <time>2021-08-09T12:41:14Z</time>
      </trkpt>
      <trkpt lat="49.16134" lon="4.03218">
        <ele>265.94</ele>
        <time>2021-08-09T12:41:16Z</time>
      </trkpt>
      <trkpt lat="49.16131" lon="4.03226">
        <ele>265.94</ele>
        <time>2021-08-09T12:41:20Z</time>
      </trkpt>
      <trkpt lat="49.1613" lon="4.03228">
        <ele>265.94</ele>
        <time>2021-08-09T12:41:21Z</time>
      </trkpt>
      <trkpt lat="49.16129" lon="4.03231">
        <ele>265.94</ele>
        <time>2021-08-09T12:41:22Z</time>
      </trkpt>
      <trkpt lat="49.16127" lon="4.03235">
        <ele>267.38</ele>
        <time>2021-08-09T12:41:24Z</time>
      </trkpt>
      <trkpt lat="49.16124" lon="4.03239">
        <ele>267.38</ele>
        <time>2021-08-09T12:41:26Z</time>
      </trkpt>
      <trkpt lat="49.16122" lon="4.03247">
        <ele>267.38</ele>
        <time>2021-08-09T12:41:29Z</time>
      </trkpt>
      <trkpt lat="49.16122" lon="4.03249">
        <ele>267.38</ele>
        <time>2021-08-09T12:41:30Z</time>
      </trkpt>
      <trkpt lat="49.16122" lon="4.03252">
        <ele>267.38</ele>
        <time>2021-08-09T12:41:31Z</time>
      </trkpt>
      <trkpt lat="49.16122" lon="4.03254">
        <ele>267.38</ele>
        <time>2021-08-09T12:41:32Z</time>
      </trkpt>
      <trkpt lat="49.16121" lon="4.03257">
        <ele>267.38</ele>
        <time>2021-08-09T12:41:33Z</time>
      </trkpt>
      <trkpt lat="49.16119" lon="4.0327">
        <ele>265.94</ele>
        <time>2021-08-09T12:41:37Z</time>
      </trkpt>
      <trkpt lat="49.16119" lon="4.03277">
        <ele>264.5</ele>
        <time>2021-08-09T12:41:41Z</time>
      </trkpt>
      <trkpt lat="49.1612" lon="4.03279">
        <ele>263.54</ele>
        <time>2021-08-09T12:41:42Z</time>
      </trkpt>
      <trkpt lat="49.16121" lon="4.03281">
        <ele>262.1</ele>
        <time>2021-08-09T12:41:43Z</time>
      </trkpt>
      <trkpt lat="49.16123" lon="4.03285">
        <ele>261.14</ele>
        <time>2021-08-09T12:41:44Z</time>
      </trkpt>
      <trkpt lat="49.16123" lon="4.03289">
        <ele>260.17</ele>
        <time>2021-08-09T12:41:45Z</time>
      </trkpt>
      <trkpt lat="49.16124" lon="4.03292">
        <ele>259.69</ele>
        <time>2021-08-09T12:41:46Z</time>
      </trkpt>
      <trkpt lat="49.16124" lon="4.03295">
        <ele>259.21</ele>
        <time>2021-08-09T12:41:47Z</time>
      </trkpt>
      <trkpt lat="49.16124" lon="4.03299">
        <ele>257.77</ele>
        <time>2021-08-09T12:41:48Z</time>
      </trkpt>
      <trkpt lat="49.16125" lon="4.03303">
        <ele>257.77</ele>
        <time>2021-08-09T12:41:49Z</time>
      </trkpt>
      <trkpt lat="49.16124" lon="4.03326">
        <ele>255.85</ele>
        <time>2021-08-09T12:41:54Z</time>
      </trkpt>
      <trkpt lat="49.16122" lon="4.03355">
        <ele>253.93</ele>
        <time>2021-08-09T12:42:00Z</time>
      </trkpt>
      <trkpt lat="49.16122" lon="4.03367">
        <ele>251.52</ele>
        <time>2021-08-09T12:42:04Z</time>
      </trkpt>
      <trkpt lat="49.16122" lon="4.03369">
        <ele>251.04</ele>
        <time>2021-08-09T12:42:05Z</time>
      </trkpt>
      <trkpt lat="49.16122" lon="4.03372">
        <ele>250.56</ele>
        <time>2021-08-09T12:42:06Z</time>
      </trkpt>
      <trkpt lat="49.16122" lon="4.03375">
        <ele>249.6</ele>
        <time>2021-08-09T12:42:07Z</time>
      </trkpt>
      <trkpt lat="49.1612" lon="4.03378">
        <ele>249.6</ele>
        <time>2021-08-09T12:42:08Z</time>
      </trkpt>
      <trkpt lat="49.16119" lon="4.03381">
        <ele>249.12</ele>
        <time>2021-08-09T12:42:09Z</time>
      </trkpt>
      <trkpt lat="49.16121" lon="4.03391">
        <ele>249.12</ele>
        <time>2021-08-09T12:42:10Z</time>
      </trkpt>
      <trkpt lat="49.16121" lon="4.03396">
        <ele>248.64</ele>
        <time>2021-08-09T12:42:11Z</time>
      </trkpt>
      <trkpt lat="49.1612" lon="4.03399">
        <ele>249.12</ele>
        <time>2021-08-09T12:42:12Z</time>
      </trkpt>
      <trkpt lat="49.16119" lon="4.03402">
        <ele>248.64</ele>
        <time>2021-08-09T12:42:13Z</time>
      </trkpt>
      <trkpt lat="49.16116" lon="4.03405">
        <ele>247.68</ele>
        <time>2021-08-09T12:42:14Z</time>
      </trkpt>
      <trkpt lat="49.16115" lon="4.03406">
        <ele>247.68</ele>
        <time>2021-08-09T12:42:15Z</time>
      </trkpt>
      <trkpt lat="49.16098" lon="4.03417">
        <ele>248.16</ele>
        <time>2021-08-09T12:42:22Z</time>
      </trkpt>
      <trkpt lat="49.16092" lon="4.03421">
        <ele>249.6</ele>
        <time>2021-08-09T12:42:25Z</time>
      </trkpt>
      <trkpt lat="49.16088" lon="4.03425">
        <ele>249.6</ele>
        <time>2021-08-09T12:42:28Z</time>
      </trkpt>
      <trkpt lat="49.16086" lon="4.03427">
        <ele>249.6</ele>
        <time>2021-08-09T12:42:29Z</time>
      </trkpt>
      <trkpt lat="49.16084" lon="4.0343">
        <ele>249.6</ele>
        <time>2021-08-09T12:42:30Z</time>
      </trkpt>
      <trkpt lat="49.16082" lon="4.03433">
        <ele>249.6</ele>
        <time>2021-08-09T12:42:31Z</time>
      </trkpt>
      <trkpt lat="49.16081" lon="4.03435">
        <ele>249.6</ele>
        <time>2021-08-09T12:42:32Z</time>
      </trkpt>
      <trkpt lat="49.16076" lon="4.03443">
        <ele>249.6</ele>
        <time>2021-08-09T12:42:38Z</time>
      </trkpt>
      <trkpt lat="49.16074" lon="4.03447">
        <ele>249.6</ele>
        <time>2021-08-09T12:42:53Z</time>
      </trkpt>
      <trkpt lat="49.16073" lon="4.03448">
        <ele>248.64</ele>
        <time>2021-08-09T12:43:08Z</time>
      </trkpt>
      <trkpt lat="49.16068" lon="4.03459">
        <ele>247.68</ele>
        <time>2021-08-09T12:43:13Z</time>
      </trkpt>
      <trkpt lat="49.1606" lon="4.03475">
        <ele>245.75</ele>
        <time>2021-08-09T12:43:17Z</time>
      </trkpt>
      <trkpt lat="49.16058" lon="4.03482">
        <ele>244.31</ele>
        <time>2021-08-09T12:43:18Z</time>
      </trkpt>
      <trkpt lat="49.16057" lon="4.03488">
        <ele>244.31</ele>
        <time>2021-08-09T12:43:19Z</time>
      </trkpt>
      <trkpt lat="49.16049" lon="4.0352">
        <ele>241.43</ele>
        <time>2021-08-09T12:43:26Z</time>
      </trkpt>
      <trkpt lat="49.16052" lon="4.03529">
        <ele>240.95</ele>
        <time>2021-08-09T12:43:31Z</time>
      </trkpt>
      <trkpt lat="49.16049" lon="4.03528">
        <ele>240.95</ele>
        <time>2021-08-09T12:43:49Z</time>
      </trkpt>
      <trkpt lat="49.16049" lon="4.03524">
        <ele>240.95</ele>
        <time>2021-08-09T12:44:06Z</time>
      </trkpt>
      <trkpt lat="49.16049" lon="4.03523">
        <ele>240.95</ele>
        <time>2021-08-09T12:44:24Z</time>
      </trkpt>
      <trkpt lat="49.1605" lon="4.03525">
        <ele>240.95</ele>
        <time>2021-08-09T12:44:39Z</time>
      </trkpt>
      <trkpt lat="49.16048" lon="4.03523">
        <ele>240.95</ele>
        <time>2021-08-09T12:44:57Z</time>
      </trkpt>
      <trkpt lat="49.16049" lon="4.03524">
        <ele>240.95</ele>
        <time>2021-08-09T12:45:08Z</time>
      </trkpt>
      <trkpt lat="49.1605" lon="4.03526">
        <ele>240.95</ele>
        <time>2021-08-09T12:45:09Z</time>
      </trkpt>
      <trkpt lat="49.16052" lon="4.03529">
        <ele>240.95</ele>
        <time>2021-08-09T12:45:10Z</time>
      </trkpt>
      <trkpt lat="49.16053" lon="4.0353">
        <ele>240.47</ele>
        <time>2021-08-09T12:45:11Z</time>
      </trkpt>
      <trkpt lat="49.16054" lon="4.03533">
        <ele>239.99</ele>
        <time>2021-08-09T12:45:12Z</time>
      </trkpt>
      <trkpt lat="49.16063" lon="4.03559">
        <ele>239.51</ele>
        <time>2021-08-09T12:45:17Z</time>
      </trkpt>
      <trkpt lat="49.16062" lon="4.03588">
        <ele>238.06</ele>
        <time>2021-08-09T12:45:22Z</time>
      </trkpt>
      <trkpt lat="49.16059" lon="4.03601">
        <ele>237.1</ele>
        <time>2021-08-09T12:45:24Z</time>
      </trkpt>
      <trkpt lat="49.16055" lon="4.03614">
        <ele>236.62</ele>
        <time>2021-08-09T12:45:26Z</time>
      </trkpt>
      <trkpt lat="49.16052" lon="4.03627">
        <ele>235.18</ele>
        <time>2021-08-09T12:45:28Z</time>
      </trkpt>
      <trkpt lat="49.16045" lon="4.03678">
        <ele>232.78</ele>
        <time>2021-08-09T12:45:34Z</time>
      </trkpt>
      <trkpt lat="49.16043" lon="4.03687">
        <ele>232.78</ele>
        <time>2021-08-09T12:45:35Z</time>
      </trkpt>
      <trkpt lat="49.1604" lon="4.03695">
        <ele>232.3</ele>
        <time>2021-08-09T12:45:36Z</time>
      </trkpt>
      <trkpt lat="49.16032" lon="4.03718">
        <ele>231.81</ele>
        <time>2021-08-09T12:45:39Z</time>
      </trkpt>
      <trkpt lat="49.16028" lon="4.03723">
        <ele>232.3</ele>
        <time>2021-08-09T12:45:40Z</time>
      </trkpt>
      <trkpt lat="49.16011" lon="4.03752">
        <ele>232.3</ele>
        <time>2021-08-09T12:45:47Z</time>
      </trkpt>
      <trkpt lat="49.15998" lon="4.03775">
        <ele>231.81</ele>
        <time>2021-08-09T12:45:55Z</time>
      </trkpt>
      <trkpt lat="49.15992" lon="4.03798">
        <ele>230.37</ele>
        <time>2021-08-09T12:46:01Z</time>
      </trkpt>
      <trkpt lat="49.1599" lon="4.03816">
        <ele>229.41</ele>
        <time>2021-08-09T12:46:04Z</time>
      </trkpt>
      <trkpt lat="49.15992" lon="4.03839">
        <ele>228.45</ele>
        <time>2021-08-09T12:46:07Z</time>
      </trkpt>
      <trkpt lat="49.15994" lon="4.03848">
        <ele>227.97</ele>
        <time>2021-08-09T12:46:08Z</time>
      </trkpt>
      <trkpt lat="49.15997" lon="4.03854">
        <ele>227.97</ele>
        <time>2021-08-09T12:46:09Z</time>
      </trkpt>
      <trkpt lat="49.15999" lon="4.0386">
        <ele>227.97</ele>
        <time>2021-08-09T12:46:10Z</time>
      </trkpt>
      <trkpt lat="49.16001" lon="4.03866">
        <ele>227.49</ele>
        <time>2021-08-09T12:46:11Z</time>
      </trkpt>
      <trkpt lat="49.16003" lon="4.03872">
        <ele>226.53</ele>
        <time>2021-08-09T12:46:12Z</time>
      </trkpt>
      <trkpt lat="49.16004" lon="4.03878">
        <ele>226.53</ele>
        <time>2021-08-09T12:46:13Z</time>
      </trkpt>
      <trkpt lat="49.16003" lon="4.03885">
        <ele>226.53</ele>
        <time>2021-08-09T12:46:14Z</time>
      </trkpt>
      <trkpt lat="49.16002" lon="4.03891">
        <ele>226.53</ele>
        <time>2021-08-09T12:46:15Z</time>
      </trkpt>
      <trkpt lat="49.16002" lon="4.03895">
        <ele>227.01</ele>
        <time>2021-08-09T12:46:16Z</time>
      </trkpt>
      <trkpt lat="49.16" lon="4.03923">
        <ele>227.97</ele>
        <time>2021-08-09T12:46:22Z</time>
      </trkpt>
      <trkpt lat="49.15995" lon="4.03954">
        <ele>228.93</ele>
        <time>2021-08-09T12:46:29Z</time>
      </trkpt>
      <trkpt lat="49.15986" lon="4.03984">
        <ele>229.41</ele>
        <time>2021-08-09T12:46:36Z</time>
      </trkpt>
      <trkpt lat="49.15979" lon="4.04015">
        <ele>229.41</ele>
        <time>2021-08-09T12:46:43Z</time>
      </trkpt>
      <trkpt lat="49.15974" lon="4.04051">
        <ele>229.41</ele>
        <time>2021-08-09T12:46:50Z</time>
      </trkpt>
      <trkpt lat="49.15973" lon="4.04063">
        <ele>227.97</ele>
        <time>2021-08-09T12:46:52Z</time>
      </trkpt>
      <trkpt lat="49.15975" lon="4.04085">
        <ele>227.01</ele>
        <time>2021-08-09T12:46:57Z</time>
      </trkpt>
      <trkpt lat="49.15974" lon="4.04091">
        <ele>226.53</ele>
        <time>2021-08-09T12:46:59Z</time>
      </trkpt>
      <trkpt lat="49.15974" lon="4.04095">
        <ele>227.97</ele>
        <time>2021-08-09T12:47:00Z</time>
      </trkpt>
      <trkpt lat="49.15969" lon="4.04115">
        <ele>228.93</ele>
        <time>2021-08-09T12:47:06Z</time>
      </trkpt>
      <trkpt lat="49.15969" lon="4.04128">
        <ele>227.49</ele>
        <time>2021-08-09T12:47:10Z</time>
      </trkpt>
      <trkpt lat="49.15968" lon="4.04133">
        <ele>227.01</ele>
        <time>2021-08-09T12:47:11Z</time>
      </trkpt>
      <trkpt lat="49.15967" lon="4.04138">
        <ele>227.01</ele>
        <time>2021-08-09T12:47:12Z</time>
      </trkpt>
      <trkpt lat="49.15965" lon="4.04143">
        <ele>227.01</ele>
        <time>2021-08-09T12:47:13Z</time>
      </trkpt>
      <trkpt lat="49.15964" lon="4.04147">
        <ele>227.01</ele>
        <time>2021-08-09T12:47:14Z</time>
      </trkpt>
      <trkpt lat="49.15963" lon="4.04151">
        <ele>227.01</ele>
        <time>2021-08-09T12:47:15Z</time>
      </trkpt>
      <trkpt lat="49.15963" lon="4.04155">
        <ele>227.01</ele>
        <time>2021-08-09T12:47:16Z</time>
      </trkpt>
      <trkpt lat="49.15953" lon="4.04174">
        <ele>227.01</ele>
        <time>2021-08-09T12:47:21Z</time>
      </trkpt>
      <trkpt lat="49.15947" lon="4.04187">
        <ele>227.01</ele>
        <time>2021-08-09T12:47:25Z</time>
      </trkpt>
      <trkpt lat="49.15943" lon="4.042">
        <ele>228.45</ele>
        <time>2021-08-09T12:47:30Z</time>
      </trkpt>
      <trkpt lat="49.1594" lon="4.04212">
        <ele>228.93</ele>
        <time>2021-08-09T12:47:37Z</time>
      </trkpt>
      <trkpt lat="49.15937" lon="4.04219">
        <ele>229.41</ele>
        <time>2021-08-09T12:47:41Z</time>
      </trkpt>
      <trkpt lat="49.15936" lon="4.04221">
        <ele>229.41</ele>
        <time>2021-08-09T12:47:42Z</time>
      </trkpt>
      <trkpt lat="49.15936" lon="4.04223">
        <ele>229.41</ele>
        <time>2021-08-09T12:47:43Z</time>
      </trkpt>
      <trkpt lat="49.15933" lon="4.04234">
        <ele>229.89</ele>
        <time>2021-08-09T12:47:47Z</time>
      </trkpt>
      <trkpt lat="49.1593" lon="4.0424">
        <ele>229.89</ele>
        <time>2021-08-09T12:47:49Z</time>
      </trkpt>
      <trkpt lat="49.15923" lon="4.04251">
        <ele>231.33</ele>
        <time>2021-08-09T12:47:55Z</time>
      </trkpt>
      <trkpt lat="49.1592" lon="4.04264">
        <ele>232.3</ele>
        <time>2021-08-09T12:48:01Z</time>
      </trkpt>
      <trkpt lat="49.1592" lon="4.04274">
        <ele>232.78</ele>
        <time>2021-08-09T12:48:04Z</time>
      </trkpt>
      <trkpt lat="49.15921" lon="4.04276">
        <ele>232.78</ele>
        <time>2021-08-09T12:48:05Z</time>
      </trkpt>
      <trkpt lat="49.15922" lon="4.04278">
        <ele>232.78</ele>
        <time>2021-08-09T12:48:06Z</time>
      </trkpt>
      <trkpt lat="49.15923" lon="4.0428">
        <ele>232.78</ele>
        <time>2021-08-09T12:48:07Z</time>
      </trkpt>
      <trkpt lat="49.15924" lon="4.04282">
        <ele>232.78</ele>
        <time>2021-08-09T12:48:08Z</time>
      </trkpt>
      <trkpt lat="49.15925" lon="4.04284">
        <ele>232.78</ele>
        <time>2021-08-09T12:48:09Z</time>
      </trkpt>
      <trkpt lat="49.15926" lon="4.04287">
        <ele>232.78</ele>
        <time>2021-08-09T12:48:10Z</time>
      </trkpt>
      <trkpt lat="49.15927" lon="4.04289">
        <ele>232.78</ele>
        <time>2021-08-09T12:48:11Z</time>
      </trkpt>
      <trkpt lat="49.15928" lon="4.04292">
        <ele>231.33</ele>
        <time>2021-08-09T12:48:12Z</time>
      </trkpt>
      <trkpt lat="49.1593" lon="4.04296">
        <ele>230.37</ele>
        <time>2021-08-09T12:48:13Z</time>
      </trkpt>
      <trkpt lat="49.15942" lon="4.04318">
        <ele>228.45</ele>
        <time>2021-08-09T12:48:19Z</time>
      </trkpt>
      <trkpt lat="49.15944" lon="4.04323">
        <ele>228.45</ele>
        <time>2021-08-09T12:48:21Z</time>
      </trkpt>
      <trkpt lat="49.15945" lon="4.04325">
        <ele>227.49</ele>
        <time>2021-08-09T12:48:22Z</time>
      </trkpt>
      <trkpt lat="49.15949" lon="4.04336">
        <ele>227.01</ele>
        <time>2021-08-09T12:48:29Z</time>
      </trkpt>
      <trkpt lat="49.15958" lon="4.04356">
        <ele>226.53</ele>
        <time>2021-08-09T12:48:35Z</time>
      </trkpt>
      <trkpt lat="49.15964" lon="4.04364">
        <ele>226.53</ele>
        <time>2021-08-09T12:48:41Z</time>
      </trkpt>
      <trkpt lat="49.15968" lon="4.04367">
        <ele>227.01</ele>
        <time>2021-08-09T12:48:56Z</time>
      </trkpt>
      <trkpt lat="49.15969" lon="4.0437">
        <ele>227.97</ele>
        <time>2021-08-09T12:48:59Z</time>
      </trkpt>
      <trkpt lat="49.1597" lon="4.04374">
        <ele>228.45</ele>
        <time>2021-08-09T12:49:11Z</time>
      </trkpt>
      <trkpt lat="49.15971" lon="4.04376">
        <ele>228.45</ele>
        <time>2021-08-09T12:49:14Z</time>
      </trkpt>
      <trkpt lat="49.15973" lon="4.04377">
        <ele>228.45</ele>
        <time>2021-08-09T12:49:15Z</time>
      </trkpt>
      <trkpt lat="49.15974" lon="4.04377">
        <ele>228.45</ele>
        <time>2021-08-09T12:49:16Z</time>
      </trkpt>
      <trkpt lat="49.15976" lon="4.04377">
        <ele>227.01</ele>
        <time>2021-08-09T12:49:17Z</time>
      </trkpt>
      <trkpt lat="49.15978" lon="4.04378">
        <ele>227.01</ele>
        <time>2021-08-09T12:49:18Z</time>
      </trkpt>
      <trkpt lat="49.15991" lon="4.04379">
        <ele>226.53</ele>
        <time>2021-08-09T12:49:24Z</time>
      </trkpt>
      <trkpt lat="49.15993" lon="4.04378">
        <ele>226.53</ele>
        <time>2021-08-09T12:49:25Z</time>
      </trkpt>
      <trkpt lat="49.15994" lon="4.04376">
        <ele>226.53</ele>
        <time>2021-08-09T12:49:26Z</time>
      </trkpt>
      <trkpt lat="49.15996" lon="4.04375">
        <ele>226.53</ele>
        <time>2021-08-09T12:49:27Z</time>
      </trkpt>
      <trkpt lat="49.15997" lon="4.04374">
        <ele>226.53</ele>
        <time>2021-08-09T12:49:28Z</time>
      </trkpt>
      <trkpt lat="49.15999" lon="4.04374">
        <ele>226.05</ele>
        <time>2021-08-09T12:49:29Z</time>
      </trkpt>
      <trkpt lat="49.16" lon="4.04375">
        <ele>226.05</ele>
        <time>2021-08-09T12:49:30Z</time>
      </trkpt>
      <trkpt lat="49.16014" lon="4.04381">
        <ele>225.09</ele>
        <time>2021-08-09T12:49:36Z</time>
      </trkpt>
      <trkpt lat="49.16023" lon="4.04383">
        <ele>224.61</ele>
        <time>2021-08-09T12:49:38Z</time>
      </trkpt>
      <trkpt lat="49.16055" lon="4.04389">
        <ele>223.64</ele>
        <time>2021-08-09T12:49:44Z</time>
      </trkpt>
      <trkpt lat="49.16061" lon="4.04393">
        <ele>223.16</ele>
        <time>2021-08-09T12:49:45Z</time>
      </trkpt>
      <trkpt lat="49.16093" lon="4.04417">
        <ele>219.8</ele>
        <time>2021-08-09T12:49:51Z</time>
      </trkpt>
      <trkpt lat="49.16116" lon="4.0443">
        <ele>215.95</ele>
        <time>2021-08-09T12:49:54Z</time>
      </trkpt>
      <trkpt lat="49.16142" lon="4.04442">
        <ele>212.11</ele>
        <time>2021-08-09T12:49:57Z</time>
      </trkpt>
      <trkpt lat="49.16169" lon="4.04446">
        <ele>208.26</ele>
        <time>2021-08-09T12:50:00Z</time>
      </trkpt>
      <trkpt lat="49.16192" lon="4.0445">
        <ele>204.42</ele>
        <time>2021-08-09T12:50:03Z</time>
      </trkpt>
      <trkpt lat="49.16221" lon="4.04462">
        <ele>200.57</ele>
        <time>2021-08-09T12:50:07Z</time>
      </trkpt>
      <trkpt lat="49.16243" lon="4.04474">
        <ele>197.69</ele>
        <time>2021-08-09T12:50:10Z</time>
      </trkpt>
      <trkpt lat="49.16248" lon="4.04479">
        <ele>197.21</ele>
        <time>2021-08-09T12:50:11Z</time>
      </trkpt>
      <trkpt lat="49.16251" lon="4.04485">
        <ele>196.25</ele>
        <time>2021-08-09T12:50:12Z</time>
      </trkpt>
      <trkpt lat="49.16253" lon="4.04493">
        <ele>195.28</ele>
        <time>2021-08-09T12:50:13Z</time>
      </trkpt>
      <trkpt lat="49.16253" lon="4.04503">
        <ele>194.32</ele>
        <time>2021-08-09T12:50:14Z</time>
      </trkpt>
      <trkpt lat="49.16253" lon="4.04513">
        <ele>193.84</ele>
        <time>2021-08-09T12:50:15Z</time>
      </trkpt>
      <trkpt lat="49.16254" lon="4.04543">
        <ele>190.96</ele>
        <time>2021-08-09T12:50:18Z</time>
      </trkpt>
      <trkpt lat="49.16256" lon="4.0455">
        <ele>190</ele>
        <time>2021-08-09T12:50:19Z</time>
      </trkpt>
      <trkpt lat="49.1626" lon="4.04556">
        <ele>189.04</ele>
        <time>2021-08-09T12:50:20Z</time>
      </trkpt>
      <trkpt lat="49.16266" lon="4.04559">
        <ele>188.56</ele>
        <time>2021-08-09T12:50:21Z</time>
      </trkpt>
      <trkpt lat="49.16274" lon="4.0456">
        <ele>187.59</ele>
        <time>2021-08-09T12:50:22Z</time>
      </trkpt>
      <trkpt lat="49.16279" lon="4.04561">
        <ele>186.15</ele>
        <time>2021-08-09T12:50:23Z</time>
      </trkpt>
      <trkpt lat="49.16303" lon="4.04565">
        <ele>182.31</ele>
        <time>2021-08-09T12:50:26Z</time>
      </trkpt>
      <trkpt lat="49.16333" lon="4.04571">
        <ele>178.94</ele>
        <time>2021-08-09T12:50:30Z</time>
      </trkpt>
      <trkpt lat="49.1635" lon="4.04575">
        <ele>177.5</ele>
        <time>2021-08-09T12:50:34Z</time>
      </trkpt>
      <trkpt lat="49.16353" lon="4.04571">
        <ele>177.5</ele>
        <time>2021-08-09T12:50:36Z</time>
      </trkpt>
      <trkpt lat="49.16354" lon="4.04567">
        <ele>177.98</ele>
        <time>2021-08-09T12:50:37Z</time>
      </trkpt>
      <trkpt lat="49.16357" lon="4.04544">
        <ele>177.02</ele>
        <time>2021-08-09T12:50:43Z</time>
      </trkpt>
      <trkpt lat="49.16356" lon="4.0454">
        <ele>177.5</ele>
        <time>2021-08-09T12:50:44Z</time>
      </trkpt>
      <trkpt lat="49.16356" lon="4.04536">
        <ele>177.5</ele>
        <time>2021-08-09T12:50:45Z</time>
      </trkpt>
      <trkpt lat="49.16356" lon="4.04532">
        <ele>177.5</ele>
        <time>2021-08-09T12:50:46Z</time>
      </trkpt>
      <trkpt lat="49.16357" lon="4.04527">
        <ele>177.5</ele>
        <time>2021-08-09T12:50:47Z</time>
      </trkpt>
      <trkpt lat="49.16357" lon="4.04484">
        <ele>177.5</ele>
        <time>2021-08-09T12:50:54Z</time>
      </trkpt>
      <trkpt lat="49.16357" lon="4.04445">
        <ele>175.1</ele>
        <time>2021-08-09T12:50:59Z</time>
      </trkpt>
      <trkpt lat="49.16357" lon="4.04423">
        <ele>175.1</ele>
        <time>2021-08-09T12:51:02Z</time>
      </trkpt>
      <trkpt lat="49.16357" lon="4.04362">
        <ele>176.54</ele>
        <time>2021-08-09T12:51:11Z</time>
      </trkpt>
      <trkpt lat="49.16357" lon="4.04356">
        <ele>176.54</ele>
        <time>2021-08-09T12:51:12Z</time>
      </trkpt>
      <trkpt lat="49.16355" lon="4.04328">
        <ele>175.58</ele>
        <time>2021-08-09T12:51:17Z</time>
      </trkpt>
      <trkpt lat="49.16361" lon="4.04297">
        <ele>175.58</ele>
        <time>2021-08-09T12:51:23Z</time>
      </trkpt>
      <trkpt lat="49.16373" lon="4.04259">
        <ele>175.1</ele>
        <time>2021-08-09T12:51:30Z</time>
      </trkpt>
      <trkpt lat="49.16392" lon="4.04216">
        <ele>175.1</ele>
        <time>2021-08-09T12:51:37Z</time>
      </trkpt>
      <trkpt lat="49.16397" lon="4.0421">
        <ele>175.1</ele>
        <time>2021-08-09T12:51:38Z</time>
      </trkpt>
      <trkpt lat="49.16401" lon="4.04207">
        <ele>175.1</ele>
        <time>2021-08-09T12:51:39Z</time>
      </trkpt>
      <trkpt lat="49.16406" lon="4.04203">
        <ele>174.62</ele>
        <time>2021-08-09T12:51:40Z</time>
      </trkpt>
      <trkpt lat="49.16411" lon="4.04201">
        <ele>174.62</ele>
        <time>2021-08-09T12:51:41Z</time>
      </trkpt>
      <trkpt lat="49.16417" lon="4.04199">
        <ele>174.62</ele>
        <time>2021-08-09T12:51:42Z</time>
      </trkpt>
      <trkpt lat="49.16422" lon="4.04198">
        <ele>174.14</ele>
        <time>2021-08-09T12:51:43Z</time>
      </trkpt>
      <trkpt lat="49.16428" lon="4.04198">
        <ele>173.66</ele>
        <time>2021-08-09T12:51:44Z</time>
      </trkpt>
      <trkpt lat="49.16434" lon="4.04199">
        <ele>173.66</ele>
        <time>2021-08-09T12:51:45Z</time>
      </trkpt>
      <trkpt lat="49.1644" lon="4.04199">
        <ele>173.66</ele>
        <time>2021-08-09T12:51:46Z</time>
      </trkpt>
      <trkpt lat="49.16491" lon="4.04206">
        <ele>170.77</ele>
        <time>2021-08-09T12:51:54Z</time>
      </trkpt>
      <trkpt lat="49.16515" lon="4.0421">
        <ele>169.33</ele>
        <time>2021-08-09T12:51:59Z</time>
      </trkpt>
      <trkpt lat="49.16553" lon="4.04214">
        <ele>167.41</ele>
        <time>2021-08-09T12:52:06Z</time>
      </trkpt>
      <trkpt lat="49.16562" lon="4.04215">
        <ele>167.41</ele>
        <time>2021-08-09T12:52:08Z</time>
      </trkpt>
      <trkpt lat="49.16567" lon="4.04218">
        <ele>166.93</ele>
        <time>2021-08-09T12:52:09Z</time>
      </trkpt>
      <trkpt lat="49.16569" lon="4.04224">
        <ele>166.45</ele>
        <time>2021-08-09T12:52:10Z</time>
      </trkpt>
      <trkpt lat="49.1657" lon="4.0423">
        <ele>165.96</ele>
        <time>2021-08-09T12:52:11Z</time>
      </trkpt>
      <trkpt lat="49.16569" lon="4.04238">
        <ele>165.48</ele>
        <time>2021-08-09T12:52:12Z</time>
      </trkpt>
      <trkpt lat="49.16567" lon="4.04246">
        <ele>165.48</ele>
        <time>2021-08-09T12:52:13Z</time>
      </trkpt>
      <trkpt lat="49.16565" lon="4.04254">
        <ele>165.48</ele>
        <time>2021-08-09T12:52:14Z</time>
      </trkpt>
      <trkpt lat="49.16553" lon="4.04308">
        <ele>165</ele>
        <time>2021-08-09T12:52:21Z</time>
      </trkpt>
      <trkpt lat="49.16545" lon="4.0434">
        <ele>165</ele>
        <time>2021-08-09T12:52:26Z</time>
      </trkpt>
      <trkpt lat="49.1654" lon="4.04366">
        <ele>164.52</ele>
        <time>2021-08-09T12:52:30Z</time>
      </trkpt>
      <trkpt lat="49.16526" lon="4.0443">
        <ele>163.56</ele>
        <time>2021-08-09T12:52:39Z</time>
      </trkpt>
      <trkpt lat="49.16518" lon="4.04458">
        <ele>163.56</ele>
        <time>2021-08-09T12:52:43Z</time>
      </trkpt>
      <trkpt lat="49.16516" lon="4.04471">
        <ele>163.08</ele>
        <time>2021-08-09T12:52:45Z</time>
      </trkpt>
      <trkpt lat="49.16514" lon="4.04495">
        <ele>164.04</ele>
        <time>2021-08-09T12:52:49Z</time>
      </trkpt>
      <trkpt lat="49.16508" lon="4.04522">
        <ele>165.48</ele>
        <time>2021-08-09T12:52:55Z</time>
      </trkpt>
      <trkpt lat="49.16508" lon="4.04549">
        <ele>166.45</ele>
        <time>2021-08-09T12:53:01Z</time>
      </trkpt>
      <trkpt lat="49.16507" lon="4.04574">
        <ele>166.93</ele>
        <time>2021-08-09T12:53:07Z</time>
      </trkpt>
      <trkpt lat="49.16503" lon="4.04617">
        <ele>167.41</ele>
        <time>2021-08-09T12:53:16Z</time>
      </trkpt>
      <trkpt lat="49.16502" lon="4.0462">
        <ele>167.41</ele>
        <time>2021-08-09T12:53:17Z</time>
      </trkpt>
      <trkpt lat="49.16502" lon="4.04622">
        <ele>166.93</ele>
        <time>2021-08-09T12:53:18Z</time>
      </trkpt>
      <trkpt lat="49.16503" lon="4.04624">
        <ele>166.93</ele>
        <time>2021-08-09T12:53:19Z</time>
      </trkpt>
      <trkpt lat="49.16505" lon="4.04626">
        <ele>166.93</ele>
        <time>2021-08-09T12:53:20Z</time>
      </trkpt>
      <trkpt lat="49.16507" lon="4.04627">
        <ele>166.93</ele>
        <time>2021-08-09T12:53:21Z</time>
      </trkpt>
      <trkpt lat="49.16509" lon="4.04626">
        <ele>165.96</ele>
        <time>2021-08-09T12:53:22Z</time>
      </trkpt>
      <trkpt lat="49.16511" lon="4.04625">
        <ele>165.96</ele>
        <time>2021-08-09T12:53:23Z</time>
      </trkpt>
      <trkpt lat="49.16516" lon="4.04621">
        <ele>165.96</ele>
        <time>2021-08-09T12:53:28Z</time>
      </trkpt>
      <trkpt lat="49.16515" lon="4.04622">
        <ele>165.96</ele>
        <time>2021-08-09T12:53:38Z</time>
      </trkpt>
      <trkpt lat="49.16509" lon="4.04624">
        <ele>165.96</ele>
        <time>2021-08-09T12:53:51Z</time>
      </trkpt>
      <trkpt lat="49.16499" lon="4.04628">
        <ele>165.96</ele>
        <time>2021-08-09T12:54:16Z</time>
      </trkpt>
      <trkpt lat="49.16499" lon="4.0463">
        <ele>165.96</ele>
        <time>2021-08-09T12:54:31Z</time>
      </trkpt>
      <trkpt lat="49.16498" lon="4.0463">
        <ele>165.96</ele>
        <time>2021-08-09T12:54:46Z</time>
      </trkpt>
      <trkpt lat="49.16497" lon="4.0463">
        <ele>165.96</ele>
        <time>2021-08-09T12:55:03Z</time>
      </trkpt>
      <trkpt lat="49.16499" lon="4.04631">
        <ele>165.96</ele>
        <time>2021-08-09T12:55:18Z</time>
      </trkpt>
      <trkpt lat="49.165" lon="4.04633">
        <ele>165.96</ele>
        <time>2021-08-09T12:55:32Z</time>
      </trkpt>
      <trkpt lat="49.165" lon="4.04629">
        <ele>165.96</ele>
        <time>2021-08-09T12:55:46Z</time>
      </trkpt>
      <trkpt lat="49.16498" lon="4.04626">
        <ele>165.96</ele>
        <time>2021-08-09T12:56:03Z</time>
      </trkpt>
      <trkpt lat="49.16495" lon="4.04625">
        <ele>165.96</ele>
        <time>2021-08-09T12:56:18Z</time>
      </trkpt>
      <trkpt lat="49.16493" lon="4.04624">
        <ele>166.45</ele>
        <time>2021-08-09T12:56:34Z</time>
      </trkpt>
      <trkpt lat="49.16493" lon="4.04628">
        <ele>166.45</ele>
        <time>2021-08-09T12:56:52Z</time>
      </trkpt>
      <trkpt lat="49.16495" lon="4.04633">
        <ele>166.93</ele>
        <time>2021-08-09T12:57:07Z</time>
      </trkpt>
      <trkpt lat="49.16495" lon="4.04632">
        <ele>166.93</ele>
        <time>2021-08-09T12:57:21Z</time>
      </trkpt>
      <trkpt lat="49.16495" lon="4.0463">
        <ele>166.93</ele>
        <time>2021-08-09T12:57:40Z</time>
      </trkpt>
      <trkpt lat="49.16496" lon="4.04631">
        <ele>167.41</ele>
        <time>2021-08-09T12:57:53Z</time>
      </trkpt>
      <trkpt lat="49.16497" lon="4.04631">
        <ele>167.41</ele>
        <time>2021-08-09T12:58:03Z</time>
      </trkpt>
      <trkpt lat="49.16498" lon="4.04631">
        <ele>167.41</ele>
        <time>2021-08-09T12:58:17Z</time>
      </trkpt>
      <trkpt lat="49.165" lon="4.04629">
        <ele>167.41</ele>
        <time>2021-08-09T12:58:32Z</time>
      </trkpt>
      <trkpt lat="49.165" lon="4.04629">
        <ele>167.89</ele>
        <time>2021-08-09T12:58:50Z</time>
      </trkpt>
      <trkpt lat="49.165" lon="4.04629">
        <ele>167.89</ele>
        <time>2021-08-09T12:59:10Z</time>
      </trkpt>
      <trkpt lat="49.16501" lon="4.04625">
        <ele>168.37</ele>
        <time>2021-08-09T12:59:31Z</time>
      </trkpt>
      <trkpt lat="49.16501" lon="4.04629">
        <ele>168.37</ele>
        <time>2021-08-09T12:59:56Z</time>
      </trkpt>
      <trkpt lat="49.165" lon="4.04628">
        <ele>168.85</ele>
        <time>2021-08-09T13:00:12Z</time>
      </trkpt>
      <trkpt lat="49.165" lon="4.04628">
        <ele>168.85</ele>
        <time>2021-08-09T13:00:33Z</time>
      </trkpt>
      <trkpt lat="49.16501" lon="4.04625">
        <ele>168.85</ele>
        <time>2021-08-09T13:00:51Z</time>
      </trkpt>
      <trkpt lat="49.16503" lon="4.04624">
        <ele>168.85</ele>
        <time>2021-08-09T13:01:10Z</time>
      </trkpt>
      <trkpt lat="49.16503" lon="4.04628">
        <ele>169.33</ele>
        <time>2021-08-09T13:01:27Z</time>
      </trkpt>
      <trkpt lat="49.16502" lon="4.04628">
        <ele>169.33</ele>
        <time>2021-08-09T13:01:40Z</time>
      </trkpt>
      <trkpt lat="49.16502" lon="4.04629">
        <ele>169.33</ele>
        <time>2021-08-09T13:01:53Z</time>
      </trkpt>
      <trkpt lat="49.16503" lon="4.0463">
        <ele>169.33</ele>
        <time>2021-08-09T13:02:11Z</time>
      </trkpt>
      <trkpt lat="49.16504" lon="4.04629">
        <ele>169.33</ele>
        <time>2021-08-09T13:02:31Z</time>
      </trkpt>
      <trkpt lat="49.1651" lon="4.04621">
        <ele>169.33</ele>
        <time>2021-08-09T13:02:43Z</time>
      </trkpt>
      <trkpt lat="49.16513" lon="4.04622">
        <ele>169.33</ele>
        <time>2021-08-09T13:02:55Z</time>
      </trkpt>
      <trkpt lat="49.16514" lon="4.04624">
        <ele>169.33</ele>
        <time>2021-08-09T13:03:04Z</time>
      </trkpt>
      <trkpt lat="49.16516" lon="4.04624">
        <ele>169.81</ele>
        <time>2021-08-09T13:03:21Z</time>
      </trkpt>
      <trkpt lat="49.16519" lon="4.04624">
        <ele>170.77</ele>
        <time>2021-08-09T13:03:35Z</time>
      </trkpt>
      <trkpt lat="49.16522" lon="4.04625">
        <ele>170.77</ele>
        <time>2021-08-09T13:03:54Z</time>
      </trkpt>
      <trkpt lat="49.16521" lon="4.04624">
        <ele>171.25</ele>
        <time>2021-08-09T13:04:11Z</time>
      </trkpt>
      <trkpt lat="49.1652" lon="4.04625">
        <ele>171.25</ele>
        <time>2021-08-09T13:04:15Z</time>
      </trkpt>
      <trkpt lat="49.16519" lon="4.04627">
        <ele>171.25</ele>
        <time>2021-08-09T13:04:16Z</time>
      </trkpt>
      <trkpt lat="49.16518" lon="4.04629">
        <ele>171.25</ele>
        <time>2021-08-09T13:04:22Z</time>
      </trkpt>
      <trkpt lat="49.16516" lon="4.04631">
        <ele>171.25</ele>
        <time>2021-08-09T13:04:38Z</time>
      </trkpt>
      <trkpt lat="49.16517" lon="4.04636">
        <ele>171.25</ele>
        <time>2021-08-09T13:04:42Z</time>
      </trkpt>
      <trkpt lat="49.16519" lon="4.04638">
        <ele>171.25</ele>
        <time>2021-08-09T13:04:43Z</time>
      </trkpt>
      <trkpt lat="49.16523" lon="4.04642">
        <ele>169.81</ele>
        <time>2021-08-09T13:04:45Z</time>
      </trkpt>
      <trkpt lat="49.1654" lon="4.04655">
        <ele>168.85</ele>
        <time>2021-08-09T13:04:49Z</time>
      </trkpt>
      <trkpt lat="49.16544" lon="4.04659">
        <ele>168.85</ele>
        <time>2021-08-09T13:04:50Z</time>
      </trkpt>
      <trkpt lat="49.16561" lon="4.04667">
        <ele>167.89</ele>
        <time>2021-08-09T13:04:55Z</time>
      </trkpt>
      <trkpt lat="49.16562" lon="4.04665">
        <ele>167.89</ele>
        <time>2021-08-09T13:04:56Z</time>
      </trkpt>
      <trkpt lat="49.16561" lon="4.04664">
        <ele>168.85</ele>
        <time>2021-08-09T13:04:57Z</time>
      </trkpt>
      <trkpt lat="49.1656" lon="4.04663">
        <ele>168.85</ele>
        <time>2021-08-09T13:04:58Z</time>
      </trkpt>
      <trkpt lat="49.16559" lon="4.04662">
        <ele>168.85</ele>
        <time>2021-08-09T13:04:59Z</time>
      </trkpt>
      <trkpt lat="49.16558" lon="4.04662">
        <ele>168.85</ele>
        <time>2021-08-09T13:05:00Z</time>
      </trkpt>
      <trkpt lat="49.16556" lon="4.04662">
        <ele>168.85</ele>
        <time>2021-08-09T13:05:01Z</time>
      </trkpt>
      <trkpt lat="49.16554" lon="4.04661">
        <ele>168.85</ele>
        <time>2021-08-09T13:05:02Z</time>
      </trkpt>
      <trkpt lat="49.16552" lon="4.0466">
        <ele>168.85</ele>
        <time>2021-08-09T13:05:03Z</time>
      </trkpt>
      <trkpt lat="49.16529" lon="4.04645">
        <ele>168.85</ele>
        <time>2021-08-09T13:05:12Z</time>
      </trkpt>
      <trkpt lat="49.16514" lon="4.04637">
        <ele>169.81</ele>
        <time>2021-08-09T13:05:18Z</time>
      </trkpt>
      <trkpt lat="49.16512" lon="4.04638">
        <ele>169.81</ele>
        <time>2021-08-09T13:05:20Z</time>
      </trkpt>
      <trkpt lat="49.16511" lon="4.04641">
        <ele>169.81</ele>
        <time>2021-08-09T13:05:21Z</time>
      </trkpt>
      <trkpt lat="49.1651" lon="4.04644">
        <ele>169.81</ele>
        <time>2021-08-09T13:05:22Z</time>
      </trkpt>
      <trkpt lat="49.1651" lon="4.04647">
        <ele>169.81</ele>
        <time>2021-08-09T13:05:23Z</time>
      </trkpt>
      <trkpt lat="49.16509" lon="4.0465">
        <ele>169.81</ele>
        <time>2021-08-09T13:05:24Z</time>
      </trkpt>
      <trkpt lat="49.16512" lon="4.04673">
        <ele>169.81</ele>
        <time>2021-08-09T13:05:30Z</time>
      </trkpt>
      <trkpt lat="49.16515" lon="4.04685">
        <ele>168.37</ele>
        <time>2021-08-09T13:05:33Z</time>
      </trkpt>
      <trkpt lat="49.16516" lon="4.04703">
        <ele>167.41</ele>
        <time>2021-08-09T13:05:36Z</time>
      </trkpt>
      <trkpt lat="49.16516" lon="4.04708">
        <ele>166.93</ele>
        <time>2021-08-09T13:05:37Z</time>
      </trkpt>
      <trkpt lat="49.16515" lon="4.04714">
        <ele>166.45</ele>
        <time>2021-08-09T13:05:38Z</time>
      </trkpt>
      <trkpt lat="49.16512" lon="4.0473">
        <ele>166.45</ele>
        <time>2021-08-09T13:05:40Z</time>
      </trkpt>
      <trkpt lat="49.1651" lon="4.04735">
        <ele>165.96</ele>
        <time>2021-08-09T13:05:41Z</time>
      </trkpt>
      <trkpt lat="49.16506" lon="4.0475">
        <ele>165.96</ele>
        <time>2021-08-09T13:05:43Z</time>
      </trkpt>
      <trkpt lat="49.16499" lon="4.04816">
        <ele>164.52</ele>
        <time>2021-08-09T13:05:51Z</time>
      </trkpt>
      <trkpt lat="49.16498" lon="4.04838">
        <ele>164.52</ele>
        <time>2021-08-09T13:05:54Z</time>
      </trkpt>
      <trkpt lat="49.16497" lon="4.04844">
        <ele>164.52</ele>
        <time>2021-08-09T13:05:55Z</time>
      </trkpt>
      <trkpt lat="49.16496" lon="4.0485">
        <ele>165.96</ele>
        <time>2021-08-09T13:05:56Z</time>
      </trkpt>
      <trkpt lat="49.16496" lon="4.04856">
        <ele>165.96</ele>
        <time>2021-08-09T13:05:57Z</time>
      </trkpt>
      <trkpt lat="49.16495" lon="4.04861">
        <ele>165.96</ele>
        <time>2021-08-09T13:05:58Z</time>
      </trkpt>
      <trkpt lat="49.16488" lon="4.04894">
        <ele>167.89</ele>
        <time>2021-08-09T13:06:06Z</time>
      </trkpt>
      <trkpt lat="49.16483" lon="4.04905">
        <ele>167.89</ele>
        <time>2021-08-09T13:06:11Z</time>
      </trkpt>
      <trkpt lat="49.16481" lon="4.04906">
        <ele>168.37</ele>
        <time>2021-08-09T13:06:12Z</time>
      </trkpt>
      <trkpt lat="49.16479" lon="4.04907">
        <ele>168.85</ele>
        <time>2021-08-09T13:06:13Z</time>
      </trkpt>
      <trkpt lat="49.16478" lon="4.04907">
        <ele>168.85</ele>
        <time>2021-08-09T13:06:14Z</time>
      </trkpt>
      <trkpt lat="49.16476" lon="4.04906">
        <ele>168.85</ele>
        <time>2021-08-09T13:06:15Z</time>
      </trkpt>
      <trkpt lat="49.16474" lon="4.04906">
        <ele>168.85</ele>
        <time>2021-08-09T13:06:16Z</time>
      </trkpt>
      <trkpt lat="49.16456" lon="4.04898">
        <ele>169.81</ele>
        <time>2021-08-09T13:06:26Z</time>
      </trkpt>
      <trkpt lat="49.16434" lon="4.04894">
        <ele>171.73</ele>
        <time>2021-08-09T13:06:37Z</time>
      </trkpt>
      <trkpt lat="49.16417" lon="4.04892">
        <ele>172.21</ele>
        <time>2021-08-09T13:06:46Z</time>
      </trkpt>
      <trkpt lat="49.16414" lon="4.04892">
        <ele>172.21</ele>
        <time>2021-08-09T13:06:48Z</time>
      </trkpt>
      <trkpt lat="49.16412" lon="4.04892">
        <ele>172.69</ele>
        <time>2021-08-09T13:06:49Z</time>
      </trkpt>
      <trkpt lat="49.16397" lon="4.04895">
        <ele>174.62</ele>
        <time>2021-08-09T13:07:00Z</time>
      </trkpt>
      <trkpt lat="49.16386" lon="4.049">
        <ele>176.54</ele>
        <time>2021-08-09T13:07:08Z</time>
      </trkpt>
      <trkpt lat="49.16385" lon="4.04899">
        <ele>176.54</ele>
        <time>2021-08-09T13:07:09Z</time>
      </trkpt>
      <trkpt lat="49.16384" lon="4.049">
        <ele>176.06</ele>
        <time>2021-08-09T13:07:10Z</time>
      </trkpt>
      <trkpt lat="49.16382" lon="4.049">
        <ele>177.02</ele>
        <time>2021-08-09T13:07:11Z</time>
      </trkpt>
      <trkpt lat="49.16381" lon="4.04901">
        <ele>177.02</ele>
        <time>2021-08-09T13:07:12Z</time>
      </trkpt>
      <trkpt lat="49.16368" lon="4.04906">
        <ele>177.5</ele>
        <time>2021-08-09T13:07:22Z</time>
      </trkpt>
      <trkpt lat="49.16353" lon="4.04908">
        <ele>178.46</ele>
        <time>2021-08-09T13:07:32Z</time>
      </trkpt>
      <trkpt lat="49.16351" lon="4.04908">
        <ele>178.46</ele>
        <time>2021-08-09T13:07:34Z</time>
      </trkpt>
      <trkpt lat="49.16349" lon="4.04909">
        <ele>178.46</ele>
        <time>2021-08-09T13:07:35Z</time>
      </trkpt>
      <trkpt lat="49.16335" lon="4.04911">
        <ele>179.9</ele>
        <time>2021-08-09T13:07:46Z</time>
      </trkpt>
      <trkpt lat="49.1633" lon="4.04912">
        <ele>181.35</ele>
        <time>2021-08-09T13:07:50Z</time>
      </trkpt>
      <trkpt lat="49.16327" lon="4.04912">
        <ele>181.83</ele>
        <time>2021-08-09T13:07:52Z</time>
      </trkpt>
      <trkpt lat="49.16316" lon="4.04917">
        <ele>183.27</ele>
        <time>2021-08-09T13:08:00Z</time>
      </trkpt>
      <trkpt lat="49.16309" lon="4.04921">
        <ele>183.75</ele>
        <time>2021-08-09T13:08:06Z</time>
      </trkpt>
      <trkpt lat="49.16308" lon="4.04921">
        <ele>183.75</ele>
        <time>2021-08-09T13:08:07Z</time>
      </trkpt>
      <trkpt lat="49.16307" lon="4.04922">
        <ele>184.23</ele>
        <time>2021-08-09T13:08:08Z</time>
      </trkpt>
      <trkpt lat="49.16305" lon="4.04923">
        <ele>184.23</ele>
        <time>2021-08-09T13:08:09Z</time>
      </trkpt>
      <trkpt lat="49.16304" lon="4.04923">
        <ele>184.23</ele>
        <time>2021-08-09T13:08:10Z</time>
      </trkpt>
      <trkpt lat="49.16303" lon="4.04924">
        <ele>184.23</ele>
        <time>2021-08-09T13:08:11Z</time>
      </trkpt>
      <trkpt lat="49.16302" lon="4.04924">
        <ele>184.71</ele>
        <time>2021-08-09T13:08:12Z</time>
      </trkpt>
      <trkpt lat="49.16301" lon="4.04925">
        <ele>184.71</ele>
        <time>2021-08-09T13:08:13Z</time>
      </trkpt>
      <trkpt lat="49.16299" lon="4.04926">
        <ele>185.19</ele>
        <time>2021-08-09T13:08:14Z</time>
      </trkpt>
      <trkpt lat="49.16298" lon="4.04927">
        <ele>185.19</ele>
        <time>2021-08-09T13:08:15Z</time>
      </trkpt>
      <trkpt lat="49.16297" lon="4.04928">
        <ele>185.19</ele>
        <time>2021-08-09T13:08:16Z</time>
      </trkpt>
      <trkpt lat="49.16296" lon="4.04929">
        <ele>185.19</ele>
        <time>2021-08-09T13:08:17Z</time>
      </trkpt>
      <trkpt lat="49.16295" lon="4.0493">
        <ele>185.19</ele>
        <time>2021-08-09T13:08:18Z</time>
      </trkpt>
      <trkpt lat="49.16294" lon="4.0493">
        <ele>185.19</ele>
        <time>2021-08-09T13:08:19Z</time>
      </trkpt>
      <trkpt lat="49.16292" lon="4.04931">
        <ele>185.67</ele>
        <time>2021-08-09T13:08:20Z</time>
      </trkpt>
      <trkpt lat="49.16291" lon="4.04932">
        <ele>185.67</ele>
        <time>2021-08-09T13:08:21Z</time>
      </trkpt>
      <trkpt lat="49.16281" lon="4.0494">
        <ele>187.59</ele>
        <time>2021-08-09T13:08:29Z</time>
      </trkpt>
      <trkpt lat="49.16274" lon="4.04953">
        <ele>188.56</ele>
        <time>2021-08-09T13:08:36Z</time>
      </trkpt>
      <trkpt lat="49.16266" lon="4.04969">
        <ele>190</ele>
        <time>2021-08-09T13:08:45Z</time>
      </trkpt>
      <trkpt lat="49.16255" lon="4.04985">
        <ele>191.44</ele>
        <time>2021-08-09T13:08:53Z</time>
      </trkpt>
      <trkpt lat="49.16241" lon="4.05005">
        <ele>191.92</ele>
        <time>2021-08-09T13:09:03Z</time>
      </trkpt>
      <trkpt lat="49.16224" lon="4.05027">
        <ele>190</ele>
        <time>2021-08-09T13:09:11Z</time>
      </trkpt>
      <trkpt lat="49.16209" lon="4.05046">
        <ele>186.63</ele>
        <time>2021-08-09T13:09:15Z</time>
      </trkpt>
      <trkpt lat="49.16188" lon="4.05066">
        <ele>182.79</ele>
        <time>2021-08-09T13:09:19Z</time>
      </trkpt>
      <trkpt lat="49.16175" lon="4.05077">
        <ele>181.35</ele>
        <time>2021-08-09T13:09:21Z</time>
      </trkpt>
      <trkpt lat="49.16164" lon="4.0509">
        <ele>179.9</ele>
        <time>2021-08-09T13:09:23Z</time>
      </trkpt>
      <trkpt lat="49.16158" lon="4.05099">
        <ele>179.9</ele>
        <time>2021-08-09T13:09:24Z</time>
      </trkpt>
      <trkpt lat="49.16154" lon="4.05107">
        <ele>178.94</ele>
        <time>2021-08-09T13:09:25Z</time>
      </trkpt>
      <trkpt lat="49.16141" lon="4.05136">
        <ele>177.98</ele>
        <time>2021-08-09T13:09:28Z</time>
      </trkpt>
      <trkpt lat="49.16137" lon="4.05145">
        <ele>177.5</ele>
        <time>2021-08-09T13:09:29Z</time>
      </trkpt>
      <trkpt lat="49.16124" lon="4.05178">
        <ele>177.5</ele>
        <time>2021-08-09T13:09:33Z</time>
      </trkpt>
      <trkpt lat="49.16114" lon="4.05201">
        <ele>179.42</ele>
        <time>2021-08-09T13:09:37Z</time>
      </trkpt>
      <trkpt lat="49.16101" lon="4.05224">
        <ele>180.38</ele>
        <time>2021-08-09T13:09:44Z</time>
      </trkpt>
      <trkpt lat="49.16084" lon="4.05249">
        <ele>181.83</ele>
        <time>2021-08-09T13:09:53Z</time>
      </trkpt>
      <trkpt lat="49.16066" lon="4.05257">
        <ele>182.79</ele>
        <time>2021-08-09T13:10:01Z</time>
      </trkpt>
      <trkpt lat="49.16065" lon="4.05256">
        <ele>183.27</ele>
        <time>2021-08-09T13:10:02Z</time>
      </trkpt>
      <trkpt lat="49.16064" lon="4.05255">
        <ele>183.75</ele>
        <time>2021-08-09T13:10:03Z</time>
      </trkpt>
      <trkpt lat="49.16063" lon="4.05254">
        <ele>183.75</ele>
        <time>2021-08-09T13:10:04Z</time>
      </trkpt>
      <trkpt lat="49.16058" lon="4.05241">
        <ele>183.75</ele>
        <time>2021-08-09T13:10:12Z</time>
      </trkpt>
      <trkpt lat="49.16058" lon="4.05242">
        <ele>184.23</ele>
        <time>2021-08-09T13:10:13Z</time>
      </trkpt>
      <trkpt lat="49.16057" lon="4.05243">
        <ele>184.71</ele>
        <time>2021-08-09T13:10:14Z</time>
      </trkpt>
      <trkpt lat="49.16057" lon="4.05245">
        <ele>184.71</ele>
        <time>2021-08-09T13:10:15Z</time>
      </trkpt>
      <trkpt lat="49.16059" lon="4.05247">
        <ele>184.71</ele>
        <time>2021-08-09T13:10:16Z</time>
      </trkpt>
      <trkpt lat="49.1606" lon="4.0525">
        <ele>184.71</ele>
        <time>2021-08-09T13:10:17Z</time>
      </trkpt>
      <trkpt lat="49.16061" lon="4.05253">
        <ele>184.71</ele>
        <time>2021-08-09T13:10:18Z</time>
      </trkpt>
      <trkpt lat="49.16061" lon="4.05257">
        <ele>183.27</ele>
        <time>2021-08-09T13:10:19Z</time>
      </trkpt>
      <trkpt lat="49.1606" lon="4.05258">
        <ele>183.27</ele>
        <time>2021-08-09T13:10:20Z</time>
      </trkpt>
      <trkpt lat="49.16059" lon="4.05258">
        <ele>183.27</ele>
        <time>2021-08-09T13:10:21Z</time>
      </trkpt>
      <trkpt lat="49.16057" lon="4.05258">
        <ele>183.27</ele>
        <time>2021-08-09T13:10:22Z</time>
      </trkpt>
      <trkpt lat="49.16054" lon="4.05258">
        <ele>182.79</ele>
        <time>2021-08-09T13:10:23Z</time>
      </trkpt>
      <trkpt lat="49.16035" lon="4.05258">
        <ele>182.79</ele>
        <time>2021-08-09T13:10:31Z</time>
      </trkpt>
      <trkpt lat="49.16009" lon="4.05255">
        <ele>180.38</ele>
        <time>2021-08-09T13:10:37Z</time>
      </trkpt>
      <trkpt lat="49.15999" lon="4.05256">
        <ele>179.9</ele>
        <time>2021-08-09T13:10:39Z</time>
      </trkpt>
      <trkpt lat="49.15994" lon="4.05257">
        <ele>179.9</ele>
        <time>2021-08-09T13:10:40Z</time>
      </trkpt>
      <trkpt lat="49.15966" lon="4.05266">
        <ele>177.98</ele>
        <time>2021-08-09T13:10:45Z</time>
      </trkpt>
      <trkpt lat="49.15961" lon="4.05269">
        <ele>177.98</ele>
        <time>2021-08-09T13:10:46Z</time>
      </trkpt>
      <trkpt lat="49.15956" lon="4.05273">
        <ele>177.98</ele>
        <time>2021-08-09T13:10:47Z</time>
      </trkpt>
      <trkpt lat="49.15952" lon="4.05278">
        <ele>177.5</ele>
        <time>2021-08-09T13:10:48Z</time>
      </trkpt>
      <trkpt lat="49.15948" lon="4.05282">
        <ele>177.5</ele>
        <time>2021-08-09T13:10:49Z</time>
      </trkpt>
      <trkpt lat="49.15924" lon="4.05309">
        <ele>177.02</ele>
        <time>2021-08-09T13:10:56Z</time>
      </trkpt>
      <trkpt lat="49.15896" lon="4.05343">
        <ele>177.02</ele>
        <time>2021-08-09T13:11:06Z</time>
      </trkpt>
      <trkpt lat="49.15877" lon="4.05371">
        <ele>177.02</ele>
        <time>2021-08-09T13:11:13Z</time>
      </trkpt>
      <trkpt lat="49.15864" lon="4.05399">
        <ele>176.06</ele>
        <time>2021-08-09T13:11:19Z</time>
      </trkpt>
      <trkpt lat="49.15848" lon="4.05437">
        <ele>174.62</ele>
        <time>2021-08-09T13:11:24Z</time>
      </trkpt>
      <trkpt lat="49.15831" lon="4.05479">
        <ele>176.06</ele>
        <time>2021-08-09T13:11:31Z</time>
      </trkpt>
      <trkpt lat="49.15828" lon="4.05488">
        <ele>176.54</ele>
        <time>2021-08-09T13:11:34Z</time>
      </trkpt>
      <trkpt lat="49.1582" lon="4.05507">
        <ele>178.46</ele>
        <time>2021-08-09T13:11:41Z</time>
      </trkpt>
      <trkpt lat="49.1581" lon="4.05533">
        <ele>179.9</ele>
        <time>2021-08-09T13:11:49Z</time>
      </trkpt>
      <trkpt lat="49.15798" lon="4.0557">
        <ele>180.38</ele>
        <time>2021-08-09T13:11:58Z</time>
      </trkpt>
      <trkpt lat="49.15783" lon="4.0562">
        <ele>178.46</ele>
        <time>2021-08-09T13:12:08Z</time>
      </trkpt>
      <trkpt lat="49.15781" lon="4.05626">
        <ele>178.46</ele>
        <time>2021-08-09T13:12:09Z</time>
      </trkpt>
      <trkpt lat="49.15771" lon="4.05666">
        <ele>174.62</ele>
        <time>2021-08-09T13:12:14Z</time>
      </trkpt>
      <trkpt lat="49.1576" lon="4.05707">
        <ele>172.69</ele>
        <time>2021-08-09T13:12:18Z</time>
      </trkpt>
      <trkpt lat="49.15756" lon="4.05716">
        <ele>171.73</ele>
        <time>2021-08-09T13:12:19Z</time>
      </trkpt>
      <trkpt lat="49.15751" lon="4.05725">
        <ele>170.77</ele>
        <time>2021-08-09T13:12:20Z</time>
      </trkpt>
      <trkpt lat="49.15745" lon="4.05733">
        <ele>170.77</ele>
        <time>2021-08-09T13:12:21Z</time>
      </trkpt>
      <trkpt lat="49.1574" lon="4.05742">
        <ele>169.81</ele>
        <time>2021-08-09T13:12:22Z</time>
      </trkpt>
      <trkpt lat="49.1571" lon="4.05787">
        <ele>168.37</ele>
        <time>2021-08-09T13:12:28Z</time>
      </trkpt>
      <trkpt lat="49.15708" lon="4.05795">
        <ele>168.37</ele>
        <time>2021-08-09T13:12:29Z</time>
      </trkpt>
      <trkpt lat="49.15707" lon="4.05804">
        <ele>167.89</ele>
        <time>2021-08-09T13:12:30Z</time>
      </trkpt>
      <trkpt lat="49.15707" lon="4.05813">
        <ele>167.89</ele>
        <time>2021-08-09T13:12:31Z</time>
      </trkpt>
      <trkpt lat="49.15709" lon="4.05822">
        <ele>167.89</ele>
        <time>2021-08-09T13:12:32Z</time>
      </trkpt>
      <trkpt lat="49.15711" lon="4.0583">
        <ele>167.41</ele>
        <time>2021-08-09T13:12:33Z</time>
      </trkpt>
      <trkpt lat="49.15713" lon="4.05839">
        <ele>167.41</ele>
        <time>2021-08-09T13:12:34Z</time>
      </trkpt>
      <trkpt lat="49.15718" lon="4.05865">
        <ele>165.96</ele>
        <time>2021-08-09T13:12:37Z</time>
      </trkpt>
      <trkpt lat="49.15719" lon="4.05882">
        <ele>166.45</ele>
        <time>2021-08-09T13:12:39Z</time>
      </trkpt>
      <trkpt lat="49.15718" lon="4.0589">
        <ele>166.45</ele>
        <time>2021-08-09T13:12:40Z</time>
      </trkpt>
      <trkpt lat="49.15717" lon="4.05897">
        <ele>166.45</ele>
        <time>2021-08-09T13:12:41Z</time>
      </trkpt>
      <trkpt lat="49.15714" lon="4.05911">
        <ele>167.41</ele>
        <time>2021-08-09T13:12:43Z</time>
      </trkpt>
      <trkpt lat="49.15706" lon="4.05934">
        <ele>168.85</ele>
        <time>2021-08-09T13:12:47Z</time>
      </trkpt>
      <trkpt lat="49.15689" lon="4.05968">
        <ele>168.85</ele>
        <time>2021-08-09T13:12:54Z</time>
      </trkpt>
      <trkpt lat="49.15687" lon="4.05974">
        <ele>168.85</ele>
        <time>2021-08-09T13:12:55Z</time>
      </trkpt>
      <trkpt lat="49.15685" lon="4.0598">
        <ele>168.85</ele>
        <time>2021-08-09T13:12:56Z</time>
      </trkpt>
      <trkpt lat="49.15682" lon="4.05985">
        <ele>168.85</ele>
        <time>2021-08-09T13:12:57Z</time>
      </trkpt>
      <trkpt lat="49.15658" lon="4.06024">
        <ele>169.33</ele>
        <time>2021-08-09T13:13:06Z</time>
      </trkpt>
      <trkpt lat="49.15641" lon="4.06059">
        <ele>169.33</ele>
        <time>2021-08-09T13:13:14Z</time>
      </trkpt>
      <trkpt lat="49.15625" lon="4.06104">
        <ele>169.81</ele>
        <time>2021-08-09T13:13:23Z</time>
      </trkpt>
      <trkpt lat="49.15612" lon="4.06148">
        <ele>169.81</ele>
        <time>2021-08-09T13:13:31Z</time>
      </trkpt>
      <trkpt lat="49.15596" lon="4.06198">
        <ele>169.81</ele>
        <time>2021-08-09T13:13:40Z</time>
      </trkpt>
      <trkpt lat="49.15594" lon="4.06208">
        <ele>169.81</ele>
        <time>2021-08-09T13:13:43Z</time>
      </trkpt>
      <trkpt lat="49.15593" lon="4.06211">
        <ele>169.81</ele>
        <time>2021-08-09T13:13:50Z</time>
      </trkpt>
      <trkpt lat="49.15591" lon="4.06212">
        <ele>168.85</ele>
        <time>2021-08-09T13:13:57Z</time>
      </trkpt>
      <trkpt lat="49.15589" lon="4.06213">
        <ele>168.85</ele>
        <time>2021-08-09T13:14:00Z</time>
      </trkpt>
      <trkpt lat="49.15587" lon="4.06214">
        <ele>168.85</ele>
        <time>2021-08-09T13:14:01Z</time>
      </trkpt>
      <trkpt lat="49.15585" lon="4.06216">
        <ele>168.85</ele>
        <time>2021-08-09T13:14:02Z</time>
      </trkpt>
      <trkpt lat="49.15584" lon="4.06219">
        <ele>168.85</ele>
        <time>2021-08-09T13:14:03Z</time>
      </trkpt>
      <trkpt lat="49.15582" lon="4.06221">
        <ele>168.85</ele>
        <time>2021-08-09T13:14:04Z</time>
      </trkpt>
      <trkpt lat="49.1558" lon="4.06225">
        <ele>169.81</ele>
        <time>2021-08-09T13:14:05Z</time>
      </trkpt>
      <trkpt lat="49.15579" lon="4.06228">
        <ele>169.81</ele>
        <time>2021-08-09T13:14:06Z</time>
      </trkpt>
      <trkpt lat="49.15566" lon="4.06256">
        <ele>171.25</ele>
        <time>2021-08-09T13:14:14Z</time>
      </trkpt>
      <trkpt lat="49.15553" lon="4.06273">
        <ele>171.73</ele>
        <time>2021-08-09T13:14:20Z</time>
      </trkpt>
      <trkpt lat="49.15536" lon="4.06277">
        <ele>173.66</ele>
        <time>2021-08-09T13:14:28Z</time>
      </trkpt>
      <trkpt lat="49.15526" lon="4.06274">
        <ele>175.1</ele>
        <time>2021-08-09T13:14:36Z</time>
      </trkpt>
      <trkpt lat="49.15516" lon="4.0627">
        <ele>176.54</ele>
        <time>2021-08-09T13:14:45Z</time>
      </trkpt>
      <trkpt lat="49.1551" lon="4.06266">
        <ele>177.98</ele>
        <time>2021-08-09T13:14:52Z</time>
      </trkpt>
      <trkpt lat="49.15507" lon="4.06265">
        <ele>177.98</ele>
        <time>2021-08-09T13:14:54Z</time>
      </trkpt>
      <trkpt lat="49.15506" lon="4.06264">
        <ele>178.46</ele>
        <time>2021-08-09T13:14:55Z</time>
      </trkpt>
      <trkpt lat="49.15497" lon="4.06257">
        <ele>179.42</ele>
        <time>2021-08-09T13:15:03Z</time>
      </trkpt>
      <trkpt lat="49.15486" lon="4.0625">
        <ele>179.9</ele>
        <time>2021-08-09T13:15:11Z</time>
      </trkpt>
      <trkpt lat="49.15477" lon="4.06247">
        <ele>181.83</ele>
        <time>2021-08-09T13:15:20Z</time>
      </trkpt>
      <trkpt lat="49.15473" lon="4.06247">
        <ele>181.83</ele>
        <time>2021-08-09T13:15:23Z</time>
      </trkpt>
      <trkpt lat="49.15473" lon="4.06248">
        <ele>181.83</ele>
        <time>2021-08-09T13:15:24Z</time>
      </trkpt>
      <trkpt lat="49.15471" lon="4.06249">
        <ele>181.83</ele>
        <time>2021-08-09T13:15:25Z</time>
      </trkpt>
      <trkpt lat="49.1547" lon="4.0625">
        <ele>182.31</ele>
        <time>2021-08-09T13:15:26Z</time>
      </trkpt>
      <trkpt lat="49.15469" lon="4.06252">
        <ele>182.31</ele>
        <time>2021-08-09T13:15:27Z</time>
      </trkpt>
      <trkpt lat="49.15468" lon="4.06253">
        <ele>182.31</ele>
        <time>2021-08-09T13:15:28Z</time>
      </trkpt>
      <trkpt lat="49.15467" lon="4.06254">
        <ele>182.31</ele>
        <time>2021-08-09T13:15:29Z</time>
      </trkpt>
      <trkpt lat="49.15466" lon="4.06256">
        <ele>182.31</ele>
        <time>2021-08-09T13:15:30Z</time>
      </trkpt>
      <trkpt lat="49.15459" lon="4.06267">
        <ele>183.75</ele>
        <time>2021-08-09T13:15:37Z</time>
      </trkpt>
      <trkpt lat="49.15449" lon="4.06289">
        <ele>184.23</ele>
        <time>2021-08-09T13:15:44Z</time>
      </trkpt>
      <trkpt lat="49.15436" lon="4.06312">
        <ele>184.23</ele>
        <time>2021-08-09T13:15:51Z</time>
      </trkpt>
      <trkpt lat="49.15415" lon="4.06326">
        <ele>184.23</ele>
        <time>2021-08-09T13:15:58Z</time>
      </trkpt>
      <trkpt lat="49.15393" lon="4.06344">
        <ele>184.71</ele>
        <time>2021-08-09T13:16:06Z</time>
      </trkpt>
      <trkpt lat="49.15366" lon="4.06357">
        <ele>184.71</ele>
        <time>2021-08-09T13:16:15Z</time>
      </trkpt>
      <trkpt lat="49.15332" lon="4.06367">
        <ele>185.67</ele>
        <time>2021-08-09T13:16:26Z</time>
      </trkpt>
      <trkpt lat="49.15302" lon="4.06372">
        <ele>186.63</ele>
        <time>2021-08-09T13:16:36Z</time>
      </trkpt>
      <trkpt lat="49.15265" lon="4.06395">
        <ele>187.59</ele>
        <time>2021-08-09T13:16:49Z</time>
      </trkpt>
      <trkpt lat="49.15246" lon="4.06418">
        <ele>187.59</ele>
        <time>2021-08-09T13:16:56Z</time>
      </trkpt>
      <trkpt lat="49.15224" lon="4.06448">
        <ele>187.59</ele>
        <time>2021-08-09T13:17:05Z</time>
      </trkpt>
      <trkpt lat="49.15212" lon="4.06471">
        <ele>188.08</ele>
        <time>2021-08-09T13:17:12Z</time>
      </trkpt>
      <trkpt lat="49.1521" lon="4.06476">
        <ele>189.04</ele>
        <time>2021-08-09T13:17:15Z</time>
      </trkpt>
      <trkpt lat="49.15209" lon="4.06477">
        <ele>189.04</ele>
        <time>2021-08-09T13:17:16Z</time>
      </trkpt>
      <trkpt lat="49.15207" lon="4.06478">
        <ele>189.52</ele>
        <time>2021-08-09T13:17:17Z</time>
      </trkpt>
      <trkpt lat="49.15206" lon="4.0648">
        <ele>189.52</ele>
        <time>2021-08-09T13:17:18Z</time>
      </trkpt>
      <trkpt lat="49.15205" lon="4.0648">
        <ele>189.52</ele>
        <time>2021-08-09T13:17:19Z</time>
      </trkpt>
      <trkpt lat="49.15205" lon="4.06482">
        <ele>190</ele>
        <time>2021-08-09T13:17:20Z</time>
      </trkpt>
      <trkpt lat="49.15204" lon="4.06483">
        <ele>190</ele>
        <time>2021-08-09T13:17:21Z</time>
      </trkpt>
      <trkpt lat="49.15203" lon="4.06485">
        <ele>190</ele>
        <time>2021-08-09T13:17:22Z</time>
      </trkpt>
      <trkpt lat="49.15199" lon="4.06493">
        <ele>190.48</ele>
        <time>2021-08-09T13:17:29Z</time>
      </trkpt>
      <trkpt lat="49.15194" lon="4.06506">
        <ele>191.92</ele>
        <time>2021-08-09T13:17:38Z</time>
      </trkpt>
      <trkpt lat="49.15188" lon="4.06514">
        <ele>192.88</ele>
        <time>2021-08-09T13:17:46Z</time>
      </trkpt>
      <trkpt lat="49.15185" lon="4.06517">
        <ele>193.36</ele>
        <time>2021-08-09T13:17:50Z</time>
      </trkpt>
      <trkpt lat="49.15177" lon="4.06526">
        <ele>193.84</ele>
        <time>2021-08-09T13:17:56Z</time>
      </trkpt>
      <trkpt lat="49.15173" lon="4.06532">
        <ele>194.32</ele>
        <time>2021-08-09T13:18:00Z</time>
      </trkpt>
      <trkpt lat="49.1517" lon="4.06534">
        <ele>194.8</ele>
        <time>2021-08-09T13:18:01Z</time>
      </trkpt>
      <trkpt lat="49.15169" lon="4.06534">
        <ele>194.8</ele>
        <time>2021-08-09T13:18:02Z</time>
      </trkpt>
      <trkpt lat="49.15166" lon="4.06535">
        <ele>194.8</ele>
        <time>2021-08-09T13:18:03Z</time>
      </trkpt>
      <trkpt lat="49.15165" lon="4.06536">
        <ele>194.8</ele>
        <time>2021-08-09T13:18:04Z</time>
      </trkpt>
      <trkpt lat="49.15162" lon="4.06537">
        <ele>194.8</ele>
        <time>2021-08-09T13:18:05Z</time>
      </trkpt>
      <trkpt lat="49.15161" lon="4.06537">
        <ele>194.8</ele>
        <time>2021-08-09T13:18:06Z</time>
      </trkpt>
      <trkpt lat="49.1515" lon="4.06541">
        <ele>194.8</ele>
        <time>2021-08-09T13:18:12Z</time>
      </trkpt>
      <trkpt lat="49.15132" lon="4.06544">
        <ele>195.77</ele>
        <time>2021-08-09T13:18:19Z</time>
      </trkpt>
      <trkpt lat="49.15112" lon="4.06558">
        <ele>196.25</ele>
        <time>2021-08-09T13:18:27Z</time>
      </trkpt>
      <trkpt lat="49.15099" lon="4.06564">
        <ele>196.25</ele>
        <time>2021-08-09T13:18:33Z</time>
      </trkpt>
      <trkpt lat="49.15086" lon="4.06574">
        <ele>197.21</ele>
        <time>2021-08-09T13:18:39Z</time>
      </trkpt>
      <trkpt lat="49.15072" lon="4.06587">
        <ele>198.17</ele>
        <time>2021-08-09T13:18:45Z</time>
      </trkpt>
      <trkpt lat="49.1507" lon="4.06588">
        <ele>198.17</ele>
        <time>2021-08-09T13:18:46Z</time>
      </trkpt>
      <trkpt lat="49.15068" lon="4.06588">
        <ele>198.65</ele>
        <time>2021-08-09T13:18:47Z</time>
      </trkpt>
      <trkpt lat="49.15066" lon="4.06589">
        <ele>198.65</ele>
        <time>2021-08-09T13:18:48Z</time>
      </trkpt>
      <trkpt lat="49.15064" lon="4.06589">
        <ele>198.65</ele>
        <time>2021-08-09T13:18:49Z</time>
      </trkpt>
      <trkpt lat="49.15062" lon="4.0659">
        <ele>198.65</ele>
        <time>2021-08-09T13:18:50Z</time>
      </trkpt>
      <trkpt lat="49.15057" lon="4.06594">
        <ele>199.61</ele>
        <time>2021-08-09T13:18:53Z</time>
      </trkpt>
      <trkpt lat="49.15056" lon="4.06596">
        <ele>199.61</ele>
        <time>2021-08-09T13:18:54Z</time>
      </trkpt>
      <trkpt lat="49.15055" lon="4.06598">
        <ele>199.61</ele>
        <time>2021-08-09T13:18:55Z</time>
      </trkpt>
      <trkpt lat="49.15047" lon="4.0661">
        <ele>200.57</ele>
        <time>2021-08-09T13:19:01Z</time>
      </trkpt>
      <trkpt lat="49.15045" lon="4.0661">
        <ele>200.57</ele>
        <time>2021-08-09T13:19:03Z</time>
      </trkpt>
      <trkpt lat="49.1504" lon="4.06605">
        <ele>201.53</ele>
        <time>2021-08-09T13:19:10Z</time>
      </trkpt>
      <trkpt lat="49.15036" lon="4.06605">
        <ele>201.53</ele>
        <time>2021-08-09T13:19:17Z</time>
      </trkpt>
      <trkpt lat="49.15031" lon="4.06606">
        <ele>202.49</ele>
        <time>2021-08-09T13:19:25Z</time>
      </trkpt>
      <trkpt lat="49.15021" lon="4.06605">
        <ele>202.98</ele>
        <time>2021-08-09T13:19:34Z</time>
      </trkpt>
      <trkpt lat="49.15013" lon="4.06605">
        <ele>203.46</ele>
        <time>2021-08-09T13:19:40Z</time>
      </trkpt>
      <trkpt lat="49.15" lon="4.06603">
        <ele>204.42</ele>
        <time>2021-08-09T13:19:48Z</time>
      </trkpt>
      <trkpt lat="49.14991" lon="4.06601">
        <ele>205.38</ele>
        <time>2021-08-09T13:19:56Z</time>
      </trkpt>
      <trkpt lat="49.14985" lon="4.06605">
        <ele>207.3</ele>
        <time>2021-08-09T13:20:06Z</time>
      </trkpt>
      <trkpt lat="49.14979" lon="4.06607">
        <ele>207.78</ele>
        <time>2021-08-09T13:20:13Z</time>
      </trkpt>
      <trkpt lat="49.14971" lon="4.06605">
        <ele>208.26</ele>
        <time>2021-08-09T13:20:22Z</time>
      </trkpt>
      <trkpt lat="49.14966" lon="4.06605">
        <ele>209.22</ele>
        <time>2021-08-09T13:20:30Z</time>
      </trkpt>
      <trkpt lat="49.14963" lon="4.06606">
        <ele>209.7</ele>
        <time>2021-08-09T13:20:40Z</time>
      </trkpt>
      <trkpt lat="49.14954" lon="4.06608">
        <ele>210.67</ele>
        <time>2021-08-09T13:20:48Z</time>
      </trkpt>
      <trkpt lat="49.14943" lon="4.06611">
        <ele>211.63</ele>
        <time>2021-08-09T13:20:55Z</time>
      </trkpt>
      <trkpt lat="49.14933" lon="4.06612">
        <ele>213.07</ele>
        <time>2021-08-09T13:21:03Z</time>
      </trkpt>
      <trkpt lat="49.14927" lon="4.06612">
        <ele>213.55</ele>
        <time>2021-08-09T13:21:09Z</time>
      </trkpt>
      <trkpt lat="49.14916" lon="4.06611">
        <ele>214.51</ele>
        <time>2021-08-09T13:21:17Z</time>
      </trkpt>
      <trkpt lat="49.14908" lon="4.0661">
        <ele>215.47</ele>
        <time>2021-08-09T13:21:24Z</time>
      </trkpt>
      <trkpt lat="49.149" lon="4.0661">
        <ele>216.43</ele>
        <time>2021-08-09T13:21:32Z</time>
      </trkpt>
      <trkpt lat="49.14899" lon="4.0661">
        <ele>216.43</ele>
        <time>2021-08-09T13:21:33Z</time>
      </trkpt>
      <trkpt lat="49.14897" lon="4.06608">
        <ele>216.43</ele>
        <time>2021-08-09T13:21:35Z</time>
      </trkpt>
      <trkpt lat="49.1489" lon="4.06608">
        <ele>216.91</ele>
        <time>2021-08-09T13:21:43Z</time>
      </trkpt>
      <trkpt lat="49.14881" lon="4.06606">
        <ele>218.36</ele>
        <time>2021-08-09T13:21:51Z</time>
      </trkpt>
      <trkpt lat="49.14876" lon="4.06606">
        <ele>218.84</ele>
        <time>2021-08-09T13:21:57Z</time>
      </trkpt>
      <trkpt lat="49.14869" lon="4.06605">
        <ele>219.8</ele>
        <time>2021-08-09T13:22:04Z</time>
      </trkpt>
      <trkpt lat="49.14863" lon="4.0661">
        <ele>219.8</ele>
        <time>2021-08-09T13:22:10Z</time>
      </trkpt>
      <trkpt lat="49.14863" lon="4.06611">
        <ele>220.28</ele>
        <time>2021-08-09T13:22:11Z</time>
      </trkpt>
      <trkpt lat="49.14854" lon="4.06626">
        <ele>220.28</ele>
        <time>2021-08-09T13:22:20Z</time>
      </trkpt>
      <trkpt lat="49.14849" lon="4.06639">
        <ele>220.28</ele>
        <time>2021-08-09T13:22:27Z</time>
      </trkpt>
      <trkpt lat="49.14843" lon="4.0665">
        <ele>218.84</ele>
        <time>2021-08-09T13:22:34Z</time>
      </trkpt>
      <trkpt lat="49.14838" lon="4.06659">
        <ele>219.32</ele>
        <time>2021-08-09T13:22:40Z</time>
      </trkpt>
      <trkpt lat="49.14833" lon="4.06662">
        <ele>219.32</ele>
        <time>2021-08-09T13:22:48Z</time>
      </trkpt>
      <trkpt lat="49.14827" lon="4.06661">
        <ele>220.28</ele>
        <time>2021-08-09T13:23:00Z</time>
      </trkpt>
      <trkpt lat="49.14822" lon="4.06668">
        <ele>221.72</ele>
        <time>2021-08-09T13:23:07Z</time>
      </trkpt>
      <trkpt lat="49.14817" lon="4.06676">
        <ele>223.16</ele>
        <time>2021-08-09T13:23:16Z</time>
      </trkpt>
      <trkpt lat="49.14816" lon="4.06684">
        <ele>224.61</ele>
        <time>2021-08-09T13:23:25Z</time>
      </trkpt>
      <trkpt lat="49.14813" lon="4.06691">
        <ele>225.57</ele>
        <time>2021-08-09T13:23:33Z</time>
      </trkpt>
      <trkpt lat="49.1481" lon="4.06697">
        <ele>227.01</ele>
        <time>2021-08-09T13:23:41Z</time>
      </trkpt>
      <trkpt lat="49.14808" lon="4.06706">
        <ele>227.97</ele>
        <time>2021-08-09T13:23:49Z</time>
      </trkpt>
      <trkpt lat="49.14807" lon="4.06709">
        <ele>228.45</ele>
        <time>2021-08-09T13:24:01Z</time>
      </trkpt>
      <trkpt lat="49.148" lon="4.06707">
        <ele>228.45</ele>
        <time>2021-08-09T13:24:17Z</time>
      </trkpt>
      <trkpt lat="49.148" lon="4.06711">
        <ele>228.45</ele>
        <time>2021-08-09T13:24:31Z</time>
      </trkpt>
      <trkpt lat="49.14797" lon="4.06715">
        <ele>228.45</ele>
        <time>2021-08-09T13:24:43Z</time>
      </trkpt>
      <trkpt lat="49.14797" lon="4.06708">
        <ele>228.45</ele>
        <time>2021-08-09T13:24:46Z</time>
      </trkpt>
      <trkpt lat="49.14797" lon="4.06697">
        <ele>227.49</ele>
        <time>2021-08-09T13:24:53Z</time>
      </trkpt>
      <trkpt lat="49.14803" lon="4.06683">
        <ele>224.61</ele>
        <time>2021-08-09T13:25:00Z</time>
      </trkpt>
      <trkpt lat="49.14807" lon="4.06668">
        <ele>222.2</ele>
        <time>2021-08-09T13:25:06Z</time>
      </trkpt>
      <trkpt lat="49.14808" lon="4.06664">
        <ele>221.72</ele>
        <time>2021-08-09T13:25:07Z</time>
      </trkpt>
      <trkpt lat="49.1481" lon="4.06659">
        <ele>220.76</ele>
        <time>2021-08-09T13:25:09Z</time>
      </trkpt>
      <trkpt lat="49.14812" lon="4.06658">
        <ele>220.76</ele>
        <time>2021-08-09T13:25:16Z</time>
      </trkpt>
      <trkpt lat="49.14815" lon="4.06655">
        <ele>220.76</ele>
        <time>2021-08-09T13:25:27Z</time>
      </trkpt>
      <trkpt lat="49.1482" lon="4.06649">
        <ele>220.28</ele>
        <time>2021-08-09T13:25:33Z</time>
      </trkpt>
      <trkpt lat="49.14822" lon="4.06646">
        <ele>220.28</ele>
        <time>2021-08-09T13:25:35Z</time>
      </trkpt>
      <trkpt lat="49.14831" lon="4.06625">
        <ele>221.72</ele>
        <time>2021-08-09T13:25:44Z</time>
      </trkpt>
      <trkpt lat="49.14844" lon="4.06615">
        <ele>221.72</ele>
        <time>2021-08-09T13:25:51Z</time>
      </trkpt>
      <trkpt lat="49.14848" lon="4.06612">
        <ele>220.28</ele>
        <time>2021-08-09T13:25:54Z</time>
      </trkpt>
      <trkpt lat="49.14865" lon="4.06608">
        <ele>218.84</ele>
        <time>2021-08-09T13:26:03Z</time>
      </trkpt>
      <trkpt lat="49.14874" lon="4.06602">
        <ele>218.36</ele>
        <time>2021-08-09T13:26:10Z</time>
      </trkpt>
      <trkpt lat="49.14885" lon="4.06599">
        <ele>217.88</ele>
        <time>2021-08-09T13:26:23Z</time>
      </trkpt>
      <trkpt lat="49.14905" lon="4.06597">
        <ele>215.47</ele>
        <time>2021-08-09T13:26:29Z</time>
      </trkpt>
      <trkpt lat="49.14922" lon="4.06598">
        <ele>214.03</ele>
        <time>2021-08-09T13:26:34Z</time>
      </trkpt>
      <trkpt lat="49.14938" lon="4.06596">
        <ele>212.11</ele>
        <time>2021-08-09T13:26:40Z</time>
      </trkpt>
      <trkpt lat="49.14954" lon="4.06593">
        <ele>210.19</ele>
        <time>2021-08-09T13:26:46Z</time>
      </trkpt>
      <trkpt lat="49.14969" lon="4.06588">
        <ele>208.26</ele>
        <time>2021-08-09T13:26:52Z</time>
      </trkpt>
      <trkpt lat="49.14987" lon="4.06585">
        <ele>205.86</ele>
        <time>2021-08-09T13:26:58Z</time>
      </trkpt>
      <trkpt lat="49.15006" lon="4.06583">
        <ele>203.94</ele>
        <time>2021-08-09T13:27:04Z</time>
      </trkpt>
      <trkpt lat="49.15021" lon="4.06584">
        <ele>202.01</ele>
        <time>2021-08-09T13:27:10Z</time>
      </trkpt>
      <trkpt lat="49.15028" lon="4.06593">
        <ele>202.01</ele>
        <time>2021-08-09T13:27:14Z</time>
      </trkpt>
      <trkpt lat="49.1503" lon="4.06602">
        <ele>201.53</ele>
        <time>2021-08-09T13:27:17Z</time>
      </trkpt>
      <trkpt lat="49.15032" lon="4.06613">
        <ele>201.53</ele>
        <time>2021-08-09T13:27:22Z</time>
      </trkpt>
      <trkpt lat="49.15031" lon="4.06618">
        <ele>203.46</ele>
        <time>2021-08-09T13:27:24Z</time>
      </trkpt>
      <trkpt lat="49.1503" lon="4.0663">
        <ele>204.9</ele>
        <time>2021-08-09T13:27:32Z</time>
      </trkpt>
      <trkpt lat="49.15026" lon="4.06638">
        <ele>205.86</ele>
        <time>2021-08-09T13:27:38Z</time>
      </trkpt>
      <trkpt lat="49.15017" lon="4.06648">
        <ele>206.34</ele>
        <time>2021-08-09T13:27:47Z</time>
      </trkpt>
      <trkpt lat="49.15017" lon="4.0665">
        <ele>206.82</ele>
        <time>2021-08-09T13:27:49Z</time>
      </trkpt>
      <trkpt lat="49.15014" lon="4.06658">
        <ele>207.78</ele>
        <time>2021-08-09T13:27:56Z</time>
      </trkpt>
      <trkpt lat="49.15008" lon="4.06663">
        <ele>208.74</ele>
        <time>2021-08-09T13:28:02Z</time>
      </trkpt>
      <trkpt lat="49.15003" lon="4.06671">
        <ele>209.22</ele>
        <time>2021-08-09T13:28:09Z</time>
      </trkpt>
      <trkpt lat="49.14995" lon="4.06676">
        <ele>210.67</ele>
        <time>2021-08-09T13:28:17Z</time>
      </trkpt>
      <trkpt lat="49.14992" lon="4.06679">
        <ele>211.15</ele>
        <time>2021-08-09T13:28:20Z</time>
      </trkpt>
      <trkpt lat="49.14988" lon="4.06685">
        <ele>211.63</ele>
        <time>2021-08-09T13:28:27Z</time>
      </trkpt>
      <trkpt lat="49.14985" lon="4.0669">
        <ele>213.07</ele>
        <time>2021-08-09T13:28:33Z</time>
      </trkpt>
      <trkpt lat="49.1498" lon="4.06697">
        <ele>213.55</ele>
        <time>2021-08-09T13:28:40Z</time>
      </trkpt>
      <trkpt lat="49.14977" lon="4.06705">
        <ele>214.99</ele>
        <time>2021-08-09T13:28:48Z</time>
      </trkpt>
      <trkpt lat="49.14974" lon="4.06712">
        <ele>215.95</ele>
        <time>2021-08-09T13:28:56Z</time>
      </trkpt>
      <trkpt lat="49.14969" lon="4.06717">
        <ele>217.4</ele>
        <time>2021-08-09T13:29:04Z</time>
      </trkpt>
      <trkpt lat="49.14959" lon="4.06721">
        <ele>218.36</ele>
        <time>2021-08-09T13:29:12Z</time>
      </trkpt>
      <trkpt lat="49.14954" lon="4.06721">
        <ele>218.36</ele>
        <time>2021-08-09T13:29:19Z</time>
      </trkpt>
      <trkpt lat="49.14949" lon="4.06726">
        <ele>219.32</ele>
        <time>2021-08-09T13:29:25Z</time>
      </trkpt>
      <trkpt lat="49.14941" lon="4.06737">
        <ele>220.76</ele>
        <time>2021-08-09T13:29:35Z</time>
      </trkpt>
      <trkpt lat="49.14934" lon="4.06748">
        <ele>222.2</ele>
        <time>2021-08-09T13:29:44Z</time>
      </trkpt>
      <trkpt lat="49.14932" lon="4.06757">
        <ele>223.16</ele>
        <time>2021-08-09T13:29:51Z</time>
      </trkpt>
      <trkpt lat="49.14931" lon="4.06768">
        <ele>224.12</ele>
        <time>2021-08-09T13:30:00Z</time>
      </trkpt>
      <trkpt lat="49.14932" lon="4.06783">
        <ele>225.09</ele>
        <time>2021-08-09T13:30:09Z</time>
      </trkpt>
      <trkpt lat="49.1493" lon="4.06793">
        <ele>226.05</ele>
        <time>2021-08-09T13:30:17Z</time>
      </trkpt>
      <trkpt lat="49.14925" lon="4.06801">
        <ele>227.01</ele>
        <time>2021-08-09T13:30:26Z</time>
      </trkpt>
      <trkpt lat="49.14924" lon="4.0681">
        <ele>228.45</ele>
        <time>2021-08-09T13:30:35Z</time>
      </trkpt>
      <trkpt lat="49.14924" lon="4.06817">
        <ele>229.89</ele>
        <time>2021-08-09T13:30:42Z</time>
      </trkpt>
      <trkpt lat="49.14922" lon="4.06825">
        <ele>231.81</ele>
        <time>2021-08-09T13:30:51Z</time>
      </trkpt>
      <trkpt lat="49.14919" lon="4.06835">
        <ele>233.26</ele>
        <time>2021-08-09T13:31:00Z</time>
      </trkpt>
      <trkpt lat="49.1492" lon="4.06845">
        <ele>234.22</ele>
        <time>2021-08-09T13:31:08Z</time>
      </trkpt>
      <trkpt lat="49.14917" lon="4.06856">
        <ele>234.7</ele>
        <time>2021-08-09T13:31:17Z</time>
      </trkpt>
      <trkpt lat="49.14917" lon="4.06866">
        <ele>235.66</ele>
        <time>2021-08-09T13:31:24Z</time>
      </trkpt>
      <trkpt lat="49.14918" lon="4.06879">
        <ele>237.1</ele>
        <time>2021-08-09T13:31:34Z</time>
      </trkpt>
      <trkpt lat="49.14918" lon="4.06888">
        <ele>238.54</ele>
        <time>2021-08-09T13:31:41Z</time>
      </trkpt>
      <trkpt lat="49.14917" lon="4.06898">
        <ele>239.02</ele>
        <time>2021-08-09T13:31:49Z</time>
      </trkpt>
      <trkpt lat="49.14914" lon="4.06902">
        <ele>239.51</ele>
        <time>2021-08-09T13:31:56Z</time>
      </trkpt>
      <trkpt lat="49.14908" lon="4.06908">
        <ele>240.47</ele>
        <time>2021-08-09T13:32:01Z</time>
      </trkpt>
      <trkpt lat="49.14904" lon="4.06913">
        <ele>240.47</ele>
        <time>2021-08-09T13:32:05Z</time>
      </trkpt>
      <trkpt lat="49.14901" lon="4.06917">
        <ele>241.43</ele>
        <time>2021-08-09T13:32:12Z</time>
      </trkpt>
      <trkpt lat="49.149" lon="4.06922">
        <ele>241.43</ele>
        <time>2021-08-09T13:32:19Z</time>
      </trkpt>
      <trkpt lat="49.14897" lon="4.06933">
        <ele>241.91</ele>
        <time>2021-08-09T13:32:25Z</time>
      </trkpt>
      <trkpt lat="49.14893" lon="4.06946">
        <ele>243.35</ele>
        <time>2021-08-09T13:32:33Z</time>
      </trkpt>
      <trkpt lat="49.14891" lon="4.06967">
        <ele>244.79</ele>
        <time>2021-08-09T13:32:42Z</time>
      </trkpt>
      <trkpt lat="49.14889" lon="4.06987">
        <ele>245.75</ele>
        <time>2021-08-09T13:32:50Z</time>
      </trkpt>
      <trkpt lat="49.14886" lon="4.06996">
        <ele>246.23</ele>
        <time>2021-08-09T13:32:55Z</time>
      </trkpt>
      <trkpt lat="49.14879" lon="4.07005">
        <ele>247.2</ele>
        <time>2021-08-09T13:33:03Z</time>
      </trkpt>
      <trkpt lat="49.1487" lon="4.07014">
        <ele>248.16</ele>
        <time>2021-08-09T13:33:10Z</time>
      </trkpt>
      <trkpt lat="49.14868" lon="4.07015">
        <ele>248.16</ele>
        <time>2021-08-09T13:33:11Z</time>
      </trkpt>
      <trkpt lat="49.14863" lon="4.07023">
        <ele>249.12</ele>
        <time>2021-08-09T13:33:15Z</time>
      </trkpt>
      <trkpt lat="49.14855" lon="4.07038">
        <ele>250.08</ele>
        <time>2021-08-09T13:33:22Z</time>
      </trkpt>
      <trkpt lat="49.14855" lon="4.0704">
        <ele>250.08</ele>
        <time>2021-08-09T13:33:23Z</time>
      </trkpt>
      <trkpt lat="49.14847" lon="4.07051">
        <ele>251.52</ele>
        <time>2021-08-09T13:33:30Z</time>
      </trkpt>
      <trkpt lat="49.1484" lon="4.07062">
        <ele>253.44</ele>
        <time>2021-08-09T13:33:38Z</time>
      </trkpt>
      <trkpt lat="49.14834" lon="4.07072">
        <ele>255.37</ele>
        <time>2021-08-09T13:33:46Z</time>
      </trkpt>
      <trkpt lat="49.14831" lon="4.07079">
        <ele>256.81</ele>
        <time>2021-08-09T13:33:52Z</time>
      </trkpt>
      <trkpt lat="49.14821" lon="4.07092">
        <ele>258.25</ele>
        <time>2021-08-09T13:34:00Z</time>
      </trkpt>
      <trkpt lat="49.1482" lon="4.07095">
        <ele>258.73</ele>
        <time>2021-08-09T13:34:02Z</time>
      </trkpt>
      <trkpt lat="49.1482" lon="4.07102">
        <ele>259.21</ele>
        <time>2021-08-09T13:34:06Z</time>
      </trkpt>
      <trkpt lat="49.14822" lon="4.07117">
        <ele>260.17</ele>
        <time>2021-08-09T13:34:14Z</time>
      </trkpt>
      <trkpt lat="49.14824" lon="4.07137">
        <ele>261.62</ele>
        <time>2021-08-09T13:34:24Z</time>
      </trkpt>
      <trkpt lat="49.14827" lon="4.07149">
        <ele>262.58</ele>
        <time>2021-08-09T13:34:30Z</time>
      </trkpt>
      <trkpt lat="49.14825" lon="4.07163">
        <ele>263.06</ele>
        <time>2021-08-09T13:34:37Z</time>
      </trkpt>
      <trkpt lat="49.14821" lon="4.07177">
        <ele>264.98</ele>
        <time>2021-08-09T13:34:46Z</time>
      </trkpt>
      <trkpt lat="49.14818" lon="4.0719">
        <ele>266.42</ele>
        <time>2021-08-09T13:34:54Z</time>
      </trkpt>
      <trkpt lat="49.14817" lon="4.072">
        <ele>268.35</ele>
        <time>2021-08-09T13:35:01Z</time>
      </trkpt>
      <trkpt lat="49.14812" lon="4.0721">
        <ele>269.31</ele>
        <time>2021-08-09T13:35:06Z</time>
      </trkpt>
      <trkpt lat="49.14804" lon="4.07221">
        <ele>270.27</ele>
        <time>2021-08-09T13:35:13Z</time>
      </trkpt>
      <trkpt lat="49.14797" lon="4.07232">
        <ele>271.71</ele>
        <time>2021-08-09T13:35:22Z</time>
      </trkpt>
      <trkpt lat="49.14792" lon="4.07238">
        <ele>273.15</ele>
        <time>2021-08-09T13:35:28Z</time>
      </trkpt>
      <trkpt lat="49.14781" lon="4.07245">
        <ele>274.11</ele>
        <time>2021-08-09T13:35:37Z</time>
      </trkpt>
      <trkpt lat="49.14771" lon="4.07252">
        <ele>275.56</ele>
        <time>2021-08-09T13:35:45Z</time>
      </trkpt>
      <trkpt lat="49.14763" lon="4.07258">
        <ele>276.52</ele>
        <time>2021-08-09T13:35:53Z</time>
      </trkpt>
      <trkpt lat="49.14753" lon="4.07268">
        <ele>277.96</ele>
        <time>2021-08-09T13:36:01Z</time>
      </trkpt>
      <trkpt lat="49.14746" lon="4.07279">
        <ele>279.4</ele>
        <time>2021-08-09T13:36:10Z</time>
      </trkpt>
      <trkpt lat="49.14735" lon="4.07286">
        <ele>280.36</ele>
        <time>2021-08-09T13:36:18Z</time>
      </trkpt>
      <trkpt lat="49.14723" lon="4.07299">
        <ele>280.84</ele>
        <time>2021-08-09T13:36:25Z</time>
      </trkpt>
      <trkpt lat="49.14713" lon="4.07309">
        <ele>281.32</ele>
        <time>2021-08-09T13:36:30Z</time>
      </trkpt>
      <trkpt lat="49.14699" lon="4.07325">
        <ele>281.32</ele>
        <time>2021-08-09T13:36:37Z</time>
      </trkpt>
      <trkpt lat="49.14686" lon="4.07344">
        <ele>281.8</ele>
        <time>2021-08-09T13:36:44Z</time>
      </trkpt>
      <trkpt lat="49.14683" lon="4.07352">
        <ele>281.8</ele>
        <time>2021-08-09T13:36:46Z</time>
      </trkpt>
      <trkpt lat="49.14674" lon="4.0738">
        <ele>282.77</ele>
        <time>2021-08-09T13:36:53Z</time>
      </trkpt>
      <trkpt lat="49.14663" lon="4.07408">
        <ele>283.73</ele>
        <time>2021-08-09T13:37:00Z</time>
      </trkpt>
      <trkpt lat="49.14649" lon="4.07422">
        <ele>284.21</ele>
        <time>2021-08-09T13:37:07Z</time>
      </trkpt>
      <trkpt lat="49.14635" lon="4.07433">
        <ele>284.21</ele>
        <time>2021-08-09T13:37:14Z</time>
      </trkpt>
      <trkpt lat="49.14631" lon="4.07452">
        <ele>284.21</ele>
        <time>2021-08-09T13:37:22Z</time>
      </trkpt>
      <trkpt lat="49.14621" lon="4.07475">
        <ele>284.21</ele>
        <time>2021-08-09T13:37:29Z</time>
      </trkpt>
      <trkpt lat="49.14609" lon="4.07497">
        <ele>284.21</ele>
        <time>2021-08-09T13:37:36Z</time>
      </trkpt>
      <trkpt lat="49.14606" lon="4.075">
        <ele>284.69</ele>
        <time>2021-08-09T13:37:38Z</time>
      </trkpt>
      <trkpt lat="49.14604" lon="4.07501">
        <ele>284.69</ele>
        <time>2021-08-09T13:37:39Z</time>
      </trkpt>
      <trkpt lat="49.14602" lon="4.07502">
        <ele>284.69</ele>
        <time>2021-08-09T13:37:40Z</time>
      </trkpt>
      <trkpt lat="49.146" lon="4.07504">
        <ele>284.69</ele>
        <time>2021-08-09T13:37:41Z</time>
      </trkpt>
      <trkpt lat="49.14598" lon="4.07507">
        <ele>285.17</ele>
        <time>2021-08-09T13:37:42Z</time>
      </trkpt>
      <trkpt lat="49.14596" lon="4.07509">
        <ele>285.17</ele>
        <time>2021-08-09T13:37:43Z</time>
      </trkpt>
      <trkpt lat="49.14579" lon="4.07538">
        <ele>285.65</ele>
        <time>2021-08-09T13:37:51Z</time>
      </trkpt>
      <trkpt lat="49.14572" lon="4.07553">
        <ele>286.13</ele>
        <time>2021-08-09T13:37:56Z</time>
      </trkpt>
      <trkpt lat="49.14567" lon="4.07559">
        <ele>286.13</ele>
        <time>2021-08-09T13:37:59Z</time>
      </trkpt>
      <trkpt lat="49.14566" lon="4.07561">
        <ele>286.13</ele>
        <time>2021-08-09T13:38:00Z</time>
      </trkpt>
      <trkpt lat="49.14553" lon="4.07567">
        <ele>286.61</ele>
        <time>2021-08-09T13:38:06Z</time>
      </trkpt>
      <trkpt lat="49.14531" lon="4.07582">
        <ele>287.09</ele>
        <time>2021-08-09T13:38:14Z</time>
      </trkpt>
      <trkpt lat="49.14508" lon="4.07595">
        <ele>287.09</ele>
        <time>2021-08-09T13:38:22Z</time>
      </trkpt>
      <trkpt lat="49.14506" lon="4.07596">
        <ele>286.61</ele>
        <time>2021-08-09T13:38:23Z</time>
      </trkpt>
      <trkpt lat="49.14504" lon="4.07597">
        <ele>286.61</ele>
        <time>2021-08-09T13:38:24Z</time>
      </trkpt>
      <trkpt lat="49.14488" lon="4.07606">
        <ele>286.61</ele>
        <time>2021-08-09T13:38:30Z</time>
      </trkpt>
      <trkpt lat="49.14471" lon="4.07617">
        <ele>286.61</ele>
        <time>2021-08-09T13:38:37Z</time>
      </trkpt>
      <trkpt lat="49.14451" lon="4.07629">
        <ele>286.61</ele>
        <time>2021-08-09T13:38:46Z</time>
      </trkpt>
      <trkpt lat="49.14437" lon="4.0764">
        <ele>286.61</ele>
        <time>2021-08-09T13:38:53Z</time>
      </trkpt>
      <trkpt lat="49.14427" lon="4.07652">
        <ele>286.61</ele>
        <time>2021-08-09T13:38:59Z</time>
      </trkpt>
      <trkpt lat="49.14416" lon="4.07672">
        <ele>286.61</ele>
        <time>2021-08-09T13:39:06Z</time>
      </trkpt>
      <trkpt lat="49.1442" lon="4.07684">
        <ele>286.61</ele>
        <time>2021-08-09T13:39:10Z</time>
      </trkpt>
      <trkpt lat="49.14433" lon="4.07705">
        <ele>286.61</ele>
        <time>2021-08-09T13:39:17Z</time>
      </trkpt>
      <trkpt lat="49.14434" lon="4.07741">
        <ele>285.17</ele>
        <time>2021-08-09T13:39:24Z</time>
      </trkpt>
      <trkpt lat="49.14434" lon="4.07746">
        <ele>285.17</ele>
        <time>2021-08-09T13:39:25Z</time>
      </trkpt>
      <trkpt lat="49.14435" lon="4.07776">
        <ele>285.17</ele>
        <time>2021-08-09T13:39:31Z</time>
      </trkpt>
      <trkpt lat="49.14433" lon="4.07804">
        <ele>284.69</ele>
        <time>2021-08-09T13:39:38Z</time>
      </trkpt>
      <trkpt lat="49.14431" lon="4.07839">
        <ele>285.65</ele>
        <time>2021-08-09T13:39:45Z</time>
      </trkpt>
      <trkpt lat="49.14424" lon="4.07865">
        <ele>285.65</ele>
        <time>2021-08-09T13:39:52Z</time>
      </trkpt>
      <trkpt lat="49.1442" lon="4.07889">
        <ele>285.65</ele>
        <time>2021-08-09T13:39:58Z</time>
      </trkpt>
      <trkpt lat="49.14419" lon="4.07897">
        <ele>284.69</ele>
        <time>2021-08-09T13:40:00Z</time>
      </trkpt>
      <trkpt lat="49.14421" lon="4.07911">
        <ele>284.21</ele>
        <time>2021-08-09T13:40:03Z</time>
      </trkpt>
      <trkpt lat="49.14423" lon="4.07914">
        <ele>284.21</ele>
        <time>2021-08-09T13:40:04Z</time>
      </trkpt>
      <trkpt lat="49.14425" lon="4.07918">
        <ele>284.21</ele>
        <time>2021-08-09T13:40:05Z</time>
      </trkpt>
      <trkpt lat="49.14426" lon="4.07922">
        <ele>284.21</ele>
        <time>2021-08-09T13:40:06Z</time>
      </trkpt>
      <trkpt lat="49.14427" lon="4.07926">
        <ele>284.21</ele>
        <time>2021-08-09T13:40:07Z</time>
      </trkpt>
      <trkpt lat="49.14427" lon="4.0793">
        <ele>284.21</ele>
        <time>2021-08-09T13:40:08Z</time>
      </trkpt>
      <trkpt lat="49.14426" lon="4.07934">
        <ele>284.21</ele>
        <time>2021-08-09T13:40:09Z</time>
      </trkpt>
      <trkpt lat="49.14425" lon="4.07938">
        <ele>284.21</ele>
        <time>2021-08-09T13:40:10Z</time>
      </trkpt>
      <trkpt lat="49.14428" lon="4.07959">
        <ele>284.21</ele>
        <time>2021-08-09T13:40:15Z</time>
      </trkpt>
      <trkpt lat="49.1443" lon="4.07961">
        <ele>284.21</ele>
        <time>2021-08-09T13:40:16Z</time>
      </trkpt>
      <trkpt lat="49.14432" lon="4.07963">
        <ele>283.73</ele>
        <time>2021-08-09T13:40:17Z</time>
      </trkpt>
      <trkpt lat="49.14435" lon="4.07965">
        <ele>283.73</ele>
        <time>2021-08-09T13:40:18Z</time>
      </trkpt>
      <trkpt lat="49.14437" lon="4.07967">
        <ele>283.73</ele>
        <time>2021-08-09T13:40:19Z</time>
      </trkpt>
      <trkpt lat="49.1444" lon="4.07968">
        <ele>283.73</ele>
        <time>2021-08-09T13:40:20Z</time>
      </trkpt>
      <trkpt lat="49.14442" lon="4.07969">
        <ele>283.73</ele>
        <time>2021-08-09T13:40:21Z</time>
      </trkpt>
      <trkpt lat="49.14444" lon="4.07969">
        <ele>283.73</ele>
        <time>2021-08-09T13:40:22Z</time>
      </trkpt>
      <trkpt lat="49.14445" lon="4.0797">
        <ele>283.73</ele>
        <time>2021-08-09T13:40:23Z</time>
      </trkpt>
      <trkpt lat="49.14446" lon="4.07973">
        <ele>283.73</ele>
        <time>2021-08-09T13:40:24Z</time>
      </trkpt>
      <trkpt lat="49.14445" lon="4.07977">
        <ele>283.73</ele>
        <time>2021-08-09T13:40:25Z</time>
      </trkpt>
      <trkpt lat="49.14445" lon="4.07979">
        <ele>283.73</ele>
        <time>2021-08-09T13:40:26Z</time>
      </trkpt>
      <trkpt lat="49.14444" lon="4.07981">
        <ele>283.73</ele>
        <time>2021-08-09T13:40:27Z</time>
      </trkpt>
      <trkpt lat="49.14444" lon="4.07986">
        <ele>283.73</ele>
        <time>2021-08-09T13:40:29Z</time>
      </trkpt>
      <trkpt lat="49.14444" lon="4.07989">
        <ele>283.73</ele>
        <time>2021-08-09T13:40:30Z</time>
      </trkpt>
      <trkpt lat="49.14445" lon="4.07992">
        <ele>283.73</ele>
        <time>2021-08-09T13:40:31Z</time>
      </trkpt>
      <trkpt lat="49.14445" lon="4.07996">
        <ele>283.73</ele>
        <time>2021-08-09T13:40:32Z</time>
      </trkpt>
      <trkpt lat="49.14445" lon="4.08001">
        <ele>283.25</ele>
        <time>2021-08-09T13:40:33Z</time>
      </trkpt>
      <trkpt lat="49.14445" lon="4.08005">
        <ele>283.25</ele>
        <time>2021-08-09T13:40:34Z</time>
      </trkpt>
      <trkpt lat="49.14445" lon="4.0801">
        <ele>283.25</ele>
        <time>2021-08-09T13:40:35Z</time>
      </trkpt>
      <trkpt lat="49.14445" lon="4.08015">
        <ele>283.25</ele>
        <time>2021-08-09T13:40:36Z</time>
      </trkpt>
      <trkpt lat="49.14445" lon="4.0802">
        <ele>283.25</ele>
        <time>2021-08-09T13:40:37Z</time>
      </trkpt>
      <trkpt lat="49.14446" lon="4.08023">
        <ele>283.25</ele>
        <time>2021-08-09T13:40:38Z</time>
      </trkpt>
      <trkpt lat="49.14446" lon="4.08025">
        <ele>283.25</ele>
        <time>2021-08-09T13:40:39Z</time>
      </trkpt>
      <trkpt lat="49.14446" lon="4.08028">
        <ele>283.25</ele>
        <time>2021-08-09T13:40:40Z</time>
      </trkpt>
      <trkpt lat="49.14445" lon="4.0803">
        <ele>283.25</ele>
        <time>2021-08-09T13:40:41Z</time>
      </trkpt>
      <trkpt lat="49.14444" lon="4.08033">
        <ele>283.25</ele>
        <time>2021-08-09T13:40:42Z</time>
      </trkpt>
      <trkpt lat="49.14444" lon="4.08036">
        <ele>283.25</ele>
        <time>2021-08-09T13:40:43Z</time>
      </trkpt>
      <trkpt lat="49.14444" lon="4.0804">
        <ele>283.25</ele>
        <time>2021-08-09T13:40:44Z</time>
      </trkpt>
      <trkpt lat="49.14444" lon="4.08045">
        <ele>283.25</ele>
        <time>2021-08-09T13:40:45Z</time>
      </trkpt>
      <trkpt lat="49.14444" lon="4.08067">
        <ele>282.77</ele>
        <time>2021-08-09T13:40:51Z</time>
      </trkpt>
      <trkpt lat="49.14443" lon="4.08085">
        <ele>282.77</ele>
        <time>2021-08-09T13:40:56Z</time>
      </trkpt>
      <trkpt lat="49.14443" lon="4.08088">
        <ele>282.28</ele>
        <time>2021-08-09T13:40:57Z</time>
      </trkpt>
      <trkpt lat="49.14444" lon="4.0809">
        <ele>282.28</ele>
        <time>2021-08-09T13:40:58Z</time>
      </trkpt>
      <trkpt lat="49.14448" lon="4.08112">
        <ele>281.8</ele>
        <time>2021-08-09T13:41:04Z</time>
      </trkpt>
      <trkpt lat="49.14449" lon="4.08129">
        <ele>281.8</ele>
        <time>2021-08-09T13:41:08Z</time>
      </trkpt>
      <trkpt lat="49.1445" lon="4.08132">
        <ele>281.8</ele>
        <time>2021-08-09T13:41:09Z</time>
      </trkpt>
      <trkpt lat="49.14451" lon="4.08135">
        <ele>281.8</ele>
        <time>2021-08-09T13:41:10Z</time>
      </trkpt>
      <trkpt lat="49.14451" lon="4.08137">
        <ele>281.8</ele>
        <time>2021-08-09T13:41:11Z</time>
      </trkpt>
      <trkpt lat="49.14451" lon="4.0814">
        <ele>281.8</ele>
        <time>2021-08-09T13:41:12Z</time>
      </trkpt>
      <trkpt lat="49.14449" lon="4.08162">
        <ele>281.8</ele>
        <time>2021-08-09T13:41:19Z</time>
      </trkpt>
      <trkpt lat="49.14448" lon="4.08164">
        <ele>281.8</ele>
        <time>2021-08-09T13:41:20Z</time>
      </trkpt>
      <trkpt lat="49.14448" lon="4.08167">
        <ele>281.8</ele>
        <time>2021-08-09T13:41:21Z</time>
      </trkpt>
      <trkpt lat="49.14448" lon="4.0817">
        <ele>281.8</ele>
        <time>2021-08-09T13:41:22Z</time>
      </trkpt>
      <trkpt lat="49.14448" lon="4.08173">
        <ele>281.8</ele>
        <time>2021-08-09T13:41:23Z</time>
      </trkpt>
      <trkpt lat="49.14447" lon="4.08176">
        <ele>281.8</ele>
        <time>2021-08-09T13:41:24Z</time>
      </trkpt>
      <trkpt lat="49.14446" lon="4.08179">
        <ele>281.8</ele>
        <time>2021-08-09T13:41:25Z</time>
      </trkpt>
      <trkpt lat="49.14446" lon="4.08183">
        <ele>281.8</ele>
        <time>2021-08-09T13:41:26Z</time>
      </trkpt>
      <trkpt lat="49.14442" lon="4.08211">
        <ele>281.8</ele>
        <time>2021-08-09T13:41:33Z</time>
      </trkpt>
      <trkpt lat="49.14438" lon="4.08232">
        <ele>281.8</ele>
        <time>2021-08-09T13:41:39Z</time>
      </trkpt>
      <trkpt lat="49.14435" lon="4.08262">
        <ele>281.8</ele>
        <time>2021-08-09T13:41:46Z</time>
      </trkpt>
      <trkpt lat="49.14435" lon="4.08297">
        <ele>281.8</ele>
        <time>2021-08-09T13:41:53Z</time>
      </trkpt>
      <trkpt lat="49.1443" lon="4.08329">
        <ele>281.8</ele>
        <time>2021-08-09T13:42:02Z</time>
      </trkpt>
      <trkpt lat="49.14422" lon="4.08351">
        <ele>281.8</ele>
        <time>2021-08-09T13:42:09Z</time>
      </trkpt>
      <trkpt lat="49.1442" lon="4.08358">
        <ele>281.8</ele>
        <time>2021-08-09T13:42:11Z</time>
      </trkpt>
      <trkpt lat="49.14419" lon="4.08362">
        <ele>281.8</ele>
        <time>2021-08-09T13:42:12Z</time>
      </trkpt>
      <trkpt lat="49.14419" lon="4.08365">
        <ele>281.8</ele>
        <time>2021-08-09T13:42:13Z</time>
      </trkpt>
      <trkpt lat="49.14418" lon="4.08369">
        <ele>281.8</ele>
        <time>2021-08-09T13:42:14Z</time>
      </trkpt>
      <trkpt lat="49.14417" lon="4.08372">
        <ele>281.8</ele>
        <time>2021-08-09T13:42:15Z</time>
      </trkpt>
      <trkpt lat="49.14416" lon="4.08375">
        <ele>281.8</ele>
        <time>2021-08-09T13:42:16Z</time>
      </trkpt>
      <trkpt lat="49.14416" lon="4.08379">
        <ele>281.8</ele>
        <time>2021-08-09T13:42:17Z</time>
      </trkpt>
      <trkpt lat="49.14415" lon="4.08383">
        <ele>281.8</ele>
        <time>2021-08-09T13:42:18Z</time>
      </trkpt>
      <trkpt lat="49.14415" lon="4.08386">
        <ele>281.8</ele>
        <time>2021-08-09T13:42:19Z</time>
      </trkpt>
      <trkpt lat="49.14416" lon="4.08405">
        <ele>281.8</ele>
        <time>2021-08-09T13:42:26Z</time>
      </trkpt>
      <trkpt lat="49.14415" lon="4.08416">
        <ele>281.8</ele>
        <time>2021-08-09T13:42:32Z</time>
      </trkpt>
      <trkpt lat="49.14415" lon="4.08419">
        <ele>281.8</ele>
        <time>2021-08-09T13:42:33Z</time>
      </trkpt>
      <trkpt lat="49.14414" lon="4.08422">
        <ele>282.28</ele>
        <time>2021-08-09T13:42:34Z</time>
      </trkpt>
      <trkpt lat="49.14413" lon="4.08427">
        <ele>283.25</ele>
        <time>2021-08-09T13:42:36Z</time>
      </trkpt>
      <trkpt lat="49.14412" lon="4.08436">
        <ele>283.25</ele>
        <time>2021-08-09T13:42:39Z</time>
      </trkpt>
      <trkpt lat="49.14408" lon="4.0845">
        <ele>283.25</ele>
        <time>2021-08-09T13:42:46Z</time>
      </trkpt>
      <trkpt lat="49.14406" lon="4.08462">
        <ele>283.25</ele>
        <time>2021-08-09T13:42:52Z</time>
      </trkpt>
      <trkpt lat="49.14408" lon="4.08486">
        <ele>283.25</ele>
        <time>2021-08-09T13:43:00Z</time>
      </trkpt>
      <trkpt lat="49.14407" lon="4.08499">
        <ele>283.73</ele>
        <time>2021-08-09T13:43:05Z</time>
      </trkpt>
      <trkpt lat="49.14406" lon="4.08502">
        <ele>283.73</ele>
        <time>2021-08-09T13:43:06Z</time>
      </trkpt>
      <trkpt lat="49.14405" lon="4.08505">
        <ele>283.73</ele>
        <time>2021-08-09T13:43:07Z</time>
      </trkpt>
      <trkpt lat="49.14402" lon="4.08528">
        <ele>283.73</ele>
        <time>2021-08-09T13:43:15Z</time>
      </trkpt>
      <trkpt lat="49.14401" lon="4.08552">
        <ele>283.73</ele>
        <time>2021-08-09T13:43:22Z</time>
      </trkpt>
      <trkpt lat="49.14401" lon="4.08555">
        <ele>283.73</ele>
        <time>2021-08-09T13:43:23Z</time>
      </trkpt>
      <trkpt lat="49.144" lon="4.08558">
        <ele>283.73</ele>
        <time>2021-08-09T13:43:24Z</time>
      </trkpt>
      <trkpt lat="49.14399" lon="4.0856">
        <ele>283.73</ele>
        <time>2021-08-09T13:43:25Z</time>
      </trkpt>
      <trkpt lat="49.14398" lon="4.08562">
        <ele>283.73</ele>
        <time>2021-08-09T13:43:26Z</time>
      </trkpt>
      <trkpt lat="49.14397" lon="4.08563">
        <ele>283.73</ele>
        <time>2021-08-09T13:43:27Z</time>
      </trkpt>
      <trkpt lat="49.14395" lon="4.08566">
        <ele>283.73</ele>
        <time>2021-08-09T13:43:28Z</time>
      </trkpt>
      <trkpt lat="49.14394" lon="4.08568">
        <ele>283.73</ele>
        <time>2021-08-09T13:43:29Z</time>
      </trkpt>
      <trkpt lat="49.14391" lon="4.08594">
        <ele>284.21</ele>
        <time>2021-08-09T13:43:36Z</time>
      </trkpt>
      <trkpt lat="49.14388" lon="4.08623">
        <ele>284.21</ele>
        <time>2021-08-09T13:43:43Z</time>
      </trkpt>
      <trkpt lat="49.14385" lon="4.08637">
        <ele>284.21</ele>
        <time>2021-08-09T13:43:47Z</time>
      </trkpt>
      <trkpt lat="49.14386" lon="4.0864">
        <ele>284.21</ele>
        <time>2021-08-09T13:43:48Z</time>
      </trkpt>
      <trkpt lat="49.14385" lon="4.08643">
        <ele>284.21</ele>
        <time>2021-08-09T13:43:49Z</time>
      </trkpt>
      <trkpt lat="49.14384" lon="4.08646">
        <ele>284.21</ele>
        <time>2021-08-09T13:43:51Z</time>
      </trkpt>
      <trkpt lat="49.14383" lon="4.08648">
        <ele>284.21</ele>
        <time>2021-08-09T13:43:52Z</time>
      </trkpt>
      <trkpt lat="49.14382" lon="4.08651">
        <ele>284.21</ele>
        <time>2021-08-09T13:43:53Z</time>
      </trkpt>
      <trkpt lat="49.14382" lon="4.08657">
        <ele>284.21</ele>
        <time>2021-08-09T13:43:58Z</time>
      </trkpt>
      <trkpt lat="49.14383" lon="4.0866">
        <ele>284.21</ele>
        <time>2021-08-09T13:43:59Z</time>
      </trkpt>
      <trkpt lat="49.14383" lon="4.08663">
        <ele>284.21</ele>
        <time>2021-08-09T13:44:00Z</time>
      </trkpt>
      <trkpt lat="49.14385" lon="4.08688">
        <ele>284.21</ele>
        <time>2021-08-09T13:44:06Z</time>
      </trkpt>
      <trkpt lat="49.1438" lon="4.08701">
        <ele>284.21</ele>
        <time>2021-08-09T13:44:12Z</time>
      </trkpt>
      <trkpt lat="49.14378" lon="4.08705">
        <ele>284.21</ele>
        <time>2021-08-09T13:44:16Z</time>
      </trkpt>
      <trkpt lat="49.14375" lon="4.08705">
        <ele>284.21</ele>
        <time>2021-08-09T13:44:18Z</time>
      </trkpt>
      <trkpt lat="49.14372" lon="4.08706">
        <ele>284.21</ele>
        <time>2021-08-09T13:44:21Z</time>
      </trkpt>
      <trkpt lat="49.1437" lon="4.08708">
        <ele>284.21</ele>
        <time>2021-08-09T13:44:22Z</time>
      </trkpt>
      <trkpt lat="49.14369" lon="4.0871">
        <ele>284.21</ele>
        <time>2021-08-09T13:44:23Z</time>
      </trkpt>
      <trkpt lat="49.14368" lon="4.08712">
        <ele>284.21</ele>
        <time>2021-08-09T13:44:24Z</time>
      </trkpt>
      <trkpt lat="49.14367" lon="4.08715">
        <ele>284.21</ele>
        <time>2021-08-09T13:44:25Z</time>
      </trkpt>
      <trkpt lat="49.14366" lon="4.08717">
        <ele>284.21</ele>
        <time>2021-08-09T13:44:26Z</time>
      </trkpt>
      <trkpt lat="49.14366" lon="4.0872">
        <ele>284.21</ele>
        <time>2021-08-09T13:44:27Z</time>
      </trkpt>
      <trkpt lat="49.14366" lon="4.08723">
        <ele>284.21</ele>
        <time>2021-08-09T13:44:28Z</time>
      </trkpt>
      <trkpt lat="49.14366" lon="4.08726">
        <ele>284.21</ele>
        <time>2021-08-09T13:44:29Z</time>
      </trkpt>
      <trkpt lat="49.14366" lon="4.08728">
        <ele>284.21</ele>
        <time>2021-08-09T13:44:30Z</time>
      </trkpt>
      <trkpt lat="49.14367" lon="4.08731">
        <ele>284.21</ele>
        <time>2021-08-09T13:44:31Z</time>
      </trkpt>
      <trkpt lat="49.14368" lon="4.08734">
        <ele>284.21</ele>
        <time>2021-08-09T13:44:32Z</time>
      </trkpt>
      <trkpt lat="49.14372" lon="4.08753">
        <ele>284.21</ele>
        <time>2021-08-09T13:44:39Z</time>
      </trkpt>
      <trkpt lat="49.14367" lon="4.08767">
        <ele>284.21</ele>
        <time>2021-08-09T13:44:46Z</time>
      </trkpt>
      <trkpt lat="49.14359" lon="4.08784">
        <ele>284.21</ele>
        <time>2021-08-09T13:44:52Z</time>
      </trkpt>
      <trkpt lat="49.14357" lon="4.08798">
        <ele>284.21</ele>
        <time>2021-08-09T13:44:56Z</time>
      </trkpt>
      <trkpt lat="49.14356" lon="4.08802">
        <ele>284.21</ele>
        <time>2021-08-09T13:44:57Z</time>
      </trkpt>
      <trkpt lat="49.14355" lon="4.08806">
        <ele>284.21</ele>
        <time>2021-08-09T13:44:58Z</time>
      </trkpt>
      <trkpt lat="49.14353" lon="4.08817">
        <ele>284.21</ele>
        <time>2021-08-09T13:45:01Z</time>
      </trkpt>
      <trkpt lat="49.14353" lon="4.08821">
        <ele>284.21</ele>
        <time>2021-08-09T13:45:02Z</time>
      </trkpt>
      <trkpt lat="49.14352" lon="4.08824">
        <ele>284.21</ele>
        <time>2021-08-09T13:45:03Z</time>
      </trkpt>
      <trkpt lat="49.14347" lon="4.08845">
        <ele>284.21</ele>
        <time>2021-08-09T13:45:09Z</time>
      </trkpt>
      <trkpt lat="49.14342" lon="4.08859">
        <ele>282.77</ele>
        <time>2021-08-09T13:45:14Z</time>
      </trkpt>
      <trkpt lat="49.14335" lon="4.08883">
        <ele>282.77</ele>
        <time>2021-08-09T13:45:19Z</time>
      </trkpt>
      <trkpt lat="49.14327" lon="4.08907">
        <ele>282.77</ele>
        <time>2021-08-09T13:45:25Z</time>
      </trkpt>
      <trkpt lat="49.14325" lon="4.08911">
        <ele>282.77</ele>
        <time>2021-08-09T13:45:26Z</time>
      </trkpt>
      <trkpt lat="49.14323" lon="4.08916">
        <ele>282.77</ele>
        <time>2021-08-09T13:45:28Z</time>
      </trkpt>
      <trkpt lat="49.14322" lon="4.08919">
        <ele>282.77</ele>
        <time>2021-08-09T13:45:29Z</time>
      </trkpt>
      <trkpt lat="49.14322" lon="4.08922">
        <ele>282.77</ele>
        <time>2021-08-09T13:45:30Z</time>
      </trkpt>
      <trkpt lat="49.14322" lon="4.08926">
        <ele>282.28</ele>
        <time>2021-08-09T13:45:31Z</time>
      </trkpt>
      <trkpt lat="49.14321" lon="4.0893">
        <ele>282.28</ele>
        <time>2021-08-09T13:45:32Z</time>
      </trkpt>
      <trkpt lat="49.14321" lon="4.08934">
        <ele>282.28</ele>
        <time>2021-08-09T13:45:33Z</time>
      </trkpt>
      <trkpt lat="49.14326" lon="4.08959">
        <ele>282.28</ele>
        <time>2021-08-09T13:45:41Z</time>
      </trkpt>
      <trkpt lat="49.14339" lon="4.08982">
        <ele>282.28</ele>
        <time>2021-08-09T13:45:48Z</time>
      </trkpt>
      <trkpt lat="49.14342" lon="4.08986">
        <ele>282.28</ele>
        <time>2021-08-09T13:45:50Z</time>
      </trkpt>
      <trkpt lat="49.14342" lon="4.08987">
        <ele>282.28</ele>
        <time>2021-08-09T13:45:51Z</time>
      </trkpt>
      <trkpt lat="49.1435" lon="4.08998">
        <ele>281.8</ele>
        <time>2021-08-09T13:45:58Z</time>
      </trkpt>
      <trkpt lat="49.14358" lon="4.09011">
        <ele>281.32</ele>
        <time>2021-08-09T13:46:04Z</time>
      </trkpt>
      <trkpt lat="49.14359" lon="4.09013">
        <ele>281.32</ele>
        <time>2021-08-09T13:46:05Z</time>
      </trkpt>
      <trkpt lat="49.1436" lon="4.09021">
        <ele>281.32</ele>
        <time>2021-08-09T13:46:11Z</time>
      </trkpt>
      <trkpt lat="49.14365" lon="4.09032">
        <ele>280.84</ele>
        <time>2021-08-09T13:46:17Z</time>
      </trkpt>
      <trkpt lat="49.14371" lon="4.09046">
        <ele>280.36</ele>
        <time>2021-08-09T13:46:22Z</time>
      </trkpt>
      <trkpt lat="49.14373" lon="4.09049">
        <ele>279.4</ele>
        <time>2021-08-09T13:46:23Z</time>
      </trkpt>
      <trkpt lat="49.14379" lon="4.09059">
        <ele>277.96</ele>
        <time>2021-08-09T13:46:26Z</time>
      </trkpt>
      <trkpt lat="49.14389" lon="4.09077">
        <ele>275.56</ele>
        <time>2021-08-09T13:46:32Z</time>
      </trkpt>
      <trkpt lat="49.1439" lon="4.0908">
        <ele>275.56</ele>
        <time>2021-08-09T13:46:33Z</time>
      </trkpt>
      <trkpt lat="49.14392" lon="4.09082">
        <ele>275.07</ele>
        <time>2021-08-09T13:46:34Z</time>
      </trkpt>
      <trkpt lat="49.14401" lon="4.09098">
        <ele>273.15</ele>
        <time>2021-08-09T13:46:41Z</time>
      </trkpt>
      <trkpt lat="49.14413" lon="4.09115">
        <ele>271.23</ele>
        <time>2021-08-09T13:46:48Z</time>
      </trkpt>
      <trkpt lat="49.14424" lon="4.09131">
        <ele>269.79</ele>
        <time>2021-08-09T13:46:55Z</time>
      </trkpt>
      <trkpt lat="49.14425" lon="4.09133">
        <ele>269.79</ele>
        <time>2021-08-09T13:46:56Z</time>
      </trkpt>
      <trkpt lat="49.14427" lon="4.09135">
        <ele>268.83</ele>
        <time>2021-08-09T13:46:57Z</time>
      </trkpt>
      <trkpt lat="49.14441" lon="4.09154">
        <ele>266.9</ele>
        <time>2021-08-09T13:47:05Z</time>
      </trkpt>
      <trkpt lat="49.14452" lon="4.09164">
        <ele>264.5</ele>
        <time>2021-08-09T13:47:11Z</time>
      </trkpt>
      <trkpt lat="49.14456" lon="4.09165">
        <ele>264.5</ele>
        <time>2021-08-09T13:47:14Z</time>
      </trkpt>
      <trkpt lat="49.14457" lon="4.09166">
        <ele>264.02</ele>
        <time>2021-08-09T13:47:15Z</time>
      </trkpt>
      <trkpt lat="49.14469" lon="4.09173">
        <ele>262.1</ele>
        <time>2021-08-09T13:47:22Z</time>
      </trkpt>
      <trkpt lat="49.14475" lon="4.09175">
        <ele>261.14</ele>
        <time>2021-08-09T13:47:27Z</time>
      </trkpt>
      <trkpt lat="49.14476" lon="4.09176">
        <ele>261.14</ele>
        <time>2021-08-09T13:47:28Z</time>
      </trkpt>
      <trkpt lat="49.14478" lon="4.09177">
        <ele>261.14</ele>
        <time>2021-08-09T13:47:29Z</time>
      </trkpt>
      <trkpt lat="49.1448" lon="4.09179">
        <ele>261.14</ele>
        <time>2021-08-09T13:47:30Z</time>
      </trkpt>
      <trkpt lat="49.14483" lon="4.0918">
        <ele>260.65</ele>
        <time>2021-08-09T13:47:31Z</time>
      </trkpt>
      <trkpt lat="49.1449" lon="4.09184">
        <ele>260.65</ele>
        <time>2021-08-09T13:47:34Z</time>
      </trkpt>
      <trkpt lat="49.14491" lon="4.09185">
        <ele>260.65</ele>
        <time>2021-08-09T13:47:35Z</time>
      </trkpt>
      <trkpt lat="49.14493" lon="4.09186">
        <ele>260.65</ele>
        <time>2021-08-09T13:47:36Z</time>
      </trkpt>
      <trkpt lat="49.14498" lon="4.09188">
        <ele>260.17</ele>
        <time>2021-08-09T13:47:41Z</time>
      </trkpt>
      <trkpt lat="49.14502" lon="4.09191">
        <ele>260.17</ele>
        <time>2021-08-09T13:47:44Z</time>
      </trkpt>
      <trkpt lat="49.14503" lon="4.09192">
        <ele>260.17</ele>
        <time>2021-08-09T13:47:45Z</time>
      </trkpt>
      <trkpt lat="49.14504" lon="4.09194">
        <ele>260.17</ele>
        <time>2021-08-09T13:47:46Z</time>
      </trkpt>
      <trkpt lat="49.14508" lon="4.09196">
        <ele>260.17</ele>
        <time>2021-08-09T13:47:47Z</time>
      </trkpt>
      <trkpt lat="49.1451" lon="4.09198">
        <ele>260.17</ele>
        <time>2021-08-09T13:47:48Z</time>
      </trkpt>
      <trkpt lat="49.14512" lon="4.092">
        <ele>260.17</ele>
        <time>2021-08-09T13:47:49Z</time>
      </trkpt>
      <trkpt lat="49.14514" lon="4.09202">
        <ele>260.17</ele>
        <time>2021-08-09T13:47:50Z</time>
      </trkpt>
      <trkpt lat="49.14516" lon="4.09204">
        <ele>260.17</ele>
        <time>2021-08-09T13:47:51Z</time>
      </trkpt>
      <trkpt lat="49.14518" lon="4.09206">
        <ele>260.17</ele>
        <time>2021-08-09T13:47:52Z</time>
      </trkpt>
      <trkpt lat="49.14521" lon="4.09209">
        <ele>260.17</ele>
        <time>2021-08-09T13:47:53Z</time>
      </trkpt>
      <trkpt lat="49.14524" lon="4.09213">
        <ele>260.17</ele>
        <time>2021-08-09T13:47:54Z</time>
      </trkpt>
      <trkpt lat="49.14526" lon="4.09216">
        <ele>260.17</ele>
        <time>2021-08-09T13:47:55Z</time>
      </trkpt>
      <trkpt lat="49.1454" lon="4.09242">
        <ele>260.17</ele>
        <time>2021-08-09T13:48:01Z</time>
      </trkpt>
      <trkpt lat="49.14548" lon="4.09268">
        <ele>261.14</ele>
        <time>2021-08-09T13:48:08Z</time>
      </trkpt>
      <trkpt lat="49.14551" lon="4.09294">
        <ele>260.17</ele>
        <time>2021-08-09T13:48:15Z</time>
      </trkpt>
      <trkpt lat="49.14562" lon="4.09326">
        <ele>257.77</ele>
        <time>2021-08-09T13:48:21Z</time>
      </trkpt>
      <trkpt lat="49.14578" lon="4.09352">
        <ele>255.85</ele>
        <time>2021-08-09T13:48:27Z</time>
      </trkpt>
      <trkpt lat="49.14598" lon="4.09379">
        <ele>253.93</ele>
        <time>2021-08-09T13:48:33Z</time>
      </trkpt>
      <trkpt lat="49.146" lon="4.09384">
        <ele>253.93</ele>
        <time>2021-08-09T13:48:34Z</time>
      </trkpt>
      <trkpt lat="49.14602" lon="4.09389">
        <ele>253.44</ele>
        <time>2021-08-09T13:48:35Z</time>
      </trkpt>
      <trkpt lat="49.14608" lon="4.09421">
        <ele>252.48</ele>
        <time>2021-08-09T13:48:41Z</time>
      </trkpt>
      <trkpt lat="49.14603" lon="4.09455">
        <ele>251.52</ele>
        <time>2021-08-09T13:48:48Z</time>
      </trkpt>
      <trkpt lat="49.14609" lon="4.09487">
        <ele>250.08</ele>
        <time>2021-08-09T13:48:53Z</time>
      </trkpt>
      <trkpt lat="49.14611" lon="4.09493">
        <ele>250.08</ele>
        <time>2021-08-09T13:48:54Z</time>
      </trkpt>
      <trkpt lat="49.14619" lon="4.09512">
        <ele>248.64</ele>
        <time>2021-08-09T13:48:58Z</time>
      </trkpt>
      <trkpt lat="49.14619" lon="4.09517">
        <ele>248.16</ele>
        <time>2021-08-09T13:48:59Z</time>
      </trkpt>
      <trkpt lat="49.14618" lon="4.09521">
        <ele>248.16</ele>
        <time>2021-08-09T13:49:00Z</time>
      </trkpt>
      <trkpt lat="49.1461" lon="4.09541">
        <ele>248.64</ele>
        <time>2021-08-09T13:49:07Z</time>
      </trkpt>
      <trkpt lat="49.14607" lon="4.09546">
        <ele>249.6</ele>
        <time>2021-08-09T13:49:09Z</time>
      </trkpt>
      <trkpt lat="49.14595" lon="4.0957">
        <ele>251.04</ele>
        <time>2021-08-09T13:49:17Z</time>
      </trkpt>
      <trkpt lat="49.14577" lon="4.09602">
        <ele>252.48</ele>
        <time>2021-08-09T13:49:29Z</time>
      </trkpt>
      <trkpt lat="49.1456" lon="4.09631">
        <ele>252.96</ele>
        <time>2021-08-09T13:49:40Z</time>
      </trkpt>
      <trkpt lat="49.1455" lon="4.09647">
        <ele>254.89</ele>
        <time>2021-08-09T13:49:47Z</time>
      </trkpt>
      <trkpt lat="49.14537" lon="4.09668">
        <ele>255.37</ele>
        <time>2021-08-09T13:49:55Z</time>
      </trkpt>
      <trkpt lat="49.14534" lon="4.09676">
        <ele>256.33</ele>
        <time>2021-08-09T13:49:58Z</time>
      </trkpt>
      <trkpt lat="49.14541" lon="4.09691">
        <ele>255.85</ele>
        <time>2021-08-09T13:50:04Z</time>
      </trkpt>
      <trkpt lat="49.14542" lon="4.09693">
        <ele>255.85</ele>
        <time>2021-08-09T13:50:05Z</time>
      </trkpt>
      <trkpt lat="49.14542" lon="4.09694">
        <ele>255.85</ele>
        <time>2021-08-09T13:50:06Z</time>
      </trkpt>
      <trkpt lat="49.14543" lon="4.09696">
        <ele>256.33</ele>
        <time>2021-08-09T13:50:07Z</time>
      </trkpt>
      <trkpt lat="49.14547" lon="4.09702">
        <ele>257.77</ele>
        <time>2021-08-09T13:50:13Z</time>
      </trkpt>
      <trkpt lat="49.14552" lon="4.0971">
        <ele>258.25</ele>
        <time>2021-08-09T13:50:19Z</time>
      </trkpt>
      <trkpt lat="49.14558" lon="4.09719">
        <ele>259.21</ele>
        <time>2021-08-09T13:50:26Z</time>
      </trkpt>
      <trkpt lat="49.14563" lon="4.0973">
        <ele>259.69</ele>
        <time>2021-08-09T13:50:33Z</time>
      </trkpt>
      <trkpt lat="49.14569" lon="4.0974">
        <ele>260.65</ele>
        <time>2021-08-09T13:50:39Z</time>
      </trkpt>
      <trkpt lat="49.14578" lon="4.09758">
        <ele>261.14</ele>
        <time>2021-08-09T13:50:48Z</time>
      </trkpt>
      <trkpt lat="49.14586" lon="4.09772">
        <ele>262.1</ele>
        <time>2021-08-09T13:50:57Z</time>
      </trkpt>
      <trkpt lat="49.14593" lon="4.09781">
        <ele>262.58</ele>
        <time>2021-08-09T13:51:05Z</time>
      </trkpt>
      <trkpt lat="49.14601" lon="4.09795">
        <ele>263.06</ele>
        <time>2021-08-09T13:51:13Z</time>
      </trkpt>
      <trkpt lat="49.1461" lon="4.0981">
        <ele>264.98</ele>
        <time>2021-08-09T13:51:23Z</time>
      </trkpt>
      <trkpt lat="49.14614" lon="4.09816">
        <ele>264.98</ele>
        <time>2021-08-09T13:51:29Z</time>
      </trkpt>
      <trkpt lat="49.14622" lon="4.09828">
        <ele>265.94</ele>
        <time>2021-08-09T13:51:36Z</time>
      </trkpt>
      <trkpt lat="49.14631" lon="4.09842">
        <ele>266.9</ele>
        <time>2021-08-09T13:51:44Z</time>
      </trkpt>
      <trkpt lat="49.14637" lon="4.09852">
        <ele>267.86</ele>
        <time>2021-08-09T13:51:51Z</time>
      </trkpt>
      <trkpt lat="49.14648" lon="4.09863">
        <ele>268.35</ele>
        <time>2021-08-09T13:51:59Z</time>
      </trkpt>
      <trkpt lat="49.14655" lon="4.09871">
        <ele>268.83</ele>
        <time>2021-08-09T13:52:05Z</time>
      </trkpt>
      <trkpt lat="49.14659" lon="4.09878">
        <ele>269.31</ele>
        <time>2021-08-09T13:52:12Z</time>
      </trkpt>
      <trkpt lat="49.14661" lon="4.09884">
        <ele>269.31</ele>
        <time>2021-08-09T13:52:18Z</time>
      </trkpt>
      <trkpt lat="49.14662" lon="4.09884">
        <ele>269.31</ele>
        <time>2021-08-09T13:52:23Z</time>
      </trkpt>
      <trkpt lat="49.14667" lon="4.09891">
        <ele>269.79</ele>
        <time>2021-08-09T13:52:32Z</time>
      </trkpt>
      <trkpt lat="49.14665" lon="4.09898">
        <ele>269.79</ele>
        <time>2021-08-09T13:52:44Z</time>
      </trkpt>
      <trkpt lat="49.14668" lon="4.09898">
        <ele>269.79</ele>
        <time>2021-08-09T13:52:51Z</time>
      </trkpt>
      <trkpt lat="49.14667" lon="4.09895">
        <ele>269.79</ele>
        <time>2021-08-09T13:53:08Z</time>
      </trkpt>
      <trkpt lat="49.14667" lon="4.09896">
        <ele>269.79</ele>
        <time>2021-08-09T13:53:22Z</time>
      </trkpt>
      <trkpt lat="49.14668" lon="4.09897">
        <ele>269.79</ele>
        <time>2021-08-09T13:53:33Z</time>
      </trkpt>
      <trkpt lat="49.14673" lon="4.09903">
        <ele>270.75</ele>
        <time>2021-08-09T13:53:40Z</time>
      </trkpt>
      <trkpt lat="49.14679" lon="4.09913">
        <ele>270.75</ele>
        <time>2021-08-09T13:53:48Z</time>
      </trkpt>
      <trkpt lat="49.14684" lon="4.09924">
        <ele>271.71</ele>
        <time>2021-08-09T13:53:56Z</time>
      </trkpt>
      <trkpt lat="49.14694" lon="4.09938">
        <ele>272.19</ele>
        <time>2021-08-09T13:54:04Z</time>
      </trkpt>
      <trkpt lat="49.14704" lon="4.09948">
        <ele>273.63</ele>
        <time>2021-08-09T13:54:11Z</time>
      </trkpt>
      <trkpt lat="49.14709" lon="4.09952">
        <ele>273.63</ele>
        <time>2021-08-09T13:54:14Z</time>
      </trkpt>
      <trkpt lat="49.1471" lon="4.09953">
        <ele>273.63</ele>
        <time>2021-08-09T13:54:15Z</time>
      </trkpt>
      <trkpt lat="49.14718" lon="4.0996">
        <ele>274.11</ele>
        <time>2021-08-09T13:54:22Z</time>
      </trkpt>
      <trkpt lat="49.14728" lon="4.0997">
        <ele>275.56</ele>
        <time>2021-08-09T13:54:28Z</time>
      </trkpt>
      <trkpt lat="49.14738" lon="4.09977">
        <ele>275.56</ele>
        <time>2021-08-09T13:54:35Z</time>
      </trkpt>
      <trkpt lat="49.14743" lon="4.09981">
        <ele>276.04</ele>
        <time>2021-08-09T13:54:38Z</time>
      </trkpt>
      <trkpt lat="49.14745" lon="4.09983">
        <ele>276.04</ele>
        <time>2021-08-09T13:54:39Z</time>
      </trkpt>
      <trkpt lat="49.14746" lon="4.09984">
        <ele>276.52</ele>
        <time>2021-08-09T13:54:40Z</time>
      </trkpt>
      <trkpt lat="49.14747" lon="4.09986">
        <ele>276.52</ele>
        <time>2021-08-09T13:54:41Z</time>
      </trkpt>
      <trkpt lat="49.14749" lon="4.09987">
        <ele>276.52</ele>
        <time>2021-08-09T13:54:42Z</time>
      </trkpt>
      <trkpt lat="49.1475" lon="4.09989">
        <ele>277</ele>
        <time>2021-08-09T13:54:43Z</time>
      </trkpt>
      <trkpt lat="49.14751" lon="4.09991">
        <ele>277</ele>
        <time>2021-08-09T13:54:44Z</time>
      </trkpt>
      <trkpt lat="49.14752" lon="4.09992">
        <ele>277</ele>
        <time>2021-08-09T13:54:45Z</time>
      </trkpt>
      <trkpt lat="49.14753" lon="4.09994">
        <ele>277</ele>
        <time>2021-08-09T13:54:46Z</time>
      </trkpt>
      <trkpt lat="49.14755" lon="4.09996">
        <ele>277</ele>
        <time>2021-08-09T13:54:47Z</time>
      </trkpt>
      <trkpt lat="49.14766" lon="4.10013">
        <ele>277.48</ele>
        <time>2021-08-09T13:54:54Z</time>
      </trkpt>
      <trkpt lat="49.14774" lon="4.10034">
        <ele>277.48</ele>
        <time>2021-08-09T13:55:01Z</time>
      </trkpt>
      <trkpt lat="49.14776" lon="4.10038">
        <ele>277.48</ele>
        <time>2021-08-09T13:55:02Z</time>
      </trkpt>
      <trkpt lat="49.14777" lon="4.10041">
        <ele>277.48</ele>
        <time>2021-08-09T13:55:03Z</time>
      </trkpt>
      <trkpt lat="49.14777" lon="4.10044">
        <ele>277.48</ele>
        <time>2021-08-09T13:55:04Z</time>
      </trkpt>
      <trkpt lat="49.14777" lon="4.10047">
        <ele>277.48</ele>
        <time>2021-08-09T13:55:05Z</time>
      </trkpt>
      <trkpt lat="49.14778" lon="4.10049">
        <ele>277.48</ele>
        <time>2021-08-09T13:55:07Z</time>
      </trkpt>
      <trkpt lat="49.14785" lon="4.10069">
        <ele>276.52</ele>
        <time>2021-08-09T13:55:13Z</time>
      </trkpt>
      <trkpt lat="49.14788" lon="4.10079">
        <ele>276.04</ele>
        <time>2021-08-09T13:55:16Z</time>
      </trkpt>
      <trkpt lat="49.14789" lon="4.10083">
        <ele>276.04</ele>
        <time>2021-08-09T13:55:17Z</time>
      </trkpt>
      <trkpt lat="49.1479" lon="4.10087">
        <ele>276.04</ele>
        <time>2021-08-09T13:55:18Z</time>
      </trkpt>
      <trkpt lat="49.14792" lon="4.10092">
        <ele>276.04</ele>
        <time>2021-08-09T13:55:19Z</time>
      </trkpt>
      <trkpt lat="49.14793" lon="4.10096">
        <ele>275.07</ele>
        <time>2021-08-09T13:55:20Z</time>
      </trkpt>
      <trkpt lat="49.14795" lon="4.101">
        <ele>275.07</ele>
        <time>2021-08-09T13:55:21Z</time>
      </trkpt>
      <trkpt lat="49.14796" lon="4.10103">
        <ele>275.07</ele>
        <time>2021-08-09T13:55:22Z</time>
      </trkpt>
      <trkpt lat="49.14798" lon="4.10107">
        <ele>275.07</ele>
        <time>2021-08-09T13:55:23Z</time>
      </trkpt>
      <trkpt lat="49.14799" lon="4.10113">
        <ele>275.07</ele>
        <time>2021-08-09T13:55:24Z</time>
      </trkpt>
      <trkpt lat="49.14805" lon="4.10139">
        <ele>274.11</ele>
        <time>2021-08-09T13:55:29Z</time>
      </trkpt>
      <trkpt lat="49.14807" lon="4.10146">
        <ele>274.11</ele>
        <time>2021-08-09T13:55:31Z</time>
      </trkpt>
      <trkpt lat="49.14814" lon="4.10175">
        <ele>274.11</ele>
        <time>2021-08-09T13:55:37Z</time>
      </trkpt>
      <trkpt lat="49.14818" lon="4.10199">
        <ele>275.56</ele>
        <time>2021-08-09T13:55:42Z</time>
      </trkpt>
      <trkpt lat="49.14826" lon="4.10237">
        <ele>275.56</ele>
        <time>2021-08-09T13:55:50Z</time>
      </trkpt>
      <trkpt lat="49.1483" lon="4.10273">
        <ele>275.56</ele>
        <time>2021-08-09T13:55:57Z</time>
      </trkpt>
      <trkpt lat="49.14832" lon="4.10289">
        <ele>275.56</ele>
        <time>2021-08-09T13:56:01Z</time>
      </trkpt>
      <trkpt lat="49.14831" lon="4.10293">
        <ele>275.56</ele>
        <time>2021-08-09T13:56:02Z</time>
      </trkpt>
      <trkpt lat="49.14832" lon="4.10296">
        <ele>275.56</ele>
        <time>2021-08-09T13:56:03Z</time>
      </trkpt>
      <trkpt lat="49.14832" lon="4.10299">
        <ele>275.56</ele>
        <time>2021-08-09T13:56:04Z</time>
      </trkpt>
      <trkpt lat="49.14833" lon="4.10303">
        <ele>275.56</ele>
        <time>2021-08-09T13:56:05Z</time>
      </trkpt>
      <trkpt lat="49.14835" lon="4.10329">
        <ele>275.56</ele>
        <time>2021-08-09T13:56:11Z</time>
      </trkpt>
      <trkpt lat="49.14838" lon="4.10356">
        <ele>276.52</ele>
        <time>2021-08-09T13:56:17Z</time>
      </trkpt>
      <trkpt lat="49.14839" lon="4.10386">
        <ele>276.52</ele>
        <time>2021-08-09T13:56:25Z</time>
      </trkpt>
      <trkpt lat="49.14838" lon="4.10395">
        <ele>275.07</ele>
        <time>2021-08-09T13:56:27Z</time>
      </trkpt>
      <trkpt lat="49.14835" lon="4.10426">
        <ele>273.63</ele>
        <time>2021-08-09T13:56:33Z</time>
      </trkpt>
      <trkpt lat="49.14834" lon="4.10433">
        <ele>273.63</ele>
        <time>2021-08-09T13:56:34Z</time>
      </trkpt>
      <trkpt lat="49.14834" lon="4.10439">
        <ele>273.15</ele>
        <time>2021-08-09T13:56:35Z</time>
      </trkpt>
      <trkpt lat="49.14833" lon="4.10461">
        <ele>273.15</ele>
        <time>2021-08-09T13:56:38Z</time>
      </trkpt>
      <trkpt lat="49.14827" lon="4.10496">
        <ele>273.63</ele>
        <time>2021-08-09T13:56:44Z</time>
      </trkpt>
      <trkpt lat="49.14824" lon="4.10527">
        <ele>273.63</ele>
        <time>2021-08-09T13:56:50Z</time>
      </trkpt>
      <trkpt lat="49.14821" lon="4.10565">
        <ele>274.11</ele>
        <time>2021-08-09T13:56:57Z</time>
      </trkpt>
      <trkpt lat="49.14821" lon="4.10605">
        <ele>274.11</ele>
        <time>2021-08-09T13:57:04Z</time>
      </trkpt>
      <trkpt lat="49.1482" lon="4.10656">
        <ele>275.07</ele>
        <time>2021-08-09T13:57:12Z</time>
      </trkpt>
      <trkpt lat="49.14819" lon="4.10704">
        <ele>275.56</ele>
        <time>2021-08-09T13:57:19Z</time>
      </trkpt>
      <trkpt lat="49.14817" lon="4.10763">
        <ele>277</ele>
        <time>2021-08-09T13:57:28Z</time>
      </trkpt>
      <trkpt lat="49.14816" lon="4.1079">
        <ele>277.48</ele>
        <time>2021-08-09T13:57:33Z</time>
      </trkpt>
      <trkpt lat="49.14813" lon="4.1082">
        <ele>277.96</ele>
        <time>2021-08-09T13:57:39Z</time>
      </trkpt>
      <trkpt lat="49.14812" lon="4.10853">
        <ele>278.44</ele>
        <time>2021-08-09T13:57:45Z</time>
      </trkpt>
      <trkpt lat="49.1481" lon="4.10897">
        <ele>278.92</ele>
        <time>2021-08-09T13:57:53Z</time>
      </trkpt>
      <trkpt lat="49.14804" lon="4.10933">
        <ele>279.88</ele>
        <time>2021-08-09T13:58:00Z</time>
      </trkpt>
      <trkpt lat="49.14798" lon="4.10978">
        <ele>280.84</ele>
        <time>2021-08-09T13:58:09Z</time>
      </trkpt>
      <trkpt lat="49.14795" lon="4.11006">
        <ele>280.84</ele>
        <time>2021-08-09T13:58:15Z</time>
      </trkpt>
      <trkpt lat="49.14788" lon="4.1105">
        <ele>281.8</ele>
        <time>2021-08-09T13:58:23Z</time>
      </trkpt>
      <trkpt lat="49.14781" lon="4.11106">
        <ele>282.77</ele>
        <time>2021-08-09T13:58:33Z</time>
      </trkpt>
      <trkpt lat="49.14776" lon="4.11154">
        <ele>283.25</ele>
        <time>2021-08-09T13:58:41Z</time>
      </trkpt>
      <trkpt lat="49.14774" lon="4.11185">
        <ele>283.25</ele>
        <time>2021-08-09T13:58:46Z</time>
      </trkpt>
      <trkpt lat="49.14772" lon="4.11216">
        <ele>283.73</ele>
        <time>2021-08-09T13:58:51Z</time>
      </trkpt>
      <trkpt lat="49.14772" lon="4.11223">
        <ele>283.73</ele>
        <time>2021-08-09T13:58:52Z</time>
      </trkpt>
      <trkpt lat="49.14771" lon="4.11229">
        <ele>283.73</ele>
        <time>2021-08-09T13:58:53Z</time>
      </trkpt>
      <trkpt lat="49.1477" lon="4.11235">
        <ele>283.73</ele>
        <time>2021-08-09T13:58:54Z</time>
      </trkpt>
      <trkpt lat="49.1477" lon="4.11242">
        <ele>283.73</ele>
        <time>2021-08-09T13:58:55Z</time>
      </trkpt>
      <trkpt lat="49.14771" lon="4.1131">
        <ele>284.21</ele>
        <time>2021-08-09T13:59:05Z</time>
      </trkpt>
      <trkpt lat="49.14775" lon="4.11361">
        <ele>284.69</ele>
        <time>2021-08-09T13:59:13Z</time>
      </trkpt>
      <trkpt lat="49.14775" lon="4.11394">
        <ele>285.17</ele>
        <time>2021-08-09T13:59:18Z</time>
      </trkpt>
      <trkpt lat="49.14775" lon="4.11402">
        <ele>285.17</ele>
        <time>2021-08-09T13:59:19Z</time>
      </trkpt>
      <trkpt lat="49.1478" lon="4.11443">
        <ele>286.13</ele>
        <time>2021-08-09T13:59:26Z</time>
      </trkpt>
      <trkpt lat="49.14784" lon="4.1148">
        <ele>286.13</ele>
        <time>2021-08-09T13:59:32Z</time>
      </trkpt>
      <trkpt lat="49.14788" lon="4.11517">
        <ele>286.61</ele>
        <time>2021-08-09T13:59:38Z</time>
      </trkpt>
      <trkpt lat="49.14789" lon="4.11522">
        <ele>286.61</ele>
        <time>2021-08-09T13:59:39Z</time>
      </trkpt>
      <trkpt lat="49.14789" lon="4.11529">
        <ele>286.61</ele>
        <time>2021-08-09T13:59:40Z</time>
      </trkpt>
      <trkpt lat="49.1479" lon="4.11541">
        <ele>287.09</ele>
        <time>2021-08-09T13:59:42Z</time>
      </trkpt>
      <trkpt lat="49.14795" lon="4.11566">
        <ele>287.57</ele>
        <time>2021-08-09T13:59:46Z</time>
      </trkpt>
      <trkpt lat="49.14796" lon="4.11573">
        <ele>287.57</ele>
        <time>2021-08-09T13:59:47Z</time>
      </trkpt>
      <trkpt lat="49.14804" lon="4.11623">
        <ele>288.05</ele>
        <time>2021-08-09T13:59:55Z</time>
      </trkpt>
      <trkpt lat="49.14805" lon="4.11629">
        <ele>288.05</ele>
        <time>2021-08-09T13:59:56Z</time>
      </trkpt>
      <trkpt lat="49.14805" lon="4.11636">
        <ele>288.05</ele>
        <time>2021-08-09T13:59:57Z</time>
      </trkpt>
      <trkpt lat="49.14806" lon="4.11641">
        <ele>288.05</ele>
        <time>2021-08-09T13:59:58Z</time>
      </trkpt>
      <trkpt lat="49.14807" lon="4.11648">
        <ele>288.05</ele>
        <time>2021-08-09T13:59:59Z</time>
      </trkpt>
      <trkpt lat="49.14808" lon="4.11654">
        <ele>288.05</ele>
        <time>2021-08-09T14:00:00Z</time>
      </trkpt>
      <trkpt lat="49.1481" lon="4.11674">
        <ele>288.05</ele>
        <time>2021-08-09T14:00:03Z</time>
      </trkpt>
      <trkpt lat="49.14811" lon="4.11679">
        <ele>288.05</ele>
        <time>2021-08-09T14:00:04Z</time>
      </trkpt>
      <trkpt lat="49.14816" lon="4.1172">
        <ele>288.05</ele>
        <time>2021-08-09T14:00:10Z</time>
      </trkpt>
      <trkpt lat="49.14816" lon="4.11726">
        <ele>288.05</ele>
        <time>2021-08-09T14:00:11Z</time>
      </trkpt>
      <trkpt lat="49.14817" lon="4.11732">
        <ele>288.05</ele>
        <time>2021-08-09T14:00:12Z</time>
      </trkpt>
      <trkpt lat="49.14822" lon="4.11772">
        <ele>288.53</ele>
        <time>2021-08-09T14:00:18Z</time>
      </trkpt>
      <trkpt lat="49.14831" lon="4.11838">
        <ele>288.53</ele>
        <time>2021-08-09T14:00:27Z</time>
      </trkpt>
      <trkpt lat="49.14833" lon="4.11852">
        <ele>288.53</ele>
        <time>2021-08-09T14:00:29Z</time>
      </trkpt>
      <trkpt lat="49.14836" lon="4.11907">
        <ele>289.49</ele>
        <time>2021-08-09T14:00:37Z</time>
      </trkpt>
      <trkpt lat="49.1484" lon="4.11958">
        <ele>290.46</ele>
        <time>2021-08-09T14:00:45Z</time>
      </trkpt>
      <trkpt lat="49.14841" lon="4.11983">
        <ele>290.46</ele>
        <time>2021-08-09T14:00:49Z</time>
      </trkpt>
      <trkpt lat="49.14842" lon="4.1199">
        <ele>290.46</ele>
        <time>2021-08-09T14:00:50Z</time>
      </trkpt>
      <trkpt lat="49.14842" lon="4.12003">
        <ele>290.46</ele>
        <time>2021-08-09T14:00:52Z</time>
      </trkpt>
      <trkpt lat="49.14842" lon="4.1201">
        <ele>290.46</ele>
        <time>2021-08-09T14:00:53Z</time>
      </trkpt>
      <trkpt lat="49.14843" lon="4.12016">
        <ele>290.46</ele>
        <time>2021-08-09T14:00:54Z</time>
      </trkpt>
      <trkpt lat="49.14846" lon="4.12076">
        <ele>290.46</ele>
        <time>2021-08-09T14:01:03Z</time>
      </trkpt>
      <trkpt lat="49.14849" lon="4.12097">
        <ele>290.46</ele>
        <time>2021-08-09T14:01:06Z</time>
      </trkpt>
      <trkpt lat="49.14849" lon="4.12103">
        <ele>290.46</ele>
        <time>2021-08-09T14:01:07Z</time>
      </trkpt>
      <trkpt lat="49.14849" lon="4.12154">
        <ele>290.46</ele>
        <time>2021-08-09T14:01:14Z</time>
      </trkpt>
      <trkpt lat="49.14842" lon="4.12209">
        <ele>290.46</ele>
        <time>2021-08-09T14:01:22Z</time>
      </trkpt>
      <trkpt lat="49.14838" lon="4.12236">
        <ele>290.46</ele>
        <time>2021-08-09T14:01:26Z</time>
      </trkpt>
      <trkpt lat="49.1483" lon="4.12308">
        <ele>290.46</ele>
        <time>2021-08-09T14:01:36Z</time>
      </trkpt>
      <trkpt lat="49.14822" lon="4.12359">
        <ele>290.46</ele>
        <time>2021-08-09T14:01:43Z</time>
      </trkpt>
      <trkpt lat="49.14814" lon="4.12401">
        <ele>290.46</ele>
        <time>2021-08-09T14:01:50Z</time>
      </trkpt>
      <trkpt lat="49.14809" lon="4.12444">
        <ele>290.94</ele>
        <time>2021-08-09T14:01:56Z</time>
      </trkpt>
      <trkpt lat="49.14808" lon="4.12482">
        <ele>290.94</ele>
        <time>2021-08-09T14:02:01Z</time>
      </trkpt>
      <trkpt lat="49.14808" lon="4.1252">
        <ele>291.42</ele>
        <time>2021-08-09T14:02:06Z</time>
      </trkpt>
      <trkpt lat="49.14808" lon="4.12528">
        <ele>291.42</ele>
        <time>2021-08-09T14:02:07Z</time>
      </trkpt>
      <trkpt lat="49.1481" lon="4.12578">
        <ele>292.38</ele>
        <time>2021-08-09T14:02:14Z</time>
      </trkpt>
      <trkpt lat="49.1481" lon="4.12585">
        <ele>292.38</ele>
        <time>2021-08-09T14:02:15Z</time>
      </trkpt>
      <trkpt lat="49.14809" lon="4.12657">
        <ele>292.38</ele>
        <time>2021-08-09T14:02:25Z</time>
      </trkpt>
      <trkpt lat="49.14809" lon="4.1269">
        <ele>292.86</ele>
        <time>2021-08-09T14:02:30Z</time>
      </trkpt>
      <trkpt lat="49.14808" lon="4.12733">
        <ele>293.82</ele>
        <time>2021-08-09T14:02:37Z</time>
      </trkpt>
      <trkpt lat="49.14803" lon="4.12804">
        <ele>294.78</ele>
        <time>2021-08-09T14:02:48Z</time>
      </trkpt>
      <trkpt lat="49.14802" lon="4.12837">
        <ele>294.78</ele>
        <time>2021-08-09T14:02:53Z</time>
      </trkpt>
      <trkpt lat="49.14802" lon="4.12843">
        <ele>294.78</ele>
        <time>2021-08-09T14:02:54Z</time>
      </trkpt>
      <trkpt lat="49.14801" lon="4.1285">
        <ele>295.26</ele>
        <time>2021-08-09T14:02:55Z</time>
      </trkpt>
      <trkpt lat="49.14797" lon="4.12917">
        <ele>295.26</ele>
        <time>2021-08-09T14:03:05Z</time>
      </trkpt>
      <trkpt lat="49.14795" lon="4.1298">
        <ele>296.22</ele>
        <time>2021-08-09T14:03:15Z</time>
      </trkpt>
      <trkpt lat="49.14794" lon="4.12987">
        <ele>296.22</ele>
        <time>2021-08-09T14:03:16Z</time>
      </trkpt>
      <trkpt lat="49.14795" lon="4.12993">
        <ele>296.7</ele>
        <time>2021-08-09T14:03:17Z</time>
      </trkpt>
      <trkpt lat="49.14795" lon="4.12999">
        <ele>296.7</ele>
        <time>2021-08-09T14:03:18Z</time>
      </trkpt>
      <trkpt lat="49.14792" lon="4.13033">
        <ele>296.7</ele>
        <time>2021-08-09T14:03:23Z</time>
      </trkpt>
      <trkpt lat="49.14792" lon="4.1304">
        <ele>296.7</ele>
        <time>2021-08-09T14:03:24Z</time>
      </trkpt>
      <trkpt lat="49.14792" lon="4.13053">
        <ele>296.7</ele>
        <time>2021-08-09T14:03:26Z</time>
      </trkpt>
      <trkpt lat="49.14789" lon="4.13101">
        <ele>296.7</ele>
        <time>2021-08-09T14:03:33Z</time>
      </trkpt>
      <trkpt lat="49.14789" lon="4.13115">
        <ele>296.7</ele>
        <time>2021-08-09T14:03:35Z</time>
      </trkpt>
      <trkpt lat="49.14787" lon="4.13176">
        <ele>297.18</ele>
        <time>2021-08-09T14:03:44Z</time>
      </trkpt>
      <trkpt lat="49.14786" lon="4.13183">
        <ele>297.18</ele>
        <time>2021-08-09T14:03:45Z</time>
      </trkpt>
      <trkpt lat="49.14785" lon="4.13192">
        <ele>297.18</ele>
        <time>2021-08-09T14:03:46Z</time>
      </trkpt>
      <trkpt lat="49.14783" lon="4.13222">
        <ele>297.18</ele>
        <time>2021-08-09T14:03:50Z</time>
      </trkpt>
      <trkpt lat="49.14777" lon="4.13264">
        <ele>297.18</ele>
        <time>2021-08-09T14:03:57Z</time>
      </trkpt>
      <trkpt lat="49.14779" lon="4.13307">
        <ele>297.18</ele>
        <time>2021-08-09T14:04:04Z</time>
      </trkpt>
      <trkpt lat="49.14785" lon="4.13355">
        <ele>296.7</ele>
        <time>2021-08-09T14:04:12Z</time>
      </trkpt>
      <trkpt lat="49.14789" lon="4.13408">
        <ele>296.7</ele>
        <time>2021-08-09T14:04:20Z</time>
      </trkpt>
      <trkpt lat="49.14791" lon="4.13421">
        <ele>296.7</ele>
        <time>2021-08-09T14:04:22Z</time>
      </trkpt>
      <trkpt lat="49.14792" lon="4.13428">
        <ele>296.7</ele>
        <time>2021-08-09T14:04:23Z</time>
      </trkpt>
      <trkpt lat="49.14794" lon="4.13435">
        <ele>296.7</ele>
        <time>2021-08-09T14:04:24Z</time>
      </trkpt>
      <trkpt lat="49.14795" lon="4.13441">
        <ele>296.7</ele>
        <time>2021-08-09T14:04:25Z</time>
      </trkpt>
      <trkpt lat="49.14796" lon="4.13448">
        <ele>296.7</ele>
        <time>2021-08-09T14:04:26Z</time>
      </trkpt>
      <trkpt lat="49.14811" lon="4.135">
        <ele>295.74</ele>
        <time>2021-08-09T14:04:34Z</time>
      </trkpt>
      <trkpt lat="49.14817" lon="4.1352">
        <ele>295.74</ele>
        <time>2021-08-09T14:04:37Z</time>
      </trkpt>
      <trkpt lat="49.14826" lon="4.13555">
        <ele>295.74</ele>
        <time>2021-08-09T14:04:42Z</time>
      </trkpt>
      <trkpt lat="49.14827" lon="4.13563">
        <ele>295.74</ele>
        <time>2021-08-09T14:04:43Z</time>
      </trkpt>
      <trkpt lat="49.1483" lon="4.13592">
        <ele>295.26</ele>
        <time>2021-08-09T14:04:47Z</time>
      </trkpt>
      <trkpt lat="49.1483" lon="4.136">
        <ele>295.26</ele>
        <time>2021-08-09T14:04:48Z</time>
      </trkpt>
      <trkpt lat="49.1483" lon="4.13608">
        <ele>295.26</ele>
        <time>2021-08-09T14:04:49Z</time>
      </trkpt>
      <trkpt lat="49.14827" lon="4.13655">
        <ele>295.26</ele>
        <time>2021-08-09T14:04:55Z</time>
      </trkpt>
      <trkpt lat="49.14826" lon="4.13663">
        <ele>295.26</ele>
        <time>2021-08-09T14:04:56Z</time>
      </trkpt>
      <trkpt lat="49.14824" lon="4.13671">
        <ele>294.78</ele>
        <time>2021-08-09T14:04:57Z</time>
      </trkpt>
      <trkpt lat="49.14822" lon="4.13679">
        <ele>294.78</ele>
        <time>2021-08-09T14:04:58Z</time>
      </trkpt>
      <trkpt lat="49.14819" lon="4.13687">
        <ele>294.78</ele>
        <time>2021-08-09T14:04:59Z</time>
      </trkpt>
      <trkpt lat="49.14806" lon="4.13717">
        <ele>294.78</ele>
        <time>2021-08-09T14:05:03Z</time>
      </trkpt>
      <trkpt lat="49.14799" lon="4.13731">
        <ele>294.78</ele>
        <time>2021-08-09T14:05:05Z</time>
      </trkpt>
      <trkpt lat="49.14795" lon="4.13737">
        <ele>294.78</ele>
        <time>2021-08-09T14:05:06Z</time>
      </trkpt>
      <trkpt lat="49.14763" lon="4.13788">
        <ele>294.3</ele>
        <time>2021-08-09T14:05:14Z</time>
      </trkpt>
      <trkpt lat="49.14729" lon="4.13856">
        <ele>293.82</ele>
        <time>2021-08-09T14:05:24Z</time>
      </trkpt>
      <trkpt lat="49.14703" lon="4.13913">
        <ele>293.82</ele>
        <time>2021-08-09T14:05:32Z</time>
      </trkpt>
      <trkpt lat="49.14675" lon="4.13972">
        <ele>293.34</ele>
        <time>2021-08-09T14:05:41Z</time>
      </trkpt>
      <trkpt lat="49.1466" lon="4.14014">
        <ele>292.86</ele>
        <time>2021-08-09T14:05:47Z</time>
      </trkpt>
      <trkpt lat="49.1465" lon="4.14089">
        <ele>292.86</ele>
        <time>2021-08-09T14:05:56Z</time>
      </trkpt>
      <trkpt lat="49.14649" lon="4.14098">
        <ele>292.86</ele>
        <time>2021-08-09T14:05:57Z</time>
      </trkpt>
      <trkpt lat="49.14648" lon="4.14106">
        <ele>292.86</ele>
        <time>2021-08-09T14:05:58Z</time>
      </trkpt>
      <trkpt lat="49.14642" lon="4.14193">
        <ele>293.82</ele>
        <time>2021-08-09T14:06:08Z</time>
      </trkpt>
      <trkpt lat="49.14641" lon="4.14239">
        <ele>293.82</ele>
        <time>2021-08-09T14:06:14Z</time>
      </trkpt>
      <trkpt lat="49.14645" lon="4.14315">
        <ele>294.3</ele>
        <time>2021-08-09T14:06:24Z</time>
      </trkpt>
      <trkpt lat="49.14649" lon="4.14384">
        <ele>294.3</ele>
        <time>2021-08-09T14:06:33Z</time>
      </trkpt>
      <trkpt lat="49.14652" lon="4.14441">
        <ele>294.3</ele>
        <time>2021-08-09T14:06:41Z</time>
      </trkpt>
      <trkpt lat="49.14653" lon="4.14454">
        <ele>294.3</ele>
        <time>2021-08-09T14:06:43Z</time>
      </trkpt>
      <trkpt lat="49.14653" lon="4.14461">
        <ele>294.3</ele>
        <time>2021-08-09T14:06:44Z</time>
      </trkpt>
      <trkpt lat="49.14655" lon="4.14494">
        <ele>294.3</ele>
        <time>2021-08-09T14:06:49Z</time>
      </trkpt>
      <trkpt lat="49.14658" lon="4.14552">
        <ele>292.38</ele>
        <time>2021-08-09T14:06:56Z</time>
      </trkpt>
      <trkpt lat="49.14659" lon="4.1456">
        <ele>292.38</ele>
        <time>2021-08-09T14:06:57Z</time>
      </trkpt>
      <trkpt lat="49.14663" lon="4.14626">
        <ele>292.38</ele>
        <time>2021-08-09T14:07:05Z</time>
      </trkpt>
      <trkpt lat="49.14666" lon="4.14694">
        <ele>291.9</ele>
        <time>2021-08-09T14:07:13Z</time>
      </trkpt>
      <trkpt lat="49.14671" lon="4.14777">
        <ele>291.9</ele>
        <time>2021-08-09T14:07:23Z</time>
      </trkpt>
      <trkpt lat="49.14675" lon="4.14864">
        <ele>290.94</ele>
        <time>2021-08-09T14:07:33Z</time>
      </trkpt>
      <trkpt lat="49.14677" lon="4.14923">
        <ele>290.46</ele>
        <time>2021-08-09T14:07:40Z</time>
      </trkpt>
      <trkpt lat="49.14678" lon="4.14978">
        <ele>290.46</ele>
        <time>2021-08-09T14:07:47Z</time>
      </trkpt>
      <trkpt lat="49.14679" lon="4.14985">
        <ele>290.46</ele>
        <time>2021-08-09T14:07:48Z</time>
      </trkpt>
      <trkpt lat="49.1468" lon="4.15">
        <ele>289.97</ele>
        <time>2021-08-09T14:07:50Z</time>
      </trkpt>
      <trkpt lat="49.14681" lon="4.15023">
        <ele>289.97</ele>
        <time>2021-08-09T14:07:53Z</time>
      </trkpt>
      <trkpt lat="49.14681" lon="4.15031">
        <ele>289.49</ele>
        <time>2021-08-09T14:07:54Z</time>
      </trkpt>
      <trkpt lat="49.14684" lon="4.15092">
        <ele>288.53</ele>
        <time>2021-08-09T14:08:01Z</time>
      </trkpt>
      <trkpt lat="49.14684" lon="4.151">
        <ele>288.05</ele>
        <time>2021-08-09T14:08:02Z</time>
      </trkpt>
      <trkpt lat="49.14685" lon="4.15151">
        <ele>286.61</ele>
        <time>2021-08-09T14:08:08Z</time>
      </trkpt>
      <trkpt lat="49.14685" lon="4.1516">
        <ele>286.61</ele>
        <time>2021-08-09T14:08:09Z</time>
      </trkpt>
      <trkpt lat="49.14683" lon="4.15169">
        <ele>286.61</ele>
        <time>2021-08-09T14:08:10Z</time>
      </trkpt>
      <trkpt lat="49.14681" lon="4.15176">
        <ele>286.13</ele>
        <time>2021-08-09T14:08:11Z</time>
      </trkpt>
      <trkpt lat="49.14677" lon="4.15184">
        <ele>286.13</ele>
        <time>2021-08-09T14:08:12Z</time>
      </trkpt>
      <trkpt lat="49.14674" lon="4.15189">
        <ele>286.13</ele>
        <time>2021-08-09T14:08:13Z</time>
      </trkpt>
      <trkpt lat="49.14662" lon="4.15201">
        <ele>286.13</ele>
        <time>2021-08-09T14:08:16Z</time>
      </trkpt>
      <trkpt lat="49.14659" lon="4.15205">
        <ele>286.13</ele>
        <time>2021-08-09T14:08:17Z</time>
      </trkpt>
      <trkpt lat="49.14639" lon="4.15228">
        <ele>288.05</ele>
        <time>2021-08-09T14:08:24Z</time>
      </trkpt>
      <trkpt lat="49.14612" lon="4.15258">
        <ele>288.05</ele>
        <time>2021-08-09T14:08:33Z</time>
      </trkpt>
      <trkpt lat="49.14586" lon="4.15288">
        <ele>288.53</ele>
        <time>2021-08-09T14:08:41Z</time>
      </trkpt>
      <trkpt lat="49.14552" lon="4.15321">
        <ele>288.53</ele>
        <time>2021-08-09T14:08:50Z</time>
      </trkpt>
      <trkpt lat="49.14532" lon="4.15346">
        <ele>289.49</ele>
        <time>2021-08-09T14:08:56Z</time>
      </trkpt>
      <trkpt lat="49.14496" lon="4.15384">
        <ele>289.97</ele>
        <time>2021-08-09T14:09:05Z</time>
      </trkpt>
      <trkpt lat="49.14488" lon="4.15392">
        <ele>289.97</ele>
        <time>2021-08-09T14:09:07Z</time>
      </trkpt>
      <trkpt lat="49.14477" lon="4.15406">
        <ele>289.97</ele>
        <time>2021-08-09T14:09:10Z</time>
      </trkpt>
      <trkpt lat="49.1446" lon="4.15423">
        <ele>289.97</ele>
        <time>2021-08-09T14:09:14Z</time>
      </trkpt>
      <trkpt lat="49.1443" lon="4.15456">
        <ele>289.97</ele>
        <time>2021-08-09T14:09:21Z</time>
      </trkpt>
      <trkpt lat="49.14427" lon="4.15459">
        <ele>289.97</ele>
        <time>2021-08-09T14:09:22Z</time>
      </trkpt>
      <trkpt lat="49.14402" lon="4.15486">
        <ele>288.53</ele>
        <time>2021-08-09T14:09:28Z</time>
      </trkpt>
      <trkpt lat="49.14392" lon="4.15494">
        <ele>288.53</ele>
        <time>2021-08-09T14:09:30Z</time>
      </trkpt>
      <trkpt lat="49.1436" lon="4.15526">
        <ele>288.53</ele>
        <time>2021-08-09T14:09:37Z</time>
      </trkpt>
      <trkpt lat="49.14355" lon="4.1553">
        <ele>288.53</ele>
        <time>2021-08-09T14:09:38Z</time>
      </trkpt>
      <trkpt lat="49.1435" lon="4.15533">
        <ele>288.53</ele>
        <time>2021-08-09T14:09:39Z</time>
      </trkpt>
      <trkpt lat="49.14345" lon="4.15535">
        <ele>288.53</ele>
        <time>2021-08-09T14:09:40Z</time>
      </trkpt>
      <trkpt lat="49.1434" lon="4.15536">
        <ele>288.53</ele>
        <time>2021-08-09T14:09:41Z</time>
      </trkpt>
      <trkpt lat="49.14335" lon="4.15537">
        <ele>288.53</ele>
        <time>2021-08-09T14:09:42Z</time>
      </trkpt>
      <trkpt lat="49.1433" lon="4.15537">
        <ele>288.53</ele>
        <time>2021-08-09T14:09:43Z</time>
      </trkpt>
      <trkpt lat="49.14325" lon="4.15539">
        <ele>288.53</ele>
        <time>2021-08-09T14:09:44Z</time>
      </trkpt>
      <trkpt lat="49.14301" lon="4.1555">
        <ele>287.57</ele>
        <time>2021-08-09T14:09:49Z</time>
      </trkpt>
      <trkpt lat="49.14297" lon="4.15555">
        <ele>287.09</ele>
        <time>2021-08-09T14:09:50Z</time>
      </trkpt>
      <trkpt lat="49.14293" lon="4.15558">
        <ele>287.09</ele>
        <time>2021-08-09T14:09:51Z</time>
      </trkpt>
      <trkpt lat="49.1429" lon="4.1556">
        <ele>287.09</ele>
        <time>2021-08-09T14:09:52Z</time>
      </trkpt>
      <trkpt lat="49.14287" lon="4.15561">
        <ele>287.09</ele>
        <time>2021-08-09T14:09:53Z</time>
      </trkpt>
      <trkpt lat="49.14285" lon="4.15561">
        <ele>287.09</ele>
        <time>2021-08-09T14:09:54Z</time>
      </trkpt>
      <trkpt lat="49.14282" lon="4.15561">
        <ele>287.09</ele>
        <time>2021-08-09T14:09:55Z</time>
      </trkpt>
      <trkpt lat="49.1428" lon="4.15561">
        <ele>287.09</ele>
        <time>2021-08-09T14:09:56Z</time>
      </trkpt>
      <trkpt lat="49.14277" lon="4.15561">
        <ele>287.09</ele>
        <time>2021-08-09T14:09:57Z</time>
      </trkpt>
      <trkpt lat="49.14259" lon="4.1557">
        <ele>288.05</ele>
        <time>2021-08-09T14:10:03Z</time>
      </trkpt>
      <trkpt lat="49.14256" lon="4.15572">
        <ele>288.05</ele>
        <time>2021-08-09T14:10:04Z</time>
      </trkpt>
      <trkpt lat="49.14234" lon="4.15584">
        <ele>288.05</ele>
        <time>2021-08-09T14:10:11Z</time>
      </trkpt>
      <trkpt lat="49.14214" lon="4.15592">
        <ele>289.01</ele>
        <time>2021-08-09T14:10:16Z</time>
      </trkpt>
      <trkpt lat="49.14193" lon="4.15601">
        <ele>289.01</ele>
        <time>2021-08-09T14:10:21Z</time>
      </trkpt>
      <trkpt lat="49.14188" lon="4.15603">
        <ele>289.01</ele>
        <time>2021-08-09T14:10:22Z</time>
      </trkpt>
      <trkpt lat="49.14168" lon="4.15614">
        <ele>289.01</ele>
        <time>2021-08-09T14:10:27Z</time>
      </trkpt>
      <trkpt lat="49.14164" lon="4.15617">
        <ele>289.01</ele>
        <time>2021-08-09T14:10:28Z</time>
      </trkpt>
      <trkpt lat="49.14141" lon="4.15638">
        <ele>289.49</ele>
        <time>2021-08-09T14:10:35Z</time>
      </trkpt>
      <trkpt lat="49.14118" lon="4.15643">
        <ele>290.94</ele>
        <time>2021-08-09T14:10:42Z</time>
      </trkpt>
      <trkpt lat="49.141" lon="4.15632">
        <ele>292.38</ele>
        <time>2021-08-09T14:10:48Z</time>
      </trkpt>
      <trkpt lat="49.14097" lon="4.15632">
        <ele>292.86</ele>
        <time>2021-08-09T14:10:49Z</time>
      </trkpt>
      <trkpt lat="49.14093" lon="4.15634">
        <ele>292.86</ele>
        <time>2021-08-09T14:10:50Z</time>
      </trkpt>
      <trkpt lat="49.14091" lon="4.15636">
        <ele>292.86</ele>
        <time>2021-08-09T14:10:51Z</time>
      </trkpt>
      <trkpt lat="49.14088" lon="4.15638">
        <ele>292.86</ele>
        <time>2021-08-09T14:10:52Z</time>
      </trkpt>
      <trkpt lat="49.14087" lon="4.1564">
        <ele>292.86</ele>
        <time>2021-08-09T14:10:53Z</time>
      </trkpt>
      <trkpt lat="49.14085" lon="4.15642">
        <ele>292.86</ele>
        <time>2021-08-09T14:10:54Z</time>
      </trkpt>
      <trkpt lat="49.14084" lon="4.15646">
        <ele>292.86</ele>
        <time>2021-08-09T14:10:55Z</time>
      </trkpt>
      <trkpt lat="49.14083" lon="4.1565">
        <ele>292.86</ele>
        <time>2021-08-09T14:10:56Z</time>
      </trkpt>
      <trkpt lat="49.14082" lon="4.15655">
        <ele>292.86</ele>
        <time>2021-08-09T14:10:57Z</time>
      </trkpt>
      <trkpt lat="49.14083" lon="4.15657">
        <ele>292.86</ele>
        <time>2021-08-09T14:10:58Z</time>
      </trkpt>
      <trkpt lat="49.14086" lon="4.15662">
        <ele>292.86</ele>
        <time>2021-08-09T14:10:59Z</time>
      </trkpt>
      <trkpt lat="49.14099" lon="4.15677">
        <ele>291.42</ele>
        <time>2021-08-09T14:11:03Z</time>
      </trkpt>
      <trkpt lat="49.14113" lon="4.15694">
        <ele>290.94</ele>
        <time>2021-08-09T14:11:07Z</time>
      </trkpt>
      <trkpt lat="49.14116" lon="4.15716">
        <ele>290.46</ele>
        <time>2021-08-09T14:11:11Z</time>
      </trkpt>
      <trkpt lat="49.14102" lon="4.15735">
        <ele>290.46</ele>
        <time>2021-08-09T14:11:16Z</time>
      </trkpt>
      <trkpt lat="49.14071" lon="4.15772">
        <ele>291.9</ele>
        <time>2021-08-09T14:11:25Z</time>
      </trkpt>
      <trkpt lat="49.14063" lon="4.15779">
        <ele>291.9</ele>
        <time>2021-08-09T14:11:27Z</time>
      </trkpt>
      <trkpt lat="49.14055" lon="4.15785">
        <ele>291.9</ele>
        <time>2021-08-09T14:11:29Z</time>
      </trkpt>
      <trkpt lat="49.14025" lon="4.15814">
        <ele>292.86</ele>
        <time>2021-08-09T14:11:37Z</time>
      </trkpt>
      <trkpt lat="49.14011" lon="4.15829">
        <ele>292.86</ele>
        <time>2021-08-09T14:11:41Z</time>
      </trkpt>
      <trkpt lat="49.14004" lon="4.15839">
        <ele>292.86</ele>
        <time>2021-08-09T14:11:43Z</time>
      </trkpt>
      <trkpt lat="49.14001" lon="4.15843">
        <ele>292.86</ele>
        <time>2021-08-09T14:11:44Z</time>
      </trkpt>
      <trkpt lat="49.13982" lon="4.15874">
        <ele>293.82</ele>
        <time>2021-08-09T14:11:50Z</time>
      </trkpt>
      <trkpt lat="49.1398" lon="4.15881">
        <ele>293.82</ele>
        <time>2021-08-09T14:11:51Z</time>
      </trkpt>
      <trkpt lat="49.13971" lon="4.15919">
        <ele>292.38</ele>
        <time>2021-08-09T14:11:56Z</time>
      </trkpt>
      <trkpt lat="49.13962" lon="4.15962">
        <ele>291.42</ele>
        <time>2021-08-09T14:12:01Z</time>
      </trkpt>
      <trkpt lat="49.1396" lon="4.15971">
        <ele>291.42</ele>
        <time>2021-08-09T14:12:02Z</time>
      </trkpt>
      <trkpt lat="49.13958" lon="4.15979">
        <ele>290.46</ele>
        <time>2021-08-09T14:12:03Z</time>
      </trkpt>
      <trkpt lat="49.13955" lon="4.15988">
        <ele>290.46</ele>
        <time>2021-08-09T14:12:04Z</time>
      </trkpt>
      <trkpt lat="49.13953" lon="4.15995">
        <ele>290.46</ele>
        <time>2021-08-09T14:12:05Z</time>
      </trkpt>
      <trkpt lat="49.13946" lon="4.1602">
        <ele>290.46</ele>
        <time>2021-08-09T14:12:08Z</time>
      </trkpt>
      <trkpt lat="49.13944" lon="4.16029">
        <ele>290.46</ele>
        <time>2021-08-09T14:12:09Z</time>
      </trkpt>
      <trkpt lat="49.13926" lon="4.16119">
        <ele>289.97</ele>
        <time>2021-08-09T14:12:19Z</time>
      </trkpt>
      <trkpt lat="49.13909" lon="4.16191">
        <ele>288.05</ele>
        <time>2021-08-09T14:12:26Z</time>
      </trkpt>
      <trkpt lat="49.13891" lon="4.16242">
        <ele>287.09</ele>
        <time>2021-08-09T14:12:31Z</time>
      </trkpt>
      <trkpt lat="49.13881" lon="4.16279">
        <ele>285.65</ele>
        <time>2021-08-09T14:12:34Z</time>
      </trkpt>
      <trkpt lat="49.13855" lon="4.16377">
        <ele>284.21</ele>
        <time>2021-08-09T14:12:42Z</time>
      </trkpt>
      <trkpt lat="49.13841" lon="4.16446">
        <ele>284.21</ele>
        <time>2021-08-09T14:12:48Z</time>
      </trkpt>
      <trkpt lat="49.13833" lon="4.16533">
        <ele>284.21</ele>
        <time>2021-08-09T14:12:56Z</time>
      </trkpt>
      <trkpt lat="49.13822" lon="4.16631">
        <ele>282.28</ele>
        <time>2021-08-09T14:13:05Z</time>
      </trkpt>
      <trkpt lat="49.13808" lon="4.16712">
        <ele>280.84</ele>
        <time>2021-08-09T14:13:12Z</time>
      </trkpt>
      <trkpt lat="49.13805" lon="4.16724">
        <ele>280.36</ele>
        <time>2021-08-09T14:13:13Z</time>
      </trkpt>
      <trkpt lat="49.138" lon="4.16735">
        <ele>279.4</ele>
        <time>2021-08-09T14:13:14Z</time>
      </trkpt>
      <trkpt lat="49.13795" lon="4.16746">
        <ele>278.44</ele>
        <time>2021-08-09T14:13:15Z</time>
      </trkpt>
      <trkpt lat="49.13789" lon="4.16757">
        <ele>277.48</ele>
        <time>2021-08-09T14:13:16Z</time>
      </trkpt>
      <trkpt lat="49.13782" lon="4.16766">
        <ele>277.48</ele>
        <time>2021-08-09T14:13:17Z</time>
      </trkpt>
      <trkpt lat="49.13761" lon="4.16794">
        <ele>276.04</ele>
        <time>2021-08-09T14:13:20Z</time>
      </trkpt>
      <trkpt lat="49.1372" lon="4.16845">
        <ele>275.07</ele>
        <time>2021-08-09T14:13:26Z</time>
      </trkpt>
      <trkpt lat="49.1371" lon="4.16859">
        <ele>274.59</ele>
        <time>2021-08-09T14:13:28Z</time>
      </trkpt>
      <trkpt lat="49.13703" lon="4.16865">
        <ele>274.59</ele>
        <time>2021-08-09T14:13:29Z</time>
      </trkpt>
      <trkpt lat="49.13697" lon="4.1687">
        <ele>274.59</ele>
        <time>2021-08-09T14:13:30Z</time>
      </trkpt>
      <trkpt lat="49.13648" lon="4.16895">
        <ele>273.15</ele>
        <time>2021-08-09T14:13:37Z</time>
      </trkpt>
      <trkpt lat="49.13617" lon="4.16896">
        <ele>272.67</ele>
        <time>2021-08-09T14:13:41Z</time>
      </trkpt>
      <trkpt lat="49.13563" lon="4.16882">
        <ele>269.31</ele>
        <time>2021-08-09T14:13:48Z</time>
      </trkpt>
      <trkpt lat="49.13529" lon="4.16875">
        <ele>266.9</ele>
        <time>2021-08-09T14:13:52Z</time>
      </trkpt>
      <trkpt lat="49.13489" lon="4.16865">
        <ele>264.98</ele>
        <time>2021-08-09T14:13:57Z</time>
      </trkpt>
      <trkpt lat="49.1347" lon="4.16863">
        <ele>263.06</ele>
        <time>2021-08-09T14:14:00Z</time>
      </trkpt>
      <trkpt lat="49.13464" lon="4.16867">
        <ele>262.58</ele>
        <time>2021-08-09T14:14:01Z</time>
      </trkpt>
      <trkpt lat="49.13457" lon="4.16873">
        <ele>261.62</ele>
        <time>2021-08-09T14:14:02Z</time>
      </trkpt>
      <trkpt lat="49.1345" lon="4.16881">
        <ele>260.65</ele>
        <time>2021-08-09T14:14:03Z</time>
      </trkpt>
      <trkpt lat="49.13445" lon="4.16889">
        <ele>260.65</ele>
        <time>2021-08-09T14:14:04Z</time>
      </trkpt>
      <trkpt lat="49.1344" lon="4.16898">
        <ele>260.65</ele>
        <time>2021-08-09T14:14:05Z</time>
      </trkpt>
      <trkpt lat="49.13434" lon="4.16908">
        <ele>259.69</ele>
        <time>2021-08-09T14:14:06Z</time>
      </trkpt>
      <trkpt lat="49.13394" lon="4.1699">
        <ele>258.73</ele>
        <time>2021-08-09T14:14:14Z</time>
      </trkpt>
      <trkpt lat="49.13371" lon="4.17068">
        <ele>257.77</ele>
        <time>2021-08-09T14:14:21Z</time>
      </trkpt>
      <trkpt lat="49.13367" lon="4.17077">
        <ele>257.77</ele>
        <time>2021-08-09T14:14:22Z</time>
      </trkpt>
      <trkpt lat="49.13363" lon="4.17085">
        <ele>257.77</ele>
        <time>2021-08-09T14:14:23Z</time>
      </trkpt>
      <trkpt lat="49.13358" lon="4.17092">
        <ele>257.77</ele>
        <time>2021-08-09T14:14:24Z</time>
      </trkpt>
      <trkpt lat="49.13353" lon="4.171">
        <ele>257.29</ele>
        <time>2021-08-09T14:14:25Z</time>
      </trkpt>
      <trkpt lat="49.13323" lon="4.17144">
        <ele>253.93</ele>
        <time>2021-08-09T14:14:30Z</time>
      </trkpt>
      <trkpt lat="49.13319" lon="4.17155">
        <ele>253.93</ele>
        <time>2021-08-09T14:14:31Z</time>
      </trkpt>
      <trkpt lat="49.13313" lon="4.17179">
        <ele>253.44</ele>
        <time>2021-08-09T14:14:33Z</time>
      </trkpt>
      <trkpt lat="49.13312" lon="4.17189">
        <ele>252.96</ele>
        <time>2021-08-09T14:14:34Z</time>
      </trkpt>
      <trkpt lat="49.13312" lon="4.17201">
        <ele>252.48</ele>
        <time>2021-08-09T14:14:35Z</time>
      </trkpt>
      <trkpt lat="49.13314" lon="4.17213">
        <ele>252.48</ele>
        <time>2021-08-09T14:14:36Z</time>
      </trkpt>
      <trkpt lat="49.13317" lon="4.17223">
        <ele>252</ele>
        <time>2021-08-09T14:14:37Z</time>
      </trkpt>
      <trkpt lat="49.13321" lon="4.17233">
        <ele>252</ele>
        <time>2021-08-09T14:14:38Z</time>
      </trkpt>
      <trkpt lat="49.13326" lon="4.17242">
        <ele>252</ele>
        <time>2021-08-09T14:14:39Z</time>
      </trkpt>
      <trkpt lat="49.13331" lon="4.17252">
        <ele>251.52</ele>
        <time>2021-08-09T14:14:40Z</time>
      </trkpt>
      <trkpt lat="49.13375" lon="4.17335">
        <ele>250.56</ele>
        <time>2021-08-09T14:14:49Z</time>
      </trkpt>
      <trkpt lat="49.13403" lon="4.1742">
        <ele>249.6</ele>
        <time>2021-08-09T14:14:57Z</time>
      </trkpt>
      <trkpt lat="49.13413" lon="4.1749">
        <ele>247.68</ele>
        <time>2021-08-09T14:15:03Z</time>
      </trkpt>
      <trkpt lat="49.13411" lon="4.17569">
        <ele>247.68</ele>
        <time>2021-08-09T14:15:10Z</time>
      </trkpt>
      <trkpt lat="49.13409" lon="4.17606">
        <ele>249.12</ele>
        <time>2021-08-09T14:15:14Z</time>
      </trkpt>
      <trkpt lat="49.1341" lon="4.17613">
        <ele>249.6</ele>
        <time>2021-08-09T14:15:15Z</time>
      </trkpt>
      <trkpt lat="49.13412" lon="4.17632">
        <ele>250.56</ele>
        <time>2021-08-09T14:15:18Z</time>
      </trkpt>
      <trkpt lat="49.13418" lon="4.17669">
        <ele>250.56</ele>
        <time>2021-08-09T14:15:24Z</time>
      </trkpt>
      <trkpt lat="49.13418" lon="4.17699">
        <ele>249.12</ele>
        <time>2021-08-09T14:15:29Z</time>
      </trkpt>
      <trkpt lat="49.13412" lon="4.17721">
        <ele>248.64</ele>
        <time>2021-08-09T14:15:33Z</time>
      </trkpt>
      <trkpt lat="49.13405" lon="4.17735">
        <ele>248.16</ele>
        <time>2021-08-09T14:15:36Z</time>
      </trkpt>
      <trkpt lat="49.13403" lon="4.17738">
        <ele>248.16</ele>
        <time>2021-08-09T14:15:37Z</time>
      </trkpt>
      <trkpt lat="49.13401" lon="4.1774">
        <ele>248.16</ele>
        <time>2021-08-09T14:15:38Z</time>
      </trkpt>
      <trkpt lat="49.13402" lon="4.17742">
        <ele>248.16</ele>
        <time>2021-08-09T14:15:40Z</time>
      </trkpt>
      <trkpt lat="49.13403" lon="4.17741">
        <ele>248.16</ele>
        <time>2021-08-09T14:15:41Z</time>
      </trkpt>
      <trkpt lat="49.13403" lon="4.17739">
        <ele>248.16</ele>
        <time>2021-08-09T14:15:42Z</time>
      </trkpt>
      <trkpt lat="49.13404" lon="4.17737">
        <ele>248.16</ele>
        <time>2021-08-09T14:15:43Z</time>
      </trkpt>
      <trkpt lat="49.13405" lon="4.17735">
        <ele>248.16</ele>
        <time>2021-08-09T14:15:44Z</time>
      </trkpt>
      <trkpt lat="49.13406" lon="4.17733">
        <ele>248.16</ele>
        <time>2021-08-09T14:15:45Z</time>
      </trkpt>
      <trkpt lat="49.13408" lon="4.17729">
        <ele>248.16</ele>
        <time>2021-08-09T14:15:46Z</time>
      </trkpt>
      <trkpt lat="49.1341" lon="4.17726">
        <ele>248.16</ele>
        <time>2021-08-09T14:15:47Z</time>
      </trkpt>
      <trkpt lat="49.13412" lon="4.17722">
        <ele>248.16</ele>
        <time>2021-08-09T14:15:48Z</time>
      </trkpt>
      <trkpt lat="49.13414" lon="4.17717">
        <ele>248.16</ele>
        <time>2021-08-09T14:15:49Z</time>
      </trkpt>
      <trkpt lat="49.13415" lon="4.17712">
        <ele>248.16</ele>
        <time>2021-08-09T14:15:50Z</time>
      </trkpt>
      <trkpt lat="49.13416" lon="4.17707">
        <ele>248.16</ele>
        <time>2021-08-09T14:15:51Z</time>
      </trkpt>
      <trkpt lat="49.13418" lon="4.1768">
        <ele>249.6</ele>
        <time>2021-08-09T14:15:56Z</time>
      </trkpt>
      <trkpt lat="49.13415" lon="4.17661">
        <ele>250.08</ele>
        <time>2021-08-09T14:16:01Z</time>
      </trkpt>
      <trkpt lat="49.1341" lon="4.17641">
        <ele>250.08</ele>
        <time>2021-08-09T14:16:08Z</time>
      </trkpt>
      <trkpt lat="49.13406" lon="4.17612">
        <ele>250.08</ele>
        <time>2021-08-09T14:16:14Z</time>
      </trkpt>
      <trkpt lat="49.13407" lon="4.17601">
        <ele>250.08</ele>
        <time>2021-08-09T14:16:16Z</time>
      </trkpt>
      <trkpt lat="49.13409" lon="4.176">
        <ele>250.08</ele>
        <time>2021-08-09T14:16:17Z</time>
      </trkpt>
      <trkpt lat="49.13412" lon="4.17601">
        <ele>248.64</ele>
        <time>2021-08-09T14:16:18Z</time>
      </trkpt>
      <trkpt lat="49.13414" lon="4.17606">
        <ele>248.16</ele>
        <time>2021-08-09T14:16:19Z</time>
      </trkpt>
      <trkpt lat="49.13415" lon="4.1761">
        <ele>247.68</ele>
        <time>2021-08-09T14:16:20Z</time>
      </trkpt>
      <trkpt lat="49.13416" lon="4.17616">
        <ele>247.68</ele>
        <time>2021-08-09T14:16:21Z</time>
      </trkpt>
      <trkpt lat="49.13426" lon="4.17655">
        <ele>246.23</ele>
        <time>2021-08-09T14:16:27Z</time>
      </trkpt>
      <trkpt lat="49.13431" lon="4.17667">
        <ele>246.23</ele>
        <time>2021-08-09T14:16:29Z</time>
      </trkpt>
      <trkpt lat="49.13434" lon="4.17672">
        <ele>245.27</ele>
        <time>2021-08-09T14:16:30Z</time>
      </trkpt>
      <trkpt lat="49.13437" lon="4.17676">
        <ele>244.31</ele>
        <time>2021-08-09T14:16:31Z</time>
      </trkpt>
      <trkpt lat="49.13439" lon="4.17679">
        <ele>244.31</ele>
        <time>2021-08-09T14:16:32Z</time>
      </trkpt>
      <trkpt lat="49.13442" lon="4.17681">
        <ele>243.35</ele>
        <time>2021-08-09T14:16:33Z</time>
      </trkpt>
      <trkpt lat="49.13444" lon="4.17684">
        <ele>242.39</ele>
        <time>2021-08-09T14:16:34Z</time>
      </trkpt>
      <trkpt lat="49.13456" lon="4.17691">
        <ele>239.02</ele>
        <time>2021-08-09T14:16:39Z</time>
      </trkpt>
      <trkpt lat="49.13467" lon="4.177">
        <ele>236.14</ele>
        <time>2021-08-09T14:16:43Z</time>
      </trkpt>
      <trkpt lat="49.13471" lon="4.17703">
        <ele>236.14</ele>
        <time>2021-08-09T14:16:44Z</time>
      </trkpt>
      <trkpt lat="49.13482" lon="4.17711">
        <ele>234.22</ele>
        <time>2021-08-09T14:16:47Z</time>
      </trkpt>
      <trkpt lat="49.13493" lon="4.17717">
        <ele>231.81</ele>
        <time>2021-08-09T14:16:52Z</time>
      </trkpt>
      <trkpt lat="49.13505" lon="4.17727">
        <ele>229.41</ele>
        <time>2021-08-09T14:17:00Z</time>
      </trkpt>
      <trkpt lat="49.13506" lon="4.17728">
        <ele>228.45</ele>
        <time>2021-08-09T14:17:01Z</time>
      </trkpt>
      <trkpt lat="49.13508" lon="4.17729">
        <ele>228.45</ele>
        <time>2021-08-09T14:17:02Z</time>
      </trkpt>
      <trkpt lat="49.13519" lon="4.17738">
        <ele>225.57</ele>
        <time>2021-08-09T14:17:08Z</time>
      </trkpt>
      <trkpt lat="49.1353" lon="4.1775">
        <ele>223.64</ele>
        <time>2021-08-09T14:17:14Z</time>
      </trkpt>
      <trkpt lat="49.13548" lon="4.17774">
        <ele>219.8</ele>
        <time>2021-08-09T14:17:20Z</time>
      </trkpt>
      <trkpt lat="49.13551" lon="4.17778">
        <ele>219.8</ele>
        <time>2021-08-09T14:17:21Z</time>
      </trkpt>
      <trkpt lat="49.13561" lon="4.17791">
        <ele>218.36</ele>
        <time>2021-08-09T14:17:24Z</time>
      </trkpt>
      <trkpt lat="49.13575" lon="4.17812">
        <ele>215.95</ele>
        <time>2021-08-09T14:17:29Z</time>
      </trkpt>
      <trkpt lat="49.13588" lon="4.17839">
        <ele>213.55</ele>
        <time>2021-08-09T14:17:35Z</time>
      </trkpt>
      <trkpt lat="49.13592" lon="4.17849">
        <ele>213.07</ele>
        <time>2021-08-09T14:17:37Z</time>
      </trkpt>
      <trkpt lat="49.13605" lon="4.17889">
        <ele>210.67</ele>
        <time>2021-08-09T14:17:43Z</time>
      </trkpt>
      <trkpt lat="49.13608" lon="4.17898">
        <ele>209.22</ele>
        <time>2021-08-09T14:17:44Z</time>
      </trkpt>
      <trkpt lat="49.13612" lon="4.17907">
        <ele>208.26</ele>
        <time>2021-08-09T14:17:45Z</time>
      </trkpt>
      <trkpt lat="49.13614" lon="4.17914">
        <ele>208.26</ele>
        <time>2021-08-09T14:17:46Z</time>
      </trkpt>
      <trkpt lat="49.13617" lon="4.17922">
        <ele>208.26</ele>
        <time>2021-08-09T14:17:47Z</time>
      </trkpt>
      <trkpt lat="49.1362" lon="4.17934">
        <ele>207.78</ele>
        <time>2021-08-09T14:17:49Z</time>
      </trkpt>
      <trkpt lat="49.13623" lon="4.1794">
        <ele>206.82</ele>
        <time>2021-08-09T14:17:50Z</time>
      </trkpt>
      <trkpt lat="49.13627" lon="4.17944">
        <ele>206.82</ele>
        <time>2021-08-09T14:17:51Z</time>
      </trkpt>
      <trkpt lat="49.1363" lon="4.17949">
        <ele>205.86</ele>
        <time>2021-08-09T14:17:52Z</time>
      </trkpt>
      <trkpt lat="49.13633" lon="4.17953">
        <ele>204.42</ele>
        <time>2021-08-09T14:17:53Z</time>
      </trkpt>
      <trkpt lat="49.13636" lon="4.17956">
        <ele>204.42</ele>
        <time>2021-08-09T14:17:54Z</time>
      </trkpt>
      <trkpt lat="49.13638" lon="4.17959">
        <ele>203.94</ele>
        <time>2021-08-09T14:17:55Z</time>
      </trkpt>
      <trkpt lat="49.13641" lon="4.17961">
        <ele>203.94</ele>
        <time>2021-08-09T14:17:56Z</time>
      </trkpt>
      <trkpt lat="49.13643" lon="4.17965">
        <ele>202.98</ele>
        <time>2021-08-09T14:17:57Z</time>
      </trkpt>
      <trkpt lat="49.13644" lon="4.17967">
        <ele>202.98</ele>
        <time>2021-08-09T14:17:58Z</time>
      </trkpt>
      <trkpt lat="49.13645" lon="4.17969">
        <ele>202.98</ele>
        <time>2021-08-09T14:17:59Z</time>
      </trkpt>
      <trkpt lat="49.13655" lon="4.17993">
        <ele>202.49</ele>
        <time>2021-08-09T14:18:05Z</time>
      </trkpt>
      <trkpt lat="49.13663" lon="4.18025">
        <ele>201.53</ele>
        <time>2021-08-09T14:18:10Z</time>
      </trkpt>
      <trkpt lat="49.13666" lon="4.18031">
        <ele>200.57</ele>
        <time>2021-08-09T14:18:11Z</time>
      </trkpt>
      <trkpt lat="49.13669" lon="4.18037">
        <ele>200.57</ele>
        <time>2021-08-09T14:18:12Z</time>
      </trkpt>
      <trkpt lat="49.13673" lon="4.18042">
        <ele>200.09</ele>
        <time>2021-08-09T14:18:13Z</time>
      </trkpt>
      <trkpt lat="49.13677" lon="4.18047">
        <ele>200.09</ele>
        <time>2021-08-09T14:18:14Z</time>
      </trkpt>
      <trkpt lat="49.13681" lon="4.18053">
        <ele>199.13</ele>
        <time>2021-08-09T14:18:15Z</time>
      </trkpt>
      <trkpt lat="49.13686" lon="4.18059">
        <ele>198.65</ele>
        <time>2021-08-09T14:18:16Z</time>
      </trkpt>
      <trkpt lat="49.13691" lon="4.18065">
        <ele>197.69</ele>
        <time>2021-08-09T14:18:17Z</time>
      </trkpt>
      <trkpt lat="49.13695" lon="4.18071">
        <ele>197.69</ele>
        <time>2021-08-09T14:18:18Z</time>
      </trkpt>
      <trkpt lat="49.13726" lon="4.18112">
        <ele>194.8</ele>
        <time>2021-08-09T14:18:25Z</time>
      </trkpt>
      <trkpt lat="49.13752" lon="4.18142">
        <ele>193.36</ele>
        <time>2021-08-09T14:18:30Z</time>
      </trkpt>
      <trkpt lat="49.13774" lon="4.18173">
        <ele>192.88</ele>
        <time>2021-08-09T14:18:35Z</time>
      </trkpt>
      <trkpt lat="49.13777" lon="4.18181">
        <ele>192.4</ele>
        <time>2021-08-09T14:18:36Z</time>
      </trkpt>
      <trkpt lat="49.1379" lon="4.18223">
        <ele>190.48</ele>
        <time>2021-08-09T14:18:41Z</time>
      </trkpt>
      <trkpt lat="49.13805" lon="4.18279">
        <ele>186.63</ele>
        <time>2021-08-09T14:18:47Z</time>
      </trkpt>
      <trkpt lat="49.13807" lon="4.18289">
        <ele>186.63</ele>
        <time>2021-08-09T14:18:48Z</time>
      </trkpt>
      <trkpt lat="49.13814" lon="4.18322">
        <ele>184.71</ele>
        <time>2021-08-09T14:18:51Z</time>
      </trkpt>
      <trkpt lat="49.13823" lon="4.18365">
        <ele>183.27</ele>
        <time>2021-08-09T14:18:55Z</time>
      </trkpt>
      <trkpt lat="49.13829" lon="4.18395">
        <ele>181.35</ele>
        <time>2021-08-09T14:18:58Z</time>
      </trkpt>
      <trkpt lat="49.13835" lon="4.18426">
        <ele>178.46</ele>
        <time>2021-08-09T14:19:01Z</time>
      </trkpt>
      <trkpt lat="49.13842" lon="4.18458">
        <ele>176.54</ele>
        <time>2021-08-09T14:19:04Z</time>
      </trkpt>
      <trkpt lat="49.13844" lon="4.1847">
        <ele>175.58</ele>
        <time>2021-08-09T14:19:05Z</time>
      </trkpt>
      <trkpt lat="49.13845" lon="4.18495">
        <ele>173.17</ele>
        <time>2021-08-09T14:19:07Z</time>
      </trkpt>
      <trkpt lat="49.13845" lon="4.18506">
        <ele>172.21</ele>
        <time>2021-08-09T14:19:08Z</time>
      </trkpt>
      <trkpt lat="49.13842" lon="4.18548">
        <ele>169.33</ele>
        <time>2021-08-09T14:19:12Z</time>
      </trkpt>
      <trkpt lat="49.13842" lon="4.18557">
        <ele>169.33</ele>
        <time>2021-08-09T14:19:13Z</time>
      </trkpt>
      <trkpt lat="49.1384" lon="4.18565">
        <ele>168.85</ele>
        <time>2021-08-09T14:19:14Z</time>
      </trkpt>
      <trkpt lat="49.13838" lon="4.18574">
        <ele>168.37</ele>
        <time>2021-08-09T14:19:15Z</time>
      </trkpt>
      <trkpt lat="49.13836" lon="4.18583">
        <ele>167.41</ele>
        <time>2021-08-09T14:19:16Z</time>
      </trkpt>
      <trkpt lat="49.13834" lon="4.18593">
        <ele>167.41</ele>
        <time>2021-08-09T14:19:17Z</time>
      </trkpt>
      <trkpt lat="49.13831" lon="4.18605">
        <ele>166.45</ele>
        <time>2021-08-09T14:19:18Z</time>
      </trkpt>
      <trkpt lat="49.13811" lon="4.18675">
        <ele>164.52</ele>
        <time>2021-08-09T14:19:25Z</time>
      </trkpt>
      <trkpt lat="49.13792" lon="4.18739">
        <ele>161.16</ele>
        <time>2021-08-09T14:19:31Z</time>
      </trkpt>
      <trkpt lat="49.13775" lon="4.18807">
        <ele>158.75</ele>
        <time>2021-08-09T14:19:37Z</time>
      </trkpt>
      <trkpt lat="49.13769" lon="4.1883">
        <ele>157.31</ele>
        <time>2021-08-09T14:19:39Z</time>
      </trkpt>
      <trkpt lat="49.13758" lon="4.18878">
        <ele>154.43</ele>
        <time>2021-08-09T14:19:43Z</time>
      </trkpt>
      <trkpt lat="49.13744" lon="4.18943">
        <ele>151.06</ele>
        <time>2021-08-09T14:19:49Z</time>
      </trkpt>
      <trkpt lat="49.13728" lon="4.19015">
        <ele>148.66</ele>
        <time>2021-08-09T14:19:55Z</time>
      </trkpt>
      <trkpt lat="49.13716" lon="4.19078">
        <ele>146.26</ele>
        <time>2021-08-09T14:20:02Z</time>
      </trkpt>
      <trkpt lat="49.13699" lon="4.19144">
        <ele>145.78</ele>
        <time>2021-08-09T14:20:10Z</time>
      </trkpt>
      <trkpt lat="49.13684" lon="4.19191">
        <ele>145.78</ele>
        <time>2021-08-09T14:20:18Z</time>
      </trkpt>
      <trkpt lat="49.1366" lon="4.19249">
        <ele>144.82</ele>
        <time>2021-08-09T14:20:28Z</time>
      </trkpt>
      <trkpt lat="49.13657" lon="4.19254">
        <ele>144.82</ele>
        <time>2021-08-09T14:20:29Z</time>
      </trkpt>
      <trkpt lat="49.13653" lon="4.19258">
        <ele>144.82</ele>
        <time>2021-08-09T14:20:30Z</time>
      </trkpt>
      <trkpt lat="49.13622" lon="4.19291">
        <ele>143.37</ele>
        <time>2021-08-09T14:20:38Z</time>
      </trkpt>
      <trkpt lat="49.13586" lon="4.19339">
        <ele>143.37</ele>
        <time>2021-08-09T14:20:48Z</time>
      </trkpt>
      <trkpt lat="49.13556" lon="4.19394">
        <ele>142.89</ele>
        <time>2021-08-09T14:20:58Z</time>
      </trkpt>
      <trkpt lat="49.13545" lon="4.1943">
        <ele>142.89</ele>
        <time>2021-08-09T14:21:05Z</time>
      </trkpt>
      <trkpt lat="49.13541" lon="4.19442">
        <ele>143.85</ele>
        <time>2021-08-09T14:21:08Z</time>
      </trkpt>
      <trkpt lat="49.13532" lon="4.19471">
        <ele>144.82</ele>
        <time>2021-08-09T14:21:17Z</time>
      </trkpt>
      <trkpt lat="49.13529" lon="4.19493">
        <ele>145.78</ele>
        <time>2021-08-09T14:21:25Z</time>
      </trkpt>
      <trkpt lat="49.13524" lon="4.19509">
        <ele>146.74</ele>
        <time>2021-08-09T14:21:33Z</time>
      </trkpt>
      <trkpt lat="49.13515" lon="4.19519">
        <ele>146.74</ele>
        <time>2021-08-09T14:21:40Z</time>
      </trkpt>
      <trkpt lat="49.13514" lon="4.1952">
        <ele>147.22</ele>
        <time>2021-08-09T14:21:41Z</time>
      </trkpt>
      <trkpt lat="49.13505" lon="4.19525">
        <ele>147.7</ele>
        <time>2021-08-09T14:21:49Z</time>
      </trkpt>
      <trkpt lat="49.13497" lon="4.19529">
        <ele>148.66</ele>
        <time>2021-08-09T14:21:56Z</time>
      </trkpt>
      <trkpt lat="49.13496" lon="4.1953">
        <ele>148.66</ele>
        <time>2021-08-09T14:21:57Z</time>
      </trkpt>
      <trkpt lat="49.13492" lon="4.19533">
        <ele>149.14</ele>
        <time>2021-08-09T14:22:04Z</time>
      </trkpt>
      <trkpt lat="49.13491" lon="4.1953">
        <ele>149.14</ele>
        <time>2021-08-09T14:22:15Z</time>
      </trkpt>
      <trkpt lat="49.1349" lon="4.19527">
        <ele>149.14</ele>
        <time>2021-08-09T14:22:23Z</time>
      </trkpt>
      <trkpt lat="49.1349" lon="4.19525">
        <ele>149.14</ele>
        <time>2021-08-09T14:22:28Z</time>
      </trkpt>
      <trkpt lat="49.13489" lon="4.19525">
        <ele>149.14</ele>
        <time>2021-08-09T14:22:29Z</time>
      </trkpt>
      <trkpt lat="49.13489" lon="4.19527">
        <ele>149.14</ele>
        <time>2021-08-09T14:22:35Z</time>
      </trkpt>
      <trkpt lat="49.13488" lon="4.19526">
        <ele>149.14</ele>
        <time>2021-08-09T14:22:52Z</time>
      </trkpt>
      <trkpt lat="49.13487" lon="4.19526">
        <ele>149.14</ele>
        <time>2021-08-09T14:23:11Z</time>
      </trkpt>
      <trkpt lat="49.13487" lon="4.19526">
        <ele>149.14</ele>
        <time>2021-08-09T14:23:25Z</time>
      </trkpt>
      <trkpt lat="49.13488" lon="4.19526">
        <ele>149.14</ele>
        <time>2021-08-09T14:23:44Z</time>
      </trkpt>
      <trkpt lat="49.13488" lon="4.19527">
        <ele>149.14</ele>
        <time>2021-08-09T14:24:02Z</time>
      </trkpt>
      <trkpt lat="49.13486" lon="4.19525">
        <ele>149.14</ele>
        <time>2021-08-09T14:24:19Z</time>
      </trkpt>
      <trkpt lat="49.13488" lon="4.19531">
        <ele>149.14</ele>
        <time>2021-08-09T14:24:38Z</time>
      </trkpt>
      <trkpt lat="49.13489" lon="4.1953">
        <ele>149.62</ele>
        <time>2021-08-09T14:24:51Z</time>
      </trkpt>
      <trkpt lat="49.13486" lon="4.19529">
        <ele>149.62</ele>
        <time>2021-08-09T14:25:09Z</time>
      </trkpt>
      <trkpt lat="49.13487" lon="4.19526">
        <ele>149.62</ele>
        <time>2021-08-09T14:25:28Z</time>
      </trkpt>
      <trkpt lat="49.13487" lon="4.19525">
        <ele>148.18</ele>
        <time>2021-08-09T14:25:45Z</time>
      </trkpt>
      <trkpt lat="49.13487" lon="4.19522">
        <ele>148.18</ele>
        <time>2021-08-09T14:26:02Z</time>
      </trkpt>
      <trkpt lat="49.13488" lon="4.1952">
        <ele>148.66</ele>
        <time>2021-08-09T14:26:17Z</time>
      </trkpt>
      <trkpt lat="49.13488" lon="4.19521">
        <ele>148.66</ele>
        <time>2021-08-09T14:26:25Z</time>
      </trkpt>
      <trkpt lat="49.13488" lon="4.19521">
        <ele>148.66</ele>
        <time>2021-08-09T14:26:26Z</time>
      </trkpt>
      <trkpt lat="49.13488" lon="4.1952">
        <ele>148.66</ele>
        <time>2021-08-09T14:26:28Z</time>
      </trkpt>
      <trkpt lat="49.13475" lon="4.19535">
        <ele>149.62</ele>
        <time>2021-08-09T14:26:37Z</time>
      </trkpt>
      <trkpt lat="49.13455" lon="4.19548">
        <ele>151.54</ele>
        <time>2021-08-09T14:26:48Z</time>
      </trkpt>
      <trkpt lat="49.13452" lon="4.19552">
        <ele>151.54</ele>
        <time>2021-08-09T14:26:50Z</time>
      </trkpt>
      <trkpt lat="49.13453" lon="4.19553">
        <ele>151.54</ele>
        <time>2021-08-09T14:26:51Z</time>
      </trkpt>
      <trkpt lat="49.13454" lon="4.19553">
        <ele>151.54</ele>
        <time>2021-08-09T14:26:52Z</time>
      </trkpt>
      <trkpt lat="49.13456" lon="4.1955">
        <ele>151.54</ele>
        <time>2021-08-09T14:26:53Z</time>
      </trkpt>
      <trkpt lat="49.13457" lon="4.19547">
        <ele>151.54</ele>
        <time>2021-08-09T14:26:54Z</time>
      </trkpt>
      <trkpt lat="49.13458" lon="4.19545">
        <ele>151.54</ele>
        <time>2021-08-09T14:26:55Z</time>
      </trkpt>
      <trkpt lat="49.13458" lon="4.19544">
        <ele>151.54</ele>
        <time>2021-08-09T14:26:59Z</time>
      </trkpt>
      <trkpt lat="49.13459" lon="4.19547">
        <ele>151.54</ele>
        <time>2021-08-09T14:27:15Z</time>
      </trkpt>
      <trkpt lat="49.13458" lon="4.19546">
        <ele>151.54</ele>
        <time>2021-08-09T14:27:28Z</time>
      </trkpt>
      <trkpt lat="49.13458" lon="4.19547">
        <ele>151.54</ele>
        <time>2021-08-09T14:27:34Z</time>
      </trkpt>
      <trkpt lat="49.13457" lon="4.19548">
        <ele>151.54</ele>
        <time>2021-08-09T14:27:36Z</time>
      </trkpt>
      <trkpt lat="49.13456" lon="4.19549">
        <ele>151.54</ele>
        <time>2021-08-09T14:27:37Z</time>
      </trkpt>
      <trkpt lat="49.13455" lon="4.19551">
        <ele>151.54</ele>
        <time>2021-08-09T14:27:38Z</time>
      </trkpt>
      <trkpt lat="49.13454" lon="4.19552">
        <ele>151.54</ele>
        <time>2021-08-09T14:27:39Z</time>
      </trkpt>
      <trkpt lat="49.13452" lon="4.19554">
        <ele>151.54</ele>
        <time>2021-08-09T14:27:40Z</time>
      </trkpt>
      <trkpt lat="49.13436" lon="4.19572">
        <ele>152.99</ele>
        <time>2021-08-09T14:27:49Z</time>
      </trkpt>
      <trkpt lat="49.13422" lon="4.19592">
        <ele>154.91</ele>
        <time>2021-08-09T14:27:59Z</time>
      </trkpt>
      <trkpt lat="49.13408" lon="4.1961">
        <ele>156.83</ele>
        <time>2021-08-09T14:28:08Z</time>
      </trkpt>
      <trkpt lat="49.13395" lon="4.19627">
        <ele>157.79</ele>
        <time>2021-08-09T14:28:16Z</time>
      </trkpt>
      <trkpt lat="49.13383" lon="4.19646">
        <ele>159.24</ele>
        <time>2021-08-09T14:28:24Z</time>
      </trkpt>
      <trkpt lat="49.13369" lon="4.19677">
        <ele>159.72</ele>
        <time>2021-08-09T14:28:33Z</time>
      </trkpt>
      <trkpt lat="49.13353" lon="4.19713">
        <ele>160.2</ele>
        <time>2021-08-09T14:28:42Z</time>
      </trkpt>
      <trkpt lat="49.13326" lon="4.19751">
        <ele>160.2</ele>
        <time>2021-08-09T14:28:51Z</time>
      </trkpt>
      <trkpt lat="49.13298" lon="4.19789">
        <ele>160.2</ele>
        <time>2021-08-09T14:28:59Z</time>
      </trkpt>
      <trkpt lat="49.13281" lon="4.19811">
        <ele>159.24</ele>
        <time>2021-08-09T14:29:04Z</time>
      </trkpt>
      <trkpt lat="49.13254" lon="4.19857">
        <ele>159.24</ele>
        <time>2021-08-09T14:29:12Z</time>
      </trkpt>
      <trkpt lat="49.13251" lon="4.19863">
        <ele>159.24</ele>
        <time>2021-08-09T14:29:13Z</time>
      </trkpt>
      <trkpt lat="49.13219" lon="4.19919">
        <ele>155.39</ele>
        <time>2021-08-09T14:29:21Z</time>
      </trkpt>
      <trkpt lat="49.13215" lon="4.19926">
        <ele>155.39</ele>
        <time>2021-08-09T14:29:22Z</time>
      </trkpt>
      <trkpt lat="49.13198" lon="4.19948">
        <ele>153.95</ele>
        <time>2021-08-09T14:29:25Z</time>
      </trkpt>
      <trkpt lat="49.13192" lon="4.19953">
        <ele>152.99</ele>
        <time>2021-08-09T14:29:26Z</time>
      </trkpt>
      <trkpt lat="49.13186" lon="4.19958">
        <ele>152.99</ele>
        <time>2021-08-09T14:29:27Z</time>
      </trkpt>
      <trkpt lat="49.13156" lon="4.19973">
        <ele>151.06</ele>
        <time>2021-08-09T14:29:31Z</time>
      </trkpt>
      <trkpt lat="49.13123" lon="4.19981">
        <ele>148.66</ele>
        <time>2021-08-09T14:29:35Z</time>
      </trkpt>
      <trkpt lat="49.13095" lon="4.19984">
        <ele>146.26</ele>
        <time>2021-08-09T14:29:38Z</time>
      </trkpt>
      <trkpt lat="49.13077" lon="4.19986">
        <ele>145.3</ele>
        <time>2021-08-09T14:29:40Z</time>
      </trkpt>
      <trkpt lat="49.13008" lon="4.20003">
        <ele>143.37</ele>
        <time>2021-08-09T14:29:48Z</time>
      </trkpt>
      <trkpt lat="49.12968" lon="4.20038">
        <ele>143.37</ele>
        <time>2021-08-09T14:29:54Z</time>
      </trkpt>
      <trkpt lat="49.12958" lon="4.20051">
        <ele>144.34</ele>
        <time>2021-08-09T14:29:56Z</time>
      </trkpt>
      <trkpt lat="49.12898" lon="4.20127">
        <ele>144.34</ele>
        <time>2021-08-09T14:30:07Z</time>
      </trkpt>
      <trkpt lat="49.12888" lon="4.20141">
        <ele>145.78</ele>
        <time>2021-08-09T14:30:09Z</time>
      </trkpt>
      <trkpt lat="49.12884" lon="4.20149">
        <ele>145.78</ele>
        <time>2021-08-09T14:30:10Z</time>
      </trkpt>
      <trkpt lat="49.12859" lon="4.20192">
        <ele>146.74</ele>
        <time>2021-08-09T14:30:17Z</time>
      </trkpt>
      <trkpt lat="49.12852" lon="4.202">
        <ele>147.22</ele>
        <time>2021-08-09T14:30:19Z</time>
      </trkpt>
      <trkpt lat="49.12848" lon="4.20201">
        <ele>147.7</ele>
        <time>2021-08-09T14:30:20Z</time>
      </trkpt>
      <trkpt lat="49.12843" lon="4.20199">
        <ele>147.7</ele>
        <time>2021-08-09T14:30:21Z</time>
      </trkpt>
      <trkpt lat="49.12841" lon="4.20197">
        <ele>147.7</ele>
        <time>2021-08-09T14:30:22Z</time>
      </trkpt>
      <trkpt lat="49.12838" lon="4.20193">
        <ele>147.7</ele>
        <time>2021-08-09T14:30:23Z</time>
      </trkpt>
      <trkpt lat="49.12835" lon="4.2019">
        <ele>148.18</ele>
        <time>2021-08-09T14:30:24Z</time>
      </trkpt>
      <trkpt lat="49.12832" lon="4.20186">
        <ele>148.18</ele>
        <time>2021-08-09T14:30:25Z</time>
      </trkpt>
      <trkpt lat="49.12813" lon="4.2016">
        <ele>150.58</ele>
        <time>2021-08-09T14:30:33Z</time>
      </trkpt>
      <trkpt lat="49.12793" lon="4.20132">
        <ele>151.06</ele>
        <time>2021-08-09T14:30:42Z</time>
      </trkpt>
      <trkpt lat="49.1279" lon="4.20128">
        <ele>151.54</ele>
        <time>2021-08-09T14:30:47Z</time>
      </trkpt>
      <trkpt lat="49.1279" lon="4.20127">
        <ele>151.54</ele>
        <time>2021-08-09T14:30:53Z</time>
      </trkpt>
      <trkpt lat="49.12791" lon="4.20126">
        <ele>151.54</ele>
        <time>2021-08-09T14:31:06Z</time>
      </trkpt>
      <trkpt lat="49.12789" lon="4.20127">
        <ele>151.54</ele>
        <time>2021-08-09T14:31:25Z</time>
      </trkpt>
      <trkpt lat="49.12789" lon="4.20127">
        <ele>151.54</ele>
        <time>2021-08-09T14:31:31Z</time>
      </trkpt>
      <trkpt lat="49.1279" lon="4.20127">
        <ele>151.54</ele>
        <time>2021-08-09T14:31:44Z</time>
      </trkpt>
      <trkpt lat="49.1279" lon="4.20127">
        <ele>151.54</ele>
        <time>2021-08-09T14:31:58Z</time>
      </trkpt>
      <trkpt lat="49.1279" lon="4.20126">
        <ele>151.54</ele>
        <time>2021-08-09T14:32:15Z</time>
      </trkpt>
      <trkpt lat="49.12791" lon="4.20125">
        <ele>151.06</ele>
        <time>2021-08-09T14:32:29Z</time>
      </trkpt>
      <trkpt lat="49.12791" lon="4.20125">
        <ele>151.06</ele>
        <time>2021-08-09T14:32:37Z</time>
      </trkpt>
      <trkpt lat="49.12791" lon="4.20125">
        <ele>151.54</ele>
        <time>2021-08-09T14:32:39Z</time>
      </trkpt>
      <trkpt lat="49.12791" lon="4.20126">
        <ele>151.54</ele>
        <time>2021-08-09T14:32:46Z</time>
      </trkpt>
      <trkpt lat="49.1279" lon="4.20128">
        <ele>151.54</ele>
        <time>2021-08-09T14:33:02Z</time>
      </trkpt>
      <trkpt lat="49.1279" lon="4.20128">
        <ele>151.54</ele>
        <time>2021-08-09T14:33:13Z</time>
      </trkpt>
      <trkpt lat="49.1279" lon="4.20127">
        <ele>151.54</ele>
        <time>2021-08-09T14:33:26Z</time>
      </trkpt>
      <trkpt lat="49.1279" lon="4.20126">
        <ele>151.06</ele>
        <time>2021-08-09T14:33:40Z</time>
      </trkpt>
      <trkpt lat="49.1279" lon="4.20126">
        <ele>151.06</ele>
        <time>2021-08-09T14:33:52Z</time>
      </trkpt>
      <trkpt lat="49.1279" lon="4.20127">
        <ele>151.06</ele>
        <time>2021-08-09T14:34:07Z</time>
      </trkpt>
      <trkpt lat="49.1279" lon="4.20127">
        <ele>151.06</ele>
        <time>2021-08-09T14:34:23Z</time>
      </trkpt>
      <trkpt lat="49.12789" lon="4.20127">
        <ele>151.06</ele>
        <time>2021-08-09T14:34:40Z</time>
      </trkpt>
      <trkpt lat="49.12789" lon="4.20127">
        <ele>150.58</ele>
        <time>2021-08-09T14:34:52Z</time>
      </trkpt>
      <trkpt lat="49.12789" lon="4.20127">
        <ele>150.58</ele>
        <time>2021-08-09T14:35:08Z</time>
      </trkpt>
      <trkpt lat="49.12789" lon="4.20126">
        <ele>150.58</ele>
        <time>2021-08-09T14:35:23Z</time>
      </trkpt>
      <trkpt lat="49.12789" lon="4.20126">
        <ele>150.58</ele>
        <time>2021-08-09T14:35:37Z</time>
      </trkpt>
      <trkpt lat="49.12789" lon="4.20126">
        <ele>150.58</ele>
        <time>2021-08-09T14:35:54Z</time>
      </trkpt>
      <trkpt lat="49.12789" lon="4.20126">
        <ele>150.1</ele>
        <time>2021-08-09T14:36:09Z</time>
      </trkpt>
      <trkpt lat="49.12789" lon="4.20126">
        <ele>150.1</ele>
        <time>2021-08-09T14:36:21Z</time>
      </trkpt>
      <trkpt lat="49.12789" lon="4.20126">
        <ele>150.1</ele>
        <time>2021-08-09T14:36:34Z</time>
      </trkpt>
      <trkpt lat="49.12789" lon="4.20127">
        <ele>150.1</ele>
        <time>2021-08-09T14:36:49Z</time>
      </trkpt>
      <trkpt lat="49.12789" lon="4.20126">
        <ele>150.1</ele>
        <time>2021-08-09T14:37:06Z</time>
      </trkpt>
      <trkpt lat="49.12789" lon="4.20127">
        <ele>150.1</ele>
        <time>2021-08-09T14:37:15Z</time>
      </trkpt>
      <trkpt lat="49.12789" lon="4.20129">
        <ele>149.62</ele>
        <time>2021-08-09T14:37:21Z</time>
      </trkpt>
      <trkpt lat="49.12791" lon="4.20131">
        <ele>150.1</ele>
        <time>2021-08-09T14:37:25Z</time>
      </trkpt>
      <trkpt lat="49.12809" lon="4.20155">
        <ele>148.66</ele>
        <time>2021-08-09T14:37:33Z</time>
      </trkpt>
      <trkpt lat="49.12812" lon="4.20159">
        <ele>148.66</ele>
        <time>2021-08-09T14:37:34Z</time>
      </trkpt>
      <trkpt lat="49.12839" lon="4.20197">
        <ele>146.74</ele>
        <time>2021-08-09T14:37:42Z</time>
      </trkpt>
      <trkpt lat="49.12844" lon="4.20206">
        <ele>145.78</ele>
        <time>2021-08-09T14:37:44Z</time>
      </trkpt>
      <trkpt lat="49.12844" lon="4.20211">
        <ele>145.78</ele>
        <time>2021-08-09T14:37:45Z</time>
      </trkpt>
      <trkpt lat="49.12843" lon="4.20216">
        <ele>145.78</ele>
        <time>2021-08-09T14:37:46Z</time>
      </trkpt>
      <trkpt lat="49.12842" lon="4.20218">
        <ele>145.78</ele>
        <time>2021-08-09T14:37:47Z</time>
      </trkpt>
      <trkpt lat="49.1284" lon="4.20222">
        <ele>145.78</ele>
        <time>2021-08-09T14:37:48Z</time>
      </trkpt>
      <trkpt lat="49.12838" lon="4.20225">
        <ele>145.78</ele>
        <time>2021-08-09T14:37:49Z</time>
      </trkpt>
      <trkpt lat="49.12834" lon="4.20231">
        <ele>146.74</ele>
        <time>2021-08-09T14:37:51Z</time>
      </trkpt>
      <trkpt lat="49.12815" lon="4.20261">
        <ele>148.66</ele>
        <time>2021-08-09T14:38:00Z</time>
      </trkpt>
      <trkpt lat="49.12795" lon="4.20288">
        <ele>149.62</ele>
        <time>2021-08-09T14:38:09Z</time>
      </trkpt>
      <trkpt lat="49.12774" lon="4.2031">
        <ele>150.1</ele>
        <time>2021-08-09T14:38:17Z</time>
      </trkpt>
      <trkpt lat="49.12747" lon="4.20335">
        <ele>151.06</ele>
        <time>2021-08-09T14:38:26Z</time>
      </trkpt>
      <trkpt lat="49.12721" lon="4.2036">
        <ele>150.58</ele>
        <time>2021-08-09T14:38:34Z</time>
      </trkpt>
      <trkpt lat="49.12681" lon="4.20398">
        <ele>147.7</ele>
        <time>2021-08-09T14:38:43Z</time>
      </trkpt>
      <trkpt lat="49.12665" lon="4.20413">
        <ele>146.26</ele>
        <time>2021-08-09T14:38:46Z</time>
      </trkpt>
      <trkpt lat="49.12636" lon="4.20441">
        <ele>142.89</ele>
        <time>2021-08-09T14:38:51Z</time>
      </trkpt>
      <trkpt lat="49.1261" lon="4.20467">
        <ele>141.93</ele>
        <time>2021-08-09T14:38:56Z</time>
      </trkpt>
      <trkpt lat="49.12605" lon="4.20472">
        <ele>141.93</ele>
        <time>2021-08-09T14:38:57Z</time>
      </trkpt>
      <trkpt lat="49.12602" lon="4.20478">
        <ele>141.93</ele>
        <time>2021-08-09T14:38:58Z</time>
      </trkpt>
      <trkpt lat="49.126" lon="4.20484">
        <ele>141.45</ele>
        <time>2021-08-09T14:38:59Z</time>
      </trkpt>
      <trkpt lat="49.12598" lon="4.2049">
        <ele>141.45</ele>
        <time>2021-08-09T14:39:00Z</time>
      </trkpt>
      <trkpt lat="49.12597" lon="4.20496">
        <ele>141.45</ele>
        <time>2021-08-09T14:39:01Z</time>
      </trkpt>
      <trkpt lat="49.12591" lon="4.20517">
        <ele>139.53</ele>
        <time>2021-08-09T14:39:05Z</time>
      </trkpt>
      <trkpt lat="49.12587" lon="4.20522">
        <ele>139.53</ele>
        <time>2021-08-09T14:39:06Z</time>
      </trkpt>
      <trkpt lat="49.12556" lon="4.20562">
        <ele>136.16</ele>
        <time>2021-08-09T14:39:14Z</time>
      </trkpt>
      <trkpt lat="49.12552" lon="4.20567">
        <ele>136.16</ele>
        <time>2021-08-09T14:39:15Z</time>
      </trkpt>
      <trkpt lat="49.12518" lon="4.20611">
        <ele>135.68</ele>
        <time>2021-08-09T14:39:25Z</time>
      </trkpt>
      <trkpt lat="49.12489" lon="4.20647">
        <ele>136.64</ele>
        <time>2021-08-09T14:39:35Z</time>
      </trkpt>
      <trkpt lat="49.12461" lon="4.20682">
        <ele>138.09</ele>
        <time>2021-08-09T14:39:46Z</time>
      </trkpt>
      <trkpt lat="49.12449" lon="4.20697">
        <ele>139.05</ele>
        <time>2021-08-09T14:39:53Z</time>
      </trkpt>
      <trkpt lat="49.12435" lon="4.20714">
        <ele>141.93</ele>
        <time>2021-08-09T14:40:03Z</time>
      </trkpt>
      <trkpt lat="49.1242" lon="4.20731">
        <ele>141.93</ele>
        <time>2021-08-09T14:40:12Z</time>
      </trkpt>
      <trkpt lat="49.12413" lon="4.20741">
        <ele>142.89</ele>
        <time>2021-08-09T14:40:18Z</time>
      </trkpt>
      <trkpt lat="49.12401" lon="4.20755">
        <ele>143.85</ele>
        <time>2021-08-09T14:40:28Z</time>
      </trkpt>
      <trkpt lat="49.1239" lon="4.20769">
        <ele>145.3</ele>
        <time>2021-08-09T14:40:37Z</time>
      </trkpt>
      <trkpt lat="49.12374" lon="4.20788">
        <ele>147.22</ele>
        <time>2021-08-09T14:40:48Z</time>
      </trkpt>
      <trkpt lat="49.12362" lon="4.20803">
        <ele>148.18</ele>
        <time>2021-08-09T14:40:56Z</time>
      </trkpt>
      <trkpt lat="49.12345" lon="4.20824">
        <ele>149.14</ele>
        <time>2021-08-09T14:41:07Z</time>
      </trkpt>
      <trkpt lat="49.12328" lon="4.20845">
        <ele>151.06</ele>
        <time>2021-08-09T14:41:17Z</time>
      </trkpt>
      <trkpt lat="49.1231" lon="4.20866">
        <ele>152.51</ele>
        <time>2021-08-09T14:41:27Z</time>
      </trkpt>
      <trkpt lat="49.12292" lon="4.20886">
        <ele>153.47</ele>
        <time>2021-08-09T14:41:38Z</time>
      </trkpt>
      <trkpt lat="49.12277" lon="4.20905">
        <ele>154.43</ele>
        <time>2021-08-09T14:41:49Z</time>
      </trkpt>
      <trkpt lat="49.12265" lon="4.20919">
        <ele>155.87</ele>
        <time>2021-08-09T14:41:58Z</time>
      </trkpt>
      <trkpt lat="49.12264" lon="4.20921">
        <ele>155.87</ele>
        <time>2021-08-09T14:41:59Z</time>
      </trkpt>
      <trkpt lat="49.12263" lon="4.20922">
        <ele>156.35</ele>
        <time>2021-08-09T14:42:00Z</time>
      </trkpt>
      <trkpt lat="49.12262" lon="4.20924">
        <ele>156.35</ele>
        <time>2021-08-09T14:42:01Z</time>
      </trkpt>
      <trkpt lat="49.12261" lon="4.20925">
        <ele>156.35</ele>
        <time>2021-08-09T14:42:02Z</time>
      </trkpt>
      <trkpt lat="49.1226" lon="4.20927">
        <ele>157.31</ele>
        <time>2021-08-09T14:42:03Z</time>
      </trkpt>
      <trkpt lat="49.12259" lon="4.20928">
        <ele>157.31</ele>
        <time>2021-08-09T14:42:04Z</time>
      </trkpt>
      <trkpt lat="49.12254" lon="4.20933">
        <ele>157.31</ele>
        <time>2021-08-09T14:42:09Z</time>
      </trkpt>
      <trkpt lat="49.12243" lon="4.20949">
        <ele>158.27</ele>
        <time>2021-08-09T14:42:17Z</time>
      </trkpt>
      <trkpt lat="49.12231" lon="4.20962">
        <ele>159.24</ele>
        <time>2021-08-09T14:42:26Z</time>
      </trkpt>
      <trkpt lat="49.1223" lon="4.20964">
        <ele>159.24</ele>
        <time>2021-08-09T14:42:27Z</time>
      </trkpt>
      <trkpt lat="49.12229" lon="4.20965">
        <ele>160.2</ele>
        <time>2021-08-09T14:42:28Z</time>
      </trkpt>
      <trkpt lat="49.12228" lon="4.20967">
        <ele>160.2</ele>
        <time>2021-08-09T14:42:29Z</time>
      </trkpt>
      <trkpt lat="49.12227" lon="4.20968">
        <ele>160.2</ele>
        <time>2021-08-09T14:42:30Z</time>
      </trkpt>
      <trkpt lat="49.12226" lon="4.2097">
        <ele>160.2</ele>
        <time>2021-08-09T14:42:31Z</time>
      </trkpt>
      <trkpt lat="49.12224" lon="4.20972">
        <ele>160.2</ele>
        <time>2021-08-09T14:42:32Z</time>
      </trkpt>
      <trkpt lat="49.12212" lon="4.20987">
        <ele>161.16</ele>
        <time>2021-08-09T14:42:42Z</time>
      </trkpt>
      <trkpt lat="49.12198" lon="4.21004">
        <ele>162.6</ele>
        <time>2021-08-09T14:42:52Z</time>
      </trkpt>
      <trkpt lat="49.12188" lon="4.21016">
        <ele>164.04</ele>
        <time>2021-08-09T14:42:59Z</time>
      </trkpt>
      <trkpt lat="49.12173" lon="4.21035">
        <ele>164.52</ele>
        <time>2021-08-09T14:43:08Z</time>
      </trkpt>
      <trkpt lat="49.12158" lon="4.21052">
        <ele>166.45</ele>
        <time>2021-08-09T14:43:17Z</time>
      </trkpt>
      <trkpt lat="49.12144" lon="4.21072">
        <ele>167.41</ele>
        <time>2021-08-09T14:43:26Z</time>
      </trkpt>
      <trkpt lat="49.12128" lon="4.21089">
        <ele>168.37</ele>
        <time>2021-08-09T14:43:35Z</time>
      </trkpt>
      <trkpt lat="49.12107" lon="4.21115">
        <ele>169.81</ele>
        <time>2021-08-09T14:43:46Z</time>
      </trkpt>
      <trkpt lat="49.12084" lon="4.21144">
        <ele>170.77</ele>
        <time>2021-08-09T14:43:57Z</time>
      </trkpt>
      <trkpt lat="49.12058" lon="4.21177">
        <ele>172.21</ele>
        <time>2021-08-09T14:44:07Z</time>
      </trkpt>
      <trkpt lat="49.12038" lon="4.21207">
        <ele>172.21</ele>
        <time>2021-08-09T14:44:15Z</time>
      </trkpt>
      <trkpt lat="49.12014" lon="4.21245">
        <ele>172.69</ele>
        <time>2021-08-09T14:44:24Z</time>
      </trkpt>
      <trkpt lat="49.12001" lon="4.21264">
        <ele>173.17</ele>
        <time>2021-08-09T14:44:30Z</time>
      </trkpt>
      <trkpt lat="49.11983" lon="4.21288">
        <ele>173.17</ele>
        <time>2021-08-09T14:44:38Z</time>
      </trkpt>
      <trkpt lat="49.11951" lon="4.21326">
        <ele>174.62</ele>
        <time>2021-08-09T14:44:49Z</time>
      </trkpt>
      <trkpt lat="49.11918" lon="4.21362">
        <ele>174.62</ele>
        <time>2021-08-09T14:44:59Z</time>
      </trkpt>
      <trkpt lat="49.11883" lon="4.214">
        <ele>175.58</ele>
        <time>2021-08-09T14:45:09Z</time>
      </trkpt>
      <trkpt lat="49.11852" lon="4.21433">
        <ele>176.54</ele>
        <time>2021-08-09T14:45:18Z</time>
      </trkpt>
      <trkpt lat="49.11818" lon="4.21469">
        <ele>177.5</ele>
        <time>2021-08-09T14:45:28Z</time>
      </trkpt>
      <trkpt lat="49.11795" lon="4.21494">
        <ele>175.58</ele>
        <time>2021-08-09T14:45:34Z</time>
      </trkpt>
      <trkpt lat="49.11744" lon="4.21548">
        <ele>174.62</ele>
        <time>2021-08-09T14:45:45Z</time>
      </trkpt>
      <trkpt lat="49.11703" lon="4.21593">
        <ele>176.06</ele>
        <time>2021-08-09T14:45:55Z</time>
      </trkpt>
      <trkpt lat="49.11684" lon="4.21615">
        <ele>176.06</ele>
        <time>2021-08-09T14:46:00Z</time>
      </trkpt>
      <trkpt lat="49.11664" lon="4.21637">
        <ele>176.54</ele>
        <time>2021-08-09T14:46:05Z</time>
      </trkpt>
      <trkpt lat="49.11627" lon="4.21681">
        <ele>176.54</ele>
        <time>2021-08-09T14:46:15Z</time>
      </trkpt>
      <trkpt lat="49.11588" lon="4.21723">
        <ele>174.14</ele>
        <time>2021-08-09T14:46:24Z</time>
      </trkpt>
      <trkpt lat="49.11551" lon="4.2176">
        <ele>171.73</ele>
        <time>2021-08-09T14:46:31Z</time>
      </trkpt>
      <trkpt lat="49.11544" lon="4.21763">
        <ele>171.25</ele>
        <time>2021-08-09T14:46:32Z</time>
      </trkpt>
      <trkpt lat="49.11537" lon="4.21764">
        <ele>170.77</ele>
        <time>2021-08-09T14:46:33Z</time>
      </trkpt>
      <trkpt lat="49.1153" lon="4.21763">
        <ele>168.85</ele>
        <time>2021-08-09T14:46:34Z</time>
      </trkpt>
      <trkpt lat="49.11524" lon="4.21761">
        <ele>168.85</ele>
        <time>2021-08-09T14:46:35Z</time>
      </trkpt>
      <trkpt lat="49.11518" lon="4.21758">
        <ele>168.37</ele>
        <time>2021-08-09T14:46:36Z</time>
      </trkpt>
      <trkpt lat="49.1148" lon="4.21742">
        <ele>168.37</ele>
        <time>2021-08-09T14:46:43Z</time>
      </trkpt>
      <trkpt lat="49.11405" lon="4.2171">
        <ele>165.48</ele>
        <time>2021-08-09T14:46:55Z</time>
      </trkpt>
      <trkpt lat="49.11339" lon="4.21683">
        <ele>164.04</ele>
        <time>2021-08-09T14:47:06Z</time>
      </trkpt>
      <trkpt lat="49.11314" lon="4.21673">
        <ele>165.48</ele>
        <time>2021-08-09T14:47:11Z</time>
      </trkpt>
      <trkpt lat="49.11285" lon="4.21663">
        <ele>165.96</ele>
        <time>2021-08-09T14:47:18Z</time>
      </trkpt>
      <trkpt lat="49.11255" lon="4.21652">
        <ele>166.45</ele>
        <time>2021-08-09T14:47:26Z</time>
      </trkpt>
      <trkpt lat="49.1122" lon="4.21637">
        <ele>166.93</ele>
        <time>2021-08-09T14:47:35Z</time>
      </trkpt>
      <trkpt lat="49.1118" lon="4.2162">
        <ele>163.56</ele>
        <time>2021-08-09T14:47:44Z</time>
      </trkpt>
      <trkpt lat="49.11175" lon="4.21618">
        <ele>163.56</ele>
        <time>2021-08-09T14:47:45Z</time>
      </trkpt>
      <trkpt lat="49.11144" lon="4.21605">
        <ele>159.72</ele>
        <time>2021-08-09T14:47:50Z</time>
      </trkpt>
      <trkpt lat="49.11115" lon="4.21594">
        <ele>156.83</ele>
        <time>2021-08-09T14:47:54Z</time>
      </trkpt>
      <trkpt lat="49.1111" lon="4.21594">
        <ele>155.87</ele>
        <time>2021-08-09T14:47:55Z</time>
      </trkpt>
      <trkpt lat="49.11104" lon="4.21597">
        <ele>155.87</ele>
        <time>2021-08-09T14:47:56Z</time>
      </trkpt>
      <trkpt lat="49.111" lon="4.21603">
        <ele>157.31</ele>
        <time>2021-08-09T14:47:57Z</time>
      </trkpt>
      <trkpt lat="49.11097" lon="4.21612">
        <ele>157.31</ele>
        <time>2021-08-09T14:47:58Z</time>
      </trkpt>
      <trkpt lat="49.11096" lon="4.21622">
        <ele>155.87</ele>
        <time>2021-08-09T14:47:59Z</time>
      </trkpt>
      <trkpt lat="49.11095" lon="4.21633">
        <ele>155.39</ele>
        <time>2021-08-09T14:48:00Z</time>
      </trkpt>
      <trkpt lat="49.11093" lon="4.21656">
        <ele>154.43</ele>
        <time>2021-08-09T14:48:02Z</time>
      </trkpt>
      <trkpt lat="49.11085" lon="4.21739">
        <ele>151.06</ele>
        <time>2021-08-09T14:48:09Z</time>
      </trkpt>
      <trkpt lat="49.11084" lon="4.21749">
        <ele>151.06</ele>
        <time>2021-08-09T14:48:10Z</time>
      </trkpt>
      <trkpt lat="49.11071" lon="4.2186">
        <ele>149.14</ele>
        <time>2021-08-09T14:48:19Z</time>
      </trkpt>
      <trkpt lat="49.11063" lon="4.21927">
        <ele>147.22</ele>
        <time>2021-08-09T14:48:24Z</time>
      </trkpt>
      <trkpt lat="49.11039" lon="4.22127">
        <ele>143.37</ele>
        <time>2021-08-09T14:48:39Z</time>
      </trkpt>
      <trkpt lat="49.11029" lon="4.2221">
        <ele>140.49</ele>
        <time>2021-08-09T14:48:45Z</time>
      </trkpt>
      <trkpt lat="49.11013" lon="4.22334">
        <ele>137.13</ele>
        <time>2021-08-09T14:48:54Z</time>
      </trkpt>
      <trkpt lat="49.10998" lon="4.22432">
        <ele>136.16</ele>
        <time>2021-08-09T14:49:02Z</time>
      </trkpt>
      <trkpt lat="49.10995" lon="4.22441">
        <ele>136.16</ele>
        <time>2021-08-09T14:49:03Z</time>
      </trkpt>
      <trkpt lat="49.10991" lon="4.22448">
        <ele>136.16</ele>
        <time>2021-08-09T14:49:04Z</time>
      </trkpt>
      <trkpt lat="49.10986" lon="4.22454">
        <ele>136.16</ele>
        <time>2021-08-09T14:49:05Z</time>
      </trkpt>
      <trkpt lat="49.1098" lon="4.22456">
        <ele>136.16</ele>
        <time>2021-08-09T14:49:06Z</time>
      </trkpt>
      <trkpt lat="49.10975" lon="4.2246">
        <ele>136.16</ele>
        <time>2021-08-09T14:49:07Z</time>
      </trkpt>
      <trkpt lat="49.10969" lon="4.22466">
        <ele>136.16</ele>
        <time>2021-08-09T14:49:08Z</time>
      </trkpt>
      <trkpt lat="49.10965" lon="4.22473">
        <ele>136.16</ele>
        <time>2021-08-09T14:49:09Z</time>
      </trkpt>
      <trkpt lat="49.10962" lon="4.2248">
        <ele>136.16</ele>
        <time>2021-08-09T14:49:10Z</time>
      </trkpt>
      <trkpt lat="49.1096" lon="4.2249">
        <ele>135.68</ele>
        <time>2021-08-09T14:49:11Z</time>
      </trkpt>
      <trkpt lat="49.10957" lon="4.22499">
        <ele>135.68</ele>
        <time>2021-08-09T14:49:12Z</time>
      </trkpt>
      <trkpt lat="49.10935" lon="4.22589">
        <ele>135.2</ele>
        <time>2021-08-09T14:49:22Z</time>
      </trkpt>
      <trkpt lat="49.10932" lon="4.22592">
        <ele>136.16</ele>
        <time>2021-08-09T14:49:23Z</time>
      </trkpt>
      <trkpt lat="49.1093" lon="4.22591">
        <ele>136.16</ele>
        <time>2021-08-09T14:49:24Z</time>
      </trkpt>
      <trkpt lat="49.10928" lon="4.22589">
        <ele>136.16</ele>
        <time>2021-08-09T14:49:25Z</time>
      </trkpt>
      <trkpt lat="49.10926" lon="4.22586">
        <ele>136.16</ele>
        <time>2021-08-09T14:49:26Z</time>
      </trkpt>
      <trkpt lat="49.10922" lon="4.22584">
        <ele>134.72</ele>
        <time>2021-08-09T14:49:27Z</time>
      </trkpt>
      <trkpt lat="49.10918" lon="4.22583">
        <ele>134.24</ele>
        <time>2021-08-09T14:49:28Z</time>
      </trkpt>
      <trkpt lat="49.10895" lon="4.22576">
        <ele>131.84</ele>
        <time>2021-08-09T14:49:32Z</time>
      </trkpt>
      <trkpt lat="49.10858" lon="4.22567">
        <ele>131.36</ele>
        <time>2021-08-09T14:49:39Z</time>
      </trkpt>
      <trkpt lat="49.10842" lon="4.22564">
        <ele>133.28</ele>
        <time>2021-08-09T14:49:43Z</time>
      </trkpt>
      <trkpt lat="49.10813" lon="4.22557">
        <ele>134.72</ele>
        <time>2021-08-09T14:49:52Z</time>
      </trkpt>
      <trkpt lat="49.10794" lon="4.22561">
        <ele>134.72</ele>
        <time>2021-08-09T14:49:58Z</time>
      </trkpt>
      <trkpt lat="49.10789" lon="4.22571">
        <ele>134.72</ele>
        <time>2021-08-09T14:50:00Z</time>
      </trkpt>
      <trkpt lat="49.10788" lon="4.22578">
        <ele>134.72</ele>
        <time>2021-08-09T14:50:01Z</time>
      </trkpt>
      <trkpt lat="49.10788" lon="4.22585">
        <ele>134.72</ele>
        <time>2021-08-09T14:50:02Z</time>
      </trkpt>
      <trkpt lat="49.10787" lon="4.22592">
        <ele>134.72</ele>
        <time>2021-08-09T14:50:03Z</time>
      </trkpt>
      <trkpt lat="49.10786" lon="4.22599">
        <ele>134.72</ele>
        <time>2021-08-09T14:50:04Z</time>
      </trkpt>
      <trkpt lat="49.10783" lon="4.22604">
        <ele>134.72</ele>
        <time>2021-08-09T14:50:05Z</time>
      </trkpt>
      <trkpt lat="49.1078" lon="4.22607">
        <ele>134.72</ele>
        <time>2021-08-09T14:50:06Z</time>
      </trkpt>
      <trkpt lat="49.10777" lon="4.22608">
        <ele>132.32</ele>
        <time>2021-08-09T14:50:07Z</time>
      </trkpt>
      <trkpt lat="49.10773" lon="4.22608">
        <ele>132.32</ele>
        <time>2021-08-09T14:50:08Z</time>
      </trkpt>
      <trkpt lat="49.10769" lon="4.22607">
        <ele>132.32</ele>
        <time>2021-08-09T14:50:09Z</time>
      </trkpt>
      <trkpt lat="49.10736" lon="4.226">
        <ele>132.8</ele>
        <time>2021-08-09T14:50:19Z</time>
      </trkpt>
      <trkpt lat="49.10729" lon="4.22603">
        <ele>132.32</ele>
        <time>2021-08-09T14:50:21Z</time>
      </trkpt>
      <trkpt lat="49.10726" lon="4.22609">
        <ele>133.76</ele>
        <time>2021-08-09T14:50:22Z</time>
      </trkpt>
      <trkpt lat="49.10724" lon="4.22614">
        <ele>133.76</ele>
        <time>2021-08-09T14:50:23Z</time>
      </trkpt>
      <trkpt lat="49.10723" lon="4.2262">
        <ele>133.76</ele>
        <time>2021-08-09T14:50:24Z</time>
      </trkpt>
      <trkpt lat="49.10722" lon="4.22627">
        <ele>133.76</ele>
        <time>2021-08-09T14:50:25Z</time>
      </trkpt>
      <trkpt lat="49.10721" lon="4.22634">
        <ele>133.76</ele>
        <time>2021-08-09T14:50:26Z</time>
      </trkpt>
      <trkpt lat="49.10719" lon="4.22659">
        <ele>132.32</ele>
        <time>2021-08-09T14:50:29Z</time>
      </trkpt>
      <trkpt lat="49.10714" lon="4.22747">
        <ele>131.36</ele>
        <time>2021-08-09T14:50:39Z</time>
      </trkpt>
      <trkpt lat="49.10708" lon="4.22824">
        <ele>129.43</ele>
        <time>2021-08-09T14:50:47Z</time>
      </trkpt>
      <trkpt lat="49.10703" lon="4.22897">
        <ele>128.95</ele>
        <time>2021-08-09T14:50:55Z</time>
      </trkpt>
      <trkpt lat="49.10699" lon="4.22957">
        <ele>128.47</ele>
        <time>2021-08-09T14:51:02Z</time>
      </trkpt>
      <trkpt lat="49.10694" lon="4.23036">
        <ele>127.03</ele>
        <time>2021-08-09T14:51:10Z</time>
      </trkpt>
      <trkpt lat="49.10687" lon="4.23126">
        <ele>127.51</ele>
        <time>2021-08-09T14:51:19Z</time>
      </trkpt>
      <trkpt lat="49.10684" lon="4.23159">
        <ele>129.43</ele>
        <time>2021-08-09T14:51:24Z</time>
      </trkpt>
      <trkpt lat="49.10679" lon="4.23177">
        <ele>130.4</ele>
        <time>2021-08-09T14:51:30Z</time>
      </trkpt>
      <trkpt lat="49.10668" lon="4.23191">
        <ele>128.95</ele>
        <time>2021-08-09T14:51:35Z</time>
      </trkpt>
      <trkpt lat="49.10661" lon="4.23205">
        <ele>130.4</ele>
        <time>2021-08-09T14:51:39Z</time>
      </trkpt>
      <trkpt lat="49.10647" lon="4.23244">
        <ele>131.84</ele>
        <time>2021-08-09T14:51:49Z</time>
      </trkpt>
      <trkpt lat="49.10633" lon="4.23282">
        <ele>132.32</ele>
        <time>2021-08-09T14:51:58Z</time>
      </trkpt>
      <trkpt lat="49.10628" lon="4.23298">
        <ele>133.28</ele>
        <time>2021-08-09T14:52:01Z</time>
      </trkpt>
      <trkpt lat="49.10622" lon="4.23315">
        <ele>131.84</ele>
        <time>2021-08-09T14:52:04Z</time>
      </trkpt>
      <trkpt lat="49.1061" lon="4.2335">
        <ele>130.88</ele>
        <time>2021-08-09T14:52:11Z</time>
      </trkpt>
      <trkpt lat="49.10594" lon="4.23404">
        <ele>129.92</ele>
        <time>2021-08-09T14:52:19Z</time>
      </trkpt>
      <trkpt lat="49.10573" lon="4.23466">
        <ele>127.03</ele>
        <time>2021-08-09T14:52:26Z</time>
      </trkpt>
      <trkpt lat="49.1057" lon="4.23476">
        <ele>127.03</ele>
        <time>2021-08-09T14:52:27Z</time>
      </trkpt>
      <trkpt lat="49.1056" lon="4.23508">
        <ele>125.59</ele>
        <time>2021-08-09T14:52:30Z</time>
      </trkpt>
      <trkpt lat="49.10537" lon="4.23578">
        <ele>122.22</ele>
        <time>2021-08-09T14:52:36Z</time>
      </trkpt>
      <trkpt lat="49.10498" lon="4.23697">
        <ele>119.34</ele>
        <time>2021-08-09T14:52:46Z</time>
      </trkpt>
      <trkpt lat="49.10486" lon="4.23756">
        <ele>119.34</ele>
        <time>2021-08-09T14:52:51Z</time>
      </trkpt>
      <trkpt lat="49.10483" lon="4.23791">
        <ele>120.78</ele>
        <time>2021-08-09T14:52:54Z</time>
      </trkpt>
      <trkpt lat="49.1048" lon="4.23815">
        <ele>119.34</ele>
        <time>2021-08-09T14:52:56Z</time>
      </trkpt>
      <trkpt lat="49.10467" lon="4.23937">
        <ele>117.9</ele>
        <time>2021-08-09T14:53:07Z</time>
      </trkpt>
      <trkpt lat="49.1046" lon="4.24">
        <ele>117.42</ele>
        <time>2021-08-09T14:53:13Z</time>
      </trkpt>
      <trkpt lat="49.1044" lon="4.24099">
        <ele>116.94</ele>
        <time>2021-08-09T14:53:23Z</time>
      </trkpt>
      <trkpt lat="49.10427" lon="4.24163">
        <ele>116.46</ele>
        <time>2021-08-09T14:53:30Z</time>
      </trkpt>
      <trkpt lat="49.10421" lon="4.24202">
        <ele>117.42</ele>
        <time>2021-08-09T14:53:35Z</time>
      </trkpt>
      <trkpt lat="49.1042" lon="4.24209">
        <ele>117.42</ele>
        <time>2021-08-09T14:53:36Z</time>
      </trkpt>
      <trkpt lat="49.10419" lon="4.24215">
        <ele>117.42</ele>
        <time>2021-08-09T14:53:37Z</time>
      </trkpt>
      <trkpt lat="49.10417" lon="4.24219">
        <ele>117.42</ele>
        <time>2021-08-09T14:53:38Z</time>
      </trkpt>
      <trkpt lat="49.10413" lon="4.24221">
        <ele>115.98</ele>
        <time>2021-08-09T14:53:39Z</time>
      </trkpt>
      <trkpt lat="49.10409" lon="4.2422">
        <ele>115.98</ele>
        <time>2021-08-09T14:53:40Z</time>
      </trkpt>
      <trkpt lat="49.10405" lon="4.24219">
        <ele>115.98</ele>
        <time>2021-08-09T14:53:41Z</time>
      </trkpt>
      <trkpt lat="49.10376" lon="4.24207">
        <ele>115.5</ele>
        <time>2021-08-09T14:53:48Z</time>
      </trkpt>
      <trkpt lat="49.10375" lon="4.24207">
        <ele>115.5</ele>
        <time>2021-08-09T14:53:52Z</time>
      </trkpt>
      <trkpt lat="49.10375" lon="4.24206">
        <ele>115.5</ele>
        <time>2021-08-09T14:54:07Z</time>
      </trkpt>
      <trkpt lat="49.10368" lon="4.24205">
        <ele>115.5</ele>
        <time>2021-08-09T14:54:18Z</time>
      </trkpt>
      <trkpt lat="49.10359" lon="4.24201">
        <ele>115.01</ele>
        <time>2021-08-09T14:54:24Z</time>
      </trkpt>
      <trkpt lat="49.1036" lon="4.24204">
        <ele>115.01</ele>
        <time>2021-08-09T14:54:32Z</time>
      </trkpt>
      <trkpt lat="49.10361" lon="4.24205">
        <ele>115.01</ele>
        <time>2021-08-09T14:54:36Z</time>
      </trkpt>
      <trkpt lat="49.10362" lon="4.24205">
        <ele>115.01</ele>
        <time>2021-08-09T14:54:37Z</time>
      </trkpt>
      <trkpt lat="49.10365" lon="4.24205">
        <ele>115.01</ele>
        <time>2021-08-09T14:54:38Z</time>
      </trkpt>
      <trkpt lat="49.10366" lon="4.24206">
        <ele>115.01</ele>
        <time>2021-08-09T14:54:39Z</time>
      </trkpt>
      <trkpt lat="49.10368" lon="4.24206">
        <ele>115.01</ele>
        <time>2021-08-09T14:54:40Z</time>
      </trkpt>
      <trkpt lat="49.1037" lon="4.24207">
        <ele>115.01</ele>
        <time>2021-08-09T14:54:41Z</time>
      </trkpt>
      <trkpt lat="49.10373" lon="4.24207">
        <ele>115.01</ele>
        <time>2021-08-09T14:54:42Z</time>
      </trkpt>
      <trkpt lat="49.10375" lon="4.24207">
        <ele>115.01</ele>
        <time>2021-08-09T14:54:43Z</time>
      </trkpt>
      <trkpt lat="49.10377" lon="4.24205">
        <ele>115.01</ele>
        <time>2021-08-09T14:54:44Z</time>
      </trkpt>
      <trkpt lat="49.10376" lon="4.24202">
        <ele>115.01</ele>
        <time>2021-08-09T14:54:45Z</time>
      </trkpt>
      <trkpt lat="49.10374" lon="4.242">
        <ele>115.01</ele>
        <time>2021-08-09T14:54:46Z</time>
      </trkpt>
      <trkpt lat="49.10372" lon="4.24198">
        <ele>115.01</ele>
        <time>2021-08-09T14:54:47Z</time>
      </trkpt>
      <trkpt lat="49.10353" lon="4.24185">
        <ele>112.13</ele>
        <time>2021-08-09T14:54:51Z</time>
      </trkpt>
      <trkpt lat="49.10344" lon="4.24177">
        <ele>110.69</ele>
        <time>2021-08-09T14:54:53Z</time>
      </trkpt>
      <trkpt lat="49.1033" lon="4.24167">
        <ele>107.32</ele>
        <time>2021-08-09T14:54:56Z</time>
      </trkpt>
      <trkpt lat="49.10319" lon="4.2416">
        <ele>105.88</ele>
        <time>2021-08-09T14:54:59Z</time>
      </trkpt>
      <trkpt lat="49.10315" lon="4.24158">
        <ele>105.4</ele>
        <time>2021-08-09T14:55:00Z</time>
      </trkpt>
      <trkpt lat="49.1031" lon="4.24155">
        <ele>104.92</ele>
        <time>2021-08-09T14:55:01Z</time>
      </trkpt>
      <trkpt lat="49.10301" lon="4.2415">
        <ele>104.44</ele>
        <time>2021-08-09T14:55:03Z</time>
      </trkpt>
      <trkpt lat="49.10297" lon="4.24148">
        <ele>104.44</ele>
        <time>2021-08-09T14:55:04Z</time>
      </trkpt>
      <trkpt lat="49.10268" lon="4.24136">
        <ele>104.44</ele>
        <time>2021-08-09T14:55:12Z</time>
      </trkpt>
      <trkpt lat="49.10235" lon="4.24122">
        <ele>104.44</ele>
        <time>2021-08-09T14:55:21Z</time>
      </trkpt>
      <trkpt lat="49.10201" lon="4.24108">
        <ele>104.44</ele>
        <time>2021-08-09T14:55:31Z</time>
      </trkpt>
      <trkpt lat="49.10175" lon="4.24095">
        <ele>104.44</ele>
        <time>2021-08-09T14:55:41Z</time>
      </trkpt>
      <trkpt lat="49.10163" lon="4.24089">
        <ele>105.4</ele>
        <time>2021-08-09T14:55:46Z</time>
      </trkpt>
      <trkpt lat="49.10148" lon="4.24085">
        <ele>105.4</ele>
        <time>2021-08-09T14:55:52Z</time>
      </trkpt>
      <trkpt lat="49.10133" lon="4.24076">
        <ele>105.4</ele>
        <time>2021-08-09T14:55:58Z</time>
      </trkpt>
      <trkpt lat="49.10109" lon="4.24064">
        <ele>105.4</ele>
        <time>2021-08-09T14:56:06Z</time>
      </trkpt>
      <trkpt lat="49.10086" lon="4.24051">
        <ele>105.4</ele>
        <time>2021-08-09T14:56:14Z</time>
      </trkpt>
      <trkpt lat="49.10059" lon="4.2403">
        <ele>103.96</ele>
        <time>2021-08-09T14:56:24Z</time>
      </trkpt>
      <trkpt lat="49.10033" lon="4.24007">
        <ele>103.96</ele>
        <time>2021-08-09T14:56:34Z</time>
      </trkpt>
      <trkpt lat="49.10009" lon="4.23983">
        <ele>103.96</ele>
        <time>2021-08-09T14:56:43Z</time>
      </trkpt>
      <trkpt lat="49.09993" lon="4.23961">
        <ele>103.48</ele>
        <time>2021-08-09T14:56:50Z</time>
      </trkpt>
      <trkpt lat="49.09976" lon="4.23936">
        <ele>103.48</ele>
        <time>2021-08-09T14:56:57Z</time>
      </trkpt>
      <trkpt lat="49.09961" lon="4.23916">
        <ele>103.48</ele>
        <time>2021-08-09T14:57:03Z</time>
      </trkpt>
      <trkpt lat="49.09941" lon="4.23892">
        <ele>103.48</ele>
        <time>2021-08-09T14:57:10Z</time>
      </trkpt>
      <trkpt lat="49.09914" lon="4.23853">
        <ele>103.48</ele>
        <time>2021-08-09T14:57:21Z</time>
      </trkpt>
      <trkpt lat="49.09892" lon="4.23819">
        <ele>103.48</ele>
        <time>2021-08-09T14:57:30Z</time>
      </trkpt>
      <trkpt lat="49.0987" lon="4.2379">
        <ele>103.48</ele>
        <time>2021-08-09T14:57:38Z</time>
      </trkpt>
      <trkpt lat="49.09849" lon="4.2376">
        <ele>103.48</ele>
        <time>2021-08-09T14:57:46Z</time>
      </trkpt>
      <trkpt lat="49.09832" lon="4.23736">
        <ele>103</ele>
        <time>2021-08-09T14:57:53Z</time>
      </trkpt>
      <trkpt lat="49.09811" lon="4.23708">
        <ele>103</ele>
        <time>2021-08-09T14:58:01Z</time>
      </trkpt>
      <trkpt lat="49.09785" lon="4.23674">
        <ele>103</ele>
        <time>2021-08-09T14:58:11Z</time>
      </trkpt>
      <trkpt lat="49.09757" lon="4.23637">
        <ele>103</ele>
        <time>2021-08-09T14:58:22Z</time>
      </trkpt>
      <trkpt lat="49.09739" lon="4.23614">
        <ele>103</ele>
        <time>2021-08-09T14:58:29Z</time>
      </trkpt>
      <trkpt lat="49.09715" lon="4.23587">
        <ele>102.52</ele>
        <time>2021-08-09T14:58:38Z</time>
      </trkpt>
      <trkpt lat="49.09687" lon="4.23562">
        <ele>102.52</ele>
        <time>2021-08-09T14:58:47Z</time>
      </trkpt>
      <trkpt lat="49.09657" lon="4.2354">
        <ele>102.52</ele>
        <time>2021-08-09T14:58:56Z</time>
      </trkpt>
      <trkpt lat="49.09627" lon="4.23524">
        <ele>102.04</ele>
        <time>2021-08-09T14:59:05Z</time>
      </trkpt>
      <trkpt lat="49.09596" lon="4.23511">
        <ele>103</ele>
        <time>2021-08-09T14:59:14Z</time>
      </trkpt>
      <trkpt lat="49.0957" lon="4.23504">
        <ele>103</ele>
        <time>2021-08-09T14:59:22Z</time>
      </trkpt>
      <trkpt lat="49.09537" lon="4.23501">
        <ele>103</ele>
        <time>2021-08-09T14:59:31Z</time>
      </trkpt>
      <trkpt lat="49.09506" lon="4.23501">
        <ele>102.52</ele>
        <time>2021-08-09T14:59:39Z</time>
      </trkpt>
      <trkpt lat="49.09488" lon="4.23502">
        <ele>102.52</ele>
        <time>2021-08-09T14:59:45Z</time>
      </trkpt>
      <trkpt lat="49.09461" lon="4.23507">
        <ele>102.52</ele>
        <time>2021-08-09T14:59:53Z</time>
      </trkpt>
      <trkpt lat="49.09436" lon="4.23515">
        <ele>102.52</ele>
        <time>2021-08-09T15:00:01Z</time>
      </trkpt>
      <trkpt lat="49.09401" lon="4.23531">
        <ele>102.52</ele>
        <time>2021-08-09T15:00:11Z</time>
      </trkpt>
      <trkpt lat="49.09382" lon="4.23546">
        <ele>102.52</ele>
        <time>2021-08-09T15:00:18Z</time>
      </trkpt>
      <trkpt lat="49.09381" lon="4.23546">
        <ele>102.52</ele>
        <time>2021-08-09T15:00:23Z</time>
      </trkpt>
      <trkpt lat="49.09381" lon="4.23547">
        <ele>102.52</ele>
        <time>2021-08-09T15:00:31Z</time>
      </trkpt>
      <trkpt lat="49.09378" lon="4.23548">
        <ele>102.04</ele>
        <time>2021-08-09T15:00:38Z</time>
      </trkpt>
      <trkpt lat="49.09367" lon="4.23555">
        <ele>102.04</ele>
        <time>2021-08-09T15:00:44Z</time>
      </trkpt>
      <trkpt lat="49.09338" lon="4.23572">
        <ele>102.04</ele>
        <time>2021-08-09T15:00:52Z</time>
      </trkpt>
      <trkpt lat="49.09306" lon="4.23592">
        <ele>102.04</ele>
        <time>2021-08-09T15:01:01Z</time>
      </trkpt>
      <trkpt lat="49.09284" lon="4.23605">
        <ele>102.04</ele>
        <time>2021-08-09T15:01:08Z</time>
      </trkpt>
      <trkpt lat="49.09263" lon="4.23619">
        <ele>102.04</ele>
        <time>2021-08-09T15:01:15Z</time>
      </trkpt>
      <trkpt lat="49.09237" lon="4.23638">
        <ele>102.52</ele>
        <time>2021-08-09T15:01:23Z</time>
      </trkpt>
      <trkpt lat="49.09225" lon="4.23648">
        <ele>102.52</ele>
        <time>2021-08-09T15:01:29Z</time>
      </trkpt>
      <trkpt lat="49.09215" lon="4.23661">
        <ele>103.96</ele>
        <time>2021-08-09T15:01:37Z</time>
      </trkpt>
      <trkpt lat="49.09213" lon="4.23675">
        <ele>105.4</ele>
        <time>2021-08-09T15:01:42Z</time>
      </trkpt>
      <trkpt lat="49.0921" lon="4.23683">
        <ele>105.4</ele>
        <time>2021-08-09T15:01:45Z</time>
      </trkpt>
      <trkpt lat="49.0921" lon="4.23687">
        <ele>105.4</ele>
        <time>2021-08-09T15:01:46Z</time>
      </trkpt>
      <trkpt lat="49.09211" lon="4.23689">
        <ele>105.4</ele>
        <time>2021-08-09T15:01:47Z</time>
      </trkpt>
      <trkpt lat="49.09212" lon="4.23693">
        <ele>105.4</ele>
        <time>2021-08-09T15:01:48Z</time>
      </trkpt>
      <trkpt lat="49.09212" lon="4.23698">
        <ele>105.4</ele>
        <time>2021-08-09T15:01:49Z</time>
      </trkpt>
      <trkpt lat="49.09213" lon="4.23703">
        <ele>105.4</ele>
        <time>2021-08-09T15:01:50Z</time>
      </trkpt>
      <trkpt lat="49.09226" lon="4.23732">
        <ele>105.4</ele>
        <time>2021-08-09T15:01:57Z</time>
      </trkpt>
      <trkpt lat="49.09234" lon="4.23751">
        <ele>105.4</ele>
        <time>2021-08-09T15:02:02Z</time>
      </trkpt>
      <trkpt lat="49.09233" lon="4.23754">
        <ele>105.4</ele>
        <time>2021-08-09T15:02:03Z</time>
      </trkpt>
      <trkpt lat="49.09232" lon="4.23757">
        <ele>105.4</ele>
        <time>2021-08-09T15:02:04Z</time>
      </trkpt>
      <trkpt lat="49.09228" lon="4.23759">
        <ele>105.4</ele>
        <time>2021-08-09T15:02:06Z</time>
      </trkpt>
      <trkpt lat="49.09226" lon="4.23756">
        <ele>105.4</ele>
        <time>2021-08-09T15:02:07Z</time>
      </trkpt>
      <trkpt lat="49.09224" lon="4.23751">
        <ele>105.4</ele>
        <time>2021-08-09T15:02:08Z</time>
      </trkpt>
      <trkpt lat="49.09209" lon="4.23714">
        <ele>106.36</ele>
        <time>2021-08-09T15:02:18Z</time>
      </trkpt>
      <trkpt lat="49.09207" lon="4.23713">
        <ele>106.36</ele>
        <time>2021-08-09T15:02:19Z</time>
      </trkpt>
      <trkpt lat="49.09196" lon="4.23709">
        <ele>106.36</ele>
        <time>2021-08-09T15:02:22Z</time>
      </trkpt>
      <trkpt lat="49.09192" lon="4.23709">
        <ele>106.36</ele>
        <time>2021-08-09T15:02:23Z</time>
      </trkpt>
      <trkpt lat="49.09187" lon="4.23709">
        <ele>106.36</ele>
        <time>2021-08-09T15:02:24Z</time>
      </trkpt>
      <trkpt lat="49.09171" lon="4.23709">
        <ele>104.44</ele>
        <time>2021-08-09T15:02:27Z</time>
      </trkpt>
      <trkpt lat="49.09167" lon="4.2371">
        <ele>104.44</ele>
        <time>2021-08-09T15:02:28Z</time>
      </trkpt>
      <trkpt lat="49.09162" lon="4.23711">
        <ele>104.44</ele>
        <time>2021-08-09T15:02:29Z</time>
      </trkpt>
      <trkpt lat="49.09142" lon="4.2372">
        <ele>103.96</ele>
        <time>2021-08-09T15:02:33Z</time>
      </trkpt>
      <trkpt lat="49.0911" lon="4.23744">
        <ele>103.96</ele>
        <time>2021-08-09T15:02:39Z</time>
      </trkpt>
      <trkpt lat="49.09083" lon="4.23763">
        <ele>103</ele>
        <time>2021-08-09T15:02:44Z</time>
      </trkpt>
      <trkpt lat="49.09077" lon="4.23767">
        <ele>103</ele>
        <time>2021-08-09T15:02:45Z</time>
      </trkpt>
      <trkpt lat="49.09026" lon="4.23801">
        <ele>103</ele>
        <time>2021-08-09T15:02:54Z</time>
      </trkpt>
      <trkpt lat="49.0897" lon="4.23834">
        <ele>103</ele>
        <time>2021-08-09T15:03:03Z</time>
      </trkpt>
      <trkpt lat="49.08909" lon="4.23872">
        <ele>102.52</ele>
        <time>2021-08-09T15:03:13Z</time>
      </trkpt>
      <trkpt lat="49.08857" lon="4.23907">
        <ele>102.04</ele>
        <time>2021-08-09T15:03:22Z</time>
      </trkpt>
      <trkpt lat="49.08809" lon="4.23938">
        <ele>102.04</ele>
        <time>2021-08-09T15:03:30Z</time>
      </trkpt>
      <trkpt lat="49.08756" lon="4.23972">
        <ele>102.04</ele>
        <time>2021-08-09T15:03:39Z</time>
      </trkpt>
      <trkpt lat="49.0875" lon="4.23976">
        <ele>102.04</ele>
        <time>2021-08-09T15:03:40Z</time>
      </trkpt>
      <trkpt lat="49.08745" lon="4.23982">
        <ele>102.04</ele>
        <time>2021-08-09T15:03:41Z</time>
      </trkpt>
      <trkpt lat="49.08741" lon="4.2399">
        <ele>102.04</ele>
        <time>2021-08-09T15:03:42Z</time>
      </trkpt>
      <trkpt lat="49.08737" lon="4.23999">
        <ele>102.04</ele>
        <time>2021-08-09T15:03:43Z</time>
      </trkpt>
      <trkpt lat="49.08734" lon="4.24008">
        <ele>102.04</ele>
        <time>2021-08-09T15:03:44Z</time>
      </trkpt>
      <trkpt lat="49.08732" lon="4.24017">
        <ele>102.04</ele>
        <time>2021-08-09T15:03:45Z</time>
      </trkpt>
      <trkpt lat="49.0873" lon="4.24027">
        <ele>102.04</ele>
        <time>2021-08-09T15:03:46Z</time>
      </trkpt>
      <trkpt lat="49.08722" lon="4.24056">
        <ele>101.08</ele>
        <time>2021-08-09T15:03:49Z</time>
      </trkpt>
      <trkpt lat="49.08718" lon="4.24065">
        <ele>100.11</ele>
        <time>2021-08-09T15:03:50Z</time>
      </trkpt>
      <trkpt lat="49.08714" lon="4.24073">
        <ele>100.11</ele>
        <time>2021-08-09T15:03:51Z</time>
      </trkpt>
      <trkpt lat="49.08709" lon="4.24078">
        <ele>100.11</ele>
        <time>2021-08-09T15:03:52Z</time>
      </trkpt>
      <trkpt lat="49.08704" lon="4.24082">
        <ele>101.56</ele>
        <time>2021-08-09T15:03:53Z</time>
      </trkpt>
      <trkpt lat="49.08698" lon="4.24087">
        <ele>101.56</ele>
        <time>2021-08-09T15:03:54Z</time>
      </trkpt>
      <trkpt lat="49.08692" lon="4.2409">
        <ele>101.56</ele>
        <time>2021-08-09T15:03:55Z</time>
      </trkpt>
      <trkpt lat="49.08683" lon="4.24096">
        <ele>99.63</ele>
        <time>2021-08-09T15:03:57Z</time>
      </trkpt>
      <trkpt lat="49.0866" lon="4.2411">
        <ele>101.56</ele>
        <time>2021-08-09T15:04:02Z</time>
      </trkpt>
      <trkpt lat="49.08655" lon="4.24113">
        <ele>101.56</ele>
        <time>2021-08-09T15:04:03Z</time>
      </trkpt>
      <trkpt lat="49.08622" lon="4.24134">
        <ele>101.56</ele>
        <time>2021-08-09T15:04:10Z</time>
      </trkpt>
      <trkpt lat="49.08617" lon="4.24136">
        <ele>101.56</ele>
        <time>2021-08-09T15:04:11Z</time>
      </trkpt>
      <trkpt lat="49.08613" lon="4.24136">
        <ele>101.08</ele>
        <time>2021-08-09T15:04:12Z</time>
      </trkpt>
      <trkpt lat="49.08608" lon="4.24136">
        <ele>100.11</ele>
        <time>2021-08-09T15:04:13Z</time>
      </trkpt>
      <trkpt lat="49.08604" lon="4.24135">
        <ele>100.11</ele>
        <time>2021-08-09T15:04:14Z</time>
      </trkpt>
      <trkpt lat="49.08599" lon="4.24131">
        <ele>100.11</ele>
        <time>2021-08-09T15:04:15Z</time>
      </trkpt>
      <trkpt lat="49.08595" lon="4.24125">
        <ele>100.11</ele>
        <time>2021-08-09T15:04:16Z</time>
      </trkpt>
      <trkpt lat="49.08591" lon="4.24119">
        <ele>100.11</ele>
        <time>2021-08-09T15:04:17Z</time>
      </trkpt>
      <trkpt lat="49.08588" lon="4.24113">
        <ele>100.11</ele>
        <time>2021-08-09T15:04:18Z</time>
      </trkpt>
      <trkpt lat="49.08585" lon="4.24106">
        <ele>100.11</ele>
        <time>2021-08-09T15:04:19Z</time>
      </trkpt>
      <trkpt lat="49.08581" lon="4.24101">
        <ele>100.11</ele>
        <time>2021-08-09T15:04:20Z</time>
      </trkpt>
      <trkpt lat="49.08576" lon="4.24098">
        <ele>100.11</ele>
        <time>2021-08-09T15:04:21Z</time>
      </trkpt>
      <trkpt lat="49.08571" lon="4.24096">
        <ele>100.11</ele>
        <time>2021-08-09T15:04:22Z</time>
      </trkpt>
      <trkpt lat="49.08565" lon="4.24096">
        <ele>100.11</ele>
        <time>2021-08-09T15:04:23Z</time>
      </trkpt>
      <trkpt lat="49.0856" lon="4.24098">
        <ele>100.11</ele>
        <time>2021-08-09T15:04:24Z</time>
      </trkpt>
      <trkpt lat="49.08549" lon="4.24101">
        <ele>100.11</ele>
        <time>2021-08-09T15:04:26Z</time>
      </trkpt>
      <trkpt lat="49.08505" lon="4.24117">
        <ele>99.63</ele>
        <time>2021-08-09T15:04:34Z</time>
      </trkpt>
      <trkpt lat="49.08447" lon="4.24122">
        <ele>99.15</ele>
        <time>2021-08-09T15:04:44Z</time>
      </trkpt>
      <trkpt lat="49.08398" lon="4.24116">
        <ele>99.15</ele>
        <time>2021-08-09T15:04:53Z</time>
      </trkpt>
      <trkpt lat="49.08368" lon="4.24105">
        <ele>100.11</ele>
        <time>2021-08-09T15:05:00Z</time>
      </trkpt>
      <trkpt lat="49.08339" lon="4.24095">
        <ele>100.11</ele>
        <time>2021-08-09T15:05:08Z</time>
      </trkpt>
      <trkpt lat="49.08297" lon="4.24072">
        <ele>99.15</ele>
        <time>2021-08-09T15:05:17Z</time>
      </trkpt>
      <trkpt lat="49.08292" lon="4.24069">
        <ele>99.15</ele>
        <time>2021-08-09T15:05:18Z</time>
      </trkpt>
      <trkpt lat="49.08256" lon="4.24042">
        <ele>99.15</ele>
        <time>2021-08-09T15:05:26Z</time>
      </trkpt>
      <trkpt lat="49.08221" lon="4.24012">
        <ele>99.15</ele>
        <time>2021-08-09T15:05:34Z</time>
      </trkpt>
      <trkpt lat="49.08189" lon="4.23984">
        <ele>100.6</ele>
        <time>2021-08-09T15:05:42Z</time>
      </trkpt>
      <trkpt lat="49.0818" lon="4.2398">
        <ele>101.08</ele>
        <time>2021-08-09T15:05:45Z</time>
      </trkpt>
      <trkpt lat="49.08178" lon="4.23983">
        <ele>101.08</ele>
        <time>2021-08-09T15:05:46Z</time>
      </trkpt>
      <trkpt lat="49.08176" lon="4.23986">
        <ele>101.08</ele>
        <time>2021-08-09T15:05:47Z</time>
      </trkpt>
      <trkpt lat="49.0817" lon="4.23995">
        <ele>101.08</ele>
        <time>2021-08-09T15:05:49Z</time>
      </trkpt>
      <trkpt lat="49.08164" lon="4.24005">
        <ele>101.08</ele>
        <time>2021-08-09T15:05:51Z</time>
      </trkpt>
      <trkpt lat="49.08159" lon="4.24011">
        <ele>101.08</ele>
        <time>2021-08-09T15:05:52Z</time>
      </trkpt>
      <trkpt lat="49.08144" lon="4.24026">
        <ele>97.71</ele>
        <time>2021-08-09T15:05:55Z</time>
      </trkpt>
      <trkpt lat="49.08138" lon="4.24031">
        <ele>97.71</ele>
        <time>2021-08-09T15:05:56Z</time>
      </trkpt>
      <trkpt lat="49.08086" lon="4.24078">
        <ele>96.27</ele>
        <time>2021-08-09T15:06:04Z</time>
      </trkpt>
      <trkpt lat="49.08024" lon="4.24136">
        <ele>95.79</ele>
        <time>2021-08-09T15:06:14Z</time>
      </trkpt>
      <trkpt lat="49.07968" lon="4.24188">
        <ele>95.79</ele>
        <time>2021-08-09T15:06:24Z</time>
      </trkpt>
      <trkpt lat="49.07953" lon="4.24201">
        <ele>97.23</ele>
        <time>2021-08-09T15:06:27Z</time>
      </trkpt>
      <trkpt lat="49.07921" lon="4.24231">
        <ele>99.15</ele>
        <time>2021-08-09T15:06:35Z</time>
      </trkpt>
      <trkpt lat="49.07895" lon="4.24255">
        <ele>99.63</ele>
        <time>2021-08-09T15:06:43Z</time>
      </trkpt>
      <trkpt lat="49.07883" lon="4.2428">
        <ele>100.6</ele>
        <time>2021-08-09T15:06:50Z</time>
      </trkpt>
      <trkpt lat="49.07891" lon="4.2431">
        <ele>101.08</ele>
        <time>2021-08-09T15:06:56Z</time>
      </trkpt>
      <trkpt lat="49.07896" lon="4.24337">
        <ele>101.08</ele>
        <time>2021-08-09T15:07:01Z</time>
      </trkpt>
      <trkpt lat="49.07895" lon="4.24341">
        <ele>101.56</ele>
        <time>2021-08-09T15:07:02Z</time>
      </trkpt>
      <trkpt lat="49.07893" lon="4.24346">
        <ele>101.56</ele>
        <time>2021-08-09T15:07:03Z</time>
      </trkpt>
      <trkpt lat="49.07892" lon="4.24348">
        <ele>102.04</ele>
        <time>2021-08-09T15:07:04Z</time>
      </trkpt>
      <trkpt lat="49.07891" lon="4.24348">
        <ele>102.04</ele>
        <time>2021-08-09T15:07:09Z</time>
      </trkpt>
      <trkpt lat="49.07891" lon="4.24347">
        <ele>102.04</ele>
        <time>2021-08-09T15:07:27Z</time>
      </trkpt>
      <trkpt lat="49.07892" lon="4.24345">
        <ele>102.52</ele>
        <time>2021-08-09T15:07:47Z</time>
      </trkpt>
      <trkpt lat="49.07892" lon="4.24346">
        <ele>102.52</ele>
        <time>2021-08-09T15:08:03Z</time>
      </trkpt>
      <trkpt lat="49.07893" lon="4.24346">
        <ele>102.52</ele>
        <time>2021-08-09T15:08:22Z</time>
      </trkpt>
      <trkpt lat="49.07893" lon="4.24346">
        <ele>102.52</ele>
        <time>2021-08-09T15:08:38Z</time>
      </trkpt>
      <trkpt lat="49.07892" lon="4.24346">
        <ele>102.52</ele>
        <time>2021-08-09T15:08:58Z</time>
      </trkpt>
      <trkpt lat="49.07891" lon="4.24348">
        <ele>102.52</ele>
        <time>2021-08-09T15:09:01Z</time>
      </trkpt>
      <trkpt lat="49.07884" lon="4.24364">
        <ele>102.52</ele>
        <time>2021-08-09T15:09:06Z</time>
      </trkpt>
      <trkpt lat="49.07861" lon="4.24393">
        <ele>101.08</ele>
        <time>2021-08-09T15:09:14Z</time>
      </trkpt>
      <trkpt lat="49.07844" lon="4.24411">
        <ele>102.52</ele>
        <time>2021-08-09T15:09:20Z</time>
      </trkpt>
      <trkpt lat="49.07816" lon="4.24439">
        <ele>103.96</ele>
        <time>2021-08-09T15:09:31Z</time>
      </trkpt>
      <trkpt lat="49.0779" lon="4.24465">
        <ele>104.92</ele>
        <time>2021-08-09T15:09:41Z</time>
      </trkpt>
      <trkpt lat="49.07771" lon="4.24484">
        <ele>105.88</ele>
        <time>2021-08-09T15:09:49Z</time>
      </trkpt>
      <trkpt lat="49.07748" lon="4.24508">
        <ele>107.32</ele>
        <time>2021-08-09T15:09:59Z</time>
      </trkpt>
      <trkpt lat="49.07728" lon="4.24528">
        <ele>107.32</ele>
        <time>2021-08-09T15:10:08Z</time>
      </trkpt>
      <trkpt lat="49.07705" lon="4.24552">
        <ele>108.77</ele>
        <time>2021-08-09T15:10:19Z</time>
      </trkpt>
      <trkpt lat="49.07687" lon="4.24569">
        <ele>109.73</ele>
        <time>2021-08-09T15:10:27Z</time>
      </trkpt>
      <trkpt lat="49.07666" lon="4.2459">
        <ele>110.69</ele>
        <time>2021-08-09T15:10:37Z</time>
      </trkpt>
      <trkpt lat="49.07646" lon="4.24611">
        <ele>111.17</ele>
        <time>2021-08-09T15:10:46Z</time>
      </trkpt>
      <trkpt lat="49.07627" lon="4.24631">
        <ele>112.61</ele>
        <time>2021-08-09T15:10:55Z</time>
      </trkpt>
      <trkpt lat="49.0761" lon="4.24649">
        <ele>113.57</ele>
        <time>2021-08-09T15:11:03Z</time>
      </trkpt>
      <trkpt lat="49.07588" lon="4.24672">
        <ele>114.53</ele>
        <time>2021-08-09T15:11:13Z</time>
      </trkpt>
      <trkpt lat="49.07583" lon="4.24676">
        <ele>115.01</ele>
        <time>2021-08-09T15:11:15Z</time>
      </trkpt>
      <trkpt lat="49.07566" lon="4.24694">
        <ele>116.46</ele>
        <time>2021-08-09T15:11:23Z</time>
      </trkpt>
      <trkpt lat="49.0754" lon="4.2472">
        <ele>117.42</ele>
        <time>2021-08-09T15:11:35Z</time>
      </trkpt>
      <trkpt lat="49.07518" lon="4.24742">
        <ele>118.86</ele>
        <time>2021-08-09T15:11:45Z</time>
      </trkpt>
      <trkpt lat="49.07501" lon="4.24759">
        <ele>119.34</ele>
        <time>2021-08-09T15:11:53Z</time>
      </trkpt>
      <trkpt lat="49.07483" lon="4.24777">
        <ele>121.26</ele>
        <time>2021-08-09T15:12:01Z</time>
      </trkpt>
      <trkpt lat="49.07468" lon="4.24794">
        <ele>121.26</ele>
        <time>2021-08-09T15:12:08Z</time>
      </trkpt>
      <trkpt lat="49.07445" lon="4.2482">
        <ele>122.71</ele>
        <time>2021-08-09T15:12:18Z</time>
      </trkpt>
      <trkpt lat="49.07419" lon="4.24847">
        <ele>123.67</ele>
        <time>2021-08-09T15:12:29Z</time>
      </trkpt>
      <trkpt lat="49.07398" lon="4.2487">
        <ele>124.15</ele>
        <time>2021-08-09T15:12:38Z</time>
      </trkpt>
      <trkpt lat="49.07372" lon="4.24897">
        <ele>125.59</ele>
        <time>2021-08-09T15:12:48Z</time>
      </trkpt>
      <trkpt lat="49.07345" lon="4.24926">
        <ele>126.55</ele>
        <time>2021-08-09T15:12:59Z</time>
      </trkpt>
      <trkpt lat="49.07325" lon="4.24947">
        <ele>127.99</ele>
        <time>2021-08-09T15:13:07Z</time>
      </trkpt>
      <trkpt lat="49.07298" lon="4.24975">
        <ele>129.92</ele>
        <time>2021-08-09T15:13:18Z</time>
      </trkpt>
      <trkpt lat="49.07275" lon="4.24997">
        <ele>130.88</ele>
        <time>2021-08-09T15:13:27Z</time>
      </trkpt>
      <trkpt lat="49.07253" lon="4.2502">
        <ele>130.4</ele>
        <time>2021-08-09T15:13:36Z</time>
      </trkpt>
      <trkpt lat="49.07241" lon="4.25033">
        <ele>131.84</ele>
        <time>2021-08-09T15:13:41Z</time>
      </trkpt>
      <trkpt lat="49.07218" lon="4.25056">
        <ele>132.8</ele>
        <time>2021-08-09T15:13:50Z</time>
      </trkpt>
      <trkpt lat="49.07194" lon="4.25079">
        <ele>133.28</ele>
        <time>2021-08-09T15:13:59Z</time>
      </trkpt>
      <trkpt lat="49.0717" lon="4.25103">
        <ele>134.72</ele>
        <time>2021-08-09T15:14:08Z</time>
      </trkpt>
      <trkpt lat="49.07141" lon="4.25131">
        <ele>135.68</ele>
        <time>2021-08-09T15:14:18Z</time>
      </trkpt>
      <trkpt lat="49.07112" lon="4.2516">
        <ele>135.68</ele>
        <time>2021-08-09T15:14:27Z</time>
      </trkpt>
      <trkpt lat="49.07075" lon="4.25198">
        <ele>135.68</ele>
        <time>2021-08-09T15:14:37Z</time>
      </trkpt>
      <trkpt lat="49.07067" lon="4.25206">
        <ele>134.24</ele>
        <time>2021-08-09T15:14:39Z</time>
      </trkpt>
      <trkpt lat="49.0703" lon="4.25242">
        <ele>133.76</ele>
        <time>2021-08-09T15:14:48Z</time>
      </trkpt>
      <trkpt lat="49.06996" lon="4.25279">
        <ele>133.28</ele>
        <time>2021-08-09T15:14:56Z</time>
      </trkpt>
      <trkpt lat="49.06957" lon="4.25317">
        <ele>129.92</ele>
        <time>2021-08-09T15:15:04Z</time>
      </trkpt>
      <trkpt lat="49.06904" lon="4.2537">
        <ele>128.95</ele>
        <time>2021-08-09T15:15:14Z</time>
      </trkpt>
      <trkpt lat="49.06893" lon="4.25381">
        <ele>128.95</ele>
        <time>2021-08-09T15:15:16Z</time>
      </trkpt>
      <trkpt lat="49.06889" lon="4.25388">
        <ele>127.99</ele>
        <time>2021-08-09T15:15:17Z</time>
      </trkpt>
      <trkpt lat="49.06887" lon="4.25394">
        <ele>129.43</ele>
        <time>2021-08-09T15:15:18Z</time>
      </trkpt>
      <trkpt lat="49.06886" lon="4.2541">
        <ele>128.95</ele>
        <time>2021-08-09T15:15:21Z</time>
      </trkpt>
      <trkpt lat="49.06888" lon="4.25415">
        <ele>128.95</ele>
        <time>2021-08-09T15:15:22Z</time>
      </trkpt>
      <trkpt lat="49.0689" lon="4.25421">
        <ele>128.95</ele>
        <time>2021-08-09T15:15:23Z</time>
      </trkpt>
      <trkpt lat="49.06898" lon="4.2544">
        <ele>128.95</ele>
        <time>2021-08-09T15:15:26Z</time>
      </trkpt>
      <trkpt lat="49.06901" lon="4.25448">
        <ele>128.95</ele>
        <time>2021-08-09T15:15:27Z</time>
      </trkpt>
      <trkpt lat="49.06903" lon="4.25456">
        <ele>127.99</ele>
        <time>2021-08-09T15:15:28Z</time>
      </trkpt>
      <trkpt lat="49.06905" lon="4.25463">
        <ele>127.99</ele>
        <time>2021-08-09T15:15:29Z</time>
      </trkpt>
      <trkpt lat="49.06926" lon="4.25543">
        <ele>127.99</ele>
        <time>2021-08-09T15:15:38Z</time>
      </trkpt>
      <trkpt lat="49.06956" lon="4.25649">
        <ele>127.99</ele>
        <time>2021-08-09T15:15:50Z</time>
      </trkpt>
      <trkpt lat="49.06983" lon="4.25744">
        <ele>127.99</ele>
        <time>2021-08-09T15:16:01Z</time>
      </trkpt>
      <trkpt lat="49.07007" lon="4.2583">
        <ele>126.55</ele>
        <time>2021-08-09T15:16:11Z</time>
      </trkpt>
      <trkpt lat="49.07024" lon="4.25888">
        <ele>126.07</ele>
        <time>2021-08-09T15:16:18Z</time>
      </trkpt>
      <trkpt lat="49.07025" lon="4.25896">
        <ele>126.07</ele>
        <time>2021-08-09T15:16:19Z</time>
      </trkpt>
      <trkpt lat="49.07024" lon="4.25906">
        <ele>125.59</ele>
        <time>2021-08-09T15:16:20Z</time>
      </trkpt>
      <trkpt lat="49.07022" lon="4.25913">
        <ele>125.11</ele>
        <time>2021-08-09T15:16:21Z</time>
      </trkpt>
      <trkpt lat="49.07019" lon="4.25919">
        <ele>125.11</ele>
        <time>2021-08-09T15:16:22Z</time>
      </trkpt>
      <trkpt lat="49.07015" lon="4.25925">
        <ele>124.63</ele>
        <time>2021-08-09T15:16:23Z</time>
      </trkpt>
      <trkpt lat="49.0701" lon="4.25931">
        <ele>123.67</ele>
        <time>2021-08-09T15:16:24Z</time>
      </trkpt>
      <trkpt lat="49.07006" lon="4.25937">
        <ele>123.67</ele>
        <time>2021-08-09T15:16:25Z</time>
      </trkpt>
      <trkpt lat="49.06964" lon="4.25996">
        <ele>121.74</ele>
        <time>2021-08-09T15:16:34Z</time>
      </trkpt>
      <trkpt lat="49.06914" lon="4.26066">
        <ele>117.9</ele>
        <time>2021-08-09T15:16:44Z</time>
      </trkpt>
      <trkpt lat="49.06862" lon="4.26138">
        <ele>115.98</ele>
        <time>2021-08-09T15:16:54Z</time>
      </trkpt>
      <trkpt lat="49.06838" lon="4.26172">
        <ele>115.01</ele>
        <time>2021-08-09T15:16:59Z</time>
      </trkpt>
      <trkpt lat="49.06827" lon="4.26184">
        <ele>115.01</ele>
        <time>2021-08-09T15:17:01Z</time>
      </trkpt>
      <trkpt lat="49.06808" lon="4.26213">
        <ele>113.09</ele>
        <time>2021-08-09T15:17:05Z</time>
      </trkpt>
      <trkpt lat="49.06762" lon="4.26281">
        <ele>111.65</ele>
        <time>2021-08-09T15:17:15Z</time>
      </trkpt>
      <trkpt lat="49.06704" lon="4.26362">
        <ele>110.69</ele>
        <time>2021-08-09T15:17:27Z</time>
      </trkpt>
      <trkpt lat="49.06647" lon="4.26443">
        <ele>109.73</ele>
        <time>2021-08-09T15:17:39Z</time>
      </trkpt>
      <trkpt lat="49.06607" lon="4.265">
        <ele>109.25</ele>
        <time>2021-08-09T15:17:48Z</time>
      </trkpt>
      <trkpt lat="49.06561" lon="4.26567">
        <ele>108.29</ele>
        <time>2021-08-09T15:17:59Z</time>
      </trkpt>
      <trkpt lat="49.06537" lon="4.26601">
        <ele>108.29</ele>
        <time>2021-08-09T15:18:05Z</time>
      </trkpt>
      <trkpt lat="49.06535" lon="4.26607">
        <ele>108.29</ele>
        <time>2021-08-09T15:18:06Z</time>
      </trkpt>
      <trkpt lat="49.06534" lon="4.26616">
        <ele>109.73</ele>
        <time>2021-08-09T15:18:07Z</time>
      </trkpt>
      <trkpt lat="49.06534" lon="4.26621">
        <ele>109.73</ele>
        <time>2021-08-09T15:18:08Z</time>
      </trkpt>
      <trkpt lat="49.06536" lon="4.26629">
        <ele>110.21</ele>
        <time>2021-08-09T15:18:09Z</time>
      </trkpt>
      <trkpt lat="49.06538" lon="4.26636">
        <ele>110.21</ele>
        <time>2021-08-09T15:18:10Z</time>
      </trkpt>
      <trkpt lat="49.0654" lon="4.26643">
        <ele>110.21</ele>
        <time>2021-08-09T15:18:11Z</time>
      </trkpt>
      <trkpt lat="49.06563" lon="4.26722">
        <ele>111.17</ele>
        <time>2021-08-09T15:18:23Z</time>
      </trkpt>
      <trkpt lat="49.06578" lon="4.26779">
        <ele>112.61</ele>
        <time>2021-08-09T15:18:33Z</time>
      </trkpt>
      <trkpt lat="49.06591" lon="4.26825">
        <ele>114.05</ele>
        <time>2021-08-09T15:18:41Z</time>
      </trkpt>
      <trkpt lat="49.06611" lon="4.26895">
        <ele>115.01</ele>
        <time>2021-08-09T15:18:53Z</time>
      </trkpt>
      <trkpt lat="49.06629" lon="4.26957">
        <ele>115.98</ele>
        <time>2021-08-09T15:19:04Z</time>
      </trkpt>
      <trkpt lat="49.06643" lon="4.27009">
        <ele>116.94</ele>
        <time>2021-08-09T15:19:13Z</time>
      </trkpt>
      <trkpt lat="49.06663" lon="4.27078">
        <ele>117.42</ele>
        <time>2021-08-09T15:19:25Z</time>
      </trkpt>
      <trkpt lat="49.06682" lon="4.27143">
        <ele>118.38</ele>
        <time>2021-08-09T15:19:36Z</time>
      </trkpt>
      <trkpt lat="49.06686" lon="4.27156">
        <ele>118.38</ele>
        <time>2021-08-09T15:19:38Z</time>
      </trkpt>
      <trkpt lat="49.06688" lon="4.27162">
        <ele>118.38</ele>
        <time>2021-08-09T15:19:39Z</time>
      </trkpt>
      <trkpt lat="49.06702" lon="4.27212">
        <ele>119.34</ele>
        <time>2021-08-09T15:19:47Z</time>
      </trkpt>
      <trkpt lat="49.06703" lon="4.27219">
        <ele>119.34</ele>
        <time>2021-08-09T15:19:48Z</time>
      </trkpt>
      <trkpt lat="49.06704" lon="4.27225">
        <ele>119.82</ele>
        <time>2021-08-09T15:19:49Z</time>
      </trkpt>
      <trkpt lat="49.06704" lon="4.27233">
        <ele>119.82</ele>
        <time>2021-08-09T15:19:50Z</time>
      </trkpt>
      <trkpt lat="49.06703" lon="4.27239">
        <ele>119.82</ele>
        <time>2021-08-09T15:19:51Z</time>
      </trkpt>
      <trkpt lat="49.067" lon="4.27245">
        <ele>119.82</ele>
        <time>2021-08-09T15:19:52Z</time>
      </trkpt>
      <trkpt lat="49.06697" lon="4.2725">
        <ele>119.82</ele>
        <time>2021-08-09T15:19:53Z</time>
      </trkpt>
      <trkpt lat="49.06694" lon="4.27255">
        <ele>117.9</ele>
        <time>2021-08-09T15:19:54Z</time>
      </trkpt>
      <trkpt lat="49.0669" lon="4.2726">
        <ele>117.9</ele>
        <time>2021-08-09T15:19:55Z</time>
      </trkpt>
      <trkpt lat="49.06655" lon="4.27302">
        <ele>115.5</ele>
        <time>2021-08-09T15:20:03Z</time>
      </trkpt>
      <trkpt lat="49.06645" lon="4.27315">
        <ele>114.53</ele>
        <time>2021-08-09T15:20:05Z</time>
      </trkpt>
      <trkpt lat="49.06596" lon="4.27375">
        <ele>112.13</ele>
        <time>2021-08-09T15:20:14Z</time>
      </trkpt>
      <trkpt lat="49.06543" lon="4.27437">
        <ele>110.21</ele>
        <time>2021-08-09T15:20:24Z</time>
      </trkpt>
      <trkpt lat="49.06483" lon="4.2751">
        <ele>107.81</ele>
        <time>2021-08-09T15:20:35Z</time>
      </trkpt>
      <trkpt lat="49.06443" lon="4.27556">
        <ele>105.88</ele>
        <time>2021-08-09T15:20:42Z</time>
      </trkpt>
      <trkpt lat="49.06432" lon="4.2757">
        <ele>106.84</ele>
        <time>2021-08-09T15:20:44Z</time>
      </trkpt>
      <trkpt lat="49.06395" lon="4.27612">
        <ele>104.92</ele>
        <time>2021-08-09T15:20:51Z</time>
      </trkpt>
      <trkpt lat="49.06339" lon="4.27678">
        <ele>104.44</ele>
        <time>2021-08-09T15:21:01Z</time>
      </trkpt>
      <trkpt lat="49.06329" lon="4.27691">
        <ele>103</ele>
        <time>2021-08-09T15:21:03Z</time>
      </trkpt>
      <trkpt lat="49.06297" lon="4.27729">
        <ele>102.04</ele>
        <time>2021-08-09T15:21:09Z</time>
      </trkpt>
      <trkpt lat="49.06291" lon="4.27733">
        <ele>102.04</ele>
        <time>2021-08-09T15:21:10Z</time>
      </trkpt>
      <trkpt lat="49.06285" lon="4.27736">
        <ele>101.56</ele>
        <time>2021-08-09T15:21:11Z</time>
      </trkpt>
      <trkpt lat="49.06279" lon="4.27736">
        <ele>101.08</ele>
        <time>2021-08-09T15:21:12Z</time>
      </trkpt>
      <trkpt lat="49.06272" lon="4.27736">
        <ele>100.11</ele>
        <time>2021-08-09T15:21:13Z</time>
      </trkpt>
      <trkpt lat="49.06266" lon="4.27735">
        <ele>100.11</ele>
        <time>2021-08-09T15:21:14Z</time>
      </trkpt>
      <trkpt lat="49.06228" lon="4.27722">
        <ele>100.11</ele>
        <time>2021-08-09T15:21:21Z</time>
      </trkpt>
      <trkpt lat="49.06224" lon="4.27718">
        <ele>101.56</ele>
        <time>2021-08-09T15:21:22Z</time>
      </trkpt>
      <trkpt lat="49.0622" lon="4.27713">
        <ele>101.56</ele>
        <time>2021-08-09T15:21:23Z</time>
      </trkpt>
      <trkpt lat="49.06201" lon="4.27687">
        <ele>101.56</ele>
        <time>2021-08-09T15:21:28Z</time>
      </trkpt>
      <trkpt lat="49.06181" lon="4.27659">
        <ele>102.52</ele>
        <time>2021-08-09T15:21:34Z</time>
      </trkpt>
      <trkpt lat="49.06177" lon="4.27655">
        <ele>103</ele>
        <time>2021-08-09T15:21:35Z</time>
      </trkpt>
      <trkpt lat="49.06173" lon="4.27653">
        <ele>103</ele>
        <time>2021-08-09T15:21:36Z</time>
      </trkpt>
      <trkpt lat="49.0617" lon="4.27651">
        <ele>103</ele>
        <time>2021-08-09T15:21:37Z</time>
      </trkpt>
      <trkpt lat="49.06165" lon="4.27651">
        <ele>103.48</ele>
        <time>2021-08-09T15:21:38Z</time>
      </trkpt>
      <trkpt lat="49.06162" lon="4.27653">
        <ele>103.48</ele>
        <time>2021-08-09T15:21:39Z</time>
      </trkpt>
      <trkpt lat="49.06159" lon="4.27657">
        <ele>103.48</ele>
        <time>2021-08-09T15:21:40Z</time>
      </trkpt>
      <trkpt lat="49.06156" lon="4.27661">
        <ele>104.92</ele>
        <time>2021-08-09T15:21:41Z</time>
      </trkpt>
      <trkpt lat="49.06155" lon="4.27666">
        <ele>104.92</ele>
        <time>2021-08-09T15:21:42Z</time>
      </trkpt>
      <trkpt lat="49.06154" lon="4.27671">
        <ele>104.92</ele>
        <time>2021-08-09T15:21:43Z</time>
      </trkpt>
      <trkpt lat="49.06155" lon="4.27677">
        <ele>104.92</ele>
        <time>2021-08-09T15:21:44Z</time>
      </trkpt>
      <trkpt lat="49.06156" lon="4.27684">
        <ele>104.92</ele>
        <time>2021-08-09T15:21:45Z</time>
      </trkpt>
      <trkpt lat="49.06159" lon="4.27689">
        <ele>104.92</ele>
        <time>2021-08-09T15:21:46Z</time>
      </trkpt>
      <trkpt lat="49.06161" lon="4.27694">
        <ele>104.92</ele>
        <time>2021-08-09T15:21:47Z</time>
      </trkpt>
      <trkpt lat="49.06164" lon="4.27699">
        <ele>104.92</ele>
        <time>2021-08-09T15:21:48Z</time>
      </trkpt>
      <trkpt lat="49.06171" lon="4.27709">
        <ele>103.48</ele>
        <time>2021-08-09T15:21:50Z</time>
      </trkpt>
      <trkpt lat="49.06174" lon="4.27715">
        <ele>103.48</ele>
        <time>2021-08-09T15:21:51Z</time>
      </trkpt>
      <trkpt lat="49.06177" lon="4.27721">
        <ele>103.48</ele>
        <time>2021-08-09T15:21:52Z</time>
      </trkpt>
      <trkpt lat="49.0618" lon="4.27727">
        <ele>103.48</ele>
        <time>2021-08-09T15:21:53Z</time>
      </trkpt>
      <trkpt lat="49.06193" lon="4.27747">
        <ele>104.92</ele>
        <time>2021-08-09T15:21:57Z</time>
      </trkpt>
      <trkpt lat="49.06209" lon="4.27774">
        <ele>107.32</ele>
        <time>2021-08-09T15:22:03Z</time>
      </trkpt>
      <trkpt lat="49.06211" lon="4.27779">
        <ele>107.32</ele>
        <time>2021-08-09T15:22:04Z</time>
      </trkpt>
      <trkpt lat="49.06236" lon="4.27827">
        <ele>109.25</ele>
        <time>2021-08-09T15:22:14Z</time>
      </trkpt>
      <trkpt lat="49.0626" lon="4.27874">
        <ele>109.25</ele>
        <time>2021-08-09T15:22:23Z</time>
      </trkpt>
      <trkpt lat="49.06283" lon="4.27919">
        <ele>106.36</ele>
        <time>2021-08-09T15:22:29Z</time>
      </trkpt>
      <trkpt lat="49.06304" lon="4.27958">
        <ele>103.48</ele>
        <time>2021-08-09T15:22:33Z</time>
      </trkpt>
      <trkpt lat="49.06346" lon="4.2804">
        <ele>102.52</ele>
        <time>2021-08-09T15:22:41Z</time>
      </trkpt>
      <trkpt lat="49.06383" lon="4.2811">
        <ele>105.88</ele>
        <time>2021-08-09T15:22:49Z</time>
      </trkpt>
      <trkpt lat="49.06412" lon="4.28167">
        <ele>106.84</ele>
        <time>2021-08-09T15:22:56Z</time>
      </trkpt>
      <trkpt lat="49.06451" lon="4.28247">
        <ele>108.29</ele>
        <time>2021-08-09T15:23:06Z</time>
      </trkpt>
      <trkpt lat="49.06496" lon="4.28354">
        <ele>109.25</ele>
        <time>2021-08-09T15:23:19Z</time>
      </trkpt>
      <trkpt lat="49.06527" lon="4.28436">
        <ele>109.25</ele>
        <time>2021-08-09T15:23:28Z</time>
      </trkpt>
      <trkpt lat="49.0656" lon="4.28529">
        <ele>109.73</ele>
        <time>2021-08-09T15:23:38Z</time>
      </trkpt>
      <trkpt lat="49.06576" lon="4.28609">
        <ele>109.73</ele>
        <time>2021-08-09T15:23:46Z</time>
      </trkpt>
      <trkpt lat="49.06594" lon="4.28721">
        <ele>108.29</ele>
        <time>2021-08-09T15:23:57Z</time>
      </trkpt>
      <trkpt lat="49.06599" lon="4.28806">
        <ele>107.32</ele>
        <time>2021-08-09T15:24:05Z</time>
      </trkpt>
      <trkpt lat="49.06602" lon="4.28889">
        <ele>106.36</ele>
        <time>2021-08-09T15:24:13Z</time>
      </trkpt>
      <trkpt lat="49.06617" lon="4.28954">
        <ele>105.88</ele>
        <time>2021-08-09T15:24:20Z</time>
      </trkpt>
      <trkpt lat="49.06651" lon="4.29062">
        <ele>106.36</ele>
        <time>2021-08-09T15:24:32Z</time>
      </trkpt>
      <trkpt lat="49.06661" lon="4.29094">
        <ele>106.84</ele>
        <time>2021-08-09T15:24:36Z</time>
      </trkpt>
      <trkpt lat="49.06662" lon="4.29103">
        <ele>106.84</ele>
        <time>2021-08-09T15:24:37Z</time>
      </trkpt>
      <trkpt lat="49.06661" lon="4.29111">
        <ele>106.84</ele>
        <time>2021-08-09T15:24:38Z</time>
      </trkpt>
      <trkpt lat="49.06659" lon="4.29117">
        <ele>106.84</ele>
        <time>2021-08-09T15:24:39Z</time>
      </trkpt>
      <trkpt lat="49.06655" lon="4.29123">
        <ele>106.84</ele>
        <time>2021-08-09T15:24:40Z</time>
      </trkpt>
      <trkpt lat="49.06651" lon="4.29126">
        <ele>106.84</ele>
        <time>2021-08-09T15:24:41Z</time>
      </trkpt>
      <trkpt lat="49.06646" lon="4.29128">
        <ele>106.84</ele>
        <time>2021-08-09T15:24:42Z</time>
      </trkpt>
      <trkpt lat="49.06627" lon="4.2914">
        <ele>106.84</ele>
        <time>2021-08-09T15:24:46Z</time>
      </trkpt>
      <trkpt lat="49.06611" lon="4.29148">
        <ele>106.84</ele>
        <time>2021-08-09T15:24:50Z</time>
      </trkpt>
      <trkpt lat="49.06606" lon="4.29149">
        <ele>106.84</ele>
        <time>2021-08-09T15:24:51Z</time>
      </trkpt>
      <trkpt lat="49.06571" lon="4.29156">
        <ele>104.92</ele>
        <time>2021-08-09T15:24:58Z</time>
      </trkpt>
      <trkpt lat="49.06522" lon="4.29165">
        <ele>103.96</ele>
        <time>2021-08-09T15:25:06Z</time>
      </trkpt>
      <trkpt lat="49.06473" lon="4.29187">
        <ele>103</ele>
        <time>2021-08-09T15:25:14Z</time>
      </trkpt>
      <trkpt lat="49.06417" lon="4.29225">
        <ele>102.04</ele>
        <time>2021-08-09T15:25:23Z</time>
      </trkpt>
      <trkpt lat="49.06405" lon="4.29235">
        <ele>102.52</ele>
        <time>2021-08-09T15:25:25Z</time>
      </trkpt>
      <trkpt lat="49.06364" lon="4.29258">
        <ele>102.52</ele>
        <time>2021-08-09T15:25:32Z</time>
      </trkpt>
      <trkpt lat="49.06346" lon="4.29268">
        <ele>101.08</ele>
        <time>2021-08-09T15:25:35Z</time>
      </trkpt>
      <trkpt lat="49.06329" lon="4.29276">
        <ele>101.08</ele>
        <time>2021-08-09T15:25:38Z</time>
      </trkpt>
      <trkpt lat="49.06325" lon="4.2928">
        <ele>101.08</ele>
        <time>2021-08-09T15:25:39Z</time>
      </trkpt>
      <trkpt lat="49.06322" lon="4.29286">
        <ele>101.08</ele>
        <time>2021-08-09T15:25:40Z</time>
      </trkpt>
      <trkpt lat="49.06321" lon="4.29294">
        <ele>102.52</ele>
        <time>2021-08-09T15:25:41Z</time>
      </trkpt>
      <trkpt lat="49.06322" lon="4.29302">
        <ele>102.52</ele>
        <time>2021-08-09T15:25:42Z</time>
      </trkpt>
      <trkpt lat="49.06324" lon="4.29308">
        <ele>102.52</ele>
        <time>2021-08-09T15:25:43Z</time>
      </trkpt>
      <trkpt lat="49.06328" lon="4.29316">
        <ele>103</ele>
        <time>2021-08-09T15:25:44Z</time>
      </trkpt>
      <trkpt lat="49.06351" lon="4.2937">
        <ele>102.04</ele>
        <time>2021-08-09T15:25:52Z</time>
      </trkpt>
      <trkpt lat="49.06369" lon="4.29414">
        <ele>103</ele>
        <time>2021-08-09T15:25:58Z</time>
      </trkpt>
      <trkpt lat="49.06388" lon="4.29459">
        <ele>104.44</ele>
        <time>2021-08-09T15:26:06Z</time>
      </trkpt>
      <trkpt lat="49.0639" lon="4.2946">
        <ele>104.44</ele>
        <time>2021-08-09T15:26:07Z</time>
      </trkpt>
      <trkpt lat="49.06393" lon="4.2946">
        <ele>104.44</ele>
        <time>2021-08-09T15:26:08Z</time>
      </trkpt>
      <trkpt lat="49.06396" lon="4.29459">
        <ele>104.44</ele>
        <time>2021-08-09T15:26:09Z</time>
      </trkpt>
      <trkpt lat="49.064" lon="4.29458">
        <ele>104.44</ele>
        <time>2021-08-09T15:26:10Z</time>
      </trkpt>
      <trkpt lat="49.06404" lon="4.29459">
        <ele>103</ele>
        <time>2021-08-09T15:26:11Z</time>
      </trkpt>
      <trkpt lat="49.06407" lon="4.29463">
        <ele>103</ele>
        <time>2021-08-09T15:26:12Z</time>
      </trkpt>
      <trkpt lat="49.0641" lon="4.29469">
        <ele>103</ele>
        <time>2021-08-09T15:26:13Z</time>
      </trkpt>
      <trkpt lat="49.06413" lon="4.29476">
        <ele>103</ele>
        <time>2021-08-09T15:26:14Z</time>
      </trkpt>
      <trkpt lat="49.06415" lon="4.29483">
        <ele>103</ele>
        <time>2021-08-09T15:26:15Z</time>
      </trkpt>
      <trkpt lat="49.0642" lon="4.29499">
        <ele>103</ele>
        <time>2021-08-09T15:26:17Z</time>
      </trkpt>
      <trkpt lat="49.06441" lon="4.2956">
        <ele>103</ele>
        <time>2021-08-09T15:26:25Z</time>
      </trkpt>
      <trkpt lat="49.06471" lon="4.2965">
        <ele>103</ele>
        <time>2021-08-09T15:26:36Z</time>
      </trkpt>
      <trkpt lat="49.06495" lon="4.29715">
        <ele>104.92</ele>
        <time>2021-08-09T15:26:44Z</time>
      </trkpt>
      <trkpt lat="49.06518" lon="4.29779">
        <ele>104.92</ele>
        <time>2021-08-09T15:26:52Z</time>
      </trkpt>
      <trkpt lat="49.06521" lon="4.29788">
        <ele>104.92</ele>
        <time>2021-08-09T15:26:53Z</time>
      </trkpt>
      <trkpt lat="49.06536" lon="4.29827">
        <ele>105.4</ele>
        <time>2021-08-09T15:26:58Z</time>
      </trkpt>
      <trkpt lat="49.0654" lon="4.29836">
        <ele>105.4</ele>
        <time>2021-08-09T15:26:59Z</time>
      </trkpt>
      <trkpt lat="49.06572" lon="4.29923">
        <ele>106.84</ele>
        <time>2021-08-09T15:27:10Z</time>
      </trkpt>
      <trkpt lat="49.06604" lon="4.30003">
        <ele>107.81</ele>
        <time>2021-08-09T15:27:20Z</time>
      </trkpt>
      <trkpt lat="49.06636" lon="4.30091">
        <ele>107.81</ele>
        <time>2021-08-09T15:27:31Z</time>
      </trkpt>
      <trkpt lat="49.0668" lon="4.30207">
        <ele>108.29</ele>
        <time>2021-08-09T15:27:45Z</time>
      </trkpt>
      <trkpt lat="49.06714" lon="4.30294">
        <ele>109.25</ele>
        <time>2021-08-09T15:27:55Z</time>
      </trkpt>
      <trkpt lat="49.06745" lon="4.30381">
        <ele>110.21</ele>
        <time>2021-08-09T15:28:06Z</time>
      </trkpt>
      <trkpt lat="49.06766" lon="4.30434">
        <ele>112.13</ele>
        <time>2021-08-09T15:28:14Z</time>
      </trkpt>
      <trkpt lat="49.06778" lon="4.30471">
        <ele>113.09</ele>
        <time>2021-08-09T15:28:20Z</time>
      </trkpt>
      <trkpt lat="49.06778" lon="4.30478">
        <ele>113.57</ele>
        <time>2021-08-09T15:28:21Z</time>
      </trkpt>
      <trkpt lat="49.06776" lon="4.30484">
        <ele>114.53</ele>
        <time>2021-08-09T15:28:22Z</time>
      </trkpt>
      <trkpt lat="49.06773" lon="4.30489">
        <ele>114.53</ele>
        <time>2021-08-09T15:28:23Z</time>
      </trkpt>
      <trkpt lat="49.06769" lon="4.30492">
        <ele>114.53</ele>
        <time>2021-08-09T15:28:24Z</time>
      </trkpt>
      <trkpt lat="49.06765" lon="4.30495">
        <ele>114.05</ele>
        <time>2021-08-09T15:28:25Z</time>
      </trkpt>
      <trkpt lat="49.06753" lon="4.30506">
        <ele>115.5</ele>
        <time>2021-08-09T15:28:28Z</time>
      </trkpt>
      <trkpt lat="49.06748" lon="4.30509">
        <ele>113.09</ele>
        <time>2021-08-09T15:28:29Z</time>
      </trkpt>
      <trkpt lat="49.06744" lon="4.30513">
        <ele>113.09</ele>
        <time>2021-08-09T15:28:30Z</time>
      </trkpt>
      <trkpt lat="49.06695" lon="4.30556">
        <ele>112.61</ele>
        <time>2021-08-09T15:28:41Z</time>
      </trkpt>
      <trkpt lat="49.06653" lon="4.30592">
        <ele>110.69</ele>
        <time>2021-08-09T15:28:50Z</time>
      </trkpt>
      <trkpt lat="49.06604" lon="4.30634">
        <ele>108.77</ele>
        <time>2021-08-09T15:28:59Z</time>
      </trkpt>
      <trkpt lat="49.06581" lon="4.30654">
        <ele>107.32</ele>
        <time>2021-08-09T15:29:03Z</time>
      </trkpt>
      <trkpt lat="49.0652" lon="4.30706">
        <ele>106.36</ele>
        <time>2021-08-09T15:29:13Z</time>
      </trkpt>
      <trkpt lat="49.06479" lon="4.3074">
        <ele>107.32</ele>
        <time>2021-08-09T15:29:21Z</time>
      </trkpt>
      <trkpt lat="49.06475" lon="4.30744">
        <ele>107.81</ele>
        <time>2021-08-09T15:29:22Z</time>
      </trkpt>
      <trkpt lat="49.06471" lon="4.30747">
        <ele>107.81</ele>
        <time>2021-08-09T15:29:23Z</time>
      </trkpt>
      <trkpt lat="49.06449" lon="4.30766">
        <ele>108.77</ele>
        <time>2021-08-09T15:29:30Z</time>
      </trkpt>
      <trkpt lat="49.06417" lon="4.30792">
        <ele>110.69</ele>
        <time>2021-08-09T15:29:41Z</time>
      </trkpt>
      <trkpt lat="49.06387" lon="4.30815">
        <ele>111.65</ele>
        <time>2021-08-09T15:29:52Z</time>
      </trkpt>
      <trkpt lat="49.06366" lon="4.30834">
        <ele>113.09</ele>
        <time>2021-08-09T15:30:00Z</time>
      </trkpt>
      <trkpt lat="49.06342" lon="4.30853">
        <ele>113.57</ele>
        <time>2021-08-09T15:30:09Z</time>
      </trkpt>
      <trkpt lat="49.06318" lon="4.30873">
        <ele>114.53</ele>
        <time>2021-08-09T15:30:18Z</time>
      </trkpt>
      <trkpt lat="49.06296" lon="4.30891">
        <ele>115.5</ele>
        <time>2021-08-09T15:30:27Z</time>
      </trkpt>
      <trkpt lat="49.06275" lon="4.30909">
        <ele>116.94</ele>
        <time>2021-08-09T15:30:36Z</time>
      </trkpt>
      <trkpt lat="49.06252" lon="4.30929">
        <ele>118.38</ele>
        <time>2021-08-09T15:30:47Z</time>
      </trkpt>
      <trkpt lat="49.06237" lon="4.30942">
        <ele>119.34</ele>
        <time>2021-08-09T15:30:56Z</time>
      </trkpt>
      <trkpt lat="49.06219" lon="4.30958">
        <ele>120.3</ele>
        <time>2021-08-09T15:31:07Z</time>
      </trkpt>
      <trkpt lat="49.06204" lon="4.3097">
        <ele>121.26</ele>
        <time>2021-08-09T15:31:16Z</time>
      </trkpt>
      <trkpt lat="49.06191" lon="4.30981">
        <ele>122.22</ele>
        <time>2021-08-09T15:31:24Z</time>
      </trkpt>
      <trkpt lat="49.06179" lon="4.30992">
        <ele>123.19</ele>
        <time>2021-08-09T15:31:31Z</time>
      </trkpt>
      <trkpt lat="49.06166" lon="4.31002">
        <ele>123.67</ele>
        <time>2021-08-09T15:31:38Z</time>
      </trkpt>
      <trkpt lat="49.06152" lon="4.31014">
        <ele>125.59</ele>
        <time>2021-08-09T15:31:46Z</time>
      </trkpt>
      <trkpt lat="49.06137" lon="4.31026">
        <ele>126.55</ele>
        <time>2021-08-09T15:31:55Z</time>
      </trkpt>
      <trkpt lat="49.06125" lon="4.31036">
        <ele>126.55</ele>
        <time>2021-08-09T15:32:02Z</time>
      </trkpt>
      <trkpt lat="49.06119" lon="4.31041">
        <ele>127.51</ele>
        <time>2021-08-09T15:32:05Z</time>
      </trkpt>
      <trkpt lat="49.06107" lon="4.31051">
        <ele>128.95</ele>
        <time>2021-08-09T15:32:12Z</time>
      </trkpt>
      <trkpt lat="49.06088" lon="4.31067">
        <ele>129.43</ele>
        <time>2021-08-09T15:32:22Z</time>
      </trkpt>
      <trkpt lat="49.06071" lon="4.31082">
        <ele>129.92</ele>
        <time>2021-08-09T15:32:31Z</time>
      </trkpt>
      <trkpt lat="49.06057" lon="4.31094">
        <ele>131.36</ele>
        <time>2021-08-09T15:32:38Z</time>
      </trkpt>
      <trkpt lat="49.06041" lon="4.31108">
        <ele>131.84</ele>
        <time>2021-08-09T15:32:46Z</time>
      </trkpt>
      <trkpt lat="49.06033" lon="4.31115">
        <ele>133.28</ele>
        <time>2021-08-09T15:32:50Z</time>
      </trkpt>
      <trkpt lat="49.06014" lon="4.31131">
        <ele>133.76</ele>
        <time>2021-08-09T15:32:59Z</time>
      </trkpt>
      <trkpt lat="49.05991" lon="4.31149">
        <ele>134.24</ele>
        <time>2021-08-09T15:33:09Z</time>
      </trkpt>
      <trkpt lat="49.05968" lon="4.31169">
        <ele>134.72</ele>
        <time>2021-08-09T15:33:18Z</time>
      </trkpt>
      <trkpt lat="49.0594" lon="4.31193">
        <ele>135.2</ele>
        <time>2021-08-09T15:33:28Z</time>
      </trkpt>
      <trkpt lat="49.05915" lon="4.31214">
        <ele>135.2</ele>
        <time>2021-08-09T15:33:36Z</time>
      </trkpt>
      <trkpt lat="49.05871" lon="4.31253">
        <ele>135.2</ele>
        <time>2021-08-09T15:33:49Z</time>
      </trkpt>
      <trkpt lat="49.05869" lon="4.31257">
        <ele>135.2</ele>
        <time>2021-08-09T15:33:50Z</time>
      </trkpt>
      <trkpt lat="49.05867" lon="4.31263">
        <ele>135.2</ele>
        <time>2021-08-09T15:33:51Z</time>
      </trkpt>
      <trkpt lat="49.05867" lon="4.31269">
        <ele>135.68</ele>
        <time>2021-08-09T15:33:52Z</time>
      </trkpt>
      <trkpt lat="49.05868" lon="4.31275">
        <ele>135.68</ele>
        <time>2021-08-09T15:33:53Z</time>
      </trkpt>
      <trkpt lat="49.0587" lon="4.31283">
        <ele>135.68</ele>
        <time>2021-08-09T15:33:54Z</time>
      </trkpt>
      <trkpt lat="49.05872" lon="4.31286">
        <ele>135.68</ele>
        <time>2021-08-09T15:33:55Z</time>
      </trkpt>
      <trkpt lat="49.059" lon="4.31333">
        <ele>135.68</ele>
        <time>2021-08-09T15:34:03Z</time>
      </trkpt>
      <trkpt lat="49.05935" lon="4.31393">
        <ele>134.72</ele>
        <time>2021-08-09T15:34:12Z</time>
      </trkpt>
      <trkpt lat="49.05987" lon="4.31482">
        <ele>134.24</ele>
        <time>2021-08-09T15:34:25Z</time>
      </trkpt>
      <trkpt lat="49.06029" lon="4.3156">
        <ele>134.24</ele>
        <time>2021-08-09T15:34:36Z</time>
      </trkpt>
      <trkpt lat="49.06067" lon="4.31635">
        <ele>135.68</ele>
        <time>2021-08-09T15:34:46Z</time>
      </trkpt>
      <trkpt lat="49.06101" lon="4.31705">
        <ele>135.2</ele>
        <time>2021-08-09T15:34:55Z</time>
      </trkpt>
      <trkpt lat="49.06131" lon="4.31769">
        <ele>135.2</ele>
        <time>2021-08-09T15:35:03Z</time>
      </trkpt>
      <trkpt lat="49.06169" lon="4.31847">
        <ele>135.68</ele>
        <time>2021-08-09T15:35:13Z</time>
      </trkpt>
      <trkpt lat="49.06214" lon="4.31939">
        <ele>135.68</ele>
        <time>2021-08-09T15:35:25Z</time>
      </trkpt>
      <trkpt lat="49.0625" lon="4.32013">
        <ele>136.64</ele>
        <time>2021-08-09T15:35:35Z</time>
      </trkpt>
      <trkpt lat="49.06268" lon="4.32045">
        <ele>137.13</ele>
        <time>2021-08-09T15:35:40Z</time>
      </trkpt>
      <trkpt lat="49.06309" lon="4.3209">
        <ele>138.57</ele>
        <time>2021-08-09T15:35:49Z</time>
      </trkpt>
      <trkpt lat="49.06351" lon="4.32143">
        <ele>138.57</ele>
        <time>2021-08-09T15:35:59Z</time>
      </trkpt>
      <trkpt lat="49.06403" lon="4.32208">
        <ele>140.01</ele>
        <time>2021-08-09T15:36:11Z</time>
      </trkpt>
      <trkpt lat="49.06447" lon="4.32261">
        <ele>140.97</ele>
        <time>2021-08-09T15:36:21Z</time>
      </trkpt>
      <trkpt lat="49.06452" lon="4.32267">
        <ele>140.97</ele>
        <time>2021-08-09T15:36:22Z</time>
      </trkpt>
      <trkpt lat="49.06488" lon="4.32309">
        <ele>140.97</ele>
        <time>2021-08-09T15:36:30Z</time>
      </trkpt>
      <trkpt lat="49.06537" lon="4.32366">
        <ele>140.49</ele>
        <time>2021-08-09T15:36:41Z</time>
      </trkpt>
      <trkpt lat="49.06576" lon="4.32412">
        <ele>138.57</ele>
        <time>2021-08-09T15:36:49Z</time>
      </trkpt>
      <trkpt lat="49.0658" lon="4.3242">
        <ele>138.57</ele>
        <time>2021-08-09T15:36:50Z</time>
      </trkpt>
      <trkpt lat="49.06583" lon="4.32429">
        <ele>138.57</ele>
        <time>2021-08-09T15:36:51Z</time>
      </trkpt>
      <trkpt lat="49.06585" lon="4.32437">
        <ele>138.57</ele>
        <time>2021-08-09T15:36:52Z</time>
      </trkpt>
      <trkpt lat="49.06587" lon="4.32446">
        <ele>138.57</ele>
        <time>2021-08-09T15:36:53Z</time>
      </trkpt>
      <trkpt lat="49.06589" lon="4.32455">
        <ele>138.09</ele>
        <time>2021-08-09T15:36:54Z</time>
      </trkpt>
      <trkpt lat="49.06601" lon="4.32489">
        <ele>138.09</ele>
        <time>2021-08-09T15:36:58Z</time>
      </trkpt>
      <trkpt lat="49.06625" lon="4.32569">
        <ele>137.13</ele>
        <time>2021-08-09T15:37:07Z</time>
      </trkpt>
      <trkpt lat="49.06652" lon="4.32655">
        <ele>135.68</ele>
        <time>2021-08-09T15:37:16Z</time>
      </trkpt>
      <trkpt lat="49.06676" lon="4.32732">
        <ele>134.72</ele>
        <time>2021-08-09T15:37:24Z</time>
      </trkpt>
      <trkpt lat="49.06692" lon="4.32784">
        <ele>134.72</ele>
        <time>2021-08-09T15:37:30Z</time>
      </trkpt>
      <trkpt lat="49.06692" lon="4.32791">
        <ele>134.72</ele>
        <time>2021-08-09T15:37:31Z</time>
      </trkpt>
      <trkpt lat="49.06691" lon="4.32797">
        <ele>134.72</ele>
        <time>2021-08-09T15:37:32Z</time>
      </trkpt>
      <trkpt lat="49.06688" lon="4.32801">
        <ele>134.72</ele>
        <time>2021-08-09T15:37:33Z</time>
      </trkpt>
      <trkpt lat="49.06685" lon="4.32805">
        <ele>136.16</ele>
        <time>2021-08-09T15:37:34Z</time>
      </trkpt>
      <trkpt lat="49.06683" lon="4.32807">
        <ele>136.16</ele>
        <time>2021-08-09T15:37:35Z</time>
      </trkpt>
      <trkpt lat="49.06668" lon="4.32829">
        <ele>137.13</ele>
        <time>2021-08-09T15:37:41Z</time>
      </trkpt>
      <trkpt lat="49.06649" lon="4.32856">
        <ele>138.57</ele>
        <time>2021-08-09T15:37:49Z</time>
      </trkpt>
      <trkpt lat="49.06628" lon="4.32887">
        <ele>138.57</ele>
        <time>2021-08-09T15:37:57Z</time>
      </trkpt>
      <trkpt lat="49.06601" lon="4.32922">
        <ele>139.53</ele>
        <time>2021-08-09T15:38:06Z</time>
      </trkpt>
      <trkpt lat="49.06574" lon="4.32957">
        <ele>140.49</ele>
        <time>2021-08-09T15:38:15Z</time>
      </trkpt>
      <trkpt lat="49.06546" lon="4.33">
        <ele>140.49</ele>
        <time>2021-08-09T15:38:24Z</time>
      </trkpt>
      <trkpt lat="49.06512" lon="4.33057">
        <ele>140.49</ele>
        <time>2021-08-09T15:38:34Z</time>
      </trkpt>
      <trkpt lat="49.06509" lon="4.33064">
        <ele>140.49</ele>
        <time>2021-08-09T15:38:35Z</time>
      </trkpt>
      <trkpt lat="49.06505" lon="4.3307">
        <ele>140.49</ele>
        <time>2021-08-09T15:38:36Z</time>
      </trkpt>
      <trkpt lat="49.06484" lon="4.33103">
        <ele>139.05</ele>
        <time>2021-08-09T15:38:42Z</time>
      </trkpt>
      <trkpt lat="49.0648" lon="4.33109">
        <ele>139.05</ele>
        <time>2021-08-09T15:38:43Z</time>
      </trkpt>
      <trkpt lat="49.06456" lon="4.33154">
        <ele>138.57</ele>
        <time>2021-08-09T15:38:51Z</time>
      </trkpt>
      <trkpt lat="49.06443" lon="4.33177">
        <ele>140.01</ele>
        <time>2021-08-09T15:38:55Z</time>
      </trkpt>
      <trkpt lat="49.06406" lon="4.33242">
        <ele>139.05</ele>
        <time>2021-08-09T15:39:06Z</time>
      </trkpt>
      <trkpt lat="49.06362" lon="4.33298">
        <ele>139.05</ele>
        <time>2021-08-09T15:39:17Z</time>
      </trkpt>
      <trkpt lat="49.06324" lon="4.33351">
        <ele>138.57</ele>
        <time>2021-08-09T15:39:27Z</time>
      </trkpt>
      <trkpt lat="49.06318" lon="4.33363">
        <ele>140.01</ele>
        <time>2021-08-09T15:39:29Z</time>
      </trkpt>
      <trkpt lat="49.06315" lon="4.3337">
        <ele>140.01</ele>
        <time>2021-08-09T15:39:30Z</time>
      </trkpt>
      <trkpt lat="49.06313" lon="4.33378">
        <ele>140.97</ele>
        <time>2021-08-09T15:39:31Z</time>
      </trkpt>
      <trkpt lat="49.06311" lon="4.33386">
        <ele>140.97</ele>
        <time>2021-08-09T15:39:32Z</time>
      </trkpt>
      <trkpt lat="49.0631" lon="4.33394">
        <ele>140.97</ele>
        <time>2021-08-09T15:39:33Z</time>
      </trkpt>
      <trkpt lat="49.06309" lon="4.33402">
        <ele>140.97</ele>
        <time>2021-08-09T15:39:34Z</time>
      </trkpt>
      <trkpt lat="49.06302" lon="4.3348">
        <ele>140.01</ele>
        <time>2021-08-09T15:39:43Z</time>
      </trkpt>
      <trkpt lat="49.06296" lon="4.33592">
        <ele>138.57</ele>
        <time>2021-08-09T15:39:55Z</time>
      </trkpt>
      <trkpt lat="49.06297" lon="4.33685">
        <ele>137.61</ele>
        <time>2021-08-09T15:40:05Z</time>
      </trkpt>
      <trkpt lat="49.06304" lon="4.33782">
        <ele>136.64</ele>
        <time>2021-08-09T15:40:15Z</time>
      </trkpt>
      <trkpt lat="49.06317" lon="4.33864">
        <ele>136.64</ele>
        <time>2021-08-09T15:40:24Z</time>
      </trkpt>
      <trkpt lat="49.06325" lon="4.33915">
        <ele>136.64</ele>
        <time>2021-08-09T15:40:30Z</time>
      </trkpt>
      <trkpt lat="49.06327" lon="4.33922">
        <ele>136.64</ele>
        <time>2021-08-09T15:40:31Z</time>
      </trkpt>
      <trkpt lat="49.06327" lon="4.33928">
        <ele>136.64</ele>
        <time>2021-08-09T15:40:32Z</time>
      </trkpt>
      <trkpt lat="49.06326" lon="4.33932">
        <ele>136.64</ele>
        <time>2021-08-09T15:40:33Z</time>
      </trkpt>
      <trkpt lat="49.06323" lon="4.33934">
        <ele>136.64</ele>
        <time>2021-08-09T15:40:34Z</time>
      </trkpt>
      <trkpt lat="49.06321" lon="4.33935">
        <ele>136.64</ele>
        <time>2021-08-09T15:40:35Z</time>
      </trkpt>
      <trkpt lat="49.06318" lon="4.33937">
        <ele>136.64</ele>
        <time>2021-08-09T15:40:36Z</time>
      </trkpt>
      <trkpt lat="49.06316" lon="4.33938">
        <ele>136.64</ele>
        <time>2021-08-09T15:40:37Z</time>
      </trkpt>
      <trkpt lat="49.06313" lon="4.33941">
        <ele>136.64</ele>
        <time>2021-08-09T15:40:38Z</time>
      </trkpt>
      <trkpt lat="49.0631" lon="4.33944">
        <ele>136.64</ele>
        <time>2021-08-09T15:40:39Z</time>
      </trkpt>
      <trkpt lat="49.06307" lon="4.33949">
        <ele>136.64</ele>
        <time>2021-08-09T15:40:40Z</time>
      </trkpt>
      <trkpt lat="49.06304" lon="4.33953">
        <ele>136.64</ele>
        <time>2021-08-09T15:40:41Z</time>
      </trkpt>
      <trkpt lat="49.063" lon="4.33957">
        <ele>136.64</ele>
        <time>2021-08-09T15:40:42Z</time>
      </trkpt>
      <trkpt lat="49.06273" lon="4.33986">
        <ele>135.2</ele>
        <time>2021-08-09T15:40:48Z</time>
      </trkpt>
      <trkpt lat="49.06236" lon="4.34024">
        <ele>134.72</ele>
        <time>2021-08-09T15:40:55Z</time>
      </trkpt>
      <trkpt lat="49.0618" lon="4.34083">
        <ele>132.32</ele>
        <time>2021-08-09T15:41:05Z</time>
      </trkpt>
      <trkpt lat="49.06119" lon="4.34148">
        <ele>130.88</ele>
        <time>2021-08-09T15:41:16Z</time>
      </trkpt>
      <trkpt lat="49.06043" lon="4.34224">
        <ele>129.92</ele>
        <time>2021-08-09T15:41:30Z</time>
      </trkpt>
      <trkpt lat="49.05989" lon="4.3428">
        <ele>127.99</ele>
        <time>2021-08-09T15:41:40Z</time>
      </trkpt>
      <trkpt lat="49.05962" lon="4.34308">
        <ele>127.99</ele>
        <time>2021-08-09T15:41:45Z</time>
      </trkpt>
      <trkpt lat="49.05951" lon="4.34319">
        <ele>127.51</ele>
        <time>2021-08-09T15:41:47Z</time>
      </trkpt>
      <trkpt lat="49.05946" lon="4.34326">
        <ele>127.51</ele>
        <time>2021-08-09T15:41:48Z</time>
      </trkpt>
      <trkpt lat="49.05941" lon="4.34333">
        <ele>127.51</ele>
        <time>2021-08-09T15:41:49Z</time>
      </trkpt>
      <trkpt lat="49.0592" lon="4.34365">
        <ele>127.51</ele>
        <time>2021-08-09T15:41:54Z</time>
      </trkpt>
      <trkpt lat="49.05906" lon="4.34378">
        <ele>127.51</ele>
        <time>2021-08-09T15:41:57Z</time>
      </trkpt>
      <trkpt lat="49.05867" lon="4.34425">
        <ele>127.51</ele>
        <time>2021-08-09T15:42:06Z</time>
      </trkpt>
      <trkpt lat="49.05859" lon="4.34435">
        <ele>128.95</ele>
        <time>2021-08-09T15:42:08Z</time>
      </trkpt>
      <trkpt lat="49.05825" lon="4.34483">
        <ele>128.95</ele>
        <time>2021-08-09T15:42:17Z</time>
      </trkpt>
      <trkpt lat="49.0581" lon="4.34509">
        <ele>129.92</ele>
        <time>2021-08-09T15:42:22Z</time>
      </trkpt>
      <trkpt lat="49.05788" lon="4.34556">
        <ele>131.84</ele>
        <time>2021-08-09T15:42:32Z</time>
      </trkpt>
      <trkpt lat="49.0577" lon="4.34598">
        <ele>133.28</ele>
        <time>2021-08-09T15:42:42Z</time>
      </trkpt>
      <trkpt lat="49.05749" lon="4.34653">
        <ele>135.2</ele>
        <time>2021-08-09T15:42:55Z</time>
      </trkpt>
      <trkpt lat="49.05733" lon="4.34695">
        <ele>135.68</ele>
        <time>2021-08-09T15:43:05Z</time>
      </trkpt>
      <trkpt lat="49.05715" lon="4.34741">
        <ele>137.61</ele>
        <time>2021-08-09T15:43:16Z</time>
      </trkpt>
      <trkpt lat="49.057" lon="4.34774">
        <ele>137.61</ele>
        <time>2021-08-09T15:43:24Z</time>
      </trkpt>
      <trkpt lat="49.05682" lon="4.34808">
        <ele>139.05</ele>
        <time>2021-08-09T15:43:33Z</time>
      </trkpt>
      <trkpt lat="49.0566" lon="4.34846">
        <ele>139.53</ele>
        <time>2021-08-09T15:43:43Z</time>
      </trkpt>
      <trkpt lat="49.05644" lon="4.34876">
        <ele>140.01</ele>
        <time>2021-08-09T15:43:50Z</time>
      </trkpt>
      <trkpt lat="49.05617" lon="4.34914">
        <ele>140.01</ele>
        <time>2021-08-09T15:43:58Z</time>
      </trkpt>
      <trkpt lat="49.0558" lon="4.34957">
        <ele>138.57</ele>
        <time>2021-08-09T15:44:07Z</time>
      </trkpt>
      <trkpt lat="49.05575" lon="4.34963">
        <ele>138.57</ele>
        <time>2021-08-09T15:44:08Z</time>
      </trkpt>
      <trkpt lat="49.05567" lon="4.34975">
        <ele>138.57</ele>
        <time>2021-08-09T15:44:10Z</time>
      </trkpt>
      <trkpt lat="49.05534" lon="4.35029">
        <ele>138.09</ele>
        <time>2021-08-09T15:44:18Z</time>
      </trkpt>
      <trkpt lat="49.05498" lon="4.35079">
        <ele>136.64</ele>
        <time>2021-08-09T15:44:26Z</time>
      </trkpt>
      <trkpt lat="49.05452" lon="4.35129">
        <ele>135.2</ele>
        <time>2021-08-09T15:44:35Z</time>
      </trkpt>
      <trkpt lat="49.05391" lon="4.35196">
        <ele>134.72</ele>
        <time>2021-08-09T15:44:46Z</time>
      </trkpt>
      <trkpt lat="49.05341" lon="4.35249">
        <ele>134.72</ele>
        <time>2021-08-09T15:44:55Z</time>
      </trkpt>
      <trkpt lat="49.05289" lon="4.35305">
        <ele>133.76</ele>
        <time>2021-08-09T15:45:05Z</time>
      </trkpt>
      <trkpt lat="49.05285" lon="4.3531">
        <ele>135.2</ele>
        <time>2021-08-09T15:45:06Z</time>
      </trkpt>
      <trkpt lat="49.05275" lon="4.35321">
        <ele>135.68</ele>
        <time>2021-08-09T15:45:08Z</time>
      </trkpt>
      <trkpt lat="49.05244" lon="4.3535">
        <ele>137.13</ele>
        <time>2021-08-09T15:45:15Z</time>
      </trkpt>
      <trkpt lat="49.05212" lon="4.3537">
        <ele>137.61</ele>
        <time>2021-08-09T15:45:23Z</time>
      </trkpt>
      <trkpt lat="49.05194" lon="4.35388">
        <ele>139.05</ele>
        <time>2021-08-09T15:45:29Z</time>
      </trkpt>
      <trkpt lat="49.05182" lon="4.35427">
        <ele>139.53</ele>
        <time>2021-08-09T15:45:37Z</time>
      </trkpt>
      <trkpt lat="49.05161" lon="4.35494">
        <ele>140.97</ele>
        <time>2021-08-09T15:45:49Z</time>
      </trkpt>
      <trkpt lat="49.05143" lon="4.35562">
        <ele>141.93</ele>
        <time>2021-08-09T15:46:00Z</time>
      </trkpt>
      <trkpt lat="49.05129" lon="4.35625">
        <ele>141.93</ele>
        <time>2021-08-09T15:46:09Z</time>
      </trkpt>
      <trkpt lat="49.05128" lon="4.35632">
        <ele>141.93</ele>
        <time>2021-08-09T15:46:10Z</time>
      </trkpt>
      <trkpt lat="49.05112" lon="4.35696">
        <ele>141.93</ele>
        <time>2021-08-09T15:46:18Z</time>
      </trkpt>
      <trkpt lat="49.05087" lon="4.35776">
        <ele>141.93</ele>
        <time>2021-08-09T15:46:28Z</time>
      </trkpt>
      <trkpt lat="49.05063" lon="4.35848">
        <ele>142.41</ele>
        <time>2021-08-09T15:46:37Z</time>
      </trkpt>
      <trkpt lat="49.05047" lon="4.35895">
        <ele>142.41</ele>
        <time>2021-08-09T15:46:43Z</time>
      </trkpt>
      <trkpt lat="49.05042" lon="4.35911">
        <ele>142.41</ele>
        <time>2021-08-09T15:46:45Z</time>
      </trkpt>
      <trkpt lat="49.05016" lon="4.35965">
        <ele>142.41</ele>
        <time>2021-08-09T15:46:52Z</time>
      </trkpt>
      <trkpt lat="49.04977" lon="4.36018">
        <ele>142.41</ele>
        <time>2021-08-09T15:47:01Z</time>
      </trkpt>
      <trkpt lat="49.04914" lon="4.36091">
        <ele>142.41</ele>
        <time>2021-08-09T15:47:14Z</time>
      </trkpt>
      <trkpt lat="49.04873" lon="4.36138">
        <ele>141.45</ele>
        <time>2021-08-09T15:47:22Z</time>
      </trkpt>
      <trkpt lat="49.0482" lon="4.36203">
        <ele>140.01</ele>
        <time>2021-08-09T15:47:32Z</time>
      </trkpt>
      <trkpt lat="49.04762" lon="4.36272">
        <ele>136.16</ele>
        <time>2021-08-09T15:47:42Z</time>
      </trkpt>
      <trkpt lat="49.04744" lon="4.36292">
        <ele>136.16</ele>
        <time>2021-08-09T15:47:45Z</time>
      </trkpt>
      <trkpt lat="49.0474" lon="4.363">
        <ele>136.16</ele>
        <time>2021-08-09T15:47:46Z</time>
      </trkpt>
      <trkpt lat="49.04736" lon="4.36308">
        <ele>135.2</ele>
        <time>2021-08-09T15:47:47Z</time>
      </trkpt>
      <trkpt lat="49.04733" lon="4.36317">
        <ele>135.2</ele>
        <time>2021-08-09T15:47:48Z</time>
      </trkpt>
      <trkpt lat="49.04731" lon="4.36326">
        <ele>135.2</ele>
        <time>2021-08-09T15:47:49Z</time>
      </trkpt>
      <trkpt lat="49.0473" lon="4.36335">
        <ele>135.2</ele>
        <time>2021-08-09T15:47:50Z</time>
      </trkpt>
      <trkpt lat="49.04731" lon="4.36346">
        <ele>135.2</ele>
        <time>2021-08-09T15:47:51Z</time>
      </trkpt>
      <trkpt lat="49.04733" lon="4.36357">
        <ele>135.2</ele>
        <time>2021-08-09T15:47:52Z</time>
      </trkpt>
      <trkpt lat="49.04735" lon="4.36363">
        <ele>135.2</ele>
        <time>2021-08-09T15:47:53Z</time>
      </trkpt>
      <trkpt lat="49.04737" lon="4.36372">
        <ele>135.2</ele>
        <time>2021-08-09T15:47:54Z</time>
      </trkpt>
      <trkpt lat="49.04741" lon="4.3638">
        <ele>135.2</ele>
        <time>2021-08-09T15:47:55Z</time>
      </trkpt>
      <trkpt lat="49.04744" lon="4.36388">
        <ele>135.2</ele>
        <time>2021-08-09T15:47:56Z</time>
      </trkpt>
      <trkpt lat="49.04748" lon="4.36396">
        <ele>134.72</ele>
        <time>2021-08-09T15:47:57Z</time>
      </trkpt>
      <trkpt lat="49.0475" lon="4.36405">
        <ele>134.72</ele>
        <time>2021-08-09T15:47:58Z</time>
      </trkpt>
      <trkpt lat="49.04752" lon="4.36415">
        <ele>134.72</ele>
        <time>2021-08-09T15:47:59Z</time>
      </trkpt>
      <trkpt lat="49.04755" lon="4.36434">
        <ele>134.72</ele>
        <time>2021-08-09T15:48:01Z</time>
      </trkpt>
      <trkpt lat="49.04757" lon="4.36443">
        <ele>134.72</ele>
        <time>2021-08-09T15:48:02Z</time>
      </trkpt>
      <trkpt lat="49.04761" lon="4.36453">
        <ele>134.72</ele>
        <time>2021-08-09T15:48:03Z</time>
      </trkpt>
      <trkpt lat="49.04764" lon="4.36462">
        <ele>134.72</ele>
        <time>2021-08-09T15:48:04Z</time>
      </trkpt>
      <trkpt lat="49.04768" lon="4.36471">
        <ele>134.72</ele>
        <time>2021-08-09T15:48:05Z</time>
      </trkpt>
      <trkpt lat="49.04814" lon="4.3658">
        <ele>134.72</ele>
        <time>2021-08-09T15:48:17Z</time>
      </trkpt>
      <trkpt lat="49.04847" lon="4.36672">
        <ele>134.24</ele>
        <time>2021-08-09T15:48:26Z</time>
      </trkpt>
      <trkpt lat="49.04875" lon="4.36755">
        <ele>131.84</ele>
        <time>2021-08-09T15:48:34Z</time>
      </trkpt>
      <trkpt lat="49.04903" lon="4.3684">
        <ele>131.84</ele>
        <time>2021-08-09T15:48:42Z</time>
      </trkpt>
      <trkpt lat="49.04933" lon="4.36919">
        <ele>130.4</ele>
        <time>2021-08-09T15:48:50Z</time>
      </trkpt>
      <trkpt lat="49.04936" lon="4.36929">
        <ele>130.4</ele>
        <time>2021-08-09T15:48:51Z</time>
      </trkpt>
      <trkpt lat="49.04966" lon="4.37025">
        <ele>129.43</ele>
        <time>2021-08-09T15:49:00Z</time>
      </trkpt>
      <trkpt lat="49.05005" lon="4.3714">
        <ele>128.47</ele>
        <time>2021-08-09T15:49:11Z</time>
      </trkpt>
      <trkpt lat="49.05048" lon="4.37271">
        <ele>126.55</ele>
        <time>2021-08-09T15:49:23Z</time>
      </trkpt>
      <trkpt lat="49.05083" lon="4.37379">
        <ele>125.59</ele>
        <time>2021-08-09T15:49:33Z</time>
      </trkpt>
      <trkpt lat="49.05124" lon="4.37506">
        <ele>124.63</ele>
        <time>2021-08-09T15:49:44Z</time>
      </trkpt>
      <trkpt lat="49.05159" lon="4.37612">
        <ele>124.15</ele>
        <time>2021-08-09T15:49:53Z</time>
      </trkpt>
      <trkpt lat="49.05204" lon="4.3775">
        <ele>122.71</ele>
        <time>2021-08-09T15:50:05Z</time>
      </trkpt>
      <trkpt lat="49.05236" lon="4.37846">
        <ele>122.71</ele>
        <time>2021-08-09T15:50:14Z</time>
      </trkpt>
      <trkpt lat="49.05265" lon="4.37927">
        <ele>123.67</ele>
        <time>2021-08-09T15:50:23Z</time>
      </trkpt>
      <trkpt lat="49.05278" lon="4.3797">
        <ele>123.67</ele>
        <time>2021-08-09T15:50:29Z</time>
      </trkpt>
      <trkpt lat="49.05281" lon="4.37981">
        <ele>123.67</ele>
        <time>2021-08-09T15:50:31Z</time>
      </trkpt>
      <trkpt lat="49.0528" lon="4.37987">
        <ele>123.67</ele>
        <time>2021-08-09T15:50:32Z</time>
      </trkpt>
      <trkpt lat="49.05277" lon="4.37992">
        <ele>122.71</ele>
        <time>2021-08-09T15:50:33Z</time>
      </trkpt>
      <trkpt lat="49.05273" lon="4.37994">
        <ele>122.71</ele>
        <time>2021-08-09T15:50:34Z</time>
      </trkpt>
      <trkpt lat="49.05269" lon="4.37994">
        <ele>121.74</ele>
        <time>2021-08-09T15:50:35Z</time>
      </trkpt>
      <trkpt lat="49.05265" lon="4.37994">
        <ele>121.74</ele>
        <time>2021-08-09T15:50:36Z</time>
      </trkpt>
      <trkpt lat="49.05223" lon="4.37995">
        <ele>120.78</ele>
        <time>2021-08-09T15:50:44Z</time>
      </trkpt>
      <trkpt lat="49.05155" lon="4.37997">
        <ele>121.74</ele>
        <time>2021-08-09T15:50:56Z</time>
      </trkpt>
      <trkpt lat="49.05106" lon="4.37998">
        <ele>121.74</ele>
        <time>2021-08-09T15:51:05Z</time>
      </trkpt>
      <trkpt lat="49.05052" lon="4.37997">
        <ele>121.74</ele>
        <time>2021-08-09T15:51:15Z</time>
      </trkpt>
      <trkpt lat="49.04989" lon="4.37995">
        <ele>122.22</ele>
        <time>2021-08-09T15:51:27Z</time>
      </trkpt>
      <trkpt lat="49.04967" lon="4.37998">
        <ele>122.22</ele>
        <time>2021-08-09T15:51:32Z</time>
      </trkpt>
      <trkpt lat="49.04963" lon="4.38002">
        <ele>122.22</ele>
        <time>2021-08-09T15:51:33Z</time>
      </trkpt>
      <trkpt lat="49.04962" lon="4.38007">
        <ele>122.71</ele>
        <time>2021-08-09T15:51:34Z</time>
      </trkpt>
      <trkpt lat="49.04962" lon="4.38013">
        <ele>122.71</ele>
        <time>2021-08-09T15:51:35Z</time>
      </trkpt>
      <trkpt lat="49.04964" lon="4.3802">
        <ele>122.71</ele>
        <time>2021-08-09T15:51:36Z</time>
      </trkpt>
      <trkpt lat="49.04966" lon="4.38026">
        <ele>122.71</ele>
        <time>2021-08-09T15:51:37Z</time>
      </trkpt>
      <trkpt lat="49.04968" lon="4.38033">
        <ele>122.71</ele>
        <time>2021-08-09T15:51:38Z</time>
      </trkpt>
      <trkpt lat="49.04986" lon="4.38083">
        <ele>122.71</ele>
        <time>2021-08-09T15:51:45Z</time>
      </trkpt>
      <trkpt lat="49.04988" lon="4.38091">
        <ele>123.19</ele>
        <time>2021-08-09T15:51:46Z</time>
      </trkpt>
      <trkpt lat="49.0499" lon="4.38099">
        <ele>123.19</ele>
        <time>2021-08-09T15:51:47Z</time>
      </trkpt>
      <trkpt lat="49.05017" lon="4.38182">
        <ele>121.74</ele>
        <time>2021-08-09T15:51:57Z</time>
      </trkpt>
      <trkpt lat="49.05046" lon="4.3828">
        <ele>121.26</ele>
        <time>2021-08-09T15:52:08Z</time>
      </trkpt>
      <trkpt lat="49.05069" lon="4.38368">
        <ele>121.26</ele>
        <time>2021-08-09T15:52:18Z</time>
      </trkpt>
      <trkpt lat="49.05074" lon="4.38387">
        <ele>119.34</ele>
        <time>2021-08-09T15:52:20Z</time>
      </trkpt>
      <trkpt lat="49.05088" lon="4.38443">
        <ele>120.3</ele>
        <time>2021-08-09T15:52:26Z</time>
      </trkpt>
      <trkpt lat="49.05103" lon="4.38508">
        <ele>120.3</ele>
        <time>2021-08-09T15:52:34Z</time>
      </trkpt>
      <trkpt lat="49.05105" lon="4.38516">
        <ele>119.34</ele>
        <time>2021-08-09T15:52:35Z</time>
      </trkpt>
      <trkpt lat="49.05115" lon="4.38557">
        <ele>119.82</ele>
        <time>2021-08-09T15:52:40Z</time>
      </trkpt>
      <trkpt lat="49.05115" lon="4.38563">
        <ele>119.82</ele>
        <time>2021-08-09T15:52:41Z</time>
      </trkpt>
      <trkpt lat="49.05114" lon="4.3857">
        <ele>119.34</ele>
        <time>2021-08-09T15:52:42Z</time>
      </trkpt>
      <trkpt lat="49.05111" lon="4.38578">
        <ele>119.34</ele>
        <time>2021-08-09T15:52:43Z</time>
      </trkpt>
      <trkpt lat="49.05108" lon="4.38581">
        <ele>119.34</ele>
        <time>2021-08-09T15:52:44Z</time>
      </trkpt>
      <trkpt lat="49.05105" lon="4.38586">
        <ele>118.86</ele>
        <time>2021-08-09T15:52:45Z</time>
      </trkpt>
      <trkpt lat="49.051" lon="4.38591">
        <ele>118.86</ele>
        <time>2021-08-09T15:52:46Z</time>
      </trkpt>
      <trkpt lat="49.05095" lon="4.38596">
        <ele>118.86</ele>
        <time>2021-08-09T15:52:47Z</time>
      </trkpt>
      <trkpt lat="49.0509" lon="4.38599">
        <ele>118.86</ele>
        <time>2021-08-09T15:52:48Z</time>
      </trkpt>
      <trkpt lat="49.05085" lon="4.38603">
        <ele>118.86</ele>
        <time>2021-08-09T15:52:49Z</time>
      </trkpt>
      <trkpt lat="49.05037" lon="4.38638">
        <ele>117.9</ele>
        <time>2021-08-09T15:52:58Z</time>
      </trkpt>
      <trkpt lat="49.05032" lon="4.3864">
        <ele>117.9</ele>
        <time>2021-08-09T15:52:59Z</time>
      </trkpt>
      <trkpt lat="49.05026" lon="4.38641">
        <ele>117.9</ele>
        <time>2021-08-09T15:53:00Z</time>
      </trkpt>
      <trkpt lat="49.04971" lon="4.3865">
        <ele>117.42</ele>
        <time>2021-08-09T15:53:10Z</time>
      </trkpt>
      <trkpt lat="49.04938" lon="4.38655">
        <ele>117.9</ele>
        <time>2021-08-09T15:53:16Z</time>
      </trkpt>
      <trkpt lat="49.04897" lon="4.3866">
        <ele>118.86</ele>
        <time>2021-08-09T15:53:24Z</time>
      </trkpt>
      <trkpt lat="49.04868" lon="4.38663">
        <ele>120.3</ele>
        <time>2021-08-09T15:53:32Z</time>
      </trkpt>
      <trkpt lat="49.04839" lon="4.38668">
        <ele>120.3</ele>
        <time>2021-08-09T15:53:41Z</time>
      </trkpt>
      <trkpt lat="49.04811" lon="4.38688">
        <ele>120.78</ele>
        <time>2021-08-09T15:53:49Z</time>
      </trkpt>
      <trkpt lat="49.04772" lon="4.38721">
        <ele>121.26</ele>
        <time>2021-08-09T15:54:00Z</time>
      </trkpt>
      <trkpt lat="49.04729" lon="4.38757">
        <ele>121.74</ele>
        <time>2021-08-09T15:54:11Z</time>
      </trkpt>
      <trkpt lat="49.04696" lon="4.38785">
        <ele>122.71</ele>
        <time>2021-08-09T15:54:20Z</time>
      </trkpt>
      <trkpt lat="49.04685" lon="4.38793">
        <ele>122.71</ele>
        <time>2021-08-09T15:54:24Z</time>
      </trkpt>
      <trkpt lat="49.04684" lon="4.38794">
        <ele>123.19</ele>
        <time>2021-08-09T15:54:28Z</time>
      </trkpt>
      <trkpt lat="49.04684" lon="4.38792">
        <ele>123.19</ele>
        <time>2021-08-09T15:54:41Z</time>
      </trkpt>
      <trkpt lat="49.04683" lon="4.38794">
        <ele>123.67</ele>
        <time>2021-08-09T15:55:02Z</time>
      </trkpt>
      <trkpt lat="49.04685" lon="4.38795">
        <ele>123.67</ele>
        <time>2021-08-09T15:55:24Z</time>
      </trkpt>
      <trkpt lat="49.04686" lon="4.38796">
        <ele>123.67</ele>
        <time>2021-08-09T15:55:41Z</time>
      </trkpt>
      <trkpt lat="49.04683" lon="4.38791">
        <ele>123.67</ele>
        <time>2021-08-09T15:55:58Z</time>
      </trkpt>
      <trkpt lat="49.04683" lon="4.38793">
        <ele>123.67</ele>
        <time>2021-08-09T15:56:06Z</time>
      </trkpt>
      <trkpt lat="49.04682" lon="4.38794">
        <ele>123.67</ele>
        <time>2021-08-09T15:56:07Z</time>
      </trkpt>
      <trkpt lat="49.04669" lon="4.38806">
        <ele>123.67</ele>
        <time>2021-08-09T15:56:13Z</time>
      </trkpt>
      <trkpt lat="49.04659" lon="4.38816">
        <ele>122.71</ele>
        <time>2021-08-09T15:56:16Z</time>
      </trkpt>
      <trkpt lat="49.04627" lon="4.38859">
        <ele>122.71</ele>
        <time>2021-08-09T15:56:26Z</time>
      </trkpt>
      <trkpt lat="49.04619" lon="4.38873">
        <ele>123.67</ele>
        <time>2021-08-09T15:56:29Z</time>
      </trkpt>
      <trkpt lat="49.04616" lon="4.38879">
        <ele>123.67</ele>
        <time>2021-08-09T15:56:30Z</time>
      </trkpt>
      <trkpt lat="49.04606" lon="4.38903">
        <ele>123.67</ele>
        <time>2021-08-09T15:56:34Z</time>
      </trkpt>
      <trkpt lat="49.04599" lon="4.38932">
        <ele>123.67</ele>
        <time>2021-08-09T15:56:38Z</time>
      </trkpt>
      <trkpt lat="49.04596" lon="4.38945">
        <ele>123.67</ele>
        <time>2021-08-09T15:56:40Z</time>
      </trkpt>
      <trkpt lat="49.04594" lon="4.38951">
        <ele>123.67</ele>
        <time>2021-08-09T15:56:41Z</time>
      </trkpt>
      <trkpt lat="49.04593" lon="4.38957">
        <ele>123.67</ele>
        <time>2021-08-09T15:56:42Z</time>
      </trkpt>
      <trkpt lat="49.04588" lon="4.38992">
        <ele>122.22</ele>
        <time>2021-08-09T15:56:46Z</time>
      </trkpt>
      <trkpt lat="49.04588" lon="4.39002">
        <ele>122.22</ele>
        <time>2021-08-09T15:56:47Z</time>
      </trkpt>
      <trkpt lat="49.04586" lon="4.39011">
        <ele>122.22</ele>
        <time>2021-08-09T15:56:48Z</time>
      </trkpt>
      <trkpt lat="49.04584" lon="4.39019">
        <ele>122.22</ele>
        <time>2021-08-09T15:56:49Z</time>
      </trkpt>
      <trkpt lat="49.04581" lon="4.39026">
        <ele>122.22</ele>
        <time>2021-08-09T15:56:50Z</time>
      </trkpt>
      <trkpt lat="49.0457" lon="4.39051">
        <ele>121.26</ele>
        <time>2021-08-09T15:56:54Z</time>
      </trkpt>
      <trkpt lat="49.04562" lon="4.39078">
        <ele>123.19</ele>
        <time>2021-08-09T15:56:59Z</time>
      </trkpt>
      <trkpt lat="49.04564" lon="4.39083">
        <ele>123.19</ele>
        <time>2021-08-09T15:57:00Z</time>
      </trkpt>
      <trkpt lat="49.04584" lon="4.3912">
        <ele>121.26</ele>
        <time>2021-08-09T15:57:06Z</time>
      </trkpt>
      <trkpt lat="49.04588" lon="4.39127">
        <ele>121.26</ele>
        <time>2021-08-09T15:57:07Z</time>
      </trkpt>
      <trkpt lat="49.04623" lon="4.39182">
        <ele>120.78</ele>
        <time>2021-08-09T15:57:15Z</time>
      </trkpt>
      <trkpt lat="49.04626" lon="4.39188">
        <ele>120.78</ele>
        <time>2021-08-09T15:57:16Z</time>
      </trkpt>
      <trkpt lat="49.04628" lon="4.39195">
        <ele>120.78</ele>
        <time>2021-08-09T15:57:17Z</time>
      </trkpt>
      <trkpt lat="49.04627" lon="4.39201">
        <ele>120.3</ele>
        <time>2021-08-09T15:57:18Z</time>
      </trkpt>
      <trkpt lat="49.04625" lon="4.39206">
        <ele>120.78</ele>
        <time>2021-08-09T15:57:19Z</time>
      </trkpt>
      <trkpt lat="49.04622" lon="4.39211">
        <ele>119.82</ele>
        <time>2021-08-09T15:57:20Z</time>
      </trkpt>
      <trkpt lat="49.04607" lon="4.39246">
        <ele>121.26</ele>
        <time>2021-08-09T15:57:25Z</time>
      </trkpt>
      <trkpt lat="49.04607" lon="4.39254">
        <ele>121.26</ele>
        <time>2021-08-09T15:57:26Z</time>
      </trkpt>
      <trkpt lat="49.04608" lon="4.39262">
        <ele>121.26</ele>
        <time>2021-08-09T15:57:27Z</time>
      </trkpt>
      <trkpt lat="49.04611" lon="4.39268">
        <ele>121.26</ele>
        <time>2021-08-09T15:57:28Z</time>
      </trkpt>
      <trkpt lat="49.04614" lon="4.39275">
        <ele>119.82</ele>
        <time>2021-08-09T15:57:29Z</time>
      </trkpt>
      <trkpt lat="49.04617" lon="4.39282">
        <ele>119.82</ele>
        <time>2021-08-09T15:57:30Z</time>
      </trkpt>
      <trkpt lat="49.04621" lon="4.3929">
        <ele>119.34</ele>
        <time>2021-08-09T15:57:31Z</time>
      </trkpt>
      <trkpt lat="49.04633" lon="4.39312">
        <ele>118.86</ele>
        <time>2021-08-09T15:57:34Z</time>
      </trkpt>
      <trkpt lat="49.04651" lon="4.39338">
        <ele>118.86</ele>
        <time>2021-08-09T15:57:38Z</time>
      </trkpt>
      <trkpt lat="49.04655" lon="4.39344">
        <ele>118.86</ele>
        <time>2021-08-09T15:57:39Z</time>
      </trkpt>
      <trkpt lat="49.04686" lon="4.39393">
        <ele>120.3</ele>
        <time>2021-08-09T15:57:46Z</time>
      </trkpt>
      <trkpt lat="49.0469" lon="4.394">
        <ele>120.3</ele>
        <time>2021-08-09T15:57:47Z</time>
      </trkpt>
      <trkpt lat="49.04692" lon="4.39408">
        <ele>120.3</ele>
        <time>2021-08-09T15:57:48Z</time>
      </trkpt>
      <trkpt lat="49.04692" lon="4.39416">
        <ele>121.26</ele>
        <time>2021-08-09T15:57:49Z</time>
      </trkpt>
      <trkpt lat="49.0469" lon="4.39425">
        <ele>121.26</ele>
        <time>2021-08-09T15:57:50Z</time>
      </trkpt>
      <trkpt lat="49.04688" lon="4.3943">
        <ele>121.26</ele>
        <time>2021-08-09T15:57:51Z</time>
      </trkpt>
      <trkpt lat="49.04683" lon="4.39435">
        <ele>121.26</ele>
        <time>2021-08-09T15:57:52Z</time>
      </trkpt>
      <trkpt lat="49.04679" lon="4.39439">
        <ele>121.26</ele>
        <time>2021-08-09T15:57:53Z</time>
      </trkpt>
      <trkpt lat="49.0465" lon="4.39462">
        <ele>117.9</ele>
        <time>2021-08-09T15:57:58Z</time>
      </trkpt>
      <trkpt lat="49.04592" lon="4.39506">
        <ele>117.9</ele>
        <time>2021-08-09T15:58:08Z</time>
      </trkpt>
      <trkpt lat="49.04557" lon="4.39518">
        <ele>119.34</ele>
        <time>2021-08-09T15:58:14Z</time>
      </trkpt>
      <trkpt lat="49.04497" lon="4.39535">
        <ele>119.82</ele>
        <time>2021-08-09T15:58:25Z</time>
      </trkpt>
      <trkpt lat="49.04476" lon="4.39547">
        <ele>119.82</ele>
        <time>2021-08-09T15:58:29Z</time>
      </trkpt>
      <trkpt lat="49.04471" lon="4.39552">
        <ele>120.3</ele>
        <time>2021-08-09T15:58:30Z</time>
      </trkpt>
      <trkpt lat="49.04466" lon="4.39557">
        <ele>119.82</ele>
        <time>2021-08-09T15:58:31Z</time>
      </trkpt>
      <trkpt lat="49.04461" lon="4.39563">
        <ele>120.3</ele>
        <time>2021-08-09T15:58:32Z</time>
      </trkpt>
      <trkpt lat="49.04457" lon="4.39569">
        <ele>120.3</ele>
        <time>2021-08-09T15:58:33Z</time>
      </trkpt>
      <trkpt lat="49.04454" lon="4.39575">
        <ele>119.82</ele>
        <time>2021-08-09T15:58:34Z</time>
      </trkpt>
      <trkpt lat="49.04418" lon="4.39645">
        <ele>120.3</ele>
        <time>2021-08-09T15:58:44Z</time>
      </trkpt>
      <trkpt lat="49.04389" lon="4.39707">
        <ele>120.3</ele>
        <time>2021-08-09T15:58:52Z</time>
      </trkpt>
      <trkpt lat="49.04354" lon="4.39766">
        <ele>120.3</ele>
        <time>2021-08-09T15:59:01Z</time>
      </trkpt>
      <trkpt lat="49.0431" lon="4.39805">
        <ele>120.3</ele>
        <time>2021-08-09T15:59:10Z</time>
      </trkpt>
      <trkpt lat="49.04273" lon="4.3983">
        <ele>122.22</ele>
        <time>2021-08-09T15:59:18Z</time>
      </trkpt>
      <trkpt lat="49.04232" lon="4.3986">
        <ele>122.22</ele>
        <time>2021-08-09T15:59:28Z</time>
      </trkpt>
      <trkpt lat="49.04225" lon="4.39868">
        <ele>122.22</ele>
        <time>2021-08-09T15:59:30Z</time>
      </trkpt>
      <trkpt lat="49.04223" lon="4.39873">
        <ele>122.71</ele>
        <time>2021-08-09T15:59:31Z</time>
      </trkpt>
      <trkpt lat="49.04221" lon="4.39879">
        <ele>122.71</ele>
        <time>2021-08-09T15:59:32Z</time>
      </trkpt>
      <trkpt lat="49.0422" lon="4.39885">
        <ele>123.19</ele>
        <time>2021-08-09T15:59:33Z</time>
      </trkpt>
      <trkpt lat="49.0422" lon="4.39892">
        <ele>123.19</ele>
        <time>2021-08-09T15:59:34Z</time>
      </trkpt>
      <trkpt lat="49.04221" lon="4.39898">
        <ele>123.19</ele>
        <time>2021-08-09T15:59:35Z</time>
      </trkpt>
      <trkpt lat="49.04221" lon="4.39904">
        <ele>123.19</ele>
        <time>2021-08-09T15:59:36Z</time>
      </trkpt>
      <trkpt lat="49.04222" lon="4.3991">
        <ele>123.19</ele>
        <time>2021-08-09T15:59:37Z</time>
      </trkpt>
      <trkpt lat="49.04227" lon="4.39952">
        <ele>124.63</ele>
        <time>2021-08-09T15:59:46Z</time>
      </trkpt>
      <trkpt lat="49.04232" lon="4.39991">
        <ele>126.55</ele>
        <time>2021-08-09T15:59:55Z</time>
      </trkpt>
      <trkpt lat="49.04238" lon="4.40048">
        <ele>127.99</ele>
        <time>2021-08-09T16:00:07Z</time>
      </trkpt>
      <trkpt lat="49.04244" lon="4.40099">
        <ele>129.43</ele>
        <time>2021-08-09T16:00:17Z</time>
      </trkpt>
      <trkpt lat="49.04252" lon="4.40159">
        <ele>129.92</ele>
        <time>2021-08-09T16:00:27Z</time>
      </trkpt>
      <trkpt lat="49.04262" lon="4.40231">
        <ele>131.36</ele>
        <time>2021-08-09T16:00:39Z</time>
      </trkpt>
      <trkpt lat="49.04271" lon="4.40301">
        <ele>131.84</ele>
        <time>2021-08-09T16:00:50Z</time>
      </trkpt>
      <trkpt lat="49.04282" lon="4.40386">
        <ele>133.28</ele>
        <time>2021-08-09T16:01:03Z</time>
      </trkpt>
      <trkpt lat="49.04283" lon="4.40394">
        <ele>133.28</ele>
        <time>2021-08-09T16:01:04Z</time>
      </trkpt>
      <trkpt lat="49.04291" lon="4.40466">
        <ele>134.24</ele>
        <time>2021-08-09T16:01:15Z</time>
      </trkpt>
      <trkpt lat="49.04301" lon="4.40547">
        <ele>134.72</ele>
        <time>2021-08-09T16:01:26Z</time>
      </trkpt>
      <trkpt lat="49.04312" lon="4.4063">
        <ele>136.16</ele>
        <time>2021-08-09T16:01:37Z</time>
      </trkpt>
      <trkpt lat="49.04322" lon="4.40711">
        <ele>136.64</ele>
        <time>2021-08-09T16:01:47Z</time>
      </trkpt>
      <trkpt lat="49.04334" lon="4.40808">
        <ele>137.13</ele>
        <time>2021-08-09T16:01:58Z</time>
      </trkpt>
      <trkpt lat="49.04347" lon="4.40906">
        <ele>137.13</ele>
        <time>2021-08-09T16:02:09Z</time>
      </trkpt>
      <trkpt lat="49.0436" lon="4.41007">
        <ele>137.13</ele>
        <time>2021-08-09T16:02:20Z</time>
      </trkpt>
      <trkpt lat="49.04372" lon="4.41104">
        <ele>135.68</ele>
        <time>2021-08-09T16:02:30Z</time>
      </trkpt>
      <trkpt lat="49.04384" lon="4.41193">
        <ele>135.68</ele>
        <time>2021-08-09T16:02:39Z</time>
      </trkpt>
      <trkpt lat="49.04394" lon="4.41284">
        <ele>134.72</ele>
        <time>2021-08-09T16:02:48Z</time>
      </trkpt>
      <trkpt lat="49.04407" lon="4.41388">
        <ele>134.72</ele>
        <time>2021-08-09T16:02:58Z</time>
      </trkpt>
      <trkpt lat="49.04424" lon="4.4152">
        <ele>134.24</ele>
        <time>2021-08-09T16:03:11Z</time>
      </trkpt>
      <trkpt lat="49.04435" lon="4.41606">
        <ele>134.24</ele>
        <time>2021-08-09T16:03:20Z</time>
      </trkpt>
      <trkpt lat="49.04444" lon="4.41679">
        <ele>133.28</ele>
        <time>2021-08-09T16:03:27Z</time>
      </trkpt>
      <trkpt lat="49.0446" lon="4.41802">
        <ele>134.24</ele>
        <time>2021-08-09T16:03:39Z</time>
      </trkpt>
      <trkpt lat="49.04473" lon="4.41904">
        <ele>135.2</ele>
        <time>2021-08-09T16:03:50Z</time>
      </trkpt>
      <trkpt lat="49.04486" lon="4.42001">
        <ele>135.68</ele>
        <time>2021-08-09T16:04:01Z</time>
      </trkpt>
      <trkpt lat="49.04498" lon="4.42104">
        <ele>136.64</ele>
        <time>2021-08-09T16:04:13Z</time>
      </trkpt>
      <trkpt lat="49.04507" lon="4.42183">
        <ele>136.64</ele>
        <time>2021-08-09T16:04:22Z</time>
      </trkpt>
      <trkpt lat="49.04519" lon="4.42259">
        <ele>137.13</ele>
        <time>2021-08-09T16:04:31Z</time>
      </trkpt>
      <trkpt lat="49.04521" lon="4.42277">
        <ele>137.13</ele>
        <time>2021-08-09T16:04:33Z</time>
      </trkpt>
      <trkpt lat="49.04527" lon="4.42327">
        <ele>137.13</ele>
        <time>2021-08-09T16:04:39Z</time>
      </trkpt>
      <trkpt lat="49.0453" lon="4.42334">
        <ele>137.13</ele>
        <time>2021-08-09T16:04:40Z</time>
      </trkpt>
      <trkpt lat="49.04533" lon="4.42341">
        <ele>137.13</ele>
        <time>2021-08-09T16:04:41Z</time>
      </trkpt>
      <trkpt lat="49.04536" lon="4.42347">
        <ele>137.13</ele>
        <time>2021-08-09T16:04:42Z</time>
      </trkpt>
      <trkpt lat="49.04541" lon="4.42353">
        <ele>137.13</ele>
        <time>2021-08-09T16:04:43Z</time>
      </trkpt>
      <trkpt lat="49.04547" lon="4.42358">
        <ele>137.13</ele>
        <time>2021-08-09T16:04:44Z</time>
      </trkpt>
      <trkpt lat="49.04551" lon="4.4236">
        <ele>137.13</ele>
        <time>2021-08-09T16:04:45Z</time>
      </trkpt>
      <trkpt lat="49.04556" lon="4.42361">
        <ele>137.13</ele>
        <time>2021-08-09T16:04:46Z</time>
      </trkpt>
      <trkpt lat="49.04562" lon="4.42361">
        <ele>135.68</ele>
        <time>2021-08-09T16:04:47Z</time>
      </trkpt>
      <trkpt lat="49.04568" lon="4.4236">
        <ele>135.68</ele>
        <time>2021-08-09T16:04:48Z</time>
      </trkpt>
      <trkpt lat="49.04629" lon="4.42345">
        <ele>134.24</ele>
        <time>2021-08-09T16:04:57Z</time>
      </trkpt>
      <trkpt lat="49.04693" lon="4.42332">
        <ele>133.76</ele>
        <time>2021-08-09T16:05:06Z</time>
      </trkpt>
      <trkpt lat="49.04745" lon="4.42325">
        <ele>133.76</ele>
        <time>2021-08-09T16:05:14Z</time>
      </trkpt>
      <trkpt lat="49.04764" lon="4.42324">
        <ele>133.76</ele>
        <time>2021-08-09T16:05:17Z</time>
      </trkpt>
      <trkpt lat="49.04768" lon="4.42326">
        <ele>133.76</ele>
        <time>2021-08-09T16:05:18Z</time>
      </trkpt>
      <trkpt lat="49.04773" lon="4.42331">
        <ele>133.76</ele>
        <time>2021-08-09T16:05:19Z</time>
      </trkpt>
      <trkpt lat="49.04774" lon="4.42355">
        <ele>133.28</ele>
        <time>2021-08-09T16:05:22Z</time>
      </trkpt>
      <trkpt lat="49.04772" lon="4.42364">
        <ele>132.8</ele>
        <time>2021-08-09T16:05:23Z</time>
      </trkpt>
      <trkpt lat="49.04747" lon="4.4245">
        <ele>130.88</ele>
        <time>2021-08-09T16:05:32Z</time>
      </trkpt>
      <trkpt lat="49.04709" lon="4.42592">
        <ele>128.95</ele>
        <time>2021-08-09T16:05:45Z</time>
      </trkpt>
      <trkpt lat="49.04676" lon="4.4271">
        <ele>128.95</ele>
        <time>2021-08-09T16:05:57Z</time>
      </trkpt>
      <trkpt lat="49.04637" lon="4.42854">
        <ele>127.99</ele>
        <time>2021-08-09T16:06:12Z</time>
      </trkpt>
      <trkpt lat="49.04606" lon="4.42965">
        <ele>127.99</ele>
        <time>2021-08-09T16:06:24Z</time>
      </trkpt>
      <trkpt lat="49.04577" lon="4.43072">
        <ele>127.51</ele>
        <time>2021-08-09T16:06:36Z</time>
      </trkpt>
      <trkpt lat="49.04555" lon="4.43152">
        <ele>127.51</ele>
        <time>2021-08-09T16:06:45Z</time>
      </trkpt>
      <trkpt lat="49.04535" lon="4.43225">
        <ele>128.95</ele>
        <time>2021-08-09T16:06:54Z</time>
      </trkpt>
      <trkpt lat="49.04509" lon="4.43317">
        <ele>129.92</ele>
        <time>2021-08-09T16:07:06Z</time>
      </trkpt>
      <trkpt lat="49.04487" lon="4.434">
        <ele>128.95</ele>
        <time>2021-08-09T16:07:17Z</time>
      </trkpt>
      <trkpt lat="49.04464" lon="4.43484">
        <ele>128.95</ele>
        <time>2021-08-09T16:07:28Z</time>
      </trkpt>
      <trkpt lat="49.04444" lon="4.43558">
        <ele>128.95</ele>
        <time>2021-08-09T16:07:38Z</time>
      </trkpt>
      <trkpt lat="49.04432" lon="4.43603">
        <ele>130.4</ele>
        <time>2021-08-09T16:07:44Z</time>
      </trkpt>
      <trkpt lat="49.0441" lon="4.43682">
        <ele>131.84</ele>
        <time>2021-08-09T16:07:55Z</time>
      </trkpt>
      <trkpt lat="49.04404" lon="4.43702">
        <ele>130.88</ele>
        <time>2021-08-09T16:07:58Z</time>
      </trkpt>
      <trkpt lat="49.04384" lon="4.43768">
        <ele>130.88</ele>
        <time>2021-08-09T16:08:07Z</time>
      </trkpt>
      <trkpt lat="49.04364" lon="4.43847">
        <ele>130.88</ele>
        <time>2021-08-09T16:08:17Z</time>
      </trkpt>
      <trkpt lat="49.0435" lon="4.43902">
        <ele>132.32</ele>
        <time>2021-08-09T16:08:24Z</time>
      </trkpt>
      <trkpt lat="49.04329" lon="4.43979">
        <ele>132.32</ele>
        <time>2021-08-09T16:08:34Z</time>
      </trkpt>
      <trkpt lat="49.043" lon="4.44082">
        <ele>132.8</ele>
        <time>2021-08-09T16:08:47Z</time>
      </trkpt>
      <trkpt lat="49.04277" lon="4.44163">
        <ele>131.36</ele>
        <time>2021-08-09T16:08:57Z</time>
      </trkpt>
      <trkpt lat="49.04264" lon="4.44212">
        <ele>131.36</ele>
        <time>2021-08-09T16:09:03Z</time>
      </trkpt>
      <trkpt lat="49.04263" lon="4.4422">
        <ele>131.36</ele>
        <time>2021-08-09T16:09:04Z</time>
      </trkpt>
      <trkpt lat="49.04264" lon="4.44228">
        <ele>131.36</ele>
        <time>2021-08-09T16:09:05Z</time>
      </trkpt>
      <trkpt lat="49.04266" lon="4.44236">
        <ele>131.36</ele>
        <time>2021-08-09T16:09:06Z</time>
      </trkpt>
      <trkpt lat="49.04268" lon="4.44243">
        <ele>131.36</ele>
        <time>2021-08-09T16:09:07Z</time>
      </trkpt>
      <trkpt lat="49.04272" lon="4.44249">
        <ele>131.36</ele>
        <time>2021-08-09T16:09:08Z</time>
      </trkpt>
      <trkpt lat="49.04275" lon="4.44254">
        <ele>131.36</ele>
        <time>2021-08-09T16:09:09Z</time>
      </trkpt>
      <trkpt lat="49.04279" lon="4.44259">
        <ele>131.36</ele>
        <time>2021-08-09T16:09:10Z</time>
      </trkpt>
      <trkpt lat="49.04284" lon="4.44263">
        <ele>131.36</ele>
        <time>2021-08-09T16:09:11Z</time>
      </trkpt>
      <trkpt lat="49.04294" lon="4.44272">
        <ele>131.36</ele>
        <time>2021-08-09T16:09:13Z</time>
      </trkpt>
      <trkpt lat="49.04332" lon="4.44308">
        <ele>131.36</ele>
        <time>2021-08-09T16:09:21Z</time>
      </trkpt>
      <trkpt lat="49.04335" lon="4.44313">
        <ele>131.36</ele>
        <time>2021-08-09T16:09:22Z</time>
      </trkpt>
      <trkpt lat="49.04337" lon="4.44321">
        <ele>131.36</ele>
        <time>2021-08-09T16:09:23Z</time>
      </trkpt>
      <trkpt lat="49.04337" lon="4.44327">
        <ele>131.36</ele>
        <time>2021-08-09T16:09:24Z</time>
      </trkpt>
      <trkpt lat="49.04336" lon="4.44334">
        <ele>131.36</ele>
        <time>2021-08-09T16:09:25Z</time>
      </trkpt>
      <trkpt lat="49.04336" lon="4.4434">
        <ele>131.36</ele>
        <time>2021-08-09T16:09:26Z</time>
      </trkpt>
      <trkpt lat="49.04335" lon="4.44347">
        <ele>131.36</ele>
        <time>2021-08-09T16:09:27Z</time>
      </trkpt>
      <trkpt lat="49.04337" lon="4.44355">
        <ele>130.88</ele>
        <time>2021-08-09T16:09:28Z</time>
      </trkpt>
      <trkpt lat="49.0434" lon="4.44361">
        <ele>130.4</ele>
        <time>2021-08-09T16:09:29Z</time>
      </trkpt>
      <trkpt lat="49.04344" lon="4.44366">
        <ele>130.4</ele>
        <time>2021-08-09T16:09:30Z</time>
      </trkpt>
      <trkpt lat="49.04349" lon="4.44371">
        <ele>130.4</ele>
        <time>2021-08-09T16:09:31Z</time>
      </trkpt>
      <trkpt lat="49.04353" lon="4.44375">
        <ele>130.4</ele>
        <time>2021-08-09T16:09:32Z</time>
      </trkpt>
      <trkpt lat="49.04362" lon="4.44384">
        <ele>130.4</ele>
        <time>2021-08-09T16:09:34Z</time>
      </trkpt>
      <trkpt lat="49.04366" lon="4.4439">
        <ele>130.4</ele>
        <time>2021-08-09T16:09:35Z</time>
      </trkpt>
      <trkpt lat="49.04369" lon="4.44395">
        <ele>130.4</ele>
        <time>2021-08-09T16:09:36Z</time>
      </trkpt>
      <trkpt lat="49.04372" lon="4.44402">
        <ele>130.4</ele>
        <time>2021-08-09T16:09:37Z</time>
      </trkpt>
      <trkpt lat="49.04375" lon="4.44409">
        <ele>130.4</ele>
        <time>2021-08-09T16:09:38Z</time>
      </trkpt>
      <trkpt lat="49.04378" lon="4.44414">
        <ele>130.4</ele>
        <time>2021-08-09T16:09:39Z</time>
      </trkpt>
      <trkpt lat="49.04381" lon="4.4442">
        <ele>130.4</ele>
        <time>2021-08-09T16:09:40Z</time>
      </trkpt>
      <trkpt lat="49.04385" lon="4.44425">
        <ele>129.92</ele>
        <time>2021-08-09T16:09:41Z</time>
      </trkpt>
      <trkpt lat="49.0439" lon="4.44429">
        <ele>129.43</ele>
        <time>2021-08-09T16:09:42Z</time>
      </trkpt>
      <trkpt lat="49.04394" lon="4.44433">
        <ele>129.43</ele>
        <time>2021-08-09T16:09:43Z</time>
      </trkpt>
      <trkpt lat="49.04398" lon="4.44437">
        <ele>129.43</ele>
        <time>2021-08-09T16:09:44Z</time>
      </trkpt>
      <trkpt lat="49.04444" lon="4.44487">
        <ele>128.47</ele>
        <time>2021-08-09T16:09:54Z</time>
      </trkpt>
      <trkpt lat="49.04478" lon="4.44523">
        <ele>128.47</ele>
        <time>2021-08-09T16:10:02Z</time>
      </trkpt>
      <trkpt lat="49.04513" lon="4.4456">
        <ele>128.95</ele>
        <time>2021-08-09T16:10:10Z</time>
      </trkpt>
      <trkpt lat="49.04565" lon="4.44617">
        <ele>128.95</ele>
        <time>2021-08-09T16:10:21Z</time>
      </trkpt>
      <trkpt lat="49.04579" lon="4.44635">
        <ele>128.47</ele>
        <time>2021-08-09T16:10:24Z</time>
      </trkpt>
      <trkpt lat="49.04583" lon="4.44641">
        <ele>128.47</ele>
        <time>2021-08-09T16:10:25Z</time>
      </trkpt>
      <trkpt lat="49.04586" lon="4.44648">
        <ele>128.47</ele>
        <time>2021-08-09T16:10:26Z</time>
      </trkpt>
      <trkpt lat="49.04591" lon="4.44664">
        <ele>128.47</ele>
        <time>2021-08-09T16:10:28Z</time>
      </trkpt>
      <trkpt lat="49.04592" lon="4.44673">
        <ele>128.47</ele>
        <time>2021-08-09T16:10:29Z</time>
      </trkpt>
      <trkpt lat="49.04594" lon="4.44681">
        <ele>128.47</ele>
        <time>2021-08-09T16:10:30Z</time>
      </trkpt>
      <trkpt lat="49.04593" lon="4.44697">
        <ele>128.47</ele>
        <time>2021-08-09T16:10:33Z</time>
      </trkpt>
      <trkpt lat="49.04592" lon="4.44696">
        <ele>128.47</ele>
        <time>2021-08-09T16:10:34Z</time>
      </trkpt>
      <trkpt lat="49.04591" lon="4.44688">
        <ele>128.95</ele>
        <time>2021-08-09T16:10:38Z</time>
      </trkpt>
      <trkpt lat="49.04589" lon="4.44687">
        <ele>128.95</ele>
        <time>2021-08-09T16:10:52Z</time>
      </trkpt>
      <trkpt lat="49.04592" lon="4.44678">
        <ele>128.95</ele>
        <time>2021-08-09T16:11:00Z</time>
      </trkpt>
      <trkpt lat="49.0459" lon="4.44654">
        <ele>127.99</ele>
        <time>2021-08-09T16:11:05Z</time>
      </trkpt>
      <trkpt lat="49.04586" lon="4.44643">
        <ele>127.99</ele>
        <time>2021-08-09T16:11:07Z</time>
      </trkpt>
      <trkpt lat="49.04584" lon="4.44638">
        <ele>127.99</ele>
        <time>2021-08-09T16:11:08Z</time>
      </trkpt>
      <trkpt lat="49.04574" lon="4.44623">
        <ele>127.51</ele>
        <time>2021-08-09T16:11:11Z</time>
      </trkpt>
      <trkpt lat="49.04571" lon="4.44618">
        <ele>127.51</ele>
        <time>2021-08-09T16:11:12Z</time>
      </trkpt>
      <trkpt lat="49.04531" lon="4.44576">
        <ele>127.51</ele>
        <time>2021-08-09T16:11:22Z</time>
      </trkpt>
      <trkpt lat="49.04515" lon="4.4456">
        <ele>128.95</ele>
        <time>2021-08-09T16:11:26Z</time>
      </trkpt>
      <trkpt lat="49.04483" lon="4.44523">
        <ele>129.43</ele>
        <time>2021-08-09T16:11:34Z</time>
      </trkpt>
      <trkpt lat="49.04463" lon="4.44501">
        <ele>129.43</ele>
        <time>2021-08-09T16:11:39Z</time>
      </trkpt>
      <trkpt lat="49.04459" lon="4.44496">
        <ele>129.43</ele>
        <time>2021-08-09T16:11:40Z</time>
      </trkpt>
      <trkpt lat="49.04455" lon="4.44492">
        <ele>129.43</ele>
        <time>2021-08-09T16:11:41Z</time>
      </trkpt>
      <trkpt lat="49.04418" lon="4.44455">
        <ele>129.43</ele>
        <time>2021-08-09T16:11:51Z</time>
      </trkpt>
      <trkpt lat="49.04384" lon="4.44421">
        <ele>129.92</ele>
        <time>2021-08-09T16:12:01Z</time>
      </trkpt>
      <trkpt lat="49.04377" lon="4.44408">
        <ele>130.4</ele>
        <time>2021-08-09T16:12:04Z</time>
      </trkpt>
      <trkpt lat="49.0438" lon="4.444">
        <ele>131.36</ele>
        <time>2021-08-09T16:12:06Z</time>
      </trkpt>
      <trkpt lat="49.04383" lon="4.44399">
        <ele>131.36</ele>
        <time>2021-08-09T16:12:07Z</time>
      </trkpt>
      <trkpt lat="49.04386" lon="4.444">
        <ele>131.36</ele>
        <time>2021-08-09T16:12:08Z</time>
      </trkpt>
      <trkpt lat="49.04389" lon="4.44403">
        <ele>131.36</ele>
        <time>2021-08-09T16:12:09Z</time>
      </trkpt>
      <trkpt lat="49.04393" lon="4.44407">
        <ele>131.36</ele>
        <time>2021-08-09T16:12:10Z</time>
      </trkpt>
      <trkpt lat="49.04433" lon="4.44449">
        <ele>131.36</ele>
        <time>2021-08-09T16:12:20Z</time>
      </trkpt>
      <trkpt lat="49.04468" lon="4.44482">
        <ele>132.32</ele>
        <time>2021-08-09T16:12:29Z</time>
      </trkpt>
      <trkpt lat="49.04472" lon="4.44486">
        <ele>133.28</ele>
        <time>2021-08-09T16:12:30Z</time>
      </trkpt>
      <trkpt lat="49.04475" lon="4.44489">
        <ele>133.76</ele>
        <time>2021-08-09T16:12:31Z</time>
      </trkpt>
      <trkpt lat="49.04479" lon="4.44493">
        <ele>133.28</ele>
        <time>2021-08-09T16:12:32Z</time>
      </trkpt>
      <trkpt lat="49.04483" lon="4.44496">
        <ele>133.76</ele>
        <time>2021-08-09T16:12:33Z</time>
      </trkpt>
      <trkpt lat="49.04493" lon="4.44506">
        <ele>134.24</ele>
        <time>2021-08-09T16:12:36Z</time>
      </trkpt>
      <trkpt lat="49.04532" lon="4.44544">
        <ele>135.68</ele>
        <time>2021-08-09T16:12:47Z</time>
      </trkpt>
      <trkpt lat="49.04571" lon="4.44581">
        <ele>136.64</ele>
        <time>2021-08-09T16:12:57Z</time>
      </trkpt>
      <trkpt lat="49.04623" lon="4.44628">
        <ele>137.13</ele>
        <time>2021-08-09T16:13:09Z</time>
      </trkpt>
      <trkpt lat="49.04667" lon="4.44671">
        <ele>137.13</ele>
        <time>2021-08-09T16:13:18Z</time>
      </trkpt>
      <trkpt lat="49.04719" lon="4.44725">
        <ele>136.16</ele>
        <time>2021-08-09T16:13:28Z</time>
      </trkpt>
      <trkpt lat="49.04767" lon="4.44772">
        <ele>133.76</ele>
        <time>2021-08-09T16:13:36Z</time>
      </trkpt>
      <trkpt lat="49.04824" lon="4.44829">
        <ele>130.88</ele>
        <time>2021-08-09T16:13:44Z</time>
      </trkpt>
      <trkpt lat="49.04848" lon="4.44853">
        <ele>129.43</ele>
        <time>2021-08-09T16:13:47Z</time>
      </trkpt>
      <trkpt lat="49.04865" lon="4.44869">
        <ele>127.51</ele>
        <time>2021-08-09T16:13:49Z</time>
      </trkpt>
      <trkpt lat="49.04952" lon="4.44955">
        <ele>126.55</ele>
        <time>2021-08-09T16:14:00Z</time>
      </trkpt>
      <trkpt lat="49.04972" lon="4.44975">
        <ele>127.99</ele>
        <time>2021-08-09T16:14:03Z</time>
      </trkpt>
      <trkpt lat="49.05007" lon="4.45007">
        <ele>128.95</ele>
        <time>2021-08-09T16:14:09Z</time>
      </trkpt>
      <trkpt lat="49.05038" lon="4.45038">
        <ele>129.43</ele>
        <time>2021-08-09T16:14:15Z</time>
      </trkpt>
      <trkpt lat="49.05088" lon="4.45089">
        <ele>130.4</ele>
        <time>2021-08-09T16:14:25Z</time>
      </trkpt>
      <trkpt lat="49.05128" lon="4.4513">
        <ele>130.88</ele>
        <time>2021-08-09T16:14:33Z</time>
      </trkpt>
      <trkpt lat="49.05143" lon="4.45147">
        <ele>130.88</ele>
        <time>2021-08-09T16:14:36Z</time>
      </trkpt>
      <trkpt lat="49.05147" lon="4.45154">
        <ele>130.88</ele>
        <time>2021-08-09T16:14:37Z</time>
      </trkpt>
      <trkpt lat="49.0515" lon="4.45162">
        <ele>130.88</ele>
        <time>2021-08-09T16:14:38Z</time>
      </trkpt>
      <trkpt lat="49.05153" lon="4.4517">
        <ele>130.88</ele>
        <time>2021-08-09T16:14:39Z</time>
      </trkpt>
      <trkpt lat="49.05155" lon="4.45179">
        <ele>130.88</ele>
        <time>2021-08-09T16:14:40Z</time>
      </trkpt>
      <trkpt lat="49.05157" lon="4.45188">
        <ele>130.88</ele>
        <time>2021-08-09T16:14:41Z</time>
      </trkpt>
      <trkpt lat="49.05165" lon="4.45219">
        <ele>131.36</ele>
        <time>2021-08-09T16:14:45Z</time>
      </trkpt>
      <trkpt lat="49.05168" lon="4.45224">
        <ele>131.36</ele>
        <time>2021-08-09T16:14:46Z</time>
      </trkpt>
      <trkpt lat="49.05171" lon="4.45228">
        <ele>131.36</ele>
        <time>2021-08-09T16:14:47Z</time>
      </trkpt>
      <trkpt lat="49.05175" lon="4.45229">
        <ele>131.36</ele>
        <time>2021-08-09T16:14:48Z</time>
      </trkpt>
      <trkpt lat="49.0518" lon="4.45229">
        <ele>131.36</ele>
        <time>2021-08-09T16:14:49Z</time>
      </trkpt>
      <trkpt lat="49.05185" lon="4.45227">
        <ele>131.36</ele>
        <time>2021-08-09T16:14:50Z</time>
      </trkpt>
      <trkpt lat="49.0519" lon="4.45224">
        <ele>131.36</ele>
        <time>2021-08-09T16:14:51Z</time>
      </trkpt>
      <trkpt lat="49.05195" lon="4.4522">
        <ele>131.36</ele>
        <time>2021-08-09T16:14:52Z</time>
      </trkpt>
      <trkpt lat="49.05201" lon="4.45217">
        <ele>131.36</ele>
        <time>2021-08-09T16:14:53Z</time>
      </trkpt>
      <trkpt lat="49.05207" lon="4.45216">
        <ele>131.36</ele>
        <time>2021-08-09T16:14:54Z</time>
      </trkpt>
      <trkpt lat="49.05213" lon="4.45217">
        <ele>131.36</ele>
        <time>2021-08-09T16:14:55Z</time>
      </trkpt>
      <trkpt lat="49.05219" lon="4.4522">
        <ele>131.36</ele>
        <time>2021-08-09T16:14:56Z</time>
      </trkpt>
      <trkpt lat="49.05225" lon="4.45224">
        <ele>131.36</ele>
        <time>2021-08-09T16:14:57Z</time>
      </trkpt>
      <trkpt lat="49.0523" lon="4.45229">
        <ele>131.36</ele>
        <time>2021-08-09T16:14:58Z</time>
      </trkpt>
      <trkpt lat="49.05244" lon="4.45241">
        <ele>129.92</ele>
        <time>2021-08-09T16:15:01Z</time>
      </trkpt>
      <trkpt lat="49.05248" lon="4.45243">
        <ele>129.92</ele>
        <time>2021-08-09T16:15:02Z</time>
      </trkpt>
      <trkpt lat="49.05251" lon="4.45244">
        <ele>129.92</ele>
        <time>2021-08-09T16:15:03Z</time>
      </trkpt>
      <trkpt lat="49.05253" lon="4.45244">
        <ele>129.92</ele>
        <time>2021-08-09T16:15:04Z</time>
      </trkpt>
      <trkpt lat="49.05255" lon="4.45244">
        <ele>129.92</ele>
        <time>2021-08-09T16:15:05Z</time>
      </trkpt>
      <trkpt lat="49.05259" lon="4.45244">
        <ele>129.92</ele>
        <time>2021-08-09T16:15:09Z</time>
      </trkpt>
      <trkpt lat="49.05263" lon="4.45242">
        <ele>129.92</ele>
        <time>2021-08-09T16:15:13Z</time>
      </trkpt>
      <trkpt lat="49.05275" lon="4.45255">
        <ele>129.92</ele>
        <time>2021-08-09T16:15:19Z</time>
      </trkpt>
      <trkpt lat="49.05304" lon="4.45282">
        <ele>129.92</ele>
        <time>2021-08-09T16:15:26Z</time>
      </trkpt>
      <trkpt lat="49.05328" lon="4.45305">
        <ele>129.92</ele>
        <time>2021-08-09T16:15:31Z</time>
      </trkpt>
      <trkpt lat="49.05357" lon="4.45332">
        <ele>129.92</ele>
        <time>2021-08-09T16:15:37Z</time>
      </trkpt>
      <trkpt lat="49.05362" lon="4.45337">
        <ele>129.92</ele>
        <time>2021-08-09T16:15:38Z</time>
      </trkpt>
      <trkpt lat="49.0537" lon="4.45344">
        <ele>131.36</ele>
        <time>2021-08-09T16:15:40Z</time>
      </trkpt>
      <trkpt lat="49.05375" lon="4.4535">
        <ele>131.84</ele>
        <time>2021-08-09T16:15:41Z</time>
      </trkpt>
      <trkpt lat="49.05377" lon="4.45355">
        <ele>131.84</ele>
        <time>2021-08-09T16:15:42Z</time>
      </trkpt>
      <trkpt lat="49.0538" lon="4.45363">
        <ele>131.84</ele>
        <time>2021-08-09T16:15:43Z</time>
      </trkpt>
      <trkpt lat="49.05382" lon="4.45369">
        <ele>132.32</ele>
        <time>2021-08-09T16:15:44Z</time>
      </trkpt>
      <trkpt lat="49.05385" lon="4.45374">
        <ele>132.32</ele>
        <time>2021-08-09T16:15:45Z</time>
      </trkpt>
      <trkpt lat="49.05388" lon="4.45379">
        <ele>132.8</ele>
        <time>2021-08-09T16:15:46Z</time>
      </trkpt>
      <trkpt lat="49.05391" lon="4.45382">
        <ele>132.8</ele>
        <time>2021-08-09T16:15:47Z</time>
      </trkpt>
      <trkpt lat="49.05394" lon="4.45385">
        <ele>132.8</ele>
        <time>2021-08-09T16:15:48Z</time>
      </trkpt>
      <trkpt lat="49.05416" lon="4.45407">
        <ele>135.2</ele>
        <time>2021-08-09T16:15:56Z</time>
      </trkpt>
      <trkpt lat="49.05439" lon="4.45429">
        <ele>137.13</ele>
        <time>2021-08-09T16:16:06Z</time>
      </trkpt>
      <trkpt lat="49.05463" lon="4.45453">
        <ele>138.09</ele>
        <time>2021-08-09T16:16:17Z</time>
      </trkpt>
      <trkpt lat="49.05481" lon="4.45472">
        <ele>139.05</ele>
        <time>2021-08-09T16:16:25Z</time>
      </trkpt>
      <trkpt lat="49.05503" lon="4.45493">
        <ele>140.49</ele>
        <time>2021-08-09T16:16:34Z</time>
      </trkpt>
      <trkpt lat="49.0551" lon="4.45501">
        <ele>140.97</ele>
        <time>2021-08-09T16:16:37Z</time>
      </trkpt>
      <trkpt lat="49.05512" lon="4.45504">
        <ele>140.97</ele>
        <time>2021-08-09T16:16:38Z</time>
      </trkpt>
      <trkpt lat="49.05543" lon="4.45531">
        <ele>142.41</ele>
        <time>2021-08-09T16:16:49Z</time>
      </trkpt>
      <trkpt lat="49.05565" lon="4.45553">
        <ele>143.37</ele>
        <time>2021-08-09T16:16:57Z</time>
      </trkpt>
      <trkpt lat="49.05593" lon="4.45579">
        <ele>144.82</ele>
        <time>2021-08-09T16:17:06Z</time>
      </trkpt>
      <trkpt lat="49.05617" lon="4.45602">
        <ele>146.26</ele>
        <time>2021-08-09T16:17:14Z</time>
      </trkpt>
      <trkpt lat="49.05654" lon="4.45638">
        <ele>147.22</ele>
        <time>2021-08-09T16:17:25Z</time>
      </trkpt>
      <trkpt lat="49.0569" lon="4.45672">
        <ele>147.7</ele>
        <time>2021-08-09T16:17:35Z</time>
      </trkpt>
      <trkpt lat="49.05722" lon="4.45703">
        <ele>148.18</ele>
        <time>2021-08-09T16:17:43Z</time>
      </trkpt>
      <trkpt lat="49.05747" lon="4.45728">
        <ele>148.18</ele>
        <time>2021-08-09T16:17:49Z</time>
      </trkpt>
      <trkpt lat="49.05749" lon="4.45734">
        <ele>148.18</ele>
        <time>2021-08-09T16:17:50Z</time>
      </trkpt>
      <trkpt lat="49.05751" lon="4.45741">
        <ele>148.18</ele>
        <time>2021-08-09T16:17:51Z</time>
      </trkpt>
      <trkpt lat="49.05752" lon="4.4575">
        <ele>148.18</ele>
        <time>2021-08-09T16:17:52Z</time>
      </trkpt>
      <trkpt lat="49.05751" lon="4.45759">
        <ele>148.18</ele>
        <time>2021-08-09T16:17:53Z</time>
      </trkpt>
      <trkpt lat="49.0575" lon="4.45764">
        <ele>148.18</ele>
        <time>2021-08-09T16:17:54Z</time>
      </trkpt>
      <trkpt lat="49.05749" lon="4.45773">
        <ele>148.18</ele>
        <time>2021-08-09T16:17:55Z</time>
      </trkpt>
      <trkpt lat="49.05735" lon="4.45851">
        <ele>149.62</ele>
        <time>2021-08-09T16:18:05Z</time>
      </trkpt>
      <trkpt lat="49.05728" lon="4.45889">
        <ele>149.62</ele>
        <time>2021-08-09T16:18:10Z</time>
      </trkpt>
      <trkpt lat="49.05727" lon="4.45896">
        <ele>149.62</ele>
        <time>2021-08-09T16:18:11Z</time>
      </trkpt>
      <trkpt lat="49.05712" lon="4.45984">
        <ele>150.1</ele>
        <time>2021-08-09T16:18:23Z</time>
      </trkpt>
      <trkpt lat="49.05695" lon="4.46082">
        <ele>151.06</ele>
        <time>2021-08-09T16:18:37Z</time>
      </trkpt>
      <trkpt lat="49.05694" lon="4.46089">
        <ele>151.06</ele>
        <time>2021-08-09T16:18:38Z</time>
      </trkpt>
      <trkpt lat="49.05693" lon="4.46096">
        <ele>151.06</ele>
        <time>2021-08-09T16:18:39Z</time>
      </trkpt>
      <trkpt lat="49.05678" lon="4.46179">
        <ele>152.51</ele>
        <time>2021-08-09T16:18:51Z</time>
      </trkpt>
      <trkpt lat="49.05671" lon="4.46251">
        <ele>152.99</ele>
        <time>2021-08-09T16:19:01Z</time>
      </trkpt>
      <trkpt lat="49.05671" lon="4.46318">
        <ele>153.47</ele>
        <time>2021-08-09T16:19:10Z</time>
      </trkpt>
      <trkpt lat="49.0567" lon="4.46407">
        <ele>153.95</ele>
        <time>2021-08-09T16:19:22Z</time>
      </trkpt>
      <trkpt lat="49.05664" lon="4.46488">
        <ele>155.39</ele>
        <time>2021-08-09T16:19:33Z</time>
      </trkpt>
      <trkpt lat="49.05656" lon="4.4655">
        <ele>153.95</ele>
        <time>2021-08-09T16:19:41Z</time>
      </trkpt>
      <trkpt lat="49.05644" lon="4.46623">
        <ele>153.95</ele>
        <time>2021-08-09T16:19:50Z</time>
      </trkpt>
      <trkpt lat="49.0563" lon="4.46718">
        <ele>152.51</ele>
        <time>2021-08-09T16:20:01Z</time>
      </trkpt>
      <trkpt lat="49.05617" lon="4.46807">
        <ele>152.51</ele>
        <time>2021-08-09T16:20:11Z</time>
      </trkpt>
      <trkpt lat="49.05604" lon="4.46898">
        <ele>149.62</ele>
        <time>2021-08-09T16:20:21Z</time>
      </trkpt>
      <trkpt lat="49.05584" lon="4.47027">
        <ele>147.7</ele>
        <time>2021-08-09T16:20:33Z</time>
      </trkpt>
      <trkpt lat="49.05566" lon="4.47148">
        <ele>146.26</ele>
        <time>2021-08-09T16:20:44Z</time>
      </trkpt>
      <trkpt lat="49.05555" lon="4.4722">
        <ele>147.7</ele>
        <time>2021-08-09T16:20:51Z</time>
      </trkpt>
      <trkpt lat="49.05547" lon="4.47281">
        <ele>145.78</ele>
        <time>2021-08-09T16:20:57Z</time>
      </trkpt>
      <trkpt lat="49.05534" lon="4.47372">
        <ele>145.3</ele>
        <time>2021-08-09T16:21:06Z</time>
      </trkpt>
      <trkpt lat="49.05518" lon="4.47478">
        <ele>143.85</ele>
        <time>2021-08-09T16:21:16Z</time>
      </trkpt>
      <trkpt lat="49.05499" lon="4.47603">
        <ele>143.37</ele>
        <time>2021-08-09T16:21:28Z</time>
      </trkpt>
      <trkpt lat="49.05494" lon="4.47644">
        <ele>142.89</ele>
        <time>2021-08-09T16:21:32Z</time>
      </trkpt>
      <trkpt lat="49.05493" lon="4.47678">
        <ele>142.89</ele>
        <time>2021-08-09T16:21:35Z</time>
      </trkpt>
      <trkpt lat="49.05494" lon="4.47687">
        <ele>142.89</ele>
        <time>2021-08-09T16:21:36Z</time>
      </trkpt>
      <trkpt lat="49.05495" lon="4.47697">
        <ele>142.89</ele>
        <time>2021-08-09T16:21:37Z</time>
      </trkpt>
      <trkpt lat="49.05497" lon="4.47708">
        <ele>141.93</ele>
        <time>2021-08-09T16:21:38Z</time>
      </trkpt>
      <trkpt lat="49.055" lon="4.47718">
        <ele>141.93</ele>
        <time>2021-08-09T16:21:39Z</time>
      </trkpt>
      <trkpt lat="49.05516" lon="4.47789">
        <ele>143.85</ele>
        <time>2021-08-09T16:21:47Z</time>
      </trkpt>
      <trkpt lat="49.0552" lon="4.47806">
        <ele>144.82</ele>
        <time>2021-08-09T16:21:50Z</time>
      </trkpt>
      <trkpt lat="49.0553" lon="4.47846">
        <ele>145.78</ele>
        <time>2021-08-09T16:21:58Z</time>
      </trkpt>
      <trkpt lat="49.05542" lon="4.47896">
        <ele>146.74</ele>
        <time>2021-08-09T16:22:07Z</time>
      </trkpt>
      <trkpt lat="49.05554" lon="4.47944">
        <ele>147.7</ele>
        <time>2021-08-09T16:22:15Z</time>
      </trkpt>
      <trkpt lat="49.05552" lon="4.47965">
        <ele>147.7</ele>
        <time>2021-08-09T16:22:19Z</time>
      </trkpt>
      <trkpt lat="49.05549" lon="4.47971">
        <ele>147.7</ele>
        <time>2021-08-09T16:22:20Z</time>
      </trkpt>
      <trkpt lat="49.05524" lon="4.48014">
        <ele>146.26</ele>
        <time>2021-08-09T16:22:27Z</time>
      </trkpt>
      <trkpt lat="49.0547" lon="4.4811">
        <ele>145.3</ele>
        <time>2021-08-09T16:22:41Z</time>
      </trkpt>
      <trkpt lat="49.0543" lon="4.48182">
        <ele>144.34</ele>
        <time>2021-08-09T16:22:51Z</time>
      </trkpt>
      <trkpt lat="49.05385" lon="4.48261">
        <ele>142.41</ele>
        <time>2021-08-09T16:23:02Z</time>
      </trkpt>
      <trkpt lat="49.05338" lon="4.48347">
        <ele>139.53</ele>
        <time>2021-08-09T16:23:13Z</time>
      </trkpt>
      <trkpt lat="49.05286" lon="4.4844">
        <ele>137.61</ele>
        <time>2021-08-09T16:23:25Z</time>
      </trkpt>
      <trkpt lat="49.05237" lon="4.48525">
        <ele>136.64</ele>
        <time>2021-08-09T16:23:37Z</time>
      </trkpt>
      <trkpt lat="49.0523" lon="4.48538">
        <ele>138.09</ele>
        <time>2021-08-09T16:23:39Z</time>
      </trkpt>
      <trkpt lat="49.05221" lon="4.48554">
        <ele>137.13</ele>
        <time>2021-08-09T16:23:42Z</time>
      </trkpt>
      <trkpt lat="49.05218" lon="4.48557">
        <ele>137.13</ele>
        <time>2021-08-09T16:23:43Z</time>
      </trkpt>
      <trkpt lat="49.05214" lon="4.48559">
        <ele>137.13</ele>
        <time>2021-08-09T16:23:44Z</time>
      </trkpt>
      <trkpt lat="49.05211" lon="4.48556">
        <ele>137.13</ele>
        <time>2021-08-09T16:23:45Z</time>
      </trkpt>
      <trkpt lat="49.05208" lon="4.48551">
        <ele>137.13</ele>
        <time>2021-08-09T16:23:46Z</time>
      </trkpt>
      <trkpt lat="49.05206" lon="4.48546">
        <ele>137.13</ele>
        <time>2021-08-09T16:23:47Z</time>
      </trkpt>
      <trkpt lat="49.05204" lon="4.4854">
        <ele>137.13</ele>
        <time>2021-08-09T16:23:48Z</time>
      </trkpt>
      <trkpt lat="49.05203" lon="4.48534">
        <ele>137.13</ele>
        <time>2021-08-09T16:23:49Z</time>
      </trkpt>
      <trkpt lat="49.05202" lon="4.48527">
        <ele>137.13</ele>
        <time>2021-08-09T16:23:50Z</time>
      </trkpt>
      <trkpt lat="49.052" lon="4.4852">
        <ele>137.13</ele>
        <time>2021-08-09T16:23:51Z</time>
      </trkpt>
      <trkpt lat="49.05199" lon="4.48512">
        <ele>137.13</ele>
        <time>2021-08-09T16:23:52Z</time>
      </trkpt>
      <trkpt lat="49.05197" lon="4.48504">
        <ele>137.13</ele>
        <time>2021-08-09T16:23:53Z</time>
      </trkpt>
      <trkpt lat="49.05171" lon="4.48447">
        <ele>137.13</ele>
        <time>2021-08-09T16:24:01Z</time>
      </trkpt>
      <trkpt lat="49.05135" lon="4.48381">
        <ele>136.16</ele>
        <time>2021-08-09T16:24:10Z</time>
      </trkpt>
      <trkpt lat="49.05091" lon="4.48304">
        <ele>135.68</ele>
        <time>2021-08-09T16:24:21Z</time>
      </trkpt>
      <trkpt lat="49.05085" lon="4.48289">
        <ele>135.2</ele>
        <time>2021-08-09T16:24:23Z</time>
      </trkpt>
      <trkpt lat="49.0508" lon="4.48281">
        <ele>135.2</ele>
        <time>2021-08-09T16:24:24Z</time>
      </trkpt>
      <trkpt lat="49.05075" lon="4.48277">
        <ele>134.72</ele>
        <time>2021-08-09T16:24:25Z</time>
      </trkpt>
      <trkpt lat="49.05067" lon="4.48274">
        <ele>134.72</ele>
        <time>2021-08-09T16:24:26Z</time>
      </trkpt>
      <trkpt lat="49.05062" lon="4.48274">
        <ele>133.76</ele>
        <time>2021-08-09T16:24:27Z</time>
      </trkpt>
      <trkpt lat="49.05056" lon="4.48275">
        <ele>133.28</ele>
        <time>2021-08-09T16:24:28Z</time>
      </trkpt>
      <trkpt lat="49.05049" lon="4.48276">
        <ele>133.28</ele>
        <time>2021-08-09T16:24:29Z</time>
      </trkpt>
      <trkpt lat="49.04988" lon="4.48286">
        <ele>132.32</ele>
        <time>2021-08-09T16:24:39Z</time>
      </trkpt>
      <trkpt lat="49.04977" lon="4.4829">
        <ele>132.32</ele>
        <time>2021-08-09T16:24:41Z</time>
      </trkpt>
      <trkpt lat="49.04972" lon="4.48295">
        <ele>132.32</ele>
        <time>2021-08-09T16:24:42Z</time>
      </trkpt>
      <trkpt lat="49.04969" lon="4.48302">
        <ele>132.32</ele>
        <time>2021-08-09T16:24:43Z</time>
      </trkpt>
      <trkpt lat="49.04968" lon="4.48309">
        <ele>133.76</ele>
        <time>2021-08-09T16:24:44Z</time>
      </trkpt>
      <trkpt lat="49.04967" lon="4.48315">
        <ele>133.76</ele>
        <time>2021-08-09T16:24:45Z</time>
      </trkpt>
      <trkpt lat="49.04967" lon="4.48322">
        <ele>134.24</ele>
        <time>2021-08-09T16:24:46Z</time>
      </trkpt>
      <trkpt lat="49.04966" lon="4.48328">
        <ele>134.24</ele>
        <time>2021-08-09T16:24:47Z</time>
      </trkpt>
      <trkpt lat="49.04965" lon="4.48334">
        <ele>134.24</ele>
        <time>2021-08-09T16:24:48Z</time>
      </trkpt>
      <trkpt lat="49.04962" lon="4.4834">
        <ele>134.24</ele>
        <time>2021-08-09T16:24:49Z</time>
      </trkpt>
      <trkpt lat="49.04959" lon="4.48346">
        <ele>134.24</ele>
        <time>2021-08-09T16:24:50Z</time>
      </trkpt>
      <trkpt lat="49.04955" lon="4.4835">
        <ele>132.8</ele>
        <time>2021-08-09T16:24:51Z</time>
      </trkpt>
      <trkpt lat="49.0495" lon="4.48354">
        <ele>132.32</ele>
        <time>2021-08-09T16:24:52Z</time>
      </trkpt>
      <trkpt lat="49.04944" lon="4.48358">
        <ele>132.32</ele>
        <time>2021-08-09T16:24:53Z</time>
      </trkpt>
      <trkpt lat="49.04928" lon="4.48371">
        <ele>130.88</ele>
        <time>2021-08-09T16:24:56Z</time>
      </trkpt>
      <trkpt lat="49.04923" lon="4.48377">
        <ele>129.92</ele>
        <time>2021-08-09T16:24:57Z</time>
      </trkpt>
      <trkpt lat="49.04919" lon="4.48387">
        <ele>129.92</ele>
        <time>2021-08-09T16:24:58Z</time>
      </trkpt>
      <trkpt lat="49.04916" lon="4.48398">
        <ele>129.92</ele>
        <time>2021-08-09T16:24:59Z</time>
      </trkpt>
      <trkpt lat="49.04915" lon="4.48407">
        <ele>129.92</ele>
        <time>2021-08-09T16:25:00Z</time>
      </trkpt>
      <trkpt lat="49.04914" lon="4.48417">
        <ele>129.43</ele>
        <time>2021-08-09T16:25:01Z</time>
      </trkpt>
      <trkpt lat="49.04914" lon="4.48426">
        <ele>129.43</ele>
        <time>2021-08-09T16:25:02Z</time>
      </trkpt>
      <trkpt lat="49.04914" lon="4.48435">
        <ele>130.88</ele>
        <time>2021-08-09T16:25:03Z</time>
      </trkpt>
      <trkpt lat="49.04915" lon="4.48451">
        <ele>131.36</ele>
        <time>2021-08-09T16:25:05Z</time>
      </trkpt>
      <trkpt lat="49.04914" lon="4.48458">
        <ele>132.32</ele>
        <time>2021-08-09T16:25:06Z</time>
      </trkpt>
      <trkpt lat="49.04912" lon="4.48463">
        <ele>132.32</ele>
        <time>2021-08-09T16:25:07Z</time>
      </trkpt>
      <trkpt lat="49.04907" lon="4.48467">
        <ele>132.32</ele>
        <time>2021-08-09T16:25:08Z</time>
      </trkpt>
      <trkpt lat="49.04901" lon="4.48469">
        <ele>132.32</ele>
        <time>2021-08-09T16:25:09Z</time>
      </trkpt>
      <trkpt lat="49.04896" lon="4.48471">
        <ele>131.36</ele>
        <time>2021-08-09T16:25:10Z</time>
      </trkpt>
      <trkpt lat="49.04847" lon="4.48488">
        <ele>129.43</ele>
        <time>2021-08-09T16:25:18Z</time>
      </trkpt>
      <trkpt lat="49.04823" lon="4.48498">
        <ele>129.43</ele>
        <time>2021-08-09T16:25:22Z</time>
      </trkpt>
      <trkpt lat="49.04818" lon="4.48503">
        <ele>129.43</ele>
        <time>2021-08-09T16:25:23Z</time>
      </trkpt>
      <trkpt lat="49.04815" lon="4.48511">
        <ele>129.43</ele>
        <time>2021-08-09T16:25:24Z</time>
      </trkpt>
      <trkpt lat="49.04813" lon="4.48518">
        <ele>129.43</ele>
        <time>2021-08-09T16:25:25Z</time>
      </trkpt>
      <trkpt lat="49.04811" lon="4.48526">
        <ele>129.43</ele>
        <time>2021-08-09T16:25:26Z</time>
      </trkpt>
      <trkpt lat="49.0481" lon="4.48534">
        <ele>129.43</ele>
        <time>2021-08-09T16:25:27Z</time>
      </trkpt>
      <trkpt lat="49.04809" lon="4.48541">
        <ele>129.43</ele>
        <time>2021-08-09T16:25:28Z</time>
      </trkpt>
      <trkpt lat="49.04806" lon="4.48547">
        <ele>129.43</ele>
        <time>2021-08-09T16:25:29Z</time>
      </trkpt>
      <trkpt lat="49.04803" lon="4.48554">
        <ele>129.43</ele>
        <time>2021-08-09T16:25:30Z</time>
      </trkpt>
      <trkpt lat="49.048" lon="4.48558">
        <ele>129.43</ele>
        <time>2021-08-09T16:25:31Z</time>
      </trkpt>
      <trkpt lat="49.04795" lon="4.48562">
        <ele>129.43</ele>
        <time>2021-08-09T16:25:32Z</time>
      </trkpt>
      <trkpt lat="49.0479" lon="4.48564">
        <ele>129.43</ele>
        <time>2021-08-09T16:25:33Z</time>
      </trkpt>
      <trkpt lat="49.04785" lon="4.48566">
        <ele>129.43</ele>
        <time>2021-08-09T16:25:34Z</time>
      </trkpt>
      <trkpt lat="49.0478" lon="4.4857">
        <ele>128.95</ele>
        <time>2021-08-09T16:25:35Z</time>
      </trkpt>
      <trkpt lat="49.04775" lon="4.48575">
        <ele>128.95</ele>
        <time>2021-08-09T16:25:36Z</time>
      </trkpt>
      <trkpt lat="49.04772" lon="4.48582">
        <ele>128.95</ele>
        <time>2021-08-09T16:25:37Z</time>
      </trkpt>
      <trkpt lat="49.0477" lon="4.4859">
        <ele>128.95</ele>
        <time>2021-08-09T16:25:38Z</time>
      </trkpt>
      <trkpt lat="49.0477" lon="4.48596">
        <ele>130.4</ele>
        <time>2021-08-09T16:25:39Z</time>
      </trkpt>
      <trkpt lat="49.0477" lon="4.48603">
        <ele>130.4</ele>
        <time>2021-08-09T16:25:40Z</time>
      </trkpt>
      <trkpt lat="49.04766" lon="4.48685">
        <ele>130.88</ele>
        <time>2021-08-09T16:25:52Z</time>
      </trkpt>
      <trkpt lat="49.04763" lon="4.48761">
        <ele>131.36</ele>
        <time>2021-08-09T16:26:03Z</time>
      </trkpt>
      <trkpt lat="49.04755" lon="4.48817">
        <ele>131.36</ele>
        <time>2021-08-09T16:26:11Z</time>
      </trkpt>
      <trkpt lat="49.04745" lon="4.48874">
        <ele>131.36</ele>
        <time>2021-08-09T16:26:19Z</time>
      </trkpt>
      <trkpt lat="49.04741" lon="4.48894">
        <ele>131.36</ele>
        <time>2021-08-09T16:26:22Z</time>
      </trkpt>
      <trkpt lat="49.04741" lon="4.48901">
        <ele>131.36</ele>
        <time>2021-08-09T16:26:23Z</time>
      </trkpt>
      <trkpt lat="49.04742" lon="4.48908">
        <ele>131.36</ele>
        <time>2021-08-09T16:26:24Z</time>
      </trkpt>
      <trkpt lat="49.04742" lon="4.48914">
        <ele>131.36</ele>
        <time>2021-08-09T16:26:25Z</time>
      </trkpt>
      <trkpt lat="49.04743" lon="4.48921">
        <ele>131.36</ele>
        <time>2021-08-09T16:26:26Z</time>
      </trkpt>
      <trkpt lat="49.04746" lon="4.48968">
        <ele>129.92</ele>
        <time>2021-08-09T16:26:32Z</time>
      </trkpt>
      <trkpt lat="49.04759" lon="4.49022">
        <ele>129.92</ele>
        <time>2021-08-09T16:26:39Z</time>
      </trkpt>
      <trkpt lat="49.04775" lon="4.49066">
        <ele>130.88</ele>
        <time>2021-08-09T16:26:46Z</time>
      </trkpt>
      <trkpt lat="49.04778" lon="4.49071">
        <ele>130.88</ele>
        <time>2021-08-09T16:26:47Z</time>
      </trkpt>
      <trkpt lat="49.0481" lon="4.49116">
        <ele>130.88</ele>
        <time>2021-08-09T16:26:57Z</time>
      </trkpt>
      <trkpt lat="49.04828" lon="4.49133">
        <ele>131.36</ele>
        <time>2021-08-09T16:27:04Z</time>
      </trkpt>
      <trkpt lat="49.04838" lon="4.49141">
        <ele>131.36</ele>
        <time>2021-08-09T16:27:10Z</time>
      </trkpt>
      <trkpt lat="49.04838" lon="4.4914">
        <ele>131.36</ele>
        <time>2021-08-09T16:27:19Z</time>
      </trkpt>
      <trkpt lat="49.04839" lon="4.49141">
        <ele>132.32</ele>
        <time>2021-08-09T16:27:33Z</time>
      </trkpt>
      <trkpt lat="49.04838" lon="4.49139">
        <ele>132.32</ele>
        <time>2021-08-09T16:27:47Z</time>
      </trkpt>
      <trkpt lat="49.04838" lon="4.49139">
        <ele>132.32</ele>
        <time>2021-08-09T16:27:55Z</time>
      </trkpt>
      <trkpt lat="49.04837" lon="4.4914">
        <ele>132.32</ele>
        <time>2021-08-09T16:28:13Z</time>
      </trkpt>
      <trkpt lat="49.04838" lon="4.4914">
        <ele>132.32</ele>
        <time>2021-08-09T16:28:23Z</time>
      </trkpt>
      <trkpt lat="49.04837" lon="4.49141">
        <ele>132.32</ele>
        <time>2021-08-09T16:28:39Z</time>
      </trkpt>
      <trkpt lat="49.04837" lon="4.49141">
        <ele>132.32</ele>
        <time>2021-08-09T16:28:50Z</time>
      </trkpt>
      <trkpt lat="49.04838" lon="4.4914">
        <ele>132.32</ele>
        <time>2021-08-09T16:29:01Z</time>
      </trkpt>
      <trkpt lat="49.04838" lon="4.4914">
        <ele>132.32</ele>
        <time>2021-08-09T16:29:13Z</time>
      </trkpt>
      <trkpt lat="49.04839" lon="4.49141">
        <ele>130.88</ele>
        <time>2021-08-09T16:29:27Z</time>
      </trkpt>
      <trkpt lat="49.0484" lon="4.49141">
        <ele>130.88</ele>
        <time>2021-08-09T16:29:28Z</time>
      </trkpt>
      <trkpt lat="49.04841" lon="4.49142">
        <ele>130.88</ele>
        <time>2021-08-09T16:29:29Z</time>
      </trkpt>
      <trkpt lat="49.04842" lon="4.49142">
        <ele>130.88</ele>
        <time>2021-08-09T16:29:30Z</time>
      </trkpt>
      <trkpt lat="49.04844" lon="4.49143">
        <ele>130.88</ele>
        <time>2021-08-09T16:29:31Z</time>
      </trkpt>
      <trkpt lat="49.04846" lon="4.49144">
        <ele>130.88</ele>
        <time>2021-08-09T16:29:32Z</time>
      </trkpt>
      <trkpt lat="49.04848" lon="4.49145">
        <ele>130.88</ele>
        <time>2021-08-09T16:29:33Z</time>
      </trkpt>
      <trkpt lat="49.04851" lon="4.49146">
        <ele>130.88</ele>
        <time>2021-08-09T16:29:34Z</time>
      </trkpt>
      <trkpt lat="49.04854" lon="4.49148">
        <ele>130.88</ele>
        <time>2021-08-09T16:29:35Z</time>
      </trkpt>
      <trkpt lat="49.04857" lon="4.4915">
        <ele>130.88</ele>
        <time>2021-08-09T16:29:36Z</time>
      </trkpt>
      <trkpt lat="49.0486" lon="4.49153">
        <ele>130.88</ele>
        <time>2021-08-09T16:29:37Z</time>
      </trkpt>
      <trkpt lat="49.04863" lon="4.49157">
        <ele>130.88</ele>
        <time>2021-08-09T16:29:38Z</time>
      </trkpt>
      <trkpt lat="49.04865" lon="4.49162">
        <ele>130.88</ele>
        <time>2021-08-09T16:29:39Z</time>
      </trkpt>
      <trkpt lat="49.04867" lon="4.49168">
        <ele>130.88</ele>
        <time>2021-08-09T16:29:40Z</time>
      </trkpt>
      <trkpt lat="49.04867" lon="4.49172">
        <ele>130.88</ele>
        <time>2021-08-09T16:29:41Z</time>
      </trkpt>
      <trkpt lat="49.04868" lon="4.4918">
        <ele>130.88</ele>
        <time>2021-08-09T16:29:42Z</time>
      </trkpt>
      <trkpt lat="49.04868" lon="4.49185">
        <ele>130.4</ele>
        <time>2021-08-09T16:29:43Z</time>
      </trkpt>
      <trkpt lat="49.04869" lon="4.49199">
        <ele>130.4</ele>
        <time>2021-08-09T16:29:45Z</time>
      </trkpt>
      <trkpt lat="49.04875" lon="4.49234">
        <ele>129.92</ele>
        <time>2021-08-09T16:29:50Z</time>
      </trkpt>
      <trkpt lat="49.04875" lon="4.49241">
        <ele>129.92</ele>
        <time>2021-08-09T16:29:51Z</time>
      </trkpt>
      <trkpt lat="49.04874" lon="4.49282">
        <ele>129.92</ele>
        <time>2021-08-09T16:29:59Z</time>
      </trkpt>
      <trkpt lat="49.04873" lon="4.49286">
        <ele>129.92</ele>
        <time>2021-08-09T16:30:00Z</time>
      </trkpt>
      <trkpt lat="49.04872" lon="4.49289">
        <ele>129.92</ele>
        <time>2021-08-09T16:30:01Z</time>
      </trkpt>
      <trkpt lat="49.0487" lon="4.49291">
        <ele>129.92</ele>
        <time>2021-08-09T16:30:02Z</time>
      </trkpt>
      <trkpt lat="49.04865" lon="4.49294">
        <ele>129.92</ele>
        <time>2021-08-09T16:30:04Z</time>
      </trkpt>
      <trkpt lat="49.04862" lon="4.49295">
        <ele>129.92</ele>
        <time>2021-08-09T16:30:05Z</time>
      </trkpt>
      <trkpt lat="49.04861" lon="4.49294">
        <ele>129.92</ele>
        <time>2021-08-09T16:30:06Z</time>
      </trkpt>
      <trkpt lat="49.04855" lon="4.49282">
        <ele>129.43</ele>
        <time>2021-08-09T16:30:10Z</time>
      </trkpt>
      <trkpt lat="49.04853" lon="4.49279">
        <ele>129.43</ele>
        <time>2021-08-09T16:30:11Z</time>
      </trkpt>
      <trkpt lat="49.04851" lon="4.49275">
        <ele>129.43</ele>
        <time>2021-08-09T16:30:12Z</time>
      </trkpt>
      <trkpt lat="49.0485" lon="4.49271">
        <ele>129.43</ele>
        <time>2021-08-09T16:30:13Z</time>
      </trkpt>
      <trkpt lat="49.04849" lon="4.49266">
        <ele>129.43</ele>
        <time>2021-08-09T16:30:14Z</time>
      </trkpt>
      <trkpt lat="49.04848" lon="4.4926">
        <ele>129.43</ele>
        <time>2021-08-09T16:30:15Z</time>
      </trkpt>
      <trkpt lat="49.04847" lon="4.49256">
        <ele>128.95</ele>
        <time>2021-08-09T16:30:16Z</time>
      </trkpt>
      <trkpt lat="49.04845" lon="4.49254">
        <ele>128.95</ele>
        <time>2021-08-09T16:30:17Z</time>
      </trkpt>
      <trkpt lat="49.04842" lon="4.49254">
        <ele>128.95</ele>
        <time>2021-08-09T16:30:18Z</time>
      </trkpt>
      <trkpt lat="49.04838" lon="4.49254">
        <ele>127.99</ele>
        <time>2021-08-09T16:30:19Z</time>
      </trkpt>
      <trkpt lat="49.04826" lon="4.49256">
        <ele>127.51</ele>
        <time>2021-08-09T16:30:22Z</time>
      </trkpt>
      <trkpt lat="49.04807" lon="4.49258">
        <ele>127.51</ele>
        <time>2021-08-09T16:30:27Z</time>
      </trkpt>
      <trkpt lat="49.04806" lon="4.49262">
        <ele>127.51</ele>
        <time>2021-08-09T16:30:33Z</time>
      </trkpt>
      <trkpt lat="49.04807" lon="4.49262">
        <ele>127.51</ele>
        <time>2021-08-09T16:30:49Z</time>
      </trkpt>
      <trkpt lat="49.04797" lon="4.49265">
        <ele>127.99</ele>
        <time>2021-08-09T16:30:55Z</time>
      </trkpt>
      <trkpt lat="49.04777" lon="4.49268">
        <ele>129.92</ele>
        <time>2021-08-09T16:31:02Z</time>
      </trkpt>
      <trkpt lat="49.04752" lon="4.49277">
        <ele>130.4</ele>
        <time>2021-08-09T16:31:09Z</time>
      </trkpt>
      <trkpt lat="49.04723" lon="4.4929">
        <ele>131.36</ele>
        <time>2021-08-09T16:31:18Z</time>
      </trkpt>
      <trkpt lat="49.04695" lon="4.49305">
        <ele>131.84</ele>
        <time>2021-08-09T16:31:28Z</time>
      </trkpt>
      <trkpt lat="49.04664" lon="4.49321">
        <ele>132.32</ele>
        <time>2021-08-09T16:31:38Z</time>
      </trkpt>
      <trkpt lat="49.04645" lon="4.49336">
        <ele>132.32</ele>
        <time>2021-08-09T16:31:45Z</time>
      </trkpt>
      <trkpt lat="49.04644" lon="4.49341">
        <ele>132.32</ele>
        <time>2021-08-09T16:31:46Z</time>
      </trkpt>
      <trkpt lat="49.04644" lon="4.49345">
        <ele>132.32</ele>
        <time>2021-08-09T16:31:47Z</time>
      </trkpt>
      <trkpt lat="49.04649" lon="4.49373">
        <ele>132.32</ele>
        <time>2021-08-09T16:31:52Z</time>
      </trkpt>
      <trkpt lat="49.0465" lon="4.49379">
        <ele>132.32</ele>
        <time>2021-08-09T16:31:53Z</time>
      </trkpt>
      <trkpt lat="49.04651" lon="4.49385">
        <ele>132.32</ele>
        <time>2021-08-09T16:31:54Z</time>
      </trkpt>
      <trkpt lat="49.04653" lon="4.49391">
        <ele>132.32</ele>
        <time>2021-08-09T16:31:55Z</time>
      </trkpt>
      <trkpt lat="49.04654" lon="4.49398">
        <ele>132.32</ele>
        <time>2021-08-09T16:31:56Z</time>
      </trkpt>
      <trkpt lat="49.04657" lon="4.49417">
        <ele>132.32</ele>
        <time>2021-08-09T16:31:59Z</time>
      </trkpt>
      <trkpt lat="49.04663" lon="4.49446">
        <ele>132.32</ele>
        <time>2021-08-09T16:32:03Z</time>
      </trkpt>
      <trkpt lat="49.04665" lon="4.49453">
        <ele>132.32</ele>
        <time>2021-08-09T16:32:04Z</time>
      </trkpt>
      <trkpt lat="49.04672" lon="4.49488">
        <ele>132.32</ele>
        <time>2021-08-09T16:32:09Z</time>
      </trkpt>
      <trkpt lat="49.04673" lon="4.49496">
        <ele>132.32</ele>
        <time>2021-08-09T16:32:10Z</time>
      </trkpt>
      <trkpt lat="49.04684" lon="4.49558">
        <ele>132.32</ele>
        <time>2021-08-09T16:32:18Z</time>
      </trkpt>
      <trkpt lat="49.04695" lon="4.49638">
        <ele>132.32</ele>
        <time>2021-08-09T16:32:28Z</time>
      </trkpt>
      <trkpt lat="49.04698" lon="4.49663">
        <ele>132.32</ele>
        <time>2021-08-09T16:32:31Z</time>
      </trkpt>
      <trkpt lat="49.04711" lon="4.49766">
        <ele>132.32</ele>
        <time>2021-08-09T16:32:43Z</time>
      </trkpt>
      <trkpt lat="49.0472" lon="4.49853">
        <ele>132.32</ele>
        <time>2021-08-09T16:32:53Z</time>
      </trkpt>
      <trkpt lat="49.0473" lon="4.49901">
        <ele>132.32</ele>
        <time>2021-08-09T16:32:59Z</time>
      </trkpt>
      <trkpt lat="49.04743" lon="4.4993">
        <ele>132.32</ele>
        <time>2021-08-09T16:33:03Z</time>
      </trkpt>
      <trkpt lat="49.04778" lon="4.49997">
        <ele>132.32</ele>
        <time>2021-08-09T16:33:13Z</time>
      </trkpt>
      <trkpt lat="49.04785" lon="4.50012">
        <ele>132.32</ele>
        <time>2021-08-09T16:33:15Z</time>
      </trkpt>
      <trkpt lat="49.04788" lon="4.5002">
        <ele>132.32</ele>
        <time>2021-08-09T16:33:16Z</time>
      </trkpt>
      <trkpt lat="49.04805" lon="4.50081">
        <ele>132.32</ele>
        <time>2021-08-09T16:33:24Z</time>
      </trkpt>
      <trkpt lat="49.0481" lon="4.50096">
        <ele>132.32</ele>
        <time>2021-08-09T16:33:26Z</time>
      </trkpt>
      <trkpt lat="49.04812" lon="4.50103">
        <ele>132.32</ele>
        <time>2021-08-09T16:33:27Z</time>
      </trkpt>
      <trkpt lat="49.04824" lon="4.50127">
        <ele>132.32</ele>
        <time>2021-08-09T16:33:31Z</time>
      </trkpt>
      <trkpt lat="49.04826" lon="4.50134">
        <ele>132.32</ele>
        <time>2021-08-09T16:33:32Z</time>
      </trkpt>
      <trkpt lat="49.04826" lon="4.50142">
        <ele>132.32</ele>
        <time>2021-08-09T16:33:33Z</time>
      </trkpt>
      <trkpt lat="49.04825" lon="4.5015">
        <ele>132.32</ele>
        <time>2021-08-09T16:33:34Z</time>
      </trkpt>
      <trkpt lat="49.04824" lon="4.50156">
        <ele>132.32</ele>
        <time>2021-08-09T16:33:35Z</time>
      </trkpt>
      <trkpt lat="49.04821" lon="4.50163">
        <ele>132.32</ele>
        <time>2021-08-09T16:33:36Z</time>
      </trkpt>
      <trkpt lat="49.04819" lon="4.5017">
        <ele>132.32</ele>
        <time>2021-08-09T16:33:37Z</time>
      </trkpt>
      <trkpt lat="49.04801" lon="4.50207">
        <ele>132.32</ele>
        <time>2021-08-09T16:33:43Z</time>
      </trkpt>
      <trkpt lat="49.04768" lon="4.50245">
        <ele>133.76</ele>
        <time>2021-08-09T16:33:52Z</time>
      </trkpt>
      <trkpt lat="49.04742" lon="4.50286">
        <ele>135.68</ele>
        <time>2021-08-09T16:34:02Z</time>
      </trkpt>
      <trkpt lat="49.04717" lon="4.50334">
        <ele>136.64</ele>
        <time>2021-08-09T16:34:14Z</time>
      </trkpt>
      <trkpt lat="49.04695" lon="4.50375">
        <ele>137.61</ele>
        <time>2021-08-09T16:34:24Z</time>
      </trkpt>
      <trkpt lat="49.0468" lon="4.50394">
        <ele>137.61</ele>
        <time>2021-08-09T16:34:30Z</time>
      </trkpt>
      <trkpt lat="49.04677" lon="4.50392">
        <ele>137.61</ele>
        <time>2021-08-09T16:34:31Z</time>
      </trkpt>
      <trkpt lat="49.04675" lon="4.50389">
        <ele>138.09</ele>
        <time>2021-08-09T16:34:32Z</time>
      </trkpt>
      <trkpt lat="49.04674" lon="4.50384">
        <ele>138.09</ele>
        <time>2021-08-09T16:34:33Z</time>
      </trkpt>
      <trkpt lat="49.04674" lon="4.5038">
        <ele>138.09</ele>
        <time>2021-08-09T16:34:34Z</time>
      </trkpt>
      <trkpt lat="49.04673" lon="4.50375">
        <ele>138.09</ele>
        <time>2021-08-09T16:34:35Z</time>
      </trkpt>
      <trkpt lat="49.04673" lon="4.5037">
        <ele>138.09</ele>
        <time>2021-08-09T16:34:36Z</time>
      </trkpt>
      <trkpt lat="49.04672" lon="4.50346">
        <ele>138.57</ele>
        <time>2021-08-09T16:34:41Z</time>
      </trkpt>
      <trkpt lat="49.04671" lon="4.50345">
        <ele>138.57</ele>
        <time>2021-08-09T16:34:42Z</time>
      </trkpt>
      <trkpt lat="49.0467" lon="4.50347">
        <ele>138.57</ele>
        <time>2021-08-09T16:34:43Z</time>
      </trkpt>
      <trkpt lat="49.04671" lon="4.50349">
        <ele>138.57</ele>
        <time>2021-08-09T16:34:44Z</time>
      </trkpt>
      <trkpt lat="49.04671" lon="4.50353">
        <ele>138.57</ele>
        <time>2021-08-09T16:34:45Z</time>
      </trkpt>
      <trkpt lat="49.04674" lon="4.50373">
        <ele>138.57</ele>
        <time>2021-08-09T16:34:50Z</time>
      </trkpt>
      <trkpt lat="49.0467" lon="4.5038">
        <ele>138.57</ele>
        <time>2021-08-09T16:34:52Z</time>
      </trkpt>
      <trkpt lat="49.04667" lon="4.50381">
        <ele>137.13</ele>
        <time>2021-08-09T16:34:53Z</time>
      </trkpt>
      <trkpt lat="49.04664" lon="4.50382">
        <ele>137.13</ele>
        <time>2021-08-09T16:34:54Z</time>
      </trkpt>
      <trkpt lat="49.04661" lon="4.50383">
        <ele>137.13</ele>
        <time>2021-08-09T16:34:55Z</time>
      </trkpt>
      <trkpt lat="49.04658" lon="4.50385">
        <ele>137.13</ele>
        <time>2021-08-09T16:34:56Z</time>
      </trkpt>
      <trkpt lat="49.04637" lon="4.50384">
        <ele>137.13</ele>
        <time>2021-08-09T16:35:02Z</time>
      </trkpt>
      <trkpt lat="49.04617" lon="4.50377">
        <ele>137.13</ele>
        <time>2021-08-09T16:35:08Z</time>
      </trkpt>
      <trkpt lat="49.04604" lon="4.50371">
        <ele>137.13</ele>
        <time>2021-08-09T16:35:12Z</time>
      </trkpt>
      <trkpt lat="49.0458" lon="4.50365">
        <ele>138.57</ele>
        <time>2021-08-09T16:35:19Z</time>
      </trkpt>
      <trkpt lat="49.04558" lon="4.50357">
        <ele>138.57</ele>
        <time>2021-08-09T16:35:26Z</time>
      </trkpt>
      <trkpt lat="49.0452" lon="4.50344">
        <ele>139.05</ele>
        <time>2021-08-09T16:35:37Z</time>
      </trkpt>
      <trkpt lat="49.04489" lon="4.50333">
        <ele>139.53</ele>
        <time>2021-08-09T16:35:46Z</time>
      </trkpt>
      <trkpt lat="49.04451" lon="4.5032">
        <ele>140.49</ele>
        <time>2021-08-09T16:35:57Z</time>
      </trkpt>
      <trkpt lat="49.04419" lon="4.50309">
        <ele>141.45</ele>
        <time>2021-08-09T16:36:06Z</time>
      </trkpt>
      <trkpt lat="49.04376" lon="4.50293">
        <ele>141.93</ele>
        <time>2021-08-09T16:36:18Z</time>
      </trkpt>
      <trkpt lat="49.04332" lon="4.50278">
        <ele>142.41</ele>
        <time>2021-08-09T16:36:30Z</time>
      </trkpt>
      <trkpt lat="49.04296" lon="4.50265">
        <ele>142.89</ele>
        <time>2021-08-09T16:36:40Z</time>
      </trkpt>
      <trkpt lat="49.04262" lon="4.50254">
        <ele>143.37</ele>
        <time>2021-08-09T16:36:49Z</time>
      </trkpt>
      <trkpt lat="49.04228" lon="4.50242">
        <ele>143.37</ele>
        <time>2021-08-09T16:36:58Z</time>
      </trkpt>
      <trkpt lat="49.04177" lon="4.50224">
        <ele>143.85</ele>
        <time>2021-08-09T16:37:12Z</time>
      </trkpt>
      <trkpt lat="49.04142" lon="4.50212">
        <ele>145.3</ele>
        <time>2021-08-09T16:37:22Z</time>
      </trkpt>
      <trkpt lat="49.04109" lon="4.502">
        <ele>145.78</ele>
        <time>2021-08-09T16:37:32Z</time>
      </trkpt>
      <trkpt lat="49.0408" lon="4.50191">
        <ele>146.26</ele>
        <time>2021-08-09T16:37:41Z</time>
      </trkpt>
      <trkpt lat="49.04049" lon="4.5018">
        <ele>147.22</ele>
        <time>2021-08-09T16:37:51Z</time>
      </trkpt>
      <trkpt lat="49.0402" lon="4.50169">
        <ele>147.22</ele>
        <time>2021-08-09T16:38:00Z</time>
      </trkpt>
      <trkpt lat="49.03978" lon="4.50154">
        <ele>148.18</ele>
        <time>2021-08-09T16:38:11Z</time>
      </trkpt>
      <trkpt lat="49.0395" lon="4.50145">
        <ele>148.18</ele>
        <time>2021-08-09T16:38:18Z</time>
      </trkpt>
      <trkpt lat="49.03942" lon="4.50142">
        <ele>148.18</ele>
        <time>2021-08-09T16:38:20Z</time>
      </trkpt>
      <trkpt lat="49.03905" lon="4.50129">
        <ele>148.18</ele>
        <time>2021-08-09T16:38:29Z</time>
      </trkpt>
      <trkpt lat="49.03881" lon="4.5012">
        <ele>148.18</ele>
        <time>2021-08-09T16:38:35Z</time>
      </trkpt>
      <trkpt lat="49.03877" lon="4.50119">
        <ele>148.18</ele>
        <time>2021-08-09T16:38:36Z</time>
      </trkpt>
      <trkpt lat="49.03844" lon="4.50107">
        <ele>148.18</ele>
        <time>2021-08-09T16:38:44Z</time>
      </trkpt>
      <trkpt lat="49.03798" lon="4.50091">
        <ele>148.18</ele>
        <time>2021-08-09T16:38:55Z</time>
      </trkpt>
      <trkpt lat="49.03794" lon="4.5009">
        <ele>148.18</ele>
        <time>2021-08-09T16:38:56Z</time>
      </trkpt>
      <trkpt lat="49.03772" lon="4.50082">
        <ele>146.74</ele>
        <time>2021-08-09T16:39:01Z</time>
      </trkpt>
      <trkpt lat="49.03734" lon="4.50069">
        <ele>146.74</ele>
        <time>2021-08-09T16:39:10Z</time>
      </trkpt>
      <trkpt lat="49.03705" lon="4.50059">
        <ele>148.18</ele>
        <time>2021-08-09T16:39:17Z</time>
      </trkpt>
      <trkpt lat="49.03684" lon="4.50053">
        <ele>148.18</ele>
        <time>2021-08-09T16:39:22Z</time>
      </trkpt>
      <trkpt lat="49.03679" lon="4.50051">
        <ele>148.18</ele>
        <time>2021-08-09T16:39:23Z</time>
      </trkpt>
      <trkpt lat="49.03658" lon="4.50043">
        <ele>148.66</ele>
        <time>2021-08-09T16:39:28Z</time>
      </trkpt>
      <trkpt lat="49.03613" lon="4.50026">
        <ele>149.14</ele>
        <time>2021-08-09T16:39:39Z</time>
      </trkpt>
      <trkpt lat="49.03572" lon="4.50013">
        <ele>149.14</ele>
        <time>2021-08-09T16:39:49Z</time>
      </trkpt>
      <trkpt lat="49.03551" lon="4.50004">
        <ele>150.1</ele>
        <time>2021-08-09T16:39:55Z</time>
      </trkpt>
      <trkpt lat="49.03511" lon="4.49991">
        <ele>150.1</ele>
        <time>2021-08-09T16:40:06Z</time>
      </trkpt>
      <trkpt lat="49.0346" lon="4.49972">
        <ele>150.58</ele>
        <time>2021-08-09T16:40:20Z</time>
      </trkpt>
      <trkpt lat="49.03419" lon="4.4996">
        <ele>150.58</ele>
        <time>2021-08-09T16:40:31Z</time>
      </trkpt>
      <trkpt lat="49.03382" lon="4.49946">
        <ele>150.58</ele>
        <time>2021-08-09T16:40:41Z</time>
      </trkpt>
      <trkpt lat="49.03346" lon="4.49934">
        <ele>151.06</ele>
        <time>2021-08-09T16:40:51Z</time>
      </trkpt>
      <trkpt lat="49.0331" lon="4.49921">
        <ele>151.06</ele>
        <time>2021-08-09T16:41:00Z</time>
      </trkpt>
      <trkpt lat="49.03286" lon="4.49914">
        <ele>152.03</ele>
        <time>2021-08-09T16:41:06Z</time>
      </trkpt>
      <trkpt lat="49.03241" lon="4.49898">
        <ele>152.03</ele>
        <time>2021-08-09T16:41:17Z</time>
      </trkpt>
      <trkpt lat="49.032" lon="4.49882">
        <ele>152.03</ele>
        <time>2021-08-09T16:41:27Z</time>
      </trkpt>
      <trkpt lat="49.03187" lon="4.49878">
        <ele>152.03</ele>
        <time>2021-08-09T16:41:30Z</time>
      </trkpt>
      <trkpt lat="49.03182" lon="4.49878">
        <ele>152.03</ele>
        <time>2021-08-09T16:41:31Z</time>
      </trkpt>
      <trkpt lat="49.03178" lon="4.49877">
        <ele>152.03</ele>
        <time>2021-08-09T16:41:32Z</time>
      </trkpt>
      <trkpt lat="49.03174" lon="4.49876">
        <ele>152.03</ele>
        <time>2021-08-09T16:41:33Z</time>
      </trkpt>
      <trkpt lat="49.0317" lon="4.49874">
        <ele>152.03</ele>
        <time>2021-08-09T16:41:34Z</time>
      </trkpt>
      <trkpt lat="49.03135" lon="4.4986">
        <ele>152.03</ele>
        <time>2021-08-09T16:41:43Z</time>
      </trkpt>
      <trkpt lat="49.03089" lon="4.49843">
        <ele>152.03</ele>
        <time>2021-08-09T16:41:55Z</time>
      </trkpt>
      <trkpt lat="49.03042" lon="4.49827">
        <ele>152.03</ele>
        <time>2021-08-09T16:42:06Z</time>
      </trkpt>
      <trkpt lat="49.03009" lon="4.49815">
        <ele>152.03</ele>
        <time>2021-08-09T16:42:14Z</time>
      </trkpt>
      <trkpt lat="49.03004" lon="4.49814">
        <ele>152.03</ele>
        <time>2021-08-09T16:42:15Z</time>
      </trkpt>
      <trkpt lat="49.02964" lon="4.49799">
        <ele>152.03</ele>
        <time>2021-08-09T16:42:24Z</time>
      </trkpt>
      <trkpt lat="49.02956" lon="4.49796">
        <ele>150.58</ele>
        <time>2021-08-09T16:42:26Z</time>
      </trkpt>
      <trkpt lat="49.02922" lon="4.49784">
        <ele>152.03</ele>
        <time>2021-08-09T16:42:34Z</time>
      </trkpt>
      <trkpt lat="49.02899" lon="4.49776">
        <ele>153.95</ele>
        <time>2021-08-09T16:42:42Z</time>
      </trkpt>
      <trkpt lat="49.02864" lon="4.49763">
        <ele>155.87</ele>
        <time>2021-08-09T16:42:55Z</time>
      </trkpt>
      <trkpt lat="49.02828" lon="4.4975">
        <ele>156.83</ele>
        <time>2021-08-09T16:43:06Z</time>
      </trkpt>
      <trkpt lat="49.02801" lon="4.4974">
        <ele>156.83</ele>
        <time>2021-08-09T16:43:13Z</time>
      </trkpt>
      <trkpt lat="49.02797" lon="4.49739">
        <ele>156.83</ele>
        <time>2021-08-09T16:43:14Z</time>
      </trkpt>
      <trkpt lat="49.0276" lon="4.49728">
        <ele>154.91</ele>
        <time>2021-08-09T16:43:23Z</time>
      </trkpt>
      <trkpt lat="49.0274" lon="4.49722">
        <ele>153.95</ele>
        <time>2021-08-09T16:43:27Z</time>
      </trkpt>
      <trkpt lat="49.02697" lon="4.49708">
        <ele>151.54</ele>
        <time>2021-08-09T16:43:34Z</time>
      </trkpt>
      <trkpt lat="49.02677" lon="4.49698">
        <ele>150.1</ele>
        <time>2021-08-09T16:43:37Z</time>
      </trkpt>
      <trkpt lat="49.02672" lon="4.49693">
        <ele>149.14</ele>
        <time>2021-08-09T16:43:38Z</time>
      </trkpt>
      <trkpt lat="49.02667" lon="4.49687">
        <ele>149.14</ele>
        <time>2021-08-09T16:43:39Z</time>
      </trkpt>
      <trkpt lat="49.0264" lon="4.49667">
        <ele>149.62</ele>
        <time>2021-08-09T16:43:45Z</time>
      </trkpt>
      <trkpt lat="49.02614" lon="4.49652">
        <ele>149.14</ele>
        <time>2021-08-09T16:43:51Z</time>
      </trkpt>
      <trkpt lat="49.02571" lon="4.49627">
        <ele>149.14</ele>
        <time>2021-08-09T16:44:01Z</time>
      </trkpt>
      <trkpt lat="49.02527" lon="4.49602">
        <ele>150.1</ele>
        <time>2021-08-09T16:44:12Z</time>
      </trkpt>
      <trkpt lat="49.02492" lon="4.49582">
        <ele>150.58</ele>
        <time>2021-08-09T16:44:22Z</time>
      </trkpt>
      <trkpt lat="49.02459" lon="4.49563">
        <ele>149.62</ele>
        <time>2021-08-09T16:44:30Z</time>
      </trkpt>
      <trkpt lat="49.0245" lon="4.49557">
        <ele>149.62</ele>
        <time>2021-08-09T16:44:32Z</time>
      </trkpt>
      <trkpt lat="49.02446" lon="4.49555">
        <ele>149.62</ele>
        <time>2021-08-09T16:44:33Z</time>
      </trkpt>
      <trkpt lat="49.02411" lon="4.49535">
        <ele>149.62</ele>
        <time>2021-08-09T16:44:42Z</time>
      </trkpt>
      <trkpt lat="49.02364" lon="4.4951">
        <ele>149.14</ele>
        <time>2021-08-09T16:44:54Z</time>
      </trkpt>
      <trkpt lat="49.02333" lon="4.49492">
        <ele>149.14</ele>
        <time>2021-08-09T16:45:02Z</time>
      </trkpt>
      <trkpt lat="49.02289" lon="4.49467">
        <ele>149.14</ele>
        <time>2021-08-09T16:45:14Z</time>
      </trkpt>
      <trkpt lat="49.02278" lon="4.49462">
        <ele>150.58</ele>
        <time>2021-08-09T16:45:17Z</time>
      </trkpt>
      <trkpt lat="49.02248" lon="4.49444">
        <ele>151.06</ele>
        <time>2021-08-09T16:45:26Z</time>
      </trkpt>
      <trkpt lat="49.02209" lon="4.49423">
        <ele>151.54</ele>
        <time>2021-08-09T16:45:38Z</time>
      </trkpt>
      <trkpt lat="49.02166" lon="4.49398">
        <ele>152.51</ele>
        <time>2021-08-09T16:45:51Z</time>
      </trkpt>
      <trkpt lat="49.02136" lon="4.49383">
        <ele>153.47</ele>
        <time>2021-08-09T16:46:00Z</time>
      </trkpt>
      <trkpt lat="49.02102" lon="4.49363">
        <ele>153.95</ele>
        <time>2021-08-09T16:46:11Z</time>
      </trkpt>
      <trkpt lat="49.02068" lon="4.49343">
        <ele>154.91</ele>
        <time>2021-08-09T16:46:22Z</time>
      </trkpt>
      <trkpt lat="49.02048" lon="4.49331">
        <ele>155.39</ele>
        <time>2021-08-09T16:46:28Z</time>
      </trkpt>
      <trkpt lat="49.02044" lon="4.4933">
        <ele>155.39</ele>
        <time>2021-08-09T16:46:29Z</time>
      </trkpt>
      <trkpt lat="49.02039" lon="4.49329">
        <ele>155.39</ele>
        <time>2021-08-09T16:46:30Z</time>
      </trkpt>
      <trkpt lat="49.02035" lon="4.49327">
        <ele>155.39</ele>
        <time>2021-08-09T16:46:31Z</time>
      </trkpt>
      <trkpt lat="49.01998" lon="4.49304">
        <ele>155.87</ele>
        <time>2021-08-09T16:46:42Z</time>
      </trkpt>
      <trkpt lat="49.01963" lon="4.49282">
        <ele>156.35</ele>
        <time>2021-08-09T16:46:52Z</time>
      </trkpt>
      <trkpt lat="49.01938" lon="4.49268">
        <ele>156.35</ele>
        <time>2021-08-09T16:46:59Z</time>
      </trkpt>
      <trkpt lat="49.01906" lon="4.49249">
        <ele>156.35</ele>
        <time>2021-08-09T16:47:08Z</time>
      </trkpt>
      <trkpt lat="49.01871" lon="4.4923">
        <ele>156.83</ele>
        <time>2021-08-09T16:47:18Z</time>
      </trkpt>
      <trkpt lat="49.01828" lon="4.49207">
        <ele>156.83</ele>
        <time>2021-08-09T16:47:30Z</time>
      </trkpt>
      <trkpt lat="49.01799" lon="4.49192">
        <ele>156.83</ele>
        <time>2021-08-09T16:47:38Z</time>
      </trkpt>
      <trkpt lat="49.0177" lon="4.49176">
        <ele>156.83</ele>
        <time>2021-08-09T16:47:46Z</time>
      </trkpt>
      <trkpt lat="49.01767" lon="4.49174">
        <ele>156.83</ele>
        <time>2021-08-09T16:47:47Z</time>
      </trkpt>
      <trkpt lat="49.01766" lon="4.49173">
        <ele>156.83</ele>
        <time>2021-08-09T16:47:48Z</time>
      </trkpt>
      <trkpt lat="49.01765" lon="4.49174">
        <ele>156.83</ele>
        <time>2021-08-09T16:47:49Z</time>
      </trkpt>
      <trkpt lat="49.01765" lon="4.49176">
        <ele>157.31</ele>
        <time>2021-08-09T16:47:50Z</time>
      </trkpt>
      <trkpt lat="49.01767" lon="4.49178">
        <ele>157.31</ele>
        <time>2021-08-09T16:47:51Z</time>
      </trkpt>
      <trkpt lat="49.0177" lon="4.49179">
        <ele>157.31</ele>
        <time>2021-08-09T16:47:52Z</time>
      </trkpt>
      <trkpt lat="49.01791" lon="4.49189">
        <ele>157.31</ele>
        <time>2021-08-09T16:47:58Z</time>
      </trkpt>
      <trkpt lat="49.01842" lon="4.49216">
        <ele>157.31</ele>
        <time>2021-08-09T16:48:09Z</time>
      </trkpt>
      <trkpt lat="49.01853" lon="4.49223">
        <ele>157.79</ele>
        <time>2021-08-09T16:48:12Z</time>
      </trkpt>
      <trkpt lat="49.01855" lon="4.49228">
        <ele>157.79</ele>
        <time>2021-08-09T16:48:13Z</time>
      </trkpt>
      <trkpt lat="49.01856" lon="4.49234">
        <ele>157.79</ele>
        <time>2021-08-09T16:48:14Z</time>
      </trkpt>
      <trkpt lat="49.01856" lon="4.49239">
        <ele>157.79</ele>
        <time>2021-08-09T16:48:15Z</time>
      </trkpt>
      <trkpt lat="49.01855" lon="4.49245">
        <ele>157.79</ele>
        <time>2021-08-09T16:48:16Z</time>
      </trkpt>
      <trkpt lat="49.01847" lon="4.4931">
        <ele>157.79</ele>
        <time>2021-08-09T16:48:25Z</time>
      </trkpt>
      <trkpt lat="49.01841" lon="4.49373">
        <ele>156.35</ele>
        <time>2021-08-09T16:48:33Z</time>
      </trkpt>
      <trkpt lat="49.01831" lon="4.49462">
        <ele>155.39</ele>
        <time>2021-08-09T16:48:43Z</time>
      </trkpt>
      <trkpt lat="49.01821" lon="4.49551">
        <ele>152.99</ele>
        <time>2021-08-09T16:48:52Z</time>
      </trkpt>
      <trkpt lat="49.01809" lon="4.49676">
        <ele>152.51</ele>
        <time>2021-08-09T16:49:04Z</time>
      </trkpt>
      <trkpt lat="49.018" lon="4.49751">
        <ele>152.51</ele>
        <time>2021-08-09T16:49:12Z</time>
      </trkpt>
      <trkpt lat="49.01798" lon="4.49777">
        <ele>153.95</ele>
        <time>2021-08-09T16:49:15Z</time>
      </trkpt>
      <trkpt lat="49.01787" lon="4.4987">
        <ele>153.95</ele>
        <time>2021-08-09T16:49:26Z</time>
      </trkpt>
      <trkpt lat="49.01776" lon="4.49975">
        <ele>153.95</ele>
        <time>2021-08-09T16:49:38Z</time>
      </trkpt>
      <trkpt lat="49.0177" lon="4.50027">
        <ele>152.99</ele>
        <time>2021-08-09T16:49:44Z</time>
      </trkpt>
      <trkpt lat="49.01759" lon="4.50125">
        <ele>152.51</ele>
        <time>2021-08-09T16:49:55Z</time>
      </trkpt>
      <trkpt lat="49.01753" lon="4.5019">
        <ele>152.51</ele>
        <time>2021-08-09T16:50:03Z</time>
      </trkpt>
      <trkpt lat="49.01752" lon="4.50197">
        <ele>152.51</ele>
        <time>2021-08-09T16:50:04Z</time>
      </trkpt>
      <trkpt lat="49.01748" lon="4.5024">
        <ele>153.95</ele>
        <time>2021-08-09T16:50:11Z</time>
      </trkpt>
      <trkpt lat="49.01744" lon="4.50274">
        <ele>155.39</ele>
        <time>2021-08-09T16:50:19Z</time>
      </trkpt>
      <trkpt lat="49.01739" lon="4.5031">
        <ele>155.87</ele>
        <time>2021-08-09T16:50:28Z</time>
      </trkpt>
      <trkpt lat="49.01732" lon="4.50327">
        <ele>156.35</ele>
        <time>2021-08-09T16:50:33Z</time>
      </trkpt>
      <trkpt lat="49.01719" lon="4.50326">
        <ele>156.35</ele>
        <time>2021-08-09T16:50:38Z</time>
      </trkpt>
      <trkpt lat="49.01681" lon="4.50313">
        <ele>156.35</ele>
        <time>2021-08-09T16:50:49Z</time>
      </trkpt>
      <trkpt lat="49.01643" lon="4.50298">
        <ele>156.83</ele>
        <time>2021-08-09T16:51:00Z</time>
      </trkpt>
      <trkpt lat="49.01605" lon="4.50283">
        <ele>157.31</ele>
        <time>2021-08-09T16:51:11Z</time>
      </trkpt>
      <trkpt lat="49.01558" lon="4.50265">
        <ele>157.79</ele>
        <time>2021-08-09T16:51:24Z</time>
      </trkpt>
      <trkpt lat="49.01529" lon="4.50255">
        <ele>158.27</ele>
        <time>2021-08-09T16:51:32Z</time>
      </trkpt>
      <trkpt lat="49.01482" lon="4.50237">
        <ele>159.24</ele>
        <time>2021-08-09T16:51:45Z</time>
      </trkpt>
      <trkpt lat="49.01428" lon="4.50218">
        <ele>159.24</ele>
        <time>2021-08-09T16:51:58Z</time>
      </trkpt>
      <trkpt lat="49.01424" lon="4.50216">
        <ele>159.24</ele>
        <time>2021-08-09T16:51:59Z</time>
      </trkpt>
      <trkpt lat="49.0142" lon="4.50214">
        <ele>159.24</ele>
        <time>2021-08-09T16:52:00Z</time>
      </trkpt>
      <trkpt lat="49.01407" lon="4.50209">
        <ele>157.79</ele>
        <time>2021-08-09T16:52:03Z</time>
      </trkpt>
      <trkpt lat="49.01363" lon="4.50193">
        <ele>157.31</ele>
        <time>2021-08-09T16:52:13Z</time>
      </trkpt>
      <trkpt lat="49.0133" lon="4.5018">
        <ele>156.83</ele>
        <time>2021-08-09T16:52:21Z</time>
      </trkpt>
      <trkpt lat="49.01321" lon="4.50177">
        <ele>156.83</ele>
        <time>2021-08-09T16:52:23Z</time>
      </trkpt>
      <trkpt lat="49.01286" lon="4.50166">
        <ele>158.27</ele>
        <time>2021-08-09T16:52:31Z</time>
      </trkpt>
      <trkpt lat="49.01283" lon="4.50164">
        <ele>158.27</ele>
        <time>2021-08-09T16:52:32Z</time>
      </trkpt>
      <trkpt lat="49.01257" lon="4.50155">
        <ele>159.24</ele>
        <time>2021-08-09T16:52:41Z</time>
      </trkpt>
      <trkpt lat="49.01234" lon="4.50147">
        <ele>160.68</ele>
        <time>2021-08-09T16:52:50Z</time>
      </trkpt>
      <trkpt lat="49.01213" lon="4.5014">
        <ele>162.12</ele>
        <time>2021-08-09T16:53:01Z</time>
      </trkpt>
      <trkpt lat="49.01188" lon="4.50131">
        <ele>164.04</ele>
        <time>2021-08-09T16:53:14Z</time>
      </trkpt>
      <trkpt lat="49.01164" lon="4.50122">
        <ele>166.45</ele>
        <time>2021-08-09T16:53:27Z</time>
      </trkpt>
      <trkpt lat="49.01143" lon="4.50114">
        <ele>168.37</ele>
        <time>2021-08-09T16:53:38Z</time>
      </trkpt>
      <trkpt lat="49.01128" lon="4.50108">
        <ele>169.81</ele>
        <time>2021-08-09T16:53:46Z</time>
      </trkpt>
      <trkpt lat="49.01106" lon="4.501">
        <ele>170.77</ele>
        <time>2021-08-09T16:53:57Z</time>
      </trkpt>
      <trkpt lat="49.01079" lon="4.50089">
        <ele>172.21</ele>
        <time>2021-08-09T16:54:09Z</time>
      </trkpt>
      <trkpt lat="49.01051" lon="4.50079">
        <ele>173.66</ele>
        <time>2021-08-09T16:54:20Z</time>
      </trkpt>
      <trkpt lat="49.01025" lon="4.50069">
        <ele>173.66</ele>
        <time>2021-08-09T16:54:30Z</time>
      </trkpt>
      <trkpt lat="49.00995" lon="4.50057">
        <ele>174.14</ele>
        <time>2021-08-09T16:54:40Z</time>
      </trkpt>
      <trkpt lat="49.00978" lon="4.50056">
        <ele>174.62</ele>
        <time>2021-08-09T16:54:46Z</time>
      </trkpt>
      <trkpt lat="49.00976" lon="4.50059">
        <ele>175.1</ele>
        <time>2021-08-09T16:54:47Z</time>
      </trkpt>
      <trkpt lat="49.00974" lon="4.50063">
        <ele>175.1</ele>
        <time>2021-08-09T16:54:48Z</time>
      </trkpt>
      <trkpt lat="49.00973" lon="4.50068">
        <ele>175.1</ele>
        <time>2021-08-09T16:54:49Z</time>
      </trkpt>
      <trkpt lat="49.00972" lon="4.50071">
        <ele>175.1</ele>
        <time>2021-08-09T16:54:50Z</time>
      </trkpt>
      <trkpt lat="49.00972" lon="4.50077">
        <ele>175.58</ele>
        <time>2021-08-09T16:54:51Z</time>
      </trkpt>
      <trkpt lat="49.00972" lon="4.50082">
        <ele>175.58</ele>
        <time>2021-08-09T16:54:52Z</time>
      </trkpt>
      <trkpt lat="49.00972" lon="4.50088">
        <ele>175.1</ele>
        <time>2021-08-09T16:54:53Z</time>
      </trkpt>
      <trkpt lat="49.00971" lon="4.50144">
        <ele>175.1</ele>
        <time>2021-08-09T16:55:02Z</time>
      </trkpt>
      <trkpt lat="49.00972" lon="4.502">
        <ele>175.58</ele>
        <time>2021-08-09T16:55:10Z</time>
      </trkpt>
      <trkpt lat="49.0097" lon="4.50247">
        <ele>175.58</ele>
        <time>2021-08-09T16:55:16Z</time>
      </trkpt>
      <trkpt lat="49.00968" lon="4.50315">
        <ele>175.58</ele>
        <time>2021-08-09T16:55:24Z</time>
      </trkpt>
      <trkpt lat="49.00964" lon="4.50393">
        <ele>176.06</ele>
        <time>2021-08-09T16:55:33Z</time>
      </trkpt>
      <trkpt lat="49.00959" lon="4.50476">
        <ele>176.54</ele>
        <time>2021-08-09T16:55:43Z</time>
      </trkpt>
      <trkpt lat="49.00955" lon="4.50553">
        <ele>176.54</ele>
        <time>2021-08-09T16:55:52Z</time>
      </trkpt>
      <trkpt lat="49.00951" lon="4.50667">
        <ele>177.5</ele>
        <time>2021-08-09T16:56:05Z</time>
      </trkpt>
      <trkpt lat="49.00949" lon="4.50766">
        <ele>177.5</ele>
        <time>2021-08-09T16:56:16Z</time>
      </trkpt>
      <trkpt lat="49.00947" lon="4.50847">
        <ele>177.98</ele>
        <time>2021-08-09T16:56:25Z</time>
      </trkpt>
      <trkpt lat="49.00944" lon="4.50945">
        <ele>177.98</ele>
        <time>2021-08-09T16:56:36Z</time>
      </trkpt>
      <trkpt lat="49.00942" lon="4.51032">
        <ele>178.46</ele>
        <time>2021-08-09T16:56:46Z</time>
      </trkpt>
      <trkpt lat="49.0094" lon="4.51123">
        <ele>178.46</ele>
        <time>2021-08-09T16:56:56Z</time>
      </trkpt>
      <trkpt lat="49.00939" lon="4.51197">
        <ele>178.46</ele>
        <time>2021-08-09T16:57:04Z</time>
      </trkpt>
      <trkpt lat="49.00938" lon="4.51215">
        <ele>177.02</ele>
        <time>2021-08-09T16:57:06Z</time>
      </trkpt>
      <trkpt lat="49.00936" lon="4.51309">
        <ele>176.54</ele>
        <time>2021-08-09T16:57:16Z</time>
      </trkpt>
      <trkpt lat="49.00934" lon="4.51413">
        <ele>176.54</ele>
        <time>2021-08-09T16:57:27Z</time>
      </trkpt>
      <trkpt lat="49.00933" lon="4.51495">
        <ele>176.06</ele>
        <time>2021-08-09T16:57:36Z</time>
      </trkpt>
      <trkpt lat="49.00933" lon="4.51551">
        <ele>177.5</ele>
        <time>2021-08-09T16:57:44Z</time>
      </trkpt>
      <trkpt lat="49.00933" lon="4.5158">
        <ele>177.5</ele>
        <time>2021-08-09T16:57:49Z</time>
      </trkpt>
      <trkpt lat="49.0093" lon="4.51647">
        <ele>177.5</ele>
        <time>2021-08-09T16:57:58Z</time>
      </trkpt>
      <trkpt lat="49.00927" lon="4.5169">
        <ele>177.5</ele>
        <time>2021-08-09T16:58:03Z</time>
      </trkpt>
      <trkpt lat="49.00915" lon="4.51753">
        <ele>177.5</ele>
        <time>2021-08-09T16:58:11Z</time>
      </trkpt>
      <trkpt lat="49.00902" lon="4.51818">
        <ele>178.46</ele>
        <time>2021-08-09T16:58:19Z</time>
      </trkpt>
      <trkpt lat="49.00883" lon="4.51908">
        <ele>177.02</ele>
        <time>2021-08-09T16:58:30Z</time>
      </trkpt>
      <trkpt lat="49.0087" lon="4.51979">
        <ele>177.02</ele>
        <time>2021-08-09T16:58:39Z</time>
      </trkpt>
      <trkpt lat="49.00869" lon="4.51987">
        <ele>177.02</ele>
        <time>2021-08-09T16:58:40Z</time>
      </trkpt>
      <trkpt lat="49.00867" lon="4.51995">
        <ele>177.02</ele>
        <time>2021-08-09T16:58:41Z</time>
      </trkpt>
      <trkpt lat="49.00852" lon="4.52064">
        <ele>177.98</ele>
        <time>2021-08-09T16:58:50Z</time>
      </trkpt>
      <trkpt lat="49.00845" lon="4.521">
        <ele>178.46</ele>
        <time>2021-08-09T16:58:55Z</time>
      </trkpt>
      <trkpt lat="49.00844" lon="4.52107">
        <ele>177.98</ele>
        <time>2021-08-09T16:58:56Z</time>
      </trkpt>
      <trkpt lat="49.00837" lon="4.52143">
        <ele>178.46</ele>
        <time>2021-08-09T16:59:01Z</time>
      </trkpt>
      <trkpt lat="49.00826" lon="4.52198">
        <ele>178.94</ele>
        <time>2021-08-09T16:59:09Z</time>
      </trkpt>
      <trkpt lat="49.00825" lon="4.52205">
        <ele>178.94</ele>
        <time>2021-08-09T16:59:10Z</time>
      </trkpt>
      <trkpt lat="49.00823" lon="4.52212">
        <ele>178.94</ele>
        <time>2021-08-09T16:59:11Z</time>
      </trkpt>
      <trkpt lat="49.0082" lon="4.52216">
        <ele>178.94</ele>
        <time>2021-08-09T16:59:12Z</time>
      </trkpt>
      <trkpt lat="49.00816" lon="4.5222">
        <ele>178.94</ele>
        <time>2021-08-09T16:59:13Z</time>
      </trkpt>
      <trkpt lat="49.00811" lon="4.52221">
        <ele>178.94</ele>
        <time>2021-08-09T16:59:14Z</time>
      </trkpt>
      <trkpt lat="49.00808" lon="4.5222">
        <ele>178.94</ele>
        <time>2021-08-09T16:59:15Z</time>
      </trkpt>
      <trkpt lat="49.00804" lon="4.52219">
        <ele>178.94</ele>
        <time>2021-08-09T16:59:16Z</time>
      </trkpt>
      <trkpt lat="49.008" lon="4.52217">
        <ele>178.94</ele>
        <time>2021-08-09T16:59:17Z</time>
      </trkpt>
      <trkpt lat="49.00766" lon="4.52208">
        <ele>178.94</ele>
        <time>2021-08-09T16:59:25Z</time>
      </trkpt>
      <trkpt lat="49.00719" lon="4.52201">
        <ele>179.9</ele>
        <time>2021-08-09T16:59:35Z</time>
      </trkpt>
      <trkpt lat="49.00669" lon="4.52192">
        <ele>179.9</ele>
        <time>2021-08-09T16:59:45Z</time>
      </trkpt>
      <trkpt lat="49.00652" lon="4.52189">
        <ele>178.46</ele>
        <time>2021-08-09T16:59:48Z</time>
      </trkpt>
      <trkpt lat="49.00578" lon="4.52176">
        <ele>175.58</ele>
        <time>2021-08-09T17:00:01Z</time>
      </trkpt>
      <trkpt lat="49.00516" lon="4.52164">
        <ele>173.17</ele>
        <time>2021-08-09T17:00:11Z</time>
      </trkpt>
      <trkpt lat="49.00504" lon="4.52162">
        <ele>172.21</ele>
        <time>2021-08-09T17:00:13Z</time>
      </trkpt>
      <trkpt lat="49.00455" lon="4.52152">
        <ele>171.73</ele>
        <time>2021-08-09T17:00:21Z</time>
      </trkpt>
      <trkpt lat="49.00399" lon="4.52141">
        <ele>172.21</ele>
        <time>2021-08-09T17:00:31Z</time>
      </trkpt>
      <trkpt lat="49.00366" lon="4.52136">
        <ele>173.17</ele>
        <time>2021-08-09T17:00:38Z</time>
      </trkpt>
      <trkpt lat="49.00304" lon="4.52125">
        <ele>174.14</ele>
        <time>2021-08-09T17:00:52Z</time>
      </trkpt>
      <trkpt lat="49.00264" lon="4.52117">
        <ele>174.62</ele>
        <time>2021-08-09T17:01:01Z</time>
      </trkpt>
      <trkpt lat="49.00216" lon="4.52108">
        <ele>174.14</ele>
        <time>2021-08-09T17:01:12Z</time>
      </trkpt>
      <trkpt lat="49.00192" lon="4.52103">
        <ele>174.14</ele>
        <time>2021-08-09T17:01:17Z</time>
      </trkpt>
      <trkpt lat="49.00187" lon="4.52102">
        <ele>174.14</ele>
        <time>2021-08-09T17:01:18Z</time>
      </trkpt>
      <trkpt lat="49.00139" lon="4.52093">
        <ele>172.69</ele>
        <time>2021-08-09T17:01:27Z</time>
      </trkpt>
      <trkpt lat="49.00095" lon="4.52084">
        <ele>172.21</ele>
        <time>2021-08-09T17:01:35Z</time>
      </trkpt>
      <trkpt lat="49.00021" lon="4.52071">
        <ele>169.81</ele>
        <time>2021-08-09T17:01:47Z</time>
      </trkpt>
      <trkpt lat="48.99953" lon="4.52058">
        <ele>167.41</ele>
        <time>2021-08-09T17:01:57Z</time>
      </trkpt>
      <trkpt lat="48.99891" lon="4.52047">
        <ele>164.04</ele>
        <time>2021-08-09T17:02:05Z</time>
      </trkpt>
      <trkpt lat="48.99877" lon="4.52044">
        <ele>163.56</ele>
        <time>2021-08-09T17:02:07Z</time>
      </trkpt>
      <trkpt lat="48.99775" lon="4.52025">
        <ele>160.68</ele>
        <time>2021-08-09T17:02:20Z</time>
      </trkpt>
      <trkpt lat="48.997" lon="4.52011">
        <ele>157.79</ele>
        <time>2021-08-09T17:02:30Z</time>
      </trkpt>
      <trkpt lat="48.99612" lon="4.51995">
        <ele>154.91</ele>
        <time>2021-08-09T17:02:42Z</time>
      </trkpt>
      <trkpt lat="48.99536" lon="4.51979">
        <ele>151.54</ele>
        <time>2021-08-09T17:02:53Z</time>
      </trkpt>
      <trkpt lat="48.99483" lon="4.5197">
        <ele>151.54</ele>
        <time>2021-08-09T17:03:02Z</time>
      </trkpt>
      <trkpt lat="48.99428" lon="4.51959">
        <ele>149.14</ele>
        <time>2021-08-09T17:03:12Z</time>
      </trkpt>
      <trkpt lat="48.99372" lon="4.51948">
        <ele>148.66</ele>
        <time>2021-08-09T17:03:22Z</time>
      </trkpt>
      <trkpt lat="48.99324" lon="4.51941">
        <ele>149.62</ele>
        <time>2021-08-09T17:03:32Z</time>
      </trkpt>
      <trkpt lat="48.99299" lon="4.51935">
        <ele>151.06</ele>
        <time>2021-08-09T17:03:39Z</time>
      </trkpt>
      <trkpt lat="48.99277" lon="4.5192">
        <ele>151.06</ele>
        <time>2021-08-09T17:03:46Z</time>
      </trkpt>
      <trkpt lat="48.99274" lon="4.51918">
        <ele>151.54</ele>
        <time>2021-08-09T17:03:48Z</time>
      </trkpt>
      <trkpt lat="48.99273" lon="4.51916">
        <ele>151.54</ele>
        <time>2021-08-09T17:03:49Z</time>
      </trkpt>
      <trkpt lat="48.99269" lon="4.51908">
        <ele>151.54</ele>
        <time>2021-08-09T17:03:52Z</time>
      </trkpt>
      <trkpt lat="48.99266" lon="4.51907">
        <ele>151.54</ele>
        <time>2021-08-09T17:03:53Z</time>
      </trkpt>
      <trkpt lat="48.99262" lon="4.51908">
        <ele>151.54</ele>
        <time>2021-08-09T17:03:54Z</time>
      </trkpt>
      <trkpt lat="48.99246" lon="4.51916">
        <ele>151.54</ele>
        <time>2021-08-09T17:03:58Z</time>
      </trkpt>
      <trkpt lat="48.99232" lon="4.51918">
        <ele>151.54</ele>
        <time>2021-08-09T17:04:01Z</time>
      </trkpt>
      <trkpt lat="48.99224" lon="4.51917">
        <ele>151.54</ele>
        <time>2021-08-09T17:04:03Z</time>
      </trkpt>
      <trkpt lat="48.99192" lon="4.51916">
        <ele>151.54</ele>
        <time>2021-08-09T17:04:10Z</time>
      </trkpt>
      <trkpt lat="48.99145" lon="4.51913">
        <ele>151.54</ele>
        <time>2021-08-09T17:04:20Z</time>
      </trkpt>
      <trkpt lat="48.99117" lon="4.5191">
        <ele>151.54</ele>
        <time>2021-08-09T17:04:28Z</time>
      </trkpt>
      <trkpt lat="48.99114" lon="4.51909">
        <ele>151.54</ele>
        <time>2021-08-09T17:04:33Z</time>
      </trkpt>
      <trkpt lat="48.99115" lon="4.51906">
        <ele>152.03</ele>
        <time>2021-08-09T17:04:51Z</time>
      </trkpt>
      <trkpt lat="48.99113" lon="4.5191">
        <ele>152.03</ele>
        <time>2021-08-09T17:05:01Z</time>
      </trkpt>
      <trkpt lat="48.99113" lon="4.51914">
        <ele>152.03</ele>
        <time>2021-08-09T17:05:04Z</time>
      </trkpt>
      <trkpt lat="48.99115" lon="4.51917">
        <ele>152.03</ele>
        <time>2021-08-09T17:05:10Z</time>
      </trkpt>
      <trkpt lat="48.99113" lon="4.51918">
        <ele>152.03</ele>
        <time>2021-08-09T17:05:25Z</time>
      </trkpt>
      <trkpt lat="48.99113" lon="4.51918">
        <ele>152.03</ele>
        <time>2021-08-09T17:05:37Z</time>
      </trkpt>
      <trkpt lat="48.99114" lon="4.51919">
        <ele>151.54</ele>
        <time>2021-08-09T17:05:54Z</time>
      </trkpt>
      <trkpt lat="48.99114" lon="4.5192">
        <ele>151.54</ele>
        <time>2021-08-09T17:06:17Z</time>
      </trkpt>
      <trkpt lat="48.99113" lon="4.5192">
        <ele>151.54</ele>
        <time>2021-08-09T17:06:26Z</time>
      </trkpt>
      <trkpt lat="48.99113" lon="4.51919">
        <ele>151.54</ele>
        <time>2021-08-09T17:06:46Z</time>
      </trkpt>
      <trkpt lat="48.99112" lon="4.51919">
        <ele>150.58</ele>
        <time>2021-08-09T17:07:10Z</time>
      </trkpt>
      <trkpt lat="48.99112" lon="4.5192">
        <ele>150.58</ele>
        <time>2021-08-09T17:07:23Z</time>
      </trkpt>
      <trkpt lat="48.99112" lon="4.5192">
        <ele>150.58</ele>
        <time>2021-08-09T17:07:43Z</time>
      </trkpt>
      <trkpt lat="48.99113" lon="4.51923">
        <ele>150.58</ele>
        <time>2021-08-09T17:08:03Z</time>
      </trkpt>
      <trkpt lat="48.99114" lon="4.51921">
        <ele>150.58</ele>
        <time>2021-08-09T17:08:22Z</time>
      </trkpt>
      <trkpt lat="48.99114" lon="4.5192">
        <ele>150.58</ele>
        <time>2021-08-09T17:08:40Z</time>
      </trkpt>
      <trkpt lat="48.99113" lon="4.51917">
        <ele>150.58</ele>
        <time>2021-08-09T17:09:01Z</time>
      </trkpt>
      <trkpt lat="48.99112" lon="4.51919">
        <ele>150.58</ele>
        <time>2021-08-09T17:09:25Z</time>
      </trkpt>
      <trkpt lat="48.99113" lon="4.51919">
        <ele>150.58</ele>
        <time>2021-08-09T17:09:44Z</time>
      </trkpt>
      <trkpt lat="48.99114" lon="4.51915">
        <ele>150.58</ele>
        <time>2021-08-09T17:10:02Z</time>
      </trkpt>
      <trkpt lat="48.99114" lon="4.51916">
        <ele>150.58</ele>
        <time>2021-08-09T17:10:26Z</time>
      </trkpt>
      <trkpt lat="48.99115" lon="4.51914">
        <ele>150.58</ele>
        <time>2021-08-09T17:10:49Z</time>
      </trkpt>
      <trkpt lat="48.99115" lon="4.51915">
        <ele>150.58</ele>
        <time>2021-08-09T17:11:04Z</time>
      </trkpt>
      <trkpt lat="48.99115" lon="4.51914">
        <ele>150.58</ele>
        <time>2021-08-09T17:11:15Z</time>
      </trkpt>
      <trkpt lat="48.99114" lon="4.51914">
        <ele>150.58</ele>
        <time>2021-08-09T17:11:25Z</time>
      </trkpt>
      <trkpt lat="48.99114" lon="4.51916">
        <ele>150.58</ele>
        <time>2021-08-09T17:11:40Z</time>
      </trkpt>
      <trkpt lat="48.99114" lon="4.51916">
        <ele>151.54</ele>
        <time>2021-08-09T17:11:55Z</time>
      </trkpt>
      <trkpt lat="48.99114" lon="4.51916">
        <ele>151.54</ele>
        <time>2021-08-09T17:12:10Z</time>
      </trkpt>
      <trkpt lat="48.99114" lon="4.51916">
        <ele>151.54</ele>
        <time>2021-08-09T17:12:25Z</time>
      </trkpt>
      <trkpt lat="48.99114" lon="4.51916">
        <ele>151.54</ele>
        <time>2021-08-09T17:12:44Z</time>
      </trkpt>
      <trkpt lat="48.99116" lon="4.51915">
        <ele>151.06</ele>
        <time>2021-08-09T17:13:06Z</time>
      </trkpt>
      <trkpt lat="48.99115" lon="4.51917">
        <ele>151.06</ele>
        <time>2021-08-09T17:13:22Z</time>
      </trkpt>
      <trkpt lat="48.99113" lon="4.51919">
        <ele>151.06</ele>
        <time>2021-08-09T17:13:41Z</time>
      </trkpt>
      <trkpt lat="48.99113" lon="4.5192">
        <ele>151.06</ele>
        <time>2021-08-09T17:13:53Z</time>
      </trkpt>
      <trkpt lat="48.99115" lon="4.51918">
        <ele>151.06</ele>
        <time>2021-08-09T17:14:06Z</time>
      </trkpt>
      <trkpt lat="48.99116" lon="4.51918">
        <ele>151.06</ele>
        <time>2021-08-09T17:14:25Z</time>
      </trkpt>
      <trkpt lat="48.99115" lon="4.5192">
        <ele>151.54</ele>
        <time>2021-08-09T17:14:46Z</time>
      </trkpt>
      <trkpt lat="48.99114" lon="4.51922">
        <ele>151.54</ele>
        <time>2021-08-09T17:15:07Z</time>
      </trkpt>
      <trkpt lat="48.99114" lon="4.51916">
        <ele>151.54</ele>
        <time>2021-08-09T17:15:25Z</time>
      </trkpt>
      <trkpt lat="48.99113" lon="4.51914">
        <ele>151.54</ele>
        <time>2021-08-09T17:15:42Z</time>
      </trkpt>
      <trkpt lat="48.99114" lon="4.51914">
        <ele>151.54</ele>
        <time>2021-08-09T17:15:58Z</time>
      </trkpt>
      <trkpt lat="48.99112" lon="4.51917">
        <ele>151.54</ele>
        <time>2021-08-09T17:16:14Z</time>
      </trkpt>
      <trkpt lat="48.99112" lon="4.51915">
        <ele>151.54</ele>
        <time>2021-08-09T17:16:17Z</time>
      </trkpt>
      <trkpt lat="48.99111" lon="4.51913">
        <ele>151.54</ele>
        <time>2021-08-09T17:16:22Z</time>
      </trkpt>
      <trkpt lat="48.99108" lon="4.51914">
        <ele>151.54</ele>
        <time>2021-08-09T17:16:45Z</time>
      </trkpt>
      <trkpt lat="48.99112" lon="4.51917">
        <ele>151.54</ele>
        <time>2021-08-09T17:17:02Z</time>
      </trkpt>
      <trkpt lat="48.99112" lon="4.51917">
        <ele>151.54</ele>
        <time>2021-08-09T17:17:22Z</time>
      </trkpt>
      <trkpt lat="48.99113" lon="4.51917">
        <ele>151.54</ele>
        <time>2021-08-09T17:17:38Z</time>
      </trkpt>
      <trkpt lat="48.99112" lon="4.5192">
        <ele>151.54</ele>
        <time>2021-08-09T17:18:00Z</time>
      </trkpt>
      <trkpt lat="48.99114" lon="4.51919">
        <ele>151.06</ele>
        <time>2021-08-09T17:18:25Z</time>
      </trkpt>
      <trkpt lat="48.99114" lon="4.51919">
        <ele>151.54</ele>
        <time>2021-08-09T17:18:44Z</time>
      </trkpt>
      <trkpt lat="48.99115" lon="4.51919">
        <ele>151.54</ele>
        <time>2021-08-09T17:19:01Z</time>
      </trkpt>
      <trkpt lat="48.99117" lon="4.5192">
        <ele>151.54</ele>
        <time>2021-08-09T17:19:19Z</time>
      </trkpt>
      <trkpt lat="48.99115" lon="4.51917">
        <ele>151.54</ele>
        <time>2021-08-09T17:19:40Z</time>
      </trkpt>
      <trkpt lat="48.99115" lon="4.51917">
        <ele>151.54</ele>
        <time>2021-08-09T17:19:55Z</time>
      </trkpt>
      <trkpt lat="48.99116" lon="4.51916">
        <ele>151.54</ele>
        <time>2021-08-09T17:20:17Z</time>
      </trkpt>
      <trkpt lat="48.99115" lon="4.51915">
        <ele>152.03</ele>
        <time>2021-08-09T17:20:28Z</time>
      </trkpt>
      <trkpt lat="48.99114" lon="4.51914">
        <ele>152.03</ele>
        <time>2021-08-09T17:20:36Z</time>
      </trkpt>
      <trkpt lat="48.99113" lon="4.51913">
        <ele>152.03</ele>
        <time>2021-08-09T17:20:49Z</time>
      </trkpt>
      <trkpt lat="48.99114" lon="4.51912">
        <ele>152.03</ele>
        <time>2021-08-09T17:21:00Z</time>
      </trkpt>
      <trkpt lat="48.99115" lon="4.51911">
        <ele>152.03</ele>
        <time>2021-08-09T17:21:01Z</time>
      </trkpt>
      <trkpt lat="48.99116" lon="4.5191">
        <ele>152.03</ele>
        <time>2021-08-09T17:21:02Z</time>
      </trkpt>
      <trkpt lat="48.99116" lon="4.51907">
        <ele>152.03</ele>
        <time>2021-08-09T17:21:04Z</time>
      </trkpt>
      <trkpt lat="48.99116" lon="4.51905">
        <ele>152.03</ele>
        <time>2021-08-09T17:21:05Z</time>
      </trkpt>
      <trkpt lat="48.99115" lon="4.51905">
        <ele>152.03</ele>
        <time>2021-08-09T17:21:06Z</time>
      </trkpt>
      <trkpt lat="48.99114" lon="4.51905">
        <ele>152.03</ele>
        <time>2021-08-09T17:21:07Z</time>
      </trkpt>
      <trkpt lat="48.99113" lon="4.51905">
        <ele>152.03</ele>
        <time>2021-08-09T17:21:08Z</time>
      </trkpt>
      <trkpt lat="48.99108" lon="4.51906">
        <ele>152.03</ele>
        <time>2021-08-09T17:21:14Z</time>
      </trkpt>
      <trkpt lat="48.99107" lon="4.51905">
        <ele>152.03</ele>
        <time>2021-08-09T17:21:15Z</time>
      </trkpt>
      <trkpt lat="48.99106" lon="4.51905">
        <ele>152.03</ele>
        <time>2021-08-09T17:21:16Z</time>
      </trkpt>
      <trkpt lat="48.99104" lon="4.51905">
        <ele>152.03</ele>
        <time>2021-08-09T17:21:17Z</time>
      </trkpt>
      <trkpt lat="48.99103" lon="4.51906">
        <ele>152.03</ele>
        <time>2021-08-09T17:21:18Z</time>
      </trkpt>
      <trkpt lat="48.99103" lon="4.51907">
        <ele>152.03</ele>
        <time>2021-08-09T17:21:19Z</time>
      </trkpt>
      <trkpt lat="48.99103" lon="4.51909">
        <ele>152.03</ele>
        <time>2021-08-09T17:21:20Z</time>
      </trkpt>
      <trkpt lat="48.99104" lon="4.51911">
        <ele>152.03</ele>
        <time>2021-08-09T17:21:21Z</time>
      </trkpt>
      <trkpt lat="48.99105" lon="4.51912">
        <ele>152.03</ele>
        <time>2021-08-09T17:21:22Z</time>
      </trkpt>
      <trkpt lat="48.99107" lon="4.51913">
        <ele>152.03</ele>
        <time>2021-08-09T17:21:23Z</time>
      </trkpt>
      <trkpt lat="48.99108" lon="4.51914">
        <ele>152.03</ele>
        <time>2021-08-09T17:21:24Z</time>
      </trkpt>
      <trkpt lat="48.9911" lon="4.51914">
        <ele>152.03</ele>
        <time>2021-08-09T17:21:25Z</time>
      </trkpt>
      <trkpt lat="48.99112" lon="4.51914">
        <ele>152.03</ele>
        <time>2021-08-09T17:21:26Z</time>
      </trkpt>
      <trkpt lat="48.99113" lon="4.51913">
        <ele>152.03</ele>
        <time>2021-08-09T17:21:27Z</time>
      </trkpt>
      <trkpt lat="48.99115" lon="4.51913">
        <ele>152.03</ele>
        <time>2021-08-09T17:21:28Z</time>
      </trkpt>
      <trkpt lat="48.99117" lon="4.5191">
        <ele>152.03</ele>
        <time>2021-08-09T17:21:30Z</time>
      </trkpt>
      <trkpt lat="48.99112" lon="4.51906">
        <ele>152.03</ele>
        <time>2021-08-09T17:21:34Z</time>
      </trkpt>
      <trkpt lat="48.99109" lon="4.51905">
        <ele>152.03</ele>
        <time>2021-08-09T17:21:35Z</time>
      </trkpt>
      <trkpt lat="48.99094" lon="4.51905">
        <ele>152.03</ele>
        <time>2021-08-09T17:21:42Z</time>
      </trkpt>
      <trkpt lat="48.99081" lon="4.51904">
        <ele>152.03</ele>
        <time>2021-08-09T17:21:47Z</time>
      </trkpt>
      <trkpt lat="48.99061" lon="4.51903">
        <ele>152.03</ele>
        <time>2021-08-09T17:21:53Z</time>
      </trkpt>
      <trkpt lat="48.99032" lon="4.51901">
        <ele>152.03</ele>
        <time>2021-08-09T17:22:01Z</time>
      </trkpt>
      <trkpt lat="48.99014" lon="4.51899">
        <ele>150.58</ele>
        <time>2021-08-09T17:22:05Z</time>
      </trkpt>
      <trkpt lat="48.99006" lon="4.51897">
        <ele>150.58</ele>
        <time>2021-08-09T17:22:07Z</time>
      </trkpt>
      <trkpt lat="48.98989" lon="4.51895">
        <ele>150.58</ele>
        <time>2021-08-09T17:22:11Z</time>
      </trkpt>
      <trkpt lat="48.98952" lon="4.51892">
        <ele>149.14</ele>
        <time>2021-08-09T17:22:20Z</time>
      </trkpt>
      <trkpt lat="48.98948" lon="4.51891">
        <ele>149.14</ele>
        <time>2021-08-09T17:22:21Z</time>
      </trkpt>
      <trkpt lat="48.98944" lon="4.51891">
        <ele>149.14</ele>
        <time>2021-08-09T17:22:22Z</time>
      </trkpt>
      <trkpt lat="48.98902" lon="4.51887">
        <ele>148.18</ele>
        <time>2021-08-09T17:22:31Z</time>
      </trkpt>
      <trkpt lat="48.98864" lon="4.51885">
        <ele>147.7</ele>
        <time>2021-08-09T17:22:38Z</time>
      </trkpt>
      <trkpt lat="48.98833" lon="4.51882">
        <ele>146.74</ele>
        <time>2021-08-09T17:22:43Z</time>
      </trkpt>
      <trkpt lat="48.98827" lon="4.51883">
        <ele>146.74</ele>
        <time>2021-08-09T17:22:44Z</time>
      </trkpt>
      <trkpt lat="48.98761" lon="4.51885">
        <ele>145.3</ele>
        <time>2021-08-09T17:22:54Z</time>
      </trkpt>
      <trkpt lat="48.98751" lon="4.51884">
        <ele>145.3</ele>
        <time>2021-08-09T17:22:56Z</time>
      </trkpt>
      <trkpt lat="48.98747" lon="4.5188">
        <ele>145.3</ele>
        <time>2021-08-09T17:22:57Z</time>
      </trkpt>
      <trkpt lat="48.98744" lon="4.51875">
        <ele>145.3</ele>
        <time>2021-08-09T17:22:58Z</time>
      </trkpt>
      <trkpt lat="48.98742" lon="4.51869">
        <ele>144.82</ele>
        <time>2021-08-09T17:22:59Z</time>
      </trkpt>
      <trkpt lat="48.9874" lon="4.51862">
        <ele>144.82</ele>
        <time>2021-08-09T17:23:00Z</time>
      </trkpt>
      <trkpt lat="48.98721" lon="4.51795">
        <ele>143.85</ele>
        <time>2021-08-09T17:23:09Z</time>
      </trkpt>
      <trkpt lat="48.98701" lon="4.51729">
        <ele>143.37</ele>
        <time>2021-08-09T17:23:18Z</time>
      </trkpt>
      <trkpt lat="48.98695" lon="4.5171">
        <ele>143.37</ele>
        <time>2021-08-09T17:23:23Z</time>
      </trkpt>
      <trkpt lat="48.98693" lon="4.51711">
        <ele>143.37</ele>
        <time>2021-08-09T17:23:24Z</time>
      </trkpt>
      <trkpt lat="48.98693" lon="4.51713">
        <ele>143.37</ele>
        <time>2021-08-09T17:23:25Z</time>
      </trkpt>
      <trkpt lat="48.98701" lon="4.51735">
        <ele>143.37</ele>
        <time>2021-08-09T17:23:33Z</time>
      </trkpt>
      <trkpt lat="48.98704" lon="4.51738">
        <ele>144.82</ele>
        <time>2021-08-09T17:23:38Z</time>
      </trkpt>
      <trkpt lat="48.98705" lon="4.51736">
        <ele>144.82</ele>
        <time>2021-08-09T17:23:46Z</time>
      </trkpt>
      <trkpt lat="48.98704" lon="4.51736">
        <ele>144.82</ele>
        <time>2021-08-09T17:24:05Z</time>
      </trkpt>
      <trkpt lat="48.98705" lon="4.51736">
        <ele>144.82</ele>
        <time>2021-08-09T17:24:23Z</time>
      </trkpt>
      <trkpt lat="48.98705" lon="4.51736">
        <ele>144.82</ele>
        <time>2021-08-09T17:24:42Z</time>
      </trkpt>
      <trkpt lat="48.98704" lon="4.51739">
        <ele>144.82</ele>
        <time>2021-08-09T17:25:02Z</time>
      </trkpt>
      <trkpt lat="48.98705" lon="4.5174">
        <ele>144.82</ele>
        <time>2021-08-09T17:25:21Z</time>
      </trkpt>
      <trkpt lat="48.98707" lon="4.51738">
        <ele>144.82</ele>
        <time>2021-08-09T17:25:34Z</time>
      </trkpt>
      <trkpt lat="48.98708" lon="4.51736">
        <ele>144.82</ele>
        <time>2021-08-09T17:25:50Z</time>
      </trkpt>
      <trkpt lat="48.98709" lon="4.51734">
        <ele>144.82</ele>
        <time>2021-08-09T17:26:10Z</time>
      </trkpt>
      <trkpt lat="48.98709" lon="4.51734">
        <ele>144.82</ele>
        <time>2021-08-09T17:26:19Z</time>
      </trkpt>
      <trkpt lat="48.98709" lon="4.51734">
        <ele>144.82</ele>
        <time>2021-08-09T17:26:35Z</time>
      </trkpt>
      <trkpt lat="48.98707" lon="4.51735">
        <ele>144.82</ele>
        <time>2021-08-09T17:26:45Z</time>
      </trkpt>
      <trkpt lat="48.98706" lon="4.51733">
        <ele>144.82</ele>
        <time>2021-08-09T17:26:56Z</time>
      </trkpt>
      <trkpt lat="48.98706" lon="4.51735">
        <ele>144.82</ele>
        <time>2021-08-09T17:27:14Z</time>
      </trkpt>
      <trkpt lat="48.98705" lon="4.51737">
        <ele>144.82</ele>
        <time>2021-08-09T17:27:25Z</time>
      </trkpt>
      <trkpt lat="48.98706" lon="4.51737">
        <ele>144.82</ele>
        <time>2021-08-09T17:27:31Z</time>
      </trkpt>
      <trkpt lat="48.98706" lon="4.51737">
        <ele>144.82</ele>
        <time>2021-08-09T17:27:44Z</time>
      </trkpt>
      <trkpt lat="48.98706" lon="4.51737">
        <ele>144.82</ele>
        <time>2021-08-09T17:28:10Z</time>
      </trkpt>
      <trkpt lat="48.98706" lon="4.51739">
        <ele>144.82</ele>
        <time>2021-08-09T17:28:31Z</time>
      </trkpt>
      <trkpt lat="48.98706" lon="4.51738">
        <ele>144.82</ele>
        <time>2021-08-09T17:28:45Z</time>
      </trkpt>
      <trkpt lat="48.98706" lon="4.51738">
        <ele>144.82</ele>
        <time>2021-08-09T17:28:59Z</time>
      </trkpt>
      <trkpt lat="48.98706" lon="4.5174">
        <ele>144.82</ele>
        <time>2021-08-09T17:29:20Z</time>
      </trkpt>
      <trkpt lat="48.98706" lon="4.51741">
        <ele>144.82</ele>
        <time>2021-08-09T17:29:42Z</time>
      </trkpt>
      <trkpt lat="48.98706" lon="4.51741">
        <ele>144.82</ele>
        <time>2021-08-09T17:29:58Z</time>
      </trkpt>
      <trkpt lat="48.98705" lon="4.5174">
        <ele>144.82</ele>
        <time>2021-08-09T17:30:18Z</time>
      </trkpt>
      <trkpt lat="48.98706" lon="4.51739">
        <ele>144.82</ele>
        <time>2021-08-09T17:30:34Z</time>
      </trkpt>
      <trkpt lat="48.98707" lon="4.51737">
        <ele>144.82</ele>
        <time>2021-08-09T17:30:54Z</time>
      </trkpt>
      <trkpt lat="48.98707" lon="4.51737">
        <ele>144.82</ele>
        <time>2021-08-09T17:31:14Z</time>
      </trkpt>
      <trkpt lat="48.98706" lon="4.51738">
        <ele>144.82</ele>
        <time>2021-08-09T17:31:29Z</time>
      </trkpt>
      <trkpt lat="48.98707" lon="4.51737">
        <ele>144.82</ele>
        <time>2021-08-09T17:31:45Z</time>
      </trkpt>
      <trkpt lat="48.98706" lon="4.51738">
        <ele>144.82</ele>
        <time>2021-08-09T17:32:02Z</time>
      </trkpt>
      <trkpt lat="48.98706" lon="4.5174">
        <ele>144.82</ele>
        <time>2021-08-09T17:32:03Z</time>
      </trkpt>
      <trkpt lat="48.98705" lon="4.51742">
        <ele>145.3</ele>
        <time>2021-08-09T17:32:08Z</time>
      </trkpt>
      <trkpt lat="48.98703" lon="4.51745">
        <ele>145.3</ele>
        <time>2021-08-09T17:32:09Z</time>
      </trkpt>
      <trkpt lat="48.98704" lon="4.51743">
        <ele>145.3</ele>
        <time>2021-08-09T17:32:13Z</time>
      </trkpt>
      <trkpt lat="48.98707" lon="4.51736">
        <ele>145.3</ele>
        <time>2021-08-09T17:32:40Z</time>
      </trkpt>
      <trkpt lat="48.98706" lon="4.51738">
        <ele>145.3</ele>
        <time>2021-08-09T17:32:55Z</time>
      </trkpt>
      <trkpt lat="48.98706" lon="4.51738">
        <ele>145.3</ele>
        <time>2021-08-09T17:33:11Z</time>
      </trkpt>
      <trkpt lat="48.98705" lon="4.51738">
        <ele>145.3</ele>
        <time>2021-08-09T17:33:34Z</time>
      </trkpt>
      <trkpt lat="48.98706" lon="4.51739">
        <ele>145.78</ele>
        <time>2021-08-09T17:33:47Z</time>
      </trkpt>
      <trkpt lat="48.98706" lon="4.51739">
        <ele>145.78</ele>
        <time>2021-08-09T17:34:01Z</time>
      </trkpt>
      <trkpt lat="48.98705" lon="4.51739">
        <ele>145.78</ele>
        <time>2021-08-09T17:34:19Z</time>
      </trkpt>
      <trkpt lat="48.98705" lon="4.51737">
        <ele>145.78</ele>
        <time>2021-08-09T17:34:42Z</time>
      </trkpt>
      <trkpt lat="48.98706" lon="4.51737">
        <ele>145.78</ele>
        <time>2021-08-09T17:35:02Z</time>
      </trkpt>
      <trkpt lat="48.98705" lon="4.51739">
        <ele>145.78</ele>
        <time>2021-08-09T17:35:22Z</time>
      </trkpt>
      <trkpt lat="48.98705" lon="4.51741">
        <ele>145.78</ele>
        <time>2021-08-09T17:35:37Z</time>
      </trkpt>
      <trkpt lat="48.98705" lon="4.51741">
        <ele>145.78</ele>
        <time>2021-08-09T17:35:56Z</time>
      </trkpt>
      <trkpt lat="48.98705" lon="4.5174">
        <ele>145.78</ele>
        <time>2021-08-09T17:36:18Z</time>
      </trkpt>
      <trkpt lat="48.98705" lon="4.51738">
        <ele>145.78</ele>
        <time>2021-08-09T17:36:34Z</time>
      </trkpt>
      <trkpt lat="48.98704" lon="4.51739">
        <ele>145.78</ele>
        <time>2021-08-09T17:36:38Z</time>
      </trkpt>
      <trkpt lat="48.98705" lon="4.51741">
        <ele>145.78</ele>
        <time>2021-08-09T17:36:43Z</time>
      </trkpt>
      <trkpt lat="48.98707" lon="4.51739">
        <ele>145.78</ele>
        <time>2021-08-09T17:36:56Z</time>
      </trkpt>
      <trkpt lat="48.98707" lon="4.51739">
        <ele>145.78</ele>
        <time>2021-08-09T17:37:11Z</time>
      </trkpt>
      <trkpt lat="48.98707" lon="4.51739">
        <ele>145.78</ele>
        <time>2021-08-09T17:37:27Z</time>
      </trkpt>
      <trkpt lat="48.98708" lon="4.51737">
        <ele>145.78</ele>
        <time>2021-08-09T17:37:40Z</time>
      </trkpt>
      <trkpt lat="48.98708" lon="4.51736">
        <ele>145.78</ele>
        <time>2021-08-09T17:37:53Z</time>
      </trkpt>
      <trkpt lat="48.98709" lon="4.51735">
        <ele>145.78</ele>
        <time>2021-08-09T17:38:12Z</time>
      </trkpt>
      <trkpt lat="48.98709" lon="4.51736">
        <ele>145.78</ele>
        <time>2021-08-09T17:38:30Z</time>
      </trkpt>
      <trkpt lat="48.98709" lon="4.51737">
        <ele>145.78</ele>
        <time>2021-08-09T17:38:44Z</time>
      </trkpt>
      <trkpt lat="48.98709" lon="4.51735">
        <ele>145.78</ele>
        <time>2021-08-09T17:39:08Z</time>
      </trkpt>
      <trkpt lat="48.98709" lon="4.51736">
        <ele>145.78</ele>
        <time>2021-08-09T17:39:25Z</time>
      </trkpt>
      <trkpt lat="48.98708" lon="4.51738">
        <ele>145.78</ele>
        <time>2021-08-09T17:39:38Z</time>
      </trkpt>
      <trkpt lat="48.98708" lon="4.51737">
        <ele>145.78</ele>
        <time>2021-08-09T17:39:49Z</time>
      </trkpt>
      <trkpt lat="48.98707" lon="4.51736">
        <ele>145.78</ele>
        <time>2021-08-09T17:39:59Z</time>
      </trkpt>
      <trkpt lat="48.98706" lon="4.51735">
        <ele>145.78</ele>
        <time>2021-08-09T17:40:01Z</time>
      </trkpt>
      <trkpt lat="48.98704" lon="4.51727">
        <ele>145.78</ele>
        <time>2021-08-09T17:40:05Z</time>
      </trkpt>
      <trkpt lat="48.98703" lon="4.51725">
        <ele>145.78</ele>
        <time>2021-08-09T17:40:10Z</time>
      </trkpt>
      <trkpt lat="48.98703" lon="4.51722">
        <ele>145.78</ele>
        <time>2021-08-09T17:40:26Z</time>
      </trkpt>
      <trkpt lat="48.98702" lon="4.51719">
        <ele>145.78</ele>
        <time>2021-08-09T17:40:38Z</time>
      </trkpt>
      <trkpt lat="48.98701" lon="4.51718">
        <ele>145.78</ele>
        <time>2021-08-09T17:40:50Z</time>
      </trkpt>
      <trkpt lat="48.987" lon="4.51717">
        <ele>145.78</ele>
        <time>2021-08-09T17:41:02Z</time>
      </trkpt>
      <trkpt lat="48.98701" lon="4.51717">
        <ele>145.78</ele>
        <time>2021-08-09T17:41:19Z</time>
      </trkpt>
      <trkpt lat="48.987" lon="4.51719">
        <ele>145.78</ele>
        <time>2021-08-09T17:41:35Z</time>
      </trkpt>
      <trkpt lat="48.98698" lon="4.51718">
        <ele>145.78</ele>
        <time>2021-08-09T17:41:46Z</time>
      </trkpt>
      <trkpt lat="48.98696" lon="4.51718">
        <ele>145.78</ele>
        <time>2021-08-09T17:42:00Z</time>
      </trkpt>
      <trkpt lat="48.98695" lon="4.51719">
        <ele>145.78</ele>
        <time>2021-08-09T17:42:16Z</time>
      </trkpt>
      <trkpt lat="48.98693" lon="4.51722">
        <ele>145.78</ele>
        <time>2021-08-09T17:42:40Z</time>
      </trkpt>
      <trkpt lat="48.98693" lon="4.51724">
        <ele>146.26</ele>
        <time>2021-08-09T17:42:54Z</time>
      </trkpt>
      <trkpt lat="48.98693" lon="4.51725">
        <ele>146.26</ele>
        <time>2021-08-09T17:43:08Z</time>
      </trkpt>
      <trkpt lat="48.98692" lon="4.51727">
        <ele>146.26</ele>
        <time>2021-08-09T17:43:27Z</time>
      </trkpt>
      <trkpt lat="48.98692" lon="4.51727">
        <ele>146.26</ele>
        <time>2021-08-09T17:43:42Z</time>
      </trkpt>
      <trkpt lat="48.98691" lon="4.51726">
        <ele>146.26</ele>
        <time>2021-08-09T17:43:59Z</time>
      </trkpt>
      <trkpt lat="48.98692" lon="4.51727">
        <ele>146.26</ele>
        <time>2021-08-09T17:44:13Z</time>
      </trkpt>
      <trkpt lat="48.98691" lon="4.51728">
        <ele>146.74</ele>
        <time>2021-08-09T17:44:27Z</time>
      </trkpt>
      <trkpt lat="48.98691" lon="4.51728">
        <ele>146.74</ele>
        <time>2021-08-09T17:44:43Z</time>
      </trkpt>
      <trkpt lat="48.98692" lon="4.51726">
        <ele>146.74</ele>
        <time>2021-08-09T17:45:02Z</time>
      </trkpt>
      <trkpt lat="48.98692" lon="4.51723">
        <ele>147.22</ele>
        <time>2021-08-09T17:45:19Z</time>
      </trkpt>
      <trkpt lat="48.98692" lon="4.51722">
        <ele>147.22</ele>
        <time>2021-08-09T17:45:39Z</time>
      </trkpt>
      <trkpt lat="48.98692" lon="4.51721">
        <ele>147.22</ele>
        <time>2021-08-09T17:45:53Z</time>
      </trkpt>
      <trkpt lat="48.98691" lon="4.5172">
        <ele>147.7</ele>
        <time>2021-08-09T17:46:06Z</time>
      </trkpt>
      <trkpt lat="48.98692" lon="4.5172">
        <ele>147.7</ele>
        <time>2021-08-09T17:46:27Z</time>
      </trkpt>
      <trkpt lat="48.98693" lon="4.51721">
        <ele>147.7</ele>
        <time>2021-08-09T17:46:42Z</time>
      </trkpt>
      <trkpt lat="48.98693" lon="4.5172">
        <ele>148.18</ele>
        <time>2021-08-09T17:46:55Z</time>
      </trkpt>
      <trkpt lat="48.98693" lon="4.5172">
        <ele>148.18</ele>
        <time>2021-08-09T17:47:15Z</time>
      </trkpt>
      <trkpt lat="48.98692" lon="4.51719">
        <ele>148.18</ele>
        <time>2021-08-09T17:47:24Z</time>
      </trkpt>
      <trkpt lat="48.98692" lon="4.51721">
        <ele>148.66</ele>
        <time>2021-08-09T17:47:42Z</time>
      </trkpt>
      <trkpt lat="48.98691" lon="4.51723">
        <ele>148.66</ele>
        <time>2021-08-09T17:48:03Z</time>
      </trkpt>
      <trkpt lat="48.98692" lon="4.51724">
        <ele>149.14</ele>
        <time>2021-08-09T17:48:25Z</time>
      </trkpt>
      <trkpt lat="48.98693" lon="4.51725">
        <ele>149.14</ele>
        <time>2021-08-09T17:48:37Z</time>
      </trkpt>
      <trkpt lat="48.98693" lon="4.51725">
        <ele>149.14</ele>
        <time>2021-08-09T17:48:49Z</time>
      </trkpt>
      <trkpt lat="48.98693" lon="4.51726">
        <ele>149.14</ele>
        <time>2021-08-09T17:49:03Z</time>
      </trkpt>
      <trkpt lat="48.98693" lon="4.51726">
        <ele>149.14</ele>
        <time>2021-08-09T17:49:15Z</time>
      </trkpt>
      <trkpt lat="48.98693" lon="4.51726">
        <ele>149.62</ele>
        <time>2021-08-09T17:49:27Z</time>
      </trkpt>
      <trkpt lat="48.98693" lon="4.51727">
        <ele>149.62</ele>
        <time>2021-08-09T17:49:41Z</time>
      </trkpt>
      <trkpt lat="48.98693" lon="4.51727">
        <ele>149.62</ele>
        <time>2021-08-09T17:49:55Z</time>
      </trkpt>
      <trkpt lat="48.98693" lon="4.51727">
        <ele>149.62</ele>
        <time>2021-08-09T17:50:08Z</time>
      </trkpt>
      <trkpt lat="48.98694" lon="4.51728">
        <ele>149.62</ele>
        <time>2021-08-09T17:50:28Z</time>
      </trkpt>
      <trkpt lat="48.98695" lon="4.51729">
        <ele>149.62</ele>
        <time>2021-08-09T17:50:51Z</time>
      </trkpt>
      <trkpt lat="48.98694" lon="4.51731">
        <ele>149.62</ele>
        <time>2021-08-09T17:51:16Z</time>
      </trkpt>
      <trkpt lat="48.98692" lon="4.51736">
        <ele>149.62</ele>
        <time>2021-08-09T17:51:44Z</time>
      </trkpt>
      <trkpt lat="48.98693" lon="4.51742">
        <ele>149.62</ele>
        <time>2021-08-09T17:52:07Z</time>
      </trkpt>
      <trkpt lat="48.98693" lon="4.51742">
        <ele>149.62</ele>
        <time>2021-08-09T17:52:25Z</time>
      </trkpt>
      <trkpt lat="48.98693" lon="4.51739">
        <ele>149.62</ele>
        <time>2021-08-09T17:52:57Z</time>
      </trkpt>
      <trkpt lat="48.98694" lon="4.51739">
        <ele>150.1</ele>
        <time>2021-08-09T17:53:25Z</time>
      </trkpt>
      <trkpt lat="48.98695" lon="4.5174">
        <ele>150.1</ele>
        <time>2021-08-09T17:53:51Z</time>
      </trkpt>
      <trkpt lat="48.98695" lon="4.5174">
        <ele>150.1</ele>
        <time>2021-08-09T17:54:15Z</time>
      </trkpt>
      <trkpt lat="48.98693" lon="4.51744">
        <ele>150.1</ele>
        <time>2021-08-09T17:54:40Z</time>
      </trkpt>
      <trkpt lat="48.98692" lon="4.51741">
        <ele>150.1</ele>
        <time>2021-08-09T17:55:03Z</time>
      </trkpt>
      <trkpt lat="48.98692" lon="4.5174">
        <ele>150.1</ele>
        <time>2021-08-09T17:55:24Z</time>
      </trkpt>
      <trkpt lat="48.98692" lon="4.51738">
        <ele>150.1</ele>
        <time>2021-08-09T17:55:51Z</time>
      </trkpt>
      <trkpt lat="48.98692" lon="4.51738">
        <ele>150.1</ele>
        <time>2021-08-09T17:56:13Z</time>
      </trkpt>
      <trkpt lat="48.98693" lon="4.51735">
        <ele>150.1</ele>
        <time>2021-08-09T17:56:31Z</time>
      </trkpt>
      <trkpt lat="48.98692" lon="4.51734">
        <ele>150.1</ele>
        <time>2021-08-09T17:56:49Z</time>
      </trkpt>
      <trkpt lat="48.9869" lon="4.51736">
        <ele>150.1</ele>
        <time>2021-08-09T17:57:14Z</time>
      </trkpt>
      <trkpt lat="48.98688" lon="4.51739">
        <ele>150.1</ele>
        <time>2021-08-09T17:57:35Z</time>
      </trkpt>
      <trkpt lat="48.98687" lon="4.5174">
        <ele>150.1</ele>
        <time>2021-08-09T17:57:59Z</time>
      </trkpt>
      <trkpt lat="48.98686" lon="4.51739">
        <ele>150.1</ele>
        <time>2021-08-09T17:58:16Z</time>
      </trkpt>
      <trkpt lat="48.98687" lon="4.51736">
        <ele>150.1</ele>
        <time>2021-08-09T17:58:36Z</time>
      </trkpt>
      <trkpt lat="48.98687" lon="4.51737">
        <ele>149.62</ele>
        <time>2021-08-09T17:59:05Z</time>
      </trkpt>
      <trkpt lat="48.98686" lon="4.51739">
        <ele>149.62</ele>
        <time>2021-08-09T17:59:21Z</time>
      </trkpt>
      <trkpt lat="48.98685" lon="4.51741">
        <ele>149.62</ele>
        <time>2021-08-09T17:59:48Z</time>
      </trkpt>
      <trkpt lat="48.98685" lon="4.51743">
        <ele>149.62</ele>
        <time>2021-08-09T18:00:12Z</time>
      </trkpt>
      <trkpt lat="48.98686" lon="4.51746">
        <ele>149.14</ele>
        <time>2021-08-09T18:00:37Z</time>
      </trkpt>
      <trkpt lat="48.98687" lon="4.51742">
        <ele>149.14</ele>
        <time>2021-08-09T18:01:04Z</time>
      </trkpt>
      <trkpt lat="48.98689" lon="4.51739">
        <ele>149.14</ele>
        <time>2021-08-09T18:01:27Z</time>
      </trkpt>
      <trkpt lat="48.9869" lon="4.51738">
        <ele>149.14</ele>
        <time>2021-08-09T18:01:47Z</time>
      </trkpt>
      <trkpt lat="48.98691" lon="4.51738">
        <ele>149.14</ele>
        <time>2021-08-09T18:01:59Z</time>
      </trkpt>
      <trkpt lat="48.98691" lon="4.51737">
        <ele>149.14</ele>
        <time>2021-08-09T18:02:17Z</time>
      </trkpt>
      <trkpt lat="48.9869" lon="4.51738">
        <ele>148.66</ele>
        <time>2021-08-09T18:02:37Z</time>
      </trkpt>
      <trkpt lat="48.98691" lon="4.51737">
        <ele>148.66</ele>
        <time>2021-08-09T18:02:58Z</time>
      </trkpt>
      <trkpt lat="48.98693" lon="4.51735">
        <ele>148.66</ele>
        <time>2021-08-09T18:03:18Z</time>
      </trkpt>
      <trkpt lat="48.98693" lon="4.51735">
        <ele>148.66</ele>
        <time>2021-08-09T18:03:41Z</time>
      </trkpt>
      <trkpt lat="48.98695" lon="4.51734">
        <ele>148.66</ele>
        <time>2021-08-09T18:03:57Z</time>
      </trkpt>
      <trkpt lat="48.98695" lon="4.51736">
        <ele>148.18</ele>
        <time>2021-08-09T18:04:14Z</time>
      </trkpt>
      <trkpt lat="48.98695" lon="4.51738">
        <ele>148.18</ele>
        <time>2021-08-09T18:04:35Z</time>
      </trkpt>
      <trkpt lat="48.98693" lon="4.51738">
        <ele>148.18</ele>
        <time>2021-08-09T18:04:57Z</time>
      </trkpt>
      <trkpt lat="48.98694" lon="4.51735">
        <ele>148.18</ele>
        <time>2021-08-09T18:05:09Z</time>
      </trkpt>
      <trkpt lat="48.98695" lon="4.51734">
        <ele>147.7</ele>
        <time>2021-08-09T18:05:24Z</time>
      </trkpt>
      <trkpt lat="48.98694" lon="4.51735">
        <ele>147.7</ele>
        <time>2021-08-09T18:05:45Z</time>
      </trkpt>
      <trkpt lat="48.98695" lon="4.51734">
        <ele>147.7</ele>
        <time>2021-08-09T18:06:03Z</time>
      </trkpt>
      <trkpt lat="48.98692" lon="4.51739">
        <ele>147.7</ele>
        <time>2021-08-09T18:06:26Z</time>
      </trkpt>
      <trkpt lat="48.9869" lon="4.51743">
        <ele>147.7</ele>
        <time>2021-08-09T18:06:49Z</time>
      </trkpt>
      <trkpt lat="48.98689" lon="4.51743">
        <ele>147.22</ele>
        <time>2021-08-09T18:07:07Z</time>
      </trkpt>
      <trkpt lat="48.98689" lon="4.51743">
        <ele>147.22</ele>
        <time>2021-08-09T18:07:27Z</time>
      </trkpt>
      <trkpt lat="48.9869" lon="4.51743">
        <ele>147.22</ele>
        <time>2021-08-09T18:07:48Z</time>
      </trkpt>
      <trkpt lat="48.98692" lon="4.51742">
        <ele>147.22</ele>
        <time>2021-08-09T18:08:10Z</time>
      </trkpt>
      <trkpt lat="48.98693" lon="4.5174">
        <ele>147.22</ele>
        <time>2021-08-09T18:08:28Z</time>
      </trkpt>
      <trkpt lat="48.98691" lon="4.51743">
        <ele>147.22</ele>
        <time>2021-08-09T18:08:44Z</time>
      </trkpt>
      <trkpt lat="48.98692" lon="4.51742">
        <ele>147.22</ele>
        <time>2021-08-09T18:09:03Z</time>
      </trkpt>
      <trkpt lat="48.98692" lon="4.51741">
        <ele>146.74</ele>
        <time>2021-08-09T18:09:16Z</time>
      </trkpt>
      <trkpt lat="48.98692" lon="4.51739">
        <ele>146.74</ele>
        <time>2021-08-09T18:09:30Z</time>
      </trkpt>
      <trkpt lat="48.98692" lon="4.5174">
        <ele>146.74</ele>
        <time>2021-08-09T18:09:46Z</time>
      </trkpt>
      <trkpt lat="48.98693" lon="4.51738">
        <ele>146.74</ele>
        <time>2021-08-09T18:09:57Z</time>
      </trkpt>
      <trkpt lat="48.98695" lon="4.51733">
        <ele>146.74</ele>
        <time>2021-08-09T18:10:02Z</time>
      </trkpt>
      <trkpt lat="48.98696" lon="4.51729">
        <ele>146.74</ele>
        <time>2021-08-09T18:10:20Z</time>
      </trkpt>
      <trkpt lat="48.98696" lon="4.51727">
        <ele>146.74</ele>
        <time>2021-08-09T18:10:32Z</time>
      </trkpt>
      <trkpt lat="48.98694" lon="4.51726">
        <ele>146.74</ele>
        <time>2021-08-09T18:10:34Z</time>
      </trkpt>
      <trkpt lat="48.98697" lon="4.51732">
        <ele>146.74</ele>
        <time>2021-08-09T18:10:39Z</time>
      </trkpt>
      <trkpt lat="48.98699" lon="4.51736">
        <ele>146.74</ele>
        <time>2021-08-09T18:10:41Z</time>
      </trkpt>
      <trkpt lat="48.98704" lon="4.51742">
        <ele>146.74</ele>
        <time>2021-08-09T18:10:50Z</time>
      </trkpt>
      <trkpt lat="48.98705" lon="4.51741">
        <ele>146.74</ele>
        <time>2021-08-09T18:11:03Z</time>
      </trkpt>
      <trkpt lat="48.98705" lon="4.51739">
        <ele>146.74</ele>
        <time>2021-08-09T18:11:17Z</time>
      </trkpt>
      <trkpt lat="48.98706" lon="4.51738">
        <ele>146.74</ele>
        <time>2021-08-09T18:11:26Z</time>
      </trkpt>
      <trkpt lat="48.98706" lon="4.51738">
        <ele>146.74</ele>
        <time>2021-08-09T18:11:45Z</time>
      </trkpt>
      <trkpt lat="48.98706" lon="4.51739">
        <ele>146.74</ele>
        <time>2021-08-09T18:12:08Z</time>
      </trkpt>
      <trkpt lat="48.98706" lon="4.5174">
        <ele>146.74</ele>
        <time>2021-08-09T18:12:19Z</time>
      </trkpt>
      <trkpt lat="48.98702" lon="4.51736">
        <ele>146.74</ele>
        <time>2021-08-09T18:12:24Z</time>
      </trkpt>
      <trkpt lat="48.98702" lon="4.51734">
        <ele>146.26</ele>
        <time>2021-08-09T18:12:25Z</time>
      </trkpt>
      <trkpt lat="48.98695" lon="4.51706">
        <ele>146.26</ele>
        <time>2021-08-09T18:12:32Z</time>
      </trkpt>
      <trkpt lat="48.98684" lon="4.51668">
        <ele>145.3</ele>
        <time>2021-08-09T18:12:38Z</time>
      </trkpt>
      <trkpt lat="48.98674" lon="4.51643">
        <ele>145.3</ele>
        <time>2021-08-09T18:12:42Z</time>
      </trkpt>
      <trkpt lat="48.98673" lon="4.51637">
        <ele>145.3</ele>
        <time>2021-08-09T18:12:43Z</time>
      </trkpt>
      <trkpt lat="48.98673" lon="4.51631">
        <ele>145.3</ele>
        <time>2021-08-09T18:12:44Z</time>
      </trkpt>
      <trkpt lat="48.98673" lon="4.51624">
        <ele>145.3</ele>
        <time>2021-08-09T18:12:45Z</time>
      </trkpt>
      <trkpt lat="48.98674" lon="4.51618">
        <ele>145.3</ele>
        <time>2021-08-09T18:12:46Z</time>
      </trkpt>
      <trkpt lat="48.98674" lon="4.51613">
        <ele>145.3</ele>
        <time>2021-08-09T18:12:47Z</time>
      </trkpt>
      <trkpt lat="48.98676" lon="4.516">
        <ele>146.26</ele>
        <time>2021-08-09T18:12:52Z</time>
      </trkpt>
      <trkpt lat="48.98674" lon="4.51601">
        <ele>146.26</ele>
        <time>2021-08-09T18:12:58Z</time>
      </trkpt>
      <trkpt lat="48.98673" lon="4.51602">
        <ele>146.26</ele>
        <time>2021-08-09T18:12:59Z</time>
      </trkpt>
      <trkpt lat="48.98672" lon="4.51603">
        <ele>146.26</ele>
        <time>2021-08-09T18:13:00Z</time>
      </trkpt>
      <trkpt lat="48.9867" lon="4.51605">
        <ele>146.26</ele>
        <time>2021-08-09T18:13:01Z</time>
      </trkpt>
      <trkpt lat="48.98669" lon="4.51606">
        <ele>146.26</ele>
        <time>2021-08-09T18:13:02Z</time>
      </trkpt>
      <trkpt lat="48.98667" lon="4.51604">
        <ele>146.26</ele>
        <time>2021-08-09T18:13:03Z</time>
      </trkpt>
      <trkpt lat="48.98666" lon="4.51602">
        <ele>146.26</ele>
        <time>2021-08-09T18:13:04Z</time>
      </trkpt>
      <trkpt lat="48.98665" lon="4.51599">
        <ele>146.26</ele>
        <time>2021-08-09T18:13:05Z</time>
      </trkpt>
      <trkpt lat="48.98664" lon="4.51596">
        <ele>146.26</ele>
        <time>2021-08-09T18:13:06Z</time>
      </trkpt>
      <trkpt lat="48.98659" lon="4.51588">
        <ele>146.26</ele>
        <time>2021-08-09T18:13:11Z</time>
      </trkpt>
      <trkpt lat="48.98657" lon="4.51588">
        <ele>146.26</ele>
        <time>2021-08-09T18:13:12Z</time>
      </trkpt>
      <trkpt lat="48.98647" lon="4.51594">
        <ele>146.26</ele>
        <time>2021-08-09T18:13:18Z</time>
      </trkpt>
      <trkpt lat="48.98645" lon="4.51592">
        <ele>146.26</ele>
        <time>2021-08-09T18:13:19Z</time>
      </trkpt>
      <trkpt lat="48.98644" lon="4.5159">
        <ele>146.26</ele>
        <time>2021-08-09T18:13:20Z</time>
      </trkpt>
      <trkpt lat="48.98643" lon="4.51587">
        <ele>146.26</ele>
        <time>2021-08-09T18:13:21Z</time>
      </trkpt>
      <trkpt lat="48.98642" lon="4.51584">
        <ele>146.26</ele>
        <time>2021-08-09T18:13:22Z</time>
      </trkpt>
      <trkpt lat="48.98641" lon="4.51581">
        <ele>146.26</ele>
        <time>2021-08-09T18:13:23Z</time>
      </trkpt>
      <trkpt lat="48.9863" lon="4.51556">
        <ele>146.26</ele>
        <time>2021-08-09T18:13:29Z</time>
      </trkpt>
      <trkpt lat="48.98631" lon="4.51549">
        <ele>146.26</ele>
        <time>2021-08-09T18:13:31Z</time>
      </trkpt>
      <trkpt lat="48.98641" lon="4.51542">
        <ele>146.26</ele>
        <time>2021-08-09T18:13:35Z</time>
      </trkpt>
      <trkpt lat="48.98643" lon="4.51545">
        <ele>146.26</ele>
        <time>2021-08-09T18:13:36Z</time>
      </trkpt>
      <trkpt lat="48.98644" lon="4.51548">
        <ele>146.26</ele>
        <time>2021-08-09T18:13:37Z</time>
      </trkpt>
      <trkpt lat="48.98651" lon="4.51562">
        <ele>146.26</ele>
        <time>2021-08-09T18:13:44Z</time>
      </trkpt>
      <trkpt lat="48.98653" lon="4.51564">
        <ele>146.26</ele>
        <time>2021-08-09T18:13:49Z</time>
      </trkpt>
      <trkpt lat="48.98654" lon="4.51562">
        <ele>146.26</ele>
        <time>2021-08-09T18:13:56Z</time>
      </trkpt>
      <trkpt lat="48.98654" lon="4.51563">
        <ele>146.26</ele>
        <time>2021-08-09T18:14:15Z</time>
      </trkpt>
      <trkpt lat="48.98655" lon="4.51563">
        <ele>146.26</ele>
        <time>2021-08-09T18:14:37Z</time>
      </trkpt>
      <trkpt lat="48.98654" lon="4.51567">
        <ele>146.26</ele>
        <time>2021-08-09T18:14:58Z</time>
      </trkpt>
      <trkpt lat="48.98654" lon="4.51569">
        <ele>146.26</ele>
        <time>2021-08-09T18:15:11Z</time>
      </trkpt>
      <trkpt lat="48.98655" lon="4.51565">
        <ele>146.26</ele>
        <time>2021-08-09T18:15:33Z</time>
      </trkpt>
      <trkpt lat="48.98654" lon="4.51564">
        <ele>146.26</ele>
        <time>2021-08-09T18:15:50Z</time>
      </trkpt>
      <trkpt lat="48.98654" lon="4.51563">
        <ele>145.78</ele>
        <time>2021-08-09T18:16:06Z</time>
      </trkpt>
      <trkpt lat="48.98653" lon="4.51562">
        <ele>145.78</ele>
        <time>2021-08-09T18:16:12Z</time>
      </trkpt>
      <trkpt lat="48.98653" lon="4.51563">
        <ele>145.78</ele>
        <time>2021-08-09T18:16:23Z</time>
      </trkpt>
      <trkpt lat="48.98653" lon="4.51562">
        <ele>145.78</ele>
        <time>2021-08-09T18:16:42Z</time>
      </trkpt>
      <trkpt lat="48.98654" lon="4.51562">
        <ele>145.78</ele>
        <time>2021-08-09T18:17:09Z</time>
      </trkpt>
      <trkpt lat="48.98654" lon="4.51564">
        <ele>145.78</ele>
        <time>2021-08-09T18:17:26Z</time>
      </trkpt>
      <trkpt lat="48.98652" lon="4.51567">
        <ele>145.78</ele>
        <time>2021-08-09T18:17:54Z</time>
      </trkpt>
      <trkpt lat="48.98653" lon="4.51566">
        <ele>145.78</ele>
        <time>2021-08-09T18:18:13Z</time>
      </trkpt>
      <trkpt lat="48.98654" lon="4.51566">
        <ele>145.3</ele>
        <time>2021-08-09T18:18:23Z</time>
      </trkpt>
      <trkpt lat="48.98654" lon="4.51566">
        <ele>145.3</ele>
        <time>2021-08-09T18:18:41Z</time>
      </trkpt>
      <trkpt lat="48.98654" lon="4.51562">
        <ele>145.3</ele>
        <time>2021-08-09T18:18:56Z</time>
      </trkpt>
      <trkpt lat="48.98654" lon="4.51564">
        <ele>145.3</ele>
        <time>2021-08-09T18:19:19Z</time>
      </trkpt>
      <trkpt lat="48.98653" lon="4.51564">
        <ele>145.3</ele>
        <time>2021-08-09T18:19:39Z</time>
      </trkpt>
      <trkpt lat="48.98654" lon="4.51564">
        <ele>145.3</ele>
        <time>2021-08-09T18:19:58Z</time>
      </trkpt>
      <trkpt lat="48.98654" lon="4.51566">
        <ele>145.3</ele>
        <time>2021-08-09T18:20:12Z</time>
      </trkpt>
      <trkpt lat="48.98654" lon="4.51565">
        <ele>145.3</ele>
        <time>2021-08-09T18:20:32Z</time>
      </trkpt>
      <trkpt lat="48.98654" lon="4.51565">
        <ele>145.3</ele>
        <time>2021-08-09T18:20:53Z</time>
      </trkpt>
      <trkpt lat="48.98653" lon="4.51565">
        <ele>145.3</ele>
        <time>2021-08-09T18:21:07Z</time>
      </trkpt>
      <trkpt lat="48.98652" lon="4.51566">
        <ele>145.3</ele>
        <time>2021-08-09T18:21:11Z</time>
      </trkpt>
      <trkpt lat="48.98651" lon="4.51565">
        <ele>145.3</ele>
        <time>2021-08-09T18:21:16Z</time>
      </trkpt>
      <trkpt lat="48.98654" lon="4.51566">
        <ele>145.3</ele>
        <time>2021-08-09T18:21:37Z</time>
      </trkpt>
      <trkpt lat="48.98654" lon="4.51568">
        <ele>145.3</ele>
        <time>2021-08-09T18:21:56Z</time>
      </trkpt>
      <trkpt lat="48.98653" lon="4.51564">
        <ele>145.3</ele>
        <time>2021-08-09T18:22:12Z</time>
      </trkpt>
      <trkpt lat="48.98653" lon="4.51565">
        <ele>145.3</ele>
        <time>2021-08-09T18:22:29Z</time>
      </trkpt>
      <trkpt lat="48.98655" lon="4.51567">
        <ele>144.82</ele>
        <time>2021-08-09T18:22:49Z</time>
      </trkpt>
      <trkpt lat="48.98653" lon="4.51566">
        <ele>144.82</ele>
        <time>2021-08-09T18:23:09Z</time>
      </trkpt>
      <trkpt lat="48.98653" lon="4.51567">
        <ele>144.82</ele>
        <time>2021-08-09T18:23:28Z</time>
      </trkpt>
      <trkpt lat="48.98655" lon="4.51563">
        <ele>144.82</ele>
        <time>2021-08-09T18:23:52Z</time>
      </trkpt>
      <trkpt lat="48.98655" lon="4.51566">
        <ele>144.82</ele>
        <time>2021-08-09T18:24:14Z</time>
      </trkpt>
      <trkpt lat="48.98655" lon="4.51565">
        <ele>144.82</ele>
        <time>2021-08-09T18:24:29Z</time>
      </trkpt>
      <trkpt lat="48.98655" lon="4.51563">
        <ele>144.82</ele>
        <time>2021-08-09T18:24:52Z</time>
      </trkpt>
      <trkpt lat="48.98654" lon="4.51564">
        <ele>144.82</ele>
        <time>2021-08-09T18:25:08Z</time>
      </trkpt>
      <trkpt lat="48.98654" lon="4.51565">
        <ele>143.37</ele>
        <time>2021-08-09T18:25:33Z</time>
      </trkpt>
      <trkpt lat="48.98655" lon="4.51565">
        <ele>143.37</ele>
        <time>2021-08-09T18:25:48Z</time>
      </trkpt>
      <trkpt lat="48.98657" lon="4.51564">
        <ele>143.37</ele>
        <time>2021-08-09T18:26:03Z</time>
      </trkpt>
      <trkpt lat="48.98657" lon="4.51563">
        <ele>143.37</ele>
        <time>2021-08-09T18:26:09Z</time>
      </trkpt>
      <trkpt lat="48.98657" lon="4.51564">
        <ele>143.37</ele>
        <time>2021-08-09T18:26:16Z</time>
      </trkpt>
      <trkpt lat="48.98657" lon="4.51566">
        <ele>143.37</ele>
        <time>2021-08-09T18:26:34Z</time>
      </trkpt>
      <trkpt lat="48.98657" lon="4.51564">
        <ele>143.37</ele>
        <time>2021-08-09T18:26:52Z</time>
      </trkpt>
      <trkpt lat="48.98657" lon="4.51562">
        <ele>143.37</ele>
        <time>2021-08-09T18:27:11Z</time>
      </trkpt>
      <trkpt lat="48.98657" lon="4.51561">
        <ele>143.37</ele>
        <time>2021-08-09T18:27:28Z</time>
      </trkpt>
      <trkpt lat="48.98656" lon="4.51561">
        <ele>143.37</ele>
        <time>2021-08-09T18:27:49Z</time>
      </trkpt>
      <trkpt lat="48.98658" lon="4.51565">
        <ele>143.37</ele>
        <time>2021-08-09T18:28:09Z</time>
      </trkpt>
      <trkpt lat="48.98656" lon="4.51565">
        <ele>143.37</ele>
        <time>2021-08-09T18:28:26Z</time>
      </trkpt>
      <trkpt lat="48.98657" lon="4.51566">
        <ele>143.37</ele>
        <time>2021-08-09T18:28:40Z</time>
      </trkpt>
      <trkpt lat="48.98656" lon="4.51565">
        <ele>142.89</ele>
        <time>2021-08-09T18:29:01Z</time>
      </trkpt>
      <trkpt lat="48.98655" lon="4.51565">
        <ele>142.89</ele>
        <time>2021-08-09T18:29:20Z</time>
      </trkpt>
      <trkpt lat="48.98653" lon="4.51564">
        <ele>142.89</ele>
        <time>2021-08-09T18:29:35Z</time>
      </trkpt>
      <trkpt lat="48.98652" lon="4.51565">
        <ele>142.89</ele>
        <time>2021-08-09T18:30:00Z</time>
      </trkpt>
      <trkpt lat="48.98653" lon="4.51565">
        <ele>142.89</ele>
        <time>2021-08-09T18:30:20Z</time>
      </trkpt>
      <trkpt lat="48.98652" lon="4.51564">
        <ele>142.89</ele>
        <time>2021-08-09T18:30:41Z</time>
      </trkpt>
      <trkpt lat="48.98654" lon="4.51566">
        <ele>142.89</ele>
        <time>2021-08-09T18:30:58Z</time>
      </trkpt>
      <trkpt lat="48.98657" lon="4.51566">
        <ele>142.89</ele>
        <time>2021-08-09T18:31:14Z</time>
      </trkpt>
      <trkpt lat="48.98658" lon="4.51564">
        <ele>142.89</ele>
        <time>2021-08-09T18:31:30Z</time>
      </trkpt>
      <trkpt lat="48.98656" lon="4.51564">
        <ele>142.89</ele>
        <time>2021-08-09T18:31:48Z</time>
      </trkpt>
      <trkpt lat="48.98655" lon="4.51565">
        <ele>142.89</ele>
        <time>2021-08-09T18:32:07Z</time>
      </trkpt>
      <trkpt lat="48.98654" lon="4.51566">
        <ele>142.41</ele>
        <time>2021-08-09T18:32:29Z</time>
      </trkpt>
      <trkpt lat="48.98654" lon="4.51568">
        <ele>142.41</ele>
        <time>2021-08-09T18:32:50Z</time>
      </trkpt>
      <trkpt lat="48.98652" lon="4.51569">
        <ele>142.41</ele>
        <time>2021-08-09T18:33:12Z</time>
      </trkpt>
      <trkpt lat="48.98654" lon="4.51565">
        <ele>141.93</ele>
        <time>2021-08-09T18:33:35Z</time>
      </trkpt>
      <trkpt lat="48.98655" lon="4.51565">
        <ele>141.93</ele>
        <time>2021-08-09T18:33:50Z</time>
      </trkpt>
      <trkpt lat="48.98654" lon="4.51568">
        <ele>141.93</ele>
        <time>2021-08-09T18:34:12Z</time>
      </trkpt>
      <trkpt lat="48.98653" lon="4.51568">
        <ele>141.93</ele>
        <time>2021-08-09T18:34:28Z</time>
      </trkpt>
      <trkpt lat="48.98651" lon="4.51566">
        <ele>141.93</ele>
        <time>2021-08-09T18:34:47Z</time>
      </trkpt>
      <trkpt lat="48.98653" lon="4.51565">
        <ele>141.93</ele>
        <time>2021-08-09T18:34:57Z</time>
      </trkpt>
      <trkpt lat="48.98656" lon="4.51564">
        <ele>141.93</ele>
        <time>2021-08-09T18:35:16Z</time>
      </trkpt>
      <trkpt lat="48.98656" lon="4.51567">
        <ele>141.93</ele>
        <time>2021-08-09T18:35:23Z</time>
      </trkpt>
      <trkpt lat="48.98657" lon="4.51572">
        <ele>141.93</ele>
        <time>2021-08-09T18:35:26Z</time>
      </trkpt>
      <trkpt lat="48.98657" lon="4.51575">
        <ele>141.93</ele>
        <time>2021-08-09T18:35:27Z</time>
      </trkpt>
      <trkpt lat="48.98658" lon="4.51577">
        <ele>141.93</ele>
        <time>2021-08-09T18:35:28Z</time>
      </trkpt>
      <trkpt lat="48.98658" lon="4.51579">
        <ele>141.93</ele>
        <time>2021-08-09T18:35:29Z</time>
      </trkpt>
      <trkpt lat="48.98659" lon="4.51581">
        <ele>141.93</ele>
        <time>2021-08-09T18:35:30Z</time>
      </trkpt>
      <trkpt lat="48.9866" lon="4.51583">
        <ele>141.93</ele>
        <time>2021-08-09T18:35:31Z</time>
      </trkpt>
      <trkpt lat="48.98662" lon="4.51586">
        <ele>141.93</ele>
        <time>2021-08-09T18:35:32Z</time>
      </trkpt>
      <trkpt lat="48.98663" lon="4.51589">
        <ele>141.93</ele>
        <time>2021-08-09T18:35:33Z</time>
      </trkpt>
      <trkpt lat="48.98664" lon="4.51592">
        <ele>141.93</ele>
        <time>2021-08-09T18:35:34Z</time>
      </trkpt>
      <trkpt lat="48.98666" lon="4.51596">
        <ele>141.93</ele>
        <time>2021-08-09T18:35:35Z</time>
      </trkpt>
      <trkpt lat="48.98674" lon="4.51625">
        <ele>141.93</ele>
        <time>2021-08-09T18:35:43Z</time>
      </trkpt>
      <trkpt lat="48.98676" lon="4.51627">
        <ele>141.93</ele>
        <time>2021-08-09T18:35:44Z</time>
      </trkpt>
      <trkpt lat="48.98679" lon="4.51628">
        <ele>141.93</ele>
        <time>2021-08-09T18:35:45Z</time>
      </trkpt>
      <trkpt lat="48.98682" lon="4.51628">
        <ele>141.93</ele>
        <time>2021-08-09T18:35:46Z</time>
      </trkpt>
      <trkpt lat="48.98684" lon="4.51627">
        <ele>141.93</ele>
        <time>2021-08-09T18:35:47Z</time>
      </trkpt>
      <trkpt lat="48.98707" lon="4.5162">
        <ele>141.93</ele>
        <time>2021-08-09T18:35:53Z</time>
      </trkpt>
      <trkpt lat="48.98711" lon="4.51619">
        <ele>141.93</ele>
        <time>2021-08-09T18:35:54Z</time>
      </trkpt>
      <trkpt lat="48.98745" lon="4.51609">
        <ele>141.93</ele>
        <time>2021-08-09T18:36:02Z</time>
      </trkpt>
      <trkpt lat="48.98762" lon="4.51595">
        <ele>141.93</ele>
        <time>2021-08-09T18:36:07Z</time>
      </trkpt>
      <trkpt lat="48.98763" lon="4.5159">
        <ele>141.93</ele>
        <time>2021-08-09T18:36:08Z</time>
      </trkpt>
      <trkpt lat="48.98763" lon="4.51585">
        <ele>141.93</ele>
        <time>2021-08-09T18:36:09Z</time>
      </trkpt>
      <trkpt lat="48.98763" lon="4.51578">
        <ele>141.93</ele>
        <time>2021-08-09T18:36:10Z</time>
      </trkpt>
      <trkpt lat="48.98763" lon="4.51572">
        <ele>141.93</ele>
        <time>2021-08-09T18:36:11Z</time>
      </trkpt>
      <trkpt lat="48.98762" lon="4.51554">
        <ele>143.37</ele>
        <time>2021-08-09T18:36:14Z</time>
      </trkpt>
      <trkpt lat="48.98757" lon="4.51495">
        <ele>143.37</ele>
        <time>2021-08-09T18:36:23Z</time>
      </trkpt>
      <trkpt lat="48.98757" lon="4.5149">
        <ele>143.37</ele>
        <time>2021-08-09T18:36:24Z</time>
      </trkpt>
      <trkpt lat="48.98757" lon="4.51486">
        <ele>143.37</ele>
        <time>2021-08-09T18:36:25Z</time>
      </trkpt>
      <trkpt lat="48.98757" lon="4.51485">
        <ele>143.37</ele>
        <time>2021-08-09T18:36:30Z</time>
      </trkpt>
      <trkpt lat="48.98756" lon="4.51485">
        <ele>143.37</ele>
        <time>2021-08-09T18:36:33Z</time>
      </trkpt>
      <trkpt lat="48.98755" lon="4.51486">
        <ele>143.37</ele>
        <time>2021-08-09T18:36:40Z</time>
      </trkpt>
      <trkpt lat="48.98755" lon="4.51484">
        <ele>143.37</ele>
        <time>2021-08-09T18:36:43Z</time>
      </trkpt>
      <trkpt lat="48.98755" lon="4.51483">
        <ele>143.37</ele>
        <time>2021-08-09T18:36:44Z</time>
      </trkpt>
      <trkpt lat="48.98753" lon="4.51464">
        <ele>143.37</ele>
        <time>2021-08-09T18:36:49Z</time>
      </trkpt>
      <trkpt lat="48.98751" lon="4.51452">
        <ele>143.37</ele>
        <time>2021-08-09T18:36:51Z</time>
      </trkpt>
      <trkpt lat="48.9875" lon="4.51448">
        <ele>143.37</ele>
        <time>2021-08-09T18:36:52Z</time>
      </trkpt>
      <trkpt lat="48.98736" lon="4.51402">
        <ele>143.37</ele>
        <time>2021-08-09T18:37:00Z</time>
      </trkpt>
      <trkpt lat="48.98715" lon="4.51337">
        <ele>143.85</ele>
        <time>2021-08-09T18:37:11Z</time>
      </trkpt>
      <trkpt lat="48.98701" lon="4.51294">
        <ele>143.85</ele>
        <time>2021-08-09T18:37:18Z</time>
      </trkpt>
      <trkpt lat="48.987" lon="4.51289">
        <ele>143.85</ele>
        <time>2021-08-09T18:37:19Z</time>
      </trkpt>
      <trkpt lat="48.987" lon="4.51285">
        <ele>143.85</ele>
        <time>2021-08-09T18:37:20Z</time>
      </trkpt>
      <trkpt lat="48.987" lon="4.51284">
        <ele>143.85</ele>
        <time>2021-08-09T18:37:25Z</time>
      </trkpt>
      <trkpt lat="48.98701" lon="4.51284">
        <ele>143.85</ele>
        <time>2021-08-09T18:37:36Z</time>
      </trkpt>
      <trkpt lat="48.98699" lon="4.51286">
        <ele>143.85</ele>
        <time>2021-08-09T18:37:57Z</time>
      </trkpt>
      <trkpt lat="48.987" lon="4.51286">
        <ele>143.85</ele>
        <time>2021-08-09T18:38:06Z</time>
      </trkpt>
      <trkpt lat="48.98699" lon="4.51284">
        <ele>143.85</ele>
        <time>2021-08-09T18:38:14Z</time>
      </trkpt>
      <trkpt lat="48.98691" lon="4.51263">
        <ele>143.85</ele>
        <time>2021-08-09T18:38:20Z</time>
      </trkpt>
      <trkpt lat="48.98679" lon="4.51224">
        <ele>143.85</ele>
        <time>2021-08-09T18:38:27Z</time>
      </trkpt>
      <trkpt lat="48.9866" lon="4.51162">
        <ele>143.85</ele>
        <time>2021-08-09T18:38:37Z</time>
      </trkpt>
      <trkpt lat="48.98648" lon="4.5112">
        <ele>143.85</ele>
        <time>2021-08-09T18:38:44Z</time>
      </trkpt>
      <trkpt lat="48.98645" lon="4.51115">
        <ele>143.85</ele>
        <time>2021-08-09T18:38:45Z</time>
      </trkpt>
      <trkpt lat="48.98641" lon="4.51112">
        <ele>142.41</ele>
        <time>2021-08-09T18:38:46Z</time>
      </trkpt>
      <trkpt lat="48.98637" lon="4.51112">
        <ele>142.41</ele>
        <time>2021-08-09T18:38:47Z</time>
      </trkpt>
      <trkpt lat="48.98633" lon="4.51113">
        <ele>142.41</ele>
        <time>2021-08-09T18:38:48Z</time>
      </trkpt>
      <trkpt lat="48.98628" lon="4.51115">
        <ele>142.41</ele>
        <time>2021-08-09T18:38:49Z</time>
      </trkpt>
      <trkpt lat="48.98623" lon="4.51117">
        <ele>141.93</ele>
        <time>2021-08-09T18:38:50Z</time>
      </trkpt>
      <trkpt lat="48.98592" lon="4.51128">
        <ele>141.45</ele>
        <time>2021-08-09T18:38:57Z</time>
      </trkpt>
      <trkpt lat="48.98588" lon="4.51132">
        <ele>141.45</ele>
        <time>2021-08-09T18:38:58Z</time>
      </trkpt>
      <trkpt lat="48.98586" lon="4.51137">
        <ele>141.45</ele>
        <time>2021-08-09T18:38:59Z</time>
      </trkpt>
      <trkpt lat="48.98585" lon="4.51143">
        <ele>141.45</ele>
        <time>2021-08-09T18:39:00Z</time>
      </trkpt>
      <trkpt lat="48.98584" lon="4.51149">
        <ele>141.45</ele>
        <time>2021-08-09T18:39:01Z</time>
      </trkpt>
      <trkpt lat="48.98585" lon="4.51155">
        <ele>141.45</ele>
        <time>2021-08-09T18:39:02Z</time>
      </trkpt>
      <trkpt lat="48.98585" lon="4.51162">
        <ele>141.45</ele>
        <time>2021-08-09T18:39:03Z</time>
      </trkpt>
      <trkpt lat="48.98586" lon="4.51237">
        <ele>141.45</ele>
        <time>2021-08-09T18:39:13Z</time>
      </trkpt>
      <trkpt lat="48.98586" lon="4.51328">
        <ele>141.45</ele>
        <time>2021-08-09T18:39:25Z</time>
      </trkpt>
      <trkpt lat="48.98589" lon="4.51409">
        <ele>141.45</ele>
        <time>2021-08-09T18:39:36Z</time>
      </trkpt>
      <trkpt lat="48.9859" lon="4.51423">
        <ele>141.45</ele>
        <time>2021-08-09T18:39:38Z</time>
      </trkpt>
      <trkpt lat="48.98589" lon="4.5143">
        <ele>141.45</ele>
        <time>2021-08-09T18:39:39Z</time>
      </trkpt>
      <trkpt lat="48.98586" lon="4.51436">
        <ele>141.45</ele>
        <time>2021-08-09T18:39:40Z</time>
      </trkpt>
      <trkpt lat="48.98583" lon="4.51439">
        <ele>141.45</ele>
        <time>2021-08-09T18:39:41Z</time>
      </trkpt>
      <trkpt lat="48.98579" lon="4.51441">
        <ele>141.45</ele>
        <time>2021-08-09T18:39:42Z</time>
      </trkpt>
      <trkpt lat="48.98574" lon="4.51441">
        <ele>141.45</ele>
        <time>2021-08-09T18:39:43Z</time>
      </trkpt>
      <trkpt lat="48.9853" lon="4.51457">
        <ele>140.97</ele>
        <time>2021-08-09T18:39:52Z</time>
      </trkpt>
      <trkpt lat="48.98507" lon="4.51473">
        <ele>140.97</ele>
        <time>2021-08-09T18:39:57Z</time>
      </trkpt>
      <trkpt lat="48.98466" lon="4.51517">
        <ele>140.97</ele>
        <time>2021-08-09T18:40:07Z</time>
      </trkpt>
      <trkpt lat="48.98427" lon="4.5156">
        <ele>140.97</ele>
        <time>2021-08-09T18:40:17Z</time>
      </trkpt>
      <trkpt lat="48.98414" lon="4.51576">
        <ele>140.97</ele>
        <time>2021-08-09T18:40:21Z</time>
      </trkpt>
      <trkpt lat="48.98374" lon="4.51621">
        <ele>140.97</ele>
        <time>2021-08-09T18:40:32Z</time>
      </trkpt>
      <trkpt lat="48.98365" lon="4.51645">
        <ele>140.97</ele>
        <time>2021-08-09T18:40:37Z</time>
      </trkpt>
      <trkpt lat="48.98366" lon="4.51649">
        <ele>140.97</ele>
        <time>2021-08-09T18:40:38Z</time>
      </trkpt>
      <trkpt lat="48.98367" lon="4.51655">
        <ele>140.97</ele>
        <time>2021-08-09T18:40:39Z</time>
      </trkpt>
      <trkpt lat="48.98376" lon="4.51681">
        <ele>140.97</ele>
        <time>2021-08-09T18:40:43Z</time>
      </trkpt>
      <trkpt lat="48.98397" lon="4.51737">
        <ele>141.93</ele>
        <time>2021-08-09T18:40:52Z</time>
      </trkpt>
      <trkpt lat="48.98408" lon="4.5178">
        <ele>141.93</ele>
        <time>2021-08-09T18:40:59Z</time>
      </trkpt>
      <trkpt lat="48.98409" lon="4.51786">
        <ele>141.93</ele>
        <time>2021-08-09T18:41:00Z</time>
      </trkpt>
      <trkpt lat="48.98416" lon="4.5182">
        <ele>141.93</ele>
        <time>2021-08-09T18:41:05Z</time>
      </trkpt>
      <trkpt lat="48.98417" lon="4.51826">
        <ele>141.93</ele>
        <time>2021-08-09T18:41:06Z</time>
      </trkpt>
      <trkpt lat="48.98423" lon="4.5186">
        <ele>141.93</ele>
        <time>2021-08-09T18:41:13Z</time>
      </trkpt>
      <trkpt lat="48.98421" lon="4.51865">
        <ele>141.93</ele>
        <time>2021-08-09T18:41:15Z</time>
      </trkpt>
      <trkpt lat="48.9842" lon="4.51866">
        <ele>141.93</ele>
        <time>2021-08-09T18:41:16Z</time>
      </trkpt>
      <trkpt lat="48.98419" lon="4.51865">
        <ele>141.93</ele>
        <time>2021-08-09T18:41:17Z</time>
      </trkpt>
      <trkpt lat="48.98418" lon="4.51862">
        <ele>141.93</ele>
        <time>2021-08-09T18:41:18Z</time>
      </trkpt>
      <trkpt lat="48.98418" lon="4.5186">
        <ele>141.93</ele>
        <time>2021-08-09T18:41:19Z</time>
      </trkpt>
      <trkpt lat="48.9842" lon="4.5186">
        <ele>141.93</ele>
        <time>2021-08-09T18:41:20Z</time>
      </trkpt>
      <trkpt lat="48.98421" lon="4.51862">
        <ele>141.93</ele>
        <time>2021-08-09T18:41:21Z</time>
      </trkpt>
      <trkpt lat="48.98423" lon="4.51866">
        <ele>141.93</ele>
        <time>2021-08-09T18:41:22Z</time>
      </trkpt>
      <trkpt lat="48.98424" lon="4.51871">
        <ele>141.93</ele>
        <time>2021-08-09T18:41:23Z</time>
      </trkpt>
      <trkpt lat="48.98424" lon="4.51874">
        <ele>141.93</ele>
        <time>2021-08-09T18:41:24Z</time>
      </trkpt>
      <trkpt lat="48.98424" lon="4.51879">
        <ele>141.93</ele>
        <time>2021-08-09T18:41:25Z</time>
      </trkpt>
      <trkpt lat="48.9843" lon="4.51911">
        <ele>141.93</ele>
        <time>2021-08-09T18:41:32Z</time>
      </trkpt>
      <trkpt lat="48.98435" lon="4.51963">
        <ele>142.41</ele>
        <time>2021-08-09T18:41:40Z</time>
      </trkpt>
      <trkpt lat="48.98436" lon="4.51977">
        <ele>142.41</ele>
        <time>2021-08-09T18:41:42Z</time>
      </trkpt>
      <trkpt lat="48.98436" lon="4.52016">
        <ele>142.41</ele>
        <time>2021-08-09T18:41:47Z</time>
      </trkpt>
      <trkpt lat="48.98433" lon="4.52086">
        <ele>142.41</ele>
        <time>2021-08-09T18:41:56Z</time>
      </trkpt>
      <trkpt lat="48.98441" lon="4.52162">
        <ele>142.41</ele>
        <time>2021-08-09T18:42:06Z</time>
      </trkpt>
      <trkpt lat="48.98449" lon="4.52246">
        <ele>142.89</ele>
        <time>2021-08-09T18:42:17Z</time>
      </trkpt>
      <trkpt lat="48.98464" lon="4.52324">
        <ele>142.89</ele>
        <time>2021-08-09T18:42:27Z</time>
      </trkpt>
      <trkpt lat="48.9849" lon="4.52415">
        <ele>142.89</ele>
        <time>2021-08-09T18:42:39Z</time>
      </trkpt>
      <trkpt lat="48.98508" lon="4.52483">
        <ele>142.89</ele>
        <time>2021-08-09T18:42:48Z</time>
      </trkpt>
      <trkpt lat="48.98512" lon="4.52539">
        <ele>142.89</ele>
        <time>2021-08-09T18:42:55Z</time>
      </trkpt>
      <trkpt lat="48.98513" lon="4.52624">
        <ele>142.89</ele>
        <time>2021-08-09T18:43:06Z</time>
      </trkpt>
      <trkpt lat="48.98519" lon="4.52707">
        <ele>142.89</ele>
        <time>2021-08-09T18:43:17Z</time>
      </trkpt>
      <trkpt lat="48.98521" lon="4.52714">
        <ele>142.89</ele>
        <time>2021-08-09T18:43:18Z</time>
      </trkpt>
      <trkpt lat="48.98526" lon="4.52736">
        <ele>142.89</ele>
        <time>2021-08-09T18:43:21Z</time>
      </trkpt>
      <trkpt lat="48.98527" lon="4.52745">
        <ele>142.89</ele>
        <time>2021-08-09T18:43:22Z</time>
      </trkpt>
      <trkpt lat="48.98526" lon="4.52751">
        <ele>142.89</ele>
        <time>2021-08-09T18:43:23Z</time>
      </trkpt>
      <trkpt lat="48.98525" lon="4.52758">
        <ele>142.89</ele>
        <time>2021-08-09T18:43:24Z</time>
      </trkpt>
      <trkpt lat="48.98522" lon="4.52764">
        <ele>142.89</ele>
        <time>2021-08-09T18:43:25Z</time>
      </trkpt>
      <trkpt lat="48.98517" lon="4.52767">
        <ele>142.89</ele>
        <time>2021-08-09T18:43:26Z</time>
      </trkpt>
      <trkpt lat="48.98513" lon="4.52767">
        <ele>142.89</ele>
        <time>2021-08-09T18:43:27Z</time>
      </trkpt>
      <trkpt lat="48.98508" lon="4.52767">
        <ele>142.89</ele>
        <time>2021-08-09T18:43:28Z</time>
      </trkpt>
      <trkpt lat="48.98473" lon="4.52774">
        <ele>143.37</ele>
        <time>2021-08-09T18:43:35Z</time>
      </trkpt>
      <trkpt lat="48.98468" lon="4.52776">
        <ele>143.37</ele>
        <time>2021-08-09T18:43:36Z</time>
      </trkpt>
      <trkpt lat="48.98459" lon="4.5278">
        <ele>143.85</ele>
        <time>2021-08-09T18:43:38Z</time>
      </trkpt>
      <trkpt lat="48.98454" lon="4.52781">
        <ele>143.85</ele>
        <time>2021-08-09T18:43:39Z</time>
      </trkpt>
      <trkpt lat="48.98448" lon="4.52783">
        <ele>143.85</ele>
        <time>2021-08-09T18:43:40Z</time>
      </trkpt>
      <trkpt lat="48.98443" lon="4.52784">
        <ele>143.85</ele>
        <time>2021-08-09T18:43:41Z</time>
      </trkpt>
      <trkpt lat="48.98438" lon="4.52785">
        <ele>143.85</ele>
        <time>2021-08-09T18:43:42Z</time>
      </trkpt>
      <trkpt lat="48.98392" lon="4.52797">
        <ele>144.34</ele>
        <time>2021-08-09T18:43:52Z</time>
      </trkpt>
      <trkpt lat="48.9836" lon="4.52807">
        <ele>145.3</ele>
        <time>2021-08-09T18:44:00Z</time>
      </trkpt>
      <trkpt lat="48.98325" lon="4.52819">
        <ele>145.78</ele>
        <time>2021-08-09T18:44:09Z</time>
      </trkpt>
      <trkpt lat="48.98279" lon="4.52833">
        <ele>145.78</ele>
        <time>2021-08-09T18:44:21Z</time>
      </trkpt>
      <trkpt lat="48.98241" lon="4.52844">
        <ele>147.22</ele>
        <time>2021-08-09T18:44:31Z</time>
      </trkpt>
      <trkpt lat="48.98194" lon="4.52858">
        <ele>147.7</ele>
        <time>2021-08-09T18:44:43Z</time>
      </trkpt>
      <trkpt lat="48.98164" lon="4.52868">
        <ele>148.66</ele>
        <time>2021-08-09T18:44:51Z</time>
      </trkpt>
      <trkpt lat="48.98122" lon="4.52881">
        <ele>149.62</ele>
        <time>2021-08-09T18:45:02Z</time>
      </trkpt>
      <trkpt lat="48.98092" lon="4.52891">
        <ele>150.1</ele>
        <time>2021-08-09T18:45:10Z</time>
      </trkpt>
      <trkpt lat="48.98043" lon="4.52908">
        <ele>151.06</ele>
        <time>2021-08-09T18:45:22Z</time>
      </trkpt>
      <trkpt lat="48.98008" lon="4.52921">
        <ele>151.54</ele>
        <time>2021-08-09T18:45:31Z</time>
      </trkpt>
      <trkpt lat="48.97972" lon="4.52934">
        <ele>152.51</ele>
        <time>2021-08-09T18:45:40Z</time>
      </trkpt>
      <trkpt lat="48.97968" lon="4.52935">
        <ele>152.51</ele>
        <time>2021-08-09T18:45:41Z</time>
      </trkpt>
      <trkpt lat="48.97964" lon="4.52937">
        <ele>152.51</ele>
        <time>2021-08-09T18:45:42Z</time>
      </trkpt>
      <trkpt lat="48.97928" lon="4.5295">
        <ele>152.99</ele>
        <time>2021-08-09T18:45:51Z</time>
      </trkpt>
      <trkpt lat="48.97907" lon="4.52959">
        <ele>153.47</ele>
        <time>2021-08-09T18:45:56Z</time>
      </trkpt>
      <trkpt lat="48.97902" lon="4.52961">
        <ele>153.47</ele>
        <time>2021-08-09T18:45:57Z</time>
      </trkpt>
      <trkpt lat="48.97898" lon="4.52964">
        <ele>153.95</ele>
        <time>2021-08-09T18:45:58Z</time>
      </trkpt>
      <trkpt lat="48.97893" lon="4.52966">
        <ele>153.95</ele>
        <time>2021-08-09T18:45:59Z</time>
      </trkpt>
      <trkpt lat="48.97888" lon="4.52968">
        <ele>153.95</ele>
        <time>2021-08-09T18:46:00Z</time>
      </trkpt>
      <trkpt lat="48.97871" lon="4.52973">
        <ele>153.95</ele>
        <time>2021-08-09T18:46:04Z</time>
      </trkpt>
      <trkpt lat="48.97866" lon="4.52973">
        <ele>153.95</ele>
        <time>2021-08-09T18:46:05Z</time>
      </trkpt>
      <trkpt lat="48.97849" lon="4.52979">
        <ele>153.95</ele>
        <time>2021-08-09T18:46:09Z</time>
      </trkpt>
      <trkpt lat="48.97803" lon="4.52996">
        <ele>154.91</ele>
        <time>2021-08-09T18:46:19Z</time>
      </trkpt>
      <trkpt lat="48.97749" lon="4.53015">
        <ele>154.91</ele>
        <time>2021-08-09T18:46:30Z</time>
      </trkpt>
      <trkpt lat="48.977" lon="4.5303">
        <ele>155.87</ele>
        <time>2021-08-09T18:46:40Z</time>
      </trkpt>
      <trkpt lat="48.97644" lon="4.53048">
        <ele>156.83</ele>
        <time>2021-08-09T18:46:52Z</time>
      </trkpt>
      <trkpt lat="48.97607" lon="4.5306">
        <ele>158.27</ele>
        <time>2021-08-09T18:47:01Z</time>
      </trkpt>
      <trkpt lat="48.97569" lon="4.53073">
        <ele>159.72</ele>
        <time>2021-08-09T18:47:11Z</time>
      </trkpt>
      <trkpt lat="48.97536" lon="4.53085">
        <ele>160.68</ele>
        <time>2021-08-09T18:47:20Z</time>
      </trkpt>
      <trkpt lat="48.97494" lon="4.531">
        <ele>163.56</ele>
        <time>2021-08-09T18:47:31Z</time>
      </trkpt>
      <trkpt lat="48.97451" lon="4.53119">
        <ele>163.56</ele>
        <time>2021-08-09T18:47:42Z</time>
      </trkpt>
      <trkpt lat="48.97429" lon="4.53131">
        <ele>165.48</ele>
        <time>2021-08-09T18:47:48Z</time>
      </trkpt>
      <trkpt lat="48.97381" lon="4.53158">
        <ele>165.48</ele>
        <time>2021-08-09T18:47:59Z</time>
      </trkpt>
      <trkpt lat="48.97305" lon="4.53205">
        <ele>165</ele>
        <time>2021-08-09T18:48:15Z</time>
      </trkpt>
      <trkpt lat="48.97246" lon="4.53246">
        <ele>165</ele>
        <time>2021-08-09T18:48:27Z</time>
      </trkpt>
      <trkpt lat="48.97179" lon="4.53292">
        <ele>165</ele>
        <time>2021-08-09T18:48:41Z</time>
      </trkpt>
      <trkpt lat="48.97125" lon="4.53326">
        <ele>167.41</ele>
        <time>2021-08-09T18:48:54Z</time>
      </trkpt>
      <trkpt lat="48.97083" lon="4.5335">
        <ele>169.81</ele>
        <time>2021-08-09T18:49:06Z</time>
      </trkpt>
      <trkpt lat="48.97077" lon="4.53354">
        <ele>171.25</ele>
        <time>2021-08-09T18:49:08Z</time>
      </trkpt>
      <trkpt lat="48.9704" lon="4.53376">
        <ele>172.21</ele>
        <time>2021-08-09T18:49:19Z</time>
      </trkpt>
      <trkpt lat="48.97" lon="4.53397">
        <ele>174.14</ele>
        <time>2021-08-09T18:49:31Z</time>
      </trkpt>
      <trkpt lat="48.96972" lon="4.53405">
        <ele>175.1</ele>
        <time>2021-08-09T18:49:39Z</time>
      </trkpt>
      <trkpt lat="48.96951" lon="4.5341">
        <ele>175.58</ele>
        <time>2021-08-09T18:49:44Z</time>
      </trkpt>
      <trkpt lat="48.96902" lon="4.53426">
        <ele>176.06</ele>
        <time>2021-08-09T18:49:55Z</time>
      </trkpt>
      <trkpt lat="48.96866" lon="4.53438">
        <ele>176.06</ele>
        <time>2021-08-09T18:50:04Z</time>
      </trkpt>
      <trkpt lat="48.96829" lon="4.53448">
        <ele>174.62</ele>
        <time>2021-08-09T18:50:13Z</time>
      </trkpt>
      <trkpt lat="48.96781" lon="4.53463">
        <ele>174.62</ele>
        <time>2021-08-09T18:50:24Z</time>
      </trkpt>
      <trkpt lat="48.96738" lon="4.53475">
        <ele>174.62</ele>
        <time>2021-08-09T18:50:34Z</time>
      </trkpt>
      <trkpt lat="48.96693" lon="4.5349">
        <ele>177.02</ele>
        <time>2021-08-09T18:50:45Z</time>
      </trkpt>
      <trkpt lat="48.96656" lon="4.53502">
        <ele>177.5</ele>
        <time>2021-08-09T18:50:54Z</time>
      </trkpt>
      <trkpt lat="48.96647" lon="4.53504">
        <ele>177.98</ele>
        <time>2021-08-09T18:50:56Z</time>
      </trkpt>
      <trkpt lat="48.96643" lon="4.53505">
        <ele>177.98</ele>
        <time>2021-08-09T18:50:57Z</time>
      </trkpt>
      <trkpt lat="48.96608" lon="4.53516">
        <ele>177.98</ele>
        <time>2021-08-09T18:51:05Z</time>
      </trkpt>
      <trkpt lat="48.96565" lon="4.5353">
        <ele>177.98</ele>
        <time>2021-08-09T18:51:14Z</time>
      </trkpt>
      <trkpt lat="48.96547" lon="4.53535">
        <ele>176.54</ele>
        <time>2021-08-09T18:51:18Z</time>
      </trkpt>
      <trkpt lat="48.96495" lon="4.53551">
        <ele>174.62</ele>
        <time>2021-08-09T18:51:28Z</time>
      </trkpt>
      <trkpt lat="48.96448" lon="4.53565">
        <ele>174.14</ele>
        <time>2021-08-09T18:51:37Z</time>
      </trkpt>
      <trkpt lat="48.96387" lon="4.53583">
        <ele>173.66</ele>
        <time>2021-08-09T18:51:49Z</time>
      </trkpt>
      <trkpt lat="48.96352" lon="4.53593">
        <ele>175.1</ele>
        <time>2021-08-09T18:51:57Z</time>
      </trkpt>
      <trkpt lat="48.96324" lon="4.53601">
        <ele>175.1</ele>
        <time>2021-08-09T18:52:04Z</time>
      </trkpt>
      <trkpt lat="48.96285" lon="4.53614">
        <ele>176.54</ele>
        <time>2021-08-09T18:52:14Z</time>
      </trkpt>
      <trkpt lat="48.9625" lon="4.53625">
        <ele>177.5</ele>
        <time>2021-08-09T18:52:23Z</time>
      </trkpt>
      <trkpt lat="48.96195" lon="4.53641">
        <ele>178.46</ele>
        <time>2021-08-09T18:52:37Z</time>
      </trkpt>
      <trkpt lat="48.96149" lon="4.53656">
        <ele>178.46</ele>
        <time>2021-08-09T18:52:48Z</time>
      </trkpt>
      <trkpt lat="48.96104" lon="4.53669">
        <ele>178.46</ele>
        <time>2021-08-09T18:52:57Z</time>
      </trkpt>
      <trkpt lat="48.96082" lon="4.53676">
        <ele>177.02</ele>
        <time>2021-08-09T18:53:01Z</time>
      </trkpt>
      <trkpt lat="48.96024" lon="4.53693">
        <ele>175.58</ele>
        <time>2021-08-09T18:53:10Z</time>
      </trkpt>
      <trkpt lat="48.95972" lon="4.5371">
        <ele>175.58</ele>
        <time>2021-08-09T18:53:19Z</time>
      </trkpt>
      <trkpt lat="48.95939" lon="4.53719">
        <ele>177.02</ele>
        <time>2021-08-09T18:53:26Z</time>
      </trkpt>
      <trkpt lat="48.95905" lon="4.53729">
        <ele>177.5</ele>
        <time>2021-08-09T18:53:34Z</time>
      </trkpt>
      <trkpt lat="48.95887" lon="4.53735">
        <ele>178.46</ele>
        <time>2021-08-09T18:53:38Z</time>
      </trkpt>
      <trkpt lat="48.95883" lon="4.53737">
        <ele>178.46</ele>
        <time>2021-08-09T18:53:39Z</time>
      </trkpt>
      <trkpt lat="48.95831" lon="4.53754">
        <ele>179.42</ele>
        <time>2021-08-09T18:53:51Z</time>
      </trkpt>
      <trkpt lat="48.95785" lon="4.53768">
        <ele>180.87</ele>
        <time>2021-08-09T18:54:02Z</time>
      </trkpt>
      <trkpt lat="48.9574" lon="4.53783">
        <ele>181.35</ele>
        <time>2021-08-09T18:54:13Z</time>
      </trkpt>
      <trkpt lat="48.95696" lon="4.53796">
        <ele>181.83</ele>
        <time>2021-08-09T18:54:23Z</time>
      </trkpt>
      <trkpt lat="48.95647" lon="4.53811">
        <ele>181.83</ele>
        <time>2021-08-09T18:54:34Z</time>
      </trkpt>
      <trkpt lat="48.95624" lon="4.53818">
        <ele>181.83</ele>
        <time>2021-08-09T18:54:39Z</time>
      </trkpt>
      <trkpt lat="48.9562" lon="4.5382">
        <ele>181.83</ele>
        <time>2021-08-09T18:54:40Z</time>
      </trkpt>
      <trkpt lat="48.95617" lon="4.53824">
        <ele>182.31</ele>
        <time>2021-08-09T18:54:41Z</time>
      </trkpt>
      <trkpt lat="48.95613" lon="4.53829">
        <ele>182.31</ele>
        <time>2021-08-09T18:54:42Z</time>
      </trkpt>
      <trkpt lat="48.95611" lon="4.53836">
        <ele>182.31</ele>
        <time>2021-08-09T18:54:43Z</time>
      </trkpt>
      <trkpt lat="48.95611" lon="4.53841">
        <ele>182.31</ele>
        <time>2021-08-09T18:54:44Z</time>
      </trkpt>
      <trkpt lat="48.95612" lon="4.53847">
        <ele>182.31</ele>
        <time>2021-08-09T18:54:45Z</time>
      </trkpt>
      <trkpt lat="48.95613" lon="4.53854">
        <ele>182.31</ele>
        <time>2021-08-09T18:54:46Z</time>
      </trkpt>
      <trkpt lat="48.95619" lon="4.539">
        <ele>182.31</ele>
        <time>2021-08-09T18:54:53Z</time>
      </trkpt>
      <trkpt lat="48.95619" lon="4.53907">
        <ele>182.31</ele>
        <time>2021-08-09T18:54:54Z</time>
      </trkpt>
      <trkpt lat="48.95619" lon="4.53913">
        <ele>182.31</ele>
        <time>2021-08-09T18:54:55Z</time>
      </trkpt>
      <trkpt lat="48.95618" lon="4.53919">
        <ele>182.31</ele>
        <time>2021-08-09T18:54:56Z</time>
      </trkpt>
      <trkpt lat="48.95616" lon="4.53927">
        <ele>182.31</ele>
        <time>2021-08-09T18:54:57Z</time>
      </trkpt>
      <trkpt lat="48.95614" lon="4.53932">
        <ele>182.31</ele>
        <time>2021-08-09T18:54:58Z</time>
      </trkpt>
      <trkpt lat="48.95611" lon="4.53939">
        <ele>182.31</ele>
        <time>2021-08-09T18:54:59Z</time>
      </trkpt>
      <trkpt lat="48.95608" lon="4.53944">
        <ele>182.31</ele>
        <time>2021-08-09T18:55:00Z</time>
      </trkpt>
      <trkpt lat="48.95605" lon="4.53949">
        <ele>182.31</ele>
        <time>2021-08-09T18:55:01Z</time>
      </trkpt>
      <trkpt lat="48.95602" lon="4.53954">
        <ele>182.31</ele>
        <time>2021-08-09T18:55:02Z</time>
      </trkpt>
      <trkpt lat="48.95598" lon="4.53958">
        <ele>182.31</ele>
        <time>2021-08-09T18:55:03Z</time>
      </trkpt>
      <trkpt lat="48.95578" lon="4.53977">
        <ele>182.31</ele>
        <time>2021-08-09T18:55:08Z</time>
      </trkpt>
      <trkpt lat="48.95574" lon="4.53981">
        <ele>182.31</ele>
        <time>2021-08-09T18:55:09Z</time>
      </trkpt>
      <trkpt lat="48.95571" lon="4.53985">
        <ele>182.31</ele>
        <time>2021-08-09T18:55:10Z</time>
      </trkpt>
      <trkpt lat="48.95567" lon="4.53989">
        <ele>182.79</ele>
        <time>2021-08-09T18:55:11Z</time>
      </trkpt>
      <trkpt lat="48.95564" lon="4.53993">
        <ele>182.31</ele>
        <time>2021-08-09T18:55:12Z</time>
      </trkpt>
      <trkpt lat="48.95561" lon="4.53998">
        <ele>182.31</ele>
        <time>2021-08-09T18:55:13Z</time>
      </trkpt>
      <trkpt lat="48.95527" lon="4.54053">
        <ele>182.79</ele>
        <time>2021-08-09T18:55:24Z</time>
      </trkpt>
      <trkpt lat="48.95504" lon="4.54106">
        <ele>183.75</ele>
        <time>2021-08-09T18:55:33Z</time>
      </trkpt>
      <trkpt lat="48.95483" lon="4.54162">
        <ele>184.23</ele>
        <time>2021-08-09T18:55:42Z</time>
      </trkpt>
      <trkpt lat="48.9546" lon="4.54235">
        <ele>184.71</ele>
        <time>2021-08-09T18:55:53Z</time>
      </trkpt>
      <trkpt lat="48.95451" lon="4.54275">
        <ele>185.19</ele>
        <time>2021-08-09T18:55:59Z</time>
      </trkpt>
      <trkpt lat="48.9545" lon="4.54283">
        <ele>185.67</ele>
        <time>2021-08-09T18:56:00Z</time>
      </trkpt>
      <trkpt lat="48.95448" lon="4.54302">
        <ele>185.67</ele>
        <time>2021-08-09T18:56:03Z</time>
      </trkpt>
      <trkpt lat="48.95447" lon="4.54316">
        <ele>185.67</ele>
        <time>2021-08-09T18:56:05Z</time>
      </trkpt>
      <trkpt lat="48.95448" lon="4.54342">
        <ele>186.15</ele>
        <time>2021-08-09T18:56:09Z</time>
      </trkpt>
      <trkpt lat="48.95448" lon="4.54349">
        <ele>186.15</ele>
        <time>2021-08-09T18:56:10Z</time>
      </trkpt>
      <trkpt lat="48.95449" lon="4.54355">
        <ele>186.15</ele>
        <time>2021-08-09T18:56:11Z</time>
      </trkpt>
      <trkpt lat="48.95458" lon="4.5442">
        <ele>186.15</ele>
        <time>2021-08-09T18:56:20Z</time>
      </trkpt>
      <trkpt lat="48.9546" lon="4.54435">
        <ele>186.15</ele>
        <time>2021-08-09T18:56:22Z</time>
      </trkpt>
      <trkpt lat="48.95471" lon="4.54514">
        <ele>186.15</ele>
        <time>2021-08-09T18:56:32Z</time>
      </trkpt>
      <trkpt lat="48.95479" lon="4.54567">
        <ele>186.15</ele>
        <time>2021-08-09T18:56:39Z</time>
      </trkpt>
      <trkpt lat="48.95478" lon="4.54575">
        <ele>186.15</ele>
        <time>2021-08-09T18:56:40Z</time>
      </trkpt>
      <trkpt lat="48.95476" lon="4.54579">
        <ele>186.15</ele>
        <time>2021-08-09T18:56:41Z</time>
      </trkpt>
      <trkpt lat="48.95473" lon="4.54584">
        <ele>186.15</ele>
        <time>2021-08-09T18:56:42Z</time>
      </trkpt>
      <trkpt lat="48.9547" lon="4.54585">
        <ele>186.15</ele>
        <time>2021-08-09T18:56:43Z</time>
      </trkpt>
      <trkpt lat="48.95466" lon="4.54587">
        <ele>186.15</ele>
        <time>2021-08-09T18:56:44Z</time>
      </trkpt>
      <trkpt lat="48.9543" lon="4.54606">
        <ele>187.11</ele>
        <time>2021-08-09T18:56:53Z</time>
      </trkpt>
      <trkpt lat="48.95421" lon="4.54609">
        <ele>187.59</ele>
        <time>2021-08-09T18:56:58Z</time>
      </trkpt>
      <trkpt lat="48.9542" lon="4.54611">
        <ele>187.59</ele>
        <time>2021-08-09T18:57:10Z</time>
      </trkpt>
      <trkpt lat="48.95404" lon="4.54618">
        <ele>187.59</ele>
        <time>2021-08-09T18:57:17Z</time>
      </trkpt>
      <trkpt lat="48.95373" lon="4.54633">
        <ele>188.08</ele>
        <time>2021-08-09T18:57:26Z</time>
      </trkpt>
      <trkpt lat="48.95338" lon="4.5465">
        <ele>188.08</ele>
        <time>2021-08-09T18:57:37Z</time>
      </trkpt>
      <trkpt lat="48.95307" lon="4.54666">
        <ele>186.15</ele>
        <time>2021-08-09T18:57:46Z</time>
      </trkpt>
      <trkpt lat="48.95266" lon="4.54687">
        <ele>184.71</ele>
        <time>2021-08-09T18:57:55Z</time>
      </trkpt>
      <trkpt lat="48.9522" lon="4.5471">
        <ele>181.35</ele>
        <time>2021-08-09T18:58:03Z</time>
      </trkpt>
      <trkpt lat="48.95164" lon="4.54738">
        <ele>177.98</ele>
        <time>2021-08-09T18:58:11Z</time>
      </trkpt>
      <trkpt lat="48.95135" lon="4.54755">
        <ele>176.06</ele>
        <time>2021-08-09T18:58:15Z</time>
      </trkpt>
      <trkpt lat="48.95088" lon="4.5479">
        <ele>172.21</ele>
        <time>2021-08-09T18:58:21Z</time>
      </trkpt>
      <trkpt lat="48.95055" lon="4.54817">
        <ele>169.81</ele>
        <time>2021-08-09T18:58:25Z</time>
      </trkpt>
      <trkpt lat="48.94995" lon="4.54866">
        <ele>165.48</ele>
        <time>2021-08-09T18:58:32Z</time>
      </trkpt>
      <trkpt lat="48.94986" lon="4.54873">
        <ele>165.48</ele>
        <time>2021-08-09T18:58:33Z</time>
      </trkpt>
      <trkpt lat="48.94934" lon="4.54915">
        <ele>162.6</ele>
        <time>2021-08-09T18:58:39Z</time>
      </trkpt>
      <trkpt lat="48.94857" lon="4.54977">
        <ele>160.2</ele>
        <time>2021-08-09T18:58:49Z</time>
      </trkpt>
      <trkpt lat="48.94813" lon="4.55015">
        <ele>160.68</ele>
        <time>2021-08-09T18:58:56Z</time>
      </trkpt>
      <trkpt lat="48.94809" lon="4.55019">
        <ele>160.68</ele>
        <time>2021-08-09T18:58:57Z</time>
      </trkpt>
      <trkpt lat="48.94794" lon="4.55033">
        <ele>162.12</ele>
        <time>2021-08-09T18:59:03Z</time>
      </trkpt>
      <trkpt lat="48.94784" lon="4.55044">
        <ele>163.56</ele>
        <time>2021-08-09T18:59:11Z</time>
      </trkpt>
      <trkpt lat="48.9477" lon="4.55058">
        <ele>165.48</ele>
        <time>2021-08-09T18:59:21Z</time>
      </trkpt>
      <trkpt lat="48.94756" lon="4.55072">
        <ele>167.41</ele>
        <time>2021-08-09T18:59:31Z</time>
      </trkpt>
      <trkpt lat="48.94742" lon="4.55088">
        <ele>168.85</ele>
        <time>2021-08-09T18:59:41Z</time>
      </trkpt>
      <trkpt lat="48.94728" lon="4.55103">
        <ele>170.29</ele>
        <time>2021-08-09T18:59:51Z</time>
      </trkpt>
      <trkpt lat="48.94714" lon="4.55119">
        <ele>171.73</ele>
        <time>2021-08-09T19:00:00Z</time>
      </trkpt>
      <trkpt lat="48.94695" lon="4.55139">
        <ele>173.17</ele>
        <time>2021-08-09T19:00:10Z</time>
      </trkpt>
      <trkpt lat="48.94672" lon="4.55164">
        <ele>174.14</ele>
        <time>2021-08-09T19:00:21Z</time>
      </trkpt>
      <trkpt lat="48.94647" lon="4.55191">
        <ele>175.1</ele>
        <time>2021-08-09T19:00:31Z</time>
      </trkpt>
      <trkpt lat="48.9462" lon="4.55223">
        <ele>175.1</ele>
        <time>2021-08-09T19:00:41Z</time>
      </trkpt>
      <trkpt lat="48.9459" lon="4.5526">
        <ele>173.66</ele>
        <time>2021-08-09T19:00:50Z</time>
      </trkpt>
      <trkpt lat="48.94568" lon="4.55287">
        <ele>172.21</ele>
        <time>2021-08-09T19:00:55Z</time>
      </trkpt>
      <trkpt lat="48.94564" lon="4.55293">
        <ele>171.73</ele>
        <time>2021-08-09T19:00:56Z</time>
      </trkpt>
      <trkpt lat="48.94526" lon="4.5534">
        <ele>168.85</ele>
        <time>2021-08-09T19:01:04Z</time>
      </trkpt>
      <trkpt lat="48.945" lon="4.55372">
        <ele>166.93</ele>
        <time>2021-08-09T19:01:09Z</time>
      </trkpt>
      <trkpt lat="48.9448" lon="4.55399">
        <ele>165</ele>
        <time>2021-08-09T19:01:13Z</time>
      </trkpt>
      <trkpt lat="48.94467" lon="4.55417">
        <ele>163.56</ele>
        <time>2021-08-09T19:01:16Z</time>
      </trkpt>
      <trkpt lat="48.94428" lon="4.55468">
        <ele>160.2</ele>
        <time>2021-08-09T19:01:25Z</time>
      </trkpt>
      <trkpt lat="48.94397" lon="4.55508">
        <ele>156.83</ele>
        <time>2021-08-09T19:01:33Z</time>
      </trkpt>
      <trkpt lat="48.94369" lon="4.55546">
        <ele>154.43</ele>
        <time>2021-08-09T19:01:39Z</time>
      </trkpt>
      <trkpt lat="48.94345" lon="4.55578">
        <ele>152.03</ele>
        <time>2021-08-09T19:01:43Z</time>
      </trkpt>
      <trkpt lat="48.94315" lon="4.55615">
        <ele>148.66</ele>
        <time>2021-08-09T19:01:48Z</time>
      </trkpt>
      <trkpt lat="48.94308" lon="4.55625">
        <ele>148.66</ele>
        <time>2021-08-09T19:01:49Z</time>
      </trkpt>
      <trkpt lat="48.94288" lon="4.55654">
        <ele>146.74</ele>
        <time>2021-08-09T19:01:53Z</time>
      </trkpt>
      <trkpt lat="48.94255" lon="4.55698">
        <ele>143.37</ele>
        <time>2021-08-09T19:01:59Z</time>
      </trkpt>
      <trkpt lat="48.94195" lon="4.55776">
        <ele>140.01</ele>
        <time>2021-08-09T19:02:09Z</time>
      </trkpt>
      <trkpt lat="48.94133" lon="4.55857">
        <ele>138.09</ele>
        <time>2021-08-09T19:02:20Z</time>
      </trkpt>
      <trkpt lat="48.94078" lon="4.55929">
        <ele>136.64</ele>
        <time>2021-08-09T19:02:31Z</time>
      </trkpt>
      <trkpt lat="48.94032" lon="4.55988">
        <ele>133.76</ele>
        <time>2021-08-09T19:02:39Z</time>
      </trkpt>
      <trkpt lat="48.9398" lon="4.56055">
        <ele>131.84</ele>
        <time>2021-08-09T19:02:48Z</time>
      </trkpt>
      <trkpt lat="48.93944" lon="4.56102">
        <ele>131.36</ele>
        <time>2021-08-09T19:02:56Z</time>
      </trkpt>
      <trkpt lat="48.93923" lon="4.56136">
        <ele>131.36</ele>
        <time>2021-08-09T19:03:03Z</time>
      </trkpt>
      <trkpt lat="48.93923" lon="4.56141">
        <ele>131.36</ele>
        <time>2021-08-09T19:03:04Z</time>
      </trkpt>
      <trkpt lat="48.93924" lon="4.56145">
        <ele>131.36</ele>
        <time>2021-08-09T19:03:05Z</time>
      </trkpt>
      <trkpt lat="48.93926" lon="4.5615">
        <ele>131.36</ele>
        <time>2021-08-09T19:03:06Z</time>
      </trkpt>
      <trkpt lat="48.93929" lon="4.56153">
        <ele>131.36</ele>
        <time>2021-08-09T19:03:07Z</time>
      </trkpt>
      <trkpt lat="48.93961" lon="4.56202">
        <ele>131.36</ele>
        <time>2021-08-09T19:03:18Z</time>
      </trkpt>
      <trkpt lat="48.93963" lon="4.56207">
        <ele>131.36</ele>
        <time>2021-08-09T19:03:19Z</time>
      </trkpt>
      <trkpt lat="48.9398" lon="4.56234">
        <ele>132.8</ele>
        <time>2021-08-09T19:03:25Z</time>
      </trkpt>
      <trkpt lat="48.94013" lon="4.56285">
        <ele>133.76</ele>
        <time>2021-08-09T19:03:37Z</time>
      </trkpt>
      <trkpt lat="48.9405" lon="4.56333">
        <ele>133.76</ele>
        <time>2021-08-09T19:03:48Z</time>
      </trkpt>
      <trkpt lat="48.94053" lon="4.56338">
        <ele>133.76</ele>
        <time>2021-08-09T19:03:49Z</time>
      </trkpt>
      <trkpt lat="48.94057" lon="4.56342">
        <ele>133.76</ele>
        <time>2021-08-09T19:03:50Z</time>
      </trkpt>
      <trkpt lat="48.94085" lon="4.5638">
        <ele>133.76</ele>
        <time>2021-08-09T19:03:59Z</time>
      </trkpt>
      <trkpt lat="48.94085" lon="4.5638">
        <ele>133.76</ele>
        <time>2021-08-09T19:04:04Z</time>
      </trkpt>
      <trkpt lat="48.94086" lon="4.5638">
        <ele>133.76</ele>
        <time>2021-08-09T19:04:10Z</time>
      </trkpt>
      <trkpt lat="48.94087" lon="4.56379">
        <ele>133.76</ele>
        <time>2021-08-09T19:04:11Z</time>
      </trkpt>
      <trkpt lat="48.94087" lon="4.56377">
        <ele>133.76</ele>
        <time>2021-08-09T19:04:12Z</time>
      </trkpt>
      <trkpt lat="48.94085" lon="4.56376">
        <ele>133.76</ele>
        <time>2021-08-09T19:04:13Z</time>
      </trkpt>
      <trkpt lat="48.94081" lon="4.56372">
        <ele>133.76</ele>
        <time>2021-08-09T19:04:15Z</time>
      </trkpt>
      <trkpt lat="48.94079" lon="4.56368">
        <ele>133.76</ele>
        <time>2021-08-09T19:04:16Z</time>
      </trkpt>
      <trkpt lat="48.9406" lon="4.56343">
        <ele>133.76</ele>
        <time>2021-08-09T19:04:22Z</time>
      </trkpt>
      <trkpt lat="48.94028" lon="4.56302">
        <ele>133.76</ele>
        <time>2021-08-09T19:04:31Z</time>
      </trkpt>
      <trkpt lat="48.94024" lon="4.56298">
        <ele>133.76</ele>
        <time>2021-08-09T19:04:32Z</time>
      </trkpt>
      <trkpt lat="48.9402" lon="4.56295">
        <ele>133.76</ele>
        <time>2021-08-09T19:04:33Z</time>
      </trkpt>
      <trkpt lat="48.94017" lon="4.56293">
        <ele>133.76</ele>
        <time>2021-08-09T19:04:34Z</time>
      </trkpt>
      <trkpt lat="48.94013" lon="4.56293">
        <ele>133.76</ele>
        <time>2021-08-09T19:04:35Z</time>
      </trkpt>
      <trkpt lat="48.94009" lon="4.56296">
        <ele>133.76</ele>
        <time>2021-08-09T19:04:36Z</time>
      </trkpt>
      <trkpt lat="48.94006" lon="4.56298">
        <ele>133.76</ele>
        <time>2021-08-09T19:04:37Z</time>
      </trkpt>
      <trkpt lat="48.93982" lon="4.5632">
        <ele>134.24</ele>
        <time>2021-08-09T19:04:45Z</time>
      </trkpt>
      <trkpt lat="48.93949" lon="4.56348">
        <ele>135.2</ele>
        <time>2021-08-09T19:04:56Z</time>
      </trkpt>
      <trkpt lat="48.9393" lon="4.56362">
        <ele>136.16</ele>
        <time>2021-08-09T19:05:03Z</time>
      </trkpt>
      <trkpt lat="48.93909" lon="4.5638">
        <ele>137.13</ele>
        <time>2021-08-09T19:05:12Z</time>
      </trkpt>
      <trkpt lat="48.93882" lon="4.56404">
        <ele>138.57</ele>
        <time>2021-08-09T19:05:24Z</time>
      </trkpt>
      <trkpt lat="48.93858" lon="4.56423">
        <ele>139.05</ele>
        <time>2021-08-09T19:05:35Z</time>
      </trkpt>
      <trkpt lat="48.93839" lon="4.56439">
        <ele>140.49</ele>
        <time>2021-08-09T19:05:44Z</time>
      </trkpt>
      <trkpt lat="48.93825" lon="4.56453">
        <ele>141.45</ele>
        <time>2021-08-09T19:05:52Z</time>
      </trkpt>
      <trkpt lat="48.93815" lon="4.56462">
        <ele>142.41</ele>
        <time>2021-08-09T19:05:58Z</time>
      </trkpt>
      <trkpt lat="48.93814" lon="4.56463">
        <ele>142.41</ele>
        <time>2021-08-09T19:05:59Z</time>
      </trkpt>
      <trkpt lat="48.93802" lon="4.56473">
        <ele>144.34</ele>
        <time>2021-08-09T19:06:07Z</time>
      </trkpt>
      <trkpt lat="48.93788" lon="4.56484">
        <ele>145.78</ele>
        <time>2021-08-09T19:06:16Z</time>
      </trkpt>
      <trkpt lat="48.93771" lon="4.56499">
        <ele>148.18</ele>
        <time>2021-08-09T19:06:28Z</time>
      </trkpt>
      <trkpt lat="48.93754" lon="4.56515">
        <ele>150.1</ele>
        <time>2021-08-09T19:06:40Z</time>
      </trkpt>
      <trkpt lat="48.93737" lon="4.56529">
        <ele>152.51</ele>
        <time>2021-08-09T19:06:53Z</time>
      </trkpt>
      <trkpt lat="48.93724" lon="4.56541">
        <ele>153.47</ele>
        <time>2021-08-09T19:07:03Z</time>
      </trkpt>
      <trkpt lat="48.93721" lon="4.56543">
        <ele>153.95</ele>
        <time>2021-08-09T19:07:09Z</time>
      </trkpt>
      <trkpt lat="48.93718" lon="4.56546">
        <ele>153.95</ele>
        <time>2021-08-09T19:07:21Z</time>
      </trkpt>
      <trkpt lat="48.93704" lon="4.56559">
        <ele>155.39</ele>
        <time>2021-08-09T19:07:30Z</time>
      </trkpt>
      <trkpt lat="48.93681" lon="4.56578">
        <ele>157.31</ele>
        <time>2021-08-09T19:07:41Z</time>
      </trkpt>
      <trkpt lat="48.93659" lon="4.56597">
        <ele>158.27</ele>
        <time>2021-08-09T19:07:52Z</time>
      </trkpt>
      <trkpt lat="48.93644" lon="4.5662">
        <ele>159.24</ele>
        <time>2021-08-09T19:08:00Z</time>
      </trkpt>
      <trkpt lat="48.93651" lon="4.56647">
        <ele>159.24</ele>
        <time>2021-08-09T19:08:06Z</time>
      </trkpt>
      <trkpt lat="48.93663" lon="4.56688">
        <ele>160.2</ele>
        <time>2021-08-09T19:08:14Z</time>
      </trkpt>
      <trkpt lat="48.93683" lon="4.56761">
        <ele>160.68</ele>
        <time>2021-08-09T19:08:27Z</time>
      </trkpt>
      <trkpt lat="48.93686" lon="4.56773">
        <ele>160.68</ele>
        <time>2021-08-09T19:08:29Z</time>
      </trkpt>
      <trkpt lat="48.93702" lon="4.56837">
        <ele>161.16</ele>
        <time>2021-08-09T19:08:40Z</time>
      </trkpt>
      <trkpt lat="48.93718" lon="4.56906">
        <ele>162.6</ele>
        <time>2021-08-09T19:08:52Z</time>
      </trkpt>
      <trkpt lat="48.93733" lon="4.5697">
        <ele>163.56</ele>
        <time>2021-08-09T19:09:03Z</time>
      </trkpt>
      <trkpt lat="48.93746" lon="4.57031">
        <ele>164.52</ele>
        <time>2021-08-09T19:09:13Z</time>
      </trkpt>
      <trkpt lat="48.93762" lon="4.57102">
        <ele>165.48</ele>
        <time>2021-08-09T19:09:25Z</time>
      </trkpt>
      <trkpt lat="48.93763" lon="4.5712">
        <ele>165.96</ele>
        <time>2021-08-09T19:09:28Z</time>
      </trkpt>
      <trkpt lat="48.93761" lon="4.57124">
        <ele>165.96</ele>
        <time>2021-08-09T19:09:29Z</time>
      </trkpt>
      <trkpt lat="48.93759" lon="4.57126">
        <ele>165.96</ele>
        <time>2021-08-09T19:09:30Z</time>
      </trkpt>
      <trkpt lat="48.93756" lon="4.57127">
        <ele>165.96</ele>
        <time>2021-08-09T19:09:31Z</time>
      </trkpt>
      <trkpt lat="48.93753" lon="4.57128">
        <ele>165.96</ele>
        <time>2021-08-09T19:09:32Z</time>
      </trkpt>
      <trkpt lat="48.9375" lon="4.57129">
        <ele>165.96</ele>
        <time>2021-08-09T19:09:33Z</time>
      </trkpt>
      <trkpt lat="48.93725" lon="4.57139">
        <ele>166.45</ele>
        <time>2021-08-09T19:09:40Z</time>
      </trkpt>
      <trkpt lat="48.93688" lon="4.57154">
        <ele>166.93</ele>
        <time>2021-08-09T19:09:49Z</time>
      </trkpt>
      <trkpt lat="48.93642" lon="4.57174">
        <ele>165</ele>
        <time>2021-08-09T19:09:59Z</time>
      </trkpt>
      <trkpt lat="48.93591" lon="4.57197">
        <ele>162.12</ele>
        <time>2021-08-09T19:10:08Z</time>
      </trkpt>
      <trkpt lat="48.93559" lon="4.57212">
        <ele>160.2</ele>
        <time>2021-08-09T19:10:13Z</time>
      </trkpt>
      <trkpt lat="48.93522" lon="4.57228">
        <ele>158.27</ele>
        <time>2021-08-09T19:10:19Z</time>
      </trkpt>
      <trkpt lat="48.93467" lon="4.57253">
        <ele>154.91</ele>
        <time>2021-08-09T19:10:27Z</time>
      </trkpt>
      <trkpt lat="48.93453" lon="4.57259">
        <ele>153.95</ele>
        <time>2021-08-09T19:10:29Z</time>
      </trkpt>
      <trkpt lat="48.9343" lon="4.57269">
        <ele>152.51</ele>
        <time>2021-08-09T19:10:32Z</time>
      </trkpt>
      <trkpt lat="48.93369" lon="4.57293">
        <ele>149.14</ele>
        <time>2021-08-09T19:10:40Z</time>
      </trkpt>
      <trkpt lat="48.93314" lon="4.57312">
        <ele>145.78</ele>
        <time>2021-08-09T19:10:47Z</time>
      </trkpt>
      <trkpt lat="48.93238" lon="4.57339">
        <ele>143.37</ele>
        <time>2021-08-09T19:10:57Z</time>
      </trkpt>
      <trkpt lat="48.93187" lon="4.57357">
        <ele>141.93</ele>
        <time>2021-08-09T19:11:05Z</time>
      </trkpt>
      <trkpt lat="48.93181" lon="4.5736">
        <ele>141.93</ele>
        <time>2021-08-09T19:11:06Z</time>
      </trkpt>
      <trkpt lat="48.93158" lon="4.57371">
        <ele>142.41</ele>
        <time>2021-08-09T19:11:11Z</time>
      </trkpt>
      <trkpt lat="48.93128" lon="4.57398">
        <ele>142.41</ele>
        <time>2021-08-09T19:11:20Z</time>
      </trkpt>
      <trkpt lat="48.9311" lon="4.57414">
        <ele>143.37</ele>
        <time>2021-08-09T19:11:26Z</time>
      </trkpt>
      <trkpt lat="48.93091" lon="4.57432">
        <ele>144.34</ele>
        <time>2021-08-09T19:11:35Z</time>
      </trkpt>
      <trkpt lat="48.93073" lon="4.57449">
        <ele>145.3</ele>
        <time>2021-08-09T19:11:45Z</time>
      </trkpt>
      <trkpt lat="48.93055" lon="4.57465">
        <ele>146.26</ele>
        <time>2021-08-09T19:11:55Z</time>
      </trkpt>
      <trkpt lat="48.93032" lon="4.57486">
        <ele>147.7</ele>
        <time>2021-08-09T19:12:07Z</time>
      </trkpt>
      <trkpt lat="48.93012" lon="4.57505">
        <ele>149.14</ele>
        <time>2021-08-09T19:12:18Z</time>
      </trkpt>
      <trkpt lat="48.92994" lon="4.5752">
        <ele>150.58</ele>
        <time>2021-08-09T19:12:28Z</time>
      </trkpt>
      <trkpt lat="48.92981" lon="4.57533">
        <ele>151.54</ele>
        <time>2021-08-09T19:12:37Z</time>
      </trkpt>
      <trkpt lat="48.92968" lon="4.57539">
        <ele>152.51</ele>
        <time>2021-08-09T19:12:46Z</time>
      </trkpt>
      <trkpt lat="48.92959" lon="4.57549">
        <ele>154.43</ele>
        <time>2021-08-09T19:12:54Z</time>
      </trkpt>
      <trkpt lat="48.92956" lon="4.57552">
        <ele>153.95</ele>
        <time>2021-08-09T19:12:56Z</time>
      </trkpt>
      <trkpt lat="48.92944" lon="4.57563">
        <ele>154.91</ele>
        <time>2021-08-09T19:13:05Z</time>
      </trkpt>
      <trkpt lat="48.92928" lon="4.57574">
        <ele>156.83</ele>
        <time>2021-08-09T19:13:16Z</time>
      </trkpt>
      <trkpt lat="48.92913" lon="4.57583">
        <ele>158.27</ele>
        <time>2021-08-09T19:13:26Z</time>
      </trkpt>
      <trkpt lat="48.92898" lon="4.57591">
        <ele>160.2</ele>
        <time>2021-08-09T19:13:36Z</time>
      </trkpt>
      <trkpt lat="48.92883" lon="4.57595">
        <ele>161.64</ele>
        <time>2021-08-09T19:13:45Z</time>
      </trkpt>
      <trkpt lat="48.92867" lon="4.57601">
        <ele>163.08</ele>
        <time>2021-08-09T19:13:55Z</time>
      </trkpt>
      <trkpt lat="48.92853" lon="4.57604">
        <ele>164.52</ele>
        <time>2021-08-09T19:14:03Z</time>
      </trkpt>
      <trkpt lat="48.92838" lon="4.57605">
        <ele>165.96</ele>
        <time>2021-08-09T19:14:12Z</time>
      </trkpt>
      <trkpt lat="48.92823" lon="4.57605">
        <ele>166.93</ele>
        <time>2021-08-09T19:14:21Z</time>
      </trkpt>
      <trkpt lat="48.92806" lon="4.57605">
        <ele>167.89</ele>
        <time>2021-08-09T19:14:30Z</time>
      </trkpt>
      <trkpt lat="48.9278" lon="4.57603">
        <ele>169.81</ele>
        <time>2021-08-09T19:14:43Z</time>
      </trkpt>
      <trkpt lat="48.92764" lon="4.57602">
        <ele>170.77</ele>
        <time>2021-08-09T19:14:51Z</time>
      </trkpt>
      <trkpt lat="48.92751" lon="4.57608">
        <ele>171.73</ele>
        <time>2021-08-09T19:14:58Z</time>
      </trkpt>
      <trkpt lat="48.92749" lon="4.57635">
        <ele>171.73</ele>
        <time>2021-08-09T19:15:05Z</time>
      </trkpt>
      <trkpt lat="48.9275" lon="4.57676">
        <ele>172.21</ele>
        <time>2021-08-09T19:15:14Z</time>
      </trkpt>
      <trkpt lat="48.92751" lon="4.5772">
        <ele>172.21</ele>
        <time>2021-08-09T19:15:22Z</time>
      </trkpt>
      <trkpt lat="48.92751" lon="4.57796">
        <ele>173.17</ele>
        <time>2021-08-09T19:15:35Z</time>
      </trkpt>
      <trkpt lat="48.92743" lon="4.57843">
        <ele>173.66</ele>
        <time>2021-08-09T19:15:43Z</time>
      </trkpt>
      <trkpt lat="48.92728" lon="4.57886">
        <ele>174.62</ele>
        <time>2021-08-09T19:15:52Z</time>
      </trkpt>
      <trkpt lat="48.92718" lon="4.57913">
        <ele>175.58</ele>
        <time>2021-08-09T19:15:58Z</time>
      </trkpt>
      <trkpt lat="48.92693" lon="4.57983">
        <ele>177.02</ele>
        <time>2021-08-09T19:16:12Z</time>
      </trkpt>
      <trkpt lat="48.9267" lon="4.58048">
        <ele>177.98</ele>
        <time>2021-08-09T19:16:25Z</time>
      </trkpt>
      <trkpt lat="48.92643" lon="4.58124">
        <ele>178.94</ele>
        <time>2021-08-09T19:16:39Z</time>
      </trkpt>
      <trkpt lat="48.92638" lon="4.58137">
        <ele>179.42</ele>
        <time>2021-08-09T19:16:44Z</time>
      </trkpt>
      <trkpt lat="48.92638" lon="4.58137">
        <ele>179.42</ele>
        <time>2021-08-09T19:16:55Z</time>
      </trkpt>
      <trkpt lat="48.92638" lon="4.58137">
        <ele>179.42</ele>
        <time>2021-08-09T19:17:12Z</time>
      </trkpt>
      <trkpt lat="48.92639" lon="4.58137">
        <ele>179.42</ele>
        <time>2021-08-09T19:17:21Z</time>
      </trkpt>
      <trkpt lat="48.9264" lon="4.58136">
        <ele>179.42</ele>
        <time>2021-08-09T19:17:31Z</time>
      </trkpt>
      <trkpt lat="48.92642" lon="4.58136">
        <ele>179.42</ele>
        <time>2021-08-09T19:17:51Z</time>
      </trkpt>
      <trkpt lat="48.92642" lon="4.58137">
        <ele>179.42</ele>
        <time>2021-08-09T19:18:06Z</time>
      </trkpt>
      <trkpt lat="48.92642" lon="4.58137">
        <ele>179.42</ele>
        <time>2021-08-09T19:18:20Z</time>
      </trkpt>
      <trkpt lat="48.92641" lon="4.58139">
        <ele>179.42</ele>
        <time>2021-08-09T19:18:32Z</time>
      </trkpt>
      <trkpt lat="48.92636" lon="4.58156">
        <ele>179.42</ele>
        <time>2021-08-09T19:18:37Z</time>
      </trkpt>
      <trkpt lat="48.9262" lon="4.58198">
        <ele>179.42</ele>
        <time>2021-08-09T19:18:45Z</time>
      </trkpt>
      <trkpt lat="48.92603" lon="4.58247">
        <ele>180.38</ele>
        <time>2021-08-09T19:18:54Z</time>
      </trkpt>
      <trkpt lat="48.92579" lon="4.58309">
        <ele>182.31</ele>
        <time>2021-08-09T19:19:06Z</time>
      </trkpt>
      <trkpt lat="48.92564" lon="4.58351">
        <ele>183.27</ele>
        <time>2021-08-09T19:19:15Z</time>
      </trkpt>
      <trkpt lat="48.92549" lon="4.58394">
        <ele>185.19</ele>
        <time>2021-08-09T19:19:25Z</time>
      </trkpt>
      <trkpt lat="48.92534" lon="4.58433">
        <ele>186.63</ele>
        <time>2021-08-09T19:19:35Z</time>
      </trkpt>
      <trkpt lat="48.9252" lon="4.58472">
        <ele>188.08</ele>
        <time>2021-08-09T19:19:45Z</time>
      </trkpt>
      <trkpt lat="48.92511" lon="4.58501">
        <ele>189.04</ele>
        <time>2021-08-09T19:19:53Z</time>
      </trkpt>
      <trkpt lat="48.925" lon="4.58535">
        <ele>190.96</ele>
        <time>2021-08-09T19:20:03Z</time>
      </trkpt>
      <trkpt lat="48.92485" lon="4.58573">
        <ele>192.4</ele>
        <time>2021-08-09T19:20:14Z</time>
      </trkpt>
      <trkpt lat="48.92468" lon="4.58617">
        <ele>193.36</ele>
        <time>2021-08-09T19:20:25Z</time>
      </trkpt>
      <trkpt lat="48.92453" lon="4.58659">
        <ele>194.8</ele>
        <time>2021-08-09T19:20:35Z</time>
      </trkpt>
      <trkpt lat="48.9244" lon="4.58692">
        <ele>194.8</ele>
        <time>2021-08-09T19:20:43Z</time>
      </trkpt>
      <trkpt lat="48.92437" lon="4.58694">
        <ele>194.8</ele>
        <time>2021-08-09T19:20:44Z</time>
      </trkpt>
      <trkpt lat="48.92434" lon="4.58694">
        <ele>194.8</ele>
        <time>2021-08-09T19:20:45Z</time>
      </trkpt>
      <trkpt lat="48.92431" lon="4.58692">
        <ele>195.28</ele>
        <time>2021-08-09T19:20:46Z</time>
      </trkpt>
      <trkpt lat="48.92428" lon="4.58689">
        <ele>195.28</ele>
        <time>2021-08-09T19:20:47Z</time>
      </trkpt>
      <trkpt lat="48.92426" lon="4.58685">
        <ele>195.28</ele>
        <time>2021-08-09T19:20:48Z</time>
      </trkpt>
      <trkpt lat="48.92424" lon="4.58681">
        <ele>195.28</ele>
        <time>2021-08-09T19:20:49Z</time>
      </trkpt>
      <trkpt lat="48.92422" lon="4.58677">
        <ele>195.28</ele>
        <time>2021-08-09T19:20:50Z</time>
      </trkpt>
      <trkpt lat="48.92415" lon="4.58653">
        <ele>195.77</ele>
        <time>2021-08-09T19:20:55Z</time>
      </trkpt>
      <trkpt lat="48.92409" lon="4.58625">
        <ele>195.77</ele>
        <time>2021-08-09T19:21:01Z</time>
      </trkpt>
      <trkpt lat="48.92392" lon="4.58579">
        <ele>195.77</ele>
        <time>2021-08-09T19:21:10Z</time>
      </trkpt>
      <trkpt lat="48.92374" lon="4.58526">
        <ele>195.77</ele>
        <time>2021-08-09T19:21:20Z</time>
      </trkpt>
      <trkpt lat="48.92356" lon="4.58479">
        <ele>195.77</ele>
        <time>2021-08-09T19:21:29Z</time>
      </trkpt>
      <trkpt lat="48.92339" lon="4.58433">
        <ele>195.77</ele>
        <time>2021-08-09T19:21:38Z</time>
      </trkpt>
      <trkpt lat="48.92333" lon="4.58418">
        <ele>195.77</ele>
        <time>2021-08-09T19:21:43Z</time>
      </trkpt>
      <trkpt lat="48.92332" lon="4.58421">
        <ele>195.77</ele>
        <time>2021-08-09T19:22:02Z</time>
      </trkpt>
      <trkpt lat="48.92333" lon="4.58419">
        <ele>196.25</ele>
        <time>2021-08-09T19:22:20Z</time>
      </trkpt>
      <trkpt lat="48.92329" lon="4.58415">
        <ele>196.25</ele>
        <time>2021-08-09T19:22:32Z</time>
      </trkpt>
      <trkpt lat="48.92321" lon="4.58392">
        <ele>196.25</ele>
        <time>2021-08-09T19:22:38Z</time>
      </trkpt>
      <trkpt lat="48.92308" lon="4.58358">
        <ele>196.25</ele>
        <time>2021-08-09T19:22:44Z</time>
      </trkpt>
      <trkpt lat="48.92289" lon="4.58302">
        <ele>196.25</ele>
        <time>2021-08-09T19:22:54Z</time>
      </trkpt>
      <trkpt lat="48.9227" lon="4.58246">
        <ele>194.32</ele>
        <time>2021-08-09T19:23:04Z</time>
      </trkpt>
      <trkpt lat="48.9225" lon="4.58191">
        <ele>193.84</ele>
        <time>2021-08-09T19:23:14Z</time>
      </trkpt>
      <trkpt lat="48.92226" lon="4.58122">
        <ele>193.36</ele>
        <time>2021-08-09T19:23:25Z</time>
      </trkpt>
      <trkpt lat="48.92203" lon="4.58062">
        <ele>192.88</ele>
        <time>2021-08-09T19:23:34Z</time>
      </trkpt>
      <trkpt lat="48.92189" lon="4.58011">
        <ele>191.92</ele>
        <time>2021-08-09T19:23:42Z</time>
      </trkpt>
      <trkpt lat="48.92186" lon="4.57994">
        <ele>192.4</ele>
        <time>2021-08-09T19:23:45Z</time>
      </trkpt>
      <trkpt lat="48.92182" lon="4.5794">
        <ele>190.96</ele>
        <time>2021-08-09T19:23:52Z</time>
      </trkpt>
      <trkpt lat="48.9217" lon="4.5788">
        <ele>190.48</ele>
        <time>2021-08-09T19:24:00Z</time>
      </trkpt>
      <trkpt lat="48.92148" lon="4.57811">
        <ele>189.52</ele>
        <time>2021-08-09T19:24:10Z</time>
      </trkpt>
      <trkpt lat="48.92118" lon="4.57719">
        <ele>188.56</ele>
        <time>2021-08-09T19:24:22Z</time>
      </trkpt>
      <trkpt lat="48.92088" lon="4.57627">
        <ele>187.59</ele>
        <time>2021-08-09T19:24:34Z</time>
      </trkpt>
      <trkpt lat="48.92059" lon="4.57543">
        <ele>186.63</ele>
        <time>2021-08-09T19:24:45Z</time>
      </trkpt>
      <trkpt lat="48.92035" lon="4.57472">
        <ele>185.67</ele>
        <time>2021-08-09T19:24:55Z</time>
      </trkpt>
      <trkpt lat="48.92017" lon="4.57412">
        <ele>185.19</ele>
        <time>2021-08-09T19:25:04Z</time>
      </trkpt>
      <trkpt lat="48.92008" lon="4.5738">
        <ele>184.71</ele>
        <time>2021-08-09T19:25:09Z</time>
      </trkpt>
      <trkpt lat="48.92007" lon="4.57374">
        <ele>184.71</ele>
        <time>2021-08-09T19:25:10Z</time>
      </trkpt>
      <trkpt lat="48.92005" lon="4.57369">
        <ele>184.71</ele>
        <time>2021-08-09T19:25:11Z</time>
      </trkpt>
      <trkpt lat="48.92003" lon="4.57364">
        <ele>184.71</ele>
        <time>2021-08-09T19:25:12Z</time>
      </trkpt>
      <trkpt lat="48.91999" lon="4.57361">
        <ele>184.71</ele>
        <time>2021-08-09T19:25:13Z</time>
      </trkpt>
      <trkpt lat="48.91996" lon="4.5736">
        <ele>184.71</ele>
        <time>2021-08-09T19:25:14Z</time>
      </trkpt>
      <trkpt lat="48.91992" lon="4.57361">
        <ele>184.71</ele>
        <time>2021-08-09T19:25:15Z</time>
      </trkpt>
      <trkpt lat="48.9199" lon="4.57363">
        <ele>184.71</ele>
        <time>2021-08-09T19:25:16Z</time>
      </trkpt>
      <trkpt lat="48.91986" lon="4.57365">
        <ele>184.23</ele>
        <time>2021-08-09T19:25:17Z</time>
      </trkpt>
      <trkpt lat="48.91979" lon="4.5737">
        <ele>184.23</ele>
        <time>2021-08-09T19:25:19Z</time>
      </trkpt>
      <trkpt lat="48.91945" lon="4.57398">
        <ele>184.23</ele>
        <time>2021-08-09T19:25:28Z</time>
      </trkpt>
      <trkpt lat="48.91905" lon="4.57429">
        <ele>181.83</ele>
        <time>2021-08-09T19:25:37Z</time>
      </trkpt>
      <trkpt lat="48.9186" lon="4.57464">
        <ele>178.46</ele>
        <time>2021-08-09T19:25:44Z</time>
      </trkpt>
      <trkpt lat="48.91823" lon="4.57492">
        <ele>175.58</ele>
        <time>2021-08-09T19:25:49Z</time>
      </trkpt>
      <trkpt lat="48.91782" lon="4.57524">
        <ele>172.21</ele>
        <time>2021-08-09T19:25:54Z</time>
      </trkpt>
      <trkpt lat="48.91748" lon="4.5755">
        <ele>169.81</ele>
        <time>2021-08-09T19:25:58Z</time>
      </trkpt>
      <trkpt lat="48.91708" lon="4.57583">
        <ele>171.73</ele>
        <time>2021-08-09T19:26:04Z</time>
      </trkpt>
      <trkpt lat="48.91685" lon="4.57602">
        <ele>173.66</ele>
        <time>2021-08-09T19:26:10Z</time>
      </trkpt>
      <trkpt lat="48.91662" lon="4.5762">
        <ele>175.1</ele>
        <time>2021-08-09T19:26:17Z</time>
      </trkpt>
      <trkpt lat="48.91632" lon="4.57644">
        <ele>176.06</ele>
        <time>2021-08-09T19:26:27Z</time>
      </trkpt>
      <trkpt lat="48.91593" lon="4.57675">
        <ele>176.06</ele>
        <time>2021-08-09T19:26:38Z</time>
      </trkpt>
      <trkpt lat="48.91563" lon="4.57698">
        <ele>175.1</ele>
        <time>2021-08-09T19:26:45Z</time>
      </trkpt>
      <trkpt lat="48.91522" lon="4.57731">
        <ele>172.21</ele>
        <time>2021-08-09T19:26:53Z</time>
      </trkpt>
      <trkpt lat="48.91481" lon="4.57764">
        <ele>169.33</ele>
        <time>2021-08-09T19:27:00Z</time>
      </trkpt>
      <trkpt lat="48.91468" lon="4.57774">
        <ele>168.85</ele>
        <time>2021-08-09T19:27:02Z</time>
      </trkpt>
      <trkpt lat="48.91427" lon="4.57806">
        <ele>165</ele>
        <time>2021-08-09T19:27:08Z</time>
      </trkpt>
      <trkpt lat="48.9142" lon="4.57812">
        <ele>165</ele>
        <time>2021-08-09T19:27:09Z</time>
      </trkpt>
      <trkpt lat="48.91384" lon="4.5784">
        <ele>162.12</ele>
        <time>2021-08-09T19:27:14Z</time>
      </trkpt>
      <trkpt lat="48.91377" lon="4.57846">
        <ele>161.64</ele>
        <time>2021-08-09T19:27:15Z</time>
      </trkpt>
      <trkpt lat="48.9133" lon="4.57884">
        <ele>158.75</ele>
        <time>2021-08-09T19:27:21Z</time>
      </trkpt>
      <trkpt lat="48.91258" lon="4.57941">
        <ele>156.83</ele>
        <time>2021-08-09T19:27:31Z</time>
      </trkpt>
      <trkpt lat="48.91182" lon="4.58002">
        <ele>152.99</ele>
        <time>2021-08-09T19:27:43Z</time>
      </trkpt>
      <trkpt lat="48.9114" lon="4.58035">
        <ele>150.1</ele>
        <time>2021-08-09T19:27:50Z</time>
      </trkpt>
      <trkpt lat="48.91097" lon="4.5807">
        <ele>146.26</ele>
        <time>2021-08-09T19:27:57Z</time>
      </trkpt>
      <trkpt lat="48.91091" lon="4.58075">
        <ele>146.26</ele>
        <time>2021-08-09T19:27:58Z</time>
      </trkpt>
      <trkpt lat="48.9105" lon="4.58108">
        <ele>142.89</ele>
        <time>2021-08-09T19:28:04Z</time>
      </trkpt>
      <trkpt lat="48.91014" lon="4.58137">
        <ele>139.05</ele>
        <time>2021-08-09T19:28:09Z</time>
      </trkpt>
      <trkpt lat="48.90977" lon="4.58167">
        <ele>135.68</ele>
        <time>2021-08-09T19:28:14Z</time>
      </trkpt>
      <trkpt lat="48.90969" lon="4.58173">
        <ele>135.68</ele>
        <time>2021-08-09T19:28:15Z</time>
      </trkpt>
      <trkpt lat="48.90937" lon="4.58198">
        <ele>132.8</ele>
        <time>2021-08-09T19:28:19Z</time>
      </trkpt>
      <trkpt lat="48.90891" lon="4.58235">
        <ele>129.92</ele>
        <time>2021-08-09T19:28:26Z</time>
      </trkpt>
      <trkpt lat="48.90855" lon="4.58265">
        <ele>127.51</ele>
        <time>2021-08-09T19:28:33Z</time>
      </trkpt>
      <trkpt lat="48.90851" lon="4.58267">
        <ele>127.51</ele>
        <time>2021-08-09T19:28:34Z</time>
      </trkpt>
      <trkpt lat="48.90847" lon="4.58268">
        <ele>127.51</ele>
        <time>2021-08-09T19:28:35Z</time>
      </trkpt>
      <trkpt lat="48.90841" lon="4.58268">
        <ele>127.03</ele>
        <time>2021-08-09T19:28:36Z</time>
      </trkpt>
      <trkpt lat="48.90837" lon="4.58266">
        <ele>127.03</ele>
        <time>2021-08-09T19:28:37Z</time>
      </trkpt>
      <trkpt lat="48.90833" lon="4.58262">
        <ele>127.03</ele>
        <time>2021-08-09T19:28:38Z</time>
      </trkpt>
      <trkpt lat="48.90829" lon="4.58257">
        <ele>127.03</ele>
        <time>2021-08-09T19:28:39Z</time>
      </trkpt>
      <trkpt lat="48.90827" lon="4.58252">
        <ele>126.55</ele>
        <time>2021-08-09T19:28:40Z</time>
      </trkpt>
      <trkpt lat="48.90824" lon="4.58246">
        <ele>126.55</ele>
        <time>2021-08-09T19:28:41Z</time>
      </trkpt>
      <trkpt lat="48.90822" lon="4.5824">
        <ele>126.55</ele>
        <time>2021-08-09T19:28:42Z</time>
      </trkpt>
      <trkpt lat="48.9082" lon="4.58233">
        <ele>126.55</ele>
        <time>2021-08-09T19:28:43Z</time>
      </trkpt>
      <trkpt lat="48.90818" lon="4.58225">
        <ele>126.55</ele>
        <time>2021-08-09T19:28:44Z</time>
      </trkpt>
      <trkpt lat="48.90798" lon="4.5816">
        <ele>126.55</ele>
        <time>2021-08-09T19:28:54Z</time>
      </trkpt>
      <trkpt lat="48.90785" lon="4.5812">
        <ele>126.55</ele>
        <time>2021-08-09T19:29:01Z</time>
      </trkpt>
      <trkpt lat="48.90782" lon="4.58115">
        <ele>126.55</ele>
        <time>2021-08-09T19:29:02Z</time>
      </trkpt>
      <trkpt lat="48.90778" lon="4.58111">
        <ele>125.59</ele>
        <time>2021-08-09T19:29:03Z</time>
      </trkpt>
      <trkpt lat="48.90774" lon="4.58109">
        <ele>125.59</ele>
        <time>2021-08-09T19:29:04Z</time>
      </trkpt>
      <trkpt lat="48.90769" lon="4.5811">
        <ele>125.59</ele>
        <time>2021-08-09T19:29:05Z</time>
      </trkpt>
      <trkpt lat="48.90764" lon="4.58113">
        <ele>125.59</ele>
        <time>2021-08-09T19:29:06Z</time>
      </trkpt>
      <trkpt lat="48.90759" lon="4.58117">
        <ele>124.63</ele>
        <time>2021-08-09T19:29:07Z</time>
      </trkpt>
      <trkpt lat="48.90754" lon="4.58122">
        <ele>124.63</ele>
        <time>2021-08-09T19:29:08Z</time>
      </trkpt>
      <trkpt lat="48.90712" lon="4.58164">
        <ele>122.71</ele>
        <time>2021-08-09T19:29:16Z</time>
      </trkpt>
      <trkpt lat="48.90654" lon="4.5822">
        <ele>121.26</ele>
        <time>2021-08-09T19:29:26Z</time>
      </trkpt>
      <trkpt lat="48.90598" lon="4.58255">
        <ele>118.38</ele>
        <time>2021-08-09T19:29:35Z</time>
      </trkpt>
      <trkpt lat="48.90558" lon="4.58279">
        <ele>115.5</ele>
        <time>2021-08-09T19:29:41Z</time>
      </trkpt>
      <trkpt lat="48.90539" lon="4.58294">
        <ele>114.05</ele>
        <time>2021-08-09T19:29:44Z</time>
      </trkpt>
      <trkpt lat="48.90489" lon="4.58337">
        <ele>111.17</ele>
        <time>2021-08-09T19:29:53Z</time>
      </trkpt>
      <trkpt lat="48.90446" lon="4.5837">
        <ele>109.25</ele>
        <time>2021-08-09T19:30:01Z</time>
      </trkpt>
      <trkpt lat="48.90418" lon="4.5839">
        <ele>107.32</ele>
        <time>2021-08-09T19:30:08Z</time>
      </trkpt>
      <trkpt lat="48.90416" lon="4.58391">
        <ele>106.84</ele>
        <time>2021-08-09T19:30:12Z</time>
      </trkpt>
      <trkpt lat="48.90416" lon="4.58392">
        <ele>107.32</ele>
        <time>2021-08-09T19:30:30Z</time>
      </trkpt>
      <trkpt lat="48.90415" lon="4.58391">
        <ele>107.32</ele>
        <time>2021-08-09T19:30:47Z</time>
      </trkpt>
      <trkpt lat="48.90415" lon="4.58393">
        <ele>107.32</ele>
        <time>2021-08-09T19:30:54Z</time>
      </trkpt>
      <trkpt lat="48.90414" lon="4.58394">
        <ele>107.32</ele>
        <time>2021-08-09T19:31:07Z</time>
      </trkpt>
      <trkpt lat="48.90415" lon="4.58394">
        <ele>107.32</ele>
        <time>2021-08-09T19:31:30Z</time>
      </trkpt>
      <trkpt lat="48.90417" lon="4.58394">
        <ele>106.84</ele>
        <time>2021-08-09T19:31:52Z</time>
      </trkpt>
      <trkpt lat="48.90417" lon="4.58391">
        <ele>106.84</ele>
        <time>2021-08-09T19:32:08Z</time>
      </trkpt>
      <trkpt lat="48.90416" lon="4.5839">
        <ele>106.84</ele>
        <time>2021-08-09T19:32:28Z</time>
      </trkpt>
      <trkpt lat="48.90416" lon="4.58391">
        <ele>106.84</ele>
        <time>2021-08-09T19:32:48Z</time>
      </trkpt>
      <trkpt lat="48.90416" lon="4.58391">
        <ele>106.84</ele>
        <time>2021-08-09T19:33:04Z</time>
      </trkpt>
      <trkpt lat="48.90416" lon="4.58391">
        <ele>106.84</ele>
        <time>2021-08-09T19:33:24Z</time>
      </trkpt>
      <trkpt lat="48.90417" lon="4.58391">
        <ele>106.84</ele>
        <time>2021-08-09T19:33:37Z</time>
      </trkpt>
      <trkpt lat="48.90416" lon="4.58392">
        <ele>106.84</ele>
        <time>2021-08-09T19:33:38Z</time>
      </trkpt>
      <trkpt lat="48.90415" lon="4.58393">
        <ele>106.84</ele>
        <time>2021-08-09T19:33:39Z</time>
      </trkpt>
      <trkpt lat="48.90415" lon="4.58395">
        <ele>106.84</ele>
        <time>2021-08-09T19:33:40Z</time>
      </trkpt>
      <trkpt lat="48.90415" lon="4.58398">
        <ele>106.36</ele>
        <time>2021-08-09T19:33:41Z</time>
      </trkpt>
      <trkpt lat="48.90414" lon="4.584">
        <ele>106.36</ele>
        <time>2021-08-09T19:33:42Z</time>
      </trkpt>
      <trkpt lat="48.90413" lon="4.58403">
        <ele>106.36</ele>
        <time>2021-08-09T19:33:43Z</time>
      </trkpt>
      <trkpt lat="48.90412" lon="4.58407">
        <ele>106.36</ele>
        <time>2021-08-09T19:33:44Z</time>
      </trkpt>
      <trkpt lat="48.90411" lon="4.58409">
        <ele>106.36</ele>
        <time>2021-08-09T19:33:45Z</time>
      </trkpt>
      <trkpt lat="48.90408" lon="4.58413">
        <ele>106.36</ele>
        <time>2021-08-09T19:33:46Z</time>
      </trkpt>
      <trkpt lat="48.90389" lon="4.58429">
        <ele>105.88</ele>
        <time>2021-08-09T19:33:53Z</time>
      </trkpt>
      <trkpt lat="48.90356" lon="4.58453">
        <ele>105.4</ele>
        <time>2021-08-09T19:34:02Z</time>
      </trkpt>
      <trkpt lat="48.90347" lon="4.58458">
        <ele>105.4</ele>
        <time>2021-08-09T19:34:04Z</time>
      </trkpt>
      <trkpt lat="48.90329" lon="4.58471">
        <ele>105.4</ele>
        <time>2021-08-09T19:34:10Z</time>
      </trkpt>
      <trkpt lat="48.90305" lon="4.58484">
        <ele>105.4</ele>
        <time>2021-08-09T19:34:16Z</time>
      </trkpt>
      <trkpt lat="48.90252" lon="4.58504">
        <ele>106.84</ele>
        <time>2021-08-09T19:34:29Z</time>
      </trkpt>
      <trkpt lat="48.90248" lon="4.58505">
        <ele>106.84</ele>
        <time>2021-08-09T19:34:30Z</time>
      </trkpt>
      <trkpt lat="48.90213" lon="4.58516">
        <ele>107.32</ele>
        <time>2021-08-09T19:34:39Z</time>
      </trkpt>
      <trkpt lat="48.90187" lon="4.58526">
        <ele>107.81</ele>
        <time>2021-08-09T19:34:47Z</time>
      </trkpt>
      <trkpt lat="48.9016" lon="4.58545">
        <ele>109.25</ele>
        <time>2021-08-09T19:34:57Z</time>
      </trkpt>
      <trkpt lat="48.90139" lon="4.58577">
        <ele>110.69</ele>
        <time>2021-08-09T19:35:07Z</time>
      </trkpt>
      <trkpt lat="48.90137" lon="4.58597">
        <ele>111.17</ele>
        <time>2021-08-09T19:35:13Z</time>
      </trkpt>
      <trkpt lat="48.90136" lon="4.58602">
        <ele>111.65</ele>
        <time>2021-08-09T19:35:15Z</time>
      </trkpt>
      <trkpt lat="48.90133" lon="4.58602">
        <ele>111.65</ele>
        <time>2021-08-09T19:35:17Z</time>
      </trkpt>
      <trkpt lat="48.90133" lon="4.586">
        <ele>111.65</ele>
        <time>2021-08-09T19:35:18Z</time>
      </trkpt>
      <trkpt lat="48.90133" lon="4.58597">
        <ele>111.65</ele>
        <time>2021-08-09T19:35:19Z</time>
      </trkpt>
      <trkpt lat="48.90133" lon="4.58594">
        <ele>111.65</ele>
        <time>2021-08-09T19:35:20Z</time>
      </trkpt>
      <trkpt lat="48.90132" lon="4.58589">
        <ele>111.65</ele>
        <time>2021-08-09T19:35:21Z</time>
      </trkpt>
      <trkpt lat="48.90131" lon="4.58585">
        <ele>111.65</ele>
        <time>2021-08-09T19:35:22Z</time>
      </trkpt>
      <trkpt lat="48.90129" lon="4.58582">
        <ele>112.13</ele>
        <time>2021-08-09T19:35:23Z</time>
      </trkpt>
      <trkpt lat="48.90127" lon="4.58579">
        <ele>112.13</ele>
        <time>2021-08-09T19:35:24Z</time>
      </trkpt>
      <trkpt lat="48.90125" lon="4.58577">
        <ele>112.13</ele>
        <time>2021-08-09T19:35:25Z</time>
      </trkpt>
      <trkpt lat="48.90122" lon="4.58576">
        <ele>112.13</ele>
        <time>2021-08-09T19:35:26Z</time>
      </trkpt>
      <trkpt lat="48.9012" lon="4.58575">
        <ele>112.61</ele>
        <time>2021-08-09T19:35:27Z</time>
      </trkpt>
      <trkpt lat="48.90103" lon="4.58561">
        <ele>114.05</ele>
        <time>2021-08-09T19:35:35Z</time>
      </trkpt>
      <trkpt lat="48.90083" lon="4.58539">
        <ele>115.01</ele>
        <time>2021-08-09T19:35:44Z</time>
      </trkpt>
      <trkpt lat="48.90063" lon="4.58518">
        <ele>115.5</ele>
        <time>2021-08-09T19:35:53Z</time>
      </trkpt>
      <trkpt lat="48.90061" lon="4.58504">
        <ele>115.98</ele>
        <time>2021-08-09T19:35:59Z</time>
      </trkpt>
      <trkpt lat="48.90059" lon="4.58502">
        <ele>116.46</ele>
        <time>2021-08-09T19:36:02Z</time>
      </trkpt>
      <trkpt lat="48.90057" lon="4.58502">
        <ele>116.46</ele>
        <time>2021-08-09T19:36:04Z</time>
      </trkpt>
      <trkpt lat="48.90056" lon="4.58505">
        <ele>116.46</ele>
        <time>2021-08-09T19:36:06Z</time>
      </trkpt>
      <trkpt lat="48.90056" lon="4.58507">
        <ele>116.46</ele>
        <time>2021-08-09T19:36:07Z</time>
      </trkpt>
      <trkpt lat="48.90059" lon="4.58504">
        <ele>116.46</ele>
        <time>2021-08-09T19:36:11Z</time>
      </trkpt>
      <trkpt lat="48.90062" lon="4.58504">
        <ele>116.46</ele>
        <time>2021-08-09T19:36:13Z</time>
      </trkpt>
      <trkpt lat="48.90063" lon="4.58503">
        <ele>116.46</ele>
        <time>2021-08-09T19:36:14Z</time>
      </trkpt>
      <trkpt lat="48.90065" lon="4.58504">
        <ele>116.46</ele>
        <time>2021-08-09T19:36:20Z</time>
      </trkpt>
      <trkpt lat="48.90067" lon="4.58501">
        <ele>116.46</ele>
        <time>2021-08-09T19:36:25Z</time>
      </trkpt>
      <trkpt lat="48.90066" lon="4.58499">
        <ele>116.46</ele>
        <time>2021-08-09T19:36:26Z</time>
      </trkpt>
      <trkpt lat="48.90065" lon="4.58499">
        <ele>116.46</ele>
        <time>2021-08-09T19:36:27Z</time>
      </trkpt>
      <trkpt lat="48.90063" lon="4.58499">
        <ele>116.46</ele>
        <time>2021-08-09T19:36:28Z</time>
      </trkpt>
      <trkpt lat="48.90062" lon="4.58501">
        <ele>116.46</ele>
        <time>2021-08-09T19:36:29Z</time>
      </trkpt>
      <trkpt lat="48.90061" lon="4.58502">
        <ele>116.46</ele>
        <time>2021-08-09T19:36:30Z</time>
      </trkpt>
      <trkpt lat="48.9006" lon="4.58502">
        <ele>116.46</ele>
        <time>2021-08-09T19:36:31Z</time>
      </trkpt>
      <trkpt lat="48.90059" lon="4.58503">
        <ele>116.46</ele>
        <time>2021-08-09T19:36:32Z</time>
      </trkpt>
      <trkpt lat="48.90058" lon="4.58501">
        <ele>116.46</ele>
        <time>2021-08-09T19:36:33Z</time>
      </trkpt>
      <trkpt lat="48.90057" lon="4.58499">
        <ele>116.46</ele>
        <time>2021-08-09T19:36:34Z</time>
      </trkpt>
      <trkpt lat="48.90056" lon="4.58497">
        <ele>116.46</ele>
        <time>2021-08-09T19:36:35Z</time>
      </trkpt>
      <trkpt lat="48.90047" lon="4.58465">
        <ele>116.46</ele>
        <time>2021-08-09T19:36:42Z</time>
      </trkpt>
      <trkpt lat="48.9003" lon="4.58406">
        <ele>116.46</ele>
        <time>2021-08-09T19:36:52Z</time>
      </trkpt>
      <trkpt lat="48.90013" lon="4.58353">
        <ele>115.01</ele>
        <time>2021-08-09T19:37:02Z</time>
      </trkpt>
      <trkpt lat="48.89999" lon="4.58303">
        <ele>115.01</ele>
        <time>2021-08-09T19:37:11Z</time>
      </trkpt>
      <trkpt lat="48.89982" lon="4.58245">
        <ele>114.05</ele>
        <time>2021-08-09T19:37:20Z</time>
      </trkpt>
      <trkpt lat="48.89978" lon="4.58231">
        <ele>114.05</ele>
        <time>2021-08-09T19:37:22Z</time>
      </trkpt>
      <trkpt lat="48.89976" lon="4.58225">
        <ele>114.05</ele>
        <time>2021-08-09T19:37:23Z</time>
      </trkpt>
      <trkpt lat="48.89956" lon="4.58158">
        <ele>112.61</ele>
        <time>2021-08-09T19:37:32Z</time>
      </trkpt>
      <trkpt lat="48.89929" lon="4.58067">
        <ele>111.65</ele>
        <time>2021-08-09T19:37:43Z</time>
      </trkpt>
      <trkpt lat="48.899" lon="4.57974">
        <ele>111.65</ele>
        <time>2021-08-09T19:37:55Z</time>
      </trkpt>
      <trkpt lat="48.89867" lon="4.57863">
        <ele>111.17</ele>
        <time>2021-08-09T19:38:09Z</time>
      </trkpt>
      <trkpt lat="48.8984" lon="4.57767">
        <ele>110.69</ele>
        <time>2021-08-09T19:38:21Z</time>
      </trkpt>
      <trkpt lat="48.89814" lon="4.57666">
        <ele>109.73</ele>
        <time>2021-08-09T19:38:33Z</time>
      </trkpt>
      <trkpt lat="48.89788" lon="4.57578">
        <ele>109.73</ele>
        <time>2021-08-09T19:38:44Z</time>
      </trkpt>
      <trkpt lat="48.8976" lon="4.57512">
        <ele>109.73</ele>
        <time>2021-08-09T19:38:54Z</time>
      </trkpt>
      <trkpt lat="48.89732" lon="4.57442">
        <ele>109.73</ele>
        <time>2021-08-09T19:39:04Z</time>
      </trkpt>
      <trkpt lat="48.89711" lon="4.57359">
        <ele>109.73</ele>
        <time>2021-08-09T19:39:15Z</time>
      </trkpt>
      <trkpt lat="48.89699" lon="4.5729">
        <ele>109.73</ele>
        <time>2021-08-09T19:39:24Z</time>
      </trkpt>
      <trkpt lat="48.89687" lon="4.57219">
        <ele>109.73</ele>
        <time>2021-08-09T19:39:33Z</time>
      </trkpt>
      <trkpt lat="48.89673" lon="4.57153">
        <ele>109.73</ele>
        <time>2021-08-09T19:39:42Z</time>
      </trkpt>
      <trkpt lat="48.89653" lon="4.57082">
        <ele>109.25</ele>
        <time>2021-08-09T19:39:52Z</time>
      </trkpt>
      <trkpt lat="48.89636" lon="4.57022">
        <ele>109.25</ele>
        <time>2021-08-09T19:40:01Z</time>
      </trkpt>
      <trkpt lat="48.89617" lon="4.56941">
        <ele>109.25</ele>
        <time>2021-08-09T19:40:12Z</time>
      </trkpt>
      <trkpt lat="48.89603" lon="4.56848">
        <ele>109.25</ele>
        <time>2021-08-09T19:40:24Z</time>
      </trkpt>
      <trkpt lat="48.89591" lon="4.56752">
        <ele>108.77</ele>
        <time>2021-08-09T19:40:36Z</time>
      </trkpt>
      <trkpt lat="48.89576" lon="4.56671">
        <ele>108.29</ele>
        <time>2021-08-09T19:40:46Z</time>
      </trkpt>
      <trkpt lat="48.89566" lon="4.56626">
        <ele>108.29</ele>
        <time>2021-08-09T19:40:52Z</time>
      </trkpt>
      <trkpt lat="48.89564" lon="4.56618">
        <ele>108.29</ele>
        <time>2021-08-09T19:40:53Z</time>
      </trkpt>
      <trkpt lat="48.89544" lon="4.56538">
        <ele>107.81</ele>
        <time>2021-08-09T19:41:03Z</time>
      </trkpt>
      <trkpt lat="48.89524" lon="4.56468">
        <ele>107.81</ele>
        <time>2021-08-09T19:41:13Z</time>
      </trkpt>
      <trkpt lat="48.89497" lon="4.56385">
        <ele>107.81</ele>
        <time>2021-08-09T19:41:25Z</time>
      </trkpt>
      <trkpt lat="48.89479" lon="4.56324">
        <ele>107.81</ele>
        <time>2021-08-09T19:41:34Z</time>
      </trkpt>
      <trkpt lat="48.89464" lon="4.5627">
        <ele>107.32</ele>
        <time>2021-08-09T19:41:42Z</time>
      </trkpt>
      <trkpt lat="48.89452" lon="4.56232">
        <ele>107.32</ele>
        <time>2021-08-09T19:41:50Z</time>
      </trkpt>
      <trkpt lat="48.89443" lon="4.56206">
        <ele>107.32</ele>
        <time>2021-08-09T19:41:55Z</time>
      </trkpt>
      <trkpt lat="48.89424" lon="4.56163">
        <ele>107.32</ele>
        <time>2021-08-09T19:42:04Z</time>
      </trkpt>
      <trkpt lat="48.894" lon="4.561">
        <ele>107.32</ele>
        <time>2021-08-09T19:42:16Z</time>
      </trkpt>
      <trkpt lat="48.89391" lon="4.56058">
        <ele>106.84</ele>
        <time>2021-08-09T19:42:22Z</time>
      </trkpt>
      <trkpt lat="48.89376" lon="4.55988">
        <ele>106.36</ele>
        <time>2021-08-09T19:42:31Z</time>
      </trkpt>
      <trkpt lat="48.89363" lon="4.55931">
        <ele>105.88</ele>
        <time>2021-08-09T19:42:39Z</time>
      </trkpt>
      <trkpt lat="48.8935" lon="4.55888">
        <ele>104.92</ele>
        <time>2021-08-09T19:42:47Z</time>
      </trkpt>
      <trkpt lat="48.89336" lon="4.55831">
        <ele>103.48</ele>
        <time>2021-08-09T19:42:56Z</time>
      </trkpt>
      <trkpt lat="48.89335" lon="4.55824">
        <ele>103.48</ele>
        <time>2021-08-09T19:42:57Z</time>
      </trkpt>
      <trkpt lat="48.89336" lon="4.55818">
        <ele>103.48</ele>
        <time>2021-08-09T19:42:58Z</time>
      </trkpt>
      <trkpt lat="48.89337" lon="4.55814">
        <ele>103</ele>
        <time>2021-08-09T19:42:59Z</time>
      </trkpt>
      <trkpt lat="48.89338" lon="4.5581">
        <ele>103</ele>
        <time>2021-08-09T19:43:00Z</time>
      </trkpt>
      <trkpt lat="48.8934" lon="4.55806">
        <ele>103</ele>
        <time>2021-08-09T19:43:01Z</time>
      </trkpt>
      <trkpt lat="48.8934" lon="4.55803">
        <ele>103</ele>
        <time>2021-08-09T19:43:02Z</time>
      </trkpt>
      <trkpt lat="48.89339" lon="4.55798">
        <ele>103</ele>
        <time>2021-08-09T19:43:03Z</time>
      </trkpt>
      <trkpt lat="48.89337" lon="4.55797">
        <ele>103</ele>
        <time>2021-08-09T19:43:04Z</time>
      </trkpt>
      <trkpt lat="48.89335" lon="4.55797">
        <ele>103</ele>
        <time>2021-08-09T19:43:05Z</time>
      </trkpt>
      <trkpt lat="48.89334" lon="4.558">
        <ele>103</ele>
        <time>2021-08-09T19:43:06Z</time>
      </trkpt>
      <trkpt lat="48.89334" lon="4.55804">
        <ele>103</ele>
        <time>2021-08-09T19:43:07Z</time>
      </trkpt>
      <trkpt lat="48.89335" lon="4.55807">
        <ele>103</ele>
        <time>2021-08-09T19:43:08Z</time>
      </trkpt>
      <trkpt lat="48.89339" lon="4.55842">
        <ele>103</ele>
        <time>2021-08-09T19:43:16Z</time>
      </trkpt>
      <trkpt lat="48.89352" lon="4.55888">
        <ele>104.92</ele>
        <time>2021-08-09T19:43:27Z</time>
      </trkpt>
      <trkpt lat="48.89364" lon="4.55931">
        <ele>105.4</ele>
        <time>2021-08-09T19:43:39Z</time>
      </trkpt>
      <trkpt lat="48.89374" lon="4.55969">
        <ele>105.4</ele>
        <time>2021-08-09T19:43:48Z</time>
      </trkpt>
      <trkpt lat="48.89385" lon="4.56016">
        <ele>105.88</ele>
        <time>2021-08-09T19:43:57Z</time>
      </trkpt>
      <trkpt lat="48.89392" lon="4.56056">
        <ele>106.84</ele>
        <time>2021-08-09T19:44:04Z</time>
      </trkpt>
      <trkpt lat="48.89396" lon="4.56104">
        <ele>107.32</ele>
        <time>2021-08-09T19:44:12Z</time>
      </trkpt>
      <trkpt lat="48.89391" lon="4.56113">
        <ele>107.32</ele>
        <time>2021-08-09T19:44:14Z</time>
      </trkpt>
      <trkpt lat="48.89388" lon="4.56116">
        <ele>107.81</ele>
        <time>2021-08-09T19:44:15Z</time>
      </trkpt>
      <trkpt lat="48.89385" lon="4.56119">
        <ele>107.81</ele>
        <time>2021-08-09T19:44:16Z</time>
      </trkpt>
      <trkpt lat="48.89381" lon="4.56121">
        <ele>107.81</ele>
        <time>2021-08-09T19:44:17Z</time>
      </trkpt>
      <trkpt lat="48.89378" lon="4.56123">
        <ele>107.81</ele>
        <time>2021-08-09T19:44:18Z</time>
      </trkpt>
      <trkpt lat="48.89374" lon="4.56125">
        <ele>107.81</ele>
        <time>2021-08-09T19:44:19Z</time>
      </trkpt>
      <trkpt lat="48.89343" lon="4.56144">
        <ele>108.77</ele>
        <time>2021-08-09T19:44:28Z</time>
      </trkpt>
      <trkpt lat="48.8932" lon="4.5616">
        <ele>109.25</ele>
        <time>2021-08-09T19:44:35Z</time>
      </trkpt>
      <trkpt lat="48.89295" lon="4.56171">
        <ele>109.73</ele>
        <time>2021-08-09T19:44:42Z</time>
      </trkpt>
      <trkpt lat="48.89286" lon="4.56158">
        <ele>111.17</ele>
        <time>2021-08-09T19:44:46Z</time>
      </trkpt>
      <trkpt lat="48.89281" lon="4.56122">
        <ele>113.09</ele>
        <time>2021-08-09T19:44:54Z</time>
      </trkpt>
      <trkpt lat="48.89273" lon="4.56058">
        <ele>112.61</ele>
        <time>2021-08-09T19:45:05Z</time>
      </trkpt>
      <trkpt lat="48.89261" lon="4.56013">
        <ele>112.61</ele>
        <time>2021-08-09T19:45:14Z</time>
      </trkpt>
      <trkpt lat="48.89254" lon="4.55978">
        <ele>111.65</ele>
        <time>2021-08-09T19:45:23Z</time>
      </trkpt>
      <trkpt lat="48.89255" lon="4.55966">
        <ele>110.69</ele>
        <time>2021-08-09T19:45:27Z</time>
      </trkpt>
      <trkpt lat="48.89256" lon="4.55964">
        <ele>110.69</ele>
        <time>2021-08-09T19:45:28Z</time>
      </trkpt>
      <trkpt lat="48.89257" lon="4.55963">
        <ele>110.21</ele>
        <time>2021-08-09T19:45:33Z</time>
      </trkpt>
      <trkpt lat="48.89255" lon="4.55962">
        <ele>110.21</ele>
        <time>2021-08-09T19:45:41Z</time>
      </trkpt>
      <trkpt lat="48.89254" lon="4.55962">
        <ele>110.21</ele>
        <time>2021-08-09T19:45:42Z</time>
      </trkpt>
      <trkpt lat="48.89253" lon="4.55963">
        <ele>110.21</ele>
        <time>2021-08-09T19:45:43Z</time>
      </trkpt>
      <trkpt lat="48.89252" lon="4.55965">
        <ele>110.21</ele>
        <time>2021-08-09T19:45:44Z</time>
      </trkpt>
      <trkpt lat="48.89254" lon="4.55974">
        <ele>110.69</ele>
        <time>2021-08-09T19:45:48Z</time>
      </trkpt>
      <trkpt lat="48.89257" lon="4.55983">
        <ele>110.69</ele>
        <time>2021-08-09T19:45:51Z</time>
      </trkpt>
      <trkpt lat="48.89258" lon="4.55985">
        <ele>110.69</ele>
        <time>2021-08-09T19:45:52Z</time>
      </trkpt>
      <trkpt lat="48.89259" lon="4.55987">
        <ele>110.69</ele>
        <time>2021-08-09T19:45:53Z</time>
      </trkpt>
      <trkpt lat="48.89259" lon="4.55988">
        <ele>111.65</ele>
        <time>2021-08-09T19:45:54Z</time>
      </trkpt>
      <trkpt lat="48.8926" lon="4.5599">
        <ele>111.65</ele>
        <time>2021-08-09T19:45:55Z</time>
      </trkpt>
      <trkpt lat="48.89261" lon="4.55993">
        <ele>111.65</ele>
        <time>2021-08-09T19:45:56Z</time>
      </trkpt>
      <trkpt lat="48.89262" lon="4.55995">
        <ele>111.65</ele>
        <time>2021-08-09T19:45:57Z</time>
      </trkpt>
      <trkpt lat="48.89263" lon="4.55998">
        <ele>111.65</ele>
        <time>2021-08-09T19:45:58Z</time>
      </trkpt>
      <trkpt lat="48.89264" lon="4.56001">
        <ele>112.13</ele>
        <time>2021-08-09T19:45:59Z</time>
      </trkpt>
      <trkpt lat="48.89265" lon="4.56003">
        <ele>112.13</ele>
        <time>2021-08-09T19:46:00Z</time>
      </trkpt>
      <trkpt lat="48.89265" lon="4.56005">
        <ele>112.13</ele>
        <time>2021-08-09T19:46:01Z</time>
      </trkpt>
      <trkpt lat="48.89265" lon="4.56008">
        <ele>112.13</ele>
        <time>2021-08-09T19:46:02Z</time>
      </trkpt>
      <trkpt lat="48.89265" lon="4.5601">
        <ele>112.13</ele>
        <time>2021-08-09T19:46:03Z</time>
      </trkpt>
      <trkpt lat="48.89265" lon="4.56013">
        <ele>112.13</ele>
        <time>2021-08-09T19:46:04Z</time>
      </trkpt>
      <trkpt lat="48.89265" lon="4.56015">
        <ele>112.13</ele>
        <time>2021-08-09T19:46:05Z</time>
      </trkpt>
      <trkpt lat="48.8927" lon="4.56041">
        <ele>112.13</ele>
        <time>2021-08-09T19:46:11Z</time>
      </trkpt>
      <trkpt lat="48.89282" lon="4.56098">
        <ele>112.61</ele>
        <time>2021-08-09T19:46:22Z</time>
      </trkpt>
      <trkpt lat="48.89284" lon="4.56142">
        <ele>113.09</ele>
        <time>2021-08-09T19:46:30Z</time>
      </trkpt>
      <trkpt lat="48.89281" lon="4.5617">
        <ele>111.65</ele>
        <time>2021-08-09T19:46:35Z</time>
      </trkpt>
      <trkpt lat="48.8928" lon="4.56177">
        <ele>110.69</ele>
        <time>2021-08-09T19:46:36Z</time>
      </trkpt>
      <trkpt lat="48.89277" lon="4.56184">
        <ele>110.69</ele>
        <time>2021-08-09T19:46:37Z</time>
      </trkpt>
      <trkpt lat="48.89273" lon="4.56191">
        <ele>110.69</ele>
        <time>2021-08-09T19:46:38Z</time>
      </trkpt>
      <trkpt lat="48.89269" lon="4.56195">
        <ele>110.69</ele>
        <time>2021-08-09T19:46:39Z</time>
      </trkpt>
      <trkpt lat="48.89265" lon="4.56198">
        <ele>110.69</ele>
        <time>2021-08-09T19:46:40Z</time>
      </trkpt>
      <trkpt lat="48.8926" lon="4.56201">
        <ele>110.69</ele>
        <time>2021-08-09T19:46:41Z</time>
      </trkpt>
      <trkpt lat="48.89218" lon="4.5623">
        <ele>110.69</ele>
        <time>2021-08-09T19:46:51Z</time>
      </trkpt>
      <trkpt lat="48.89185" lon="4.56258">
        <ele>112.13</ele>
        <time>2021-08-09T19:47:00Z</time>
      </trkpt>
      <trkpt lat="48.89146" lon="4.56296">
        <ele>113.57</ele>
        <time>2021-08-09T19:47:12Z</time>
      </trkpt>
      <trkpt lat="48.89113" lon="4.56333">
        <ele>115.01</ele>
        <time>2021-08-09T19:47:24Z</time>
      </trkpt>
      <trkpt lat="48.89088" lon="4.56363">
        <ele>116.94</ele>
        <time>2021-08-09T19:47:34Z</time>
      </trkpt>
      <trkpt lat="48.89061" lon="4.56399">
        <ele>118.38</ele>
        <time>2021-08-09T19:47:46Z</time>
      </trkpt>
      <trkpt lat="48.89032" lon="4.5644">
        <ele>120.78</ele>
        <time>2021-08-09T19:47:59Z</time>
      </trkpt>
      <trkpt lat="48.89004" lon="4.56477">
        <ele>122.22</ele>
        <time>2021-08-09T19:48:11Z</time>
      </trkpt>
      <trkpt lat="48.88984" lon="4.56511">
        <ele>123.67</ele>
        <time>2021-08-09T19:48:21Z</time>
      </trkpt>
      <trkpt lat="48.88971" lon="4.56548">
        <ele>125.11</ele>
        <time>2021-08-09T19:48:31Z</time>
      </trkpt>
      <trkpt lat="48.88957" lon="4.56594">
        <ele>127.51</ele>
        <time>2021-08-09T19:48:44Z</time>
      </trkpt>
      <trkpt lat="48.88944" lon="4.56628">
        <ele>129.43</ele>
        <time>2021-08-09T19:48:55Z</time>
      </trkpt>
      <trkpt lat="48.88927" lon="4.56657">
        <ele>131.84</ele>
        <time>2021-08-09T19:49:07Z</time>
      </trkpt>
      <trkpt lat="48.88912" lon="4.56676">
        <ele>133.76</ele>
        <time>2021-08-09T19:49:16Z</time>
      </trkpt>
      <trkpt lat="48.88892" lon="4.56696">
        <ele>135.2</ele>
        <time>2021-08-09T19:49:27Z</time>
      </trkpt>
      <trkpt lat="48.88874" lon="4.56714">
        <ele>136.64</ele>
        <time>2021-08-09T19:49:36Z</time>
      </trkpt>
      <trkpt lat="48.88854" lon="4.56731">
        <ele>138.57</ele>
        <time>2021-08-09T19:49:45Z</time>
      </trkpt>
      <trkpt lat="48.88829" lon="4.5675">
        <ele>140.49</ele>
        <time>2021-08-09T19:49:56Z</time>
      </trkpt>
      <trkpt lat="48.88806" lon="4.56766">
        <ele>142.41</ele>
        <time>2021-08-09T19:50:06Z</time>
      </trkpt>
      <trkpt lat="48.88779" lon="4.56784">
        <ele>143.85</ele>
        <time>2021-08-09T19:50:17Z</time>
      </trkpt>
      <trkpt lat="48.88747" lon="4.56803">
        <ele>146.26</ele>
        <time>2021-08-09T19:50:30Z</time>
      </trkpt>
      <trkpt lat="48.88717" lon="4.56817">
        <ele>148.18</ele>
        <time>2021-08-09T19:50:42Z</time>
      </trkpt>
      <trkpt lat="48.88692" lon="4.56827">
        <ele>148.66</ele>
        <time>2021-08-09T19:50:51Z</time>
      </trkpt>
      <trkpt lat="48.88656" lon="4.5684">
        <ele>151.06</ele>
        <time>2021-08-09T19:51:04Z</time>
      </trkpt>
      <trkpt lat="48.88625" lon="4.56853">
        <ele>151.54</ele>
        <time>2021-08-09T19:51:15Z</time>
      </trkpt>
      <trkpt lat="48.88591" lon="4.56868">
        <ele>152.99</ele>
        <time>2021-08-09T19:51:26Z</time>
      </trkpt>
      <trkpt lat="48.88558" lon="4.56887">
        <ele>154.43</ele>
        <time>2021-08-09T19:51:37Z</time>
      </trkpt>
      <trkpt lat="48.88533" lon="4.56899">
        <ele>155.39</ele>
        <time>2021-08-09T19:51:45Z</time>
      </trkpt>
      <trkpt lat="48.88498" lon="4.5692">
        <ele>156.35</ele>
        <time>2021-08-09T19:51:56Z</time>
      </trkpt>
      <trkpt lat="48.88462" lon="4.56941">
        <ele>157.31</ele>
        <time>2021-08-09T19:52:07Z</time>
      </trkpt>
      <trkpt lat="48.88417" lon="4.56968">
        <ele>158.75</ele>
        <time>2021-08-09T19:52:20Z</time>
      </trkpt>
      <trkpt lat="48.88377" lon="4.57006">
        <ele>159.24</ele>
        <time>2021-08-09T19:52:32Z</time>
      </trkpt>
      <trkpt lat="48.88348" lon="4.57042">
        <ele>159.72</ele>
        <time>2021-08-09T19:52:41Z</time>
      </trkpt>
      <trkpt lat="48.88312" lon="4.57088">
        <ele>160.68</ele>
        <time>2021-08-09T19:52:52Z</time>
      </trkpt>
      <trkpt lat="48.88299" lon="4.57107">
        <ele>161.16</ele>
        <time>2021-08-09T19:52:56Z</time>
      </trkpt>
      <trkpt lat="48.88274" lon="4.57143">
        <ele>162.6</ele>
        <time>2021-08-09T19:53:04Z</time>
      </trkpt>
      <trkpt lat="48.88254" lon="4.57175">
        <ele>164.04</ele>
        <time>2021-08-09T19:53:13Z</time>
      </trkpt>
      <trkpt lat="48.88227" lon="4.5722">
        <ele>165.96</ele>
        <time>2021-08-09T19:53:26Z</time>
      </trkpt>
      <trkpt lat="48.88205" lon="4.57263">
        <ele>167.89</ele>
        <time>2021-08-09T19:53:38Z</time>
      </trkpt>
      <trkpt lat="48.88191" lon="4.5729">
        <ele>169.33</ele>
        <time>2021-08-09T19:53:47Z</time>
      </trkpt>
      <trkpt lat="48.88179" lon="4.57319">
        <ele>170.77</ele>
        <time>2021-08-09T19:53:55Z</time>
      </trkpt>
      <trkpt lat="48.88162" lon="4.57363">
        <ele>172.21</ele>
        <time>2021-08-09T19:54:06Z</time>
      </trkpt>
      <trkpt lat="48.88146" lon="4.57406">
        <ele>173.66</ele>
        <time>2021-08-09T19:54:16Z</time>
      </trkpt>
      <trkpt lat="48.88125" lon="4.57455">
        <ele>174.62</ele>
        <time>2021-08-09T19:54:27Z</time>
      </trkpt>
      <trkpt lat="48.88103" lon="4.575">
        <ele>175.1</ele>
        <time>2021-08-09T19:54:37Z</time>
      </trkpt>
      <trkpt lat="48.8807" lon="4.57564">
        <ele>176.06</ele>
        <time>2021-08-09T19:54:51Z</time>
      </trkpt>
      <trkpt lat="48.88046" lon="4.57616">
        <ele>176.54</ele>
        <time>2021-08-09T19:55:02Z</time>
      </trkpt>
      <trkpt lat="48.88031" lon="4.57672">
        <ele>176.54</ele>
        <time>2021-08-09T19:55:13Z</time>
      </trkpt>
      <trkpt lat="48.88029" lon="4.57691">
        <ele>176.54</ele>
        <time>2021-08-09T19:55:16Z</time>
      </trkpt>
      <trkpt lat="48.88029" lon="4.57706">
        <ele>175.1</ele>
        <time>2021-08-09T19:55:18Z</time>
      </trkpt>
      <trkpt lat="48.88028" lon="4.57727">
        <ele>174.62</ele>
        <time>2021-08-09T19:55:21Z</time>
      </trkpt>
      <trkpt lat="48.88027" lon="4.57734">
        <ele>174.62</ele>
        <time>2021-08-09T19:55:22Z</time>
      </trkpt>
      <trkpt lat="48.88025" lon="4.57763">
        <ele>174.62</ele>
        <time>2021-08-09T19:55:26Z</time>
      </trkpt>
      <trkpt lat="48.8802" lon="4.57791">
        <ele>174.14</ele>
        <time>2021-08-09T19:55:30Z</time>
      </trkpt>
      <trkpt lat="48.88013" lon="4.57811">
        <ele>173.66</ele>
        <time>2021-08-09T19:55:33Z</time>
      </trkpt>
      <trkpt lat="48.88011" lon="4.57817">
        <ele>173.66</ele>
        <time>2021-08-09T19:55:34Z</time>
      </trkpt>
      <trkpt lat="48.88009" lon="4.57823">
        <ele>173.66</ele>
        <time>2021-08-09T19:55:35Z</time>
      </trkpt>
      <trkpt lat="48.88003" lon="4.5784">
        <ele>173.66</ele>
        <time>2021-08-09T19:55:38Z</time>
      </trkpt>
      <trkpt lat="48.87993" lon="4.57861">
        <ele>173.66</ele>
        <time>2021-08-09T19:55:42Z</time>
      </trkpt>
      <trkpt lat="48.87978" lon="4.57897">
        <ele>173.66</ele>
        <time>2021-08-09T19:55:49Z</time>
      </trkpt>
      <trkpt lat="48.87971" lon="4.5791">
        <ele>173.17</ele>
        <time>2021-08-09T19:55:53Z</time>
      </trkpt>
      <trkpt lat="48.87971" lon="4.57911">
        <ele>173.17</ele>
        <time>2021-08-09T19:56:02Z</time>
      </trkpt>
      <trkpt lat="48.8797" lon="4.57912">
        <ele>173.17</ele>
        <time>2021-08-09T19:56:03Z</time>
      </trkpt>
      <trkpt lat="48.87963" lon="4.57929">
        <ele>173.17</ele>
        <time>2021-08-09T19:56:08Z</time>
      </trkpt>
      <trkpt lat="48.87941" lon="4.57976">
        <ele>172.69</ele>
        <time>2021-08-09T19:56:17Z</time>
      </trkpt>
      <trkpt lat="48.87914" lon="4.58032">
        <ele>172.21</ele>
        <time>2021-08-09T19:56:26Z</time>
      </trkpt>
      <trkpt lat="48.87885" lon="4.58095">
        <ele>172.21</ele>
        <time>2021-08-09T19:56:36Z</time>
      </trkpt>
      <trkpt lat="48.87854" lon="4.5816">
        <ele>172.69</ele>
        <time>2021-08-09T19:56:47Z</time>
      </trkpt>
      <trkpt lat="48.87823" lon="4.58229">
        <ele>172.69</ele>
        <time>2021-08-09T19:56:58Z</time>
      </trkpt>
      <trkpt lat="48.87806" lon="4.58266">
        <ele>172.69</ele>
        <time>2021-08-09T19:57:04Z</time>
      </trkpt>
      <trkpt lat="48.87779" lon="4.58327">
        <ele>173.66</ele>
        <time>2021-08-09T19:57:14Z</time>
      </trkpt>
      <trkpt lat="48.87748" lon="4.58392">
        <ele>174.14</ele>
        <time>2021-08-09T19:57:25Z</time>
      </trkpt>
      <trkpt lat="48.87711" lon="4.58467">
        <ele>176.06</ele>
        <time>2021-08-09T19:57:38Z</time>
      </trkpt>
      <trkpt lat="48.87681" lon="4.58525">
        <ele>176.54</ele>
        <time>2021-08-09T19:57:49Z</time>
      </trkpt>
      <trkpt lat="48.8765" lon="4.58579">
        <ele>178.46</ele>
        <time>2021-08-09T19:58:00Z</time>
      </trkpt>
      <trkpt lat="48.87624" lon="4.58616">
        <ele>179.9</ele>
        <time>2021-08-09T19:58:09Z</time>
      </trkpt>
      <trkpt lat="48.87591" lon="4.58655">
        <ele>180.87</ele>
        <time>2021-08-09T19:58:20Z</time>
      </trkpt>
      <trkpt lat="48.87547" lon="4.58711">
        <ele>181.83</ele>
        <time>2021-08-09T19:58:35Z</time>
      </trkpt>
      <trkpt lat="48.87515" lon="4.58749">
        <ele>182.79</ele>
        <time>2021-08-09T19:58:45Z</time>
      </trkpt>
      <trkpt lat="48.87465" lon="4.58813">
        <ele>182.79</ele>
        <time>2021-08-09T19:59:00Z</time>
      </trkpt>
      <trkpt lat="48.8744" lon="4.58843">
        <ele>182.79</ele>
        <time>2021-08-09T19:59:07Z</time>
      </trkpt>
      <trkpt lat="48.87437" lon="4.58847">
        <ele>182.79</ele>
        <time>2021-08-09T19:59:08Z</time>
      </trkpt>
      <trkpt lat="48.87401" lon="4.58894">
        <ele>183.75</ele>
        <time>2021-08-09T19:59:19Z</time>
      </trkpt>
      <trkpt lat="48.87372" lon="4.58933">
        <ele>185.67</ele>
        <time>2021-08-09T19:59:30Z</time>
      </trkpt>
      <trkpt lat="48.87346" lon="4.58966">
        <ele>187.59</ele>
        <time>2021-08-09T19:59:41Z</time>
      </trkpt>
      <trkpt lat="48.87324" lon="4.58992">
        <ele>189.52</ele>
        <time>2021-08-09T19:59:51Z</time>
      </trkpt>
      <trkpt lat="48.87304" lon="4.59016">
        <ele>190.48</ele>
        <time>2021-08-09T20:00:00Z</time>
      </trkpt>
      <trkpt lat="48.87285" lon="4.59041">
        <ele>192.4</ele>
        <time>2021-08-09T20:00:09Z</time>
      </trkpt>
      <trkpt lat="48.87261" lon="4.5907">
        <ele>193.36</ele>
        <time>2021-08-09T20:00:19Z</time>
      </trkpt>
      <trkpt lat="48.87238" lon="4.591">
        <ele>193.84</ele>
        <time>2021-08-09T20:00:28Z</time>
      </trkpt>
      <trkpt lat="48.87215" lon="4.59133">
        <ele>194.8</ele>
        <time>2021-08-09T20:00:37Z</time>
      </trkpt>
      <trkpt lat="48.872" lon="4.59161">
        <ele>194.8</ele>
        <time>2021-08-09T20:00:44Z</time>
      </trkpt>
      <trkpt lat="48.87177" lon="4.59208">
        <ele>192.88</ele>
        <time>2021-08-09T20:00:53Z</time>
      </trkpt>
      <trkpt lat="48.87151" lon="4.59261">
        <ele>190.48</ele>
        <time>2021-08-09T20:01:02Z</time>
      </trkpt>
      <trkpt lat="48.87131" lon="4.59309">
        <ele>186.63</ele>
        <time>2021-08-09T20:01:09Z</time>
      </trkpt>
      <trkpt lat="48.87115" lon="4.59349">
        <ele>183.75</ele>
        <time>2021-08-09T20:01:15Z</time>
      </trkpt>
      <trkpt lat="48.87103" lon="4.59381">
        <ele>179.9</ele>
        <time>2021-08-09T20:01:20Z</time>
      </trkpt>
      <trkpt lat="48.87093" lon="4.59406">
        <ele>176.54</ele>
        <time>2021-08-09T20:01:25Z</time>
      </trkpt>
      <trkpt lat="48.87083" lon="4.59429">
        <ele>172.69</ele>
        <time>2021-08-09T20:01:29Z</time>
      </trkpt>
      <trkpt lat="48.87075" lon="4.5945">
        <ele>169.33</ele>
        <time>2021-08-09T20:01:32Z</time>
      </trkpt>
      <trkpt lat="48.87065" lon="4.59472">
        <ele>165.96</ele>
        <time>2021-08-09T20:01:35Z</time>
      </trkpt>
      <trkpt lat="48.87057" lon="4.5949">
        <ele>162.6</ele>
        <time>2021-08-09T20:01:38Z</time>
      </trkpt>
      <trkpt lat="48.87056" lon="4.59492">
        <ele>162.6</ele>
        <time>2021-08-09T20:01:39Z</time>
      </trkpt>
      <trkpt lat="48.87056" lon="4.59494">
        <ele>161.64</ele>
        <time>2021-08-09T20:01:44Z</time>
      </trkpt>
      <trkpt lat="48.87058" lon="4.59493">
        <ele>161.64</ele>
        <time>2021-08-09T20:01:46Z</time>
      </trkpt>
      <trkpt lat="48.87059" lon="4.59493">
        <ele>161.64</ele>
        <time>2021-08-09T20:01:47Z</time>
      </trkpt>
      <trkpt lat="48.87061" lon="4.595">
        <ele>162.6</ele>
        <time>2021-08-09T20:01:54Z</time>
      </trkpt>
      <trkpt lat="48.8706" lon="4.59503">
        <ele>162.6</ele>
        <time>2021-08-09T20:02:01Z</time>
      </trkpt>
      <trkpt lat="48.87061" lon="4.59501">
        <ele>162.6</ele>
        <time>2021-08-09T20:02:06Z</time>
      </trkpt>
      <trkpt lat="48.87061" lon="4.59495">
        <ele>162.6</ele>
        <time>2021-08-09T20:02:11Z</time>
      </trkpt>
      <trkpt lat="48.8706" lon="4.59492">
        <ele>163.56</ele>
        <time>2021-08-09T20:02:13Z</time>
      </trkpt>
      <trkpt lat="48.87057" lon="4.59491">
        <ele>163.56</ele>
        <time>2021-08-09T20:02:18Z</time>
      </trkpt>
      <trkpt lat="48.87055" lon="4.59494">
        <ele>163.56</ele>
        <time>2021-08-09T20:02:20Z</time>
      </trkpt>
      <trkpt lat="48.87053" lon="4.59497">
        <ele>163.56</ele>
        <time>2021-08-09T20:02:21Z</time>
      </trkpt>
      <trkpt lat="48.87051" lon="4.59504">
        <ele>162.12</ele>
        <time>2021-08-09T20:02:23Z</time>
      </trkpt>
      <trkpt lat="48.87041" lon="4.59525">
        <ele>159.24</ele>
        <time>2021-08-09T20:02:28Z</time>
      </trkpt>
      <trkpt lat="48.8704" lon="4.59529">
        <ele>159.24</ele>
        <time>2021-08-09T20:02:30Z</time>
      </trkpt>
      <trkpt lat="48.8704" lon="4.59531">
        <ele>159.24</ele>
        <time>2021-08-09T20:02:31Z</time>
      </trkpt>
      <trkpt lat="48.8704" lon="4.59533">
        <ele>159.24</ele>
        <time>2021-08-09T20:02:32Z</time>
      </trkpt>
      <trkpt lat="48.8704" lon="4.59535">
        <ele>159.24</ele>
        <time>2021-08-09T20:02:33Z</time>
      </trkpt>
      <trkpt lat="48.87042" lon="4.59537">
        <ele>158.27</ele>
        <time>2021-08-09T20:02:34Z</time>
      </trkpt>
      <trkpt lat="48.87043" lon="4.59539">
        <ele>158.75</ele>
        <time>2021-08-09T20:02:35Z</time>
      </trkpt>
      <trkpt lat="48.87044" lon="4.59539">
        <ele>158.27</ele>
        <time>2021-08-09T20:02:36Z</time>
      </trkpt>
      <trkpt lat="48.87046" lon="4.5954">
        <ele>158.27</ele>
        <time>2021-08-09T20:02:37Z</time>
      </trkpt>
      <trkpt lat="48.87047" lon="4.59541">
        <ele>158.75</ele>
        <time>2021-08-09T20:02:38Z</time>
      </trkpt>
      <trkpt lat="48.87048" lon="4.59543">
        <ele>158.75</ele>
        <time>2021-08-09T20:02:39Z</time>
      </trkpt>
      <trkpt lat="48.87049" lon="4.59544">
        <ele>158.75</ele>
        <time>2021-08-09T20:02:40Z</time>
      </trkpt>
      <trkpt lat="48.8705" lon="4.59546">
        <ele>158.75</ele>
        <time>2021-08-09T20:02:41Z</time>
      </trkpt>
      <trkpt lat="48.8705" lon="4.59548">
        <ele>158.75</ele>
        <time>2021-08-09T20:02:45Z</time>
      </trkpt>
      <trkpt lat="48.87044" lon="4.59543">
        <ele>158.75</ele>
        <time>2021-08-09T20:02:50Z</time>
      </trkpt>
      <trkpt lat="48.87038" lon="4.59534">
        <ele>158.75</ele>
        <time>2021-08-09T20:02:56Z</time>
      </trkpt>
      <trkpt lat="48.87038" lon="4.59532">
        <ele>158.75</ele>
        <time>2021-08-09T20:02:59Z</time>
      </trkpt>
      <trkpt lat="48.87039" lon="4.59528">
        <ele>158.75</ele>
        <time>2021-08-09T20:03:07Z</time>
      </trkpt>
      <trkpt lat="48.87037" lon="4.59526">
        <ele>158.75</ele>
        <time>2021-08-09T20:03:18Z</time>
      </trkpt>
      <trkpt lat="48.87029" lon="4.59505">
        <ele>157.79</ele>
        <time>2021-08-09T20:03:25Z</time>
      </trkpt>
      <trkpt lat="48.87025" lon="4.59494">
        <ele>157.31</ele>
        <time>2021-08-09T20:03:32Z</time>
      </trkpt>
      <trkpt lat="48.87025" lon="4.59494">
        <ele>157.79</ele>
        <time>2021-08-09T20:03:42Z</time>
      </trkpt>
      <trkpt lat="48.87026" lon="4.59492">
        <ele>157.79</ele>
        <time>2021-08-09T20:03:55Z</time>
      </trkpt>
      <trkpt lat="48.87021" lon="4.59477">
        <ele>157.79</ele>
        <time>2021-08-09T20:04:00Z</time>
      </trkpt>
      <trkpt lat="48.87009" lon="4.59442">
        <ele>156.83</ele>
        <time>2021-08-09T20:04:08Z</time>
      </trkpt>
      <trkpt lat="48.86998" lon="4.5941">
        <ele>156.83</ele>
        <time>2021-08-09T20:04:16Z</time>
      </trkpt>
      <trkpt lat="48.86988" lon="4.59389">
        <ele>156.83</ele>
        <time>2021-08-09T20:04:23Z</time>
      </trkpt>
      <trkpt lat="48.86979" lon="4.59364">
        <ele>156.35</ele>
        <time>2021-08-09T20:04:33Z</time>
      </trkpt>
      <trkpt lat="48.8698" lon="4.59365">
        <ele>156.35</ele>
        <time>2021-08-09T20:04:41Z</time>
      </trkpt>
      <trkpt lat="48.86981" lon="4.59366">
        <ele>156.35</ele>
        <time>2021-08-09T20:04:54Z</time>
      </trkpt>
      <trkpt lat="48.86981" lon="4.59366">
        <ele>156.35</ele>
        <time>2021-08-09T20:05:00Z</time>
      </trkpt>
      <trkpt lat="48.8698" lon="4.59363">
        <ele>156.35</ele>
        <time>2021-08-09T20:05:15Z</time>
      </trkpt>
      <trkpt lat="48.86979" lon="4.59363">
        <ele>156.83</ele>
        <time>2021-08-09T20:05:24Z</time>
      </trkpt>
    </trkseg>
  </trk>
</gpx>